<?xml version="1.0" encoding="UTF-8"?>
<gpx version="1.1" creator="https://www.www-youtrack-es.amenigma.com" xsi:schemaLocation="http://www.topografix.com/GPX/1/1 http://www.topografix.com/GPX/1/1/gpx.xsd http://www.garmin.com/xmlschemas/GpxExtensions/v3 http://www.garmin.com/xmlschemas/GpxExtensionsv3.xsd http://www.garmin.com/xmlschemas/TrackPointExtension/v1 http://www.garmin.com/xmlschemas/TrackPointExtensionv1.xsd" xmlns:gpxtpx="http://www.garmin.com/xmlschemas/TrackPointExtension/v1" xmlns:gpxx="http://www.garmin.com/xmlschemas/GpxExtensions/v3" xmlns:xsi="http://www.w3.org/2001/XMLSchema-instance">
  <metadata>
    <link href="https://www.www-youtrack-es.amenigma.com">
      <text>YouTrack.es</text>
    </link>
    <time>2026-09-01T03:42:41Z</time>
  </metadata>
  <trk>
    <src>https://www.www-youtrack-es.amenigma.com</src>
    <link href="https://www.www-youtrack-es.amenigma.com/ruta/1027-jabargada-2018">
      <text>YouTrack.es</text>
    </link>
    <trkseg>
      <trkpt lat="43.2371570" lon="-5.8760920">
        <ele>290.8</ele>
        <time>2018-06-17T06:33:35Z</time>
      </trkpt>
      <trkpt lat="43.2371300" lon="-5.8760930">
        <ele>291.2</ele>
        <time>2018-06-17T06:33:36Z</time>
      </trkpt>
      <trkpt lat="43.2370580" lon="-5.8760900">
        <ele>291.6</ele>
        <time>2018-06-17T06:33:39Z</time>
      </trkpt>
      <trkpt lat="43.2366390" lon="-5.8761220">
        <ele>291.8</ele>
        <time>2018-06-17T06:33:53Z</time>
      </trkpt>
      <trkpt lat="43.2362010" lon="-5.8762200">
        <ele>291.8</ele>
        <time>2018-06-17T06:34:08Z</time>
      </trkpt>
      <trkpt lat="43.2360890" lon="-5.8762320">
        <ele>291.8</ele>
        <time>2018-06-17T06:34:12Z</time>
      </trkpt>
      <trkpt lat="43.2359270" lon="-5.8762610">
        <ele>291.8</ele>
        <time>2018-06-17T06:34:18Z</time>
      </trkpt>
      <trkpt lat="43.2356680" lon="-5.8763050">
        <ele>292.0</ele>
        <time>2018-06-17T06:34:27Z</time>
      </trkpt>
      <trkpt lat="43.2355810" lon="-5.8763270">
        <ele>292.2</ele>
        <time>2018-06-17T06:34:30Z</time>
      </trkpt>
      <trkpt lat="43.2353320" lon="-5.8764380">
        <ele>292.6</ele>
        <time>2018-06-17T06:34:39Z</time>
      </trkpt>
      <trkpt lat="43.2352270" lon="-5.8764810">
        <ele>293.0</ele>
        <time>2018-06-17T06:34:43Z</time>
      </trkpt>
      <trkpt lat="43.2350660" lon="-5.8765470">
        <ele>293.0</ele>
        <time>2018-06-17T06:34:49Z</time>
      </trkpt>
      <trkpt lat="43.2348570" lon="-5.8766370">
        <ele>293.2</ele>
        <time>2018-06-17T06:34:56Z</time>
      </trkpt>
      <trkpt lat="43.2344800" lon="-5.8771730">
        <ele>293.8</ele>
        <time>2018-06-17T06:35:13Z</time>
      </trkpt>
      <trkpt lat="43.2342750" lon="-5.8772170">
        <ele>294.2</ele>
        <time>2018-06-17T06:35:19Z</time>
      </trkpt>
      <trkpt lat="43.2339810" lon="-5.8773290">
        <ele>294.2</ele>
        <time>2018-06-17T06:35:29Z</time>
      </trkpt>
      <trkpt lat="43.2340530" lon="-5.8775180">
        <ele>294.0</ele>
        <time>2018-06-17T06:35:34Z</time>
      </trkpt>
      <trkpt lat="43.2340830" lon="-5.8775500">
        <ele>294.0</ele>
        <time>2018-06-17T06:35:35Z</time>
      </trkpt>
      <trkpt lat="43.2344140" lon="-5.8781340">
        <ele>294.8</ele>
        <time>2018-06-17T06:35:49Z</time>
      </trkpt>
      <trkpt lat="43.2344450" lon="-5.8782010">
        <ele>295.2</ele>
        <time>2018-06-17T06:35:51Z</time>
      </trkpt>
      <trkpt lat="43.2344760" lon="-5.8782910">
        <ele>296.0</ele>
        <time>2018-06-17T06:35:54Z</time>
      </trkpt>
      <trkpt lat="43.2344770" lon="-5.8783100">
        <ele>296.2</ele>
        <time>2018-06-17T06:35:55Z</time>
      </trkpt>
      <trkpt lat="43.2344700" lon="-5.8783340">
        <ele>296.4</ele>
        <time>2018-06-17T06:35:56Z</time>
      </trkpt>
      <trkpt lat="43.2343660" lon="-5.8784270">
        <ele>296.8</ele>
        <time>2018-06-17T06:36:00Z</time>
      </trkpt>
      <trkpt lat="43.2338370" lon="-5.8787430">
        <ele>296.6</ele>
        <time>2018-06-17T06:36:14Z</time>
      </trkpt>
      <trkpt lat="43.2337920" lon="-5.8787720">
        <ele>296.6</ele>
        <time>2018-06-17T06:36:15Z</time>
      </trkpt>
      <trkpt lat="43.2332890" lon="-5.8791360">
        <ele>297.0</ele>
        <time>2018-06-17T06:36:27Z</time>
      </trkpt>
      <trkpt lat="43.2331830" lon="-5.8792250">
        <ele>297.2</ele>
        <time>2018-06-17T06:36:30Z</time>
      </trkpt>
      <trkpt lat="43.2330930" lon="-5.8793020">
        <ele>297.8</ele>
        <time>2018-06-17T06:36:33Z</time>
      </trkpt>
      <trkpt lat="43.2330080" lon="-5.8794100">
        <ele>298.4</ele>
        <time>2018-06-17T06:36:36Z</time>
      </trkpt>
      <trkpt lat="43.2329550" lon="-5.8794910">
        <ele>298.8</ele>
        <time>2018-06-17T06:36:38Z</time>
      </trkpt>
      <trkpt lat="43.2328840" lon="-5.8796190">
        <ele>299.4</ele>
        <time>2018-06-17T06:36:41Z</time>
      </trkpt>
      <trkpt lat="43.2328150" lon="-5.8797480">
        <ele>299.8</ele>
        <time>2018-06-17T06:36:44Z</time>
      </trkpt>
      <trkpt lat="43.2327020" lon="-5.8799210">
        <ele>300.6</ele>
        <time>2018-06-17T06:36:49Z</time>
      </trkpt>
      <trkpt lat="43.2326500" lon="-5.8799830">
        <ele>301.0</ele>
        <time>2018-06-17T06:36:51Z</time>
      </trkpt>
      <trkpt lat="43.2325200" lon="-5.8801130">
        <ele>301.6</ele>
        <time>2018-06-17T06:36:56Z</time>
      </trkpt>
      <trkpt lat="43.2324700" lon="-5.8801950">
        <ele>302.0</ele>
        <time>2018-06-17T06:36:59Z</time>
      </trkpt>
      <trkpt lat="43.2322930" lon="-5.8803060">
        <ele>303.2</ele>
        <time>2018-06-17T06:37:05Z</time>
      </trkpt>
      <trkpt lat="43.2321080" lon="-5.8803730">
        <ele>303.4</ele>
        <time>2018-06-17T06:37:09Z</time>
      </trkpt>
      <trkpt lat="43.2319920" lon="-5.8804230">
        <ele>304.2</ele>
        <time>2018-06-17T06:37:12Z</time>
      </trkpt>
      <trkpt lat="43.2317850" lon="-5.8806590">
        <ele>305.6</ele>
        <time>2018-06-17T06:37:19Z</time>
      </trkpt>
      <trkpt lat="43.2315900" lon="-5.8809590">
        <ele>306.6</ele>
        <time>2018-06-17T06:37:25Z</time>
      </trkpt>
      <trkpt lat="43.2312490" lon="-5.8811570">
        <ele>307.6</ele>
        <time>2018-06-17T06:37:35Z</time>
      </trkpt>
      <trkpt lat="43.2310410" lon="-5.8814840">
        <ele>308.6</ele>
        <time>2018-06-17T06:37:43Z</time>
      </trkpt>
      <trkpt lat="43.2309380" lon="-5.8816730">
        <ele>309.6</ele>
        <time>2018-06-17T06:37:48Z</time>
      </trkpt>
      <trkpt lat="43.2307970" lon="-5.8819050">
        <ele>310.8</ele>
        <time>2018-06-17T06:37:54Z</time>
      </trkpt>
      <trkpt lat="43.2306000" lon="-5.8821760">
        <ele>311.8</ele>
        <time>2018-06-17T06:38:02Z</time>
      </trkpt>
      <trkpt lat="43.2304920" lon="-5.8822630">
        <ele>312.8</ele>
        <time>2018-06-17T06:38:06Z</time>
      </trkpt>
      <trkpt lat="43.2303360" lon="-5.8822760">
        <ele>314.2</ele>
        <time>2018-06-17T06:38:11Z</time>
      </trkpt>
      <trkpt lat="43.2302490" lon="-5.8822430">
        <ele>315.4</ele>
        <time>2018-06-17T06:38:14Z</time>
      </trkpt>
      <trkpt lat="43.2301150" lon="-5.8821430">
        <ele>316.6</ele>
        <time>2018-06-17T06:38:19Z</time>
      </trkpt>
      <trkpt lat="43.2300060" lon="-5.8820640">
        <ele>317.6</ele>
        <time>2018-06-17T06:38:23Z</time>
      </trkpt>
      <trkpt lat="43.2299030" lon="-5.8819960">
        <ele>318.6</ele>
        <time>2018-06-17T06:38:27Z</time>
      </trkpt>
      <trkpt lat="43.2298000" lon="-5.8819430">
        <ele>319.6</ele>
        <time>2018-06-17T06:38:31Z</time>
      </trkpt>
      <trkpt lat="43.2296910" lon="-5.8819000">
        <ele>320.8</ele>
        <time>2018-06-17T06:38:35Z</time>
      </trkpt>
      <trkpt lat="43.2295860" lon="-5.8818710">
        <ele>322.0</ele>
        <time>2018-06-17T06:38:39Z</time>
      </trkpt>
      <trkpt lat="43.2295050" lon="-5.8818580">
        <ele>323.0</ele>
        <time>2018-06-17T06:38:42Z</time>
      </trkpt>
      <trkpt lat="43.2293160" lon="-5.8818840">
        <ele>324.2</ele>
        <time>2018-06-17T06:38:48Z</time>
      </trkpt>
      <trkpt lat="43.2291880" lon="-5.8819590">
        <ele>325.2</ele>
        <time>2018-06-17T06:38:53Z</time>
      </trkpt>
      <trkpt lat="43.2290970" lon="-5.8820590">
        <ele>326.2</ele>
        <time>2018-06-17T06:38:58Z</time>
      </trkpt>
      <trkpt lat="43.2289960" lon="-5.8821310">
        <ele>327.4</ele>
        <time>2018-06-17T06:39:03Z</time>
      </trkpt>
      <trkpt lat="43.2288530" lon="-5.8821440">
        <ele>328.6</ele>
        <time>2018-06-17T06:39:08Z</time>
      </trkpt>
      <trkpt lat="43.2286740" lon="-5.8820070">
        <ele>329.8</ele>
        <time>2018-06-17T06:39:15Z</time>
      </trkpt>
      <trkpt lat="43.2285540" lon="-5.8818270">
        <ele>330.8</ele>
        <time>2018-06-17T06:39:21Z</time>
      </trkpt>
      <trkpt lat="43.2284490" lon="-5.8816560">
        <ele>332.0</ele>
        <time>2018-06-17T06:39:27Z</time>
      </trkpt>
      <trkpt lat="43.2283490" lon="-5.8815350">
        <ele>333.2</ele>
        <time>2018-06-17T06:39:32Z</time>
      </trkpt>
      <trkpt lat="43.2282550" lon="-5.8814470">
        <ele>334.4</ele>
        <time>2018-06-17T06:39:36Z</time>
      </trkpt>
      <trkpt lat="43.2280900" lon="-5.8813100">
        <ele>335.6</ele>
        <time>2018-06-17T06:39:43Z</time>
      </trkpt>
      <trkpt lat="43.2279680" lon="-5.8812320">
        <ele>336.6</ele>
        <time>2018-06-17T06:39:48Z</time>
      </trkpt>
      <trkpt lat="43.2277900" lon="-5.8811410">
        <ele>337.8</ele>
        <time>2018-06-17T06:39:55Z</time>
      </trkpt>
      <trkpt lat="43.2276880" lon="-5.8811080">
        <ele>338.8</ele>
        <time>2018-06-17T06:39:59Z</time>
      </trkpt>
      <trkpt lat="43.2275500" lon="-5.8810420">
        <ele>340.0</ele>
        <time>2018-06-17T06:40:05Z</time>
      </trkpt>
      <trkpt lat="43.2273790" lon="-5.8810720">
        <ele>341.0</ele>
        <time>2018-06-17T06:40:11Z</time>
      </trkpt>
      <trkpt lat="43.2271960" lon="-5.8810330">
        <ele>342.2</ele>
        <time>2018-06-17T06:40:17Z</time>
      </trkpt>
      <trkpt lat="43.2270870" lon="-5.8809720">
        <ele>343.2</ele>
        <time>2018-06-17T06:40:21Z</time>
      </trkpt>
      <trkpt lat="43.2269790" lon="-5.8809230">
        <ele>344.2</ele>
        <time>2018-06-17T06:40:25Z</time>
      </trkpt>
      <trkpt lat="43.2268390" lon="-5.8808210">
        <ele>345.4</ele>
        <time>2018-06-17T06:40:31Z</time>
      </trkpt>
      <trkpt lat="43.2266960" lon="-5.8807920">
        <ele>346.6</ele>
        <time>2018-06-17T06:40:36Z</time>
      </trkpt>
      <trkpt lat="43.2265470" lon="-5.8807900">
        <ele>347.8</ele>
        <time>2018-06-17T06:40:41Z</time>
      </trkpt>
      <trkpt lat="43.2263960" lon="-5.8808040">
        <ele>348.8</ele>
        <time>2018-06-17T06:40:46Z</time>
      </trkpt>
      <trkpt lat="43.2262250" lon="-5.8808110">
        <ele>349.8</ele>
        <time>2018-06-17T06:40:52Z</time>
      </trkpt>
      <trkpt lat="43.2260750" lon="-5.8807520">
        <ele>350.6</ele>
        <time>2018-06-17T06:40:57Z</time>
      </trkpt>
      <trkpt lat="43.2259110" lon="-5.8806300">
        <ele>351.8</ele>
        <time>2018-06-17T06:41:03Z</time>
      </trkpt>
      <trkpt lat="43.2257820" lon="-5.8805330">
        <ele>352.8</ele>
        <time>2018-06-17T06:41:08Z</time>
      </trkpt>
      <trkpt lat="43.2256400" lon="-5.8804340">
        <ele>354.0</ele>
        <time>2018-06-17T06:41:14Z</time>
      </trkpt>
      <trkpt lat="43.2255180" lon="-5.8803950">
        <ele>355.2</ele>
        <time>2018-06-17T06:41:19Z</time>
      </trkpt>
      <trkpt lat="43.2253920" lon="-5.8803560">
        <ele>356.4</ele>
        <time>2018-06-17T06:41:24Z</time>
      </trkpt>
      <trkpt lat="43.2252550" lon="-5.8802450">
        <ele>357.4</ele>
        <time>2018-06-17T06:41:30Z</time>
      </trkpt>
      <trkpt lat="43.2251370" lon="-5.8801120">
        <ele>358.4</ele>
        <time>2018-06-17T06:41:36Z</time>
      </trkpt>
      <trkpt lat="43.2250260" lon="-5.8800160">
        <ele>359.6</ele>
        <time>2018-06-17T06:41:41Z</time>
      </trkpt>
      <trkpt lat="43.2249180" lon="-5.8799460">
        <ele>360.6</ele>
        <time>2018-06-17T06:41:46Z</time>
      </trkpt>
      <trkpt lat="43.2247310" lon="-5.8798460">
        <ele>361.8</ele>
        <time>2018-06-17T06:41:53Z</time>
      </trkpt>
      <trkpt lat="43.2245190" lon="-5.8797760">
        <ele>362.8</ele>
        <time>2018-06-17T06:42:00Z</time>
      </trkpt>
      <trkpt lat="43.2242610" lon="-5.8797860">
        <ele>364.0</ele>
        <time>2018-06-17T06:42:08Z</time>
      </trkpt>
      <trkpt lat="43.2240460" lon="-5.8798400">
        <ele>365.0</ele>
        <time>2018-06-17T06:42:15Z</time>
      </trkpt>
      <trkpt lat="43.2238740" lon="-5.8798680">
        <ele>366.2</ele>
        <time>2018-06-17T06:42:21Z</time>
      </trkpt>
      <trkpt lat="43.2236670" lon="-5.8796980">
        <ele>367.2</ele>
        <time>2018-06-17T06:42:29Z</time>
      </trkpt>
      <trkpt lat="43.2234480" lon="-5.8795750">
        <ele>368.2</ele>
        <time>2018-06-17T06:42:36Z</time>
      </trkpt>
      <trkpt lat="43.2233440" lon="-5.8795690">
        <ele>368.4</ele>
        <time>2018-06-17T06:42:39Z</time>
      </trkpt>
      <trkpt lat="43.2231470" lon="-5.8796080">
        <ele>369.6</ele>
        <time>2018-06-17T06:42:45Z</time>
      </trkpt>
      <trkpt lat="43.2229530" lon="-5.8796430">
        <ele>370.6</ele>
        <time>2018-06-17T06:42:51Z</time>
      </trkpt>
      <trkpt lat="43.2227750" lon="-5.8797070">
        <ele>371.6</ele>
        <time>2018-06-17T06:42:57Z</time>
      </trkpt>
      <trkpt lat="43.2226370" lon="-5.8797930">
        <ele>372.4</ele>
        <time>2018-06-17T06:43:02Z</time>
      </trkpt>
      <trkpt lat="43.2226130" lon="-5.8798160">
        <ele>372.4</ele>
        <time>2018-06-17T06:43:03Z</time>
      </trkpt>
      <trkpt lat="43.2223830" lon="-5.8799890">
        <ele>373.4</ele>
        <time>2018-06-17T06:43:11Z</time>
      </trkpt>
      <trkpt lat="43.2221910" lon="-5.8799430">
        <ele>374.6</ele>
        <time>2018-06-17T06:43:17Z</time>
      </trkpt>
      <trkpt lat="43.2221290" lon="-5.8798180">
        <ele>375.6</ele>
        <time>2018-06-17T06:43:21Z</time>
      </trkpt>
      <trkpt lat="43.2221410" lon="-5.8796350">
        <ele>376.6</ele>
        <time>2018-06-17T06:43:26Z</time>
      </trkpt>
      <trkpt lat="43.2222150" lon="-5.8794870">
        <ele>377.8</ele>
        <time>2018-06-17T06:43:31Z</time>
      </trkpt>
      <trkpt lat="43.2224220" lon="-5.8793650">
        <ele>378.8</ele>
        <time>2018-06-17T06:43:39Z</time>
      </trkpt>
      <trkpt lat="43.2226190" lon="-5.8791600">
        <ele>380.0</ele>
        <time>2018-06-17T06:43:46Z</time>
      </trkpt>
      <trkpt lat="43.2227510" lon="-5.8790220">
        <ele>381.0</ele>
        <time>2018-06-17T06:43:51Z</time>
      </trkpt>
      <trkpt lat="43.2229640" lon="-5.8789180">
        <ele>382.2</ele>
        <time>2018-06-17T06:43:57Z</time>
      </trkpt>
      <trkpt lat="43.2231440" lon="-5.8788790">
        <ele>383.2</ele>
        <time>2018-06-17T06:44:02Z</time>
      </trkpt>
      <trkpt lat="43.2233220" lon="-5.8788850">
        <ele>384.2</ele>
        <time>2018-06-17T06:44:07Z</time>
      </trkpt>
      <trkpt lat="43.2234850" lon="-5.8789310">
        <ele>385.4</ele>
        <time>2018-06-17T06:44:12Z</time>
      </trkpt>
      <trkpt lat="43.2236390" lon="-5.8790150">
        <ele>386.6</ele>
        <time>2018-06-17T06:44:17Z</time>
      </trkpt>
      <trkpt lat="43.2237810" lon="-5.8790940">
        <ele>387.6</ele>
        <time>2018-06-17T06:44:22Z</time>
      </trkpt>
      <trkpt lat="43.2238920" lon="-5.8791430">
        <ele>388.8</ele>
        <time>2018-06-17T06:44:27Z</time>
      </trkpt>
      <trkpt lat="43.2239770" lon="-5.8791500">
        <ele>389.8</ele>
        <time>2018-06-17T06:44:31Z</time>
      </trkpt>
      <trkpt lat="43.2240740" lon="-5.8791110">
        <ele>390.8</ele>
        <time>2018-06-17T06:44:35Z</time>
      </trkpt>
      <trkpt lat="43.2241730" lon="-5.8790360">
        <ele>391.8</ele>
        <time>2018-06-17T06:44:40Z</time>
      </trkpt>
      <trkpt lat="43.2243410" lon="-5.8789620">
        <ele>393.2</ele>
        <time>2018-06-17T06:44:46Z</time>
      </trkpt>
      <trkpt lat="43.2244840" lon="-5.8789630">
        <ele>394.2</ele>
        <time>2018-06-17T06:44:51Z</time>
      </trkpt>
      <trkpt lat="43.2246250" lon="-5.8790360">
        <ele>395.4</ele>
        <time>2018-06-17T06:44:56Z</time>
      </trkpt>
      <trkpt lat="43.2247370" lon="-5.8790910">
        <ele>396.4</ele>
        <time>2018-06-17T06:45:01Z</time>
      </trkpt>
      <trkpt lat="43.2248800" lon="-5.8791310">
        <ele>397.6</ele>
        <time>2018-06-17T06:45:06Z</time>
      </trkpt>
      <trkpt lat="43.2250300" lon="-5.8791400">
        <ele>398.8</ele>
        <time>2018-06-17T06:45:12Z</time>
      </trkpt>
      <trkpt lat="43.2251410" lon="-5.8791130">
        <ele>399.8</ele>
        <time>2018-06-17T06:45:17Z</time>
      </trkpt>
      <trkpt lat="43.2252750" lon="-5.8790460">
        <ele>401.0</ele>
        <time>2018-06-17T06:45:22Z</time>
      </trkpt>
      <trkpt lat="43.2254060" lon="-5.8789670">
        <ele>402.2</ele>
        <time>2018-06-17T06:45:27Z</time>
      </trkpt>
      <trkpt lat="43.2255410" lon="-5.8789100">
        <ele>403.4</ele>
        <time>2018-06-17T06:45:32Z</time>
      </trkpt>
      <trkpt lat="43.2257250" lon="-5.8788660">
        <ele>404.4</ele>
        <time>2018-06-17T06:45:38Z</time>
      </trkpt>
      <trkpt lat="43.2258910" lon="-5.8788080">
        <ele>405.6</ele>
        <time>2018-06-17T06:45:44Z</time>
      </trkpt>
      <trkpt lat="43.2260030" lon="-5.8787670">
        <ele>406.6</ele>
        <time>2018-06-17T06:45:48Z</time>
      </trkpt>
      <trkpt lat="43.2261550" lon="-5.8787310">
        <ele>407.8</ele>
        <time>2018-06-17T06:45:53Z</time>
      </trkpt>
      <trkpt lat="43.2262900" lon="-5.8787130">
        <ele>408.8</ele>
        <time>2018-06-17T06:45:58Z</time>
      </trkpt>
      <trkpt lat="43.2264910" lon="-5.8787360">
        <ele>410.0</ele>
        <time>2018-06-17T06:46:05Z</time>
      </trkpt>
      <trkpt lat="43.2266230" lon="-5.8787580">
        <ele>411.2</ele>
        <time>2018-06-17T06:46:10Z</time>
      </trkpt>
      <trkpt lat="43.2268300" lon="-5.8788440">
        <ele>412.4</ele>
        <time>2018-06-17T06:46:17Z</time>
      </trkpt>
      <trkpt lat="43.2269900" lon="-5.8789390">
        <ele>413.4</ele>
        <time>2018-06-17T06:46:23Z</time>
      </trkpt>
      <trkpt lat="43.2270990" lon="-5.8790250">
        <ele>414.6</ele>
        <time>2018-06-17T06:46:28Z</time>
      </trkpt>
      <trkpt lat="43.2272050" lon="-5.8790990">
        <ele>415.8</ele>
        <time>2018-06-17T06:46:33Z</time>
      </trkpt>
      <trkpt lat="43.2273570" lon="-5.8791460">
        <ele>416.8</ele>
        <time>2018-06-17T06:46:39Z</time>
      </trkpt>
      <trkpt lat="43.2274990" lon="-5.8791520">
        <ele>417.8</ele>
        <time>2018-06-17T06:46:45Z</time>
      </trkpt>
      <trkpt lat="43.2276050" lon="-5.8791480">
        <ele>419.0</ele>
        <time>2018-06-17T06:46:51Z</time>
      </trkpt>
      <trkpt lat="43.2276890" lon="-5.8790980">
        <ele>420.0</ele>
        <time>2018-06-17T06:46:55Z</time>
      </trkpt>
      <trkpt lat="43.2277730" lon="-5.8789700">
        <ele>421.4</ele>
        <time>2018-06-17T06:47:01Z</time>
      </trkpt>
      <trkpt lat="43.2278120" lon="-5.8788440">
        <ele>422.4</ele>
        <time>2018-06-17T06:47:06Z</time>
      </trkpt>
      <trkpt lat="43.2279350" lon="-5.8786330">
        <ele>423.6</ele>
        <time>2018-06-17T06:47:14Z</time>
      </trkpt>
      <trkpt lat="43.2281380" lon="-5.8784400">
        <ele>424.6</ele>
        <time>2018-06-17T06:47:21Z</time>
      </trkpt>
      <trkpt lat="43.2282250" lon="-5.8782360">
        <ele>426.0</ele>
        <time>2018-06-17T06:47:26Z</time>
      </trkpt>
      <trkpt lat="43.2282180" lon="-5.8779860">
        <ele>427.2</ele>
        <time>2018-06-17T06:47:32Z</time>
      </trkpt>
      <trkpt lat="43.2281660" lon="-5.8778320">
        <ele>428.2</ele>
        <time>2018-06-17T06:47:37Z</time>
      </trkpt>
      <trkpt lat="43.2280950" lon="-5.8776840">
        <ele>429.2</ele>
        <time>2018-06-17T06:47:42Z</time>
      </trkpt>
      <trkpt lat="43.2280000" lon="-5.8774910">
        <ele>430.4</ele>
        <time>2018-06-17T06:47:49Z</time>
      </trkpt>
      <trkpt lat="43.2278220" lon="-5.8772880">
        <ele>431.4</ele>
        <time>2018-06-17T06:47:56Z</time>
      </trkpt>
      <trkpt lat="43.2277300" lon="-5.8771820">
        <ele>432.6</ele>
        <time>2018-06-17T06:48:00Z</time>
      </trkpt>
      <trkpt lat="43.2276550" lon="-5.8769990">
        <ele>433.8</ele>
        <time>2018-06-17T06:48:05Z</time>
      </trkpt>
      <trkpt lat="43.2277180" lon="-5.8767120">
        <ele>435.0</ele>
        <time>2018-06-17T06:48:12Z</time>
      </trkpt>
      <trkpt lat="43.2279090" lon="-5.8765480">
        <ele>436.0</ele>
        <time>2018-06-17T06:48:19Z</time>
      </trkpt>
      <trkpt lat="43.2280570" lon="-5.8765250">
        <ele>437.2</ele>
        <time>2018-06-17T06:48:24Z</time>
      </trkpt>
      <trkpt lat="43.2282350" lon="-5.8765150">
        <ele>438.4</ele>
        <time>2018-06-17T06:48:30Z</time>
      </trkpt>
      <trkpt lat="43.2283660" lon="-5.8764730">
        <ele>439.4</ele>
        <time>2018-06-17T06:48:35Z</time>
      </trkpt>
      <trkpt lat="43.2285400" lon="-5.8764110">
        <ele>440.6</ele>
        <time>2018-06-17T06:48:41Z</time>
      </trkpt>
      <trkpt lat="43.2287120" lon="-5.8763930">
        <ele>441.8</ele>
        <time>2018-06-17T06:48:47Z</time>
      </trkpt>
      <trkpt lat="43.2288590" lon="-5.8764150">
        <ele>443.0</ele>
        <time>2018-06-17T06:48:52Z</time>
      </trkpt>
      <trkpt lat="43.2290280" lon="-5.8764750">
        <ele>444.2</ele>
        <time>2018-06-17T06:48:58Z</time>
      </trkpt>
      <trkpt lat="43.2291710" lon="-5.8764960">
        <ele>445.2</ele>
        <time>2018-06-17T06:49:03Z</time>
      </trkpt>
      <trkpt lat="43.2292980" lon="-5.8764290">
        <ele>446.4</ele>
        <time>2018-06-17T06:49:08Z</time>
      </trkpt>
      <trkpt lat="43.2293480" lon="-5.8761510">
        <ele>447.6</ele>
        <time>2018-06-17T06:49:15Z</time>
      </trkpt>
      <trkpt lat="43.2292420" lon="-5.8759490">
        <ele>448.8</ele>
        <time>2018-06-17T06:49:21Z</time>
      </trkpt>
      <trkpt lat="43.2291180" lon="-5.8758390">
        <ele>449.6</ele>
        <time>2018-06-17T06:49:26Z</time>
      </trkpt>
      <trkpt lat="43.2290010" lon="-5.8757400">
        <ele>450.8</ele>
        <time>2018-06-17T06:49:31Z</time>
      </trkpt>
      <trkpt lat="43.2288840" lon="-5.8756240">
        <ele>451.8</ele>
        <time>2018-06-17T06:49:36Z</time>
      </trkpt>
      <trkpt lat="43.2287540" lon="-5.8754590">
        <ele>453.0</ele>
        <time>2018-06-17T06:49:42Z</time>
      </trkpt>
      <trkpt lat="43.2286200" lon="-5.8752500">
        <ele>454.2</ele>
        <time>2018-06-17T06:49:49Z</time>
      </trkpt>
      <trkpt lat="43.2285060" lon="-5.8750760">
        <ele>455.2</ele>
        <time>2018-06-17T06:49:55Z</time>
      </trkpt>
      <trkpt lat="43.2283890" lon="-5.8749540">
        <ele>456.4</ele>
        <time>2018-06-17T06:50:00Z</time>
      </trkpt>
      <trkpt lat="43.2282320" lon="-5.8748680">
        <ele>457.4</ele>
        <time>2018-06-17T06:50:06Z</time>
      </trkpt>
      <trkpt lat="43.2281030" lon="-5.8748320">
        <ele>458.4</ele>
        <time>2018-06-17T06:50:11Z</time>
      </trkpt>
      <trkpt lat="43.2279940" lon="-5.8747980">
        <ele>459.6</ele>
        <time>2018-06-17T06:50:16Z</time>
      </trkpt>
      <trkpt lat="43.2278910" lon="-5.8747130">
        <ele>460.8</ele>
        <time>2018-06-17T06:50:22Z</time>
      </trkpt>
      <trkpt lat="43.2278420" lon="-5.8745870">
        <ele>462.0</ele>
        <time>2018-06-17T06:50:27Z</time>
      </trkpt>
      <trkpt lat="43.2277820" lon="-5.8743750">
        <ele>463.2</ele>
        <time>2018-06-17T06:50:33Z</time>
      </trkpt>
      <trkpt lat="43.2277350" lon="-5.8742280">
        <ele>464.2</ele>
        <time>2018-06-17T06:50:37Z</time>
      </trkpt>
      <trkpt lat="43.2276250" lon="-5.8739930">
        <ele>465.4</ele>
        <time>2018-06-17T06:50:43Z</time>
      </trkpt>
      <trkpt lat="43.2274940" lon="-5.8738170">
        <ele>466.4</ele>
        <time>2018-06-17T06:50:49Z</time>
      </trkpt>
      <trkpt lat="43.2273770" lon="-5.8737100">
        <ele>467.6</ele>
        <time>2018-06-17T06:50:54Z</time>
      </trkpt>
      <trkpt lat="43.2272170" lon="-5.8735890">
        <ele>468.8</ele>
        <time>2018-06-17T06:51:00Z</time>
      </trkpt>
      <trkpt lat="43.2270430" lon="-5.8735180">
        <ele>470.0</ele>
        <time>2018-06-17T06:51:06Z</time>
      </trkpt>
      <trkpt lat="43.2268990" lon="-5.8734770">
        <ele>471.0</ele>
        <time>2018-06-17T06:51:11Z</time>
      </trkpt>
      <trkpt lat="43.2267350" lon="-5.8734310">
        <ele>472.2</ele>
        <time>2018-06-17T06:51:17Z</time>
      </trkpt>
      <trkpt lat="43.2265930" lon="-5.8734020">
        <ele>473.4</ele>
        <time>2018-06-17T06:51:22Z</time>
      </trkpt>
      <trkpt lat="43.2263630" lon="-5.8733400">
        <ele>474.4</ele>
        <time>2018-06-17T06:51:30Z</time>
      </trkpt>
      <trkpt lat="43.2262240" lon="-5.8732940">
        <ele>475.6</ele>
        <time>2018-06-17T06:51:35Z</time>
      </trkpt>
      <trkpt lat="43.2260520" lon="-5.8731630">
        <ele>476.6</ele>
        <time>2018-06-17T06:51:42Z</time>
      </trkpt>
      <trkpt lat="43.2259730" lon="-5.8729640">
        <ele>477.8</ele>
        <time>2018-06-17T06:51:48Z</time>
      </trkpt>
      <trkpt lat="43.2259020" lon="-5.8727850">
        <ele>479.0</ele>
        <time>2018-06-17T06:51:53Z</time>
      </trkpt>
      <trkpt lat="43.2257930" lon="-5.8726060">
        <ele>480.0</ele>
        <time>2018-06-17T06:51:59Z</time>
      </trkpt>
      <trkpt lat="43.2257100" lon="-5.8724560">
        <ele>481.0</ele>
        <time>2018-06-17T06:52:04Z</time>
      </trkpt>
      <trkpt lat="43.2256490" lon="-5.8723150">
        <ele>481.8</ele>
        <time>2018-06-17T06:52:08Z</time>
      </trkpt>
      <trkpt lat="43.2256220" lon="-5.8722450">
        <ele>482.0</ele>
        <time>2018-06-17T06:52:10Z</time>
      </trkpt>
      <trkpt lat="43.2255570" lon="-5.8720670">
        <ele>483.2</ele>
        <time>2018-06-17T06:52:16Z</time>
      </trkpt>
      <trkpt lat="43.2255020" lon="-5.8719380">
        <ele>484.4</ele>
        <time>2018-06-17T06:52:21Z</time>
      </trkpt>
      <trkpt lat="43.2254200" lon="-5.8717330">
        <ele>485.4</ele>
        <time>2018-06-17T06:52:28Z</time>
      </trkpt>
      <trkpt lat="43.2253600" lon="-5.8715620">
        <ele>486.6</ele>
        <time>2018-06-17T06:52:34Z</time>
      </trkpt>
      <trkpt lat="43.2253170" lon="-5.8712760">
        <ele>487.8</ele>
        <time>2018-06-17T06:52:40Z</time>
      </trkpt>
      <trkpt lat="43.2253370" lon="-5.8710800">
        <ele>489.0</ele>
        <time>2018-06-17T06:52:46Z</time>
      </trkpt>
      <trkpt lat="43.2253240" lon="-5.8709180">
        <ele>490.2</ele>
        <time>2018-06-17T06:52:51Z</time>
      </trkpt>
      <trkpt lat="43.2252510" lon="-5.8707700">
        <ele>491.2</ele>
        <time>2018-06-17T06:52:56Z</time>
      </trkpt>
      <trkpt lat="43.2251340" lon="-5.8706320">
        <ele>492.4</ele>
        <time>2018-06-17T06:53:02Z</time>
      </trkpt>
      <trkpt lat="43.2250260" lon="-5.8705230">
        <ele>493.4</ele>
        <time>2018-06-17T06:53:07Z</time>
      </trkpt>
      <trkpt lat="43.2248960" lon="-5.8703850">
        <ele>494.6</ele>
        <time>2018-06-17T06:53:13Z</time>
      </trkpt>
      <trkpt lat="43.2247730" lon="-5.8702210">
        <ele>496.0</ele>
        <time>2018-06-17T06:53:20Z</time>
      </trkpt>
      <trkpt lat="43.2246380" lon="-5.8701040">
        <ele>497.2</ele>
        <time>2018-06-17T06:53:26Z</time>
      </trkpt>
      <trkpt lat="43.2244770" lon="-5.8700520">
        <ele>498.6</ele>
        <time>2018-06-17T06:53:32Z</time>
      </trkpt>
      <trkpt lat="43.2244050" lon="-5.8700500">
        <ele>499.2</ele>
        <time>2018-06-17T06:53:35Z</time>
      </trkpt>
      <trkpt lat="43.2243170" lon="-5.8700530">
        <ele>499.8</ele>
        <time>2018-06-17T06:53:38Z</time>
      </trkpt>
      <trkpt lat="43.2241210" lon="-5.8700350">
        <ele>501.0</ele>
        <time>2018-06-17T06:53:45Z</time>
      </trkpt>
      <trkpt lat="43.2239850" lon="-5.8699790">
        <ele>502.0</ele>
        <time>2018-06-17T06:53:50Z</time>
      </trkpt>
      <trkpt lat="43.2238890" lon="-5.8699310">
        <ele>502.6</ele>
        <time>2018-06-17T06:53:53Z</time>
      </trkpt>
      <trkpt lat="43.2238020" lon="-5.8698780">
        <ele>503.2</ele>
        <time>2018-06-17T06:53:56Z</time>
      </trkpt>
      <trkpt lat="43.2236580" lon="-5.8698040">
        <ele>504.6</ele>
        <time>2018-06-17T06:54:01Z</time>
      </trkpt>
      <trkpt lat="43.2234870" lon="-5.8698100">
        <ele>505.6</ele>
        <time>2018-06-17T06:54:07Z</time>
      </trkpt>
      <trkpt lat="43.2233290" lon="-5.8698790">
        <ele>506.6</ele>
        <time>2018-06-17T06:54:12Z</time>
      </trkpt>
      <trkpt lat="43.2231800" lon="-5.8699560">
        <ele>507.8</ele>
        <time>2018-06-17T06:54:17Z</time>
      </trkpt>
      <trkpt lat="43.2230240" lon="-5.8699230">
        <ele>509.0</ele>
        <time>2018-06-17T06:54:23Z</time>
      </trkpt>
      <trkpt lat="43.2229390" lon="-5.8697740">
        <ele>510.2</ele>
        <time>2018-06-17T06:54:28Z</time>
      </trkpt>
      <trkpt lat="43.2228830" lon="-5.8696100">
        <ele>511.6</ele>
        <time>2018-06-17T06:54:33Z</time>
      </trkpt>
      <trkpt lat="43.2228380" lon="-5.8694860">
        <ele>512.6</ele>
        <time>2018-06-17T06:54:37Z</time>
      </trkpt>
      <trkpt lat="43.2227290" lon="-5.8693790">
        <ele>513.8</ele>
        <time>2018-06-17T06:54:43Z</time>
      </trkpt>
      <trkpt lat="43.2226000" lon="-5.8693330">
        <ele>514.8</ele>
        <time>2018-06-17T06:54:48Z</time>
      </trkpt>
      <trkpt lat="43.2224640" lon="-5.8693410">
        <ele>515.8</ele>
        <time>2018-06-17T06:54:53Z</time>
      </trkpt>
      <trkpt lat="43.2223330" lon="-5.8694030">
        <ele>517.0</ele>
        <time>2018-06-17T06:54:59Z</time>
      </trkpt>
      <trkpt lat="43.2222130" lon="-5.8694840">
        <ele>518.2</ele>
        <time>2018-06-17T06:55:04Z</time>
      </trkpt>
      <trkpt lat="43.2220670" lon="-5.8694960">
        <ele>519.2</ele>
        <time>2018-06-17T06:55:09Z</time>
      </trkpt>
      <trkpt lat="43.2219640" lon="-5.8694770">
        <ele>520.4</ele>
        <time>2018-06-17T06:55:13Z</time>
      </trkpt>
      <trkpt lat="43.2218060" lon="-5.8693960">
        <ele>521.4</ele>
        <time>2018-06-17T06:55:19Z</time>
      </trkpt>
      <trkpt lat="43.2216530" lon="-5.8692890">
        <ele>522.6</ele>
        <time>2018-06-17T06:55:24Z</time>
      </trkpt>
      <trkpt lat="43.2215040" lon="-5.8692400">
        <ele>523.6</ele>
        <time>2018-06-17T06:55:29Z</time>
      </trkpt>
      <trkpt lat="43.2214030" lon="-5.8692440">
        <ele>524.6</ele>
        <time>2018-06-17T06:55:33Z</time>
      </trkpt>
      <trkpt lat="43.2212240" lon="-5.8692520">
        <ele>525.8</ele>
        <time>2018-06-17T06:55:39Z</time>
      </trkpt>
      <trkpt lat="43.2210860" lon="-5.8691970">
        <ele>526.8</ele>
        <time>2018-06-17T06:55:44Z</time>
      </trkpt>
      <trkpt lat="43.2209080" lon="-5.8691470">
        <ele>528.0</ele>
        <time>2018-06-17T06:55:50Z</time>
      </trkpt>
      <trkpt lat="43.2207570" lon="-5.8691930">
        <ele>529.0</ele>
        <time>2018-06-17T06:55:55Z</time>
      </trkpt>
      <trkpt lat="43.2206130" lon="-5.8692630">
        <ele>530.0</ele>
        <time>2018-06-17T06:56:00Z</time>
      </trkpt>
      <trkpt lat="43.2204910" lon="-5.8693000">
        <ele>531.2</ele>
        <time>2018-06-17T06:56:04Z</time>
      </trkpt>
      <trkpt lat="43.2203470" lon="-5.8693400">
        <ele>532.2</ele>
        <time>2018-06-17T06:56:09Z</time>
      </trkpt>
      <trkpt lat="43.2202040" lon="-5.8693670">
        <ele>533.2</ele>
        <time>2018-06-17T06:56:14Z</time>
      </trkpt>
      <trkpt lat="43.2200670" lon="-5.8693100">
        <ele>534.2</ele>
        <time>2018-06-17T06:56:19Z</time>
      </trkpt>
      <trkpt lat="43.2199800" lon="-5.8692320">
        <ele>535.4</ele>
        <time>2018-06-17T06:56:23Z</time>
      </trkpt>
      <trkpt lat="43.2198830" lon="-5.8690980">
        <ele>536.6</ele>
        <time>2018-06-17T06:56:28Z</time>
      </trkpt>
      <trkpt lat="43.2197780" lon="-5.8689690">
        <ele>537.6</ele>
        <time>2018-06-17T06:56:33Z</time>
      </trkpt>
      <trkpt lat="43.2196270" lon="-5.8688620">
        <ele>538.6</ele>
        <time>2018-06-17T06:56:39Z</time>
      </trkpt>
      <trkpt lat="43.2194970" lon="-5.8688500">
        <ele>539.8</ele>
        <time>2018-06-17T06:56:44Z</time>
      </trkpt>
      <trkpt lat="43.2193650" lon="-5.8689670">
        <ele>541.2</ele>
        <time>2018-06-17T06:56:50Z</time>
      </trkpt>
      <trkpt lat="43.2192670" lon="-5.8690660">
        <ele>542.2</ele>
        <time>2018-06-17T06:56:55Z</time>
      </trkpt>
      <trkpt lat="43.2191630" lon="-5.8691900">
        <ele>543.4</ele>
        <time>2018-06-17T06:57:00Z</time>
      </trkpt>
      <trkpt lat="43.2190710" lon="-5.8693450">
        <ele>544.6</ele>
        <time>2018-06-17T06:57:05Z</time>
      </trkpt>
      <trkpt lat="43.2189840" lon="-5.8695270">
        <ele>545.6</ele>
        <time>2018-06-17T06:57:11Z</time>
      </trkpt>
      <trkpt lat="43.2189160" lon="-5.8696640">
        <ele>546.8</ele>
        <time>2018-06-17T06:57:16Z</time>
      </trkpt>
      <trkpt lat="43.2188110" lon="-5.8697970">
        <ele>547.8</ele>
        <time>2018-06-17T06:57:21Z</time>
      </trkpt>
      <trkpt lat="43.2186680" lon="-5.8698690">
        <ele>548.8</ele>
        <time>2018-06-17T06:57:26Z</time>
      </trkpt>
      <trkpt lat="43.2185050" lon="-5.8698980">
        <ele>550.0</ele>
        <time>2018-06-17T06:57:32Z</time>
      </trkpt>
      <trkpt lat="43.2183930" lon="-5.8698950">
        <ele>551.2</ele>
        <time>2018-06-17T06:57:37Z</time>
      </trkpt>
      <trkpt lat="43.2182690" lon="-5.8698880">
        <ele>552.2</ele>
        <time>2018-06-17T06:57:42Z</time>
      </trkpt>
      <trkpt lat="43.2180900" lon="-5.8698520">
        <ele>553.4</ele>
        <time>2018-06-17T06:57:48Z</time>
      </trkpt>
      <trkpt lat="43.2179330" lon="-5.8698120">
        <ele>554.4</ele>
        <time>2018-06-17T06:57:53Z</time>
      </trkpt>
      <trkpt lat="43.2177770" lon="-5.8698070">
        <ele>555.8</ele>
        <time>2018-06-17T06:57:59Z</time>
      </trkpt>
      <trkpt lat="43.2176540" lon="-5.8697860">
        <ele>557.0</ele>
        <time>2018-06-17T06:58:04Z</time>
      </trkpt>
      <trkpt lat="43.2175470" lon="-5.8697660">
        <ele>558.2</ele>
        <time>2018-06-17T06:58:08Z</time>
      </trkpt>
      <trkpt lat="43.2173520" lon="-5.8697010">
        <ele>559.4</ele>
        <time>2018-06-17T06:58:15Z</time>
      </trkpt>
      <trkpt lat="43.2172240" lon="-5.8697840">
        <ele>560.6</ele>
        <time>2018-06-17T06:58:20Z</time>
      </trkpt>
      <trkpt lat="43.2170530" lon="-5.8699200">
        <ele>561.6</ele>
        <time>2018-06-17T06:58:27Z</time>
      </trkpt>
      <trkpt lat="43.2169050" lon="-5.8700260">
        <ele>562.6</ele>
        <time>2018-06-17T06:58:33Z</time>
      </trkpt>
      <trkpt lat="43.2167670" lon="-5.8700400">
        <ele>563.8</ele>
        <time>2018-06-17T06:58:38Z</time>
      </trkpt>
      <trkpt lat="43.2165680" lon="-5.8699160">
        <ele>564.8</ele>
        <time>2018-06-17T06:58:46Z</time>
      </trkpt>
      <trkpt lat="43.2164410" lon="-5.8697810">
        <ele>565.8</ele>
        <time>2018-06-17T06:58:52Z</time>
      </trkpt>
      <trkpt lat="43.2163070" lon="-5.8696420">
        <ele>566.8</ele>
        <time>2018-06-17T06:58:58Z</time>
      </trkpt>
      <trkpt lat="43.2161860" lon="-5.8695820">
        <ele>568.0</ele>
        <time>2018-06-17T06:59:03Z</time>
      </trkpt>
      <trkpt lat="43.2160560" lon="-5.8695410">
        <ele>569.2</ele>
        <time>2018-06-17T06:59:08Z</time>
      </trkpt>
      <trkpt lat="43.2159310" lon="-5.8694480">
        <ele>570.2</ele>
        <time>2018-06-17T06:59:13Z</time>
      </trkpt>
      <trkpt lat="43.2158480" lon="-5.8692900">
        <ele>571.2</ele>
        <time>2018-06-17T06:59:18Z</time>
      </trkpt>
      <trkpt lat="43.2158020" lon="-5.8690170">
        <ele>572.4</ele>
        <time>2018-06-17T06:59:25Z</time>
      </trkpt>
      <trkpt lat="43.2157380" lon="-5.8688010">
        <ele>573.6</ele>
        <time>2018-06-17T06:59:31Z</time>
      </trkpt>
      <trkpt lat="43.2155770" lon="-5.8686480">
        <ele>574.4</ele>
        <time>2018-06-17T06:59:38Z</time>
      </trkpt>
      <trkpt lat="43.2154710" lon="-5.8685990">
        <ele>575.6</ele>
        <time>2018-06-17T06:59:42Z</time>
      </trkpt>
      <trkpt lat="43.2153600" lon="-5.8685720">
        <ele>576.6</ele>
        <time>2018-06-17T06:59:46Z</time>
      </trkpt>
      <trkpt lat="43.2152210" lon="-5.8685960">
        <ele>577.6</ele>
        <time>2018-06-17T06:59:51Z</time>
      </trkpt>
      <trkpt lat="43.2150910" lon="-5.8686710">
        <ele>578.6</ele>
        <time>2018-06-17T06:59:56Z</time>
      </trkpt>
      <trkpt lat="43.2149230" lon="-5.8687830">
        <ele>579.8</ele>
        <time>2018-06-17T07:00:03Z</time>
      </trkpt>
      <trkpt lat="43.2148250" lon="-5.8688390">
        <ele>580.6</ele>
        <time>2018-06-17T07:00:07Z</time>
      </trkpt>
      <trkpt lat="43.2146750" lon="-5.8689370">
        <ele>581.6</ele>
        <time>2018-06-17T07:00:13Z</time>
      </trkpt>
      <trkpt lat="43.2145630" lon="-5.8690180">
        <ele>582.8</ele>
        <time>2018-06-17T07:00:18Z</time>
      </trkpt>
      <trkpt lat="43.2144620" lon="-5.8691060">
        <ele>583.8</ele>
        <time>2018-06-17T07:00:23Z</time>
      </trkpt>
      <trkpt lat="43.2143650" lon="-5.8692260">
        <ele>585.0</ele>
        <time>2018-06-17T07:00:29Z</time>
      </trkpt>
      <trkpt lat="43.2143170" lon="-5.8693750">
        <ele>586.2</ele>
        <time>2018-06-17T07:00:35Z</time>
      </trkpt>
      <trkpt lat="43.2142210" lon="-5.8695440">
        <ele>587.4</ele>
        <time>2018-06-17T07:00:41Z</time>
      </trkpt>
      <trkpt lat="43.2140960" lon="-5.8696850">
        <ele>588.4</ele>
        <time>2018-06-17T07:00:47Z</time>
      </trkpt>
      <trkpt lat="43.2139510" lon="-5.8698070">
        <ele>589.6</ele>
        <time>2018-06-17T07:00:53Z</time>
      </trkpt>
      <trkpt lat="43.2137760" lon="-5.8699100">
        <ele>590.6</ele>
        <time>2018-06-17T07:00:59Z</time>
      </trkpt>
      <trkpt lat="43.2136390" lon="-5.8699370">
        <ele>591.8</ele>
        <time>2018-06-17T07:01:04Z</time>
      </trkpt>
      <trkpt lat="43.2135120" lon="-5.8699460">
        <ele>592.8</ele>
        <time>2018-06-17T07:01:09Z</time>
      </trkpt>
      <trkpt lat="43.2133720" lon="-5.8700150">
        <ele>594.0</ele>
        <time>2018-06-17T07:01:15Z</time>
      </trkpt>
      <trkpt lat="43.2132630" lon="-5.8700660">
        <ele>595.2</ele>
        <time>2018-06-17T07:01:20Z</time>
      </trkpt>
      <trkpt lat="43.2131220" lon="-5.8700790">
        <ele>596.2</ele>
        <time>2018-06-17T07:01:25Z</time>
      </trkpt>
      <trkpt lat="43.2129750" lon="-5.8700530">
        <ele>597.2</ele>
        <time>2018-06-17T07:01:30Z</time>
      </trkpt>
      <trkpt lat="43.2128030" lon="-5.8700460">
        <ele>598.4</ele>
        <time>2018-06-17T07:01:36Z</time>
      </trkpt>
      <trkpt lat="43.2126350" lon="-5.8700060">
        <ele>599.6</ele>
        <time>2018-06-17T07:01:42Z</time>
      </trkpt>
      <trkpt lat="43.2125580" lon="-5.8699520">
        <ele>600.8</ele>
        <time>2018-06-17T07:01:46Z</time>
      </trkpt>
      <trkpt lat="43.2124920" lon="-5.8698100">
        <ele>601.8</ele>
        <time>2018-06-17T07:01:52Z</time>
      </trkpt>
      <trkpt lat="43.2124010" lon="-5.8696950">
        <ele>602.8</ele>
        <time>2018-06-17T07:01:58Z</time>
      </trkpt>
      <trkpt lat="43.2123000" lon="-5.8695580">
        <ele>604.0</ele>
        <time>2018-06-17T07:02:04Z</time>
      </trkpt>
      <trkpt lat="43.2122520" lon="-5.8693840">
        <ele>605.2</ele>
        <time>2018-06-17T07:02:09Z</time>
      </trkpt>
      <trkpt lat="43.2121700" lon="-5.8691810">
        <ele>606.2</ele>
        <time>2018-06-17T07:02:16Z</time>
      </trkpt>
      <trkpt lat="43.2120360" lon="-5.8690790">
        <ele>607.4</ele>
        <time>2018-06-17T07:02:22Z</time>
      </trkpt>
      <trkpt lat="43.2119380" lon="-5.8690520">
        <ele>608.6</ele>
        <time>2018-06-17T07:02:26Z</time>
      </trkpt>
      <trkpt lat="43.2117400" lon="-5.8690820">
        <ele>610.0</ele>
        <time>2018-06-17T07:02:33Z</time>
      </trkpt>
      <trkpt lat="43.2116540" lon="-5.8691200">
        <ele>610.8</ele>
        <time>2018-06-17T07:02:36Z</time>
      </trkpt>
      <trkpt lat="43.2116260" lon="-5.8691330">
        <ele>611.0</ele>
        <time>2018-06-17T07:02:37Z</time>
      </trkpt>
      <trkpt lat="43.2114300" lon="-5.8691410">
        <ele>612.2</ele>
        <time>2018-06-17T07:02:43Z</time>
      </trkpt>
      <trkpt lat="43.2112870" lon="-5.8691320">
        <ele>613.2</ele>
        <time>2018-06-17T07:02:48Z</time>
      </trkpt>
      <trkpt lat="43.2111550" lon="-5.8690610">
        <ele>614.4</ele>
        <time>2018-06-17T07:02:53Z</time>
      </trkpt>
      <trkpt lat="43.2109920" lon="-5.8689050">
        <ele>615.4</ele>
        <time>2018-06-17T07:02:59Z</time>
      </trkpt>
      <trkpt lat="43.2108730" lon="-5.8688650">
        <ele>616.4</ele>
        <time>2018-06-17T07:03:03Z</time>
      </trkpt>
      <trkpt lat="43.2107390" lon="-5.8689160">
        <ele>617.6</ele>
        <time>2018-06-17T07:03:08Z</time>
      </trkpt>
      <trkpt lat="43.2106160" lon="-5.8689760">
        <ele>618.6</ele>
        <time>2018-06-17T07:03:13Z</time>
      </trkpt>
      <trkpt lat="43.2104970" lon="-5.8690260">
        <ele>619.6</ele>
        <time>2018-06-17T07:03:18Z</time>
      </trkpt>
      <trkpt lat="43.2103910" lon="-5.8690600">
        <ele>620.8</ele>
        <time>2018-06-17T07:03:22Z</time>
      </trkpt>
      <trkpt lat="43.2102000" lon="-5.8691110">
        <ele>622.0</ele>
        <time>2018-06-17T07:03:29Z</time>
      </trkpt>
      <trkpt lat="43.2100430" lon="-5.8691170">
        <ele>623.2</ele>
        <time>2018-06-17T07:03:35Z</time>
      </trkpt>
      <trkpt lat="43.2098810" lon="-5.8691480">
        <ele>624.4</ele>
        <time>2018-06-17T07:03:41Z</time>
      </trkpt>
      <trkpt lat="43.2096530" lon="-5.8692250">
        <ele>625.4</ele>
        <time>2018-06-17T07:03:48Z</time>
      </trkpt>
      <trkpt lat="43.2093770" lon="-5.8692540">
        <ele>626.4</ele>
        <time>2018-06-17T07:03:56Z</time>
      </trkpt>
      <trkpt lat="43.2091400" lon="-5.8692120">
        <ele>627.4</ele>
        <time>2018-06-17T07:04:03Z</time>
      </trkpt>
      <trkpt lat="43.2089500" lon="-5.8691210">
        <ele>628.6</ele>
        <time>2018-06-17T07:04:09Z</time>
      </trkpt>
      <trkpt lat="43.2087420" lon="-5.8690070">
        <ele>629.6</ele>
        <time>2018-06-17T07:04:16Z</time>
      </trkpt>
      <trkpt lat="43.2085500" lon="-5.8688940">
        <ele>630.6</ele>
        <time>2018-06-17T07:04:23Z</time>
      </trkpt>
      <trkpt lat="43.2083610" lon="-5.8687490">
        <ele>631.6</ele>
        <time>2018-06-17T07:04:29Z</time>
      </trkpt>
      <trkpt lat="43.2081990" lon="-5.8687200">
        <ele>632.8</ele>
        <time>2018-06-17T07:04:34Z</time>
      </trkpt>
      <trkpt lat="43.2080140" lon="-5.8687380">
        <ele>634.0</ele>
        <time>2018-06-17T07:04:40Z</time>
      </trkpt>
      <trkpt lat="43.2078670" lon="-5.8687580">
        <ele>635.0</ele>
        <time>2018-06-17T07:04:45Z</time>
      </trkpt>
      <trkpt lat="43.2077510" lon="-5.8687840">
        <ele>636.0</ele>
        <time>2018-06-17T07:04:49Z</time>
      </trkpt>
      <trkpt lat="43.2076070" lon="-5.8688050">
        <ele>637.0</ele>
        <time>2018-06-17T07:04:54Z</time>
      </trkpt>
      <trkpt lat="43.2074730" lon="-5.8688200">
        <ele>638.0</ele>
        <time>2018-06-17T07:04:59Z</time>
      </trkpt>
      <trkpt lat="43.2073010" lon="-5.8688270">
        <ele>639.2</ele>
        <time>2018-06-17T07:05:05Z</time>
      </trkpt>
      <trkpt lat="43.2071580" lon="-5.8688190">
        <ele>640.2</ele>
        <time>2018-06-17T07:05:10Z</time>
      </trkpt>
      <trkpt lat="43.2070190" lon="-5.8687710">
        <ele>641.2</ele>
        <time>2018-06-17T07:05:16Z</time>
      </trkpt>
      <trkpt lat="43.2069200" lon="-5.8687160">
        <ele>642.2</ele>
        <time>2018-06-17T07:05:20Z</time>
      </trkpt>
      <trkpt lat="43.2067600" lon="-5.8686030">
        <ele>643.4</ele>
        <time>2018-06-17T07:05:26Z</time>
      </trkpt>
      <trkpt lat="43.2065950" lon="-5.8685310">
        <ele>644.8</ele>
        <time>2018-06-17T07:05:32Z</time>
      </trkpt>
      <trkpt lat="43.2064220" lon="-5.8683610">
        <ele>645.8</ele>
        <time>2018-06-17T07:05:40Z</time>
      </trkpt>
      <trkpt lat="43.2063670" lon="-5.8681660">
        <ele>647.0</ele>
        <time>2018-06-17T07:05:45Z</time>
      </trkpt>
      <trkpt lat="43.2062490" lon="-5.8679130">
        <ele>648.2</ele>
        <time>2018-06-17T07:05:52Z</time>
      </trkpt>
      <trkpt lat="43.2061080" lon="-5.8677250">
        <ele>649.2</ele>
        <time>2018-06-17T07:05:58Z</time>
      </trkpt>
      <trkpt lat="43.2059690" lon="-5.8675800">
        <ele>650.2</ele>
        <time>2018-06-17T07:06:04Z</time>
      </trkpt>
      <trkpt lat="43.2059450" lon="-5.8675590">
        <ele>650.2</ele>
        <time>2018-06-17T07:06:05Z</time>
      </trkpt>
      <trkpt lat="43.2058280" lon="-5.8674730">
        <ele>651.6</ele>
        <time>2018-06-17T07:06:10Z</time>
      </trkpt>
      <trkpt lat="43.2056470" lon="-5.8673470">
        <ele>652.8</ele>
        <time>2018-06-17T07:06:17Z</time>
      </trkpt>
      <trkpt lat="43.2054520" lon="-5.8671720">
        <ele>653.8</ele>
        <time>2018-06-17T07:06:24Z</time>
      </trkpt>
      <trkpt lat="43.2053180" lon="-5.8670220">
        <ele>655.2</ele>
        <time>2018-06-17T07:06:30Z</time>
      </trkpt>
      <trkpt lat="43.2051680" lon="-5.8667670">
        <ele>656.2</ele>
        <time>2018-06-17T07:06:37Z</time>
      </trkpt>
      <trkpt lat="43.2049940" lon="-5.8665870">
        <ele>657.4</ele>
        <time>2018-06-17T07:06:44Z</time>
      </trkpt>
      <trkpt lat="43.2048500" lon="-5.8665290">
        <ele>658.6</ele>
        <time>2018-06-17T07:06:50Z</time>
      </trkpt>
      <trkpt lat="43.2047290" lon="-5.8664690">
        <ele>659.8</ele>
        <time>2018-06-17T07:06:55Z</time>
      </trkpt>
      <trkpt lat="43.2045570" lon="-5.8663070">
        <ele>661.0</ele>
        <time>2018-06-17T07:07:02Z</time>
      </trkpt>
      <trkpt lat="43.2044600" lon="-5.8659900">
        <ele>662.2</ele>
        <time>2018-06-17T07:07:09Z</time>
      </trkpt>
      <trkpt lat="43.2044750" lon="-5.8656710">
        <ele>663.2</ele>
        <time>2018-06-17T07:07:15Z</time>
      </trkpt>
      <trkpt lat="43.2045450" lon="-5.8654230">
        <ele>664.2</ele>
        <time>2018-06-17T07:07:21Z</time>
      </trkpt>
      <trkpt lat="43.2046540" lon="-5.8652350">
        <ele>665.2</ele>
        <time>2018-06-17T07:07:27Z</time>
      </trkpt>
      <trkpt lat="43.2047780" lon="-5.8650660">
        <ele>666.4</ele>
        <time>2018-06-17T07:07:33Z</time>
      </trkpt>
      <trkpt lat="43.2048900" lon="-5.8649440">
        <ele>667.4</ele>
        <time>2018-06-17T07:07:38Z</time>
      </trkpt>
      <trkpt lat="43.2049480" lon="-5.8647560">
        <ele>668.4</ele>
        <time>2018-06-17T07:07:44Z</time>
      </trkpt>
      <trkpt lat="43.2049580" lon="-5.8645390">
        <ele>669.6</ele>
        <time>2018-06-17T07:07:50Z</time>
      </trkpt>
      <trkpt lat="43.2049590" lon="-5.8643190">
        <ele>670.8</ele>
        <time>2018-06-17T07:07:56Z</time>
      </trkpt>
      <trkpt lat="43.2049830" lon="-5.8641360">
        <ele>671.8</ele>
        <time>2018-06-17T07:08:02Z</time>
      </trkpt>
      <trkpt lat="43.2049950" lon="-5.8640210">
        <ele>672.8</ele>
        <time>2018-06-17T07:08:07Z</time>
      </trkpt>
      <trkpt lat="43.2050030" lon="-5.8638500">
        <ele>674.0</ele>
        <time>2018-06-17T07:08:14Z</time>
      </trkpt>
      <trkpt lat="43.2050450" lon="-5.8634450">
        <ele>675.0</ele>
        <time>2018-06-17T07:08:22Z</time>
      </trkpt>
      <trkpt lat="43.2052600" lon="-5.8632000">
        <ele>676.4</ele>
        <time>2018-06-17T07:08:31Z</time>
      </trkpt>
      <trkpt lat="43.2054840" lon="-5.8631450">
        <ele>677.0</ele>
        <time>2018-06-17T07:08:37Z</time>
      </trkpt>
      <trkpt lat="43.2056080" lon="-5.8631060">
        <ele>677.4</ele>
        <time>2018-06-17T07:08:41Z</time>
      </trkpt>
      <trkpt lat="43.2059190" lon="-5.8630280">
        <ele>678.4</ele>
        <time>2018-06-17T07:08:50Z</time>
      </trkpt>
      <trkpt lat="43.2060970" lon="-5.8630730">
        <ele>678.6</ele>
        <time>2018-06-17T07:08:54Z</time>
      </trkpt>
      <trkpt lat="43.2064170" lon="-5.8632940">
        <ele>679.0</ele>
        <time>2018-06-17T07:09:02Z</time>
      </trkpt>
      <trkpt lat="43.2065690" lon="-5.8634080">
        <ele>679.4</ele>
        <time>2018-06-17T07:09:06Z</time>
      </trkpt>
      <trkpt lat="43.2069500" lon="-5.8636400">
        <ele>680.4</ele>
        <time>2018-06-17T07:09:16Z</time>
      </trkpt>
      <trkpt lat="43.2071520" lon="-5.8636970">
        <ele>680.8</ele>
        <time>2018-06-17T07:09:21Z</time>
      </trkpt>
      <trkpt lat="43.2074250" lon="-5.8634720">
        <ele>681.4</ele>
        <time>2018-06-17T07:09:29Z</time>
      </trkpt>
      <trkpt lat="43.2074470" lon="-5.8634220">
        <ele>681.6</ele>
        <time>2018-06-17T07:09:30Z</time>
      </trkpt>
      <trkpt lat="43.2075100" lon="-5.8631610">
        <ele>681.8</ele>
        <time>2018-06-17T07:09:35Z</time>
      </trkpt>
      <trkpt lat="43.2074140" lon="-5.8627410">
        <ele>682.4</ele>
        <time>2018-06-17T07:09:43Z</time>
      </trkpt>
      <trkpt lat="43.2072030" lon="-5.8621050">
        <ele>683.6</ele>
        <time>2018-06-17T07:09:55Z</time>
      </trkpt>
      <trkpt lat="43.2071020" lon="-5.8617880">
        <ele>684.2</ele>
        <time>2018-06-17T07:10:01Z</time>
      </trkpt>
      <trkpt lat="43.2070090" lon="-5.8613370">
        <ele>684.6</ele>
        <time>2018-06-17T07:10:09Z</time>
      </trkpt>
      <trkpt lat="43.2069300" lon="-5.8609840">
        <ele>685.0</ele>
        <time>2018-06-17T07:10:16Z</time>
      </trkpt>
      <trkpt lat="43.2067810" lon="-5.8608400">
        <ele>685.4</ele>
        <time>2018-06-17T07:10:21Z</time>
      </trkpt>
      <trkpt lat="43.2063610" lon="-5.8607850">
        <ele>686.4</ele>
        <time>2018-06-17T07:10:32Z</time>
      </trkpt>
      <trkpt lat="43.2059840" lon="-5.8609540">
        <ele>687.4</ele>
        <time>2018-06-17T07:10:42Z</time>
      </trkpt>
      <trkpt lat="43.2056180" lon="-5.8608920">
        <ele>688.8</ele>
        <time>2018-06-17T07:10:51Z</time>
      </trkpt>
      <trkpt lat="43.2054630" lon="-5.8608610">
        <ele>690.0</ele>
        <time>2018-06-17T07:10:56Z</time>
      </trkpt>
      <trkpt lat="43.2053760" lon="-5.8608810">
        <ele>691.0</ele>
        <time>2018-06-17T07:10:59Z</time>
      </trkpt>
      <trkpt lat="43.2052680" lon="-5.8609240">
        <ele>691.6</ele>
        <time>2018-06-17T07:11:02Z</time>
      </trkpt>
      <trkpt lat="43.2052310" lon="-5.8609260">
        <ele>692.0</ele>
        <time>2018-06-17T07:11:03Z</time>
      </trkpt>
      <trkpt lat="43.2051640" lon="-5.8609310">
        <ele>692.6</ele>
        <time>2018-06-17T07:11:05Z</time>
      </trkpt>
      <trkpt lat="43.2050930" lon="-5.8608740">
        <ele>693.0</ele>
        <time>2018-06-17T07:11:08Z</time>
      </trkpt>
      <trkpt lat="43.2050400" lon="-5.8607410">
        <ele>694.2</ele>
        <time>2018-06-17T07:11:12Z</time>
      </trkpt>
      <trkpt lat="43.2049150" lon="-5.8605460">
        <ele>695.6</ele>
        <time>2018-06-17T07:11:18Z</time>
      </trkpt>
      <trkpt lat="43.2047960" lon="-5.8604160">
        <ele>696.6</ele>
        <time>2018-06-17T07:11:23Z</time>
      </trkpt>
      <trkpt lat="43.2046430" lon="-5.8603220">
        <ele>697.8</ele>
        <time>2018-06-17T07:11:28Z</time>
      </trkpt>
      <trkpt lat="43.2045110" lon="-5.8602870">
        <ele>698.8</ele>
        <time>2018-06-17T07:11:32Z</time>
      </trkpt>
      <trkpt lat="43.2043530" lon="-5.8602480">
        <ele>699.8</ele>
        <time>2018-06-17T07:11:37Z</time>
      </trkpt>
      <trkpt lat="43.2041990" lon="-5.8601940">
        <ele>701.0</ele>
        <time>2018-06-17T07:11:42Z</time>
      </trkpt>
      <trkpt lat="43.2040380" lon="-5.8600810">
        <ele>702.2</ele>
        <time>2018-06-17T07:11:48Z</time>
      </trkpt>
      <trkpt lat="43.2039430" lon="-5.8600160">
        <ele>703.2</ele>
        <time>2018-06-17T07:11:52Z</time>
      </trkpt>
      <trkpt lat="43.2038150" lon="-5.8599100">
        <ele>704.4</ele>
        <time>2018-06-17T07:11:57Z</time>
      </trkpt>
      <trkpt lat="43.2036680" lon="-5.8597270">
        <ele>705.4</ele>
        <time>2018-06-17T07:12:03Z</time>
      </trkpt>
      <trkpt lat="43.2036020" lon="-5.8596160">
        <ele>706.6</ele>
        <time>2018-06-17T07:12:07Z</time>
      </trkpt>
      <trkpt lat="43.2035050" lon="-5.8593730">
        <ele>707.6</ele>
        <time>2018-06-17T07:12:13Z</time>
      </trkpt>
      <trkpt lat="43.2034120" lon="-5.8592060">
        <ele>708.8</ele>
        <time>2018-06-17T07:12:18Z</time>
      </trkpt>
      <trkpt lat="43.2033110" lon="-5.8590780">
        <ele>709.8</ele>
        <time>2018-06-17T07:12:23Z</time>
      </trkpt>
      <trkpt lat="43.2032330" lon="-5.8588790">
        <ele>710.8</ele>
        <time>2018-06-17T07:12:28Z</time>
      </trkpt>
      <trkpt lat="43.2031870" lon="-5.8586060">
        <ele>711.8</ele>
        <time>2018-06-17T07:12:33Z</time>
      </trkpt>
      <trkpt lat="43.2031520" lon="-5.8582610">
        <ele>713.0</ele>
        <time>2018-06-17T07:12:39Z</time>
      </trkpt>
      <trkpt lat="43.2031250" lon="-5.8580630">
        <ele>714.0</ele>
        <time>2018-06-17T07:12:44Z</time>
      </trkpt>
      <trkpt lat="43.2030460" lon="-5.8579100">
        <ele>715.2</ele>
        <time>2018-06-17T07:12:50Z</time>
      </trkpt>
      <trkpt lat="43.2029380" lon="-5.8578320">
        <ele>716.2</ele>
        <time>2018-06-17T07:12:54Z</time>
      </trkpt>
      <trkpt lat="43.2027910" lon="-5.8578500">
        <ele>717.4</ele>
        <time>2018-06-17T07:13:00Z</time>
      </trkpt>
      <trkpt lat="43.2026570" lon="-5.8578940">
        <ele>718.4</ele>
        <time>2018-06-17T07:13:05Z</time>
      </trkpt>
      <trkpt lat="43.2025420" lon="-5.8579200">
        <ele>719.4</ele>
        <time>2018-06-17T07:13:09Z</time>
      </trkpt>
      <trkpt lat="43.2023830" lon="-5.8579640">
        <ele>720.4</ele>
        <time>2018-06-17T07:13:14Z</time>
      </trkpt>
      <trkpt lat="43.2022300" lon="-5.8579980">
        <ele>721.6</ele>
        <time>2018-06-17T07:13:19Z</time>
      </trkpt>
      <trkpt lat="43.2020830" lon="-5.8581240">
        <ele>722.6</ele>
        <time>2018-06-17T07:13:25Z</time>
      </trkpt>
      <trkpt lat="43.2019700" lon="-5.8582370">
        <ele>723.8</ele>
        <time>2018-06-17T07:13:30Z</time>
      </trkpt>
      <trkpt lat="43.2018400" lon="-5.8583170">
        <ele>725.0</ele>
        <time>2018-06-17T07:13:35Z</time>
      </trkpt>
      <trkpt lat="43.2016680" lon="-5.8583830">
        <ele>726.2</ele>
        <time>2018-06-17T07:13:41Z</time>
      </trkpt>
      <trkpt lat="43.2015150" lon="-5.8584510">
        <ele>727.2</ele>
        <time>2018-06-17T07:13:46Z</time>
      </trkpt>
      <trkpt lat="43.2013990" lon="-5.8585670">
        <ele>728.4</ele>
        <time>2018-06-17T07:13:51Z</time>
      </trkpt>
      <trkpt lat="43.2013050" lon="-5.8586600">
        <ele>729.4</ele>
        <time>2018-06-17T07:13:55Z</time>
      </trkpt>
      <trkpt lat="43.2011130" lon="-5.8587990">
        <ele>730.6</ele>
        <time>2018-06-17T07:14:02Z</time>
      </trkpt>
      <trkpt lat="43.2009740" lon="-5.8587840">
        <ele>731.4</ele>
        <time>2018-06-17T07:14:06Z</time>
      </trkpt>
      <trkpt lat="43.2008050" lon="-5.8587470">
        <ele>732.6</ele>
        <time>2018-06-17T07:14:12Z</time>
      </trkpt>
      <trkpt lat="43.2006970" lon="-5.8586520">
        <ele>733.6</ele>
        <time>2018-06-17T07:14:17Z</time>
      </trkpt>
      <trkpt lat="43.2006260" lon="-5.8584500">
        <ele>734.8</ele>
        <time>2018-06-17T07:14:22Z</time>
      </trkpt>
      <trkpt lat="43.2005930" lon="-5.8582410">
        <ele>735.8</ele>
        <time>2018-06-17T07:14:27Z</time>
      </trkpt>
      <trkpt lat="43.2005510" lon="-5.8580280">
        <ele>737.0</ele>
        <time>2018-06-17T07:14:32Z</time>
      </trkpt>
      <trkpt lat="43.2005230" lon="-5.8577810">
        <ele>738.2</ele>
        <time>2018-06-17T07:14:38Z</time>
      </trkpt>
      <trkpt lat="43.2005540" lon="-5.8575370">
        <ele>739.4</ele>
        <time>2018-06-17T07:14:44Z</time>
      </trkpt>
      <trkpt lat="43.2005290" lon="-5.8573840">
        <ele>740.4</ele>
        <time>2018-06-17T07:14:48Z</time>
      </trkpt>
      <trkpt lat="43.2004980" lon="-5.8572340">
        <ele>741.6</ele>
        <time>2018-06-17T07:14:53Z</time>
      </trkpt>
      <trkpt lat="43.2004480" lon="-5.8571690">
        <ele>742.6</ele>
        <time>2018-06-17T07:14:57Z</time>
      </trkpt>
      <trkpt lat="43.2002910" lon="-5.8570590">
        <ele>743.8</ele>
        <time>2018-06-17T07:15:04Z</time>
      </trkpt>
      <trkpt lat="43.2001930" lon="-5.8570140">
        <ele>744.8</ele>
        <time>2018-06-17T07:15:08Z</time>
      </trkpt>
      <trkpt lat="43.2000690" lon="-5.8569570">
        <ele>746.0</ele>
        <time>2018-06-17T07:15:13Z</time>
      </trkpt>
      <trkpt lat="43.1999440" lon="-5.8569040">
        <ele>747.2</ele>
        <time>2018-06-17T07:15:18Z</time>
      </trkpt>
      <trkpt lat="43.1997550" lon="-5.8567260">
        <ele>748.2</ele>
        <time>2018-06-17T07:15:26Z</time>
      </trkpt>
      <trkpt lat="43.1996570" lon="-5.8565590">
        <ele>749.2</ele>
        <time>2018-06-17T07:15:31Z</time>
      </trkpt>
      <trkpt lat="43.1994830" lon="-5.8563100">
        <ele>750.4</ele>
        <time>2018-06-17T07:15:38Z</time>
      </trkpt>
      <trkpt lat="43.1993620" lon="-5.8560860">
        <ele>751.4</ele>
        <time>2018-06-17T07:15:44Z</time>
      </trkpt>
      <trkpt lat="43.1993140" lon="-5.8558780">
        <ele>752.6</ele>
        <time>2018-06-17T07:15:49Z</time>
      </trkpt>
      <trkpt lat="43.1992930" lon="-5.8556550">
        <ele>753.8</ele>
        <time>2018-06-17T07:15:54Z</time>
      </trkpt>
      <trkpt lat="43.1992780" lon="-5.8555060">
        <ele>754.4</ele>
        <time>2018-06-17T07:15:57Z</time>
      </trkpt>
      <trkpt lat="43.1992740" lon="-5.8554220">
        <ele>754.8</ele>
        <time>2018-06-17T07:15:59Z</time>
      </trkpt>
      <trkpt lat="43.1992660" lon="-5.8551690">
        <ele>756.0</ele>
        <time>2018-06-17T07:16:05Z</time>
      </trkpt>
      <trkpt lat="43.1993250" lon="-5.8549200">
        <ele>757.0</ele>
        <time>2018-06-17T07:16:11Z</time>
      </trkpt>
      <trkpt lat="43.1993840" lon="-5.8546790">
        <ele>758.2</ele>
        <time>2018-06-17T07:16:17Z</time>
      </trkpt>
      <trkpt lat="43.1993720" lon="-5.8545340">
        <ele>759.2</ele>
        <time>2018-06-17T07:16:21Z</time>
      </trkpt>
      <trkpt lat="43.1993120" lon="-5.8544070">
        <ele>760.4</ele>
        <time>2018-06-17T07:16:25Z</time>
      </trkpt>
      <trkpt lat="43.1991960" lon="-5.8542460">
        <ele>761.6</ele>
        <time>2018-06-17T07:16:31Z</time>
      </trkpt>
      <trkpt lat="43.1991140" lon="-5.8541470">
        <ele>762.8</ele>
        <time>2018-06-17T07:16:36Z</time>
      </trkpt>
      <trkpt lat="43.1990130" lon="-5.8540090">
        <ele>763.8</ele>
        <time>2018-06-17T07:16:42Z</time>
      </trkpt>
      <trkpt lat="43.1989210" lon="-5.8538160">
        <ele>764.8</ele>
        <time>2018-06-17T07:16:47Z</time>
      </trkpt>
      <trkpt lat="43.1988630" lon="-5.8535540">
        <ele>765.8</ele>
        <time>2018-06-17T07:16:52Z</time>
      </trkpt>
      <trkpt lat="43.1987970" lon="-5.8532640">
        <ele>767.0</ele>
        <time>2018-06-17T07:16:58Z</time>
      </trkpt>
      <trkpt lat="43.1987650" lon="-5.8530230">
        <ele>768.2</ele>
        <time>2018-06-17T07:17:03Z</time>
      </trkpt>
      <trkpt lat="43.1987720" lon="-5.8527560">
        <ele>769.2</ele>
        <time>2018-06-17T07:17:09Z</time>
      </trkpt>
      <trkpt lat="43.1987990" lon="-5.8525060">
        <ele>770.2</ele>
        <time>2018-06-17T07:17:15Z</time>
      </trkpt>
      <trkpt lat="43.1988100" lon="-5.8523430">
        <ele>771.2</ele>
        <time>2018-06-17T07:17:19Z</time>
      </trkpt>
      <trkpt lat="43.1987920" lon="-5.8520560">
        <ele>772.4</ele>
        <time>2018-06-17T07:17:26Z</time>
      </trkpt>
      <trkpt lat="43.1987680" lon="-5.8518480">
        <ele>773.6</ele>
        <time>2018-06-17T07:17:31Z</time>
      </trkpt>
      <trkpt lat="43.1987470" lon="-5.8516370">
        <ele>774.6</ele>
        <time>2018-06-17T07:17:36Z</time>
      </trkpt>
      <trkpt lat="43.1987330" lon="-5.8514720">
        <ele>775.8</ele>
        <time>2018-06-17T07:17:40Z</time>
      </trkpt>
      <trkpt lat="43.1986470" lon="-5.8511840">
        <ele>776.8</ele>
        <time>2018-06-17T07:17:47Z</time>
      </trkpt>
      <trkpt lat="43.1985110" lon="-5.8510740">
        <ele>777.0</ele>
        <time>2018-06-17T07:17:52Z</time>
      </trkpt>
      <trkpt lat="43.1984160" lon="-5.8510570">
        <ele>777.0</ele>
        <time>2018-06-17T07:17:55Z</time>
      </trkpt>
      <trkpt lat="43.1983040" lon="-5.8510690">
        <ele>776.4</ele>
        <time>2018-06-17T07:17:58Z</time>
      </trkpt>
      <trkpt lat="43.1982080" lon="-5.8510830">
        <ele>775.8</ele>
        <time>2018-06-17T07:18:00Z</time>
      </trkpt>
      <trkpt lat="43.1981520" lon="-5.8510930">
        <ele>775.2</ele>
        <time>2018-06-17T07:18:01Z</time>
      </trkpt>
      <trkpt lat="43.1980930" lon="-5.8511030">
        <ele>774.6</ele>
        <time>2018-06-17T07:18:02Z</time>
      </trkpt>
      <trkpt lat="43.1980340" lon="-5.8511080">
        <ele>773.6</ele>
        <time>2018-06-17T07:18:03Z</time>
      </trkpt>
      <trkpt lat="43.1979160" lon="-5.8511040">
        <ele>772.4</ele>
        <time>2018-06-17T07:18:05Z</time>
      </trkpt>
      <trkpt lat="43.1978110" lon="-5.8510700">
        <ele>770.8</ele>
        <time>2018-06-17T07:18:07Z</time>
      </trkpt>
      <trkpt lat="43.1977630" lon="-5.8510590">
        <ele>770.2</ele>
        <time>2018-06-17T07:18:08Z</time>
      </trkpt>
      <trkpt lat="43.1977150" lon="-5.8510740">
        <ele>769.8</ele>
        <time>2018-06-17T07:18:09Z</time>
      </trkpt>
      <trkpt lat="43.1976410" lon="-5.8511710">
        <ele>768.8</ele>
        <time>2018-06-17T07:18:11Z</time>
      </trkpt>
      <trkpt lat="43.1975880" lon="-5.8512990">
        <ele>767.6</ele>
        <time>2018-06-17T07:18:13Z</time>
      </trkpt>
      <trkpt lat="43.1975400" lon="-5.8514200">
        <ele>767.4</ele>
        <time>2018-06-17T07:18:15Z</time>
      </trkpt>
      <trkpt lat="43.1973730" lon="-5.8517470">
        <ele>768.6</ele>
        <time>2018-06-17T07:18:22Z</time>
      </trkpt>
      <trkpt lat="43.1973220" lon="-5.8519800">
        <ele>769.8</ele>
        <time>2018-06-17T07:18:27Z</time>
      </trkpt>
      <trkpt lat="43.1972870" lon="-5.8521830">
        <ele>770.4</ele>
        <time>2018-06-17T07:18:31Z</time>
      </trkpt>
      <trkpt lat="43.1972680" lon="-5.8523360">
        <ele>770.8</ele>
        <time>2018-06-17T07:18:34Z</time>
      </trkpt>
      <trkpt lat="43.1972970" lon="-5.8526830">
        <ele>772.0</ele>
        <time>2018-06-17T07:18:41Z</time>
      </trkpt>
      <trkpt lat="43.1973650" lon="-5.8529670">
        <ele>773.0</ele>
        <time>2018-06-17T07:18:47Z</time>
      </trkpt>
      <trkpt lat="43.1973650" lon="-5.8532590">
        <ele>774.2</ele>
        <time>2018-06-17T07:18:53Z</time>
      </trkpt>
      <trkpt lat="43.1973580" lon="-5.8534330">
        <ele>775.0</ele>
        <time>2018-06-17T07:18:57Z</time>
      </trkpt>
      <trkpt lat="43.1973890" lon="-5.8538300">
        <ele>776.2</ele>
        <time>2018-06-17T07:19:05Z</time>
      </trkpt>
      <trkpt lat="43.1973560" lon="-5.8540700">
        <ele>777.2</ele>
        <time>2018-06-17T07:19:10Z</time>
      </trkpt>
      <trkpt lat="43.1973080" lon="-5.8543560">
        <ele>778.4</ele>
        <time>2018-06-17T07:19:16Z</time>
      </trkpt>
      <trkpt lat="43.1972100" lon="-5.8546520">
        <ele>779.2</ele>
        <time>2018-06-17T07:19:23Z</time>
      </trkpt>
      <trkpt lat="43.1971110" lon="-5.8548450">
        <ele>780.4</ele>
        <time>2018-06-17T07:19:28Z</time>
      </trkpt>
      <trkpt lat="43.1968910" lon="-5.8549030">
        <ele>781.6</ele>
        <time>2018-06-17T07:19:35Z</time>
      </trkpt>
      <trkpt lat="43.1968000" lon="-5.8549650">
        <ele>782.6</ele>
        <time>2018-06-17T07:19:39Z</time>
      </trkpt>
      <trkpt lat="43.1967490" lon="-5.8550290">
        <ele>783.6</ele>
        <time>2018-06-17T07:19:42Z</time>
      </trkpt>
      <trkpt lat="43.1967030" lon="-5.8551600">
        <ele>784.6</ele>
        <time>2018-06-17T07:19:46Z</time>
      </trkpt>
      <trkpt lat="43.1967690" lon="-5.8554960">
        <ele>785.0</ele>
        <time>2018-06-17T07:19:53Z</time>
      </trkpt>
      <trkpt lat="43.1967640" lon="-5.8557860">
        <ele>784.8</ele>
        <time>2018-06-17T07:19:58Z</time>
      </trkpt>
      <trkpt lat="43.1967550" lon="-5.8558410">
        <ele>785.2</ele>
        <time>2018-06-17T07:19:59Z</time>
      </trkpt>
      <trkpt lat="43.1967450" lon="-5.8560080">
        <ele>785.2</ele>
        <time>2018-06-17T07:20:02Z</time>
      </trkpt>
      <trkpt lat="43.1967450" lon="-5.8561140">
        <ele>785.6</ele>
        <time>2018-06-17T07:20:04Z</time>
      </trkpt>
      <trkpt lat="43.1967190" lon="-5.8564800">
        <ele>786.8</ele>
        <time>2018-06-17T07:20:11Z</time>
      </trkpt>
      <trkpt lat="43.1967080" lon="-5.8567030">
        <ele>787.0</ele>
        <time>2018-06-17T07:20:15Z</time>
      </trkpt>
      <trkpt lat="43.1966280" lon="-5.8569440">
        <ele>786.4</ele>
        <time>2018-06-17T07:20:19Z</time>
      </trkpt>
      <trkpt lat="43.1965680" lon="-5.8570430">
        <ele>786.4</ele>
        <time>2018-06-17T07:20:21Z</time>
      </trkpt>
      <trkpt lat="43.1965020" lon="-5.8571360">
        <ele>786.4</ele>
        <time>2018-06-17T07:20:23Z</time>
      </trkpt>
      <trkpt lat="43.1964650" lon="-5.8571810">
        <ele>786.4</ele>
        <time>2018-06-17T07:20:24Z</time>
      </trkpt>
      <trkpt lat="43.1963820" lon="-5.8572620">
        <ele>786.2</ele>
        <time>2018-06-17T07:20:26Z</time>
      </trkpt>
      <trkpt lat="43.1963010" lon="-5.8573450">
        <ele>786.0</ele>
        <time>2018-06-17T07:20:28Z</time>
      </trkpt>
      <trkpt lat="43.1962220" lon="-5.8574440">
        <ele>785.4</ele>
        <time>2018-06-17T07:20:30Z</time>
      </trkpt>
      <trkpt lat="43.1961000" lon="-5.8575990">
        <ele>784.8</ele>
        <time>2018-06-17T07:20:33Z</time>
      </trkpt>
      <trkpt lat="43.1959760" lon="-5.8577190">
        <ele>784.8</ele>
        <time>2018-06-17T07:20:36Z</time>
      </trkpt>
      <trkpt lat="43.1959820" lon="-5.8580490">
        <ele>785.6</ele>
        <time>2018-06-17T07:20:43Z</time>
      </trkpt>
      <trkpt lat="43.1960440" lon="-5.8581210">
        <ele>785.8</ele>
        <time>2018-06-17T07:20:45Z</time>
      </trkpt>
      <trkpt lat="43.1961710" lon="-5.8581850">
        <ele>786.2</ele>
        <time>2018-06-17T07:20:49Z</time>
      </trkpt>
      <trkpt lat="43.1962360" lon="-5.8582160">
        <ele>786.6</ele>
        <time>2018-06-17T07:20:51Z</time>
      </trkpt>
      <trkpt lat="43.1963640" lon="-5.8582870">
        <ele>787.4</ele>
        <time>2018-06-17T07:20:55Z</time>
      </trkpt>
      <trkpt lat="43.1963950" lon="-5.8583080">
        <ele>787.8</ele>
        <time>2018-06-17T07:20:56Z</time>
      </trkpt>
      <trkpt lat="43.1965290" lon="-5.8584600">
        <ele>788.2</ele>
        <time>2018-06-17T07:21:00Z</time>
      </trkpt>
      <trkpt lat="43.1965700" lon="-5.8586150">
        <ele>788.8</ele>
        <time>2018-06-17T07:21:03Z</time>
      </trkpt>
      <trkpt lat="43.1966280" lon="-5.8589820">
        <ele>789.8</ele>
        <time>2018-06-17T07:21:10Z</time>
      </trkpt>
      <trkpt lat="43.1966840" lon="-5.8591870">
        <ele>790.6</ele>
        <time>2018-06-17T07:21:14Z</time>
      </trkpt>
      <trkpt lat="43.1966890" lon="-5.8592870">
        <ele>791.0</ele>
        <time>2018-06-17T07:21:16Z</time>
      </trkpt>
      <trkpt lat="43.1966370" lon="-5.8594540">
        <ele>791.8</ele>
        <time>2018-06-17T07:21:20Z</time>
      </trkpt>
      <trkpt lat="43.1966160" lon="-5.8594840">
        <ele>792.2</ele>
        <time>2018-06-17T07:21:21Z</time>
      </trkpt>
      <trkpt lat="43.1965490" lon="-5.8595750">
        <ele>793.2</ele>
        <time>2018-06-17T07:21:24Z</time>
      </trkpt>
      <trkpt lat="43.1965270" lon="-5.8596030">
        <ele>793.4</ele>
        <time>2018-06-17T07:21:25Z</time>
      </trkpt>
      <trkpt lat="43.1964390" lon="-5.8598390">
        <ele>794.2</ele>
        <time>2018-06-17T07:21:31Z</time>
      </trkpt>
      <trkpt lat="43.1964420" lon="-5.8601060">
        <ele>795.2</ele>
        <time>2018-06-17T07:21:37Z</time>
      </trkpt>
      <trkpt lat="43.1966340" lon="-5.8605630">
        <ele>796.2</ele>
        <time>2018-06-17T07:21:47Z</time>
      </trkpt>
      <trkpt lat="43.1967810" lon="-5.8607930">
        <ele>797.4</ele>
        <time>2018-06-17T07:21:53Z</time>
      </trkpt>
      <trkpt lat="43.1968040" lon="-5.8609790">
        <ele>796.8</ele>
        <time>2018-06-17T07:21:56Z</time>
      </trkpt>
      <trkpt lat="43.1967430" lon="-5.8611780">
        <ele>796.0</ele>
        <time>2018-06-17T07:21:59Z</time>
      </trkpt>
      <trkpt lat="43.1967120" lon="-5.8612410">
        <ele>795.8</ele>
        <time>2018-06-17T07:22:00Z</time>
      </trkpt>
      <trkpt lat="43.1966130" lon="-5.8614700">
        <ele>794.8</ele>
        <time>2018-06-17T07:22:03Z</time>
      </trkpt>
      <trkpt lat="43.1965700" lon="-5.8615550">
        <ele>794.0</ele>
        <time>2018-06-17T07:22:04Z</time>
      </trkpt>
      <trkpt lat="43.1965160" lon="-5.8616340">
        <ele>793.2</ele>
        <time>2018-06-17T07:22:05Z</time>
      </trkpt>
      <trkpt lat="43.1963900" lon="-5.8617570">
        <ele>791.6</ele>
        <time>2018-06-17T07:22:07Z</time>
      </trkpt>
      <trkpt lat="43.1962020" lon="-5.8618870">
        <ele>790.6</ele>
        <time>2018-06-17T07:22:10Z</time>
      </trkpt>
      <trkpt lat="43.1961130" lon="-5.8621100">
        <ele>790.0</ele>
        <time>2018-06-17T07:22:13Z</time>
      </trkpt>
      <trkpt lat="43.1960990" lon="-5.8623300">
        <ele>789.6</ele>
        <time>2018-06-17T07:22:16Z</time>
      </trkpt>
      <trkpt lat="43.1961040" lon="-5.8624720">
        <ele>789.8</ele>
        <time>2018-06-17T07:22:18Z</time>
      </trkpt>
      <trkpt lat="43.1961120" lon="-5.8626290">
        <ele>789.6</ele>
        <time>2018-06-17T07:22:20Z</time>
      </trkpt>
      <trkpt lat="43.1961130" lon="-5.8627180">
        <ele>789.4</ele>
        <time>2018-06-17T07:22:21Z</time>
      </trkpt>
      <trkpt lat="43.1960840" lon="-5.8629090">
        <ele>788.2</ele>
        <time>2018-06-17T07:22:23Z</time>
      </trkpt>
      <trkpt lat="43.1960320" lon="-5.8630820">
        <ele>787.6</ele>
        <time>2018-06-17T07:22:25Z</time>
      </trkpt>
      <trkpt lat="43.1959620" lon="-5.8632130">
        <ele>787.6</ele>
        <time>2018-06-17T07:22:27Z</time>
      </trkpt>
      <trkpt lat="43.1958820" lon="-5.8633020">
        <ele>788.2</ele>
        <time>2018-06-17T07:22:29Z</time>
      </trkpt>
      <trkpt lat="43.1958400" lon="-5.8633380">
        <ele>788.4</ele>
        <time>2018-06-17T07:22:30Z</time>
      </trkpt>
      <trkpt lat="43.1957550" lon="-5.8633910">
        <ele>788.6</ele>
        <time>2018-06-17T07:22:32Z</time>
      </trkpt>
      <trkpt lat="43.1956380" lon="-5.8634140">
        <ele>789.2</ele>
        <time>2018-06-17T07:22:35Z</time>
      </trkpt>
      <trkpt lat="43.1956030" lon="-5.8634050">
        <ele>789.6</ele>
        <time>2018-06-17T07:22:36Z</time>
      </trkpt>
      <trkpt lat="43.1955690" lon="-5.8633910">
        <ele>790.0</ele>
        <time>2018-06-17T07:22:37Z</time>
      </trkpt>
      <trkpt lat="43.1955050" lon="-5.8633600">
        <ele>791.0</ele>
        <time>2018-06-17T07:22:39Z</time>
      </trkpt>
      <trkpt lat="43.1954470" lon="-5.8633260">
        <ele>791.4</ele>
        <time>2018-06-17T07:22:41Z</time>
      </trkpt>
      <trkpt lat="43.1953480" lon="-5.8632920">
        <ele>791.8</ele>
        <time>2018-06-17T07:22:44Z</time>
      </trkpt>
      <trkpt lat="43.1951930" lon="-5.8633710">
        <ele>793.0</ele>
        <time>2018-06-17T07:22:49Z</time>
      </trkpt>
      <trkpt lat="43.1951140" lon="-5.8635060">
        <ele>793.6</ele>
        <time>2018-06-17T07:22:53Z</time>
      </trkpt>
      <trkpt lat="43.1950840" lon="-5.8635770">
        <ele>794.2</ele>
        <time>2018-06-17T07:22:55Z</time>
      </trkpt>
      <trkpt lat="43.1950280" lon="-5.8637080">
        <ele>795.4</ele>
        <time>2018-06-17T07:22:59Z</time>
      </trkpt>
      <trkpt lat="43.1949460" lon="-5.8638510">
        <ele>796.6</ele>
        <time>2018-06-17T07:23:04Z</time>
      </trkpt>
      <trkpt lat="43.1948670" lon="-5.8639400">
        <ele>797.6</ele>
        <time>2018-06-17T07:23:08Z</time>
      </trkpt>
      <trkpt lat="43.1947600" lon="-5.8640320">
        <ele>798.4</ele>
        <time>2018-06-17T07:23:13Z</time>
      </trkpt>
      <trkpt lat="43.1946950" lon="-5.8640840">
        <ele>799.4</ele>
        <time>2018-06-17T07:23:16Z</time>
      </trkpt>
      <trkpt lat="43.1945910" lon="-5.8641840">
        <ele>800.6</ele>
        <time>2018-06-17T07:23:21Z</time>
      </trkpt>
      <trkpt lat="43.1944720" lon="-5.8642710">
        <ele>801.6</ele>
        <time>2018-06-17T07:23:26Z</time>
      </trkpt>
      <trkpt lat="43.1943660" lon="-5.8643460">
        <ele>802.6</ele>
        <time>2018-06-17T07:23:31Z</time>
      </trkpt>
      <trkpt lat="43.1942720" lon="-5.8644220">
        <ele>804.0</ele>
        <time>2018-06-17T07:23:36Z</time>
      </trkpt>
      <trkpt lat="43.1942040" lon="-5.8644970">
        <ele>805.2</ele>
        <time>2018-06-17T07:23:40Z</time>
      </trkpt>
      <trkpt lat="43.1941240" lon="-5.8645870">
        <ele>806.4</ele>
        <time>2018-06-17T07:23:45Z</time>
      </trkpt>
      <trkpt lat="43.1940400" lon="-5.8646570">
        <ele>807.6</ele>
        <time>2018-06-17T07:23:50Z</time>
      </trkpt>
      <trkpt lat="43.1939710" lon="-5.8647060">
        <ele>808.8</ele>
        <time>2018-06-17T07:23:54Z</time>
      </trkpt>
      <trkpt lat="43.1938790" lon="-5.8647490">
        <ele>810.0</ele>
        <time>2018-06-17T07:23:58Z</time>
      </trkpt>
      <trkpt lat="43.1937990" lon="-5.8647920">
        <ele>811.2</ele>
        <time>2018-06-17T07:24:02Z</time>
      </trkpt>
      <trkpt lat="43.1937200" lon="-5.8648190">
        <ele>812.2</ele>
        <time>2018-06-17T07:24:06Z</time>
      </trkpt>
      <trkpt lat="43.1937020" lon="-5.8648260">
        <ele>812.6</ele>
        <time>2018-06-17T07:24:07Z</time>
      </trkpt>
      <trkpt lat="43.1936330" lon="-5.8648400">
        <ele>813.8</ele>
        <time>2018-06-17T07:24:10Z</time>
      </trkpt>
      <trkpt lat="43.1935390" lon="-5.8648510">
        <ele>814.6</ele>
        <time>2018-06-17T07:24:14Z</time>
      </trkpt>
      <trkpt lat="43.1934710" lon="-5.8648700">
        <ele>815.6</ele>
        <time>2018-06-17T07:24:17Z</time>
      </trkpt>
      <trkpt lat="43.1933550" lon="-5.8649120">
        <ele>816.8</ele>
        <time>2018-06-17T07:24:22Z</time>
      </trkpt>
      <trkpt lat="43.1932790" lon="-5.8649750">
        <ele>818.0</ele>
        <time>2018-06-17T07:24:26Z</time>
      </trkpt>
      <trkpt lat="43.1932210" lon="-5.8650580">
        <ele>819.0</ele>
        <time>2018-06-17T07:24:30Z</time>
      </trkpt>
      <trkpt lat="43.1931470" lon="-5.8651650">
        <ele>820.2</ele>
        <time>2018-06-17T07:24:36Z</time>
      </trkpt>
      <trkpt lat="43.1930970" lon="-5.8652300">
        <ele>821.2</ele>
        <time>2018-06-17T07:24:40Z</time>
      </trkpt>
      <trkpt lat="43.1930480" lon="-5.8653010">
        <ele>822.4</ele>
        <time>2018-06-17T07:24:44Z</time>
      </trkpt>
      <trkpt lat="43.1929880" lon="-5.8653970">
        <ele>823.4</ele>
        <time>2018-06-17T07:24:49Z</time>
      </trkpt>
      <trkpt lat="43.1929500" lon="-5.8654870">
        <ele>824.4</ele>
        <time>2018-06-17T07:24:53Z</time>
      </trkpt>
      <trkpt lat="43.1929000" lon="-5.8655670">
        <ele>825.6</ele>
        <time>2018-06-17T07:24:57Z</time>
      </trkpt>
      <trkpt lat="43.1928290" lon="-5.8656510">
        <ele>826.8</ele>
        <time>2018-06-17T07:25:02Z</time>
      </trkpt>
      <trkpt lat="43.1927740" lon="-5.8657240">
        <ele>828.0</ele>
        <time>2018-06-17T07:25:06Z</time>
      </trkpt>
      <trkpt lat="43.1927180" lon="-5.8658010">
        <ele>829.0</ele>
        <time>2018-06-17T07:25:10Z</time>
      </trkpt>
      <trkpt lat="43.1926590" lon="-5.8659380">
        <ele>830.2</ele>
        <time>2018-06-17T07:25:16Z</time>
      </trkpt>
      <trkpt lat="43.1926340" lon="-5.8660320">
        <ele>831.4</ele>
        <time>2018-06-17T07:25:20Z</time>
      </trkpt>
      <trkpt lat="43.1925900" lon="-5.8661350">
        <ele>832.6</ele>
        <time>2018-06-17T07:25:25Z</time>
      </trkpt>
      <trkpt lat="43.1925430" lon="-5.8661730">
        <ele>833.6</ele>
        <time>2018-06-17T07:25:28Z</time>
      </trkpt>
      <trkpt lat="43.1924720" lon="-5.8662020">
        <ele>834.6</ele>
        <time>2018-06-17T07:25:32Z</time>
      </trkpt>
      <trkpt lat="43.1923850" lon="-5.8662540">
        <ele>835.8</ele>
        <time>2018-06-17T07:25:37Z</time>
      </trkpt>
      <trkpt lat="43.1923540" lon="-5.8663790">
        <ele>837.0</ele>
        <time>2018-06-17T07:25:42Z</time>
      </trkpt>
      <trkpt lat="43.1923610" lon="-5.8664830">
        <ele>837.8</ele>
        <time>2018-06-17T07:25:46Z</time>
      </trkpt>
      <trkpt lat="43.1923760" lon="-5.8665820">
        <ele>838.8</ele>
        <time>2018-06-17T07:25:50Z</time>
      </trkpt>
      <trkpt lat="43.1923960" lon="-5.8667130">
        <ele>840.0</ele>
        <time>2018-06-17T07:25:55Z</time>
      </trkpt>
      <trkpt lat="43.1924070" lon="-5.8668330">
        <ele>841.0</ele>
        <time>2018-06-17T07:26:00Z</time>
      </trkpt>
      <trkpt lat="43.1924020" lon="-5.8669020">
        <ele>842.0</ele>
        <time>2018-06-17T07:26:03Z</time>
      </trkpt>
      <trkpt lat="43.1923630" lon="-5.8669790">
        <ele>843.4</ele>
        <time>2018-06-17T07:26:07Z</time>
      </trkpt>
      <trkpt lat="43.1923110" lon="-5.8669960">
        <ele>844.2</ele>
        <time>2018-06-17T07:26:10Z</time>
      </trkpt>
      <trkpt lat="43.1922920" lon="-5.8669870">
        <ele>844.4</ele>
        <time>2018-06-17T07:26:11Z</time>
      </trkpt>
      <trkpt lat="43.1922420" lon="-5.8669320">
        <ele>845.2</ele>
        <time>2018-06-17T07:26:14Z</time>
      </trkpt>
      <trkpt lat="43.1922270" lon="-5.8669090">
        <ele>845.4</ele>
        <time>2018-06-17T07:26:15Z</time>
      </trkpt>
      <trkpt lat="43.1921230" lon="-5.8667960">
        <ele>846.4</ele>
        <time>2018-06-17T07:26:21Z</time>
      </trkpt>
      <trkpt lat="43.1920390" lon="-5.8667650">
        <ele>847.6</ele>
        <time>2018-06-17T07:26:25Z</time>
      </trkpt>
      <trkpt lat="43.1919410" lon="-5.8667550">
        <ele>848.8</ele>
        <time>2018-06-17T07:26:30Z</time>
      </trkpt>
      <trkpt lat="43.1918640" lon="-5.8667520">
        <ele>850.0</ele>
        <time>2018-06-17T07:26:34Z</time>
      </trkpt>
      <trkpt lat="43.1917860" lon="-5.8667570">
        <ele>851.0</ele>
        <time>2018-06-17T07:26:38Z</time>
      </trkpt>
      <trkpt lat="43.1916840" lon="-5.8667830">
        <ele>852.0</ele>
        <time>2018-06-17T07:26:43Z</time>
      </trkpt>
      <trkpt lat="43.1915870" lon="-5.8668140">
        <ele>853.4</ele>
        <time>2018-06-17T07:26:48Z</time>
      </trkpt>
      <trkpt lat="43.1915110" lon="-5.8668360">
        <ele>854.4</ele>
        <time>2018-06-17T07:26:52Z</time>
      </trkpt>
      <trkpt lat="43.1914150" lon="-5.8668610">
        <ele>855.6</ele>
        <time>2018-06-17T07:26:57Z</time>
      </trkpt>
      <trkpt lat="43.1913460" lon="-5.8668840">
        <ele>856.8</ele>
        <time>2018-06-17T07:27:01Z</time>
      </trkpt>
      <trkpt lat="43.1912620" lon="-5.8669180">
        <ele>858.2</ele>
        <time>2018-06-17T07:27:06Z</time>
      </trkpt>
      <trkpt lat="43.1911630" lon="-5.8669380">
        <ele>859.0</ele>
        <time>2018-06-17T07:27:11Z</time>
      </trkpt>
      <trkpt lat="43.1910460" lon="-5.8669370">
        <ele>860.2</ele>
        <time>2018-06-17T07:27:16Z</time>
      </trkpt>
      <trkpt lat="43.1909650" lon="-5.8669430">
        <ele>861.4</ele>
        <time>2018-06-17T07:27:20Z</time>
      </trkpt>
      <trkpt lat="43.1908540" lon="-5.8669670">
        <ele>862.4</ele>
        <time>2018-06-17T07:27:25Z</time>
      </trkpt>
      <trkpt lat="43.1907400" lon="-5.8669810">
        <ele>863.6</ele>
        <time>2018-06-17T07:27:30Z</time>
      </trkpt>
      <trkpt lat="43.1906300" lon="-5.8669720">
        <ele>864.6</ele>
        <time>2018-06-17T07:27:35Z</time>
      </trkpt>
      <trkpt lat="43.1905460" lon="-5.8669830">
        <ele>865.8</ele>
        <time>2018-06-17T07:27:39Z</time>
      </trkpt>
      <trkpt lat="43.1904950" lon="-5.8670140">
        <ele>866.8</ele>
        <time>2018-06-17T07:27:42Z</time>
      </trkpt>
      <trkpt lat="43.1904350" lon="-5.8670900">
        <ele>868.0</ele>
        <time>2018-06-17T07:27:47Z</time>
      </trkpt>
      <trkpt lat="43.1903580" lon="-5.8671810">
        <ele>868.8</ele>
        <time>2018-06-17T07:27:52Z</time>
      </trkpt>
      <trkpt lat="43.1902570" lon="-5.8672490">
        <ele>870.0</ele>
        <time>2018-06-17T07:27:57Z</time>
      </trkpt>
      <trkpt lat="43.1901620" lon="-5.8672790">
        <ele>871.2</ele>
        <time>2018-06-17T07:28:01Z</time>
      </trkpt>
      <trkpt lat="43.1900550" lon="-5.8672760">
        <ele>872.4</ele>
        <time>2018-06-17T07:28:05Z</time>
      </trkpt>
      <trkpt lat="43.1899000" lon="-5.8672810">
        <ele>873.4</ele>
        <time>2018-06-17T07:28:11Z</time>
      </trkpt>
      <trkpt lat="43.1897150" lon="-5.8672520">
        <ele>874.6</ele>
        <time>2018-06-17T07:28:18Z</time>
      </trkpt>
      <trkpt lat="43.1895640" lon="-5.8672220">
        <ele>874.8</ele>
        <time>2018-06-17T07:28:23Z</time>
      </trkpt>
      <trkpt lat="43.1894380" lon="-5.8671980">
        <ele>874.4</ele>
        <time>2018-06-17T07:28:27Z</time>
      </trkpt>
      <trkpt lat="43.1893650" lon="-5.8672280">
        <ele>874.2</ele>
        <time>2018-06-17T07:28:29Z</time>
      </trkpt>
      <trkpt lat="43.1892850" lon="-5.8673240">
        <ele>873.6</ele>
        <time>2018-06-17T07:28:31Z</time>
      </trkpt>
      <trkpt lat="43.1892470" lon="-5.8673960">
        <ele>873.2</ele>
        <time>2018-06-17T07:28:32Z</time>
      </trkpt>
      <trkpt lat="43.1892120" lon="-5.8674770">
        <ele>872.8</ele>
        <time>2018-06-17T07:28:33Z</time>
      </trkpt>
      <trkpt lat="43.1891730" lon="-5.8675570">
        <ele>872.0</ele>
        <time>2018-06-17T07:28:34Z</time>
      </trkpt>
      <trkpt lat="43.1891240" lon="-5.8676290">
        <ele>871.4</ele>
        <time>2018-06-17T07:28:35Z</time>
      </trkpt>
      <trkpt lat="43.1890040" lon="-5.8677560">
        <ele>870.6</ele>
        <time>2018-06-17T07:28:37Z</time>
      </trkpt>
      <trkpt lat="43.1888580" lon="-5.8678610">
        <ele>869.6</ele>
        <time>2018-06-17T07:28:39Z</time>
      </trkpt>
      <trkpt lat="43.1886870" lon="-5.8679460">
        <ele>868.2</ele>
        <time>2018-06-17T07:28:41Z</time>
      </trkpt>
      <trkpt lat="43.1885960" lon="-5.8679820">
        <ele>867.4</ele>
        <time>2018-06-17T07:28:42Z</time>
      </trkpt>
      <trkpt lat="43.1884990" lon="-5.8680160">
        <ele>866.6</ele>
        <time>2018-06-17T07:28:43Z</time>
      </trkpt>
      <trkpt lat="43.1884020" lon="-5.8680500">
        <ele>865.4</ele>
        <time>2018-06-17T07:28:44Z</time>
      </trkpt>
      <trkpt lat="43.1883060" lon="-5.8680850">
        <ele>864.8</ele>
        <time>2018-06-17T07:28:45Z</time>
      </trkpt>
      <trkpt lat="43.1882110" lon="-5.8681210">
        <ele>864.2</ele>
        <time>2018-06-17T07:28:46Z</time>
      </trkpt>
      <trkpt lat="43.1881180" lon="-5.8681490">
        <ele>863.8</ele>
        <time>2018-06-17T07:28:47Z</time>
      </trkpt>
      <trkpt lat="43.1879350" lon="-5.8681750">
        <ele>863.4</ele>
        <time>2018-06-17T07:28:49Z</time>
      </trkpt>
      <trkpt lat="43.1878470" lon="-5.8681830">
        <ele>863.0</ele>
        <time>2018-06-17T07:28:50Z</time>
      </trkpt>
      <trkpt lat="43.1876650" lon="-5.8682070">
        <ele>862.0</ele>
        <time>2018-06-17T07:28:52Z</time>
      </trkpt>
      <trkpt lat="43.1874750" lon="-5.8682470">
        <ele>860.4</ele>
        <time>2018-06-17T07:28:54Z</time>
      </trkpt>
      <trkpt lat="43.1873000" lon="-5.8683010">
        <ele>858.8</ele>
        <time>2018-06-17T07:28:56Z</time>
      </trkpt>
      <trkpt lat="43.1871350" lon="-5.8683700">
        <ele>857.4</ele>
        <time>2018-06-17T07:28:58Z</time>
      </trkpt>
      <trkpt lat="43.1869710" lon="-5.8684570">
        <ele>856.0</ele>
        <time>2018-06-17T07:29:00Z</time>
      </trkpt>
      <trkpt lat="43.1868960" lon="-5.8685090">
        <ele>855.6</ele>
        <time>2018-06-17T07:29:01Z</time>
      </trkpt>
      <trkpt lat="43.1868240" lon="-5.8685640">
        <ele>854.8</ele>
        <time>2018-06-17T07:29:02Z</time>
      </trkpt>
      <trkpt lat="43.1865990" lon="-5.8687130">
        <ele>853.2</ele>
        <time>2018-06-17T07:29:05Z</time>
      </trkpt>
      <trkpt lat="43.1865270" lon="-5.8687720">
        <ele>852.6</ele>
        <time>2018-06-17T07:29:06Z</time>
      </trkpt>
      <trkpt lat="43.1864580" lon="-5.8688400">
        <ele>852.2</ele>
        <time>2018-06-17T07:29:07Z</time>
      </trkpt>
      <trkpt lat="43.1861670" lon="-5.8691860">
        <ele>851.4</ele>
        <time>2018-06-17T07:29:12Z</time>
      </trkpt>
      <trkpt lat="43.1860250" lon="-5.8694140">
        <ele>851.0</ele>
        <time>2018-06-17T07:29:15Z</time>
      </trkpt>
      <trkpt lat="43.1857890" lon="-5.8694790">
        <ele>851.0</ele>
        <time>2018-06-17T07:29:19Z</time>
      </trkpt>
      <trkpt lat="43.1857360" lon="-5.8694850">
        <ele>851.2</ele>
        <time>2018-06-17T07:29:20Z</time>
      </trkpt>
      <trkpt lat="43.1856220" lon="-5.8695620">
        <ele>852.0</ele>
        <time>2018-06-17T07:29:23Z</time>
      </trkpt>
      <trkpt lat="43.1855970" lon="-5.8695870">
        <ele>852.2</ele>
        <time>2018-06-17T07:29:24Z</time>
      </trkpt>
      <trkpt lat="43.1855540" lon="-5.8696250">
        <ele>853.0</ele>
        <time>2018-06-17T07:29:26Z</time>
      </trkpt>
      <trkpt lat="43.1855340" lon="-5.8696410">
        <ele>853.6</ele>
        <time>2018-06-17T07:29:27Z</time>
      </trkpt>
      <trkpt lat="43.1854790" lon="-5.8696780">
        <ele>854.4</ele>
        <time>2018-06-17T07:29:30Z</time>
      </trkpt>
      <trkpt lat="43.1854640" lon="-5.8696900">
        <ele>854.8</ele>
        <time>2018-06-17T07:29:31Z</time>
      </trkpt>
      <trkpt lat="43.1854100" lon="-5.8697230">
        <ele>855.2</ele>
        <time>2018-06-17T07:29:34Z</time>
      </trkpt>
      <trkpt lat="43.1853700" lon="-5.8697490">
        <ele>855.6</ele>
        <time>2018-06-17T07:29:36Z</time>
      </trkpt>
      <trkpt lat="43.1853240" lon="-5.8697800">
        <ele>856.4</ele>
        <time>2018-06-17T07:29:38Z</time>
      </trkpt>
      <trkpt lat="43.1853040" lon="-5.8697930">
        <ele>856.8</ele>
        <time>2018-06-17T07:29:39Z</time>
      </trkpt>
      <trkpt lat="43.1852580" lon="-5.8698120">
        <ele>857.4</ele>
        <time>2018-06-17T07:29:41Z</time>
      </trkpt>
      <trkpt lat="43.1852150" lon="-5.8698220">
        <ele>858.0</ele>
        <time>2018-06-17T07:29:43Z</time>
      </trkpt>
      <trkpt lat="43.1851190" lon="-5.8698440">
        <ele>859.0</ele>
        <time>2018-06-17T07:29:47Z</time>
      </trkpt>
      <trkpt lat="43.1850120" lon="-5.8698790">
        <ele>860.2</ele>
        <time>2018-06-17T07:29:51Z</time>
      </trkpt>
      <trkpt lat="43.1849260" lon="-5.8699150">
        <ele>861.4</ele>
        <time>2018-06-17T07:29:54Z</time>
      </trkpt>
      <trkpt lat="43.1848770" lon="-5.8699240">
        <ele>862.4</ele>
        <time>2018-06-17T07:29:56Z</time>
      </trkpt>
      <trkpt lat="43.1848060" lon="-5.8699510">
        <ele>863.6</ele>
        <time>2018-06-17T07:29:59Z</time>
      </trkpt>
      <trkpt lat="43.1847230" lon="-5.8700150">
        <ele>864.8</ele>
        <time>2018-06-17T07:30:03Z</time>
      </trkpt>
      <trkpt lat="43.1846390" lon="-5.8700840">
        <ele>866.0</ele>
        <time>2018-06-17T07:30:07Z</time>
      </trkpt>
      <trkpt lat="43.1845040" lon="-5.8701970">
        <ele>867.0</ele>
        <time>2018-06-17T07:30:13Z</time>
      </trkpt>
      <trkpt lat="43.1843110" lon="-5.8703120">
        <ele>868.0</ele>
        <time>2018-06-17T07:30:20Z</time>
      </trkpt>
      <trkpt lat="43.1841260" lon="-5.8703660">
        <ele>868.8</ele>
        <time>2018-06-17T07:30:26Z</time>
      </trkpt>
      <trkpt lat="43.1839530" lon="-5.8706120">
        <ele>867.0</ele>
        <time>2018-06-17T07:30:30Z</time>
      </trkpt>
      <trkpt lat="43.1839190" lon="-5.8706900">
        <ele>866.6</ele>
        <time>2018-06-17T07:30:31Z</time>
      </trkpt>
      <trkpt lat="43.1838990" lon="-5.8709250">
        <ele>865.8</ele>
        <time>2018-06-17T07:30:34Z</time>
      </trkpt>
      <trkpt lat="43.1839350" lon="-5.8711040">
        <ele>866.0</ele>
        <time>2018-06-17T07:30:37Z</time>
      </trkpt>
      <trkpt lat="43.1839600" lon="-5.8712180">
        <ele>867.0</ele>
        <time>2018-06-17T07:30:40Z</time>
      </trkpt>
      <trkpt lat="43.1839720" lon="-5.8712830">
        <ele>867.6</ele>
        <time>2018-06-17T07:30:42Z</time>
      </trkpt>
      <trkpt lat="43.1839960" lon="-5.8714520">
        <ele>869.0</ele>
        <time>2018-06-17T07:30:47Z</time>
      </trkpt>
      <trkpt lat="43.1840140" lon="-5.8715850">
        <ele>870.0</ele>
        <time>2018-06-17T07:30:51Z</time>
      </trkpt>
      <trkpt lat="43.1840380" lon="-5.8717790">
        <ele>871.2</ele>
        <time>2018-06-17T07:30:57Z</time>
      </trkpt>
      <trkpt lat="43.1840520" lon="-5.8719040">
        <ele>872.2</ele>
        <time>2018-06-17T07:31:01Z</time>
      </trkpt>
      <trkpt lat="43.1840620" lon="-5.8720180">
        <ele>873.4</ele>
        <time>2018-06-17T07:31:05Z</time>
      </trkpt>
      <trkpt lat="43.1840470" lon="-5.8721300">
        <ele>874.6</ele>
        <time>2018-06-17T07:31:09Z</time>
      </trkpt>
      <trkpt lat="43.1840190" lon="-5.8722020">
        <ele>875.6</ele>
        <time>2018-06-17T07:31:12Z</time>
      </trkpt>
      <trkpt lat="43.1840040" lon="-5.8722220">
        <ele>876.0</ele>
        <time>2018-06-17T07:31:13Z</time>
      </trkpt>
      <trkpt lat="43.1839530" lon="-5.8722720">
        <ele>877.2</ele>
        <time>2018-06-17T07:31:16Z</time>
      </trkpt>
      <trkpt lat="43.1838930" lon="-5.8723040">
        <ele>878.2</ele>
        <time>2018-06-17T07:31:19Z</time>
      </trkpt>
      <trkpt lat="43.1838270" lon="-5.8723220">
        <ele>879.4</ele>
        <time>2018-06-17T07:31:22Z</time>
      </trkpt>
      <trkpt lat="43.1837440" lon="-5.8723490">
        <ele>880.6</ele>
        <time>2018-06-17T07:31:26Z</time>
      </trkpt>
      <trkpt lat="43.1836340" lon="-5.8723830">
        <ele>881.8</ele>
        <time>2018-06-17T07:31:31Z</time>
      </trkpt>
      <trkpt lat="43.1835180" lon="-5.8724060">
        <ele>882.6</ele>
        <time>2018-06-17T07:31:36Z</time>
      </trkpt>
      <trkpt lat="43.1833440" lon="-5.8724970">
        <ele>883.6</ele>
        <time>2018-06-17T07:31:43Z</time>
      </trkpt>
      <trkpt lat="43.1831670" lon="-5.8725910">
        <ele>884.8</ele>
        <time>2018-06-17T07:31:51Z</time>
      </trkpt>
      <trkpt lat="43.1830530" lon="-5.8726100">
        <ele>886.0</ele>
        <time>2018-06-17T07:31:56Z</time>
      </trkpt>
      <trkpt lat="43.1829700" lon="-5.8726470">
        <ele>887.0</ele>
        <time>2018-06-17T07:32:00Z</time>
      </trkpt>
      <trkpt lat="43.1827600" lon="-5.8727630">
        <ele>888.0</ele>
        <time>2018-06-17T07:32:08Z</time>
      </trkpt>
      <trkpt lat="43.1826140" lon="-5.8728440">
        <ele>887.0</ele>
        <time>2018-06-17T07:32:11Z</time>
      </trkpt>
      <trkpt lat="43.1825040" lon="-5.8729190">
        <ele>885.8</ele>
        <time>2018-06-17T07:32:13Z</time>
      </trkpt>
      <trkpt lat="43.1824060" lon="-5.8730060">
        <ele>885.6</ele>
        <time>2018-06-17T07:32:15Z</time>
      </trkpt>
      <trkpt lat="43.1823120" lon="-5.8730810">
        <ele>885.4</ele>
        <time>2018-06-17T07:32:17Z</time>
      </trkpt>
      <trkpt lat="43.1821350" lon="-5.8731570">
        <ele>887.0</ele>
        <time>2018-06-17T07:32:22Z</time>
      </trkpt>
      <trkpt lat="43.1820490" lon="-5.8731900">
        <ele>888.4</ele>
        <time>2018-06-17T07:32:26Z</time>
      </trkpt>
      <trkpt lat="43.1819850" lon="-5.8731990">
        <ele>889.4</ele>
        <time>2018-06-17T07:32:29Z</time>
      </trkpt>
      <trkpt lat="43.1819060" lon="-5.8732100">
        <ele>890.6</ele>
        <time>2018-06-17T07:32:33Z</time>
      </trkpt>
      <trkpt lat="43.1818290" lon="-5.8732170">
        <ele>891.8</ele>
        <time>2018-06-17T07:32:37Z</time>
      </trkpt>
      <trkpt lat="43.1817740" lon="-5.8732300">
        <ele>893.0</ele>
        <time>2018-06-17T07:32:40Z</time>
      </trkpt>
      <trkpt lat="43.1817140" lon="-5.8732930">
        <ele>894.0</ele>
        <time>2018-06-17T07:32:44Z</time>
      </trkpt>
      <trkpt lat="43.1817100" lon="-5.8733160">
        <ele>894.4</ele>
        <time>2018-06-17T07:32:45Z</time>
      </trkpt>
      <trkpt lat="43.1817330" lon="-5.8733900">
        <ele>895.4</ele>
        <time>2018-06-17T07:32:48Z</time>
      </trkpt>
      <trkpt lat="43.1817430" lon="-5.8734140">
        <ele>895.8</ele>
        <time>2018-06-17T07:32:49Z</time>
      </trkpt>
      <trkpt lat="43.1817800" lon="-5.8734620">
        <ele>896.6</ele>
        <time>2018-06-17T07:32:52Z</time>
      </trkpt>
      <trkpt lat="43.1818240" lon="-5.8734950">
        <ele>897.6</ele>
        <time>2018-06-17T07:32:55Z</time>
      </trkpt>
      <trkpt lat="43.1818870" lon="-5.8735460">
        <ele>898.6</ele>
        <time>2018-06-17T07:32:59Z</time>
      </trkpt>
      <trkpt lat="43.1819380" lon="-5.8735880">
        <ele>899.8</ele>
        <time>2018-06-17T07:33:02Z</time>
      </trkpt>
      <trkpt lat="43.1819870" lon="-5.8736200">
        <ele>900.8</ele>
        <time>2018-06-17T07:33:05Z</time>
      </trkpt>
      <trkpt lat="43.1820460" lon="-5.8736760">
        <ele>902.0</ele>
        <time>2018-06-17T07:33:09Z</time>
      </trkpt>
      <trkpt lat="43.1820930" lon="-5.8737500">
        <ele>903.2</ele>
        <time>2018-06-17T07:33:13Z</time>
      </trkpt>
      <trkpt lat="43.1821300" lon="-5.8738410">
        <ele>904.2</ele>
        <time>2018-06-17T07:33:17Z</time>
      </trkpt>
      <trkpt lat="43.1821600" lon="-5.8739280">
        <ele>905.6</ele>
        <time>2018-06-17T07:33:21Z</time>
      </trkpt>
      <trkpt lat="43.1821810" lon="-5.8740100">
        <ele>906.8</ele>
        <time>2018-06-17T07:33:25Z</time>
      </trkpt>
      <trkpt lat="43.1821910" lon="-5.8740690">
        <ele>907.8</ele>
        <time>2018-06-17T07:33:28Z</time>
      </trkpt>
      <trkpt lat="43.1821890" lon="-5.8741450">
        <ele>908.8</ele>
        <time>2018-06-17T07:33:31Z</time>
      </trkpt>
      <trkpt lat="43.1821740" lon="-5.8742460">
        <ele>910.0</ele>
        <time>2018-06-17T07:33:35Z</time>
      </trkpt>
      <trkpt lat="43.1821520" lon="-5.8743140">
        <ele>911.2</ele>
        <time>2018-06-17T07:33:38Z</time>
      </trkpt>
      <trkpt lat="43.1821020" lon="-5.8744530">
        <ele>912.2</ele>
        <time>2018-06-17T07:33:43Z</time>
      </trkpt>
      <trkpt lat="43.1820820" lon="-5.8744750">
        <ele>912.4</ele>
        <time>2018-06-17T07:33:44Z</time>
      </trkpt>
      <trkpt lat="43.1818540" lon="-5.8744980">
        <ele>912.6</ele>
        <time>2018-06-17T07:33:53Z</time>
      </trkpt>
      <trkpt lat="43.1817640" lon="-5.8744610">
        <ele>913.2</ele>
        <time>2018-06-17T07:33:57Z</time>
      </trkpt>
      <trkpt lat="43.1816730" lon="-5.8744260">
        <ele>914.2</ele>
        <time>2018-06-17T07:34:02Z</time>
      </trkpt>
      <trkpt lat="43.1816070" lon="-5.8744080">
        <ele>915.0</ele>
        <time>2018-06-17T07:34:06Z</time>
      </trkpt>
      <trkpt lat="43.1815900" lon="-5.8744040">
        <ele>915.2</ele>
        <time>2018-06-17T07:34:07Z</time>
      </trkpt>
      <trkpt lat="43.1815090" lon="-5.8743720">
        <ele>916.4</ele>
        <time>2018-06-17T07:34:12Z</time>
      </trkpt>
      <trkpt lat="43.1814440" lon="-5.8743660">
        <ele>917.6</ele>
        <time>2018-06-17T07:34:16Z</time>
      </trkpt>
      <trkpt lat="43.1813880" lon="-5.8743170">
        <ele>918.6</ele>
        <time>2018-06-17T07:34:20Z</time>
      </trkpt>
      <trkpt lat="43.1813180" lon="-5.8743170">
        <ele>919.8</ele>
        <time>2018-06-17T07:34:24Z</time>
      </trkpt>
      <trkpt lat="43.1812440" lon="-5.8743280">
        <ele>920.8</ele>
        <time>2018-06-17T07:34:28Z</time>
      </trkpt>
      <trkpt lat="43.1811780" lon="-5.8743490">
        <ele>922.0</ele>
        <time>2018-06-17T07:34:32Z</time>
      </trkpt>
      <trkpt lat="43.1811040" lon="-5.8744110">
        <ele>923.2</ele>
        <time>2018-06-17T07:34:37Z</time>
      </trkpt>
      <trkpt lat="43.1810610" lon="-5.8744510">
        <ele>924.4</ele>
        <time>2018-06-17T07:34:40Z</time>
      </trkpt>
      <trkpt lat="43.1809920" lon="-5.8745130">
        <ele>925.4</ele>
        <time>2018-06-17T07:34:44Z</time>
      </trkpt>
      <trkpt lat="43.1809320" lon="-5.8745880">
        <ele>926.6</ele>
        <time>2018-06-17T07:34:48Z</time>
      </trkpt>
      <trkpt lat="43.1808880" lon="-5.8746360">
        <ele>927.6</ele>
        <time>2018-06-17T07:34:51Z</time>
      </trkpt>
      <trkpt lat="43.1808130" lon="-5.8747030">
        <ele>929.0</ele>
        <time>2018-06-17T07:34:56Z</time>
      </trkpt>
      <trkpt lat="43.1807690" lon="-5.8747420">
        <ele>930.0</ele>
        <time>2018-06-17T07:34:59Z</time>
      </trkpt>
      <trkpt lat="43.1806860" lon="-5.8747940">
        <ele>931.0</ele>
        <time>2018-06-17T07:35:04Z</time>
      </trkpt>
      <trkpt lat="43.1806150" lon="-5.8748310">
        <ele>932.4</ele>
        <time>2018-06-17T07:35:08Z</time>
      </trkpt>
      <trkpt lat="43.1805560" lon="-5.8748440">
        <ele>933.4</ele>
        <time>2018-06-17T07:35:11Z</time>
      </trkpt>
      <trkpt lat="43.1804720" lon="-5.8748440">
        <ele>934.4</ele>
        <time>2018-06-17T07:35:15Z</time>
      </trkpt>
      <trkpt lat="43.1803520" lon="-5.8748040">
        <ele>935.6</ele>
        <time>2018-06-17T07:35:20Z</time>
      </trkpt>
      <trkpt lat="43.1802080" lon="-5.8747630">
        <ele>936.8</ele>
        <time>2018-06-17T07:35:26Z</time>
      </trkpt>
      <trkpt lat="43.1800600" lon="-5.8747500">
        <ele>937.8</ele>
        <time>2018-06-17T07:35:32Z</time>
      </trkpt>
      <trkpt lat="43.1799060" lon="-5.8747740">
        <ele>938.8</ele>
        <time>2018-06-17T07:35:38Z</time>
      </trkpt>
      <trkpt lat="43.1796980" lon="-5.8747970">
        <ele>939.8</ele>
        <time>2018-06-17T07:35:46Z</time>
      </trkpt>
      <trkpt lat="43.1795510" lon="-5.8748150">
        <ele>940.8</ele>
        <time>2018-06-17T07:35:52Z</time>
      </trkpt>
      <trkpt lat="43.1794330" lon="-5.8748820">
        <ele>941.8</ele>
        <time>2018-06-17T07:35:57Z</time>
      </trkpt>
      <trkpt lat="43.1792800" lon="-5.8750030">
        <ele>943.0</ele>
        <time>2018-06-17T07:36:04Z</time>
      </trkpt>
      <trkpt lat="43.1791730" lon="-5.8750910">
        <ele>944.0</ele>
        <time>2018-06-17T07:36:09Z</time>
      </trkpt>
      <trkpt lat="43.1790890" lon="-5.8751460">
        <ele>945.2</ele>
        <time>2018-06-17T07:36:13Z</time>
      </trkpt>
      <trkpt lat="43.1790110" lon="-5.8751940">
        <ele>946.0</ele>
        <time>2018-06-17T07:36:17Z</time>
      </trkpt>
      <trkpt lat="43.1789320" lon="-5.8752470">
        <ele>947.0</ele>
        <time>2018-06-17T07:36:21Z</time>
      </trkpt>
      <trkpt lat="43.1788350" lon="-5.8753250">
        <ele>948.4</ele>
        <time>2018-06-17T07:36:26Z</time>
      </trkpt>
      <trkpt lat="43.1787460" lon="-5.8754080">
        <ele>949.4</ele>
        <time>2018-06-17T07:36:31Z</time>
      </trkpt>
      <trkpt lat="43.1786570" lon="-5.8754900">
        <ele>950.6</ele>
        <time>2018-06-17T07:36:36Z</time>
      </trkpt>
      <trkpt lat="43.1785600" lon="-5.8756180">
        <ele>951.8</ele>
        <time>2018-06-17T07:36:42Z</time>
      </trkpt>
      <trkpt lat="43.1785090" lon="-5.8757180">
        <ele>952.8</ele>
        <time>2018-06-17T07:36:46Z</time>
      </trkpt>
      <trkpt lat="43.1784250" lon="-5.8758670">
        <ele>953.8</ele>
        <time>2018-06-17T07:36:52Z</time>
      </trkpt>
      <trkpt lat="43.1783190" lon="-5.8759830">
        <ele>955.2</ele>
        <time>2018-06-17T07:36:58Z</time>
      </trkpt>
      <trkpt lat="43.1782340" lon="-5.8760060">
        <ele>956.2</ele>
        <time>2018-06-17T07:37:02Z</time>
      </trkpt>
      <trkpt lat="43.1781240" lon="-5.8760050">
        <ele>957.2</ele>
        <time>2018-06-17T07:37:07Z</time>
      </trkpt>
      <trkpt lat="43.1780150" lon="-5.8760060">
        <ele>958.2</ele>
        <time>2018-06-17T07:37:12Z</time>
      </trkpt>
      <trkpt lat="43.1778990" lon="-5.8760060">
        <ele>959.4</ele>
        <time>2018-06-17T07:37:17Z</time>
      </trkpt>
      <trkpt lat="43.1777680" lon="-5.8760270">
        <ele>960.4</ele>
        <time>2018-06-17T07:37:23Z</time>
      </trkpt>
      <trkpt lat="43.1776380" lon="-5.8760410">
        <ele>961.6</ele>
        <time>2018-06-17T07:37:29Z</time>
      </trkpt>
      <trkpt lat="43.1775290" lon="-5.8760560">
        <ele>962.4</ele>
        <time>2018-06-17T07:37:34Z</time>
      </trkpt>
      <trkpt lat="43.1774190" lon="-5.8760700">
        <ele>963.6</ele>
        <time>2018-06-17T07:37:39Z</time>
      </trkpt>
      <trkpt lat="43.1772820" lon="-5.8760760">
        <ele>965.0</ele>
        <time>2018-06-17T07:37:45Z</time>
      </trkpt>
      <trkpt lat="43.1771570" lon="-5.8760770">
        <ele>966.0</ele>
        <time>2018-06-17T07:37:50Z</time>
      </trkpt>
      <trkpt lat="43.1769770" lon="-5.8761210">
        <ele>967.2</ele>
        <time>2018-06-17T07:37:57Z</time>
      </trkpt>
      <trkpt lat="43.1767880" lon="-5.8762070">
        <ele>968.2</ele>
        <time>2018-06-17T07:38:04Z</time>
      </trkpt>
      <trkpt lat="43.1766750" lon="-5.8762620">
        <ele>968.6</ele>
        <time>2018-06-17T07:38:08Z</time>
      </trkpt>
      <trkpt lat="43.1765910" lon="-5.8762960">
        <ele>968.8</ele>
        <time>2018-06-17T07:38:11Z</time>
      </trkpt>
      <trkpt lat="43.1765060" lon="-5.8763260">
        <ele>969.0</ele>
        <time>2018-06-17T07:38:14Z</time>
      </trkpt>
      <trkpt lat="43.1763690" lon="-5.8763050">
        <ele>970.2</ele>
        <time>2018-06-17T07:38:20Z</time>
      </trkpt>
      <trkpt lat="43.1762900" lon="-5.8762740">
        <ele>971.4</ele>
        <time>2018-06-17T07:38:24Z</time>
      </trkpt>
      <trkpt lat="43.1762130" lon="-5.8762430">
        <ele>972.4</ele>
        <time>2018-06-17T07:38:28Z</time>
      </trkpt>
      <trkpt lat="43.1761330" lon="-5.8761880">
        <ele>973.6</ele>
        <time>2018-06-17T07:38:32Z</time>
      </trkpt>
      <trkpt lat="43.1760580" lon="-5.8761130">
        <ele>974.8</ele>
        <time>2018-06-17T07:38:36Z</time>
      </trkpt>
      <trkpt lat="43.1759840" lon="-5.8760730">
        <ele>976.0</ele>
        <time>2018-06-17T07:38:40Z</time>
      </trkpt>
      <trkpt lat="43.1759100" lon="-5.8760360">
        <ele>977.0</ele>
        <time>2018-06-17T07:38:44Z</time>
      </trkpt>
      <trkpt lat="43.1758220" lon="-5.8759940">
        <ele>978.2</ele>
        <time>2018-06-17T07:38:48Z</time>
      </trkpt>
      <trkpt lat="43.1757260" lon="-5.8759710">
        <ele>979.4</ele>
        <time>2018-06-17T07:38:52Z</time>
      </trkpt>
      <trkpt lat="43.1756070" lon="-5.8759620">
        <ele>980.4</ele>
        <time>2018-06-17T07:38:57Z</time>
      </trkpt>
      <trkpt lat="43.1754850" lon="-5.8759710">
        <ele>981.4</ele>
        <time>2018-06-17T07:39:02Z</time>
      </trkpt>
      <trkpt lat="43.1753090" lon="-5.8760040">
        <ele>982.6</ele>
        <time>2018-06-17T07:39:09Z</time>
      </trkpt>
      <trkpt lat="43.1751920" lon="-5.8760730">
        <ele>983.6</ele>
        <time>2018-06-17T07:39:14Z</time>
      </trkpt>
      <trkpt lat="43.1750890" lon="-5.8761810">
        <ele>984.8</ele>
        <time>2018-06-17T07:39:19Z</time>
      </trkpt>
      <trkpt lat="43.1749400" lon="-5.8764110">
        <ele>985.6</ele>
        <time>2018-06-17T07:39:27Z</time>
      </trkpt>
      <trkpt lat="43.1748740" lon="-5.8765430">
        <ele>986.0</ele>
        <time>2018-06-17T07:39:31Z</time>
      </trkpt>
      <trkpt lat="43.1747760" lon="-5.8767610">
        <ele>986.6</ele>
        <time>2018-06-17T07:39:37Z</time>
      </trkpt>
      <trkpt lat="43.1747410" lon="-5.8768370">
        <ele>986.8</ele>
        <time>2018-06-17T07:39:39Z</time>
      </trkpt>
      <trkpt lat="43.1746520" lon="-5.8769880">
        <ele>987.2</ele>
        <time>2018-06-17T07:39:43Z</time>
      </trkpt>
      <trkpt lat="43.1744950" lon="-5.8771760">
        <ele>987.8</ele>
        <time>2018-06-17T07:39:49Z</time>
      </trkpt>
      <trkpt lat="43.1743490" lon="-5.8773500">
        <ele>989.0</ele>
        <time>2018-06-17T07:39:55Z</time>
      </trkpt>
      <trkpt lat="43.1741930" lon="-5.8775140">
        <ele>990.0</ele>
        <time>2018-06-17T07:40:01Z</time>
      </trkpt>
      <trkpt lat="43.1740620" lon="-5.8776340">
        <ele>990.8</ele>
        <time>2018-06-17T07:40:06Z</time>
      </trkpt>
      <trkpt lat="43.1739210" lon="-5.8778000">
        <ele>992.0</ele>
        <time>2018-06-17T07:40:12Z</time>
      </trkpt>
      <trkpt lat="43.1738320" lon="-5.8779660">
        <ele>993.2</ele>
        <time>2018-06-17T07:40:17Z</time>
      </trkpt>
      <trkpt lat="43.1737760" lon="-5.8780840">
        <ele>994.4</ele>
        <time>2018-06-17T07:40:21Z</time>
      </trkpt>
      <trkpt lat="43.1737150" lon="-5.8782200">
        <ele>995.6</ele>
        <time>2018-06-17T07:40:26Z</time>
      </trkpt>
      <trkpt lat="43.1736680" lon="-5.8783200">
        <ele>996.6</ele>
        <time>2018-06-17T07:40:30Z</time>
      </trkpt>
      <trkpt lat="43.1736400" lon="-5.8784000">
        <ele>997.8</ele>
        <time>2018-06-17T07:40:33Z</time>
      </trkpt>
      <trkpt lat="43.1736110" lon="-5.8785080">
        <ele>999.0</ele>
        <time>2018-06-17T07:40:37Z</time>
      </trkpt>
      <trkpt lat="43.1735950" lon="-5.8786270">
        <ele>1000.0</ele>
        <time>2018-06-17T07:40:41Z</time>
      </trkpt>
      <trkpt lat="43.1735900" lon="-5.8787460">
        <ele>1001.2</ele>
        <time>2018-06-17T07:40:45Z</time>
      </trkpt>
      <trkpt lat="43.1735950" lon="-5.8788360">
        <ele>1002.2</ele>
        <time>2018-06-17T07:40:48Z</time>
      </trkpt>
      <trkpt lat="43.1735910" lon="-5.8789890">
        <ele>1003.8</ele>
        <time>2018-06-17T07:40:53Z</time>
      </trkpt>
      <trkpt lat="43.1735750" lon="-5.8791090">
        <ele>1004.8</ele>
        <time>2018-06-17T07:40:57Z</time>
      </trkpt>
      <trkpt lat="43.1735410" lon="-5.8792240">
        <ele>1005.6</ele>
        <time>2018-06-17T07:41:01Z</time>
      </trkpt>
      <trkpt lat="43.1734680" lon="-5.8794000">
        <ele>1007.0</ele>
        <time>2018-06-17T07:41:07Z</time>
      </trkpt>
      <trkpt lat="43.1734110" lon="-5.8795060">
        <ele>1008.2</ele>
        <time>2018-06-17T07:41:11Z</time>
      </trkpt>
      <trkpt lat="43.1733280" lon="-5.8796320">
        <ele>1009.2</ele>
        <time>2018-06-17T07:41:16Z</time>
      </trkpt>
      <trkpt lat="43.1732410" lon="-5.8797630">
        <ele>1010.6</ele>
        <time>2018-06-17T07:41:21Z</time>
      </trkpt>
      <trkpt lat="43.1731730" lon="-5.8798660">
        <ele>1011.6</ele>
        <time>2018-06-17T07:41:25Z</time>
      </trkpt>
      <trkpt lat="43.1730920" lon="-5.8799950">
        <ele>1012.6</ele>
        <time>2018-06-17T07:41:30Z</time>
      </trkpt>
      <trkpt lat="43.1729620" lon="-5.8801790">
        <ele>1013.8</ele>
        <time>2018-06-17T07:41:37Z</time>
      </trkpt>
      <trkpt lat="43.1728330" lon="-5.8804100">
        <ele>1015.0</ele>
        <time>2018-06-17T07:41:45Z</time>
      </trkpt>
      <trkpt lat="43.1727610" lon="-5.8805320">
        <ele>1016.0</ele>
        <time>2018-06-17T07:41:49Z</time>
      </trkpt>
      <trkpt lat="43.1725980" lon="-5.8806820">
        <ele>1017.0</ele>
        <time>2018-06-17T07:41:55Z</time>
      </trkpt>
      <trkpt lat="43.1724050" lon="-5.8809150">
        <ele>1018.0</ele>
        <time>2018-06-17T07:42:03Z</time>
      </trkpt>
      <trkpt lat="43.1721270" lon="-5.8812240">
        <ele>1018.8</ele>
        <time>2018-06-17T07:42:12Z</time>
      </trkpt>
      <trkpt lat="43.1719990" lon="-5.8814350">
        <ele>1019.2</ele>
        <time>2018-06-17T07:42:17Z</time>
      </trkpt>
      <trkpt lat="43.1719310" lon="-5.8815860">
        <ele>1020.2</ele>
        <time>2018-06-17T07:42:21Z</time>
      </trkpt>
      <trkpt lat="43.1718470" lon="-5.8817850">
        <ele>1021.4</ele>
        <time>2018-06-17T07:42:26Z</time>
      </trkpt>
      <trkpt lat="43.1717990" lon="-5.8820000">
        <ele>1022.4</ele>
        <time>2018-06-17T07:42:31Z</time>
      </trkpt>
      <trkpt lat="43.1717130" lon="-5.8822450">
        <ele>1023.4</ele>
        <time>2018-06-17T07:42:37Z</time>
      </trkpt>
      <trkpt lat="43.1716140" lon="-5.8824330">
        <ele>1024.6</ele>
        <time>2018-06-17T07:42:42Z</time>
      </trkpt>
      <trkpt lat="43.1714860" lon="-5.8827510">
        <ele>1025.8</ele>
        <time>2018-06-17T07:42:50Z</time>
      </trkpt>
      <trkpt lat="43.1713890" lon="-5.8828960">
        <ele>1026.8</ele>
        <time>2018-06-17T07:42:54Z</time>
      </trkpt>
      <trkpt lat="43.1712220" lon="-5.8830340">
        <ele>1027.8</ele>
        <time>2018-06-17T07:42:59Z</time>
      </trkpt>
      <trkpt lat="43.1710050" lon="-5.8832540">
        <ele>1029.0</ele>
        <time>2018-06-17T07:43:06Z</time>
      </trkpt>
      <trkpt lat="43.1708880" lon="-5.8833640">
        <ele>1029.0</ele>
        <time>2018-06-17T07:43:09Z</time>
      </trkpt>
      <trkpt lat="43.1707060" lon="-5.8835180">
        <ele>1028.6</ele>
        <time>2018-06-17T07:43:14Z</time>
      </trkpt>
      <trkpt lat="43.1705630" lon="-5.8836550">
        <ele>1028.0</ele>
        <time>2018-06-17T07:43:18Z</time>
      </trkpt>
      <trkpt lat="43.1704560" lon="-5.8837410">
        <ele>1027.8</ele>
        <time>2018-06-17T07:43:20Z</time>
      </trkpt>
      <trkpt lat="43.1703430" lon="-5.8838410">
        <ele>1027.2</ele>
        <time>2018-06-17T07:43:22Z</time>
      </trkpt>
      <trkpt lat="43.1702810" lon="-5.8838910">
        <ele>1026.8</ele>
        <time>2018-06-17T07:43:23Z</time>
      </trkpt>
      <trkpt lat="43.1701350" lon="-5.8839540">
        <ele>1025.4</ele>
        <time>2018-06-17T07:43:25Z</time>
      </trkpt>
      <trkpt lat="43.1699930" lon="-5.8839380">
        <ele>1025.2</ele>
        <time>2018-06-17T07:43:27Z</time>
      </trkpt>
      <trkpt lat="43.1698910" lon="-5.8838780">
        <ele>1025.6</ele>
        <time>2018-06-17T07:43:29Z</time>
      </trkpt>
      <trkpt lat="43.1698550" lon="-5.8838480">
        <ele>1026.4</ele>
        <time>2018-06-17T07:43:30Z</time>
      </trkpt>
      <trkpt lat="43.1698210" lon="-5.8838220">
        <ele>1026.8</ele>
        <time>2018-06-17T07:43:31Z</time>
      </trkpt>
      <trkpt lat="43.1697510" lon="-5.8837830">
        <ele>1028.0</ele>
        <time>2018-06-17T07:43:33Z</time>
      </trkpt>
      <trkpt lat="43.1697090" lon="-5.8837760">
        <ele>1028.2</ele>
        <time>2018-06-17T07:43:34Z</time>
      </trkpt>
      <trkpt lat="43.1695820" lon="-5.8838330">
        <ele>1029.0</ele>
        <time>2018-06-17T07:43:37Z</time>
      </trkpt>
      <trkpt lat="43.1695430" lon="-5.8838670">
        <ele>1029.2</ele>
        <time>2018-06-17T07:43:38Z</time>
      </trkpt>
      <trkpt lat="43.1694390" lon="-5.8839710">
        <ele>1029.8</ele>
        <time>2018-06-17T07:43:41Z</time>
      </trkpt>
      <trkpt lat="43.1694010" lon="-5.8840040">
        <ele>1030.0</ele>
        <time>2018-06-17T07:43:42Z</time>
      </trkpt>
      <trkpt lat="43.1692710" lon="-5.8842070">
        <ele>1030.6</ele>
        <time>2018-06-17T07:43:47Z</time>
      </trkpt>
      <trkpt lat="43.1691170" lon="-5.8843890">
        <ele>1031.2</ele>
        <time>2018-06-17T07:43:52Z</time>
      </trkpt>
      <trkpt lat="43.1689710" lon="-5.8845680">
        <ele>1031.4</ele>
        <time>2018-06-17T07:43:56Z</time>
      </trkpt>
      <trkpt lat="43.1688590" lon="-5.8847000">
        <ele>1031.8</ele>
        <time>2018-06-17T07:43:59Z</time>
      </trkpt>
      <trkpt lat="43.1687940" lon="-5.8847620">
        <ele>1032.2</ele>
        <time>2018-06-17T07:44:01Z</time>
      </trkpt>
      <trkpt lat="43.1687280" lon="-5.8848200">
        <ele>1032.4</ele>
        <time>2018-06-17T07:44:03Z</time>
      </trkpt>
      <trkpt lat="43.1685770" lon="-5.8849790">
        <ele>1032.8</ele>
        <time>2018-06-17T07:44:07Z</time>
      </trkpt>
      <trkpt lat="43.1684400" lon="-5.8851580">
        <ele>1032.0</ele>
        <time>2018-06-17T07:44:10Z</time>
      </trkpt>
      <trkpt lat="43.1683980" lon="-5.8852260">
        <ele>1031.8</ele>
        <time>2018-06-17T07:44:11Z</time>
      </trkpt>
      <trkpt lat="43.1683070" lon="-5.8853690">
        <ele>1031.0</ele>
        <time>2018-06-17T07:44:13Z</time>
      </trkpt>
      <trkpt lat="43.1682590" lon="-5.8856510">
        <ele>1031.2</ele>
        <time>2018-06-17T07:44:17Z</time>
      </trkpt>
      <trkpt lat="43.1682400" lon="-5.8857100">
        <ele>1031.8</ele>
        <time>2018-06-17T07:44:18Z</time>
      </trkpt>
      <trkpt lat="43.1682300" lon="-5.8857750">
        <ele>1032.4</ele>
        <time>2018-06-17T07:44:19Z</time>
      </trkpt>
      <trkpt lat="43.1682180" lon="-5.8858310">
        <ele>1033.0</ele>
        <time>2018-06-17T07:44:20Z</time>
      </trkpt>
      <trkpt lat="43.1682140" lon="-5.8858820">
        <ele>1033.6</ele>
        <time>2018-06-17T07:44:21Z</time>
      </trkpt>
      <trkpt lat="43.1681210" lon="-5.8864120">
        <ele>1033.4</ele>
        <time>2018-06-17T07:44:28Z</time>
      </trkpt>
      <trkpt lat="43.1680390" lon="-5.8866270">
        <ele>1032.0</ele>
        <time>2018-06-17T07:44:30Z</time>
      </trkpt>
      <trkpt lat="43.1679530" lon="-5.8868390">
        <ele>1030.8</ele>
        <time>2018-06-17T07:44:32Z</time>
      </trkpt>
      <trkpt lat="43.1678380" lon="-5.8871540">
        <ele>1029.4</ele>
        <time>2018-06-17T07:44:35Z</time>
      </trkpt>
      <trkpt lat="43.1677550" lon="-5.8873740">
        <ele>1028.4</ele>
        <time>2018-06-17T07:44:37Z</time>
      </trkpt>
      <trkpt lat="43.1676640" lon="-5.8876000">
        <ele>1026.8</ele>
        <time>2018-06-17T07:44:39Z</time>
      </trkpt>
      <trkpt lat="43.1675660" lon="-5.8878300">
        <ele>1025.8</ele>
        <time>2018-06-17T07:44:41Z</time>
      </trkpt>
      <trkpt lat="43.1674580" lon="-5.8880690">
        <ele>1023.8</ele>
        <time>2018-06-17T07:44:43Z</time>
      </trkpt>
      <trkpt lat="43.1674020" lon="-5.8881890">
        <ele>1022.4</ele>
        <time>2018-06-17T07:44:44Z</time>
      </trkpt>
      <trkpt lat="43.1672790" lon="-5.8884220">
        <ele>1021.0</ele>
        <time>2018-06-17T07:44:46Z</time>
      </trkpt>
      <trkpt lat="43.1671370" lon="-5.8886380">
        <ele>1019.8</ele>
        <time>2018-06-17T07:44:48Z</time>
      </trkpt>
      <trkpt lat="43.1669760" lon="-5.8888400">
        <ele>1018.4</ele>
        <time>2018-06-17T07:44:50Z</time>
      </trkpt>
      <trkpt lat="43.1668060" lon="-5.8890280">
        <ele>1017.4</ele>
        <time>2018-06-17T07:44:52Z</time>
      </trkpt>
      <trkpt lat="43.1667230" lon="-5.8891220">
        <ele>1016.4</ele>
        <time>2018-06-17T07:44:53Z</time>
      </trkpt>
      <trkpt lat="43.1665620" lon="-5.8893150">
        <ele>1014.8</ele>
        <time>2018-06-17T07:44:55Z</time>
      </trkpt>
      <trkpt lat="43.1664090" lon="-5.8895170">
        <ele>1013.6</ele>
        <time>2018-06-17T07:44:57Z</time>
      </trkpt>
      <trkpt lat="43.1662470" lon="-5.8897150">
        <ele>1012.4</ele>
        <time>2018-06-17T07:44:59Z</time>
      </trkpt>
      <trkpt lat="43.1661540" lon="-5.8898050">
        <ele>1011.0</ele>
        <time>2018-06-17T07:45:00Z</time>
      </trkpt>
      <trkpt lat="43.1660550" lon="-5.8898840">
        <ele>1009.0</ele>
        <time>2018-06-17T07:45:01Z</time>
      </trkpt>
      <trkpt lat="43.1659520" lon="-5.8899550">
        <ele>1007.4</ele>
        <time>2018-06-17T07:45:02Z</time>
      </trkpt>
      <trkpt lat="43.1658440" lon="-5.8900210">
        <ele>1006.2</ele>
        <time>2018-06-17T07:45:03Z</time>
      </trkpt>
      <trkpt lat="43.1657330" lon="-5.8900760">
        <ele>1004.8</ele>
        <time>2018-06-17T07:45:04Z</time>
      </trkpt>
      <trkpt lat="43.1656280" lon="-5.8901170">
        <ele>1003.4</ele>
        <time>2018-06-17T07:45:05Z</time>
      </trkpt>
      <trkpt lat="43.1654360" lon="-5.8901720">
        <ele>1002.0</ele>
        <time>2018-06-17T07:45:07Z</time>
      </trkpt>
      <trkpt lat="43.1652570" lon="-5.8902420">
        <ele>1000.8</ele>
        <time>2018-06-17T07:45:09Z</time>
      </trkpt>
      <trkpt lat="43.1650920" lon="-5.8903800">
        <ele>998.8</ele>
        <time>2018-06-17T07:45:11Z</time>
      </trkpt>
      <trkpt lat="43.1649470" lon="-5.8905220">
        <ele>996.8</ele>
        <time>2018-06-17T07:45:13Z</time>
      </trkpt>
      <trkpt lat="43.1648700" lon="-5.8905580">
        <ele>995.8</ele>
        <time>2018-06-17T07:45:14Z</time>
      </trkpt>
      <trkpt lat="43.1647180" lon="-5.8905400">
        <ele>994.4</ele>
        <time>2018-06-17T07:45:16Z</time>
      </trkpt>
      <trkpt lat="43.1646460" lon="-5.8905190">
        <ele>993.4</ele>
        <time>2018-06-17T07:45:17Z</time>
      </trkpt>
      <trkpt lat="43.1645790" lon="-5.8905080">
        <ele>992.6</ele>
        <time>2018-06-17T07:45:18Z</time>
      </trkpt>
      <trkpt lat="43.1644700" lon="-5.8905570">
        <ele>991.4</ele>
        <time>2018-06-17T07:45:20Z</time>
      </trkpt>
      <trkpt lat="43.1644010" lon="-5.8906710">
        <ele>989.4</ele>
        <time>2018-06-17T07:45:22Z</time>
      </trkpt>
      <trkpt lat="43.1643730" lon="-5.8907300">
        <ele>988.6</ele>
        <time>2018-06-17T07:45:23Z</time>
      </trkpt>
      <trkpt lat="43.1643440" lon="-5.8907810">
        <ele>987.8</ele>
        <time>2018-06-17T07:45:24Z</time>
      </trkpt>
      <trkpt lat="43.1642740" lon="-5.8908150">
        <ele>986.2</ele>
        <time>2018-06-17T07:45:26Z</time>
      </trkpt>
      <trkpt lat="43.1642190" lon="-5.8906580">
        <ele>984.2</ele>
        <time>2018-06-17T07:45:29Z</time>
      </trkpt>
      <trkpt lat="43.1642270" lon="-5.8905660">
        <ele>983.0</ele>
        <time>2018-06-17T07:45:30Z</time>
      </trkpt>
      <trkpt lat="43.1642350" lon="-5.8904680">
        <ele>981.8</ele>
        <time>2018-06-17T07:45:31Z</time>
      </trkpt>
      <trkpt lat="43.1642490" lon="-5.8903730">
        <ele>980.8</ele>
        <time>2018-06-17T07:45:32Z</time>
      </trkpt>
      <trkpt lat="43.1642680" lon="-5.8902850">
        <ele>979.6</ele>
        <time>2018-06-17T07:45:33Z</time>
      </trkpt>
      <trkpt lat="43.1643160" lon="-5.8901440">
        <ele>977.8</ele>
        <time>2018-06-17T07:45:35Z</time>
      </trkpt>
      <trkpt lat="43.1643740" lon="-5.8900250">
        <ele>976.4</ele>
        <time>2018-06-17T07:45:37Z</time>
      </trkpt>
      <trkpt lat="43.1644370" lon="-5.8899300">
        <ele>974.8</ele>
        <time>2018-06-17T07:45:39Z</time>
      </trkpt>
      <trkpt lat="43.1644520" lon="-5.8898360">
        <ele>973.8</ele>
        <time>2018-06-17T07:45:41Z</time>
      </trkpt>
      <trkpt lat="43.1643750" lon="-5.8897930">
        <ele>972.8</ele>
        <time>2018-06-17T07:45:43Z</time>
      </trkpt>
      <trkpt lat="43.1642490" lon="-5.8898380">
        <ele>971.6</ele>
        <time>2018-06-17T07:45:45Z</time>
      </trkpt>
      <trkpt lat="43.1641750" lon="-5.8898750">
        <ele>970.6</ele>
        <time>2018-06-17T07:45:46Z</time>
      </trkpt>
      <trkpt lat="43.1641010" lon="-5.8899280">
        <ele>969.4</ele>
        <time>2018-06-17T07:45:47Z</time>
      </trkpt>
      <trkpt lat="43.1640300" lon="-5.8899900">
        <ele>967.8</ele>
        <time>2018-06-17T07:45:48Z</time>
      </trkpt>
      <trkpt lat="43.1639640" lon="-5.8900520">
        <ele>966.6</ele>
        <time>2018-06-17T07:45:49Z</time>
      </trkpt>
      <trkpt lat="43.1639000" lon="-5.8901110">
        <ele>965.4</ele>
        <time>2018-06-17T07:45:50Z</time>
      </trkpt>
      <trkpt lat="43.1638400" lon="-5.8901760">
        <ele>964.4</ele>
        <time>2018-06-17T07:45:51Z</time>
      </trkpt>
      <trkpt lat="43.1637880" lon="-5.8902570">
        <ele>963.0</ele>
        <time>2018-06-17T07:45:52Z</time>
      </trkpt>
      <trkpt lat="43.1637100" lon="-5.8904740">
        <ele>961.4</ele>
        <time>2018-06-17T07:45:54Z</time>
      </trkpt>
      <trkpt lat="43.1636730" lon="-5.8905820">
        <ele>959.8</ele>
        <time>2018-06-17T07:45:55Z</time>
      </trkpt>
      <trkpt lat="43.1635810" lon="-5.8907470">
        <ele>958.2</ele>
        <time>2018-06-17T07:45:57Z</time>
      </trkpt>
      <trkpt lat="43.1634830" lon="-5.8909040">
        <ele>957.2</ele>
        <time>2018-06-17T07:45:59Z</time>
      </trkpt>
      <trkpt lat="43.1634390" lon="-5.8909930">
        <ele>956.2</ele>
        <time>2018-06-17T07:46:00Z</time>
      </trkpt>
      <trkpt lat="43.1633940" lon="-5.8910830">
        <ele>954.8</ele>
        <time>2018-06-17T07:46:01Z</time>
      </trkpt>
      <trkpt lat="43.1633480" lon="-5.8911710">
        <ele>953.8</ele>
        <time>2018-06-17T07:46:02Z</time>
      </trkpt>
      <trkpt lat="43.1632980" lon="-5.8912560">
        <ele>952.4</ele>
        <time>2018-06-17T07:46:03Z</time>
      </trkpt>
      <trkpt lat="43.1632430" lon="-5.8913380">
        <ele>951.0</ele>
        <time>2018-06-17T07:46:04Z</time>
      </trkpt>
      <trkpt lat="43.1631810" lon="-5.8914140">
        <ele>949.8</ele>
        <time>2018-06-17T07:46:05Z</time>
      </trkpt>
      <trkpt lat="43.1630460" lon="-5.8915340">
        <ele>947.6</ele>
        <time>2018-06-17T07:46:07Z</time>
      </trkpt>
      <trkpt lat="43.1629160" lon="-5.8916480">
        <ele>946.0</ele>
        <time>2018-06-17T07:46:09Z</time>
      </trkpt>
      <trkpt lat="43.1627850" lon="-5.8917680">
        <ele>944.4</ele>
        <time>2018-06-17T07:46:11Z</time>
      </trkpt>
      <trkpt lat="43.1627160" lon="-5.8918360">
        <ele>943.2</ele>
        <time>2018-06-17T07:46:12Z</time>
      </trkpt>
      <trkpt lat="43.1626560" lon="-5.8919130">
        <ele>942.4</ele>
        <time>2018-06-17T07:46:13Z</time>
      </trkpt>
      <trkpt lat="43.1626070" lon="-5.8919900">
        <ele>942.2</ele>
        <time>2018-06-17T07:46:14Z</time>
      </trkpt>
      <trkpt lat="43.1625070" lon="-5.8921840">
        <ele>943.4</ele>
        <time>2018-06-17T07:46:17Z</time>
      </trkpt>
      <trkpt lat="43.1624880" lon="-5.8922820">
        <ele>944.8</ele>
        <time>2018-06-17T07:46:19Z</time>
      </trkpt>
      <trkpt lat="43.1624820" lon="-5.8923590">
        <ele>946.0</ele>
        <time>2018-06-17T07:46:21Z</time>
      </trkpt>
      <trkpt lat="43.1624810" lon="-5.8924250">
        <ele>947.4</ele>
        <time>2018-06-17T07:46:23Z</time>
      </trkpt>
      <trkpt lat="43.1624600" lon="-5.8925470">
        <ele>948.4</ele>
        <time>2018-06-17T07:46:27Z</time>
      </trkpt>
      <trkpt lat="43.1624540" lon="-5.8926340">
        <ele>949.4</ele>
        <time>2018-06-17T07:46:30Z</time>
      </trkpt>
      <trkpt lat="43.1624550" lon="-5.8926610">
        <ele>949.6</ele>
        <time>2018-06-17T07:46:31Z</time>
      </trkpt>
      <trkpt lat="43.1624580" lon="-5.8927230">
        <ele>950.0</ele>
        <time>2018-06-17T07:46:33Z</time>
      </trkpt>
      <trkpt lat="43.1624520" lon="-5.8927910">
        <ele>950.4</ele>
        <time>2018-06-17T07:46:35Z</time>
      </trkpt>
      <trkpt lat="43.1624500" lon="-5.8928270">
        <ele>950.8</ele>
        <time>2018-06-17T07:46:36Z</time>
      </trkpt>
      <trkpt lat="43.1624340" lon="-5.8929370">
        <ele>951.6</ele>
        <time>2018-06-17T07:46:39Z</time>
      </trkpt>
      <trkpt lat="43.1624330" lon="-5.8929710">
        <ele>952.0</ele>
        <time>2018-06-17T07:46:40Z</time>
      </trkpt>
      <trkpt lat="43.1624250" lon="-5.8931200">
        <ele>953.4</ele>
        <time>2018-06-17T07:46:44Z</time>
      </trkpt>
      <trkpt lat="43.1624190" lon="-5.8932640">
        <ele>954.6</ele>
        <time>2018-06-17T07:46:48Z</time>
      </trkpt>
      <trkpt lat="43.1624090" lon="-5.8934120">
        <ele>955.8</ele>
        <time>2018-06-17T07:46:52Z</time>
      </trkpt>
      <trkpt lat="43.1624060" lon="-5.8935230">
        <ele>956.8</ele>
        <time>2018-06-17T07:46:55Z</time>
      </trkpt>
      <trkpt lat="43.1624040" lon="-5.8936620">
        <ele>957.8</ele>
        <time>2018-06-17T07:46:59Z</time>
      </trkpt>
      <trkpt lat="43.1624010" lon="-5.8937960">
        <ele>959.0</ele>
        <time>2018-06-17T07:47:03Z</time>
      </trkpt>
      <trkpt lat="43.1623860" lon="-5.8939330">
        <ele>960.2</ele>
        <time>2018-06-17T07:47:07Z</time>
      </trkpt>
      <trkpt lat="43.1623780" lon="-5.8940690">
        <ele>961.4</ele>
        <time>2018-06-17T07:47:11Z</time>
      </trkpt>
      <trkpt lat="43.1623740" lon="-5.8942050">
        <ele>962.6</ele>
        <time>2018-06-17T07:47:15Z</time>
      </trkpt>
      <trkpt lat="43.1623700" lon="-5.8943380">
        <ele>963.8</ele>
        <time>2018-06-17T07:47:19Z</time>
      </trkpt>
      <trkpt lat="43.1623550" lon="-5.8944710">
        <ele>964.8</ele>
        <time>2018-06-17T07:47:23Z</time>
      </trkpt>
      <trkpt lat="43.1623330" lon="-5.8945950">
        <ele>965.8</ele>
        <time>2018-06-17T07:47:27Z</time>
      </trkpt>
      <trkpt lat="43.1623030" lon="-5.8946770">
        <ele>966.8</ele>
        <time>2018-06-17T07:47:30Z</time>
      </trkpt>
      <trkpt lat="43.1622450" lon="-5.8947960">
        <ele>968.0</ele>
        <time>2018-06-17T07:47:35Z</time>
      </trkpt>
      <trkpt lat="43.1621680" lon="-5.8948780">
        <ele>969.2</ele>
        <time>2018-06-17T07:47:39Z</time>
      </trkpt>
      <trkpt lat="43.1620870" lon="-5.8949530">
        <ele>970.4</ele>
        <time>2018-06-17T07:47:43Z</time>
      </trkpt>
      <trkpt lat="43.1620020" lon="-5.8950030">
        <ele>971.4</ele>
        <time>2018-06-17T07:47:47Z</time>
      </trkpt>
      <trkpt lat="43.1619200" lon="-5.8950290">
        <ele>972.6</ele>
        <time>2018-06-17T07:47:51Z</time>
      </trkpt>
      <trkpt lat="43.1618400" lon="-5.8950340">
        <ele>973.6</ele>
        <time>2018-06-17T07:47:55Z</time>
      </trkpt>
      <trkpt lat="43.1617420" lon="-5.8950210">
        <ele>975.0</ele>
        <time>2018-06-17T07:48:00Z</time>
      </trkpt>
      <trkpt lat="43.1616690" lon="-5.8950000">
        <ele>976.0</ele>
        <time>2018-06-17T07:48:04Z</time>
      </trkpt>
      <trkpt lat="43.1615830" lon="-5.8949610">
        <ele>977.2</ele>
        <time>2018-06-17T07:48:09Z</time>
      </trkpt>
      <trkpt lat="43.1615160" lon="-5.8949220">
        <ele>978.2</ele>
        <time>2018-06-17T07:48:13Z</time>
      </trkpt>
      <trkpt lat="43.1614330" lon="-5.8948750">
        <ele>979.6</ele>
        <time>2018-06-17T07:48:18Z</time>
      </trkpt>
      <trkpt lat="43.1613680" lon="-5.8948350">
        <ele>980.4</ele>
        <time>2018-06-17T07:48:22Z</time>
      </trkpt>
      <trkpt lat="43.1612830" lon="-5.8947840">
        <ele>981.8</ele>
        <time>2018-06-17T07:48:27Z</time>
      </trkpt>
      <trkpt lat="43.1612090" lon="-5.8947480">
        <ele>982.8</ele>
        <time>2018-06-17T07:48:31Z</time>
      </trkpt>
      <trkpt lat="43.1611350" lon="-5.8947200">
        <ele>984.0</ele>
        <time>2018-06-17T07:48:35Z</time>
      </trkpt>
      <trkpt lat="43.1610610" lon="-5.8946970">
        <ele>985.2</ele>
        <time>2018-06-17T07:48:39Z</time>
      </trkpt>
      <trkpt lat="43.1609860" lon="-5.8946890">
        <ele>986.4</ele>
        <time>2018-06-17T07:48:43Z</time>
      </trkpt>
      <trkpt lat="43.1609110" lon="-5.8946970">
        <ele>987.6</ele>
        <time>2018-06-17T07:48:47Z</time>
      </trkpt>
      <trkpt lat="43.1608370" lon="-5.8947060">
        <ele>988.6</ele>
        <time>2018-06-17T07:48:51Z</time>
      </trkpt>
      <trkpt lat="43.1607680" lon="-5.8947500">
        <ele>989.8</ele>
        <time>2018-06-17T07:48:55Z</time>
      </trkpt>
      <trkpt lat="43.1607190" lon="-5.8947850">
        <ele>990.8</ele>
        <time>2018-06-17T07:48:58Z</time>
      </trkpt>
      <trkpt lat="43.1606670" lon="-5.8948530">
        <ele>991.8</ele>
        <time>2018-06-17T07:49:02Z</time>
      </trkpt>
      <trkpt lat="43.1606240" lon="-5.8949330">
        <ele>993.0</ele>
        <time>2018-06-17T07:49:06Z</time>
      </trkpt>
      <trkpt lat="43.1605800" lon="-5.8950110">
        <ele>994.0</ele>
        <time>2018-06-17T07:49:10Z</time>
      </trkpt>
      <trkpt lat="43.1605590" lon="-5.8951050">
        <ele>995.2</ele>
        <time>2018-06-17T07:49:14Z</time>
      </trkpt>
      <trkpt lat="43.1605350" lon="-5.8951970">
        <ele>996.2</ele>
        <time>2018-06-17T07:49:18Z</time>
      </trkpt>
      <trkpt lat="43.1605120" lon="-5.8952920">
        <ele>997.4</ele>
        <time>2018-06-17T07:49:22Z</time>
      </trkpt>
      <trkpt lat="43.1604950" lon="-5.8953900">
        <ele>998.6</ele>
        <time>2018-06-17T07:49:26Z</time>
      </trkpt>
      <trkpt lat="43.1604810" lon="-5.8954880">
        <ele>999.6</ele>
        <time>2018-06-17T07:49:30Z</time>
      </trkpt>
      <trkpt lat="43.1604590" lon="-5.8955830">
        <ele>1000.8</ele>
        <time>2018-06-17T07:49:34Z</time>
      </trkpt>
      <trkpt lat="43.1604400" lon="-5.8956760">
        <ele>1001.8</ele>
        <time>2018-06-17T07:49:38Z</time>
      </trkpt>
      <trkpt lat="43.1604310" lon="-5.8957750">
        <ele>1002.8</ele>
        <time>2018-06-17T07:49:42Z</time>
      </trkpt>
      <trkpt lat="43.1604180" lon="-5.8958740">
        <ele>1003.8</ele>
        <time>2018-06-17T07:49:46Z</time>
      </trkpt>
      <trkpt lat="43.1604030" lon="-5.8959440">
        <ele>1004.8</ele>
        <time>2018-06-17T07:49:49Z</time>
      </trkpt>
      <trkpt lat="43.1603810" lon="-5.8960680">
        <ele>1006.0</ele>
        <time>2018-06-17T07:49:54Z</time>
      </trkpt>
      <trkpt lat="43.1603650" lon="-5.8961400">
        <ele>1007.0</ele>
        <time>2018-06-17T07:49:57Z</time>
      </trkpt>
      <trkpt lat="43.1603480" lon="-5.8962380">
        <ele>1008.0</ele>
        <time>2018-06-17T07:50:01Z</time>
      </trkpt>
      <trkpt lat="43.1603270" lon="-5.8963340">
        <ele>1009.0</ele>
        <time>2018-06-17T07:50:05Z</time>
      </trkpt>
      <trkpt lat="43.1603110" lon="-5.8964330">
        <ele>1010.2</ele>
        <time>2018-06-17T07:50:09Z</time>
      </trkpt>
      <trkpt lat="43.1602950" lon="-5.8965300">
        <ele>1011.0</ele>
        <time>2018-06-17T07:50:13Z</time>
      </trkpt>
      <trkpt lat="43.1602750" lon="-5.8966260">
        <ele>1012.2</ele>
        <time>2018-06-17T07:50:17Z</time>
      </trkpt>
      <trkpt lat="43.1602510" lon="-5.8967470">
        <ele>1013.6</ele>
        <time>2018-06-17T07:50:22Z</time>
      </trkpt>
      <trkpt lat="43.1602380" lon="-5.8968450">
        <ele>1014.6</ele>
        <time>2018-06-17T07:50:26Z</time>
      </trkpt>
      <trkpt lat="43.1602250" lon="-5.8969460">
        <ele>1015.6</ele>
        <time>2018-06-17T07:50:30Z</time>
      </trkpt>
      <trkpt lat="43.1602120" lon="-5.8970380">
        <ele>1016.8</ele>
        <time>2018-06-17T07:50:33Z</time>
      </trkpt>
      <trkpt lat="43.1601930" lon="-5.8971550">
        <ele>1017.8</ele>
        <time>2018-06-17T07:50:37Z</time>
      </trkpt>
      <trkpt lat="43.1601800" lon="-5.8972370">
        <ele>1018.8</ele>
        <time>2018-06-17T07:50:40Z</time>
      </trkpt>
      <trkpt lat="43.1601700" lon="-5.8973490">
        <ele>1020.2</ele>
        <time>2018-06-17T07:50:44Z</time>
      </trkpt>
      <trkpt lat="43.1601530" lon="-5.8974770">
        <ele>1021.4</ele>
        <time>2018-06-17T07:50:49Z</time>
      </trkpt>
      <trkpt lat="43.1601560" lon="-5.8975820">
        <ele>1022.6</ele>
        <time>2018-06-17T07:50:53Z</time>
      </trkpt>
      <trkpt lat="43.1601500" lon="-5.8977170">
        <ele>1023.8</ele>
        <time>2018-06-17T07:50:58Z</time>
      </trkpt>
      <trkpt lat="43.1601480" lon="-5.8977440">
        <ele>1024.0</ele>
        <time>2018-06-17T07:50:59Z</time>
      </trkpt>
      <trkpt lat="43.1601390" lon="-5.8978280">
        <ele>1024.6</ele>
        <time>2018-06-17T07:51:02Z</time>
      </trkpt>
      <trkpt lat="43.1601350" lon="-5.8979410">
        <ele>1025.6</ele>
        <time>2018-06-17T07:51:06Z</time>
      </trkpt>
      <trkpt lat="43.1601280" lon="-5.8980540">
        <ele>1026.8</ele>
        <time>2018-06-17T07:51:10Z</time>
      </trkpt>
      <trkpt lat="43.1600980" lon="-5.8981930">
        <ele>1028.0</ele>
        <time>2018-06-17T07:51:15Z</time>
      </trkpt>
      <trkpt lat="43.1600670" lon="-5.8983300">
        <ele>1029.2</ele>
        <time>2018-06-17T07:51:20Z</time>
      </trkpt>
      <trkpt lat="43.1600350" lon="-5.8984740">
        <ele>1030.4</ele>
        <time>2018-06-17T07:51:25Z</time>
      </trkpt>
      <trkpt lat="43.1600020" lon="-5.8986190">
        <ele>1031.4</ele>
        <time>2018-06-17T07:51:30Z</time>
      </trkpt>
      <trkpt lat="43.1599760" lon="-5.8987660">
        <ele>1032.6</ele>
        <time>2018-06-17T07:51:35Z</time>
      </trkpt>
      <trkpt lat="43.1599410" lon="-5.8989050">
        <ele>1033.6</ele>
        <time>2018-06-17T07:51:40Z</time>
      </trkpt>
      <trkpt lat="43.1599070" lon="-5.8990500">
        <ele>1034.8</ele>
        <time>2018-06-17T07:51:45Z</time>
      </trkpt>
      <trkpt lat="43.1598760" lon="-5.8991850">
        <ele>1036.0</ele>
        <time>2018-06-17T07:51:50Z</time>
      </trkpt>
      <trkpt lat="43.1598460" lon="-5.8993410">
        <ele>1037.4</ele>
        <time>2018-06-17T07:51:56Z</time>
      </trkpt>
      <trkpt lat="43.1598240" lon="-5.8994560">
        <ele>1038.4</ele>
        <time>2018-06-17T07:52:00Z</time>
      </trkpt>
      <trkpt lat="43.1597950" lon="-5.8995870">
        <ele>1039.6</ele>
        <time>2018-06-17T07:52:05Z</time>
      </trkpt>
      <trkpt lat="43.1597500" lon="-5.8997630">
        <ele>1040.8</ele>
        <time>2018-06-17T07:52:11Z</time>
      </trkpt>
      <trkpt lat="43.1597360" lon="-5.8998210">
        <ele>1041.4</ele>
        <time>2018-06-17T07:52:13Z</time>
      </trkpt>
      <trkpt lat="43.1597180" lon="-5.8998760">
        <ele>1042.0</ele>
        <time>2018-06-17T07:52:15Z</time>
      </trkpt>
      <trkpt lat="43.1596670" lon="-5.9000560">
        <ele>1043.0</ele>
        <time>2018-06-17T07:52:21Z</time>
      </trkpt>
      <trkpt lat="43.1596280" lon="-5.9001680">
        <ele>1044.0</ele>
        <time>2018-06-17T07:52:25Z</time>
      </trkpt>
      <trkpt lat="43.1595410" lon="-5.9003190">
        <ele>1045.2</ele>
        <time>2018-06-17T07:52:31Z</time>
      </trkpt>
      <trkpt lat="43.1594620" lon="-5.9004020">
        <ele>1046.4</ele>
        <time>2018-06-17T07:52:35Z</time>
      </trkpt>
      <trkpt lat="43.1593710" lon="-5.9004600">
        <ele>1047.6</ele>
        <time>2018-06-17T07:52:39Z</time>
      </trkpt>
      <trkpt lat="43.1592520" lon="-5.9004850">
        <ele>1048.6</ele>
        <time>2018-06-17T07:52:44Z</time>
      </trkpt>
      <trkpt lat="43.1591380" lon="-5.9004780">
        <ele>1049.8</ele>
        <time>2018-06-17T07:52:49Z</time>
      </trkpt>
      <trkpt lat="43.1590230" lon="-5.9004690">
        <ele>1051.0</ele>
        <time>2018-06-17T07:52:54Z</time>
      </trkpt>
      <trkpt lat="43.1589130" lon="-5.9004720">
        <ele>1052.0</ele>
        <time>2018-06-17T07:52:59Z</time>
      </trkpt>
      <trkpt lat="43.1588220" lon="-5.9004580">
        <ele>1053.2</ele>
        <time>2018-06-17T07:53:03Z</time>
      </trkpt>
      <trkpt lat="43.1587060" lon="-5.9004450">
        <ele>1054.4</ele>
        <time>2018-06-17T07:53:08Z</time>
      </trkpt>
      <trkpt lat="43.1586210" lon="-5.9004280">
        <ele>1055.4</ele>
        <time>2018-06-17T07:53:12Z</time>
      </trkpt>
      <trkpt lat="43.1585210" lon="-5.9004000">
        <ele>1056.4</ele>
        <time>2018-06-17T07:53:17Z</time>
      </trkpt>
      <trkpt lat="43.1584150" lon="-5.9003760">
        <ele>1057.6</ele>
        <time>2018-06-17T07:53:21Z</time>
      </trkpt>
      <trkpt lat="43.1583000" lon="-5.9003410">
        <ele>1058.6</ele>
        <time>2018-06-17T07:53:25Z</time>
      </trkpt>
      <trkpt lat="43.1581970" lon="-5.9002920">
        <ele>1059.8</ele>
        <time>2018-06-17T07:53:29Z</time>
      </trkpt>
      <trkpt lat="43.1580910" lon="-5.9001610">
        <ele>1060.6</ele>
        <time>2018-06-17T07:53:34Z</time>
      </trkpt>
      <trkpt lat="43.1580050" lon="-5.8999900">
        <ele>1061.8</ele>
        <time>2018-06-17T07:53:39Z</time>
      </trkpt>
      <trkpt lat="43.1579530" lon="-5.8997420">
        <ele>1062.8</ele>
        <time>2018-06-17T07:53:45Z</time>
      </trkpt>
      <trkpt lat="43.1579570" lon="-5.8994930">
        <ele>1064.0</ele>
        <time>2018-06-17T07:53:51Z</time>
      </trkpt>
      <trkpt lat="43.1579270" lon="-5.8991850">
        <ele>1064.8</ele>
        <time>2018-06-17T07:53:58Z</time>
      </trkpt>
      <trkpt lat="43.1578200" lon="-5.8989790">
        <ele>1065.8</ele>
        <time>2018-06-17T07:54:04Z</time>
      </trkpt>
      <trkpt lat="43.1577050" lon="-5.8987790">
        <ele>1067.0</ele>
        <time>2018-06-17T07:54:10Z</time>
      </trkpt>
      <trkpt lat="43.1575370" lon="-5.8985530">
        <ele>1067.6</ele>
        <time>2018-06-17T07:54:17Z</time>
      </trkpt>
      <trkpt lat="43.1574750" lon="-5.8984460">
        <ele>1068.0</ele>
        <time>2018-06-17T07:54:20Z</time>
      </trkpt>
      <trkpt lat="43.1573120" lon="-5.8981710">
        <ele>1069.0</ele>
        <time>2018-06-17T07:54:28Z</time>
      </trkpt>
      <trkpt lat="43.1571670" lon="-5.8979290">
        <ele>1070.0</ele>
        <time>2018-06-17T07:54:35Z</time>
      </trkpt>
      <trkpt lat="43.1570240" lon="-5.8978090">
        <ele>1071.2</ele>
        <time>2018-06-17T07:54:40Z</time>
      </trkpt>
      <trkpt lat="43.1568780" lon="-5.8977100">
        <ele>1072.4</ele>
        <time>2018-06-17T07:54:45Z</time>
      </trkpt>
      <trkpt lat="43.1566950" lon="-5.8977080">
        <ele>1073.6</ele>
        <time>2018-06-17T07:54:51Z</time>
      </trkpt>
      <trkpt lat="43.1565260" lon="-5.8977890">
        <ele>1074.6</ele>
        <time>2018-06-17T07:54:57Z</time>
      </trkpt>
      <trkpt lat="43.1564330" lon="-5.8978890">
        <ele>1075.6</ele>
        <time>2018-06-17T07:55:01Z</time>
      </trkpt>
      <trkpt lat="43.1563450" lon="-5.8980350">
        <ele>1076.8</ele>
        <time>2018-06-17T07:55:06Z</time>
      </trkpt>
      <trkpt lat="43.1562730" lon="-5.8982130">
        <ele>1078.0</ele>
        <time>2018-06-17T07:55:11Z</time>
      </trkpt>
      <trkpt lat="43.1561960" lon="-5.8984190">
        <ele>1079.2</ele>
        <time>2018-06-17T07:55:17Z</time>
      </trkpt>
      <trkpt lat="43.1561440" lon="-5.8986010">
        <ele>1080.2</ele>
        <time>2018-06-17T07:55:22Z</time>
      </trkpt>
      <trkpt lat="43.1560750" lon="-5.8988000">
        <ele>1081.6</ele>
        <time>2018-06-17T07:55:28Z</time>
      </trkpt>
      <trkpt lat="43.1560220" lon="-5.8989560">
        <ele>1082.8</ele>
        <time>2018-06-17T07:55:33Z</time>
      </trkpt>
      <trkpt lat="43.1559630" lon="-5.8991160">
        <ele>1083.8</ele>
        <time>2018-06-17T07:55:38Z</time>
      </trkpt>
      <trkpt lat="43.1558910" lon="-5.8993210">
        <ele>1084.8</ele>
        <time>2018-06-17T07:55:44Z</time>
      </trkpt>
      <trkpt lat="43.1558240" lon="-5.8994860">
        <ele>1086.0</ele>
        <time>2018-06-17T07:55:49Z</time>
      </trkpt>
      <trkpt lat="43.1557480" lon="-5.8996650">
        <ele>1086.8</ele>
        <time>2018-06-17T07:55:55Z</time>
      </trkpt>
      <trkpt lat="43.1557030" lon="-5.8998380">
        <ele>1088.0</ele>
        <time>2018-06-17T07:56:00Z</time>
      </trkpt>
      <trkpt lat="43.1556580" lon="-5.8999870">
        <ele>1089.0</ele>
        <time>2018-06-17T07:56:04Z</time>
      </trkpt>
      <trkpt lat="43.1555770" lon="-5.9001990">
        <ele>1090.2</ele>
        <time>2018-06-17T07:56:10Z</time>
      </trkpt>
      <trkpt lat="43.1554440" lon="-5.9004120">
        <ele>1091.4</ele>
        <time>2018-06-17T07:56:17Z</time>
      </trkpt>
      <trkpt lat="43.1553450" lon="-5.9005090">
        <ele>1092.6</ele>
        <time>2018-06-17T07:56:21Z</time>
      </trkpt>
      <trkpt lat="43.1551890" lon="-5.9006070">
        <ele>1093.6</ele>
        <time>2018-06-17T07:56:27Z</time>
      </trkpt>
      <trkpt lat="43.1550270" lon="-5.9006700">
        <ele>1094.8</ele>
        <time>2018-06-17T07:56:32Z</time>
      </trkpt>
      <trkpt lat="43.1548700" lon="-5.9006640">
        <ele>1095.8</ele>
        <time>2018-06-17T07:56:37Z</time>
      </trkpt>
      <trkpt lat="43.1547520" lon="-5.9006170">
        <ele>1096.8</ele>
        <time>2018-06-17T07:56:41Z</time>
      </trkpt>
      <trkpt lat="43.1546120" lon="-5.9005340">
        <ele>1098.0</ele>
        <time>2018-06-17T07:56:46Z</time>
      </trkpt>
      <trkpt lat="43.1545200" lon="-5.9004420">
        <ele>1099.0</ele>
        <time>2018-06-17T07:56:50Z</time>
      </trkpt>
      <trkpt lat="43.1544220" lon="-5.9003140">
        <ele>1100.2</ele>
        <time>2018-06-17T07:56:55Z</time>
      </trkpt>
      <trkpt lat="43.1543140" lon="-5.9001390">
        <ele>1101.4</ele>
        <time>2018-06-17T07:57:01Z</time>
      </trkpt>
      <trkpt lat="43.1542300" lon="-5.9000220">
        <ele>1102.6</ele>
        <time>2018-06-17T07:57:06Z</time>
      </trkpt>
      <trkpt lat="43.1541480" lon="-5.8999330">
        <ele>1103.6</ele>
        <time>2018-06-17T07:57:10Z</time>
      </trkpt>
      <trkpt lat="43.1540670" lon="-5.8998470">
        <ele>1104.6</ele>
        <time>2018-06-17T07:57:14Z</time>
      </trkpt>
      <trkpt lat="43.1539520" lon="-5.8997400">
        <ele>1105.8</ele>
        <time>2018-06-17T07:57:19Z</time>
      </trkpt>
      <trkpt lat="43.1538800" lon="-5.8996840">
        <ele>1106.8</ele>
        <time>2018-06-17T07:57:23Z</time>
      </trkpt>
      <trkpt lat="43.1537860" lon="-5.8995920">
        <ele>1107.8</ele>
        <time>2018-06-17T07:57:28Z</time>
      </trkpt>
      <trkpt lat="43.1536770" lon="-5.8994970">
        <ele>1109.0</ele>
        <time>2018-06-17T07:57:33Z</time>
      </trkpt>
      <trkpt lat="43.1535670" lon="-5.8994200">
        <ele>1110.0</ele>
        <time>2018-06-17T07:57:37Z</time>
      </trkpt>
      <trkpt lat="43.1534720" lon="-5.8993490">
        <ele>1111.0</ele>
        <time>2018-06-17T07:57:41Z</time>
      </trkpt>
      <trkpt lat="43.1533390" lon="-5.8992680">
        <ele>1112.4</ele>
        <time>2018-06-17T07:57:46Z</time>
      </trkpt>
      <trkpt lat="43.1532410" lon="-5.8992200">
        <ele>1113.2</ele>
        <time>2018-06-17T07:57:50Z</time>
      </trkpt>
      <trkpt lat="43.1531130" lon="-5.8991850">
        <ele>1114.4</ele>
        <time>2018-06-17T07:57:55Z</time>
      </trkpt>
      <trkpt lat="43.1530110" lon="-5.8991700">
        <ele>1115.4</ele>
        <time>2018-06-17T07:57:59Z</time>
      </trkpt>
      <trkpt lat="43.1528860" lon="-5.8991930">
        <ele>1116.4</ele>
        <time>2018-06-17T07:58:04Z</time>
      </trkpt>
      <trkpt lat="43.1527410" lon="-5.8992040">
        <ele>1117.8</ele>
        <time>2018-06-17T07:58:10Z</time>
      </trkpt>
      <trkpt lat="43.1526380" lon="-5.8991980">
        <ele>1119.0</ele>
        <time>2018-06-17T07:58:14Z</time>
      </trkpt>
      <trkpt lat="43.1525110" lon="-5.8991450">
        <ele>1120.2</ele>
        <time>2018-06-17T07:58:19Z</time>
      </trkpt>
      <trkpt lat="43.1523890" lon="-5.8990590">
        <ele>1121.2</ele>
        <time>2018-06-17T07:58:24Z</time>
      </trkpt>
      <trkpt lat="43.1522970" lon="-5.8989710">
        <ele>1122.0</ele>
        <time>2018-06-17T07:58:28Z</time>
      </trkpt>
      <trkpt lat="43.1521790" lon="-5.8988770">
        <ele>1123.0</ele>
        <time>2018-06-17T07:58:33Z</time>
      </trkpt>
      <trkpt lat="43.1521000" lon="-5.8988260">
        <ele>1124.2</ele>
        <time>2018-06-17T07:58:37Z</time>
      </trkpt>
      <trkpt lat="43.1519970" lon="-5.8987860">
        <ele>1125.2</ele>
        <time>2018-06-17T07:58:41Z</time>
      </trkpt>
      <trkpt lat="43.1518680" lon="-5.8987690">
        <ele>1126.6</ele>
        <time>2018-06-17T07:58:46Z</time>
      </trkpt>
      <trkpt lat="43.1517540" lon="-5.8987250">
        <ele>1127.6</ele>
        <time>2018-06-17T07:58:50Z</time>
      </trkpt>
      <trkpt lat="43.1516120" lon="-5.8986760">
        <ele>1128.6</ele>
        <time>2018-06-17T07:58:55Z</time>
      </trkpt>
      <trkpt lat="43.1514950" lon="-5.8986720">
        <ele>1129.8</ele>
        <time>2018-06-17T07:58:59Z</time>
      </trkpt>
      <trkpt lat="43.1513880" lon="-5.8987090">
        <ele>1130.6</ele>
        <time>2018-06-17T07:59:03Z</time>
      </trkpt>
      <trkpt lat="43.1513730" lon="-5.8987410">
        <ele>1130.8</ele>
        <time>2018-06-17T07:59:04Z</time>
      </trkpt>
      <trkpt lat="43.1514090" lon="-5.8988860">
        <ele>1132.0</ele>
        <time>2018-06-17T07:59:08Z</time>
      </trkpt>
      <trkpt lat="43.1515410" lon="-5.8988900">
        <ele>1132.6</ele>
        <time>2018-06-17T07:59:12Z</time>
      </trkpt>
      <trkpt lat="43.1516350" lon="-5.8988800">
        <ele>1133.0</ele>
        <time>2018-06-17T07:59:15Z</time>
      </trkpt>
      <trkpt lat="43.1517110" lon="-5.8989070">
        <ele>1133.4</ele>
        <time>2018-06-17T07:59:20Z</time>
      </trkpt>
      <trkpt lat="43.1517120" lon="-5.8989090">
        <ele>1133.4</ele>
        <time>2018-06-17T07:59:21Z</time>
      </trkpt>
      <trkpt lat="43.1518080" lon="-5.8989000">
        <ele>1133.6</ele>
        <time>2018-06-17T08:00:04Z</time>
      </trkpt>
      <trkpt lat="43.1518380" lon="-5.8989130">
        <ele>1133.6</ele>
        <time>2018-06-17T08:00:05Z</time>
      </trkpt>
      <trkpt lat="43.1519200" lon="-5.8989650">
        <ele>1133.8</ele>
        <time>2018-06-17T08:00:08Z</time>
      </trkpt>
      <trkpt lat="43.1520230" lon="-5.8990670">
        <ele>1134.0</ele>
        <time>2018-06-17T08:00:12Z</time>
      </trkpt>
      <trkpt lat="43.1521390" lon="-5.8992140">
        <ele>1134.8</ele>
        <time>2018-06-17T08:00:17Z</time>
      </trkpt>
      <trkpt lat="43.1522030" lon="-5.8993030">
        <ele>1136.0</ele>
        <time>2018-06-17T08:00:21Z</time>
      </trkpt>
      <trkpt lat="43.1522690" lon="-5.8993940">
        <ele>1137.0</ele>
        <time>2018-06-17T08:00:25Z</time>
      </trkpt>
      <trkpt lat="43.1523560" lon="-5.8994640">
        <ele>1138.0</ele>
        <time>2018-06-17T08:00:29Z</time>
      </trkpt>
      <trkpt lat="43.1523850" lon="-5.8994810">
        <ele>1138.2</ele>
        <time>2018-06-17T08:00:30Z</time>
      </trkpt>
      <trkpt lat="43.1525790" lon="-5.8995960">
        <ele>1139.4</ele>
        <time>2018-06-17T08:00:37Z</time>
      </trkpt>
      <trkpt lat="43.1529460" lon="-5.8996890">
        <ele>1139.8</ele>
        <time>2018-06-17T08:00:47Z</time>
      </trkpt>
      <trkpt lat="43.1530720" lon="-5.8997340">
        <ele>1139.4</ele>
        <time>2018-06-17T08:00:50Z</time>
      </trkpt>
      <trkpt lat="43.1532470" lon="-5.8999030">
        <ele>1138.4</ele>
        <time>2018-06-17T08:00:54Z</time>
      </trkpt>
      <trkpt lat="43.1532950" lon="-5.8999570">
        <ele>1138.2</ele>
        <time>2018-06-17T08:00:55Z</time>
      </trkpt>
      <trkpt lat="43.1534060" lon="-5.9000610">
        <ele>1137.6</ele>
        <time>2018-06-17T08:00:57Z</time>
      </trkpt>
      <trkpt lat="43.1535180" lon="-5.9001740">
        <ele>1136.8</ele>
        <time>2018-06-17T08:00:59Z</time>
      </trkpt>
      <trkpt lat="43.1536430" lon="-5.9003230">
        <ele>1136.8</ele>
        <time>2018-06-17T08:01:02Z</time>
      </trkpt>
      <trkpt lat="43.1538060" lon="-5.9005770">
        <ele>1138.0</ele>
        <time>2018-06-17T08:01:07Z</time>
      </trkpt>
      <trkpt lat="43.1538590" lon="-5.9007880">
        <ele>1139.2</ele>
        <time>2018-06-17T08:01:11Z</time>
      </trkpt>
      <trkpt lat="43.1538700" lon="-5.9010210">
        <ele>1140.0</ele>
        <time>2018-06-17T08:01:15Z</time>
      </trkpt>
      <trkpt lat="43.1538510" lon="-5.9011320">
        <ele>1140.4</ele>
        <time>2018-06-17T08:01:17Z</time>
      </trkpt>
      <trkpt lat="43.1539000" lon="-5.9014130">
        <ele>1141.0</ele>
        <time>2018-06-17T08:01:23Z</time>
      </trkpt>
      <trkpt lat="43.1539730" lon="-5.9015270">
        <ele>1141.4</ele>
        <time>2018-06-17T08:01:27Z</time>
      </trkpt>
      <trkpt lat="43.1540510" lon="-5.9016550">
        <ele>1142.6</ele>
        <time>2018-06-17T08:01:31Z</time>
      </trkpt>
      <trkpt lat="43.1541500" lon="-5.9018140">
        <ele>1143.8</ele>
        <time>2018-06-17T08:01:36Z</time>
      </trkpt>
      <trkpt lat="43.1544200" lon="-5.9019750">
        <ele>1144.8</ele>
        <time>2018-06-17T08:01:44Z</time>
      </trkpt>
      <trkpt lat="43.1545370" lon="-5.9019890">
        <ele>1145.0</ele>
        <time>2018-06-17T08:01:46Z</time>
      </trkpt>
      <trkpt lat="43.1549090" lon="-5.9019170">
        <ele>1146.6</ele>
        <time>2018-06-17T08:01:55Z</time>
      </trkpt>
      <trkpt lat="43.1551410" lon="-5.9019550">
        <ele>1147.6</ele>
        <time>2018-06-17T08:02:00Z</time>
      </trkpt>
      <trkpt lat="43.1553710" lon="-5.9019720">
        <ele>1148.6</ele>
        <time>2018-06-17T08:02:06Z</time>
      </trkpt>
      <trkpt lat="43.1555890" lon="-5.9020000">
        <ele>1149.4</ele>
        <time>2018-06-17T08:02:11Z</time>
      </trkpt>
      <trkpt lat="43.1557120" lon="-5.9019570">
        <ele>1149.8</ele>
        <time>2018-06-17T08:02:14Z</time>
      </trkpt>
      <trkpt lat="43.1559130" lon="-5.9018590">
        <ele>1151.0</ele>
        <time>2018-06-17T08:02:20Z</time>
      </trkpt>
      <trkpt lat="43.1560140" lon="-5.9017570">
        <ele>1152.0</ele>
        <time>2018-06-17T08:02:24Z</time>
      </trkpt>
      <trkpt lat="43.1561350" lon="-5.9015810">
        <ele>1152.8</ele>
        <time>2018-06-17T08:02:29Z</time>
      </trkpt>
      <trkpt lat="43.1561780" lon="-5.9015230">
        <ele>1153.2</ele>
        <time>2018-06-17T08:02:31Z</time>
      </trkpt>
      <trkpt lat="43.1563800" lon="-5.9013610">
        <ele>1154.2</ele>
        <time>2018-06-17T08:02:38Z</time>
      </trkpt>
      <trkpt lat="43.1566810" lon="-5.9011570">
        <ele>1155.2</ele>
        <time>2018-06-17T08:02:47Z</time>
      </trkpt>
      <trkpt lat="43.1567970" lon="-5.9011240">
        <ele>1156.2</ele>
        <time>2018-06-17T08:02:50Z</time>
      </trkpt>
      <trkpt lat="43.1569750" lon="-5.9012240">
        <ele>1157.2</ele>
        <time>2018-06-17T08:02:56Z</time>
      </trkpt>
      <trkpt lat="43.1570310" lon="-5.9012960">
        <ele>1158.4</ele>
        <time>2018-06-17T08:02:59Z</time>
      </trkpt>
      <trkpt lat="43.1570860" lon="-5.9014550">
        <ele>1159.6</ele>
        <time>2018-06-17T08:03:03Z</time>
      </trkpt>
      <trkpt lat="43.1571440" lon="-5.9016040">
        <ele>1160.8</ele>
        <time>2018-06-17T08:03:07Z</time>
      </trkpt>
      <trkpt lat="43.1572100" lon="-5.9017940">
        <ele>1161.8</ele>
        <time>2018-06-17T08:03:12Z</time>
      </trkpt>
      <trkpt lat="43.1572080" lon="-5.9019110">
        <ele>1163.0</ele>
        <time>2018-06-17T08:03:16Z</time>
      </trkpt>
      <trkpt lat="43.1571860" lon="-5.9020080">
        <ele>1164.4</ele>
        <time>2018-06-17T08:03:20Z</time>
      </trkpt>
      <trkpt lat="43.1571760" lon="-5.9021390">
        <ele>1165.4</ele>
        <time>2018-06-17T08:03:24Z</time>
      </trkpt>
      <trkpt lat="43.1571590" lon="-5.9023170">
        <ele>1166.2</ele>
        <time>2018-06-17T08:03:29Z</time>
      </trkpt>
      <trkpt lat="43.1571620" lon="-5.9024370">
        <ele>1167.4</ele>
        <time>2018-06-17T08:03:33Z</time>
      </trkpt>
      <trkpt lat="43.1571580" lon="-5.9025250">
        <ele>1168.4</ele>
        <time>2018-06-17T08:03:36Z</time>
      </trkpt>
      <trkpt lat="43.1571500" lon="-5.9026730">
        <ele>1169.8</ele>
        <time>2018-06-17T08:03:41Z</time>
      </trkpt>
      <trkpt lat="43.1571290" lon="-5.9027970">
        <ele>1170.8</ele>
        <time>2018-06-17T08:03:45Z</time>
      </trkpt>
      <trkpt lat="43.1571150" lon="-5.9029270">
        <ele>1171.8</ele>
        <time>2018-06-17T08:03:49Z</time>
      </trkpt>
      <trkpt lat="43.1570940" lon="-5.9030570">
        <ele>1173.0</ele>
        <time>2018-06-17T08:03:53Z</time>
      </trkpt>
      <trkpt lat="43.1570530" lon="-5.9031820">
        <ele>1174.2</ele>
        <time>2018-06-17T08:03:57Z</time>
      </trkpt>
      <trkpt lat="43.1570240" lon="-5.9033770">
        <ele>1175.4</ele>
        <time>2018-06-17T08:04:02Z</time>
      </trkpt>
      <trkpt lat="43.1570060" lon="-5.9035360">
        <ele>1176.4</ele>
        <time>2018-06-17T08:04:07Z</time>
      </trkpt>
      <trkpt lat="43.1570050" lon="-5.9036380">
        <ele>1177.6</ele>
        <time>2018-06-17T08:04:10Z</time>
      </trkpt>
      <trkpt lat="43.1570140" lon="-5.9037670">
        <ele>1178.6</ele>
        <time>2018-06-17T08:04:14Z</time>
      </trkpt>
      <trkpt lat="43.1570140" lon="-5.9039200">
        <ele>1179.8</ele>
        <time>2018-06-17T08:04:19Z</time>
      </trkpt>
      <trkpt lat="43.1570150" lon="-5.9040760">
        <ele>1181.0</ele>
        <time>2018-06-17T08:04:24Z</time>
      </trkpt>
      <trkpt lat="43.1570220" lon="-5.9042000">
        <ele>1182.2</ele>
        <time>2018-06-17T08:04:28Z</time>
      </trkpt>
      <trkpt lat="43.1570560" lon="-5.9043310">
        <ele>1183.2</ele>
        <time>2018-06-17T08:04:33Z</time>
      </trkpt>
      <trkpt lat="43.1571740" lon="-5.9045330">
        <ele>1184.4</ele>
        <time>2018-06-17T08:04:41Z</time>
      </trkpt>
      <trkpt lat="43.1572760" lon="-5.9046470">
        <ele>1185.4</ele>
        <time>2018-06-17T08:04:47Z</time>
      </trkpt>
      <trkpt lat="43.1573630" lon="-5.9048790">
        <ele>1186.6</ele>
        <time>2018-06-17T08:04:54Z</time>
      </trkpt>
      <trkpt lat="43.1573740" lon="-5.9049840">
        <ele>1187.8</ele>
        <time>2018-06-17T08:04:58Z</time>
      </trkpt>
      <trkpt lat="43.1573870" lon="-5.9050640">
        <ele>1189.0</ele>
        <time>2018-06-17T08:05:01Z</time>
      </trkpt>
      <trkpt lat="43.1574200" lon="-5.9051490">
        <ele>1190.2</ele>
        <time>2018-06-17T08:05:04Z</time>
      </trkpt>
      <trkpt lat="43.1574710" lon="-5.9052020">
        <ele>1191.6</ele>
        <time>2018-06-17T08:05:07Z</time>
      </trkpt>
      <trkpt lat="43.1575310" lon="-5.9052770">
        <ele>1192.8</ele>
        <time>2018-06-17T08:05:11Z</time>
      </trkpt>
      <trkpt lat="43.1575820" lon="-5.9053590">
        <ele>1194.0</ele>
        <time>2018-06-17T08:05:15Z</time>
      </trkpt>
      <trkpt lat="43.1576240" lon="-5.9054210">
        <ele>1194.8</ele>
        <time>2018-06-17T08:05:18Z</time>
      </trkpt>
      <trkpt lat="43.1576360" lon="-5.9054440">
        <ele>1195.0</ele>
        <time>2018-06-17T08:05:19Z</time>
      </trkpt>
      <trkpt lat="43.1576540" lon="-5.9055330">
        <ele>1196.0</ele>
        <time>2018-06-17T08:05:22Z</time>
      </trkpt>
      <trkpt lat="43.1576560" lon="-5.9055650">
        <ele>1196.0</ele>
        <time>2018-06-17T08:05:23Z</time>
      </trkpt>
      <trkpt lat="43.1576870" lon="-5.9056860">
        <ele>1197.2</ele>
        <time>2018-06-17T08:05:27Z</time>
      </trkpt>
      <trkpt lat="43.1577530" lon="-5.9057610">
        <ele>1198.2</ele>
        <time>2018-06-17T08:05:31Z</time>
      </trkpt>
      <trkpt lat="43.1578460" lon="-5.9058100">
        <ele>1199.4</ele>
        <time>2018-06-17T08:05:35Z</time>
      </trkpt>
      <trkpt lat="43.1580070" lon="-5.9058090">
        <ele>1200.6</ele>
        <time>2018-06-17T08:05:41Z</time>
      </trkpt>
      <trkpt lat="43.1581300" lon="-5.9058050">
        <ele>1201.6</ele>
        <time>2018-06-17T08:05:46Z</time>
      </trkpt>
      <trkpt lat="43.1582620" lon="-5.9057930">
        <ele>1202.8</ele>
        <time>2018-06-17T08:05:52Z</time>
      </trkpt>
      <trkpt lat="43.1583970" lon="-5.9057900">
        <ele>1203.8</ele>
        <time>2018-06-17T08:05:58Z</time>
      </trkpt>
      <trkpt lat="43.1585070" lon="-5.9057940">
        <ele>1205.2</ele>
        <time>2018-06-17T08:06:03Z</time>
      </trkpt>
      <trkpt lat="43.1586040" lon="-5.9058370">
        <ele>1206.6</ele>
        <time>2018-06-17T08:06:08Z</time>
      </trkpt>
      <trkpt lat="43.1586810" lon="-5.9058890">
        <ele>1207.6</ele>
        <time>2018-06-17T08:06:12Z</time>
      </trkpt>
      <trkpt lat="43.1587480" lon="-5.9059540">
        <ele>1208.6</ele>
        <time>2018-06-17T08:06:16Z</time>
      </trkpt>
      <trkpt lat="43.1588230" lon="-5.9060160">
        <ele>1209.8</ele>
        <time>2018-06-17T08:06:20Z</time>
      </trkpt>
      <trkpt lat="43.1589320" lon="-5.9060860">
        <ele>1210.8</ele>
        <time>2018-06-17T08:06:25Z</time>
      </trkpt>
      <trkpt lat="43.1590160" lon="-5.9061500">
        <ele>1212.0</ele>
        <time>2018-06-17T08:06:29Z</time>
      </trkpt>
      <trkpt lat="43.1590950" lon="-5.9062130">
        <ele>1213.0</ele>
        <time>2018-06-17T08:06:33Z</time>
      </trkpt>
      <trkpt lat="43.1592140" lon="-5.9063060">
        <ele>1214.2</ele>
        <time>2018-06-17T08:06:39Z</time>
      </trkpt>
      <trkpt lat="43.1593210" lon="-5.9063700">
        <ele>1215.4</ele>
        <time>2018-06-17T08:06:44Z</time>
      </trkpt>
      <trkpt lat="43.1594440" lon="-5.9063780">
        <ele>1216.6</ele>
        <time>2018-06-17T08:06:49Z</time>
      </trkpt>
      <trkpt lat="43.1595380" lon="-5.9063300">
        <ele>1217.6</ele>
        <time>2018-06-17T08:06:53Z</time>
      </trkpt>
      <trkpt lat="43.1596420" lon="-5.9062390">
        <ele>1218.6</ele>
        <time>2018-06-17T08:06:58Z</time>
      </trkpt>
      <trkpt lat="43.1597540" lon="-5.9061070">
        <ele>1219.8</ele>
        <time>2018-06-17T08:07:04Z</time>
      </trkpt>
      <trkpt lat="43.1598300" lon="-5.9059750">
        <ele>1220.8</ele>
        <time>2018-06-17T08:07:09Z</time>
      </trkpt>
      <trkpt lat="43.1599360" lon="-5.9058130">
        <ele>1222.0</ele>
        <time>2018-06-17T08:07:15Z</time>
      </trkpt>
      <trkpt lat="43.1600320" lon="-5.9057870">
        <ele>1223.2</ele>
        <time>2018-06-17T08:07:19Z</time>
      </trkpt>
      <trkpt lat="43.1601260" lon="-5.9058610">
        <ele>1224.2</ele>
        <time>2018-06-17T08:07:24Z</time>
      </trkpt>
      <trkpt lat="43.1601650" lon="-5.9059300">
        <ele>1225.2</ele>
        <time>2018-06-17T08:07:27Z</time>
      </trkpt>
      <trkpt lat="43.1601990" lon="-5.9060010">
        <ele>1226.2</ele>
        <time>2018-06-17T08:07:30Z</time>
      </trkpt>
      <trkpt lat="43.1602450" lon="-5.9060940">
        <ele>1227.6</ele>
        <time>2018-06-17T08:07:34Z</time>
      </trkpt>
      <trkpt lat="43.1602900" lon="-5.9061900">
        <ele>1228.6</ele>
        <time>2018-06-17T08:07:38Z</time>
      </trkpt>
      <trkpt lat="43.1603520" lon="-5.9063050">
        <ele>1229.8</ele>
        <time>2018-06-17T08:07:43Z</time>
      </trkpt>
      <trkpt lat="43.1603930" lon="-5.9063690">
        <ele>1230.8</ele>
        <time>2018-06-17T08:07:46Z</time>
      </trkpt>
      <trkpt lat="43.1604510" lon="-5.9064520">
        <ele>1232.0</ele>
        <time>2018-06-17T08:07:50Z</time>
      </trkpt>
      <trkpt lat="43.1605270" lon="-5.9065500">
        <ele>1233.0</ele>
        <time>2018-06-17T08:07:55Z</time>
      </trkpt>
      <trkpt lat="43.1605960" lon="-5.9066180">
        <ele>1234.4</ele>
        <time>2018-06-17T08:07:59Z</time>
      </trkpt>
      <trkpt lat="43.1606820" lon="-5.9067010">
        <ele>1235.6</ele>
        <time>2018-06-17T08:08:04Z</time>
      </trkpt>
      <trkpt lat="43.1607500" lon="-5.9067630">
        <ele>1236.8</ele>
        <time>2018-06-17T08:08:08Z</time>
      </trkpt>
      <trkpt lat="43.1608370" lon="-5.9068330">
        <ele>1238.0</ele>
        <time>2018-06-17T08:08:13Z</time>
      </trkpt>
      <trkpt lat="43.1609210" lon="-5.9068240">
        <ele>1239.2</ele>
        <time>2018-06-17T08:08:17Z</time>
      </trkpt>
      <trkpt lat="43.1610200" lon="-5.9067590">
        <ele>1240.2</ele>
        <time>2018-06-17T08:08:22Z</time>
      </trkpt>
      <trkpt lat="43.1610960" lon="-5.9067040">
        <ele>1241.2</ele>
        <time>2018-06-17T08:08:26Z</time>
      </trkpt>
      <trkpt lat="43.1611680" lon="-5.9066530">
        <ele>1242.4</ele>
        <time>2018-06-17T08:08:30Z</time>
      </trkpt>
      <trkpt lat="43.1612550" lon="-5.9065870">
        <ele>1243.6</ele>
        <time>2018-06-17T08:08:35Z</time>
      </trkpt>
      <trkpt lat="43.1613260" lon="-5.9065360">
        <ele>1244.8</ele>
        <time>2018-06-17T08:08:39Z</time>
      </trkpt>
      <trkpt lat="43.1614070" lon="-5.9065010">
        <ele>1245.8</ele>
        <time>2018-06-17T08:08:43Z</time>
      </trkpt>
      <trkpt lat="43.1614700" lon="-5.9064980">
        <ele>1246.8</ele>
        <time>2018-06-17T08:08:46Z</time>
      </trkpt>
      <trkpt lat="43.1615490" lon="-5.9065210">
        <ele>1248.0</ele>
        <time>2018-06-17T08:08:50Z</time>
      </trkpt>
      <trkpt lat="43.1616400" lon="-5.9065500">
        <ele>1249.2</ele>
        <time>2018-06-17T08:08:55Z</time>
      </trkpt>
      <trkpt lat="43.1617170" lon="-5.9065580">
        <ele>1250.2</ele>
        <time>2018-06-17T08:08:59Z</time>
      </trkpt>
      <trkpt lat="43.1617720" lon="-5.9065470">
        <ele>1251.2</ele>
        <time>2018-06-17T08:09:02Z</time>
      </trkpt>
      <trkpt lat="43.1618470" lon="-5.9065270">
        <ele>1252.2</ele>
        <time>2018-06-17T08:09:06Z</time>
      </trkpt>
      <trkpt lat="43.1619210" lon="-5.9065050">
        <ele>1253.2</ele>
        <time>2018-06-17T08:09:10Z</time>
      </trkpt>
      <trkpt lat="43.1619880" lon="-5.9064710">
        <ele>1254.4</ele>
        <time>2018-06-17T08:09:14Z</time>
      </trkpt>
      <trkpt lat="43.1620460" lon="-5.9064310">
        <ele>1255.6</ele>
        <time>2018-06-17T08:09:17Z</time>
      </trkpt>
      <trkpt lat="43.1621120" lon="-5.9063770">
        <ele>1256.6</ele>
        <time>2018-06-17T08:09:21Z</time>
      </trkpt>
      <trkpt lat="43.1621940" lon="-5.9063130">
        <ele>1257.8</ele>
        <time>2018-06-17T08:09:26Z</time>
      </trkpt>
      <trkpt lat="43.1622750" lon="-5.9062410">
        <ele>1259.0</ele>
        <time>2018-06-17T08:09:31Z</time>
      </trkpt>
      <trkpt lat="43.1623400" lon="-5.9061900">
        <ele>1260.0</ele>
        <time>2018-06-17T08:09:35Z</time>
      </trkpt>
      <trkpt lat="43.1624240" lon="-5.9061260">
        <ele>1261.0</ele>
        <time>2018-06-17T08:09:40Z</time>
      </trkpt>
      <trkpt lat="43.1624920" lon="-5.9060740">
        <ele>1262.2</ele>
        <time>2018-06-17T08:09:44Z</time>
      </trkpt>
      <trkpt lat="43.1625740" lon="-5.9060050">
        <ele>1263.4</ele>
        <time>2018-06-17T08:09:49Z</time>
      </trkpt>
      <trkpt lat="43.1626580" lon="-5.9059370">
        <ele>1264.6</ele>
        <time>2018-06-17T08:09:54Z</time>
      </trkpt>
      <trkpt lat="43.1627320" lon="-5.9058910">
        <ele>1265.6</ele>
        <time>2018-06-17T08:09:58Z</time>
      </trkpt>
      <trkpt lat="43.1628570" lon="-5.9058310">
        <ele>1266.6</ele>
        <time>2018-06-17T08:10:04Z</time>
      </trkpt>
      <trkpt lat="43.1629410" lon="-5.9058080">
        <ele>1267.2</ele>
        <time>2018-06-17T08:10:08Z</time>
      </trkpt>
      <trkpt lat="43.1629810" lon="-5.9057960">
        <ele>1267.6</ele>
        <time>2018-06-17T08:10:10Z</time>
      </trkpt>
      <trkpt lat="43.1630610" lon="-5.9057730">
        <ele>1268.8</ele>
        <time>2018-06-17T08:10:14Z</time>
      </trkpt>
      <trkpt lat="43.1631400" lon="-5.9057490">
        <ele>1269.8</ele>
        <time>2018-06-17T08:10:18Z</time>
      </trkpt>
      <trkpt lat="43.1632370" lon="-5.9057220">
        <ele>1271.0</ele>
        <time>2018-06-17T08:10:23Z</time>
      </trkpt>
      <trkpt lat="43.1633150" lon="-5.9057010">
        <ele>1272.0</ele>
        <time>2018-06-17T08:10:27Z</time>
      </trkpt>
      <trkpt lat="43.1633920" lon="-5.9056790">
        <ele>1273.4</ele>
        <time>2018-06-17T08:10:31Z</time>
      </trkpt>
      <trkpt lat="43.1634740" lon="-5.9056650">
        <ele>1274.4</ele>
        <time>2018-06-17T08:10:35Z</time>
      </trkpt>
      <trkpt lat="43.1635880" lon="-5.9056710">
        <ele>1275.8</ele>
        <time>2018-06-17T08:10:40Z</time>
      </trkpt>
      <trkpt lat="43.1637480" lon="-5.9056570">
        <ele>1276.8</ele>
        <time>2018-06-17T08:10:47Z</time>
      </trkpt>
      <trkpt lat="43.1638610" lon="-5.9056350">
        <ele>1278.0</ele>
        <time>2018-06-17T08:10:52Z</time>
      </trkpt>
      <trkpt lat="43.1640050" lon="-5.9056390">
        <ele>1279.2</ele>
        <time>2018-06-17T08:10:58Z</time>
      </trkpt>
      <trkpt lat="43.1641580" lon="-5.9055460">
        <ele>1280.2</ele>
        <time>2018-06-17T08:11:05Z</time>
      </trkpt>
      <trkpt lat="43.1642700" lon="-5.9054380">
        <ele>1281.4</ele>
        <time>2018-06-17T08:11:11Z</time>
      </trkpt>
      <trkpt lat="43.1643650" lon="-5.9053480">
        <ele>1282.4</ele>
        <time>2018-06-17T08:11:16Z</time>
      </trkpt>
      <trkpt lat="43.1644460" lon="-5.9052750">
        <ele>1283.6</ele>
        <time>2018-06-17T08:11:20Z</time>
      </trkpt>
      <trkpt lat="43.1645400" lon="-5.9051790">
        <ele>1284.8</ele>
        <time>2018-06-17T08:11:25Z</time>
      </trkpt>
      <trkpt lat="43.1646020" lon="-5.9050860">
        <ele>1285.8</ele>
        <time>2018-06-17T08:11:29Z</time>
      </trkpt>
      <trkpt lat="43.1646570" lon="-5.9049900">
        <ele>1287.2</ele>
        <time>2018-06-17T08:11:33Z</time>
      </trkpt>
      <trkpt lat="43.1646810" lon="-5.9049430">
        <ele>1287.6</ele>
        <time>2018-06-17T08:11:35Z</time>
      </trkpt>
      <trkpt lat="43.1647050" lon="-5.9048960">
        <ele>1288.2</ele>
        <time>2018-06-17T08:11:37Z</time>
      </trkpt>
      <trkpt lat="43.1647650" lon="-5.9047710">
        <ele>1289.0</ele>
        <time>2018-06-17T08:11:42Z</time>
      </trkpt>
      <trkpt lat="43.1648180" lon="-5.9046400">
        <ele>1290.2</ele>
        <time>2018-06-17T08:11:47Z</time>
      </trkpt>
      <trkpt lat="43.1648560" lon="-5.9045330">
        <ele>1291.4</ele>
        <time>2018-06-17T08:11:51Z</time>
      </trkpt>
      <trkpt lat="43.1648920" lon="-5.9044290">
        <ele>1292.6</ele>
        <time>2018-06-17T08:11:55Z</time>
      </trkpt>
      <trkpt lat="43.1649340" lon="-5.9043010">
        <ele>1293.8</ele>
        <time>2018-06-17T08:12:00Z</time>
      </trkpt>
      <trkpt lat="43.1649700" lon="-5.9041970">
        <ele>1294.8</ele>
        <time>2018-06-17T08:12:04Z</time>
      </trkpt>
      <trkpt lat="43.1650010" lon="-5.9040920">
        <ele>1296.0</ele>
        <time>2018-06-17T08:12:08Z</time>
      </trkpt>
      <trkpt lat="43.1650360" lon="-5.9039610">
        <ele>1297.2</ele>
        <time>2018-06-17T08:12:13Z</time>
      </trkpt>
      <trkpt lat="43.1650740" lon="-5.9038310">
        <ele>1298.2</ele>
        <time>2018-06-17T08:12:18Z</time>
      </trkpt>
      <trkpt lat="43.1651110" lon="-5.9037040">
        <ele>1299.6</ele>
        <time>2018-06-17T08:12:23Z</time>
      </trkpt>
      <trkpt lat="43.1651610" lon="-5.9035610">
        <ele>1300.8</ele>
        <time>2018-06-17T08:12:29Z</time>
      </trkpt>
      <trkpt lat="43.1651970" lon="-5.9034310">
        <ele>1302.0</ele>
        <time>2018-06-17T08:12:34Z</time>
      </trkpt>
      <trkpt lat="43.1652330" lon="-5.9033270">
        <ele>1303.0</ele>
        <time>2018-06-17T08:12:38Z</time>
      </trkpt>
      <trkpt lat="43.1652690" lon="-5.9032100">
        <ele>1304.2</ele>
        <time>2018-06-17T08:12:43Z</time>
      </trkpt>
      <trkpt lat="43.1652890" lon="-5.9031430">
        <ele>1305.0</ele>
        <time>2018-06-17T08:12:46Z</time>
      </trkpt>
      <trkpt lat="43.1652920" lon="-5.9031250">
        <ele>1305.2</ele>
        <time>2018-06-17T08:12:47Z</time>
      </trkpt>
      <trkpt lat="43.1653540" lon="-5.9029610">
        <ele>1306.4</ele>
        <time>2018-06-17T08:12:53Z</time>
      </trkpt>
      <trkpt lat="43.1653840" lon="-5.9028690">
        <ele>1307.4</ele>
        <time>2018-06-17T08:12:57Z</time>
      </trkpt>
      <trkpt lat="43.1654270" lon="-5.9027540">
        <ele>1308.6</ele>
        <time>2018-06-17T08:13:02Z</time>
      </trkpt>
      <trkpt lat="43.1654720" lon="-5.9026420">
        <ele>1309.6</ele>
        <time>2018-06-17T08:13:07Z</time>
      </trkpt>
      <trkpt lat="43.1655110" lon="-5.9025270">
        <ele>1311.0</ele>
        <time>2018-06-17T08:13:11Z</time>
      </trkpt>
      <trkpt lat="43.1655380" lon="-5.9024040">
        <ele>1312.2</ele>
        <time>2018-06-17T08:13:15Z</time>
      </trkpt>
      <trkpt lat="43.1655300" lon="-5.9023080">
        <ele>1313.2</ele>
        <time>2018-06-17T08:13:18Z</time>
      </trkpt>
      <trkpt lat="43.1655130" lon="-5.9021820">
        <ele>1314.2</ele>
        <time>2018-06-17T08:13:22Z</time>
      </trkpt>
      <trkpt lat="43.1654830" lon="-5.9020100">
        <ele>1315.2</ele>
        <time>2018-06-17T08:13:28Z</time>
      </trkpt>
      <trkpt lat="43.1655430" lon="-5.9018170">
        <ele>1316.4</ele>
        <time>2018-06-17T08:13:35Z</time>
      </trkpt>
      <trkpt lat="43.1656510" lon="-5.9016720">
        <ele>1317.2</ele>
        <time>2018-06-17T08:13:41Z</time>
      </trkpt>
      <trkpt lat="43.1657700" lon="-5.9015370">
        <ele>1318.2</ele>
        <time>2018-06-17T08:13:47Z</time>
      </trkpt>
      <trkpt lat="43.1659300" lon="-5.9013970">
        <ele>1319.2</ele>
        <time>2018-06-17T08:13:54Z</time>
      </trkpt>
      <trkpt lat="43.1660240" lon="-5.9013330">
        <ele>1320.0</ele>
        <time>2018-06-17T08:13:58Z</time>
      </trkpt>
      <trkpt lat="43.1660980" lon="-5.9012930">
        <ele>1320.4</ele>
        <time>2018-06-17T08:14:01Z</time>
      </trkpt>
      <trkpt lat="43.1662240" lon="-5.9012330">
        <ele>1321.4</ele>
        <time>2018-06-17T08:14:06Z</time>
      </trkpt>
      <trkpt lat="43.1662500" lon="-5.9012220">
        <ele>1321.8</ele>
        <time>2018-06-17T08:14:07Z</time>
      </trkpt>
      <trkpt lat="43.1663840" lon="-5.9011670">
        <ele>1322.6</ele>
        <time>2018-06-17T08:14:12Z</time>
      </trkpt>
      <trkpt lat="43.1666040" lon="-5.9010180">
        <ele>1323.8</ele>
        <time>2018-06-17T08:14:21Z</time>
      </trkpt>
      <trkpt lat="43.1667650" lon="-5.9008740">
        <ele>1324.8</ele>
        <time>2018-06-17T08:14:28Z</time>
      </trkpt>
      <trkpt lat="43.1668780" lon="-5.9007550">
        <ele>1326.0</ele>
        <time>2018-06-17T08:14:33Z</time>
      </trkpt>
      <trkpt lat="43.1670200" lon="-5.9006700">
        <ele>1327.2</ele>
        <time>2018-06-17T08:14:39Z</time>
      </trkpt>
      <trkpt lat="43.1671210" lon="-5.9008130">
        <ele>1328.2</ele>
        <time>2018-06-17T08:14:45Z</time>
      </trkpt>
      <trkpt lat="43.1671590" lon="-5.9009850">
        <ele>1329.6</ele>
        <time>2018-06-17T08:14:50Z</time>
      </trkpt>
      <trkpt lat="43.1671650" lon="-5.9012020">
        <ele>1330.8</ele>
        <time>2018-06-17T08:14:56Z</time>
      </trkpt>
      <trkpt lat="43.1671490" lon="-5.9013930">
        <ele>1331.8</ele>
        <time>2018-06-17T08:15:01Z</time>
      </trkpt>
      <trkpt lat="43.1671890" lon="-5.9017530">
        <ele>1332.8</ele>
        <time>2018-06-17T08:15:10Z</time>
      </trkpt>
      <trkpt lat="43.1673590" lon="-5.9017540">
        <ele>1333.2</ele>
        <time>2018-06-17T08:15:16Z</time>
      </trkpt>
      <trkpt lat="43.1674670" lon="-5.9017070">
        <ele>1333.8</ele>
        <time>2018-06-17T08:15:20Z</time>
      </trkpt>
      <trkpt lat="43.1675890" lon="-5.9015990">
        <ele>1334.8</ele>
        <time>2018-06-17T08:15:25Z</time>
      </trkpt>
      <trkpt lat="43.1676960" lon="-5.9014900">
        <ele>1335.6</ele>
        <time>2018-06-17T08:15:30Z</time>
      </trkpt>
      <trkpt lat="43.1677500" lon="-5.9014360">
        <ele>1336.0</ele>
        <time>2018-06-17T08:15:33Z</time>
      </trkpt>
      <trkpt lat="43.1678290" lon="-5.9013660">
        <ele>1337.0</ele>
        <time>2018-06-17T08:15:37Z</time>
      </trkpt>
      <trkpt lat="43.1679210" lon="-5.9012820">
        <ele>1338.0</ele>
        <time>2018-06-17T08:15:42Z</time>
      </trkpt>
      <trkpt lat="43.1679410" lon="-5.9012670">
        <ele>1338.2</ele>
        <time>2018-06-17T08:15:43Z</time>
      </trkpt>
      <trkpt lat="43.1680160" lon="-5.9012090">
        <ele>1339.6</ele>
        <time>2018-06-17T08:15:47Z</time>
      </trkpt>
      <trkpt lat="43.1680730" lon="-5.9011710">
        <ele>1340.6</ele>
        <time>2018-06-17T08:15:50Z</time>
      </trkpt>
      <trkpt lat="43.1681320" lon="-5.9011350">
        <ele>1341.8</ele>
        <time>2018-06-17T08:15:53Z</time>
      </trkpt>
      <trkpt lat="43.1681720" lon="-5.9011100">
        <ele>1342.2</ele>
        <time>2018-06-17T08:15:55Z</time>
      </trkpt>
      <trkpt lat="43.1682330" lon="-5.9010760">
        <ele>1343.0</ele>
        <time>2018-06-17T08:15:58Z</time>
      </trkpt>
      <trkpt lat="43.1683150" lon="-5.9010440">
        <ele>1344.2</ele>
        <time>2018-06-17T08:16:02Z</time>
      </trkpt>
      <trkpt lat="43.1683990" lon="-5.9010210">
        <ele>1345.2</ele>
        <time>2018-06-17T08:16:06Z</time>
      </trkpt>
      <trkpt lat="43.1685060" lon="-5.9010050">
        <ele>1346.4</ele>
        <time>2018-06-17T08:16:11Z</time>
      </trkpt>
      <trkpt lat="43.1686100" lon="-5.9009930">
        <ele>1347.6</ele>
        <time>2018-06-17T08:16:16Z</time>
      </trkpt>
      <trkpt lat="43.1687150" lon="-5.9009930">
        <ele>1348.4</ele>
        <time>2018-06-17T08:16:21Z</time>
      </trkpt>
      <trkpt lat="43.1687950" lon="-5.9010240">
        <ele>1349.8</ele>
        <time>2018-06-17T08:16:25Z</time>
      </trkpt>
      <trkpt lat="43.1688930" lon="-5.9011500">
        <ele>1351.0</ele>
        <time>2018-06-17T08:16:31Z</time>
      </trkpt>
      <trkpt lat="43.1690020" lon="-5.9012780">
        <ele>1352.0</ele>
        <time>2018-06-17T08:16:38Z</time>
      </trkpt>
      <trkpt lat="43.1690940" lon="-5.9013520">
        <ele>1353.2</ele>
        <time>2018-06-17T08:16:43Z</time>
      </trkpt>
      <trkpt lat="43.1691650" lon="-5.9014210">
        <ele>1354.2</ele>
        <time>2018-06-17T08:16:47Z</time>
      </trkpt>
      <trkpt lat="43.1692320" lon="-5.9015000">
        <ele>1355.2</ele>
        <time>2018-06-17T08:16:51Z</time>
      </trkpt>
      <trkpt lat="43.1693090" lon="-5.9016070">
        <ele>1356.2</ele>
        <time>2018-06-17T08:16:56Z</time>
      </trkpt>
      <trkpt lat="43.1693610" lon="-5.9017050">
        <ele>1357.2</ele>
        <time>2018-06-17T08:17:00Z</time>
      </trkpt>
      <trkpt lat="43.1694230" lon="-5.9018290">
        <ele>1358.4</ele>
        <time>2018-06-17T08:17:05Z</time>
      </trkpt>
      <trkpt lat="43.1694950" lon="-5.9020030">
        <ele>1359.6</ele>
        <time>2018-06-17T08:17:12Z</time>
      </trkpt>
      <trkpt lat="43.1695030" lon="-5.9021530">
        <ele>1360.6</ele>
        <time>2018-06-17T08:17:17Z</time>
      </trkpt>
      <trkpt lat="43.1694830" lon="-5.9022730">
        <ele>1361.6</ele>
        <time>2018-06-17T08:17:21Z</time>
      </trkpt>
      <trkpt lat="43.1694850" lon="-5.9024260">
        <ele>1362.6</ele>
        <time>2018-06-17T08:17:26Z</time>
      </trkpt>
      <trkpt lat="43.1695290" lon="-5.9025510">
        <ele>1363.6</ele>
        <time>2018-06-17T08:17:31Z</time>
      </trkpt>
      <trkpt lat="43.1695550" lon="-5.9026480">
        <ele>1364.8</ele>
        <time>2018-06-17T08:17:35Z</time>
      </trkpt>
      <trkpt lat="43.1695510" lon="-5.9027790">
        <ele>1366.0</ele>
        <time>2018-06-17T08:17:40Z</time>
      </trkpt>
      <trkpt lat="43.1695240" lon="-5.9028910">
        <ele>1367.2</ele>
        <time>2018-06-17T08:17:44Z</time>
      </trkpt>
      <trkpt lat="43.1694790" lon="-5.9030200">
        <ele>1368.2</ele>
        <time>2018-06-17T08:17:49Z</time>
      </trkpt>
      <trkpt lat="43.1694340" lon="-5.9031480">
        <ele>1369.4</ele>
        <time>2018-06-17T08:17:54Z</time>
      </trkpt>
      <trkpt lat="43.1694220" lon="-5.9032590">
        <ele>1370.4</ele>
        <time>2018-06-17T08:17:58Z</time>
      </trkpt>
      <trkpt lat="43.1694270" lon="-5.9033700">
        <ele>1371.4</ele>
        <time>2018-06-17T08:18:02Z</time>
      </trkpt>
      <trkpt lat="43.1694600" lon="-5.9035320">
        <ele>1372.6</ele>
        <time>2018-06-17T08:18:08Z</time>
      </trkpt>
      <trkpt lat="43.1694870" lon="-5.9036350">
        <ele>1373.6</ele>
        <time>2018-06-17T08:18:12Z</time>
      </trkpt>
      <trkpt lat="43.1695120" lon="-5.9037250">
        <ele>1374.8</ele>
        <time>2018-06-17T08:18:16Z</time>
      </trkpt>
      <trkpt lat="43.1695510" lon="-5.9038690">
        <ele>1376.0</ele>
        <time>2018-06-17T08:18:22Z</time>
      </trkpt>
      <trkpt lat="43.1695750" lon="-5.9039780">
        <ele>1376.8</ele>
        <time>2018-06-17T08:18:26Z</time>
      </trkpt>
      <trkpt lat="43.1696170" lon="-5.9041060">
        <ele>1378.0</ele>
        <time>2018-06-17T08:18:31Z</time>
      </trkpt>
      <trkpt lat="43.1696360" lon="-5.9042020">
        <ele>1379.0</ele>
        <time>2018-06-17T08:18:35Z</time>
      </trkpt>
      <trkpt lat="43.1696670" lon="-5.9042960">
        <ele>1380.2</ele>
        <time>2018-06-17T08:18:39Z</time>
      </trkpt>
      <trkpt lat="43.1696920" lon="-5.9044010">
        <ele>1381.4</ele>
        <time>2018-06-17T08:18:43Z</time>
      </trkpt>
      <trkpt lat="43.1697360" lon="-5.9045250">
        <ele>1382.6</ele>
        <time>2018-06-17T08:18:48Z</time>
      </trkpt>
      <trkpt lat="43.1697800" lon="-5.9046390">
        <ele>1383.6</ele>
        <time>2018-06-17T08:18:53Z</time>
      </trkpt>
      <trkpt lat="43.1698280" lon="-5.9047550">
        <ele>1384.6</ele>
        <time>2018-06-17T08:18:58Z</time>
      </trkpt>
      <trkpt lat="43.1698850" lon="-5.9048840">
        <ele>1385.8</ele>
        <time>2018-06-17T08:19:04Z</time>
      </trkpt>
      <trkpt lat="43.1699260" lon="-5.9050060">
        <ele>1386.8</ele>
        <time>2018-06-17T08:19:09Z</time>
      </trkpt>
      <trkpt lat="43.1699710" lon="-5.9051230">
        <ele>1388.0</ele>
        <time>2018-06-17T08:19:14Z</time>
      </trkpt>
      <trkpt lat="43.1700030" lon="-5.9052050">
        <ele>1389.2</ele>
        <time>2018-06-17T08:19:18Z</time>
      </trkpt>
      <trkpt lat="43.1700450" lon="-5.9053120">
        <ele>1390.4</ele>
        <time>2018-06-17T08:19:23Z</time>
      </trkpt>
      <trkpt lat="43.1700770" lon="-5.9054140">
        <ele>1391.6</ele>
        <time>2018-06-17T08:19:28Z</time>
      </trkpt>
      <trkpt lat="43.1701060" lon="-5.9055040">
        <ele>1392.8</ele>
        <time>2018-06-17T08:19:32Z</time>
      </trkpt>
      <trkpt lat="43.1701490" lon="-5.9056110">
        <ele>1393.6</ele>
        <time>2018-06-17T08:19:37Z</time>
      </trkpt>
      <trkpt lat="43.1701830" lon="-5.9057160">
        <ele>1395.0</ele>
        <time>2018-06-17T08:19:42Z</time>
      </trkpt>
      <trkpt lat="43.1702150" lon="-5.9058030">
        <ele>1396.0</ele>
        <time>2018-06-17T08:19:46Z</time>
      </trkpt>
      <trkpt lat="43.1702700" lon="-5.9059030">
        <ele>1397.0</ele>
        <time>2018-06-17T08:19:51Z</time>
      </trkpt>
      <trkpt lat="43.1703170" lon="-5.9059820">
        <ele>1398.2</ele>
        <time>2018-06-17T08:19:55Z</time>
      </trkpt>
      <trkpt lat="43.1703860" lon="-5.9060940">
        <ele>1399.2</ele>
        <time>2018-06-17T08:20:01Z</time>
      </trkpt>
      <trkpt lat="43.1704620" lon="-5.9061890">
        <ele>1400.4</ele>
        <time>2018-06-17T08:20:07Z</time>
      </trkpt>
      <trkpt lat="43.1705280" lon="-5.9062710">
        <ele>1401.6</ele>
        <time>2018-06-17T08:20:12Z</time>
      </trkpt>
      <trkpt lat="43.1705900" lon="-5.9063670">
        <ele>1402.8</ele>
        <time>2018-06-17T08:20:17Z</time>
      </trkpt>
      <trkpt lat="43.1706360" lon="-5.9064430">
        <ele>1404.0</ele>
        <time>2018-06-17T08:20:21Z</time>
      </trkpt>
      <trkpt lat="43.1706840" lon="-5.9065460">
        <ele>1405.0</ele>
        <time>2018-06-17T08:20:26Z</time>
      </trkpt>
      <trkpt lat="43.1707300" lon="-5.9066230">
        <ele>1406.0</ele>
        <time>2018-06-17T08:20:30Z</time>
      </trkpt>
      <trkpt lat="43.1707900" lon="-5.9066950">
        <ele>1407.4</ele>
        <time>2018-06-17T08:20:35Z</time>
      </trkpt>
      <trkpt lat="43.1708530" lon="-5.9067700">
        <ele>1408.4</ele>
        <time>2018-06-17T08:20:40Z</time>
      </trkpt>
      <trkpt lat="43.1709030" lon="-5.9068330">
        <ele>1409.4</ele>
        <time>2018-06-17T08:20:44Z</time>
      </trkpt>
      <trkpt lat="43.1709630" lon="-5.9068920">
        <ele>1410.4</ele>
        <time>2018-06-17T08:20:48Z</time>
      </trkpt>
      <trkpt lat="43.1710090" lon="-5.9069570">
        <ele>1411.4</ele>
        <time>2018-06-17T08:20:52Z</time>
      </trkpt>
      <trkpt lat="43.1710480" lon="-5.9070810">
        <ele>1412.6</ele>
        <time>2018-06-17T08:20:57Z</time>
      </trkpt>
      <trkpt lat="43.1710660" lon="-5.9071750">
        <ele>1413.8</ele>
        <time>2018-06-17T08:21:01Z</time>
      </trkpt>
      <trkpt lat="43.1710680" lon="-5.9072640">
        <ele>1415.0</ele>
        <time>2018-06-17T08:21:05Z</time>
      </trkpt>
      <trkpt lat="43.1710570" lon="-5.9073500">
        <ele>1416.0</ele>
        <time>2018-06-17T08:21:09Z</time>
      </trkpt>
      <trkpt lat="43.1710510" lon="-5.9074640">
        <ele>1417.0</ele>
        <time>2018-06-17T08:21:14Z</time>
      </trkpt>
      <trkpt lat="43.1710470" lon="-5.9075690">
        <ele>1418.0</ele>
        <time>2018-06-17T08:21:19Z</time>
      </trkpt>
      <trkpt lat="43.1710510" lon="-5.9076520">
        <ele>1419.4</ele>
        <time>2018-06-17T08:21:23Z</time>
      </trkpt>
      <trkpt lat="43.1710540" lon="-5.9077380">
        <ele>1420.4</ele>
        <time>2018-06-17T08:21:27Z</time>
      </trkpt>
      <trkpt lat="43.1710470" lon="-5.9078290">
        <ele>1421.6</ele>
        <time>2018-06-17T08:21:31Z</time>
      </trkpt>
      <trkpt lat="43.1710500" lon="-5.9079350">
        <ele>1422.6</ele>
        <time>2018-06-17T08:21:36Z</time>
      </trkpt>
      <trkpt lat="43.1710570" lon="-5.9080640">
        <ele>1423.8</ele>
        <time>2018-06-17T08:21:42Z</time>
      </trkpt>
      <trkpt lat="43.1710540" lon="-5.9081490">
        <ele>1424.8</ele>
        <time>2018-06-17T08:21:46Z</time>
      </trkpt>
      <trkpt lat="43.1710480" lon="-5.9082600">
        <ele>1425.8</ele>
        <time>2018-06-17T08:21:51Z</time>
      </trkpt>
      <trkpt lat="43.1710380" lon="-5.9083680">
        <ele>1426.8</ele>
        <time>2018-06-17T08:21:56Z</time>
      </trkpt>
      <trkpt lat="43.1710260" lon="-5.9084610">
        <ele>1428.0</ele>
        <time>2018-06-17T08:22:00Z</time>
      </trkpt>
      <trkpt lat="43.1710150" lon="-5.9085760">
        <ele>1429.0</ele>
        <time>2018-06-17T08:22:05Z</time>
      </trkpt>
      <trkpt lat="43.1709980" lon="-5.9086920">
        <ele>1430.2</ele>
        <time>2018-06-17T08:22:10Z</time>
      </trkpt>
      <trkpt lat="43.1709920" lon="-5.9088100">
        <ele>1431.4</ele>
        <time>2018-06-17T08:22:15Z</time>
      </trkpt>
      <trkpt lat="43.1710090" lon="-5.9089290">
        <ele>1432.4</ele>
        <time>2018-06-17T08:22:20Z</time>
      </trkpt>
      <trkpt lat="43.1710280" lon="-5.9090220">
        <ele>1433.6</ele>
        <time>2018-06-17T08:22:24Z</time>
      </trkpt>
      <trkpt lat="43.1710540" lon="-5.9091410">
        <ele>1434.6</ele>
        <time>2018-06-17T08:22:29Z</time>
      </trkpt>
      <trkpt lat="43.1710770" lon="-5.9092350">
        <ele>1435.8</ele>
        <time>2018-06-17T08:22:33Z</time>
      </trkpt>
      <trkpt lat="43.1711080" lon="-5.9093520">
        <ele>1437.0</ele>
        <time>2018-06-17T08:22:38Z</time>
      </trkpt>
      <trkpt lat="43.1711600" lon="-5.9094870">
        <ele>1438.2</ele>
        <time>2018-06-17T08:22:44Z</time>
      </trkpt>
      <trkpt lat="43.1712290" lon="-5.9095760">
        <ele>1439.4</ele>
        <time>2018-06-17T08:22:49Z</time>
      </trkpt>
      <trkpt lat="43.1712910" lon="-5.9096290">
        <ele>1440.4</ele>
        <time>2018-06-17T08:22:53Z</time>
      </trkpt>
      <trkpt lat="43.1713540" lon="-5.9096830">
        <ele>1441.6</ele>
        <time>2018-06-17T08:22:57Z</time>
      </trkpt>
      <trkpt lat="43.1714020" lon="-5.9097600">
        <ele>1442.6</ele>
        <time>2018-06-17T08:23:01Z</time>
      </trkpt>
      <trkpt lat="43.1714520" lon="-5.9098820">
        <ele>1443.6</ele>
        <time>2018-06-17T08:23:06Z</time>
      </trkpt>
      <trkpt lat="43.1714840" lon="-5.9100310">
        <ele>1444.6</ele>
        <time>2018-06-17T08:23:11Z</time>
      </trkpt>
      <trkpt lat="43.1712670" lon="-5.9105780">
        <ele>1445.2</ele>
        <time>2018-06-17T08:23:26Z</time>
      </trkpt>
      <trkpt lat="43.1712660" lon="-5.9107330">
        <ele>1445.8</ele>
        <time>2018-06-17T08:23:30Z</time>
      </trkpt>
      <trkpt lat="43.1712770" lon="-5.9108500">
        <ele>1446.2</ele>
        <time>2018-06-17T08:23:33Z</time>
      </trkpt>
      <trkpt lat="43.1713040" lon="-5.9109970">
        <ele>1446.8</ele>
        <time>2018-06-17T08:23:37Z</time>
      </trkpt>
      <trkpt lat="43.1713530" lon="-5.9111730">
        <ele>1447.6</ele>
        <time>2018-06-17T08:23:42Z</time>
      </trkpt>
      <trkpt lat="43.1714210" lon="-5.9114160">
        <ele>1448.8</ele>
        <time>2018-06-17T08:23:49Z</time>
      </trkpt>
      <trkpt lat="43.1714810" lon="-5.9115740">
        <ele>1450.0</ele>
        <time>2018-06-17T08:23:54Z</time>
      </trkpt>
      <trkpt lat="43.1715470" lon="-5.9117120">
        <ele>1451.2</ele>
        <time>2018-06-17T08:23:59Z</time>
      </trkpt>
      <trkpt lat="43.1716100" lon="-5.9118360">
        <ele>1452.2</ele>
        <time>2018-06-17T08:24:04Z</time>
      </trkpt>
      <trkpt lat="43.1716550" lon="-5.9119470">
        <ele>1453.4</ele>
        <time>2018-06-17T08:24:08Z</time>
      </trkpt>
      <trkpt lat="43.1717150" lon="-5.9120770">
        <ele>1454.4</ele>
        <time>2018-06-17T08:24:13Z</time>
      </trkpt>
      <trkpt lat="43.1717710" lon="-5.9122020">
        <ele>1455.4</ele>
        <time>2018-06-17T08:24:18Z</time>
      </trkpt>
      <trkpt lat="43.1718200" lon="-5.9122940">
        <ele>1456.4</ele>
        <time>2018-06-17T08:24:22Z</time>
      </trkpt>
      <trkpt lat="43.1718980" lon="-5.9124140">
        <ele>1457.6</ele>
        <time>2018-06-17T08:24:28Z</time>
      </trkpt>
      <trkpt lat="43.1719470" lon="-5.9124740">
        <ele>1458.8</ele>
        <time>2018-06-17T08:24:31Z</time>
      </trkpt>
      <trkpt lat="43.1720280" lon="-5.9125650">
        <ele>1459.8</ele>
        <time>2018-06-17T08:24:36Z</time>
      </trkpt>
      <trkpt lat="43.1720920" lon="-5.9126450">
        <ele>1460.8</ele>
        <time>2018-06-17T08:24:40Z</time>
      </trkpt>
      <trkpt lat="43.1721930" lon="-5.9127550">
        <ele>1462.0</ele>
        <time>2018-06-17T08:24:46Z</time>
      </trkpt>
      <trkpt lat="43.1722970" lon="-5.9128690">
        <ele>1463.2</ele>
        <time>2018-06-17T08:24:52Z</time>
      </trkpt>
      <trkpt lat="43.1723650" lon="-5.9129360">
        <ele>1464.4</ele>
        <time>2018-06-17T08:24:56Z</time>
      </trkpt>
      <trkpt lat="43.1724780" lon="-5.9130300">
        <ele>1465.4</ele>
        <time>2018-06-17T08:25:02Z</time>
      </trkpt>
      <trkpt lat="43.1725540" lon="-5.9130800">
        <ele>1466.6</ele>
        <time>2018-06-17T08:25:06Z</time>
      </trkpt>
      <trkpt lat="43.1726670" lon="-5.9131700">
        <ele>1467.6</ele>
        <time>2018-06-17T08:25:12Z</time>
      </trkpt>
      <trkpt lat="43.1727430" lon="-5.9132490">
        <ele>1468.8</ele>
        <time>2018-06-17T08:25:17Z</time>
      </trkpt>
      <trkpt lat="43.1728570" lon="-5.9133410">
        <ele>1470.0</ele>
        <time>2018-06-17T08:25:23Z</time>
      </trkpt>
      <trkpt lat="43.1730040" lon="-5.9134120">
        <ele>1471.0</ele>
        <time>2018-06-17T08:25:29Z</time>
      </trkpt>
      <trkpt lat="43.1732150" lon="-5.9134510">
        <ele>1472.0</ele>
        <time>2018-06-17T08:25:37Z</time>
      </trkpt>
      <trkpt lat="43.1733340" lon="-5.9134720">
        <ele>1473.0</ele>
        <time>2018-06-17T08:25:42Z</time>
      </trkpt>
      <trkpt lat="43.1734160" lon="-5.9134990">
        <ele>1474.0</ele>
        <time>2018-06-17T08:25:46Z</time>
      </trkpt>
      <trkpt lat="43.1734930" lon="-5.9135340">
        <ele>1475.0</ele>
        <time>2018-06-17T08:25:50Z</time>
      </trkpt>
      <trkpt lat="43.1735690" lon="-5.9136160">
        <ele>1476.2</ele>
        <time>2018-06-17T08:25:55Z</time>
      </trkpt>
      <trkpt lat="43.1736190" lon="-5.9137020">
        <ele>1477.4</ele>
        <time>2018-06-17T08:25:59Z</time>
      </trkpt>
      <trkpt lat="43.1736610" lon="-5.9137930">
        <ele>1478.6</ele>
        <time>2018-06-17T08:26:03Z</time>
      </trkpt>
      <trkpt lat="43.1737020" lon="-5.9138810">
        <ele>1479.6</ele>
        <time>2018-06-17T08:26:07Z</time>
      </trkpt>
      <trkpt lat="43.1737430" lon="-5.9139740">
        <ele>1480.6</ele>
        <time>2018-06-17T08:26:11Z</time>
      </trkpt>
      <trkpt lat="43.1737840" lon="-5.9140620">
        <ele>1481.6</ele>
        <time>2018-06-17T08:26:15Z</time>
      </trkpt>
      <trkpt lat="43.1738320" lon="-5.9141710">
        <ele>1482.8</ele>
        <time>2018-06-17T08:26:20Z</time>
      </trkpt>
      <trkpt lat="43.1738830" lon="-5.9142750">
        <ele>1483.8</ele>
        <time>2018-06-17T08:26:25Z</time>
      </trkpt>
      <trkpt lat="43.1738920" lon="-5.9142970">
        <ele>1484.2</ele>
        <time>2018-06-17T08:26:26Z</time>
      </trkpt>
      <trkpt lat="43.1739190" lon="-5.9143650">
        <ele>1485.0</ele>
        <time>2018-06-17T08:26:29Z</time>
      </trkpt>
      <trkpt lat="43.1739740" lon="-5.9144690">
        <ele>1486.2</ele>
        <time>2018-06-17T08:26:34Z</time>
      </trkpt>
      <trkpt lat="43.1740250" lon="-5.9145810">
        <ele>1487.4</ele>
        <time>2018-06-17T08:26:39Z</time>
      </trkpt>
      <trkpt lat="43.1740650" lon="-5.9146720">
        <ele>1488.4</ele>
        <time>2018-06-17T08:26:43Z</time>
      </trkpt>
      <trkpt lat="43.1741080" lon="-5.9147590">
        <ele>1489.6</ele>
        <time>2018-06-17T08:26:47Z</time>
      </trkpt>
      <trkpt lat="43.1741590" lon="-5.9148700">
        <ele>1490.8</ele>
        <time>2018-06-17T08:26:52Z</time>
      </trkpt>
      <trkpt lat="43.1742050" lon="-5.9149840">
        <ele>1492.0</ele>
        <time>2018-06-17T08:26:57Z</time>
      </trkpt>
      <trkpt lat="43.1742570" lon="-5.9150960">
        <ele>1492.8</ele>
        <time>2018-06-17T08:27:02Z</time>
      </trkpt>
      <trkpt lat="43.1742960" lon="-5.9151900">
        <ele>1494.0</ele>
        <time>2018-06-17T08:27:06Z</time>
      </trkpt>
      <trkpt lat="43.1743460" lon="-5.9153040">
        <ele>1495.0</ele>
        <time>2018-06-17T08:27:11Z</time>
      </trkpt>
      <trkpt lat="43.1744010" lon="-5.9154510">
        <ele>1496.0</ele>
        <time>2018-06-17T08:27:17Z</time>
      </trkpt>
      <trkpt lat="43.1744360" lon="-5.9155830">
        <ele>1497.0</ele>
        <time>2018-06-17T08:27:22Z</time>
      </trkpt>
      <trkpt lat="43.1744620" lon="-5.9157420">
        <ele>1498.0</ele>
        <time>2018-06-17T08:27:28Z</time>
      </trkpt>
      <trkpt lat="43.1744730" lon="-5.9158790">
        <ele>1499.2</ele>
        <time>2018-06-17T08:27:33Z</time>
      </trkpt>
      <trkpt lat="43.1744780" lon="-5.9160730">
        <ele>1500.2</ele>
        <time>2018-06-17T08:27:40Z</time>
      </trkpt>
      <trkpt lat="43.1744870" lon="-5.9162760">
        <ele>1501.2</ele>
        <time>2018-06-17T08:27:47Z</time>
      </trkpt>
      <trkpt lat="43.1745440" lon="-5.9164600">
        <ele>1502.2</ele>
        <time>2018-06-17T08:27:54Z</time>
      </trkpt>
      <trkpt lat="43.1746170" lon="-5.9165970">
        <ele>1503.4</ele>
        <time>2018-06-17T08:28:00Z</time>
      </trkpt>
      <trkpt lat="43.1746950" lon="-5.9167300">
        <ele>1504.4</ele>
        <time>2018-06-17T08:28:06Z</time>
      </trkpt>
      <trkpt lat="43.1747510" lon="-5.9168460">
        <ele>1505.8</ele>
        <time>2018-06-17T08:28:11Z</time>
      </trkpt>
      <trkpt lat="43.1748060" lon="-5.9169560">
        <ele>1506.8</ele>
        <time>2018-06-17T08:28:16Z</time>
      </trkpt>
      <trkpt lat="43.1748740" lon="-5.9170830">
        <ele>1508.0</ele>
        <time>2018-06-17T08:28:22Z</time>
      </trkpt>
      <trkpt lat="43.1749250" lon="-5.9171990">
        <ele>1509.2</ele>
        <time>2018-06-17T08:28:27Z</time>
      </trkpt>
      <trkpt lat="43.1749740" lon="-5.9173510">
        <ele>1510.4</ele>
        <time>2018-06-17T08:28:33Z</time>
      </trkpt>
      <trkpt lat="43.1750050" lon="-5.9174830">
        <ele>1511.6</ele>
        <time>2018-06-17T08:28:38Z</time>
      </trkpt>
      <trkpt lat="43.1750340" lon="-5.9176690">
        <ele>1512.6</ele>
        <time>2018-06-17T08:28:44Z</time>
      </trkpt>
      <trkpt lat="43.1750930" lon="-5.9178750">
        <ele>1513.6</ele>
        <time>2018-06-17T08:28:51Z</time>
      </trkpt>
      <trkpt lat="43.1751740" lon="-5.9179830">
        <ele>1514.8</ele>
        <time>2018-06-17T08:28:56Z</time>
      </trkpt>
      <trkpt lat="43.1752390" lon="-5.9180450">
        <ele>1515.8</ele>
        <time>2018-06-17T08:29:00Z</time>
      </trkpt>
      <trkpt lat="43.1753060" lon="-5.9181000">
        <ele>1517.0</ele>
        <time>2018-06-17T08:29:04Z</time>
      </trkpt>
      <trkpt lat="43.1753930" lon="-5.9181500">
        <ele>1518.0</ele>
        <time>2018-06-17T08:29:09Z</time>
      </trkpt>
      <trkpt lat="43.1754820" lon="-5.9181860">
        <ele>1519.2</ele>
        <time>2018-06-17T08:29:14Z</time>
      </trkpt>
      <trkpt lat="43.1755670" lon="-5.9182220">
        <ele>1520.6</ele>
        <time>2018-06-17T08:29:19Z</time>
      </trkpt>
      <trkpt lat="43.1756480" lon="-5.9182620">
        <ele>1521.8</ele>
        <time>2018-06-17T08:29:24Z</time>
      </trkpt>
      <trkpt lat="43.1757320" lon="-5.9182950">
        <ele>1522.8</ele>
        <time>2018-06-17T08:29:29Z</time>
      </trkpt>
      <trkpt lat="43.1758170" lon="-5.9183290">
        <ele>1524.0</ele>
        <time>2018-06-17T08:29:34Z</time>
      </trkpt>
      <trkpt lat="43.1759210" lon="-5.9183700">
        <ele>1525.2</ele>
        <time>2018-06-17T08:29:40Z</time>
      </trkpt>
      <trkpt lat="43.1760090" lon="-5.9184100">
        <ele>1526.2</ele>
        <time>2018-06-17T08:29:45Z</time>
      </trkpt>
      <trkpt lat="43.1760750" lon="-5.9184540">
        <ele>1527.4</ele>
        <time>2018-06-17T08:29:49Z</time>
      </trkpt>
      <trkpt lat="43.1761540" lon="-5.9185080">
        <ele>1528.4</ele>
        <time>2018-06-17T08:29:54Z</time>
      </trkpt>
      <trkpt lat="43.1762460" lon="-5.9185440">
        <ele>1529.4</ele>
        <time>2018-06-17T08:29:59Z</time>
      </trkpt>
      <trkpt lat="43.1763340" lon="-5.9185900">
        <ele>1530.6</ele>
        <time>2018-06-17T08:30:04Z</time>
      </trkpt>
      <trkpt lat="43.1764180" lon="-5.9186400">
        <ele>1531.6</ele>
        <time>2018-06-17T08:30:09Z</time>
      </trkpt>
      <trkpt lat="43.1765040" lon="-5.9186930">
        <ele>1532.8</ele>
        <time>2018-06-17T08:30:14Z</time>
      </trkpt>
      <trkpt lat="43.1765700" lon="-5.9187310">
        <ele>1534.0</ele>
        <time>2018-06-17T08:30:18Z</time>
      </trkpt>
      <trkpt lat="43.1766540" lon="-5.9187840">
        <ele>1535.2</ele>
        <time>2018-06-17T08:30:23Z</time>
      </trkpt>
      <trkpt lat="43.1767380" lon="-5.9188320">
        <ele>1536.4</ele>
        <time>2018-06-17T08:30:28Z</time>
      </trkpt>
      <trkpt lat="43.1768230" lon="-5.9188810">
        <ele>1537.6</ele>
        <time>2018-06-17T08:30:33Z</time>
      </trkpt>
      <trkpt lat="43.1769290" lon="-5.9189380">
        <ele>1538.6</ele>
        <time>2018-06-17T08:30:39Z</time>
      </trkpt>
      <trkpt lat="43.1770240" lon="-5.9189780">
        <ele>1539.8</ele>
        <time>2018-06-17T08:30:44Z</time>
      </trkpt>
      <trkpt lat="43.1771190" lon="-5.9190120">
        <ele>1541.0</ele>
        <time>2018-06-17T08:30:49Z</time>
      </trkpt>
      <trkpt lat="43.1772120" lon="-5.9190360">
        <ele>1541.8</ele>
        <time>2018-06-17T08:30:54Z</time>
      </trkpt>
      <trkpt lat="43.1773050" lon="-5.9190400">
        <ele>1542.8</ele>
        <time>2018-06-17T08:30:59Z</time>
      </trkpt>
      <trkpt lat="43.1774320" lon="-5.9190230">
        <ele>1544.0</ele>
        <time>2018-06-17T08:31:06Z</time>
      </trkpt>
      <trkpt lat="43.1775220" lon="-5.9190100">
        <ele>1545.2</ele>
        <time>2018-06-17T08:31:11Z</time>
      </trkpt>
      <trkpt lat="43.1776500" lon="-5.9189990">
        <ele>1546.4</ele>
        <time>2018-06-17T08:31:18Z</time>
      </trkpt>
      <trkpt lat="43.1777250" lon="-5.9189980">
        <ele>1547.4</ele>
        <time>2018-06-17T08:31:22Z</time>
      </trkpt>
      <trkpt lat="43.1778400" lon="-5.9190080">
        <ele>1548.6</ele>
        <time>2018-06-17T08:31:28Z</time>
      </trkpt>
      <trkpt lat="43.1779150" lon="-5.9190040">
        <ele>1549.8</ele>
        <time>2018-06-17T08:31:32Z</time>
      </trkpt>
      <trkpt lat="43.1780110" lon="-5.9190100">
        <ele>1550.8</ele>
        <time>2018-06-17T08:31:37Z</time>
      </trkpt>
      <trkpt lat="43.1781070" lon="-5.9190340">
        <ele>1552.0</ele>
        <time>2018-06-17T08:31:42Z</time>
      </trkpt>
      <trkpt lat="43.1782020" lon="-5.9190570">
        <ele>1553.2</ele>
        <time>2018-06-17T08:31:47Z</time>
      </trkpt>
      <trkpt lat="43.1782920" lon="-5.9190840">
        <ele>1554.4</ele>
        <time>2018-06-17T08:31:52Z</time>
      </trkpt>
      <trkpt lat="43.1783800" lon="-5.9191190">
        <ele>1555.6</ele>
        <time>2018-06-17T08:31:57Z</time>
      </trkpt>
      <trkpt lat="43.1784710" lon="-5.9191420">
        <ele>1556.8</ele>
        <time>2018-06-17T08:32:02Z</time>
      </trkpt>
      <trkpt lat="43.1785730" lon="-5.9192000">
        <ele>1558.0</ele>
        <time>2018-06-17T08:32:08Z</time>
      </trkpt>
      <trkpt lat="43.1786290" lon="-5.9192570">
        <ele>1559.0</ele>
        <time>2018-06-17T08:32:12Z</time>
      </trkpt>
      <trkpt lat="43.1786840" lon="-5.9193190">
        <ele>1560.0</ele>
        <time>2018-06-17T08:32:16Z</time>
      </trkpt>
      <trkpt lat="43.1787530" lon="-5.9194020">
        <ele>1561.0</ele>
        <time>2018-06-17T08:32:21Z</time>
      </trkpt>
      <trkpt lat="43.1788130" lon="-5.9194670">
        <ele>1562.0</ele>
        <time>2018-06-17T08:32:25Z</time>
      </trkpt>
      <trkpt lat="43.1789180" lon="-5.9195660">
        <ele>1563.0</ele>
        <time>2018-06-17T08:32:31Z</time>
      </trkpt>
      <trkpt lat="43.1790230" lon="-5.9196840">
        <ele>1564.2</ele>
        <time>2018-06-17T08:32:37Z</time>
      </trkpt>
      <trkpt lat="43.1790780" lon="-5.9197770">
        <ele>1565.4</ele>
        <time>2018-06-17T08:32:41Z</time>
      </trkpt>
      <trkpt lat="43.1791220" lon="-5.9199030">
        <ele>1566.6</ele>
        <time>2018-06-17T08:32:46Z</time>
      </trkpt>
      <trkpt lat="43.1791410" lon="-5.9200270">
        <ele>1567.8</ele>
        <time>2018-06-17T08:32:51Z</time>
      </trkpt>
      <trkpt lat="43.1791800" lon="-5.9201640">
        <ele>1569.0</ele>
        <time>2018-06-17T08:32:56Z</time>
      </trkpt>
      <trkpt lat="43.1792070" lon="-5.9202710">
        <ele>1570.2</ele>
        <time>2018-06-17T08:33:00Z</time>
      </trkpt>
      <trkpt lat="43.1792080" lon="-5.9204090">
        <ele>1571.2</ele>
        <time>2018-06-17T08:33:05Z</time>
      </trkpt>
      <trkpt lat="43.1792190" lon="-5.9205510">
        <ele>1572.4</ele>
        <time>2018-06-17T08:33:10Z</time>
      </trkpt>
      <trkpt lat="43.1792790" lon="-5.9206850">
        <ele>1573.6</ele>
        <time>2018-06-17T08:33:16Z</time>
      </trkpt>
      <trkpt lat="43.1793520" lon="-5.9207580">
        <ele>1574.6</ele>
        <time>2018-06-17T08:33:21Z</time>
      </trkpt>
      <trkpt lat="43.1794590" lon="-5.9208240">
        <ele>1575.6</ele>
        <time>2018-06-17T08:33:28Z</time>
      </trkpt>
      <trkpt lat="43.1794750" lon="-5.9208320">
        <ele>1575.8</ele>
        <time>2018-06-17T08:33:29Z</time>
      </trkpt>
      <trkpt lat="43.1795730" lon="-5.9209350">
        <ele>1577.0</ele>
        <time>2018-06-17T08:33:35Z</time>
      </trkpt>
      <trkpt lat="43.1796870" lon="-5.9211180">
        <ele>1578.0</ele>
        <time>2018-06-17T08:33:42Z</time>
      </trkpt>
      <trkpt lat="43.1798010" lon="-5.9212190">
        <ele>1579.0</ele>
        <time>2018-06-17T08:33:48Z</time>
      </trkpt>
      <trkpt lat="43.1799050" lon="-5.9212680">
        <ele>1580.0</ele>
        <time>2018-06-17T08:33:53Z</time>
      </trkpt>
      <trkpt lat="43.1800070" lon="-5.9213080">
        <ele>1581.2</ele>
        <time>2018-06-17T08:33:58Z</time>
      </trkpt>
      <trkpt lat="43.1801050" lon="-5.9213210">
        <ele>1582.2</ele>
        <time>2018-06-17T08:34:03Z</time>
      </trkpt>
      <trkpt lat="43.1802010" lon="-5.9213320">
        <ele>1583.4</ele>
        <time>2018-06-17T08:34:08Z</time>
      </trkpt>
      <trkpt lat="43.1802980" lon="-5.9213390">
        <ele>1584.2</ele>
        <time>2018-06-17T08:34:13Z</time>
      </trkpt>
      <trkpt lat="43.1803750" lon="-5.9213470">
        <ele>1585.2</ele>
        <time>2018-06-17T08:34:17Z</time>
      </trkpt>
      <trkpt lat="43.1804480" lon="-5.9213540">
        <ele>1586.4</ele>
        <time>2018-06-17T08:34:21Z</time>
      </trkpt>
      <trkpt lat="43.1805140" lon="-5.9213590">
        <ele>1587.4</ele>
        <time>2018-06-17T08:34:25Z</time>
      </trkpt>
      <trkpt lat="43.1806020" lon="-5.9213340">
        <ele>1588.4</ele>
        <time>2018-06-17T08:34:30Z</time>
      </trkpt>
      <trkpt lat="43.1806930" lon="-5.9213200">
        <ele>1589.6</ele>
        <time>2018-06-17T08:34:35Z</time>
      </trkpt>
      <trkpt lat="43.1807840" lon="-5.9213380">
        <ele>1590.8</ele>
        <time>2018-06-17T08:34:40Z</time>
      </trkpt>
      <trkpt lat="43.1808750" lon="-5.9213680">
        <ele>1592.2</ele>
        <time>2018-06-17T08:34:45Z</time>
      </trkpt>
      <trkpt lat="43.1809560" lon="-5.9214110">
        <ele>1593.2</ele>
        <time>2018-06-17T08:34:50Z</time>
      </trkpt>
      <trkpt lat="43.1810160" lon="-5.9214610">
        <ele>1594.4</ele>
        <time>2018-06-17T08:34:54Z</time>
      </trkpt>
      <trkpt lat="43.1810620" lon="-5.9215230">
        <ele>1595.4</ele>
        <time>2018-06-17T08:34:58Z</time>
      </trkpt>
      <trkpt lat="43.1811100" lon="-5.9215880">
        <ele>1596.4</ele>
        <time>2018-06-17T08:35:02Z</time>
      </trkpt>
      <trkpt lat="43.1811460" lon="-5.9216660">
        <ele>1597.6</ele>
        <time>2018-06-17T08:35:06Z</time>
      </trkpt>
      <trkpt lat="43.1811860" lon="-5.9217430">
        <ele>1598.6</ele>
        <time>2018-06-17T08:35:10Z</time>
      </trkpt>
      <trkpt lat="43.1812260" lon="-5.9218120">
        <ele>1599.8</ele>
        <time>2018-06-17T08:35:14Z</time>
      </trkpt>
      <trkpt lat="43.1812700" lon="-5.9218740">
        <ele>1601.0</ele>
        <time>2018-06-17T08:35:18Z</time>
      </trkpt>
      <trkpt lat="43.1813270" lon="-5.9219130">
        <ele>1602.0</ele>
        <time>2018-06-17T08:35:22Z</time>
      </trkpt>
      <trkpt lat="43.1813970" lon="-5.9219630">
        <ele>1603.2</ele>
        <time>2018-06-17T08:35:27Z</time>
      </trkpt>
      <trkpt lat="43.1814550" lon="-5.9220370">
        <ele>1604.2</ele>
        <time>2018-06-17T08:35:32Z</time>
      </trkpt>
      <trkpt lat="43.1814940" lon="-5.9221010">
        <ele>1605.4</ele>
        <time>2018-06-17T08:35:36Z</time>
      </trkpt>
      <trkpt lat="43.1815400" lon="-5.9221850">
        <ele>1606.6</ele>
        <time>2018-06-17T08:35:41Z</time>
      </trkpt>
      <trkpt lat="43.1815840" lon="-5.9222760">
        <ele>1607.8</ele>
        <time>2018-06-17T08:35:46Z</time>
      </trkpt>
      <trkpt lat="43.1816190" lon="-5.9223480">
        <ele>1609.0</ele>
        <time>2018-06-17T08:35:50Z</time>
      </trkpt>
      <trkpt lat="43.1816630" lon="-5.9224330">
        <ele>1610.0</ele>
        <time>2018-06-17T08:35:55Z</time>
      </trkpt>
      <trkpt lat="43.1817150" lon="-5.9225180">
        <ele>1611.2</ele>
        <time>2018-06-17T08:36:00Z</time>
      </trkpt>
      <trkpt lat="43.1817720" lon="-5.9226010">
        <ele>1612.4</ele>
        <time>2018-06-17T08:36:05Z</time>
      </trkpt>
      <trkpt lat="43.1818440" lon="-5.9226610">
        <ele>1613.4</ele>
        <time>2018-06-17T08:36:10Z</time>
      </trkpt>
      <trkpt lat="43.1819020" lon="-5.9227030">
        <ele>1614.4</ele>
        <time>2018-06-17T08:36:14Z</time>
      </trkpt>
      <trkpt lat="43.1819610" lon="-5.9227380">
        <ele>1615.8</ele>
        <time>2018-06-17T08:36:18Z</time>
      </trkpt>
      <trkpt lat="43.1820260" lon="-5.9227600">
        <ele>1616.8</ele>
        <time>2018-06-17T08:36:22Z</time>
      </trkpt>
      <trkpt lat="43.1821180" lon="-5.9227500">
        <ele>1617.8</ele>
        <time>2018-06-17T08:36:27Z</time>
      </trkpt>
      <trkpt lat="43.1822040" lon="-5.9227420">
        <ele>1618.8</ele>
        <time>2018-06-17T08:36:32Z</time>
      </trkpt>
      <trkpt lat="43.1822700" lon="-5.9227480">
        <ele>1619.8</ele>
        <time>2018-06-17T08:36:36Z</time>
      </trkpt>
      <trkpt lat="43.1823450" lon="-5.9227560">
        <ele>1620.8</ele>
        <time>2018-06-17T08:36:41Z</time>
      </trkpt>
      <trkpt lat="43.1824240" lon="-5.9227640">
        <ele>1622.0</ele>
        <time>2018-06-17T08:36:46Z</time>
      </trkpt>
      <trkpt lat="43.1824750" lon="-5.9227740">
        <ele>1623.0</ele>
        <time>2018-06-17T08:36:49Z</time>
      </trkpt>
      <trkpt lat="43.1825420" lon="-5.9228030">
        <ele>1624.2</ele>
        <time>2018-06-17T08:36:53Z</time>
      </trkpt>
      <trkpt lat="43.1826230" lon="-5.9228350">
        <ele>1625.4</ele>
        <time>2018-06-17T08:36:58Z</time>
      </trkpt>
      <trkpt lat="43.1826880" lon="-5.9228470">
        <ele>1626.4</ele>
        <time>2018-06-17T08:37:02Z</time>
      </trkpt>
      <trkpt lat="43.1827540" lon="-5.9228690">
        <ele>1627.6</ele>
        <time>2018-06-17T08:37:06Z</time>
      </trkpt>
      <trkpt lat="43.1828510" lon="-5.9228760">
        <ele>1628.6</ele>
        <time>2018-06-17T08:37:12Z</time>
      </trkpt>
      <trkpt lat="43.1829160" lon="-5.9228850">
        <ele>1629.8</ele>
        <time>2018-06-17T08:37:16Z</time>
      </trkpt>
      <trkpt lat="43.1829660" lon="-5.9228880">
        <ele>1630.8</ele>
        <time>2018-06-17T08:37:19Z</time>
      </trkpt>
      <trkpt lat="43.1830440" lon="-5.9229000">
        <ele>1632.0</ele>
        <time>2018-06-17T08:37:24Z</time>
      </trkpt>
      <trkpt lat="43.1830980" lon="-5.9229220">
        <ele>1633.0</ele>
        <time>2018-06-17T08:37:27Z</time>
      </trkpt>
      <trkpt lat="43.1831650" lon="-5.9229600">
        <ele>1634.2</ele>
        <time>2018-06-17T08:37:31Z</time>
      </trkpt>
      <trkpt lat="43.1832340" lon="-5.9229770">
        <ele>1635.2</ele>
        <time>2018-06-17T08:37:35Z</time>
      </trkpt>
      <trkpt lat="43.1833330" lon="-5.9229880">
        <ele>1636.4</ele>
        <time>2018-06-17T08:37:41Z</time>
      </trkpt>
      <trkpt lat="43.1833990" lon="-5.9229820">
        <ele>1637.4</ele>
        <time>2018-06-17T08:37:45Z</time>
      </trkpt>
      <trkpt lat="43.1834610" lon="-5.9229720">
        <ele>1638.4</ele>
        <time>2018-06-17T08:37:49Z</time>
      </trkpt>
      <trkpt lat="43.1835250" lon="-5.9229600">
        <ele>1639.6</ele>
        <time>2018-06-17T08:37:53Z</time>
      </trkpt>
      <trkpt lat="43.1835900" lon="-5.9229580">
        <ele>1640.6</ele>
        <time>2018-06-17T08:37:57Z</time>
      </trkpt>
      <trkpt lat="43.1836560" lon="-5.9229630">
        <ele>1641.8</ele>
        <time>2018-06-17T08:38:01Z</time>
      </trkpt>
      <trkpt lat="43.1837560" lon="-5.9229750">
        <ele>1642.8</ele>
        <time>2018-06-17T08:38:07Z</time>
      </trkpt>
      <trkpt lat="43.1838250" lon="-5.9229790">
        <ele>1644.0</ele>
        <time>2018-06-17T08:38:11Z</time>
      </trkpt>
      <trkpt lat="43.1838920" lon="-5.9229850">
        <ele>1645.2</ele>
        <time>2018-06-17T08:38:15Z</time>
      </trkpt>
      <trkpt lat="43.1839770" lon="-5.9229970">
        <ele>1646.2</ele>
        <time>2018-06-17T08:38:20Z</time>
      </trkpt>
      <trkpt lat="43.1840580" lon="-5.9230050">
        <ele>1647.6</ele>
        <time>2018-06-17T08:38:25Z</time>
      </trkpt>
      <trkpt lat="43.1841310" lon="-5.9229890">
        <ele>1648.6</ele>
        <time>2018-06-17T08:38:30Z</time>
      </trkpt>
      <trkpt lat="43.1841920" lon="-5.9229090">
        <ele>1649.8</ele>
        <time>2018-06-17T08:38:35Z</time>
      </trkpt>
      <trkpt lat="43.1842320" lon="-5.9228420">
        <ele>1651.0</ele>
        <time>2018-06-17T08:38:39Z</time>
      </trkpt>
      <trkpt lat="43.1843070" lon="-5.9227420">
        <ele>1652.0</ele>
        <time>2018-06-17T08:38:45Z</time>
      </trkpt>
      <trkpt lat="43.1843960" lon="-5.9226490">
        <ele>1653.4</ele>
        <time>2018-06-17T08:38:51Z</time>
      </trkpt>
      <trkpt lat="43.1844700" lon="-5.9225720">
        <ele>1654.4</ele>
        <time>2018-06-17T08:38:56Z</time>
      </trkpt>
      <trkpt lat="43.1845280" lon="-5.9225110">
        <ele>1655.4</ele>
        <time>2018-06-17T08:39:00Z</time>
      </trkpt>
      <trkpt lat="43.1845720" lon="-5.9224600">
        <ele>1656.4</ele>
        <time>2018-06-17T08:39:03Z</time>
      </trkpt>
      <trkpt lat="43.1846390" lon="-5.9224080">
        <ele>1657.4</ele>
        <time>2018-06-17T08:39:07Z</time>
      </trkpt>
      <trkpt lat="43.1847220" lon="-5.9223490">
        <ele>1658.6</ele>
        <time>2018-06-17T08:39:12Z</time>
      </trkpt>
      <trkpt lat="43.1848110" lon="-5.9223040">
        <ele>1659.8</ele>
        <time>2018-06-17T08:39:17Z</time>
      </trkpt>
      <trkpt lat="43.1848970" lon="-5.9222720">
        <ele>1661.0</ele>
        <time>2018-06-17T08:39:22Z</time>
      </trkpt>
      <trkpt lat="43.1849760" lon="-5.9222230">
        <ele>1662.2</ele>
        <time>2018-06-17T08:39:27Z</time>
      </trkpt>
      <trkpt lat="43.1850530" lon="-5.9221660">
        <ele>1663.2</ele>
        <time>2018-06-17T08:39:32Z</time>
      </trkpt>
      <trkpt lat="43.1851590" lon="-5.9220870">
        <ele>1664.4</ele>
        <time>2018-06-17T08:39:39Z</time>
      </trkpt>
      <trkpt lat="43.1852250" lon="-5.9220530">
        <ele>1665.6</ele>
        <time>2018-06-17T08:39:43Z</time>
      </trkpt>
      <trkpt lat="43.1852930" lon="-5.9220210">
        <ele>1666.8</ele>
        <time>2018-06-17T08:39:47Z</time>
      </trkpt>
      <trkpt lat="43.1853510" lon="-5.9220000">
        <ele>1667.8</ele>
        <time>2018-06-17T08:39:50Z</time>
      </trkpt>
      <trkpt lat="43.1854480" lon="-5.9219820">
        <ele>1669.2</ele>
        <time>2018-06-17T08:39:55Z</time>
      </trkpt>
      <trkpt lat="43.1855210" lon="-5.9219610">
        <ele>1670.4</ele>
        <time>2018-06-17T08:39:59Z</time>
      </trkpt>
      <trkpt lat="43.1856100" lon="-5.9219320">
        <ele>1671.6</ele>
        <time>2018-06-17T08:40:04Z</time>
      </trkpt>
      <trkpt lat="43.1857110" lon="-5.9219250">
        <ele>1672.6</ele>
        <time>2018-06-17T08:40:09Z</time>
      </trkpt>
      <trkpt lat="43.1858210" lon="-5.9219710">
        <ele>1673.8</ele>
        <time>2018-06-17T08:40:15Z</time>
      </trkpt>
      <trkpt lat="43.1859000" lon="-5.9220270">
        <ele>1674.8</ele>
        <time>2018-06-17T08:40:20Z</time>
      </trkpt>
      <trkpt lat="43.1859450" lon="-5.9220600">
        <ele>1675.8</ele>
        <time>2018-06-17T08:40:23Z</time>
      </trkpt>
      <trkpt lat="43.1860130" lon="-5.9221440">
        <ele>1677.0</ele>
        <time>2018-06-17T08:40:28Z</time>
      </trkpt>
      <trkpt lat="43.1860530" lon="-5.9221890">
        <ele>1678.0</ele>
        <time>2018-06-17T08:40:31Z</time>
      </trkpt>
      <trkpt lat="43.1861090" lon="-5.9222480">
        <ele>1679.2</ele>
        <time>2018-06-17T08:40:35Z</time>
      </trkpt>
      <trkpt lat="43.1861630" lon="-5.9223240">
        <ele>1680.4</ele>
        <time>2018-06-17T08:40:39Z</time>
      </trkpt>
      <trkpt lat="43.1862140" lon="-5.9223980">
        <ele>1681.4</ele>
        <time>2018-06-17T08:40:43Z</time>
      </trkpt>
      <trkpt lat="43.1862850" lon="-5.9225170">
        <ele>1682.4</ele>
        <time>2018-06-17T08:40:49Z</time>
      </trkpt>
      <trkpt lat="43.1863160" lon="-5.9226150">
        <ele>1683.6</ele>
        <time>2018-06-17T08:40:53Z</time>
      </trkpt>
      <trkpt lat="43.1863440" lon="-5.9227610">
        <ele>1684.8</ele>
        <time>2018-06-17T08:40:59Z</time>
      </trkpt>
      <trkpt lat="43.1863700" lon="-5.9228490">
        <ele>1685.8</ele>
        <time>2018-06-17T08:41:03Z</time>
      </trkpt>
      <trkpt lat="43.1863890" lon="-5.9229090">
        <ele>1687.0</ele>
        <time>2018-06-17T08:41:06Z</time>
      </trkpt>
      <trkpt lat="43.1864080" lon="-5.9229960">
        <ele>1688.0</ele>
        <time>2018-06-17T08:41:10Z</time>
      </trkpt>
      <trkpt lat="43.1864300" lon="-5.9230800">
        <ele>1689.0</ele>
        <time>2018-06-17T08:41:14Z</time>
      </trkpt>
      <trkpt lat="43.1864040" lon="-5.9232010">
        <ele>1690.4</ele>
        <time>2018-06-17T08:41:19Z</time>
      </trkpt>
      <trkpt lat="43.1863840" lon="-5.9232770">
        <ele>1691.4</ele>
        <time>2018-06-17T08:41:22Z</time>
      </trkpt>
      <trkpt lat="43.1863510" lon="-5.9233680">
        <ele>1692.6</ele>
        <time>2018-06-17T08:41:26Z</time>
      </trkpt>
      <trkpt lat="43.1863730" lon="-5.9234600">
        <ele>1693.8</ele>
        <time>2018-06-17T08:41:30Z</time>
      </trkpt>
      <trkpt lat="43.1864670" lon="-5.9235300">
        <ele>1695.0</ele>
        <time>2018-06-17T08:41:36Z</time>
      </trkpt>
      <trkpt lat="43.1865420" lon="-5.9235850">
        <ele>1696.2</ele>
        <time>2018-06-17T08:41:41Z</time>
      </trkpt>
      <trkpt lat="43.1866110" lon="-5.9236570">
        <ele>1697.4</ele>
        <time>2018-06-17T08:41:46Z</time>
      </trkpt>
      <trkpt lat="43.1866690" lon="-5.9237150">
        <ele>1698.6</ele>
        <time>2018-06-17T08:41:50Z</time>
      </trkpt>
      <trkpt lat="43.1867460" lon="-5.9237820">
        <ele>1699.8</ele>
        <time>2018-06-17T08:41:55Z</time>
      </trkpt>
      <trkpt lat="43.1868590" lon="-5.9238640">
        <ele>1700.8</ele>
        <time>2018-06-17T08:42:02Z</time>
      </trkpt>
      <trkpt lat="43.1869220" lon="-5.9239140">
        <ele>1701.8</ele>
        <time>2018-06-17T08:42:06Z</time>
      </trkpt>
      <trkpt lat="43.1869950" lon="-5.9239840">
        <ele>1703.2</ele>
        <time>2018-06-17T08:42:11Z</time>
      </trkpt>
      <trkpt lat="43.1870870" lon="-5.9240630">
        <ele>1704.4</ele>
        <time>2018-06-17T08:42:17Z</time>
      </trkpt>
      <trkpt lat="43.1871530" lon="-5.9241070">
        <ele>1705.4</ele>
        <time>2018-06-17T08:42:21Z</time>
      </trkpt>
      <trkpt lat="43.1872310" lon="-5.9241610">
        <ele>1706.6</ele>
        <time>2018-06-17T08:42:26Z</time>
      </trkpt>
      <trkpt lat="43.1873260" lon="-5.9242220">
        <ele>1707.8</ele>
        <time>2018-06-17T08:42:32Z</time>
      </trkpt>
      <trkpt lat="43.1873960" lon="-5.9242730">
        <ele>1709.0</ele>
        <time>2018-06-17T08:42:36Z</time>
      </trkpt>
      <trkpt lat="43.1874610" lon="-5.9243290">
        <ele>1710.0</ele>
        <time>2018-06-17T08:42:40Z</time>
      </trkpt>
      <trkpt lat="43.1875200" lon="-5.9243810">
        <ele>1711.0</ele>
        <time>2018-06-17T08:42:44Z</time>
      </trkpt>
      <trkpt lat="43.1875330" lon="-5.9243940">
        <ele>1711.4</ele>
        <time>2018-06-17T08:42:45Z</time>
      </trkpt>
      <trkpt lat="43.1875920" lon="-5.9244400">
        <ele>1712.4</ele>
        <time>2018-06-17T08:42:49Z</time>
      </trkpt>
      <trkpt lat="43.1876510" lon="-5.9244900">
        <ele>1713.6</ele>
        <time>2018-06-17T08:42:53Z</time>
      </trkpt>
      <trkpt lat="43.1877470" lon="-5.9245550">
        <ele>1714.6</ele>
        <time>2018-06-17T08:42:59Z</time>
      </trkpt>
      <trkpt lat="43.1878240" lon="-5.9246240">
        <ele>1715.6</ele>
        <time>2018-06-17T08:43:04Z</time>
      </trkpt>
      <trkpt lat="43.1878850" lon="-5.9246760">
        <ele>1716.8</ele>
        <time>2018-06-17T08:43:08Z</time>
      </trkpt>
      <trkpt lat="43.1879820" lon="-5.9247350">
        <ele>1718.2</ele>
        <time>2018-06-17T08:43:14Z</time>
      </trkpt>
      <trkpt lat="43.1880500" lon="-5.9247500">
        <ele>1719.2</ele>
        <time>2018-06-17T08:43:18Z</time>
      </trkpt>
      <trkpt lat="43.1881430" lon="-5.9247410">
        <ele>1720.4</ele>
        <time>2018-06-17T08:43:24Z</time>
      </trkpt>
      <trkpt lat="43.1881820" lon="-5.9246710">
        <ele>1721.8</ele>
        <time>2018-06-17T08:43:28Z</time>
      </trkpt>
      <trkpt lat="43.1882050" lon="-5.9245900">
        <ele>1723.2</ele>
        <time>2018-06-17T08:43:32Z</time>
      </trkpt>
      <trkpt lat="43.1882310" lon="-5.9244830">
        <ele>1724.4</ele>
        <time>2018-06-17T08:43:37Z</time>
      </trkpt>
      <trkpt lat="43.1882190" lon="-5.9244170">
        <ele>1725.4</ele>
        <time>2018-06-17T08:43:40Z</time>
      </trkpt>
      <trkpt lat="43.1882040" lon="-5.9243620">
        <ele>1726.8</ele>
        <time>2018-06-17T08:43:43Z</time>
      </trkpt>
      <trkpt lat="43.1881720" lon="-5.9242670">
        <ele>1728.4</ele>
        <time>2018-06-17T08:43:48Z</time>
      </trkpt>
      <trkpt lat="43.1881330" lon="-5.9241900">
        <ele>1729.4</ele>
        <time>2018-06-17T08:43:52Z</time>
      </trkpt>
      <trkpt lat="43.1880590" lon="-5.9240960">
        <ele>1730.4</ele>
        <time>2018-06-17T08:43:58Z</time>
      </trkpt>
      <trkpt lat="43.1879700" lon="-5.9240270">
        <ele>1731.4</ele>
        <time>2018-06-17T08:44:04Z</time>
      </trkpt>
      <trkpt lat="43.1879000" lon="-5.9239440">
        <ele>1732.6</ele>
        <time>2018-06-17T08:44:09Z</time>
      </trkpt>
      <trkpt lat="43.1878270" lon="-5.9238140">
        <ele>1733.6</ele>
        <time>2018-06-17T08:44:15Z</time>
      </trkpt>
      <trkpt lat="43.1878160" lon="-5.9236900">
        <ele>1734.8</ele>
        <time>2018-06-17T08:44:19Z</time>
      </trkpt>
      <trkpt lat="43.1878390" lon="-5.9235810">
        <ele>1736.0</ele>
        <time>2018-06-17T08:44:23Z</time>
      </trkpt>
      <trkpt lat="43.1878820" lon="-5.9234910">
        <ele>1737.2</ele>
        <time>2018-06-17T08:44:27Z</time>
      </trkpt>
      <trkpt lat="43.1879060" lon="-5.9233490">
        <ele>1738.2</ele>
        <time>2018-06-17T08:44:34Z</time>
      </trkpt>
      <trkpt lat="43.1879050" lon="-5.9233490">
        <ele>1738.6</ele>
        <time>2018-06-17T08:44:36Z</time>
      </trkpt>
      <trkpt lat="43.1878500" lon="-5.9233580">
        <ele>1738.6</ele>
        <time>2018-06-17T08:44:48Z</time>
      </trkpt>
      <trkpt lat="43.1878350" lon="-5.9233510">
        <ele>1738.8</ele>
        <time>2018-06-17T08:44:51Z</time>
      </trkpt>
      <trkpt lat="43.1878580" lon="-5.9234050">
        <ele>1738.4</ele>
        <time>2018-06-17T08:44:57Z</time>
      </trkpt>
      <trkpt lat="43.1879020" lon="-5.9234220">
        <ele>1738.2</ele>
        <time>2018-06-17T08:44:59Z</time>
      </trkpt>
      <trkpt lat="43.1879170" lon="-5.9233720">
        <ele>1738.0</ele>
        <time>2018-06-17T08:45:02Z</time>
      </trkpt>
      <trkpt lat="43.1879190" lon="-5.9233750">
        <ele>1738.0</ele>
        <time>2018-06-17T08:45:04Z</time>
      </trkpt>
      <trkpt lat="43.1878930" lon="-5.9234280">
        <ele>1738.4</ele>
        <time>2018-06-17T08:49:32Z</time>
      </trkpt>
      <trkpt lat="43.1878860" lon="-5.9234540">
        <ele>1738.4</ele>
        <time>2018-06-17T08:49:33Z</time>
      </trkpt>
      <trkpt lat="43.1878560" lon="-5.9236140">
        <ele>1737.4</ele>
        <time>2018-06-17T08:49:37Z</time>
      </trkpt>
      <trkpt lat="43.1878360" lon="-5.9237220">
        <ele>1736.6</ele>
        <time>2018-06-17T08:49:39Z</time>
      </trkpt>
      <trkpt lat="43.1878420" lon="-5.9237870">
        <ele>1736.0</ele>
        <time>2018-06-17T08:49:40Z</time>
      </trkpt>
      <trkpt lat="43.1878880" lon="-5.9238940">
        <ele>1734.8</ele>
        <time>2018-06-17T08:49:42Z</time>
      </trkpt>
      <trkpt lat="43.1879530" lon="-5.9239700">
        <ele>1733.8</ele>
        <time>2018-06-17T08:49:44Z</time>
      </trkpt>
      <trkpt lat="43.1880540" lon="-5.9240770">
        <ele>1732.2</ele>
        <time>2018-06-17T08:49:47Z</time>
      </trkpt>
      <trkpt lat="43.1881260" lon="-5.9241610">
        <ele>1730.8</ele>
        <time>2018-06-17T08:49:50Z</time>
      </trkpt>
      <trkpt lat="43.1881770" lon="-5.9242520">
        <ele>1729.8</ele>
        <time>2018-06-17T08:49:53Z</time>
      </trkpt>
      <trkpt lat="43.1882210" lon="-5.9244030">
        <ele>1728.4</ele>
        <time>2018-06-17T08:49:57Z</time>
      </trkpt>
      <trkpt lat="43.1882370" lon="-5.9245260">
        <ele>1726.8</ele>
        <time>2018-06-17T08:50:00Z</time>
      </trkpt>
      <trkpt lat="43.1882320" lon="-5.9246100">
        <ele>1725.6</ele>
        <time>2018-06-17T08:50:02Z</time>
      </trkpt>
      <trkpt lat="43.1882070" lon="-5.9246800">
        <ele>1724.4</ele>
        <time>2018-06-17T08:50:04Z</time>
      </trkpt>
      <trkpt lat="43.1881300" lon="-5.9247550">
        <ele>1723.0</ele>
        <time>2018-06-17T08:50:07Z</time>
      </trkpt>
      <trkpt lat="43.1880480" lon="-5.9247780">
        <ele>1721.6</ele>
        <time>2018-06-17T08:50:09Z</time>
      </trkpt>
      <trkpt lat="43.1879480" lon="-5.9247630">
        <ele>1720.2</ele>
        <time>2018-06-17T08:50:11Z</time>
      </trkpt>
      <trkpt lat="43.1878550" lon="-5.9247110">
        <ele>1718.2</ele>
        <time>2018-06-17T08:50:13Z</time>
      </trkpt>
      <trkpt lat="43.1877780" lon="-5.9246560">
        <ele>1717.2</ele>
        <time>2018-06-17T08:50:15Z</time>
      </trkpt>
      <trkpt lat="43.1876720" lon="-5.9245710">
        <ele>1715.6</ele>
        <time>2018-06-17T08:50:18Z</time>
      </trkpt>
      <trkpt lat="43.1875970" lon="-5.9245220">
        <ele>1714.4</ele>
        <time>2018-06-17T08:50:20Z</time>
      </trkpt>
      <trkpt lat="43.1875370" lon="-5.9244750">
        <ele>1713.2</ele>
        <time>2018-06-17T08:50:22Z</time>
      </trkpt>
      <trkpt lat="43.1874000" lon="-5.9243520">
        <ele>1711.6</ele>
        <time>2018-06-17T08:50:25Z</time>
      </trkpt>
      <trkpt lat="43.1872720" lon="-5.9242470">
        <ele>1710.0</ele>
        <time>2018-06-17T08:50:27Z</time>
      </trkpt>
      <trkpt lat="43.1872030" lon="-5.9241920">
        <ele>1708.8</ele>
        <time>2018-06-17T08:50:28Z</time>
      </trkpt>
      <trkpt lat="43.1871320" lon="-5.9241420">
        <ele>1707.8</ele>
        <time>2018-06-17T08:50:29Z</time>
      </trkpt>
      <trkpt lat="43.1869890" lon="-5.9240310">
        <ele>1705.8</ele>
        <time>2018-06-17T08:50:31Z</time>
      </trkpt>
      <trkpt lat="43.1869150" lon="-5.9239690">
        <ele>1704.4</ele>
        <time>2018-06-17T08:50:32Z</time>
      </trkpt>
      <trkpt lat="43.1868410" lon="-5.9239100">
        <ele>1703.2</ele>
        <time>2018-06-17T08:50:33Z</time>
      </trkpt>
      <trkpt lat="43.1867030" lon="-5.9237980">
        <ele>1701.2</ele>
        <time>2018-06-17T08:50:35Z</time>
      </trkpt>
      <trkpt lat="43.1865840" lon="-5.9236800">
        <ele>1699.2</ele>
        <time>2018-06-17T08:50:37Z</time>
      </trkpt>
      <trkpt lat="43.1864800" lon="-5.9235900">
        <ele>1697.8</ele>
        <time>2018-06-17T08:50:39Z</time>
      </trkpt>
      <trkpt lat="43.1864320" lon="-5.9235600">
        <ele>1696.6</ele>
        <time>2018-06-17T08:50:40Z</time>
      </trkpt>
      <trkpt lat="43.1863510" lon="-5.9234980">
        <ele>1695.2</ele>
        <time>2018-06-17T08:50:42Z</time>
      </trkpt>
      <trkpt lat="43.1863100" lon="-5.9234010">
        <ele>1694.0</ele>
        <time>2018-06-17T08:50:44Z</time>
      </trkpt>
      <trkpt lat="43.1863390" lon="-5.9232630">
        <ele>1693.0</ele>
        <time>2018-06-17T08:50:46Z</time>
      </trkpt>
      <trkpt lat="43.1863840" lon="-5.9231100">
        <ele>1691.6</ele>
        <time>2018-06-17T08:50:48Z</time>
      </trkpt>
      <trkpt lat="43.1863930" lon="-5.9230270">
        <ele>1690.4</ele>
        <time>2018-06-17T08:50:49Z</time>
      </trkpt>
      <trkpt lat="43.1863660" lon="-5.9228800">
        <ele>1688.6</ele>
        <time>2018-06-17T08:50:51Z</time>
      </trkpt>
      <trkpt lat="43.1863230" lon="-5.9227620">
        <ele>1686.8</ele>
        <time>2018-06-17T08:50:53Z</time>
      </trkpt>
      <trkpt lat="43.1863070" lon="-5.9227020">
        <ele>1686.0</ele>
        <time>2018-06-17T08:50:54Z</time>
      </trkpt>
      <trkpt lat="43.1862960" lon="-5.9226430">
        <ele>1685.4</ele>
        <time>2018-06-17T08:50:55Z</time>
      </trkpt>
      <trkpt lat="43.1862750" lon="-5.9225360">
        <ele>1684.2</ele>
        <time>2018-06-17T08:50:57Z</time>
      </trkpt>
      <trkpt lat="43.1862570" lon="-5.9224800">
        <ele>1683.2</ele>
        <time>2018-06-17T08:50:58Z</time>
      </trkpt>
      <trkpt lat="43.1861930" lon="-5.9223650">
        <ele>1681.6</ele>
        <time>2018-06-17T08:51:00Z</time>
      </trkpt>
      <trkpt lat="43.1860870" lon="-5.9222320">
        <ele>1680.6</ele>
        <time>2018-06-17T08:51:02Z</time>
      </trkpt>
      <trkpt lat="43.1859610" lon="-5.9220960">
        <ele>1678.6</ele>
        <time>2018-06-17T08:51:04Z</time>
      </trkpt>
      <trkpt lat="43.1858940" lon="-5.9220360">
        <ele>1677.4</ele>
        <time>2018-06-17T08:51:05Z</time>
      </trkpt>
      <trkpt lat="43.1857500" lon="-5.9219530">
        <ele>1675.2</ele>
        <time>2018-06-17T08:51:07Z</time>
      </trkpt>
      <trkpt lat="43.1856050" lon="-5.9219330">
        <ele>1673.4</ele>
        <time>2018-06-17T08:51:09Z</time>
      </trkpt>
      <trkpt lat="43.1855380" lon="-5.9219490">
        <ele>1672.2</ele>
        <time>2018-06-17T08:51:10Z</time>
      </trkpt>
      <trkpt lat="43.1854710" lon="-5.9219770">
        <ele>1671.2</ele>
        <time>2018-06-17T08:51:11Z</time>
      </trkpt>
      <trkpt lat="43.1854020" lon="-5.9220060">
        <ele>1670.6</ele>
        <time>2018-06-17T08:51:12Z</time>
      </trkpt>
      <trkpt lat="43.1852460" lon="-5.9220510">
        <ele>1669.0</ele>
        <time>2018-06-17T08:51:14Z</time>
      </trkpt>
      <trkpt lat="43.1851680" lon="-5.9220820">
        <ele>1668.0</ele>
        <time>2018-06-17T08:51:15Z</time>
      </trkpt>
      <trkpt lat="43.1850920" lon="-5.9221220">
        <ele>1666.4</ele>
        <time>2018-06-17T08:51:16Z</time>
      </trkpt>
      <trkpt lat="43.1850170" lon="-5.9221710">
        <ele>1665.4</ele>
        <time>2018-06-17T08:51:17Z</time>
      </trkpt>
      <trkpt lat="43.1848670" lon="-5.9222770">
        <ele>1663.8</ele>
        <time>2018-06-17T08:51:19Z</time>
      </trkpt>
      <trkpt lat="43.1847890" lon="-5.9223260">
        <ele>1662.2</ele>
        <time>2018-06-17T08:51:20Z</time>
      </trkpt>
      <trkpt lat="43.1847150" lon="-5.9223700">
        <ele>1661.0</ele>
        <time>2018-06-17T08:51:21Z</time>
      </trkpt>
      <trkpt lat="43.1846460" lon="-5.9224110">
        <ele>1660.2</ele>
        <time>2018-06-17T08:51:22Z</time>
      </trkpt>
      <trkpt lat="43.1845260" lon="-5.9224980">
        <ele>1658.0</ele>
        <time>2018-06-17T08:51:24Z</time>
      </trkpt>
      <trkpt lat="43.1844720" lon="-5.9225450">
        <ele>1656.8</ele>
        <time>2018-06-17T08:51:25Z</time>
      </trkpt>
      <trkpt lat="43.1843770" lon="-5.9226410">
        <ele>1655.2</ele>
        <time>2018-06-17T08:51:27Z</time>
      </trkpt>
      <trkpt lat="43.1842880" lon="-5.9227310">
        <ele>1653.8</ele>
        <time>2018-06-17T08:51:29Z</time>
      </trkpt>
      <trkpt lat="43.1841680" lon="-5.9228870">
        <ele>1652.4</ele>
        <time>2018-06-17T08:51:32Z</time>
      </trkpt>
      <trkpt lat="43.1841070" lon="-5.9229820">
        <ele>1650.8</ele>
        <time>2018-06-17T08:51:34Z</time>
      </trkpt>
      <trkpt lat="43.1840410" lon="-5.9230640">
        <ele>1649.4</ele>
        <time>2018-06-17T08:51:37Z</time>
      </trkpt>
      <trkpt lat="43.1840060" lon="-5.9230780">
        <ele>1648.6</ele>
        <time>2018-06-17T08:51:40Z</time>
      </trkpt>
      <trkpt lat="43.1839890" lon="-5.9230730">
        <ele>1648.4</ele>
        <time>2018-06-17T08:51:41Z</time>
      </trkpt>
      <trkpt lat="43.1838850" lon="-5.9230550">
        <ele>1647.2</ele>
        <time>2018-06-17T08:51:44Z</time>
      </trkpt>
      <trkpt lat="43.1837860" lon="-5.9230420">
        <ele>1646.2</ele>
        <time>2018-06-17T08:51:46Z</time>
      </trkpt>
      <trkpt lat="43.1836770" lon="-5.9230360">
        <ele>1644.8</ele>
        <time>2018-06-17T08:51:48Z</time>
      </trkpt>
      <trkpt lat="43.1835630" lon="-5.9230270">
        <ele>1643.2</ele>
        <time>2018-06-17T08:51:50Z</time>
      </trkpt>
      <trkpt lat="43.1834350" lon="-5.9230250">
        <ele>1641.4</ele>
        <time>2018-06-17T08:51:52Z</time>
      </trkpt>
      <trkpt lat="43.1833680" lon="-5.9230360">
        <ele>1639.8</ele>
        <time>2018-06-17T08:51:53Z</time>
      </trkpt>
      <trkpt lat="43.1833010" lon="-5.9230450">
        <ele>1638.6</ele>
        <time>2018-06-17T08:51:54Z</time>
      </trkpt>
      <trkpt lat="43.1831610" lon="-5.9230320">
        <ele>1636.4</ele>
        <time>2018-06-17T08:51:56Z</time>
      </trkpt>
      <trkpt lat="43.1830220" lon="-5.9229720">
        <ele>1634.4</ele>
        <time>2018-06-17T08:51:58Z</time>
      </trkpt>
      <trkpt lat="43.1829470" lon="-5.9229450">
        <ele>1633.4</ele>
        <time>2018-06-17T08:51:59Z</time>
      </trkpt>
      <trkpt lat="43.1828660" lon="-5.9229280">
        <ele>1632.0</ele>
        <time>2018-06-17T08:52:00Z</time>
      </trkpt>
      <trkpt lat="43.1826990" lon="-5.9229140">
        <ele>1629.8</ele>
        <time>2018-06-17T08:52:02Z</time>
      </trkpt>
      <trkpt lat="43.1826200" lon="-5.9229040">
        <ele>1628.2</ele>
        <time>2018-06-17T08:52:03Z</time>
      </trkpt>
      <trkpt lat="43.1825430" lon="-5.9228870">
        <ele>1627.0</ele>
        <time>2018-06-17T08:52:04Z</time>
      </trkpt>
      <trkpt lat="43.1824680" lon="-5.9228640">
        <ele>1626.0</ele>
        <time>2018-06-17T08:52:05Z</time>
      </trkpt>
      <trkpt lat="43.1823970" lon="-5.9228370">
        <ele>1625.0</ele>
        <time>2018-06-17T08:52:06Z</time>
      </trkpt>
      <trkpt lat="43.1823290" lon="-5.9228160">
        <ele>1623.8</ele>
        <time>2018-06-17T08:52:07Z</time>
      </trkpt>
      <trkpt lat="43.1822640" lon="-5.9228070">
        <ele>1622.6</ele>
        <time>2018-06-17T08:52:08Z</time>
      </trkpt>
      <trkpt lat="43.1822000" lon="-5.9228040">
        <ele>1621.4</ele>
        <time>2018-06-17T08:52:09Z</time>
      </trkpt>
      <trkpt lat="43.1821400" lon="-5.9228050">
        <ele>1620.2</ele>
        <time>2018-06-17T08:52:10Z</time>
      </trkpt>
      <trkpt lat="43.1820390" lon="-5.9228130">
        <ele>1618.8</ele>
        <time>2018-06-17T08:52:12Z</time>
      </trkpt>
      <trkpt lat="43.1819940" lon="-5.9228160">
        <ele>1618.0</ele>
        <time>2018-06-17T08:52:13Z</time>
      </trkpt>
      <trkpt lat="43.1819460" lon="-5.9228080">
        <ele>1617.2</ele>
        <time>2018-06-17T08:52:14Z</time>
      </trkpt>
      <trkpt lat="43.1818390" lon="-5.9227560">
        <ele>1616.2</ele>
        <time>2018-06-17T08:52:16Z</time>
      </trkpt>
      <trkpt lat="43.1817780" lon="-5.9227140">
        <ele>1615.0</ele>
        <time>2018-06-17T08:52:17Z</time>
      </trkpt>
      <trkpt lat="43.1817240" lon="-5.9226600">
        <ele>1613.4</ele>
        <time>2018-06-17T08:52:18Z</time>
      </trkpt>
      <trkpt lat="43.1816370" lon="-5.9225220">
        <ele>1611.6</ele>
        <time>2018-06-17T08:52:20Z</time>
      </trkpt>
      <trkpt lat="43.1815600" lon="-5.9223700">
        <ele>1609.8</ele>
        <time>2018-06-17T08:52:22Z</time>
      </trkpt>
      <trkpt lat="43.1814800" lon="-5.9222130">
        <ele>1607.6</ele>
        <time>2018-06-17T08:52:24Z</time>
      </trkpt>
      <trkpt lat="43.1814010" lon="-5.9220730">
        <ele>1606.0</ele>
        <time>2018-06-17T08:52:26Z</time>
      </trkpt>
      <trkpt lat="43.1813530" lon="-5.9220120">
        <ele>1604.4</ele>
        <time>2018-06-17T08:52:27Z</time>
      </trkpt>
      <trkpt lat="43.1812990" lon="-5.9219610">
        <ele>1603.2</ele>
        <time>2018-06-17T08:52:28Z</time>
      </trkpt>
      <trkpt lat="43.1811900" lon="-5.9218490">
        <ele>1601.2</ele>
        <time>2018-06-17T08:52:30Z</time>
      </trkpt>
      <trkpt lat="43.1811400" lon="-5.9217720">
        <ele>1600.2</ele>
        <time>2018-06-17T08:52:31Z</time>
      </trkpt>
      <trkpt lat="43.1810910" lon="-5.9216870">
        <ele>1599.0</ele>
        <time>2018-06-17T08:52:32Z</time>
      </trkpt>
      <trkpt lat="43.1810440" lon="-5.9216050">
        <ele>1597.4</ele>
        <time>2018-06-17T08:52:33Z</time>
      </trkpt>
      <trkpt lat="43.1809970" lon="-5.9215320">
        <ele>1596.2</ele>
        <time>2018-06-17T08:52:34Z</time>
      </trkpt>
      <trkpt lat="43.1808760" lon="-5.9214200">
        <ele>1594.0</ele>
        <time>2018-06-17T08:52:36Z</time>
      </trkpt>
      <trkpt lat="43.1807270" lon="-5.9213580">
        <ele>1592.0</ele>
        <time>2018-06-17T08:52:38Z</time>
      </trkpt>
      <trkpt lat="43.1806490" lon="-5.9213460">
        <ele>1590.8</ele>
        <time>2018-06-17T08:52:39Z</time>
      </trkpt>
      <trkpt lat="43.1804940" lon="-5.9213600">
        <ele>1588.6</ele>
        <time>2018-06-17T08:52:41Z</time>
      </trkpt>
      <trkpt lat="43.1804150" lon="-5.9213700">
        <ele>1587.4</ele>
        <time>2018-06-17T08:52:42Z</time>
      </trkpt>
      <trkpt lat="43.1803360" lon="-5.9213710">
        <ele>1586.2</ele>
        <time>2018-06-17T08:52:43Z</time>
      </trkpt>
      <trkpt lat="43.1801780" lon="-5.9213580">
        <ele>1584.2</ele>
        <time>2018-06-17T08:52:45Z</time>
      </trkpt>
      <trkpt lat="43.1800360" lon="-5.9213450">
        <ele>1582.4</ele>
        <time>2018-06-17T08:52:47Z</time>
      </trkpt>
      <trkpt lat="43.1799690" lon="-5.9213290">
        <ele>1581.8</ele>
        <time>2018-06-17T08:52:48Z</time>
      </trkpt>
      <trkpt lat="43.1799040" lon="-5.9213060">
        <ele>1581.0</ele>
        <time>2018-06-17T08:52:49Z</time>
      </trkpt>
      <trkpt lat="43.1797850" lon="-5.9212500">
        <ele>1579.6</ele>
        <time>2018-06-17T08:52:51Z</time>
      </trkpt>
      <trkpt lat="43.1796800" lon="-5.9211800">
        <ele>1578.6</ele>
        <time>2018-06-17T08:52:53Z</time>
      </trkpt>
      <trkpt lat="43.1795890" lon="-5.9210680">
        <ele>1577.4</ele>
        <time>2018-06-17T08:52:55Z</time>
      </trkpt>
      <trkpt lat="43.1794910" lon="-5.9209370">
        <ele>1575.8</ele>
        <time>2018-06-17T08:52:57Z</time>
      </trkpt>
      <trkpt lat="43.1794370" lon="-5.9208810">
        <ele>1575.2</ele>
        <time>2018-06-17T08:52:58Z</time>
      </trkpt>
      <trkpt lat="43.1793770" lon="-5.9208390">
        <ele>1574.6</ele>
        <time>2018-06-17T08:52:59Z</time>
      </trkpt>
      <trkpt lat="43.1792710" lon="-5.9207790">
        <ele>1573.8</ele>
        <time>2018-06-17T08:53:01Z</time>
      </trkpt>
      <trkpt lat="43.1792330" lon="-5.9207400">
        <ele>1573.4</ele>
        <time>2018-06-17T08:53:02Z</time>
      </trkpt>
      <trkpt lat="43.1791620" lon="-5.9205670">
        <ele>1572.0</ele>
        <time>2018-06-17T08:53:05Z</time>
      </trkpt>
      <trkpt lat="43.1791520" lon="-5.9203440">
        <ele>1570.6</ele>
        <time>2018-06-17T08:53:08Z</time>
      </trkpt>
      <trkpt lat="43.1791190" lon="-5.9201690">
        <ele>1569.0</ele>
        <time>2018-06-17T08:53:10Z</time>
      </trkpt>
      <trkpt lat="43.1790950" lon="-5.9200760">
        <ele>1567.6</ele>
        <time>2018-06-17T08:53:11Z</time>
      </trkpt>
      <trkpt lat="43.1790710" lon="-5.9199780">
        <ele>1566.6</ele>
        <time>2018-06-17T08:53:12Z</time>
      </trkpt>
      <trkpt lat="43.1790150" lon="-5.9197880">
        <ele>1564.8</ele>
        <time>2018-06-17T08:53:14Z</time>
      </trkpt>
      <trkpt lat="43.1789680" lon="-5.9197100">
        <ele>1563.4</ele>
        <time>2018-06-17T08:53:15Z</time>
      </trkpt>
      <trkpt lat="43.1788430" lon="-5.9195870">
        <ele>1561.8</ele>
        <time>2018-06-17T08:53:17Z</time>
      </trkpt>
      <trkpt lat="43.1787770" lon="-5.9195340">
        <ele>1561.2</ele>
        <time>2018-06-17T08:53:18Z</time>
      </trkpt>
      <trkpt lat="43.1787160" lon="-5.9194780">
        <ele>1560.6</ele>
        <time>2018-06-17T08:53:19Z</time>
      </trkpt>
      <trkpt lat="43.1786050" lon="-5.9193510">
        <ele>1559.4</ele>
        <time>2018-06-17T08:53:21Z</time>
      </trkpt>
      <trkpt lat="43.1784830" lon="-5.9192280">
        <ele>1558.0</ele>
        <time>2018-06-17T08:53:23Z</time>
      </trkpt>
      <trkpt lat="43.1783170" lon="-5.9191520">
        <ele>1556.2</ele>
        <time>2018-06-17T08:53:25Z</time>
      </trkpt>
      <trkpt lat="43.1782230" lon="-5.9191250">
        <ele>1554.6</ele>
        <time>2018-06-17T08:53:26Z</time>
      </trkpt>
      <trkpt lat="43.1781230" lon="-5.9190990">
        <ele>1553.6</ele>
        <time>2018-06-17T08:53:27Z</time>
      </trkpt>
      <trkpt lat="43.1780180" lon="-5.9190780">
        <ele>1552.4</ele>
        <time>2018-06-17T08:53:28Z</time>
      </trkpt>
      <trkpt lat="43.1779100" lon="-5.9190640">
        <ele>1550.8</ele>
        <time>2018-06-17T08:53:29Z</time>
      </trkpt>
      <trkpt lat="43.1778010" lon="-5.9190560">
        <ele>1549.0</ele>
        <time>2018-06-17T08:53:30Z</time>
      </trkpt>
      <trkpt lat="43.1776910" lon="-5.9190520">
        <ele>1548.0</ele>
        <time>2018-06-17T08:53:31Z</time>
      </trkpt>
      <trkpt lat="43.1774920" lon="-5.9190570">
        <ele>1546.2</ele>
        <time>2018-06-17T08:53:33Z</time>
      </trkpt>
      <trkpt lat="43.1774050" lon="-5.9190680">
        <ele>1545.0</ele>
        <time>2018-06-17T08:53:34Z</time>
      </trkpt>
      <trkpt lat="43.1772420" lon="-5.9190890">
        <ele>1543.0</ele>
        <time>2018-06-17T08:53:36Z</time>
      </trkpt>
      <trkpt lat="43.1771590" lon="-5.9190880">
        <ele>1542.0</ele>
        <time>2018-06-17T08:53:37Z</time>
      </trkpt>
      <trkpt lat="43.1770780" lon="-5.9190750">
        <ele>1540.8</ele>
        <time>2018-06-17T08:53:38Z</time>
      </trkpt>
      <trkpt lat="43.1769240" lon="-5.9190240">
        <ele>1539.2</ele>
        <time>2018-06-17T08:53:40Z</time>
      </trkpt>
      <trkpt lat="43.1768500" lon="-5.9189900">
        <ele>1538.6</ele>
        <time>2018-06-17T08:53:41Z</time>
      </trkpt>
      <trkpt lat="43.1767740" lon="-5.9189500">
        <ele>1537.8</ele>
        <time>2018-06-17T08:53:42Z</time>
      </trkpt>
      <trkpt lat="43.1766140" lon="-5.9188570">
        <ele>1536.4</ele>
        <time>2018-06-17T08:53:44Z</time>
      </trkpt>
      <trkpt lat="43.1765310" lon="-5.9188050">
        <ele>1535.2</ele>
        <time>2018-06-17T08:53:45Z</time>
      </trkpt>
      <trkpt lat="43.1764470" lon="-5.9187540">
        <ele>1534.0</ele>
        <time>2018-06-17T08:53:46Z</time>
      </trkpt>
      <trkpt lat="43.1763630" lon="-5.9187020">
        <ele>1532.4</ele>
        <time>2018-06-17T08:53:47Z</time>
      </trkpt>
      <trkpt lat="43.1762760" lon="-5.9186500">
        <ele>1531.4</ele>
        <time>2018-06-17T08:53:48Z</time>
      </trkpt>
      <trkpt lat="43.1761890" lon="-5.9185990">
        <ele>1530.2</ele>
        <time>2018-06-17T08:53:49Z</time>
      </trkpt>
      <trkpt lat="43.1761030" lon="-5.9185480">
        <ele>1529.2</ele>
        <time>2018-06-17T08:53:50Z</time>
      </trkpt>
      <trkpt lat="43.1760180" lon="-5.9184930">
        <ele>1528.2</ele>
        <time>2018-06-17T08:53:51Z</time>
      </trkpt>
      <trkpt lat="43.1759280" lon="-5.9184410">
        <ele>1526.8</ele>
        <time>2018-06-17T08:53:52Z</time>
      </trkpt>
      <trkpt lat="43.1758310" lon="-5.9183970">
        <ele>1525.6</ele>
        <time>2018-06-17T08:53:53Z</time>
      </trkpt>
      <trkpt lat="43.1757340" lon="-5.9183570">
        <ele>1524.2</ele>
        <time>2018-06-17T08:53:54Z</time>
      </trkpt>
      <trkpt lat="43.1756430" lon="-5.9183190">
        <ele>1522.8</ele>
        <time>2018-06-17T08:53:55Z</time>
      </trkpt>
      <trkpt lat="43.1755580" lon="-5.9182840">
        <ele>1521.6</ele>
        <time>2018-06-17T08:53:56Z</time>
      </trkpt>
      <trkpt lat="43.1754770" lon="-5.9182480">
        <ele>1520.4</ele>
        <time>2018-06-17T08:53:57Z</time>
      </trkpt>
      <trkpt lat="43.1753980" lon="-5.9182140">
        <ele>1519.4</ele>
        <time>2018-06-17T08:53:58Z</time>
      </trkpt>
      <trkpt lat="43.1753220" lon="-5.9181780">
        <ele>1518.2</ele>
        <time>2018-06-17T08:53:59Z</time>
      </trkpt>
      <trkpt lat="43.1752500" lon="-5.9181350">
        <ele>1517.2</ele>
        <time>2018-06-17T08:54:00Z</time>
      </trkpt>
      <trkpt lat="43.1751830" lon="-5.9180820">
        <ele>1516.0</ele>
        <time>2018-06-17T08:54:01Z</time>
      </trkpt>
      <trkpt lat="43.1750720" lon="-5.9179530">
        <ele>1514.4</ele>
        <time>2018-06-17T08:54:03Z</time>
      </trkpt>
      <trkpt lat="43.1750010" lon="-5.9177770">
        <ele>1512.6</ele>
        <time>2018-06-17T08:54:05Z</time>
      </trkpt>
      <trkpt lat="43.1749790" lon="-5.9176710">
        <ele>1511.8</ele>
        <time>2018-06-17T08:54:06Z</time>
      </trkpt>
      <trkpt lat="43.1749580" lon="-5.9175600">
        <ele>1511.0</ele>
        <time>2018-06-17T08:54:07Z</time>
      </trkpt>
      <trkpt lat="43.1749070" lon="-5.9173240">
        <ele>1509.4</ele>
        <time>2018-06-17T08:54:09Z</time>
      </trkpt>
      <trkpt lat="43.1748670" lon="-5.9172050">
        <ele>1508.2</ele>
        <time>2018-06-17T08:54:10Z</time>
      </trkpt>
      <trkpt lat="43.1748170" lon="-5.9170900">
        <ele>1507.0</ele>
        <time>2018-06-17T08:54:11Z</time>
      </trkpt>
      <trkpt lat="43.1747020" lon="-5.9168640">
        <ele>1505.4</ele>
        <time>2018-06-17T08:54:13Z</time>
      </trkpt>
      <trkpt lat="43.1746430" lon="-5.9167500">
        <ele>1504.0</ele>
        <time>2018-06-17T08:54:14Z</time>
      </trkpt>
      <trkpt lat="43.1745840" lon="-5.9166410">
        <ele>1503.0</ele>
        <time>2018-06-17T08:54:15Z</time>
      </trkpt>
      <trkpt lat="43.1744860" lon="-5.9164420">
        <ele>1501.4</ele>
        <time>2018-06-17T08:54:17Z</time>
      </trkpt>
      <trkpt lat="43.1744370" lon="-5.9162340">
        <ele>1500.2</ele>
        <time>2018-06-17T08:54:19Z</time>
      </trkpt>
      <trkpt lat="43.1744380" lon="-5.9159860">
        <ele>1498.6</ele>
        <time>2018-06-17T08:54:21Z</time>
      </trkpt>
      <trkpt lat="43.1744290" lon="-5.9157180">
        <ele>1496.6</ele>
        <time>2018-06-17T08:54:23Z</time>
      </trkpt>
      <trkpt lat="43.1743700" lon="-5.9154390">
        <ele>1495.0</ele>
        <time>2018-06-17T08:54:25Z</time>
      </trkpt>
      <trkpt lat="43.1742740" lon="-5.9151680">
        <ele>1493.8</ele>
        <time>2018-06-17T08:54:27Z</time>
      </trkpt>
      <trkpt lat="43.1742170" lon="-5.9150440">
        <ele>1492.8</ele>
        <time>2018-06-17T08:54:28Z</time>
      </trkpt>
      <trkpt lat="43.1741600" lon="-5.9149240">
        <ele>1491.4</ele>
        <time>2018-06-17T08:54:29Z</time>
      </trkpt>
      <trkpt lat="43.1741030" lon="-5.9148040">
        <ele>1490.4</ele>
        <time>2018-06-17T08:54:30Z</time>
      </trkpt>
      <trkpt lat="43.1740500" lon="-5.9146880">
        <ele>1489.2</ele>
        <time>2018-06-17T08:54:31Z</time>
      </trkpt>
      <trkpt lat="43.1739990" lon="-5.9145750">
        <ele>1487.4</ele>
        <time>2018-06-17T08:54:32Z</time>
      </trkpt>
      <trkpt lat="43.1739480" lon="-5.9144670">
        <ele>1486.2</ele>
        <time>2018-06-17T08:54:33Z</time>
      </trkpt>
      <trkpt lat="43.1738380" lon="-5.9142520">
        <ele>1484.2</ele>
        <time>2018-06-17T08:54:35Z</time>
      </trkpt>
      <trkpt lat="43.1737840" lon="-5.9141470">
        <ele>1483.0</ele>
        <time>2018-06-17T08:54:36Z</time>
      </trkpt>
      <trkpt lat="43.1737340" lon="-5.9140420">
        <ele>1481.6</ele>
        <time>2018-06-17T08:54:37Z</time>
      </trkpt>
      <trkpt lat="43.1736880" lon="-5.9139430">
        <ele>1480.4</ele>
        <time>2018-06-17T08:54:38Z</time>
      </trkpt>
      <trkpt lat="43.1736440" lon="-5.9138470">
        <ele>1479.2</ele>
        <time>2018-06-17T08:54:39Z</time>
      </trkpt>
      <trkpt lat="43.1736020" lon="-5.9137600">
        <ele>1477.8</ele>
        <time>2018-06-17T08:54:40Z</time>
      </trkpt>
      <trkpt lat="43.1735610" lon="-5.9136770">
        <ele>1476.8</ele>
        <time>2018-06-17T08:54:41Z</time>
      </trkpt>
      <trkpt lat="43.1735180" lon="-5.9136040">
        <ele>1476.0</ele>
        <time>2018-06-17T08:54:42Z</time>
      </trkpt>
      <trkpt lat="43.1734680" lon="-5.9135440">
        <ele>1475.4</ele>
        <time>2018-06-17T08:54:43Z</time>
      </trkpt>
      <trkpt lat="43.1733530" lon="-5.9134800">
        <ele>1474.0</ele>
        <time>2018-06-17T08:54:45Z</time>
      </trkpt>
      <trkpt lat="43.1732350" lon="-5.9134460">
        <ele>1472.4</ele>
        <time>2018-06-17T08:54:47Z</time>
      </trkpt>
      <trkpt lat="43.1731760" lon="-5.9134340">
        <ele>1471.6</ele>
        <time>2018-06-17T08:54:48Z</time>
      </trkpt>
      <trkpt lat="43.1731190" lon="-5.9134250">
        <ele>1471.2</ele>
        <time>2018-06-17T08:54:49Z</time>
      </trkpt>
      <trkpt lat="43.1729670" lon="-5.9134090">
        <ele>1470.0</ele>
        <time>2018-06-17T08:54:52Z</time>
      </trkpt>
      <trkpt lat="43.1729070" lon="-5.9133990">
        <ele>1469.8</ele>
        <time>2018-06-17T08:54:54Z</time>
      </trkpt>
      <trkpt lat="43.1728880" lon="-5.9133930">
        <ele>1469.6</ele>
        <time>2018-06-17T08:54:55Z</time>
      </trkpt>
      <trkpt lat="43.1727930" lon="-5.9133230">
        <ele>1469.0</ele>
        <time>2018-06-17T08:55:01Z</time>
      </trkpt>
      <trkpt lat="43.1726260" lon="-5.9131950">
        <ele>1467.8</ele>
        <time>2018-06-17T08:55:06Z</time>
      </trkpt>
      <trkpt lat="43.1725140" lon="-5.9131100">
        <ele>1466.2</ele>
        <time>2018-06-17T08:55:08Z</time>
      </trkpt>
      <trkpt lat="43.1723760" lon="-5.9130140">
        <ele>1464.6</ele>
        <time>2018-06-17T08:55:10Z</time>
      </trkpt>
      <trkpt lat="43.1722280" lon="-5.9128860">
        <ele>1463.0</ele>
        <time>2018-06-17T08:55:12Z</time>
      </trkpt>
      <trkpt lat="43.1720830" lon="-5.9127300">
        <ele>1461.0</ele>
        <time>2018-06-17T08:55:14Z</time>
      </trkpt>
      <trkpt lat="43.1719510" lon="-5.9125690">
        <ele>1459.0</ele>
        <time>2018-06-17T08:55:16Z</time>
      </trkpt>
      <trkpt lat="43.1718190" lon="-5.9124070">
        <ele>1457.4</ele>
        <time>2018-06-17T08:55:18Z</time>
      </trkpt>
      <trkpt lat="43.1717010" lon="-5.9122200">
        <ele>1455.6</ele>
        <time>2018-06-17T08:55:20Z</time>
      </trkpt>
      <trkpt lat="43.1716490" lon="-5.9121140">
        <ele>1454.6</ele>
        <time>2018-06-17T08:55:21Z</time>
      </trkpt>
      <trkpt lat="43.1715990" lon="-5.9120020">
        <ele>1453.6</ele>
        <time>2018-06-17T08:55:22Z</time>
      </trkpt>
      <trkpt lat="43.1714960" lon="-5.9117730">
        <ele>1451.0</ele>
        <time>2018-06-17T08:55:24Z</time>
      </trkpt>
      <trkpt lat="43.1714440" lon="-5.9116560">
        <ele>1449.6</ele>
        <time>2018-06-17T08:55:25Z</time>
      </trkpt>
      <trkpt lat="43.1713960" lon="-5.9115330">
        <ele>1448.6</ele>
        <time>2018-06-17T08:55:26Z</time>
      </trkpt>
      <trkpt lat="43.1713180" lon="-5.9112750">
        <ele>1446.6</ele>
        <time>2018-06-17T08:55:28Z</time>
      </trkpt>
      <trkpt lat="43.1712610" lon="-5.9110030">
        <ele>1445.2</ele>
        <time>2018-06-17T08:55:30Z</time>
      </trkpt>
      <trkpt lat="43.1712280" lon="-5.9107190">
        <ele>1443.8</ele>
        <time>2018-06-17T08:55:32Z</time>
      </trkpt>
      <trkpt lat="43.1712470" lon="-5.9104390">
        <ele>1442.4</ele>
        <time>2018-06-17T08:55:34Z</time>
      </trkpt>
      <trkpt lat="43.1714120" lon="-5.9100270">
        <ele>1441.2</ele>
        <time>2018-06-17T08:55:38Z</time>
      </trkpt>
      <trkpt lat="43.1712630" lon="-5.9096240">
        <ele>1439.8</ele>
        <time>2018-06-17T08:55:43Z</time>
      </trkpt>
      <trkpt lat="43.1711890" lon="-5.9095540">
        <ele>1439.0</ele>
        <time>2018-06-17T08:55:44Z</time>
      </trkpt>
      <trkpt lat="43.1711200" lon="-5.9094660">
        <ele>1438.2</ele>
        <time>2018-06-17T08:55:45Z</time>
      </trkpt>
      <trkpt lat="43.1710670" lon="-5.9093490">
        <ele>1436.8</ele>
        <time>2018-06-17T08:55:46Z</time>
      </trkpt>
      <trkpt lat="43.1710260" lon="-5.9092120">
        <ele>1435.8</ele>
        <time>2018-06-17T08:55:47Z</time>
      </trkpt>
      <trkpt lat="43.1709910" lon="-5.9090660">
        <ele>1433.8</ele>
        <time>2018-06-17T08:55:48Z</time>
      </trkpt>
      <trkpt lat="43.1709600" lon="-5.9089110">
        <ele>1432.2</ele>
        <time>2018-06-17T08:55:49Z</time>
      </trkpt>
      <trkpt lat="43.1709450" lon="-5.9087670">
        <ele>1430.4</ele>
        <time>2018-06-17T08:55:50Z</time>
      </trkpt>
      <trkpt lat="43.1709460" lon="-5.9086360">
        <ele>1428.6</ele>
        <time>2018-06-17T08:55:51Z</time>
      </trkpt>
      <trkpt lat="43.1709600" lon="-5.9085280">
        <ele>1427.6</ele>
        <time>2018-06-17T08:55:52Z</time>
      </trkpt>
      <trkpt lat="43.1709900" lon="-5.9083810">
        <ele>1426.6</ele>
        <time>2018-06-17T08:55:54Z</time>
      </trkpt>
      <trkpt lat="43.1710010" lon="-5.9083340">
        <ele>1426.0</ele>
        <time>2018-06-17T08:55:55Z</time>
      </trkpt>
      <trkpt lat="43.1710100" lon="-5.9082520">
        <ele>1424.8</ele>
        <time>2018-06-17T08:55:57Z</time>
      </trkpt>
      <trkpt lat="43.1710090" lon="-5.9081550">
        <ele>1423.8</ele>
        <time>2018-06-17T08:55:59Z</time>
      </trkpt>
      <trkpt lat="43.1709960" lon="-5.9080240">
        <ele>1422.4</ele>
        <time>2018-06-17T08:56:02Z</time>
      </trkpt>
      <trkpt lat="43.1709860" lon="-5.9079390">
        <ele>1421.0</ele>
        <time>2018-06-17T08:56:04Z</time>
      </trkpt>
      <trkpt lat="43.1709800" lon="-5.9078100">
        <ele>1419.8</ele>
        <time>2018-06-17T08:56:07Z</time>
      </trkpt>
      <trkpt lat="43.1709820" lon="-5.9076800">
        <ele>1418.6</ele>
        <time>2018-06-17T08:56:10Z</time>
      </trkpt>
      <trkpt lat="43.1709940" lon="-5.9075400">
        <ele>1417.6</ele>
        <time>2018-06-17T08:56:13Z</time>
      </trkpt>
      <trkpt lat="43.1709990" lon="-5.9074900">
        <ele>1417.2</ele>
        <time>2018-06-17T08:56:14Z</time>
      </trkpt>
      <trkpt lat="43.1710080" lon="-5.9073950">
        <ele>1415.8</ele>
        <time>2018-06-17T08:56:16Z</time>
      </trkpt>
      <trkpt lat="43.1710140" lon="-5.9073110">
        <ele>1414.6</ele>
        <time>2018-06-17T08:56:18Z</time>
      </trkpt>
      <trkpt lat="43.1710160" lon="-5.9072270">
        <ele>1413.6</ele>
        <time>2018-06-17T08:56:20Z</time>
      </trkpt>
      <trkpt lat="43.1710010" lon="-5.9070740">
        <ele>1411.8</ele>
        <time>2018-06-17T08:56:23Z</time>
      </trkpt>
      <trkpt lat="43.1709560" lon="-5.9069690">
        <ele>1410.6</ele>
        <time>2018-06-17T08:56:25Z</time>
      </trkpt>
      <trkpt lat="43.1709210" lon="-5.9069140">
        <ele>1409.6</ele>
        <time>2018-06-17T08:56:26Z</time>
      </trkpt>
      <trkpt lat="43.1708240" lon="-5.9067960">
        <ele>1407.8</ele>
        <time>2018-06-17T08:56:28Z</time>
      </trkpt>
      <trkpt lat="43.1706930" lon="-5.9066490">
        <ele>1405.8</ele>
        <time>2018-06-17T08:56:30Z</time>
      </trkpt>
      <trkpt lat="43.1706230" lon="-5.9065570">
        <ele>1404.4</ele>
        <time>2018-06-17T08:56:31Z</time>
      </trkpt>
      <trkpt lat="43.1705560" lon="-5.9064530">
        <ele>1403.2</ele>
        <time>2018-06-17T08:56:32Z</time>
      </trkpt>
      <trkpt lat="43.1704860" lon="-5.9063380">
        <ele>1402.0</ele>
        <time>2018-06-17T08:56:33Z</time>
      </trkpt>
      <trkpt lat="43.1704120" lon="-5.9062180">
        <ele>1400.6</ele>
        <time>2018-06-17T08:56:34Z</time>
      </trkpt>
      <trkpt lat="43.1703350" lon="-5.9060950">
        <ele>1399.0</ele>
        <time>2018-06-17T08:56:35Z</time>
      </trkpt>
      <trkpt lat="43.1702600" lon="-5.9059710">
        <ele>1397.6</ele>
        <time>2018-06-17T08:56:36Z</time>
      </trkpt>
      <trkpt lat="43.1701900" lon="-5.9058400">
        <ele>1396.4</ele>
        <time>2018-06-17T08:56:37Z</time>
      </trkpt>
      <trkpt lat="43.1701260" lon="-5.9056990">
        <ele>1395.2</ele>
        <time>2018-06-17T08:56:38Z</time>
      </trkpt>
      <trkpt lat="43.1700680" lon="-5.9055450">
        <ele>1393.4</ele>
        <time>2018-06-17T08:56:39Z</time>
      </trkpt>
      <trkpt lat="43.1700090" lon="-5.9053840">
        <ele>1391.4</ele>
        <time>2018-06-17T08:56:40Z</time>
      </trkpt>
      <trkpt lat="43.1699460" lon="-5.9052200">
        <ele>1389.8</ele>
        <time>2018-06-17T08:56:41Z</time>
      </trkpt>
      <trkpt lat="43.1698830" lon="-5.9050520">
        <ele>1387.4</ele>
        <time>2018-06-17T08:56:42Z</time>
      </trkpt>
      <trkpt lat="43.1698190" lon="-5.9048840">
        <ele>1385.4</ele>
        <time>2018-06-17T08:56:43Z</time>
      </trkpt>
      <trkpt lat="43.1697570" lon="-5.9047180">
        <ele>1383.4</ele>
        <time>2018-06-17T08:56:44Z</time>
      </trkpt>
      <trkpt lat="43.1696950" lon="-5.9045500">
        <ele>1381.8</ele>
        <time>2018-06-17T08:56:45Z</time>
      </trkpt>
      <trkpt lat="43.1696400" lon="-5.9043740">
        <ele>1379.4</ele>
        <time>2018-06-17T08:56:46Z</time>
      </trkpt>
      <trkpt lat="43.1695930" lon="-5.9041920">
        <ele>1378.0</ele>
        <time>2018-06-17T08:56:47Z</time>
      </trkpt>
      <trkpt lat="43.1695510" lon="-5.9040150">
        <ele>1376.2</ele>
        <time>2018-06-17T08:56:48Z</time>
      </trkpt>
      <trkpt lat="43.1695100" lon="-5.9038440">
        <ele>1375.0</ele>
        <time>2018-06-17T08:56:49Z</time>
      </trkpt>
      <trkpt lat="43.1694730" lon="-5.9036830">
        <ele>1373.2</ele>
        <time>2018-06-17T08:56:50Z</time>
      </trkpt>
      <trkpt lat="43.1694410" lon="-5.9035320">
        <ele>1371.6</ele>
        <time>2018-06-17T08:56:51Z</time>
      </trkpt>
      <trkpt lat="43.1694150" lon="-5.9033930">
        <ele>1370.2</ele>
        <time>2018-06-17T08:56:52Z</time>
      </trkpt>
      <trkpt lat="43.1694030" lon="-5.9032590">
        <ele>1369.2</ele>
        <time>2018-06-17T08:56:53Z</time>
      </trkpt>
      <trkpt lat="43.1694110" lon="-5.9031250">
        <ele>1368.2</ele>
        <time>2018-06-17T08:56:54Z</time>
      </trkpt>
      <trkpt lat="43.1694380" lon="-5.9029990">
        <ele>1366.6</ele>
        <time>2018-06-17T08:56:55Z</time>
      </trkpt>
      <trkpt lat="43.1694960" lon="-5.9027840">
        <ele>1365.0</ele>
        <time>2018-06-17T08:56:57Z</time>
      </trkpt>
      <trkpt lat="43.1695120" lon="-5.9026890">
        <ele>1364.4</ele>
        <time>2018-06-17T08:56:58Z</time>
      </trkpt>
      <trkpt lat="43.1695090" lon="-5.9025950">
        <ele>1363.6</ele>
        <time>2018-06-17T08:56:59Z</time>
      </trkpt>
      <trkpt lat="43.1694570" lon="-5.9024070">
        <ele>1362.2</ele>
        <time>2018-06-17T08:57:01Z</time>
      </trkpt>
      <trkpt lat="43.1694410" lon="-5.9023150">
        <ele>1361.0</ele>
        <time>2018-06-17T08:57:02Z</time>
      </trkpt>
      <trkpt lat="43.1694530" lon="-5.9021230">
        <ele>1359.4</ele>
        <time>2018-06-17T08:57:04Z</time>
      </trkpt>
      <trkpt lat="43.1694200" lon="-5.9019200">
        <ele>1358.0</ele>
        <time>2018-06-17T08:57:06Z</time>
      </trkpt>
      <trkpt lat="43.1693330" lon="-5.9017210">
        <ele>1355.4</ele>
        <time>2018-06-17T08:57:08Z</time>
      </trkpt>
      <trkpt lat="43.1692830" lon="-5.9016290">
        <ele>1354.4</ele>
        <time>2018-06-17T08:57:09Z</time>
      </trkpt>
      <trkpt lat="43.1691690" lon="-5.9014640">
        <ele>1353.0</ele>
        <time>2018-06-17T08:57:11Z</time>
      </trkpt>
      <trkpt lat="43.1690330" lon="-5.9013150">
        <ele>1351.4</ele>
        <time>2018-06-17T08:57:13Z</time>
      </trkpt>
      <trkpt lat="43.1689610" lon="-5.9012450">
        <ele>1350.8</ele>
        <time>2018-06-17T08:57:14Z</time>
      </trkpt>
      <trkpt lat="43.1689000" lon="-5.9011770">
        <ele>1350.0</ele>
        <time>2018-06-17T08:57:15Z</time>
      </trkpt>
      <trkpt lat="43.1688140" lon="-5.9010580">
        <ele>1348.2</ele>
        <time>2018-06-17T08:57:17Z</time>
      </trkpt>
      <trkpt lat="43.1687100" lon="-5.9009860">
        <ele>1347.0</ele>
        <time>2018-06-17T08:57:19Z</time>
      </trkpt>
      <trkpt lat="43.1685630" lon="-5.9009860">
        <ele>1345.4</ele>
        <time>2018-06-17T08:57:21Z</time>
      </trkpt>
      <trkpt lat="43.1684820" lon="-5.9009960">
        <ele>1344.0</ele>
        <time>2018-06-17T08:57:22Z</time>
      </trkpt>
      <trkpt lat="43.1684020" lon="-5.9010080">
        <ele>1343.0</ele>
        <time>2018-06-17T08:57:23Z</time>
      </trkpt>
      <trkpt lat="43.1683240" lon="-5.9010250">
        <ele>1342.2</ele>
        <time>2018-06-17T08:57:24Z</time>
      </trkpt>
      <trkpt lat="43.1682470" lon="-5.9010560">
        <ele>1341.4</ele>
        <time>2018-06-17T08:57:25Z</time>
      </trkpt>
      <trkpt lat="43.1680800" lon="-5.9011430">
        <ele>1339.6</ele>
        <time>2018-06-17T08:57:27Z</time>
      </trkpt>
      <trkpt lat="43.1679890" lon="-5.9012050">
        <ele>1338.4</ele>
        <time>2018-06-17T08:57:28Z</time>
      </trkpt>
      <trkpt lat="43.1678950" lon="-5.9012780">
        <ele>1337.0</ele>
        <time>2018-06-17T08:57:29Z</time>
      </trkpt>
      <trkpt lat="43.1678000" lon="-5.9013610">
        <ele>1335.8</ele>
        <time>2018-06-17T08:57:30Z</time>
      </trkpt>
      <trkpt lat="43.1677060" lon="-5.9014510">
        <ele>1334.0</ele>
        <time>2018-06-17T08:57:31Z</time>
      </trkpt>
      <trkpt lat="43.1676160" lon="-5.9015460">
        <ele>1332.6</ele>
        <time>2018-06-17T08:57:32Z</time>
      </trkpt>
      <trkpt lat="43.1675290" lon="-5.9016400">
        <ele>1331.4</ele>
        <time>2018-06-17T08:57:33Z</time>
      </trkpt>
      <trkpt lat="43.1674410" lon="-5.9017150">
        <ele>1330.6</ele>
        <time>2018-06-17T08:57:34Z</time>
      </trkpt>
      <trkpt lat="43.1673550" lon="-5.9017640">
        <ele>1330.2</ele>
        <time>2018-06-17T08:57:35Z</time>
      </trkpt>
      <trkpt lat="43.1672130" lon="-5.9017940">
        <ele>1329.6</ele>
        <time>2018-06-17T08:57:37Z</time>
      </trkpt>
      <trkpt lat="43.1671210" lon="-5.9016060">
        <ele>1329.4</ele>
        <time>2018-06-17T08:57:40Z</time>
      </trkpt>
      <trkpt lat="43.1671280" lon="-5.9014220">
        <ele>1329.0</ele>
        <time>2018-06-17T08:57:42Z</time>
      </trkpt>
      <trkpt lat="43.1671420" lon="-5.9012420">
        <ele>1328.6</ele>
        <time>2018-06-17T08:57:44Z</time>
      </trkpt>
      <trkpt lat="43.1671440" lon="-5.9011470">
        <ele>1328.4</ele>
        <time>2018-06-17T08:57:45Z</time>
      </trkpt>
      <trkpt lat="43.1671370" lon="-5.9010460">
        <ele>1328.0</ele>
        <time>2018-06-17T08:57:46Z</time>
      </trkpt>
      <trkpt lat="43.1670850" lon="-5.9007670">
        <ele>1326.2</ele>
        <time>2018-06-17T08:57:49Z</time>
      </trkpt>
      <trkpt lat="43.1670310" lon="-5.9006640">
        <ele>1325.6</ele>
        <time>2018-06-17T08:57:51Z</time>
      </trkpt>
      <trkpt lat="43.1669420" lon="-5.9006680">
        <ele>1325.0</ele>
        <time>2018-06-17T08:57:53Z</time>
      </trkpt>
      <trkpt lat="43.1668460" lon="-5.9007490">
        <ele>1324.2</ele>
        <time>2018-06-17T08:57:55Z</time>
      </trkpt>
      <trkpt lat="43.1667960" lon="-5.9008000">
        <ele>1323.4</ele>
        <time>2018-06-17T08:57:56Z</time>
      </trkpt>
      <trkpt lat="43.1666880" lon="-5.9009130">
        <ele>1322.2</ele>
        <time>2018-06-17T08:57:58Z</time>
      </trkpt>
      <trkpt lat="43.1664930" lon="-5.9010810">
        <ele>1320.8</ele>
        <time>2018-06-17T08:58:01Z</time>
      </trkpt>
      <trkpt lat="43.1662590" lon="-5.9012170">
        <ele>1319.4</ele>
        <time>2018-06-17T08:58:04Z</time>
      </trkpt>
      <trkpt lat="43.1660910" lon="-5.9012940">
        <ele>1318.2</ele>
        <time>2018-06-17T08:58:06Z</time>
      </trkpt>
      <trkpt lat="43.1660120" lon="-5.9013350">
        <ele>1317.2</ele>
        <time>2018-06-17T08:58:07Z</time>
      </trkpt>
      <trkpt lat="43.1657190" lon="-5.9015500">
        <ele>1316.0</ele>
        <time>2018-06-17T08:58:12Z</time>
      </trkpt>
      <trkpt lat="43.1655560" lon="-5.9017440">
        <ele>1314.8</ele>
        <time>2018-06-17T08:58:16Z</time>
      </trkpt>
      <trkpt lat="43.1654430" lon="-5.9019180">
        <ele>1314.0</ele>
        <time>2018-06-17T08:58:23Z</time>
      </trkpt>
      <trkpt lat="43.1654430" lon="-5.9019170">
        <ele>1314.0</ele>
        <time>2018-06-17T08:58:24Z</time>
      </trkpt>
      <trkpt lat="43.1654460" lon="-5.9019570">
        <ele>1313.6</ele>
        <time>2018-06-17T09:01:26Z</time>
      </trkpt>
      <trkpt lat="43.1654190" lon="-5.9021210">
        <ele>1313.2</ele>
        <time>2018-06-17T09:01:31Z</time>
      </trkpt>
      <trkpt lat="43.1654250" lon="-5.9022470">
        <ele>1312.6</ele>
        <time>2018-06-17T09:01:34Z</time>
      </trkpt>
      <trkpt lat="43.1654350" lon="-5.9022990">
        <ele>1312.2</ele>
        <time>2018-06-17T09:01:35Z</time>
      </trkpt>
      <trkpt lat="43.1654510" lon="-5.9024350">
        <ele>1311.2</ele>
        <time>2018-06-17T09:01:37Z</time>
      </trkpt>
      <trkpt lat="43.1654280" lon="-5.9025990">
        <ele>1310.2</ele>
        <time>2018-06-17T09:01:39Z</time>
      </trkpt>
      <trkpt lat="43.1654070" lon="-5.9026810">
        <ele>1309.4</ele>
        <time>2018-06-17T09:01:40Z</time>
      </trkpt>
      <trkpt lat="43.1653840" lon="-5.9027630">
        <ele>1308.2</ele>
        <time>2018-06-17T09:01:41Z</time>
      </trkpt>
      <trkpt lat="43.1653370" lon="-5.9029070">
        <ele>1306.6</ele>
        <time>2018-06-17T09:01:43Z</time>
      </trkpt>
      <trkpt lat="43.1653030" lon="-5.9030170">
        <ele>1305.4</ele>
        <time>2018-06-17T09:01:45Z</time>
      </trkpt>
      <trkpt lat="43.1652580" lon="-5.9031540">
        <ele>1304.4</ele>
        <time>2018-06-17T09:01:48Z</time>
      </trkpt>
      <trkpt lat="43.1652120" lon="-5.9032920">
        <ele>1303.4</ele>
        <time>2018-06-17T09:01:50Z</time>
      </trkpt>
      <trkpt lat="43.1651580" lon="-5.9034680">
        <ele>1301.6</ele>
        <time>2018-06-17T09:01:52Z</time>
      </trkpt>
      <trkpt lat="43.1651260" lon="-5.9035700">
        <ele>1300.6</ele>
        <time>2018-06-17T09:01:53Z</time>
      </trkpt>
      <trkpt lat="43.1650920" lon="-5.9036830">
        <ele>1299.4</ele>
        <time>2018-06-17T09:01:54Z</time>
      </trkpt>
      <trkpt lat="43.1650570" lon="-5.9038040">
        <ele>1298.2</ele>
        <time>2018-06-17T09:01:55Z</time>
      </trkpt>
      <trkpt lat="43.1649830" lon="-5.9040670">
        <ele>1296.0</ele>
        <time>2018-06-17T09:01:57Z</time>
      </trkpt>
      <trkpt lat="43.1649450" lon="-5.9041980">
        <ele>1294.0</ele>
        <time>2018-06-17T09:01:58Z</time>
      </trkpt>
      <trkpt lat="43.1649020" lon="-5.9043310">
        <ele>1293.0</ele>
        <time>2018-06-17T09:01:59Z</time>
      </trkpt>
      <trkpt lat="43.1648050" lon="-5.9046020">
        <ele>1290.6</ele>
        <time>2018-06-17T09:02:01Z</time>
      </trkpt>
      <trkpt lat="43.1647570" lon="-5.9047270">
        <ele>1289.4</ele>
        <time>2018-06-17T09:02:02Z</time>
      </trkpt>
      <trkpt lat="43.1647090" lon="-5.9048400">
        <ele>1288.4</ele>
        <time>2018-06-17T09:02:03Z</time>
      </trkpt>
      <trkpt lat="43.1646630" lon="-5.9049370">
        <ele>1287.2</ele>
        <time>2018-06-17T09:02:04Z</time>
      </trkpt>
      <trkpt lat="43.1645860" lon="-5.9050880">
        <ele>1285.6</ele>
        <time>2018-06-17T09:02:06Z</time>
      </trkpt>
      <trkpt lat="43.1645290" lon="-5.9051780">
        <ele>1284.4</ele>
        <time>2018-06-17T09:02:08Z</time>
      </trkpt>
      <trkpt lat="43.1644840" lon="-5.9052430">
        <ele>1283.4</ele>
        <time>2018-06-17T09:02:12Z</time>
      </trkpt>
      <trkpt lat="43.1644650" lon="-5.9052580">
        <ele>1283.0</ele>
        <time>2018-06-17T09:02:13Z</time>
      </trkpt>
      <trkpt lat="43.1644060" lon="-5.9053040">
        <ele>1282.2</ele>
        <time>2018-06-17T09:02:15Z</time>
      </trkpt>
      <trkpt lat="43.1643180" lon="-5.9053910">
        <ele>1281.6</ele>
        <time>2018-06-17T09:02:17Z</time>
      </trkpt>
      <trkpt lat="43.1642670" lon="-5.9054400">
        <ele>1281.0</ele>
        <time>2018-06-17T09:02:18Z</time>
      </trkpt>
      <trkpt lat="43.1641540" lon="-5.9055410">
        <ele>1280.0</ele>
        <time>2018-06-17T09:02:20Z</time>
      </trkpt>
      <trkpt lat="43.1640330" lon="-5.9056520">
        <ele>1279.0</ele>
        <time>2018-06-17T09:02:22Z</time>
      </trkpt>
      <trkpt lat="43.1638820" lon="-5.9056790">
        <ele>1277.4</ele>
        <time>2018-06-17T09:02:24Z</time>
      </trkpt>
      <trkpt lat="43.1637070" lon="-5.9056920">
        <ele>1275.8</ele>
        <time>2018-06-17T09:02:26Z</time>
      </trkpt>
      <trkpt lat="43.1635430" lon="-5.9056980">
        <ele>1274.6</ele>
        <time>2018-06-17T09:02:28Z</time>
      </trkpt>
      <trkpt lat="43.1633630" lon="-5.9057190">
        <ele>1273.4</ele>
        <time>2018-06-17T09:02:30Z</time>
      </trkpt>
      <trkpt lat="43.1632700" lon="-5.9057440">
        <ele>1272.2</ele>
        <time>2018-06-17T09:02:31Z</time>
      </trkpt>
      <trkpt lat="43.1631690" lon="-5.9057730">
        <ele>1270.8</ele>
        <time>2018-06-17T09:02:32Z</time>
      </trkpt>
      <trkpt lat="43.1630680" lon="-5.9058050">
        <ele>1270.0</ele>
        <time>2018-06-17T09:02:33Z</time>
      </trkpt>
      <trkpt lat="43.1629730" lon="-5.9058330">
        <ele>1268.8</ele>
        <time>2018-06-17T09:02:34Z</time>
      </trkpt>
      <trkpt lat="43.1628860" lon="-5.9058590">
        <ele>1267.2</ele>
        <time>2018-06-17T09:02:35Z</time>
      </trkpt>
      <trkpt lat="43.1628090" lon="-5.9058820">
        <ele>1266.0</ele>
        <time>2018-06-17T09:02:36Z</time>
      </trkpt>
      <trkpt lat="43.1626630" lon="-5.9059450">
        <ele>1264.6</ele>
        <time>2018-06-17T09:02:38Z</time>
      </trkpt>
      <trkpt lat="43.1625130" lon="-5.9060590">
        <ele>1263.0</ele>
        <time>2018-06-17T09:02:40Z</time>
      </trkpt>
      <trkpt lat="43.1623470" lon="-5.9061960">
        <ele>1260.8</ele>
        <time>2018-06-17T09:02:42Z</time>
      </trkpt>
      <trkpt lat="43.1622670" lon="-5.9062640">
        <ele>1259.2</ele>
        <time>2018-06-17T09:02:43Z</time>
      </trkpt>
      <trkpt lat="43.1621190" lon="-5.9063890">
        <ele>1257.4</ele>
        <time>2018-06-17T09:02:45Z</time>
      </trkpt>
      <trkpt lat="43.1619800" lon="-5.9064970">
        <ele>1255.6</ele>
        <time>2018-06-17T09:02:47Z</time>
      </trkpt>
      <trkpt lat="43.1619070" lon="-5.9065410">
        <ele>1254.6</ele>
        <time>2018-06-17T09:02:48Z</time>
      </trkpt>
      <trkpt lat="43.1618280" lon="-5.9065760">
        <ele>1253.6</ele>
        <time>2018-06-17T09:02:49Z</time>
      </trkpt>
      <trkpt lat="43.1617440" lon="-5.9065980">
        <ele>1252.4</ele>
        <time>2018-06-17T09:02:50Z</time>
      </trkpt>
      <trkpt lat="43.1616530" lon="-5.9066060">
        <ele>1251.2</ele>
        <time>2018-06-17T09:02:51Z</time>
      </trkpt>
      <trkpt lat="43.1615600" lon="-5.9065950">
        <ele>1249.4</ele>
        <time>2018-06-17T09:02:52Z</time>
      </trkpt>
      <trkpt lat="43.1614670" lon="-5.9065690">
        <ele>1248.0</ele>
        <time>2018-06-17T09:02:53Z</time>
      </trkpt>
      <trkpt lat="43.1613800" lon="-5.9065510">
        <ele>1246.6</ele>
        <time>2018-06-17T09:02:54Z</time>
      </trkpt>
      <trkpt lat="43.1612920" lon="-5.9065660">
        <ele>1245.6</ele>
        <time>2018-06-17T09:02:55Z</time>
      </trkpt>
      <trkpt lat="43.1612080" lon="-5.9066100">
        <ele>1244.2</ele>
        <time>2018-06-17T09:02:56Z</time>
      </trkpt>
      <trkpt lat="43.1611210" lon="-5.9066750">
        <ele>1243.0</ele>
        <time>2018-06-17T09:02:57Z</time>
      </trkpt>
      <trkpt lat="43.1610400" lon="-5.9067430">
        <ele>1241.8</ele>
        <time>2018-06-17T09:02:58Z</time>
      </trkpt>
      <trkpt lat="43.1609670" lon="-5.9068060">
        <ele>1240.6</ele>
        <time>2018-06-17T09:02:59Z</time>
      </trkpt>
      <trkpt lat="43.1609080" lon="-5.9068570">
        <ele>1239.4</ele>
        <time>2018-06-17T09:03:00Z</time>
      </trkpt>
      <trkpt lat="43.1608590" lon="-5.9068830">
        <ele>1238.4</ele>
        <time>2018-06-17T09:03:01Z</time>
      </trkpt>
      <trkpt lat="43.1607500" lon="-5.9068490">
        <ele>1237.4</ele>
        <time>2018-06-17T09:03:03Z</time>
      </trkpt>
      <trkpt lat="43.1606310" lon="-5.9067150">
        <ele>1236.2</ele>
        <time>2018-06-17T09:03:05Z</time>
      </trkpt>
      <trkpt lat="43.1605720" lon="-5.9066490">
        <ele>1235.2</ele>
        <time>2018-06-17T09:03:06Z</time>
      </trkpt>
      <trkpt lat="43.1604710" lon="-5.9065400">
        <ele>1233.4</ele>
        <time>2018-06-17T09:03:08Z</time>
      </trkpt>
      <trkpt lat="43.1604250" lon="-5.9064830">
        <ele>1232.6</ele>
        <time>2018-06-17T09:03:09Z</time>
      </trkpt>
      <trkpt lat="43.1603790" lon="-5.9064130">
        <ele>1231.6</ele>
        <time>2018-06-17T09:03:10Z</time>
      </trkpt>
      <trkpt lat="43.1602890" lon="-5.9062370">
        <ele>1230.0</ele>
        <time>2018-06-17T09:03:12Z</time>
      </trkpt>
      <trkpt lat="43.1602010" lon="-5.9060550">
        <ele>1227.8</ele>
        <time>2018-06-17T09:03:14Z</time>
      </trkpt>
      <trkpt lat="43.1601620" lon="-5.9059730">
        <ele>1226.6</ele>
        <time>2018-06-17T09:03:15Z</time>
      </trkpt>
      <trkpt lat="43.1600780" lon="-5.9058400">
        <ele>1225.0</ele>
        <time>2018-06-17T09:03:17Z</time>
      </trkpt>
      <trkpt lat="43.1599560" lon="-5.9058020">
        <ele>1223.0</ele>
        <time>2018-06-17T09:03:19Z</time>
      </trkpt>
      <trkpt lat="43.1598490" lon="-5.9059000">
        <ele>1221.2</ele>
        <time>2018-06-17T09:03:21Z</time>
      </trkpt>
      <trkpt lat="43.1598040" lon="-5.9059830">
        <ele>1220.4</ele>
        <time>2018-06-17T09:03:22Z</time>
      </trkpt>
      <trkpt lat="43.1597550" lon="-5.9060680">
        <ele>1219.8</ele>
        <time>2018-06-17T09:03:23Z</time>
      </trkpt>
      <trkpt lat="43.1596310" lon="-5.9062270">
        <ele>1218.8</ele>
        <time>2018-06-17T09:03:25Z</time>
      </trkpt>
      <trkpt lat="43.1595010" lon="-5.9063530">
        <ele>1217.6</ele>
        <time>2018-06-17T09:03:27Z</time>
      </trkpt>
      <trkpt lat="43.1593500" lon="-5.9064050">
        <ele>1216.4</ele>
        <time>2018-06-17T09:03:29Z</time>
      </trkpt>
      <trkpt lat="43.1591920" lon="-5.9063470">
        <ele>1215.2</ele>
        <time>2018-06-17T09:03:31Z</time>
      </trkpt>
      <trkpt lat="43.1590230" lon="-5.9062190">
        <ele>1213.6</ele>
        <time>2018-06-17T09:03:33Z</time>
      </trkpt>
      <trkpt lat="43.1589340" lon="-5.9061570">
        <ele>1212.4</ele>
        <time>2018-06-17T09:03:34Z</time>
      </trkpt>
      <trkpt lat="43.1588490" lon="-5.9061000">
        <ele>1211.2</ele>
        <time>2018-06-17T09:03:35Z</time>
      </trkpt>
      <trkpt lat="43.1587690" lon="-5.9060460">
        <ele>1210.2</ele>
        <time>2018-06-17T09:03:36Z</time>
      </trkpt>
      <trkpt lat="43.1586940" lon="-5.9059890">
        <ele>1208.8</ele>
        <time>2018-06-17T09:03:37Z</time>
      </trkpt>
      <trkpt lat="43.1585470" lon="-5.9058780">
        <ele>1207.6</ele>
        <time>2018-06-17T09:03:39Z</time>
      </trkpt>
      <trkpt lat="43.1583630" lon="-5.9058290">
        <ele>1205.6</ele>
        <time>2018-06-17T09:03:41Z</time>
      </trkpt>
      <trkpt lat="43.1582570" lon="-5.9058250">
        <ele>1204.4</ele>
        <time>2018-06-17T09:03:42Z</time>
      </trkpt>
      <trkpt lat="43.1581460" lon="-5.9058250">
        <ele>1203.4</ele>
        <time>2018-06-17T09:03:43Z</time>
      </trkpt>
      <trkpt lat="43.1580360" lon="-5.9058280">
        <ele>1201.8</ele>
        <time>2018-06-17T09:03:44Z</time>
      </trkpt>
      <trkpt lat="43.1579310" lon="-5.9058300">
        <ele>1200.4</ele>
        <time>2018-06-17T09:03:45Z</time>
      </trkpt>
      <trkpt lat="43.1577490" lon="-5.9058150">
        <ele>1199.0</ele>
        <time>2018-06-17T09:03:47Z</time>
      </trkpt>
      <trkpt lat="43.1576170" lon="-5.9057090">
        <ele>1197.8</ele>
        <time>2018-06-17T09:03:49Z</time>
      </trkpt>
      <trkpt lat="43.1575580" lon="-5.9055080">
        <ele>1196.2</ele>
        <time>2018-06-17T09:03:51Z</time>
      </trkpt>
      <trkpt lat="43.1575230" lon="-5.9054040">
        <ele>1195.4</ele>
        <time>2018-06-17T09:03:52Z</time>
      </trkpt>
      <trkpt lat="43.1574650" lon="-5.9053070">
        <ele>1194.6</ele>
        <time>2018-06-17T09:03:53Z</time>
      </trkpt>
      <trkpt lat="43.1573960" lon="-5.9052190">
        <ele>1193.0</ele>
        <time>2018-06-17T09:03:54Z</time>
      </trkpt>
      <trkpt lat="43.1573360" lon="-5.9051440">
        <ele>1191.2</ele>
        <time>2018-06-17T09:03:55Z</time>
      </trkpt>
      <trkpt lat="43.1572690" lon="-5.9049460">
        <ele>1189.8</ele>
        <time>2018-06-17T09:03:57Z</time>
      </trkpt>
      <trkpt lat="43.1572480" lon="-5.9048320">
        <ele>1188.8</ele>
        <time>2018-06-17T09:03:58Z</time>
      </trkpt>
      <trkpt lat="43.1572190" lon="-5.9047210">
        <ele>1187.6</ele>
        <time>2018-06-17T09:03:59Z</time>
      </trkpt>
      <trkpt lat="43.1571760" lon="-5.9046260">
        <ele>1185.8</ele>
        <time>2018-06-17T09:04:00Z</time>
      </trkpt>
      <trkpt lat="43.1571180" lon="-5.9045410">
        <ele>1184.8</ele>
        <time>2018-06-17T09:04:01Z</time>
      </trkpt>
      <trkpt lat="43.1570170" lon="-5.9043720">
        <ele>1183.2</ele>
        <time>2018-06-17T09:04:03Z</time>
      </trkpt>
      <trkpt lat="43.1569800" lon="-5.9041810">
        <ele>1182.2</ele>
        <time>2018-06-17T09:04:05Z</time>
      </trkpt>
      <trkpt lat="43.1569830" lon="-5.9039450">
        <ele>1181.0</ele>
        <time>2018-06-17T09:04:07Z</time>
      </trkpt>
      <trkpt lat="43.1569840" lon="-5.9038140">
        <ele>1180.2</ele>
        <time>2018-06-17T09:04:08Z</time>
      </trkpt>
      <trkpt lat="43.1569830" lon="-5.9036840">
        <ele>1179.6</ele>
        <time>2018-06-17T09:04:09Z</time>
      </trkpt>
      <trkpt lat="43.1569850" lon="-5.9034480">
        <ele>1177.6</ele>
        <time>2018-06-17T09:04:11Z</time>
      </trkpt>
      <trkpt lat="43.1569980" lon="-5.9033450">
        <ele>1176.4</ele>
        <time>2018-06-17T09:04:12Z</time>
      </trkpt>
      <trkpt lat="43.1570390" lon="-5.9031860">
        <ele>1175.0</ele>
        <time>2018-06-17T09:04:14Z</time>
      </trkpt>
      <trkpt lat="43.1570850" lon="-5.9030370">
        <ele>1174.0</ele>
        <time>2018-06-17T09:04:16Z</time>
      </trkpt>
      <trkpt lat="43.1571160" lon="-5.9028260">
        <ele>1172.2</ele>
        <time>2018-06-17T09:04:18Z</time>
      </trkpt>
      <trkpt lat="43.1571130" lon="-5.9026960">
        <ele>1171.0</ele>
        <time>2018-06-17T09:04:19Z</time>
      </trkpt>
      <trkpt lat="43.1571090" lon="-5.9025520">
        <ele>1170.2</ele>
        <time>2018-06-17T09:04:20Z</time>
      </trkpt>
      <trkpt lat="43.1571100" lon="-5.9024020">
        <ele>1168.4</ele>
        <time>2018-06-17T09:04:21Z</time>
      </trkpt>
      <trkpt lat="43.1571160" lon="-5.9022440">
        <ele>1167.2</ele>
        <time>2018-06-17T09:04:22Z</time>
      </trkpt>
      <trkpt lat="43.1571210" lon="-5.9020780">
        <ele>1165.4</ele>
        <time>2018-06-17T09:04:23Z</time>
      </trkpt>
      <trkpt lat="43.1571240" lon="-5.9019100">
        <ele>1164.2</ele>
        <time>2018-06-17T09:04:24Z</time>
      </trkpt>
      <trkpt lat="43.1571160" lon="-5.9017480">
        <ele>1162.6</ele>
        <time>2018-06-17T09:04:25Z</time>
      </trkpt>
      <trkpt lat="43.1571010" lon="-5.9015980">
        <ele>1161.2</ele>
        <time>2018-06-17T09:04:26Z</time>
      </trkpt>
      <trkpt lat="43.1570740" lon="-5.9014670">
        <ele>1160.4</ele>
        <time>2018-06-17T09:04:27Z</time>
      </trkpt>
      <trkpt lat="43.1570480" lon="-5.9013490">
        <ele>1159.6</ele>
        <time>2018-06-17T09:04:28Z</time>
      </trkpt>
      <trkpt lat="43.1570100" lon="-5.9012540">
        <ele>1159.0</ele>
        <time>2018-06-17T09:04:29Z</time>
      </trkpt>
      <trkpt lat="43.1569560" lon="-5.9011860">
        <ele>1158.4</ele>
        <time>2018-06-17T09:04:30Z</time>
      </trkpt>
      <trkpt lat="43.1568080" lon="-5.9011070">
        <ele>1157.2</ele>
        <time>2018-06-17T09:04:32Z</time>
      </trkpt>
      <trkpt lat="43.1566520" lon="-5.9011310">
        <ele>1156.0</ele>
        <time>2018-06-17T09:04:34Z</time>
      </trkpt>
      <trkpt lat="43.1564970" lon="-5.9012140">
        <ele>1155.0</ele>
        <time>2018-06-17T09:04:36Z</time>
      </trkpt>
      <trkpt lat="43.1563580" lon="-5.9013320">
        <ele>1154.0</ele>
        <time>2018-06-17T09:04:38Z</time>
      </trkpt>
      <trkpt lat="43.1562820" lon="-5.9013930">
        <ele>1153.6</ele>
        <time>2018-06-17T09:04:39Z</time>
      </trkpt>
      <trkpt lat="43.1561350" lon="-5.9015490">
        <ele>1153.0</ele>
        <time>2018-06-17T09:04:41Z</time>
      </trkpt>
      <trkpt lat="43.1559990" lon="-5.9017320">
        <ele>1152.4</ele>
        <time>2018-06-17T09:04:43Z</time>
      </trkpt>
      <trkpt lat="43.1559230" lon="-5.9018250">
        <ele>1151.8</ele>
        <time>2018-06-17T09:04:44Z</time>
      </trkpt>
      <trkpt lat="43.1558310" lon="-5.9019010">
        <ele>1151.2</ele>
        <time>2018-06-17T09:04:45Z</time>
      </trkpt>
      <trkpt lat="43.1556200" lon="-5.9020050">
        <ele>1149.8</ele>
        <time>2018-06-17T09:04:47Z</time>
      </trkpt>
      <trkpt lat="43.1554040" lon="-5.9020220">
        <ele>1148.4</ele>
        <time>2018-06-17T09:04:49Z</time>
      </trkpt>
      <trkpt lat="43.1553070" lon="-5.9020140">
        <ele>1148.2</ele>
        <time>2018-06-17T09:04:50Z</time>
      </trkpt>
      <trkpt lat="43.1550370" lon="-5.9019890">
        <ele>1147.2</ele>
        <time>2018-06-17T09:04:53Z</time>
      </trkpt>
      <trkpt lat="43.1547560" lon="-5.9020040">
        <ele>1146.0</ele>
        <time>2018-06-17T09:04:56Z</time>
      </trkpt>
      <trkpt lat="43.1546550" lon="-5.9020230">
        <ele>1145.0</ele>
        <time>2018-06-17T09:04:57Z</time>
      </trkpt>
      <trkpt lat="43.1543770" lon="-5.9020370">
        <ele>1144.2</ele>
        <time>2018-06-17T09:05:00Z</time>
      </trkpt>
      <trkpt lat="43.1540940" lon="-5.9017920">
        <ele>1143.0</ele>
        <time>2018-06-17T09:05:04Z</time>
      </trkpt>
      <trkpt lat="43.1538840" lon="-5.9015610">
        <ele>1141.6</ele>
        <time>2018-06-17T09:05:07Z</time>
      </trkpt>
      <trkpt lat="43.1538240" lon="-5.9015000">
        <ele>1140.8</ele>
        <time>2018-06-17T09:05:08Z</time>
      </trkpt>
      <trkpt lat="43.1537850" lon="-5.9014100">
        <ele>1140.4</ele>
        <time>2018-06-17T09:05:09Z</time>
      </trkpt>
      <trkpt lat="43.1537630" lon="-5.9010530">
        <ele>1139.8</ele>
        <time>2018-06-17T09:05:12Z</time>
      </trkpt>
      <trkpt lat="43.1537500" lon="-5.9009350">
        <ele>1139.4</ele>
        <time>2018-06-17T09:05:13Z</time>
      </trkpt>
      <trkpt lat="43.1537140" lon="-5.9007070">
        <ele>1138.2</ele>
        <time>2018-06-17T09:05:15Z</time>
      </trkpt>
      <trkpt lat="43.1535670" lon="-5.9003890">
        <ele>1136.8</ele>
        <time>2018-06-17T09:05:18Z</time>
      </trkpt>
      <trkpt lat="43.1534290" lon="-5.9002140">
        <ele>1136.2</ele>
        <time>2018-06-17T09:05:20Z</time>
      </trkpt>
      <trkpt lat="43.1533570" lon="-5.9001460">
        <ele>1135.8</ele>
        <time>2018-06-17T09:05:21Z</time>
      </trkpt>
      <trkpt lat="43.1531420" lon="-5.8999010">
        <ele>1136.2</ele>
        <time>2018-06-17T09:05:25Z</time>
      </trkpt>
      <trkpt lat="43.1529860" lon="-5.8998180">
        <ele>1137.4</ele>
        <time>2018-06-17T09:05:28Z</time>
      </trkpt>
      <trkpt lat="43.1529350" lon="-5.8998070">
        <ele>1138.0</ele>
        <time>2018-06-17T09:05:29Z</time>
      </trkpt>
      <trkpt lat="43.1527800" lon="-5.8997660">
        <ele>1138.6</ele>
        <time>2018-06-17T09:05:32Z</time>
      </trkpt>
      <trkpt lat="43.1525740" lon="-5.8996860">
        <ele>1138.6</ele>
        <time>2018-06-17T09:05:36Z</time>
      </trkpt>
      <trkpt lat="43.1525160" lon="-5.8996510">
        <ele>1138.4</ele>
        <time>2018-06-17T09:05:37Z</time>
      </trkpt>
      <trkpt lat="43.1523300" lon="-5.8995320">
        <ele>1137.4</ele>
        <time>2018-06-17T09:05:40Z</time>
      </trkpt>
      <trkpt lat="43.1522190" lon="-5.8993840">
        <ele>1136.4</ele>
        <time>2018-06-17T09:05:42Z</time>
      </trkpt>
      <trkpt lat="43.1521110" lon="-5.8992010">
        <ele>1135.0</ele>
        <time>2018-06-17T09:05:44Z</time>
      </trkpt>
      <trkpt lat="43.1519770" lon="-5.8990810">
        <ele>1134.0</ele>
        <time>2018-06-17T09:05:46Z</time>
      </trkpt>
      <trkpt lat="43.1518190" lon="-5.8990270">
        <ele>1133.2</ele>
        <time>2018-06-17T09:05:48Z</time>
      </trkpt>
      <trkpt lat="43.1517390" lon="-5.8990160">
        <ele>1132.8</ele>
        <time>2018-06-17T09:05:49Z</time>
      </trkpt>
      <trkpt lat="43.1515860" lon="-5.8990170">
        <ele>1132.0</ele>
        <time>2018-06-17T09:05:51Z</time>
      </trkpt>
      <trkpt lat="43.1513040" lon="-5.8988870">
        <ele>1131.0</ele>
        <time>2018-06-17T09:05:58Z</time>
      </trkpt>
      <trkpt lat="43.1513180" lon="-5.8987150">
        <ele>1131.2</ele>
        <time>2018-06-17T09:06:02Z</time>
      </trkpt>
      <trkpt lat="43.1513100" lon="-5.8986910">
        <ele>1131.4</ele>
        <time>2018-06-17T09:06:04Z</time>
      </trkpt>
      <trkpt lat="43.1513190" lon="-5.8986710">
        <ele>1131.4</ele>
        <time>2018-06-17T09:14:03Z</time>
      </trkpt>
      <trkpt lat="43.1514360" lon="-5.8986460">
        <ele>1130.6</ele>
        <time>2018-06-17T09:14:07Z</time>
      </trkpt>
      <trkpt lat="43.1514820" lon="-5.8986430">
        <ele>1130.2</ele>
        <time>2018-06-17T09:14:08Z</time>
      </trkpt>
      <trkpt lat="43.1516450" lon="-5.8986390">
        <ele>1129.0</ele>
        <time>2018-06-17T09:14:11Z</time>
      </trkpt>
      <trkpt lat="43.1518290" lon="-5.8986910">
        <ele>1127.4</ele>
        <time>2018-06-17T09:14:14Z</time>
      </trkpt>
      <trkpt lat="43.1519570" lon="-5.8987340">
        <ele>1126.0</ele>
        <time>2018-06-17T09:14:16Z</time>
      </trkpt>
      <trkpt lat="43.1520980" lon="-5.8988010">
        <ele>1124.8</ele>
        <time>2018-06-17T09:14:18Z</time>
      </trkpt>
      <trkpt lat="43.1521730" lon="-5.8988500">
        <ele>1124.0</ele>
        <time>2018-06-17T09:14:19Z</time>
      </trkpt>
      <trkpt lat="43.1522460" lon="-5.8989170">
        <ele>1123.6</ele>
        <time>2018-06-17T09:14:20Z</time>
      </trkpt>
      <trkpt lat="43.1524050" lon="-5.8990670">
        <ele>1121.6</ele>
        <time>2018-06-17T09:14:22Z</time>
      </trkpt>
      <trkpt lat="43.1524960" lon="-5.8991320">
        <ele>1121.0</ele>
        <time>2018-06-17T09:14:23Z</time>
      </trkpt>
      <trkpt lat="43.1525960" lon="-5.8991740">
        <ele>1119.4</ele>
        <time>2018-06-17T09:14:24Z</time>
      </trkpt>
      <trkpt lat="43.1527000" lon="-5.8991910">
        <ele>1118.2</ele>
        <time>2018-06-17T09:14:25Z</time>
      </trkpt>
      <trkpt lat="43.1528090" lon="-5.8991860">
        <ele>1117.0</ele>
        <time>2018-06-17T09:14:26Z</time>
      </trkpt>
      <trkpt lat="43.1529200" lon="-5.8991750">
        <ele>1116.0</ele>
        <time>2018-06-17T09:14:27Z</time>
      </trkpt>
      <trkpt lat="43.1530340" lon="-5.8991780">
        <ele>1114.8</ele>
        <time>2018-06-17T09:14:28Z</time>
      </trkpt>
      <trkpt lat="43.1532640" lon="-5.8992500">
        <ele>1113.0</ele>
        <time>2018-06-17T09:14:30Z</time>
      </trkpt>
      <trkpt lat="43.1534830" lon="-5.8993900">
        <ele>1110.8</ele>
        <time>2018-06-17T09:14:32Z</time>
      </trkpt>
      <trkpt lat="43.1535930" lon="-5.8994690">
        <ele>1109.4</ele>
        <time>2018-06-17T09:14:33Z</time>
      </trkpt>
      <trkpt lat="43.1537040" lon="-5.8995490">
        <ele>1108.2</ele>
        <time>2018-06-17T09:14:34Z</time>
      </trkpt>
      <trkpt lat="43.1538160" lon="-5.8996330">
        <ele>1107.2</ele>
        <time>2018-06-17T09:14:35Z</time>
      </trkpt>
      <trkpt lat="43.1539250" lon="-5.8997150">
        <ele>1105.8</ele>
        <time>2018-06-17T09:14:36Z</time>
      </trkpt>
      <trkpt lat="43.1541330" lon="-5.8998960">
        <ele>1104.2</ele>
        <time>2018-06-17T09:14:38Z</time>
      </trkpt>
      <trkpt lat="43.1542270" lon="-5.8999980">
        <ele>1103.0</ele>
        <time>2018-06-17T09:14:39Z</time>
      </trkpt>
      <trkpt lat="43.1543940" lon="-5.9002310">
        <ele>1101.0</ele>
        <time>2018-06-17T09:14:41Z</time>
      </trkpt>
      <trkpt lat="43.1544800" lon="-5.9003490">
        <ele>1099.4</ele>
        <time>2018-06-17T09:14:42Z</time>
      </trkpt>
      <trkpt lat="43.1545750" lon="-5.9004610">
        <ele>1098.2</ele>
        <time>2018-06-17T09:14:43Z</time>
      </trkpt>
      <trkpt lat="43.1546820" lon="-5.9005520">
        <ele>1097.2</ele>
        <time>2018-06-17T09:14:44Z</time>
      </trkpt>
      <trkpt lat="43.1547990" lon="-5.9006130">
        <ele>1095.8</ele>
        <time>2018-06-17T09:14:45Z</time>
      </trkpt>
      <trkpt lat="43.1549240" lon="-5.9006450">
        <ele>1094.6</ele>
        <time>2018-06-17T09:14:46Z</time>
      </trkpt>
      <trkpt lat="43.1551750" lon="-5.9006110">
        <ele>1093.0</ele>
        <time>2018-06-17T09:14:48Z</time>
      </trkpt>
      <trkpt lat="43.1554020" lon="-5.9004420">
        <ele>1091.2</ele>
        <time>2018-06-17T09:14:50Z</time>
      </trkpt>
      <trkpt lat="43.1555050" lon="-5.9003210">
        <ele>1090.0</ele>
        <time>2018-06-17T09:14:51Z</time>
      </trkpt>
      <trkpt lat="43.1555910" lon="-5.9001750">
        <ele>1088.8</ele>
        <time>2018-06-17T09:14:52Z</time>
      </trkpt>
      <trkpt lat="43.1556600" lon="-5.9000120">
        <ele>1087.8</ele>
        <time>2018-06-17T09:14:53Z</time>
      </trkpt>
      <trkpt lat="43.1557210" lon="-5.8998430">
        <ele>1086.6</ele>
        <time>2018-06-17T09:14:54Z</time>
      </trkpt>
      <trkpt lat="43.1557750" lon="-5.8996710">
        <ele>1085.6</ele>
        <time>2018-06-17T09:14:55Z</time>
      </trkpt>
      <trkpt lat="43.1558270" lon="-5.8995020">
        <ele>1084.6</ele>
        <time>2018-06-17T09:14:56Z</time>
      </trkpt>
      <trkpt lat="43.1558740" lon="-5.8993310">
        <ele>1083.4</ele>
        <time>2018-06-17T09:14:57Z</time>
      </trkpt>
      <trkpt lat="43.1559230" lon="-5.8991640">
        <ele>1082.4</ele>
        <time>2018-06-17T09:14:58Z</time>
      </trkpt>
      <trkpt lat="43.1559760" lon="-5.8989990">
        <ele>1081.2</ele>
        <time>2018-06-17T09:14:59Z</time>
      </trkpt>
      <trkpt lat="43.1560220" lon="-5.8988350">
        <ele>1080.2</ele>
        <time>2018-06-17T09:15:00Z</time>
      </trkpt>
      <trkpt lat="43.1561200" lon="-5.8985060">
        <ele>1078.2</ele>
        <time>2018-06-17T09:15:02Z</time>
      </trkpt>
      <trkpt lat="43.1562200" lon="-5.8981690">
        <ele>1076.6</ele>
        <time>2018-06-17T09:15:04Z</time>
      </trkpt>
      <trkpt lat="43.1563410" lon="-5.8978950">
        <ele>1075.6</ele>
        <time>2018-06-17T09:15:06Z</time>
      </trkpt>
      <trkpt lat="43.1564020" lon="-5.8977970">
        <ele>1075.0</ele>
        <time>2018-06-17T09:15:07Z</time>
      </trkpt>
      <trkpt lat="43.1565170" lon="-5.8976720">
        <ele>1074.4</ele>
        <time>2018-06-17T09:15:09Z</time>
      </trkpt>
      <trkpt lat="43.1565840" lon="-5.8976420">
        <ele>1074.2</ele>
        <time>2018-06-17T09:15:10Z</time>
      </trkpt>
      <trkpt lat="43.1567780" lon="-5.8976290">
        <ele>1073.2</ele>
        <time>2018-06-17T09:15:13Z</time>
      </trkpt>
      <trkpt lat="43.1569810" lon="-5.8977350">
        <ele>1071.8</ele>
        <time>2018-06-17T09:15:16Z</time>
      </trkpt>
      <trkpt lat="43.1571030" lon="-5.8978500">
        <ele>1070.8</ele>
        <time>2018-06-17T09:15:18Z</time>
      </trkpt>
      <trkpt lat="43.1572120" lon="-5.8980050">
        <ele>1069.6</ele>
        <time>2018-06-17T09:15:20Z</time>
      </trkpt>
      <trkpt lat="43.1573180" lon="-5.8981850">
        <ele>1068.4</ele>
        <time>2018-06-17T09:15:22Z</time>
      </trkpt>
      <trkpt lat="43.1574290" lon="-5.8983740">
        <ele>1067.4</ele>
        <time>2018-06-17T09:15:24Z</time>
      </trkpt>
      <trkpt lat="43.1574880" lon="-5.8984690">
        <ele>1066.8</ele>
        <time>2018-06-17T09:15:25Z</time>
      </trkpt>
      <trkpt lat="43.1576040" lon="-5.8986660">
        <ele>1065.8</ele>
        <time>2018-06-17T09:15:27Z</time>
      </trkpt>
      <trkpt lat="43.1578490" lon="-5.8990290">
        <ele>1064.6</ele>
        <time>2018-06-17T09:15:31Z</time>
      </trkpt>
      <trkpt lat="43.1579580" lon="-5.8994940">
        <ele>1063.2</ele>
        <time>2018-06-17T09:15:35Z</time>
      </trkpt>
      <trkpt lat="43.1579550" lon="-5.8996250">
        <ele>1062.8</ele>
        <time>2018-06-17T09:15:36Z</time>
      </trkpt>
      <trkpt lat="43.1579580" lon="-5.8997590">
        <ele>1062.4</ele>
        <time>2018-06-17T09:15:37Z</time>
      </trkpt>
      <trkpt lat="43.1579750" lon="-5.8998940">
        <ele>1062.0</ele>
        <time>2018-06-17T09:15:38Z</time>
      </trkpt>
      <trkpt lat="43.1580660" lon="-5.9001420">
        <ele>1060.8</ele>
        <time>2018-06-17T09:15:40Z</time>
      </trkpt>
      <trkpt lat="43.1582320" lon="-5.9003200">
        <ele>1059.2</ele>
        <time>2018-06-17T09:15:42Z</time>
      </trkpt>
      <trkpt lat="43.1584450" lon="-5.9004080">
        <ele>1057.4</ele>
        <time>2018-06-17T09:15:44Z</time>
      </trkpt>
      <trkpt lat="43.1585600" lon="-5.9004310">
        <ele>1056.4</ele>
        <time>2018-06-17T09:15:45Z</time>
      </trkpt>
      <trkpt lat="43.1586800" lon="-5.9004530">
        <ele>1055.2</ele>
        <time>2018-06-17T09:15:46Z</time>
      </trkpt>
      <trkpt lat="43.1588040" lon="-5.9004700">
        <ele>1054.0</ele>
        <time>2018-06-17T09:15:47Z</time>
      </trkpt>
      <trkpt lat="43.1589290" lon="-5.9004790">
        <ele>1052.8</ele>
        <time>2018-06-17T09:15:48Z</time>
      </trkpt>
      <trkpt lat="43.1590530" lon="-5.9004820">
        <ele>1051.6</ele>
        <time>2018-06-17T09:15:49Z</time>
      </trkpt>
      <trkpt lat="43.1591740" lon="-5.9004770">
        <ele>1050.4</ele>
        <time>2018-06-17T09:15:50Z</time>
      </trkpt>
      <trkpt lat="43.1592890" lon="-5.9004580">
        <ele>1049.2</ele>
        <time>2018-06-17T09:15:51Z</time>
      </trkpt>
      <trkpt lat="43.1593980" lon="-5.9004230">
        <ele>1048.0</ele>
        <time>2018-06-17T09:15:52Z</time>
      </trkpt>
      <trkpt lat="43.1594990" lon="-5.9003620">
        <ele>1046.8</ele>
        <time>2018-06-17T09:15:53Z</time>
      </trkpt>
      <trkpt lat="43.1595870" lon="-5.9002630">
        <ele>1045.0</ele>
        <time>2018-06-17T09:15:54Z</time>
      </trkpt>
      <trkpt lat="43.1596550" lon="-5.9001310">
        <ele>1043.8</ele>
        <time>2018-06-17T09:15:55Z</time>
      </trkpt>
      <trkpt lat="43.1597040" lon="-5.8999770">
        <ele>1042.6</ele>
        <time>2018-06-17T09:15:56Z</time>
      </trkpt>
      <trkpt lat="43.1597430" lon="-5.8998100">
        <ele>1041.2</ele>
        <time>2018-06-17T09:15:57Z</time>
      </trkpt>
      <trkpt lat="43.1597790" lon="-5.8996380">
        <ele>1039.8</ele>
        <time>2018-06-17T09:15:58Z</time>
      </trkpt>
      <trkpt lat="43.1598150" lon="-5.8994680">
        <ele>1038.4</ele>
        <time>2018-06-17T09:15:59Z</time>
      </trkpt>
      <trkpt lat="43.1598520" lon="-5.8993010">
        <ele>1037.4</ele>
        <time>2018-06-17T09:16:00Z</time>
      </trkpt>
      <trkpt lat="43.1598900" lon="-5.8991350">
        <ele>1036.0</ele>
        <time>2018-06-17T09:16:01Z</time>
      </trkpt>
      <trkpt lat="43.1599290" lon="-5.8989680">
        <ele>1034.4</ele>
        <time>2018-06-17T09:16:02Z</time>
      </trkpt>
      <trkpt lat="43.1599680" lon="-5.8987990">
        <ele>1033.2</ele>
        <time>2018-06-17T09:16:03Z</time>
      </trkpt>
      <trkpt lat="43.1600070" lon="-5.8986280">
        <ele>1032.0</ele>
        <time>2018-06-17T09:16:04Z</time>
      </trkpt>
      <trkpt lat="43.1600450" lon="-5.8984580">
        <ele>1030.2</ele>
        <time>2018-06-17T09:16:05Z</time>
      </trkpt>
      <trkpt lat="43.1600830" lon="-5.8982900">
        <ele>1028.8</ele>
        <time>2018-06-17T09:16:06Z</time>
      </trkpt>
      <trkpt lat="43.1601180" lon="-5.8981190">
        <ele>1027.0</ele>
        <time>2018-06-17T09:16:07Z</time>
      </trkpt>
      <trkpt lat="43.1601420" lon="-5.8979440">
        <ele>1025.8</ele>
        <time>2018-06-17T09:16:08Z</time>
      </trkpt>
      <trkpt lat="43.1601650" lon="-5.8975770">
        <ele>1023.2</ele>
        <time>2018-06-17T09:16:10Z</time>
      </trkpt>
      <trkpt lat="43.1601790" lon="-5.8973880">
        <ele>1021.0</ele>
        <time>2018-06-17T09:16:11Z</time>
      </trkpt>
      <trkpt lat="43.1601990" lon="-5.8971950">
        <ele>1019.0</ele>
        <time>2018-06-17T09:16:12Z</time>
      </trkpt>
      <trkpt lat="43.1602280" lon="-5.8969970">
        <ele>1017.2</ele>
        <time>2018-06-17T09:16:13Z</time>
      </trkpt>
      <trkpt lat="43.1602630" lon="-5.8967900">
        <ele>1015.2</ele>
        <time>2018-06-17T09:16:14Z</time>
      </trkpt>
      <trkpt lat="43.1603010" lon="-5.8965770">
        <ele>1013.0</ele>
        <time>2018-06-17T09:16:15Z</time>
      </trkpt>
      <trkpt lat="43.1603390" lon="-5.8963620">
        <ele>1010.6</ele>
        <time>2018-06-17T09:16:16Z</time>
      </trkpt>
      <trkpt lat="43.1603770" lon="-5.8961490">
        <ele>1008.0</ele>
        <time>2018-06-17T09:16:17Z</time>
      </trkpt>
      <trkpt lat="43.1604130" lon="-5.8959400">
        <ele>1006.0</ele>
        <time>2018-06-17T09:16:18Z</time>
      </trkpt>
      <trkpt lat="43.1604480" lon="-5.8957380">
        <ele>1004.2</ele>
        <time>2018-06-17T09:16:19Z</time>
      </trkpt>
      <trkpt lat="43.1604790" lon="-5.8955480">
        <ele>1001.6</ele>
        <time>2018-06-17T09:16:20Z</time>
      </trkpt>
      <trkpt lat="43.1605100" lon="-5.8953720">
        <ele>999.4</ele>
        <time>2018-06-17T09:16:21Z</time>
      </trkpt>
      <trkpt lat="43.1605400" lon="-5.8952110">
        <ele>997.8</ele>
        <time>2018-06-17T09:16:22Z</time>
      </trkpt>
      <trkpt lat="43.1605780" lon="-5.8950630">
        <ele>996.4</ele>
        <time>2018-06-17T09:16:23Z</time>
      </trkpt>
      <trkpt lat="43.1606230" lon="-5.8949300">
        <ele>995.2</ele>
        <time>2018-06-17T09:16:24Z</time>
      </trkpt>
      <trkpt lat="43.1606800" lon="-5.8948120">
        <ele>993.8</ele>
        <time>2018-06-17T09:16:25Z</time>
      </trkpt>
      <trkpt lat="43.1607500" lon="-5.8947160">
        <ele>992.6</ele>
        <time>2018-06-17T09:16:26Z</time>
      </trkpt>
      <trkpt lat="43.1608320" lon="-5.8946460">
        <ele>991.2</ele>
        <time>2018-06-17T09:16:27Z</time>
      </trkpt>
      <trkpt lat="43.1609220" lon="-5.8946050">
        <ele>990.0</ele>
        <time>2018-06-17T09:16:28Z</time>
      </trkpt>
      <trkpt lat="43.1610220" lon="-5.8945930">
        <ele>988.2</ele>
        <time>2018-06-17T09:16:29Z</time>
      </trkpt>
      <trkpt lat="43.1611200" lon="-5.8946140">
        <ele>987.2</ele>
        <time>2018-06-17T09:16:30Z</time>
      </trkpt>
      <trkpt lat="43.1612310" lon="-5.8946630">
        <ele>985.4</ele>
        <time>2018-06-17T09:16:31Z</time>
      </trkpt>
      <trkpt lat="43.1613440" lon="-5.8947280">
        <ele>984.0</ele>
        <time>2018-06-17T09:16:32Z</time>
      </trkpt>
      <trkpt lat="43.1614580" lon="-5.8948020">
        <ele>982.0</ele>
        <time>2018-06-17T09:16:33Z</time>
      </trkpt>
      <trkpt lat="43.1615730" lon="-5.8948760">
        <ele>980.2</ele>
        <time>2018-06-17T09:16:34Z</time>
      </trkpt>
      <trkpt lat="43.1616890" lon="-5.8949380">
        <ele>978.4</ele>
        <time>2018-06-17T09:16:35Z</time>
      </trkpt>
      <trkpt lat="43.1618060" lon="-5.8949750">
        <ele>976.2</ele>
        <time>2018-06-17T09:16:36Z</time>
      </trkpt>
      <trkpt lat="43.1619210" lon="-5.8949790">
        <ele>974.8</ele>
        <time>2018-06-17T09:16:37Z</time>
      </trkpt>
      <trkpt lat="43.1620330" lon="-5.8949500">
        <ele>972.4</ele>
        <time>2018-06-17T09:16:38Z</time>
      </trkpt>
      <trkpt lat="43.1621320" lon="-5.8948770">
        <ele>970.8</ele>
        <time>2018-06-17T09:16:39Z</time>
      </trkpt>
      <trkpt lat="43.1622190" lon="-5.8947650">
        <ele>969.2</ele>
        <time>2018-06-17T09:16:40Z</time>
      </trkpt>
      <trkpt lat="43.1622880" lon="-5.8946220">
        <ele>967.4</ele>
        <time>2018-06-17T09:16:41Z</time>
      </trkpt>
      <trkpt lat="43.1623290" lon="-5.8944560">
        <ele>966.0</ele>
        <time>2018-06-17T09:16:42Z</time>
      </trkpt>
      <trkpt lat="43.1623480" lon="-5.8942760">
        <ele>964.2</ele>
        <time>2018-06-17T09:16:43Z</time>
      </trkpt>
      <trkpt lat="43.1623570" lon="-5.8940900">
        <ele>962.2</ele>
        <time>2018-06-17T09:16:44Z</time>
      </trkpt>
      <trkpt lat="43.1623620" lon="-5.8939010">
        <ele>960.4</ele>
        <time>2018-06-17T09:16:45Z</time>
      </trkpt>
      <trkpt lat="43.1623700" lon="-5.8937090">
        <ele>959.0</ele>
        <time>2018-06-17T09:16:46Z</time>
      </trkpt>
      <trkpt lat="43.1623800" lon="-5.8935130">
        <ele>957.2</ele>
        <time>2018-06-17T09:16:47Z</time>
      </trkpt>
      <trkpt lat="43.1623880" lon="-5.8933170">
        <ele>955.4</ele>
        <time>2018-06-17T09:16:48Z</time>
      </trkpt>
      <trkpt lat="43.1623960" lon="-5.8931240">
        <ele>953.8</ele>
        <time>2018-06-17T09:16:49Z</time>
      </trkpt>
      <trkpt lat="43.1624030" lon="-5.8929320">
        <ele>952.2</ele>
        <time>2018-06-17T09:16:50Z</time>
      </trkpt>
      <trkpt lat="43.1624130" lon="-5.8927410">
        <ele>951.0</ele>
        <time>2018-06-17T09:16:51Z</time>
      </trkpt>
      <trkpt lat="43.1624310" lon="-5.8925490">
        <ele>949.2</ele>
        <time>2018-06-17T09:16:52Z</time>
      </trkpt>
      <trkpt lat="43.1624600" lon="-5.8923590">
        <ele>947.4</ele>
        <time>2018-06-17T09:16:53Z</time>
      </trkpt>
      <trkpt lat="43.1625020" lon="-5.8921690">
        <ele>945.4</ele>
        <time>2018-06-17T09:16:54Z</time>
      </trkpt>
      <trkpt lat="43.1625550" lon="-5.8919830">
        <ele>944.0</ele>
        <time>2018-06-17T09:16:55Z</time>
      </trkpt>
      <trkpt lat="43.1626150" lon="-5.8917980">
        <ele>942.2</ele>
        <time>2018-06-17T09:16:56Z</time>
      </trkpt>
      <trkpt lat="43.1626790" lon="-5.8916120">
        <ele>940.0</ele>
        <time>2018-06-17T09:16:57Z</time>
      </trkpt>
      <trkpt lat="43.1627430" lon="-5.8914210">
        <ele>938.4</ele>
        <time>2018-06-17T09:16:58Z</time>
      </trkpt>
      <trkpt lat="43.1628110" lon="-5.8912310">
        <ele>936.8</ele>
        <time>2018-06-17T09:16:59Z</time>
      </trkpt>
      <trkpt lat="43.1628810" lon="-5.8910430">
        <ele>935.4</ele>
        <time>2018-06-17T09:17:00Z</time>
      </trkpt>
      <trkpt lat="43.1629500" lon="-5.8908560">
        <ele>933.4</ele>
        <time>2018-06-17T09:17:01Z</time>
      </trkpt>
      <trkpt lat="43.1630160" lon="-5.8906730">
        <ele>931.8</ele>
        <time>2018-06-17T09:17:02Z</time>
      </trkpt>
      <trkpt lat="43.1630810" lon="-5.8904890">
        <ele>930.4</ele>
        <time>2018-06-17T09:17:03Z</time>
      </trkpt>
      <trkpt lat="43.1631360" lon="-5.8903020">
        <ele>929.0</ele>
        <time>2018-06-17T09:17:04Z</time>
      </trkpt>
      <trkpt lat="43.1631740" lon="-5.8901140">
        <ele>926.8</ele>
        <time>2018-06-17T09:17:05Z</time>
      </trkpt>
      <trkpt lat="43.1631960" lon="-5.8899240">
        <ele>925.4</ele>
        <time>2018-06-17T09:17:06Z</time>
      </trkpt>
      <trkpt lat="43.1631990" lon="-5.8897330">
        <ele>923.4</ele>
        <time>2018-06-17T09:17:07Z</time>
      </trkpt>
      <trkpt lat="43.1631760" lon="-5.8895390">
        <ele>922.0</ele>
        <time>2018-06-17T09:17:08Z</time>
      </trkpt>
      <trkpt lat="43.1631300" lon="-5.8893500">
        <ele>920.4</ele>
        <time>2018-06-17T09:17:09Z</time>
      </trkpt>
      <trkpt lat="43.1630650" lon="-5.8891670">
        <ele>919.0</ele>
        <time>2018-06-17T09:17:10Z</time>
      </trkpt>
      <trkpt lat="43.1629830" lon="-5.8889930">
        <ele>917.4</ele>
        <time>2018-06-17T09:17:11Z</time>
      </trkpt>
      <trkpt lat="43.1628920" lon="-5.8888260">
        <ele>915.4</ele>
        <time>2018-06-17T09:17:12Z</time>
      </trkpt>
      <trkpt lat="43.1627960" lon="-5.8886640">
        <ele>912.6</ele>
        <time>2018-06-17T09:17:13Z</time>
      </trkpt>
      <trkpt lat="43.1627000" lon="-5.8885040">
        <ele>911.0</ele>
        <time>2018-06-17T09:17:14Z</time>
      </trkpt>
      <trkpt lat="43.1626030" lon="-5.8883430">
        <ele>909.6</ele>
        <time>2018-06-17T09:17:15Z</time>
      </trkpt>
      <trkpt lat="43.1625050" lon="-5.8881810">
        <ele>908.0</ele>
        <time>2018-06-17T09:17:16Z</time>
      </trkpt>
      <trkpt lat="43.1624030" lon="-5.8880220">
        <ele>906.0</ele>
        <time>2018-06-17T09:17:17Z</time>
      </trkpt>
      <trkpt lat="43.1622980" lon="-5.8878600">
        <ele>904.4</ele>
        <time>2018-06-17T09:17:18Z</time>
      </trkpt>
      <trkpt lat="43.1621910" lon="-5.8876970">
        <ele>903.0</ele>
        <time>2018-06-17T09:17:19Z</time>
      </trkpt>
      <trkpt lat="43.1620810" lon="-5.8875340">
        <ele>900.4</ele>
        <time>2018-06-17T09:17:20Z</time>
      </trkpt>
      <trkpt lat="43.1619670" lon="-5.8873700">
        <ele>898.6</ele>
        <time>2018-06-17T09:17:21Z</time>
      </trkpt>
      <trkpt lat="43.1618490" lon="-5.8872030">
        <ele>895.8</ele>
        <time>2018-06-17T09:17:22Z</time>
      </trkpt>
      <trkpt lat="43.1617290" lon="-5.8870390">
        <ele>893.6</ele>
        <time>2018-06-17T09:17:23Z</time>
      </trkpt>
      <trkpt lat="43.1616090" lon="-5.8868780">
        <ele>891.8</ele>
        <time>2018-06-17T09:17:24Z</time>
      </trkpt>
      <trkpt lat="43.1614870" lon="-5.8867160">
        <ele>890.0</ele>
        <time>2018-06-17T09:17:25Z</time>
      </trkpt>
      <trkpt lat="43.1613650" lon="-5.8865560">
        <ele>888.2</ele>
        <time>2018-06-17T09:17:26Z</time>
      </trkpt>
      <trkpt lat="43.1612460" lon="-5.8863990">
        <ele>886.0</ele>
        <time>2018-06-17T09:17:27Z</time>
      </trkpt>
      <trkpt lat="43.1611310" lon="-5.8862490">
        <ele>884.6</ele>
        <time>2018-06-17T09:17:28Z</time>
      </trkpt>
      <trkpt lat="43.1610200" lon="-5.8861060">
        <ele>883.4</ele>
        <time>2018-06-17T09:17:29Z</time>
      </trkpt>
      <trkpt lat="43.1609130" lon="-5.8859670">
        <ele>881.8</ele>
        <time>2018-06-17T09:17:30Z</time>
      </trkpt>
      <trkpt lat="43.1608100" lon="-5.8858340">
        <ele>880.2</ele>
        <time>2018-06-17T09:17:31Z</time>
      </trkpt>
      <trkpt lat="43.1607110" lon="-5.8857070">
        <ele>878.6</ele>
        <time>2018-06-17T09:17:32Z</time>
      </trkpt>
      <trkpt lat="43.1606180" lon="-5.8855850">
        <ele>877.4</ele>
        <time>2018-06-17T09:17:33Z</time>
      </trkpt>
      <trkpt lat="43.1605310" lon="-5.8854720">
        <ele>875.8</ele>
        <time>2018-06-17T09:17:34Z</time>
      </trkpt>
      <trkpt lat="43.1604490" lon="-5.8853620">
        <ele>874.2</ele>
        <time>2018-06-17T09:17:35Z</time>
      </trkpt>
      <trkpt lat="43.1603750" lon="-5.8852540">
        <ele>872.8</ele>
        <time>2018-06-17T09:17:36Z</time>
      </trkpt>
      <trkpt lat="43.1603090" lon="-5.8851340">
        <ele>872.0</ele>
        <time>2018-06-17T09:17:37Z</time>
      </trkpt>
      <trkpt lat="43.1602650" lon="-5.8850060">
        <ele>871.2</ele>
        <time>2018-06-17T09:17:38Z</time>
      </trkpt>
      <trkpt lat="43.1602410" lon="-5.8848660">
        <ele>869.8</ele>
        <time>2018-06-17T09:17:39Z</time>
      </trkpt>
      <trkpt lat="43.1602340" lon="-5.8847180">
        <ele>868.2</ele>
        <time>2018-06-17T09:17:40Z</time>
      </trkpt>
      <trkpt lat="43.1602570" lon="-5.8845610">
        <ele>867.2</ele>
        <time>2018-06-17T09:17:41Z</time>
      </trkpt>
      <trkpt lat="43.1603020" lon="-5.8844030">
        <ele>866.0</ele>
        <time>2018-06-17T09:17:42Z</time>
      </trkpt>
      <trkpt lat="43.1603560" lon="-5.8842490">
        <ele>864.6</ele>
        <time>2018-06-17T09:17:43Z</time>
      </trkpt>
      <trkpt lat="43.1604090" lon="-5.8840920">
        <ele>862.8</ele>
        <time>2018-06-17T09:17:44Z</time>
      </trkpt>
      <trkpt lat="43.1604550" lon="-5.8839260">
        <ele>860.8</ele>
        <time>2018-06-17T09:17:45Z</time>
      </trkpt>
      <trkpt lat="43.1604790" lon="-5.8837560">
        <ele>859.0</ele>
        <time>2018-06-17T09:17:46Z</time>
      </trkpt>
      <trkpt lat="43.1604750" lon="-5.8835870">
        <ele>857.4</ele>
        <time>2018-06-17T09:17:47Z</time>
      </trkpt>
      <trkpt lat="43.1604450" lon="-5.8834160">
        <ele>856.0</ele>
        <time>2018-06-17T09:17:48Z</time>
      </trkpt>
      <trkpt lat="43.1603940" lon="-5.8832510">
        <ele>852.8</ele>
        <time>2018-06-17T09:17:49Z</time>
      </trkpt>
      <trkpt lat="43.1603250" lon="-5.8830940">
        <ele>851.0</ele>
        <time>2018-06-17T09:17:50Z</time>
      </trkpt>
      <trkpt lat="43.1602400" lon="-5.8829510">
        <ele>848.8</ele>
        <time>2018-06-17T09:17:51Z</time>
      </trkpt>
      <trkpt lat="43.1601370" lon="-5.8828210">
        <ele>847.2</ele>
        <time>2018-06-17T09:17:52Z</time>
      </trkpt>
      <trkpt lat="43.1600230" lon="-5.8827200">
        <ele>845.0</ele>
        <time>2018-06-17T09:17:53Z</time>
      </trkpt>
      <trkpt lat="43.1598940" lon="-5.8826310">
        <ele>843.0</ele>
        <time>2018-06-17T09:17:54Z</time>
      </trkpt>
      <trkpt lat="43.1597540" lon="-5.8825540">
        <ele>841.0</ele>
        <time>2018-06-17T09:17:55Z</time>
      </trkpt>
      <trkpt lat="43.1596050" lon="-5.8824960">
        <ele>838.8</ele>
        <time>2018-06-17T09:17:56Z</time>
      </trkpt>
      <trkpt lat="43.1594480" lon="-5.8824510">
        <ele>836.4</ele>
        <time>2018-06-17T09:17:57Z</time>
      </trkpt>
      <trkpt lat="43.1592880" lon="-5.8824190">
        <ele>832.8</ele>
        <time>2018-06-17T09:17:58Z</time>
      </trkpt>
      <trkpt lat="43.1591270" lon="-5.8823930">
        <ele>830.2</ele>
        <time>2018-06-17T09:17:59Z</time>
      </trkpt>
      <trkpt lat="43.1589690" lon="-5.8823690">
        <ele>828.4</ele>
        <time>2018-06-17T09:18:00Z</time>
      </trkpt>
      <trkpt lat="43.1588170" lon="-5.8823510">
        <ele>826.6</ele>
        <time>2018-06-17T09:18:01Z</time>
      </trkpt>
      <trkpt lat="43.1586700" lon="-5.8823340">
        <ele>825.0</ele>
        <time>2018-06-17T09:18:02Z</time>
      </trkpt>
      <trkpt lat="43.1585240" lon="-5.8823150">
        <ele>823.0</ele>
        <time>2018-06-17T09:18:03Z</time>
      </trkpt>
      <trkpt lat="43.1583810" lon="-5.8822850">
        <ele>821.6</ele>
        <time>2018-06-17T09:18:04Z</time>
      </trkpt>
      <trkpt lat="43.1582400" lon="-5.8822370">
        <ele>819.8</ele>
        <time>2018-06-17T09:18:05Z</time>
      </trkpt>
      <trkpt lat="43.1581030" lon="-5.8821720">
        <ele>818.2</ele>
        <time>2018-06-17T09:18:06Z</time>
      </trkpt>
      <trkpt lat="43.1579710" lon="-5.8820910">
        <ele>816.2</ele>
        <time>2018-06-17T09:18:07Z</time>
      </trkpt>
      <trkpt lat="43.1578510" lon="-5.8819900">
        <ele>814.8</ele>
        <time>2018-06-17T09:18:08Z</time>
      </trkpt>
      <trkpt lat="43.1577410" lon="-5.8818740">
        <ele>813.2</ele>
        <time>2018-06-17T09:18:09Z</time>
      </trkpt>
      <trkpt lat="43.1576380" lon="-5.8817480">
        <ele>812.0</ele>
        <time>2018-06-17T09:18:10Z</time>
      </trkpt>
      <trkpt lat="43.1575530" lon="-5.8816090">
        <ele>810.6</ele>
        <time>2018-06-17T09:18:11Z</time>
      </trkpt>
      <trkpt lat="43.1574810" lon="-5.8814580">
        <ele>809.4</ele>
        <time>2018-06-17T09:18:12Z</time>
      </trkpt>
      <trkpt lat="43.1574230" lon="-5.8812970">
        <ele>808.0</ele>
        <time>2018-06-17T09:18:13Z</time>
      </trkpt>
      <trkpt lat="43.1573820" lon="-5.8811170">
        <ele>806.8</ele>
        <time>2018-06-17T09:18:14Z</time>
      </trkpt>
      <trkpt lat="43.1573560" lon="-5.8809270">
        <ele>805.4</ele>
        <time>2018-06-17T09:18:15Z</time>
      </trkpt>
      <trkpt lat="43.1573350" lon="-5.8807340">
        <ele>803.2</ele>
        <time>2018-06-17T09:18:16Z</time>
      </trkpt>
      <trkpt lat="43.1573150" lon="-5.8805360">
        <ele>801.8</ele>
        <time>2018-06-17T09:18:17Z</time>
      </trkpt>
      <trkpt lat="43.1572830" lon="-5.8803390">
        <ele>800.2</ele>
        <time>2018-06-17T09:18:18Z</time>
      </trkpt>
      <trkpt lat="43.1572360" lon="-5.8801450">
        <ele>798.2</ele>
        <time>2018-06-17T09:18:19Z</time>
      </trkpt>
      <trkpt lat="43.1571770" lon="-5.8799560">
        <ele>796.2</ele>
        <time>2018-06-17T09:18:20Z</time>
      </trkpt>
      <trkpt lat="43.1571140" lon="-5.8797690">
        <ele>793.8</ele>
        <time>2018-06-17T09:18:21Z</time>
      </trkpt>
      <trkpt lat="43.1570520" lon="-5.8795850">
        <ele>791.8</ele>
        <time>2018-06-17T09:18:22Z</time>
      </trkpt>
      <trkpt lat="43.1569930" lon="-5.8794060">
        <ele>790.0</ele>
        <time>2018-06-17T09:18:23Z</time>
      </trkpt>
      <trkpt lat="43.1569390" lon="-5.8792260">
        <ele>788.6</ele>
        <time>2018-06-17T09:18:24Z</time>
      </trkpt>
      <trkpt lat="43.1568930" lon="-5.8790480">
        <ele>787.0</ele>
        <time>2018-06-17T09:18:25Z</time>
      </trkpt>
      <trkpt lat="43.1568570" lon="-5.8788720">
        <ele>784.8</ele>
        <time>2018-06-17T09:18:26Z</time>
      </trkpt>
      <trkpt lat="43.1568310" lon="-5.8786990">
        <ele>783.2</ele>
        <time>2018-06-17T09:18:27Z</time>
      </trkpt>
      <trkpt lat="43.1568030" lon="-5.8785350">
        <ele>782.0</ele>
        <time>2018-06-17T09:18:28Z</time>
      </trkpt>
      <trkpt lat="43.1567590" lon="-5.8783800">
        <ele>780.6</ele>
        <time>2018-06-17T09:18:29Z</time>
      </trkpt>
      <trkpt lat="43.1566930" lon="-5.8782310">
        <ele>778.8</ele>
        <time>2018-06-17T09:18:30Z</time>
      </trkpt>
      <trkpt lat="43.1566080" lon="-5.8780930">
        <ele>777.2</ele>
        <time>2018-06-17T09:18:31Z</time>
      </trkpt>
      <trkpt lat="43.1565110" lon="-5.8779660">
        <ele>775.4</ele>
        <time>2018-06-17T09:18:32Z</time>
      </trkpt>
      <trkpt lat="43.1564060" lon="-5.8778500">
        <ele>773.4</ele>
        <time>2018-06-17T09:18:33Z</time>
      </trkpt>
      <trkpt lat="43.1563010" lon="-5.8777520">
        <ele>771.2</ele>
        <time>2018-06-17T09:18:34Z</time>
      </trkpt>
      <trkpt lat="43.1561970" lon="-5.8776620">
        <ele>768.8</ele>
        <time>2018-06-17T09:18:35Z</time>
      </trkpt>
      <trkpt lat="43.1560960" lon="-5.8775800">
        <ele>767.6</ele>
        <time>2018-06-17T09:18:36Z</time>
      </trkpt>
      <trkpt lat="43.1559960" lon="-5.8775030">
        <ele>766.0</ele>
        <time>2018-06-17T09:18:37Z</time>
      </trkpt>
      <trkpt lat="43.1558970" lon="-5.8774240">
        <ele>764.8</ele>
        <time>2018-06-17T09:18:38Z</time>
      </trkpt>
      <trkpt lat="43.1558020" lon="-5.8773300">
        <ele>763.2</ele>
        <time>2018-06-17T09:18:39Z</time>
      </trkpt>
      <trkpt lat="43.1557210" lon="-5.8772070">
        <ele>761.4</ele>
        <time>2018-06-17T09:18:40Z</time>
      </trkpt>
      <trkpt lat="43.1556420" lon="-5.8770710">
        <ele>760.0</ele>
        <time>2018-06-17T09:18:41Z</time>
      </trkpt>
      <trkpt lat="43.1555670" lon="-5.8769220">
        <ele>758.0</ele>
        <time>2018-06-17T09:18:42Z</time>
      </trkpt>
      <trkpt lat="43.1554940" lon="-5.8767610">
        <ele>755.6</ele>
        <time>2018-06-17T09:18:43Z</time>
      </trkpt>
      <trkpt lat="43.1554160" lon="-5.8766000">
        <ele>754.0</ele>
        <time>2018-06-17T09:18:44Z</time>
      </trkpt>
      <trkpt lat="43.1553360" lon="-5.8764400">
        <ele>751.8</ele>
        <time>2018-06-17T09:18:45Z</time>
      </trkpt>
      <trkpt lat="43.1552560" lon="-5.8762870">
        <ele>750.2</ele>
        <time>2018-06-17T09:18:46Z</time>
      </trkpt>
      <trkpt lat="43.1551800" lon="-5.8761380">
        <ele>748.8</ele>
        <time>2018-06-17T09:18:47Z</time>
      </trkpt>
      <trkpt lat="43.1551120" lon="-5.8759910">
        <ele>747.4</ele>
        <time>2018-06-17T09:18:48Z</time>
      </trkpt>
      <trkpt lat="43.1550610" lon="-5.8758390">
        <ele>745.8</ele>
        <time>2018-06-17T09:18:49Z</time>
      </trkpt>
      <trkpt lat="43.1550310" lon="-5.8756820">
        <ele>744.2</ele>
        <time>2018-06-17T09:18:50Z</time>
      </trkpt>
      <trkpt lat="43.1550170" lon="-5.8755190">
        <ele>742.8</ele>
        <time>2018-06-17T09:18:51Z</time>
      </trkpt>
      <trkpt lat="43.1550300" lon="-5.8753600">
        <ele>740.4</ele>
        <time>2018-06-17T09:18:52Z</time>
      </trkpt>
      <trkpt lat="43.1550610" lon="-5.8752010">
        <ele>739.0</ele>
        <time>2018-06-17T09:18:53Z</time>
      </trkpt>
      <trkpt lat="43.1551100" lon="-5.8750530">
        <ele>737.8</ele>
        <time>2018-06-17T09:18:54Z</time>
      </trkpt>
      <trkpt lat="43.1551890" lon="-5.8749230">
        <ele>736.2</ele>
        <time>2018-06-17T09:18:55Z</time>
      </trkpt>
      <trkpt lat="43.1552860" lon="-5.8748030">
        <ele>734.4</ele>
        <time>2018-06-17T09:18:56Z</time>
      </trkpt>
      <trkpt lat="43.1553920" lon="-5.8746850">
        <ele>732.8</ele>
        <time>2018-06-17T09:18:57Z</time>
      </trkpt>
      <trkpt lat="43.1554980" lon="-5.8745710">
        <ele>730.8</ele>
        <time>2018-06-17T09:18:58Z</time>
      </trkpt>
      <trkpt lat="43.1556120" lon="-5.8744580">
        <ele>729.6</ele>
        <time>2018-06-17T09:18:59Z</time>
      </trkpt>
      <trkpt lat="43.1557220" lon="-5.8743390">
        <ele>727.6</ele>
        <time>2018-06-17T09:19:00Z</time>
      </trkpt>
      <trkpt lat="43.1558360" lon="-5.8742180">
        <ele>724.6</ele>
        <time>2018-06-17T09:19:01Z</time>
      </trkpt>
      <trkpt lat="43.1559430" lon="-5.8741020">
        <ele>722.6</ele>
        <time>2018-06-17T09:19:02Z</time>
      </trkpt>
      <trkpt lat="43.1560440" lon="-5.8739880">
        <ele>720.4</ele>
        <time>2018-06-17T09:19:03Z</time>
      </trkpt>
      <trkpt lat="43.1561360" lon="-5.8738710">
        <ele>719.2</ele>
        <time>2018-06-17T09:19:04Z</time>
      </trkpt>
      <trkpt lat="43.1562180" lon="-5.8737400">
        <ele>718.0</ele>
        <time>2018-06-17T09:19:05Z</time>
      </trkpt>
      <trkpt lat="43.1562860" lon="-5.8735950">
        <ele>717.0</ele>
        <time>2018-06-17T09:19:06Z</time>
      </trkpt>
      <trkpt lat="43.1563350" lon="-5.8734410">
        <ele>715.6</ele>
        <time>2018-06-17T09:19:07Z</time>
      </trkpt>
      <trkpt lat="43.1563640" lon="-5.8732820">
        <ele>714.2</ele>
        <time>2018-06-17T09:19:08Z</time>
      </trkpt>
      <trkpt lat="43.1563530" lon="-5.8729480">
        <ele>711.6</ele>
        <time>2018-06-17T09:19:10Z</time>
      </trkpt>
      <trkpt lat="43.1563130" lon="-5.8727820">
        <ele>710.0</ele>
        <time>2018-06-17T09:19:11Z</time>
      </trkpt>
      <trkpt lat="43.1562500" lon="-5.8726270">
        <ele>709.0</ele>
        <time>2018-06-17T09:19:12Z</time>
      </trkpt>
      <trkpt lat="43.1561700" lon="-5.8724800">
        <ele>707.8</ele>
        <time>2018-06-17T09:19:13Z</time>
      </trkpt>
      <trkpt lat="43.1560810" lon="-5.8723410">
        <ele>706.4</ele>
        <time>2018-06-17T09:19:14Z</time>
      </trkpt>
      <trkpt lat="43.1559860" lon="-5.8722030">
        <ele>704.8</ele>
        <time>2018-06-17T09:19:15Z</time>
      </trkpt>
      <trkpt lat="43.1558870" lon="-5.8720660">
        <ele>703.2</ele>
        <time>2018-06-17T09:19:16Z</time>
      </trkpt>
      <trkpt lat="43.1557850" lon="-5.8719290">
        <ele>702.0</ele>
        <time>2018-06-17T09:19:17Z</time>
      </trkpt>
      <trkpt lat="43.1556830" lon="-5.8717930">
        <ele>700.6</ele>
        <time>2018-06-17T09:19:18Z</time>
      </trkpt>
      <trkpt lat="43.1555800" lon="-5.8716570">
        <ele>699.0</ele>
        <time>2018-06-17T09:19:19Z</time>
      </trkpt>
      <trkpt lat="43.1554780" lon="-5.8715220">
        <ele>697.8</ele>
        <time>2018-06-17T09:19:20Z</time>
      </trkpt>
      <trkpt lat="43.1553790" lon="-5.8713930">
        <ele>696.0</ele>
        <time>2018-06-17T09:19:21Z</time>
      </trkpt>
      <trkpt lat="43.1552900" lon="-5.8712700">
        <ele>694.8</ele>
        <time>2018-06-17T09:19:22Z</time>
      </trkpt>
      <trkpt lat="43.1552130" lon="-5.8711470">
        <ele>693.6</ele>
        <time>2018-06-17T09:19:23Z</time>
      </trkpt>
      <trkpt lat="43.1551550" lon="-5.8710160">
        <ele>692.8</ele>
        <time>2018-06-17T09:19:24Z</time>
      </trkpt>
      <trkpt lat="43.1551220" lon="-5.8708780">
        <ele>691.8</ele>
        <time>2018-06-17T09:19:25Z</time>
      </trkpt>
      <trkpt lat="43.1551030" lon="-5.8707360">
        <ele>690.8</ele>
        <time>2018-06-17T09:19:26Z</time>
      </trkpt>
      <trkpt lat="43.1551600" lon="-5.8704520">
        <ele>688.4</ele>
        <time>2018-06-17T09:19:28Z</time>
      </trkpt>
      <trkpt lat="43.1552170" lon="-5.8703190">
        <ele>687.0</ele>
        <time>2018-06-17T09:19:29Z</time>
      </trkpt>
      <trkpt lat="43.1553010" lon="-5.8701990">
        <ele>685.6</ele>
        <time>2018-06-17T09:19:30Z</time>
      </trkpt>
      <trkpt lat="43.1553950" lon="-5.8700850">
        <ele>683.8</ele>
        <time>2018-06-17T09:19:31Z</time>
      </trkpt>
      <trkpt lat="43.1555000" lon="-5.8699740">
        <ele>682.0</ele>
        <time>2018-06-17T09:19:32Z</time>
      </trkpt>
      <trkpt lat="43.1556090" lon="-5.8698620">
        <ele>680.2</ele>
        <time>2018-06-17T09:19:33Z</time>
      </trkpt>
      <trkpt lat="43.1557220" lon="-5.8697480">
        <ele>678.2</ele>
        <time>2018-06-17T09:19:34Z</time>
      </trkpt>
      <trkpt lat="43.1558370" lon="-5.8696290">
        <ele>676.4</ele>
        <time>2018-06-17T09:19:35Z</time>
      </trkpt>
      <trkpt lat="43.1559460" lon="-5.8695070">
        <ele>674.2</ele>
        <time>2018-06-17T09:19:36Z</time>
      </trkpt>
      <trkpt lat="43.1560630" lon="-5.8693920">
        <ele>672.4</ele>
        <time>2018-06-17T09:19:37Z</time>
      </trkpt>
      <trkpt lat="43.1561800" lon="-5.8692730">
        <ele>670.6</ele>
        <time>2018-06-17T09:19:38Z</time>
      </trkpt>
      <trkpt lat="43.1562960" lon="-5.8691490">
        <ele>668.8</ele>
        <time>2018-06-17T09:19:39Z</time>
      </trkpt>
      <trkpt lat="43.1564100" lon="-5.8690230">
        <ele>666.8</ele>
        <time>2018-06-17T09:19:40Z</time>
      </trkpt>
      <trkpt lat="43.1565200" lon="-5.8688980">
        <ele>665.2</ele>
        <time>2018-06-17T09:19:41Z</time>
      </trkpt>
      <trkpt lat="43.1566250" lon="-5.8687800">
        <ele>664.0</ele>
        <time>2018-06-17T09:19:42Z</time>
      </trkpt>
      <trkpt lat="43.1567130" lon="-5.8686610">
        <ele>662.4</ele>
        <time>2018-06-17T09:19:43Z</time>
      </trkpt>
      <trkpt lat="43.1567990" lon="-5.8685390">
        <ele>661.4</ele>
        <time>2018-06-17T09:19:44Z</time>
      </trkpt>
      <trkpt lat="43.1568620" lon="-5.8684060">
        <ele>660.4</ele>
        <time>2018-06-17T09:19:45Z</time>
      </trkpt>
      <trkpt lat="43.1569120" lon="-5.8682600">
        <ele>659.6</ele>
        <time>2018-06-17T09:19:46Z</time>
      </trkpt>
      <trkpt lat="43.1569450" lon="-5.8681040">
        <ele>658.2</ele>
        <time>2018-06-17T09:19:47Z</time>
      </trkpt>
      <trkpt lat="43.1569560" lon="-5.8679420">
        <ele>657.2</ele>
        <time>2018-06-17T09:19:48Z</time>
      </trkpt>
      <trkpt lat="43.1569420" lon="-5.8677760">
        <ele>655.6</ele>
        <time>2018-06-17T09:19:49Z</time>
      </trkpt>
      <trkpt lat="43.1568870" lon="-5.8676260">
        <ele>654.0</ele>
        <time>2018-06-17T09:19:50Z</time>
      </trkpt>
      <trkpt lat="43.1568130" lon="-5.8674790">
        <ele>652.4</ele>
        <time>2018-06-17T09:19:51Z</time>
      </trkpt>
      <trkpt lat="43.1567140" lon="-5.8673490">
        <ele>651.0</ele>
        <time>2018-06-17T09:19:52Z</time>
      </trkpt>
      <trkpt lat="43.1565890" lon="-5.8672430">
        <ele>649.4</ele>
        <time>2018-06-17T09:19:53Z</time>
      </trkpt>
      <trkpt lat="43.1564530" lon="-5.8671590">
        <ele>646.6</ele>
        <time>2018-06-17T09:19:54Z</time>
      </trkpt>
      <trkpt lat="43.1563200" lon="-5.8670890">
        <ele>644.4</ele>
        <time>2018-06-17T09:19:55Z</time>
      </trkpt>
      <trkpt lat="43.1561900" lon="-5.8670190">
        <ele>642.2</ele>
        <time>2018-06-17T09:19:56Z</time>
      </trkpt>
      <trkpt lat="43.1560710" lon="-5.8669440">
        <ele>640.8</ele>
        <time>2018-06-17T09:19:57Z</time>
      </trkpt>
      <trkpt lat="43.1559670" lon="-5.8668560">
        <ele>639.2</ele>
        <time>2018-06-17T09:19:58Z</time>
      </trkpt>
      <trkpt lat="43.1558880" lon="-5.8667390">
        <ele>637.2</ele>
        <time>2018-06-17T09:19:59Z</time>
      </trkpt>
      <trkpt lat="43.1558250" lon="-5.8666060">
        <ele>636.0</ele>
        <time>2018-06-17T09:20:00Z</time>
      </trkpt>
      <trkpt lat="43.1557900" lon="-5.8664600">
        <ele>634.6</ele>
        <time>2018-06-17T09:20:01Z</time>
      </trkpt>
      <trkpt lat="43.1557840" lon="-5.8662980">
        <ele>633.0</ele>
        <time>2018-06-17T09:20:02Z</time>
      </trkpt>
      <trkpt lat="43.1558000" lon="-5.8661230">
        <ele>630.8</ele>
        <time>2018-06-17T09:20:03Z</time>
      </trkpt>
      <trkpt lat="43.1558370" lon="-5.8659380">
        <ele>629.0</ele>
        <time>2018-06-17T09:20:04Z</time>
      </trkpt>
      <trkpt lat="43.1558960" lon="-5.8657600">
        <ele>627.2</ele>
        <time>2018-06-17T09:20:05Z</time>
      </trkpt>
      <trkpt lat="43.1559740" lon="-5.8655860">
        <ele>625.6</ele>
        <time>2018-06-17T09:20:06Z</time>
      </trkpt>
      <trkpt lat="43.1560350" lon="-5.8654160">
        <ele>623.8</ele>
        <time>2018-06-17T09:20:07Z</time>
      </trkpt>
      <trkpt lat="43.1560750" lon="-5.8652460">
        <ele>622.6</ele>
        <time>2018-06-17T09:20:08Z</time>
      </trkpt>
      <trkpt lat="43.1560830" lon="-5.8650690">
        <ele>620.4</ele>
        <time>2018-06-17T09:20:09Z</time>
      </trkpt>
      <trkpt lat="43.1560620" lon="-5.8648820">
        <ele>618.8</ele>
        <time>2018-06-17T09:20:10Z</time>
      </trkpt>
      <trkpt lat="43.1560100" lon="-5.8647060">
        <ele>617.0</ele>
        <time>2018-06-17T09:20:11Z</time>
      </trkpt>
      <trkpt lat="43.1559330" lon="-5.8645370">
        <ele>614.0</ele>
        <time>2018-06-17T09:20:12Z</time>
      </trkpt>
      <trkpt lat="43.1558430" lon="-5.8643780">
        <ele>612.0</ele>
        <time>2018-06-17T09:20:13Z</time>
      </trkpt>
      <trkpt lat="43.1557480" lon="-5.8642260">
        <ele>610.4</ele>
        <time>2018-06-17T09:20:14Z</time>
      </trkpt>
      <trkpt lat="43.1556640" lon="-5.8640730">
        <ele>608.2</ele>
        <time>2018-06-17T09:20:15Z</time>
      </trkpt>
      <trkpt lat="43.1556060" lon="-5.8639150">
        <ele>606.6</ele>
        <time>2018-06-17T09:20:16Z</time>
      </trkpt>
      <trkpt lat="43.1555790" lon="-5.8637510">
        <ele>604.8</ele>
        <time>2018-06-17T09:20:17Z</time>
      </trkpt>
      <trkpt lat="43.1555770" lon="-5.8635760">
        <ele>603.0</ele>
        <time>2018-06-17T09:20:18Z</time>
      </trkpt>
      <trkpt lat="43.1556020" lon="-5.8634010">
        <ele>601.0</ele>
        <time>2018-06-17T09:20:19Z</time>
      </trkpt>
      <trkpt lat="43.1556400" lon="-5.8632130">
        <ele>599.0</ele>
        <time>2018-06-17T09:20:20Z</time>
      </trkpt>
      <trkpt lat="43.1556860" lon="-5.8630200">
        <ele>597.4</ele>
        <time>2018-06-17T09:20:21Z</time>
      </trkpt>
      <trkpt lat="43.1557280" lon="-5.8628310">
        <ele>595.8</ele>
        <time>2018-06-17T09:20:22Z</time>
      </trkpt>
      <trkpt lat="43.1557620" lon="-5.8626310">
        <ele>593.6</ele>
        <time>2018-06-17T09:20:23Z</time>
      </trkpt>
      <trkpt lat="43.1557820" lon="-5.8624280">
        <ele>591.0</ele>
        <time>2018-06-17T09:20:24Z</time>
      </trkpt>
      <trkpt lat="43.1557870" lon="-5.8622260">
        <ele>588.8</ele>
        <time>2018-06-17T09:20:25Z</time>
      </trkpt>
      <trkpt lat="43.1557750" lon="-5.8620280">
        <ele>587.4</ele>
        <time>2018-06-17T09:20:26Z</time>
      </trkpt>
      <trkpt lat="43.1557480" lon="-5.8618310">
        <ele>585.4</ele>
        <time>2018-06-17T09:20:27Z</time>
      </trkpt>
      <trkpt lat="43.1557090" lon="-5.8616350">
        <ele>583.4</ele>
        <time>2018-06-17T09:20:28Z</time>
      </trkpt>
      <trkpt lat="43.1556570" lon="-5.8614410">
        <ele>581.4</ele>
        <time>2018-06-17T09:20:29Z</time>
      </trkpt>
      <trkpt lat="43.1555910" lon="-5.8612540">
        <ele>579.0</ele>
        <time>2018-06-17T09:20:30Z</time>
      </trkpt>
      <trkpt lat="43.1555130" lon="-5.8610760">
        <ele>577.2</ele>
        <time>2018-06-17T09:20:31Z</time>
      </trkpt>
      <trkpt lat="43.1554210" lon="-5.8609070">
        <ele>575.6</ele>
        <time>2018-06-17T09:20:32Z</time>
      </trkpt>
      <trkpt lat="43.1553180" lon="-5.8607510">
        <ele>574.0</ele>
        <time>2018-06-17T09:20:33Z</time>
      </trkpt>
      <trkpt lat="43.1552050" lon="-5.8606080">
        <ele>572.4</ele>
        <time>2018-06-17T09:20:34Z</time>
      </trkpt>
      <trkpt lat="43.1550810" lon="-5.8604820">
        <ele>570.4</ele>
        <time>2018-06-17T09:20:35Z</time>
      </trkpt>
      <trkpt lat="43.1549520" lon="-5.8603720">
        <ele>568.6</ele>
        <time>2018-06-17T09:20:36Z</time>
      </trkpt>
      <trkpt lat="43.1548210" lon="-5.8602740">
        <ele>567.0</ele>
        <time>2018-06-17T09:20:37Z</time>
      </trkpt>
      <trkpt lat="43.1546930" lon="-5.8601840">
        <ele>565.6</ele>
        <time>2018-06-17T09:20:38Z</time>
      </trkpt>
      <trkpt lat="43.1545770" lon="-5.8600960">
        <ele>563.2</ele>
        <time>2018-06-17T09:20:39Z</time>
      </trkpt>
      <trkpt lat="43.1544790" lon="-5.8600010">
        <ele>561.4</ele>
        <time>2018-06-17T09:20:40Z</time>
      </trkpt>
      <trkpt lat="43.1544090" lon="-5.8598920">
        <ele>560.2</ele>
        <time>2018-06-17T09:20:41Z</time>
      </trkpt>
      <trkpt lat="43.1543670" lon="-5.8597760">
        <ele>559.0</ele>
        <time>2018-06-17T09:20:42Z</time>
      </trkpt>
      <trkpt lat="43.1543640" lon="-5.8595010">
        <ele>557.0</ele>
        <time>2018-06-17T09:20:44Z</time>
      </trkpt>
      <trkpt lat="43.1544640" lon="-5.8592480">
        <ele>555.2</ele>
        <time>2018-06-17T09:20:46Z</time>
      </trkpt>
      <trkpt lat="43.1545470" lon="-5.8591580">
        <ele>553.6</ele>
        <time>2018-06-17T09:20:47Z</time>
      </trkpt>
      <trkpt lat="43.1546390" lon="-5.8591030">
        <ele>551.6</ele>
        <time>2018-06-17T09:20:48Z</time>
      </trkpt>
      <trkpt lat="43.1547310" lon="-5.8590850">
        <ele>550.4</ele>
        <time>2018-06-17T09:20:49Z</time>
      </trkpt>
      <trkpt lat="43.1548380" lon="-5.8590960">
        <ele>549.2</ele>
        <time>2018-06-17T09:20:50Z</time>
      </trkpt>
      <trkpt lat="43.1549530" lon="-5.8591290">
        <ele>547.2</ele>
        <time>2018-06-17T09:20:51Z</time>
      </trkpt>
      <trkpt lat="43.1550670" lon="-5.8591620">
        <ele>545.2</ele>
        <time>2018-06-17T09:20:52Z</time>
      </trkpt>
      <trkpt lat="43.1551770" lon="-5.8591820">
        <ele>543.4</ele>
        <time>2018-06-17T09:20:53Z</time>
      </trkpt>
      <trkpt lat="43.1552870" lon="-5.8591740">
        <ele>541.8</ele>
        <time>2018-06-17T09:20:54Z</time>
      </trkpt>
      <trkpt lat="43.1554040" lon="-5.8591640">
        <ele>540.8</ele>
        <time>2018-06-17T09:20:55Z</time>
      </trkpt>
      <trkpt lat="43.1555240" lon="-5.8591200">
        <ele>539.2</ele>
        <time>2018-06-17T09:20:56Z</time>
      </trkpt>
      <trkpt lat="43.1556580" lon="-5.8590420">
        <ele>537.4</ele>
        <time>2018-06-17T09:20:57Z</time>
      </trkpt>
      <trkpt lat="43.1557630" lon="-5.8589220">
        <ele>535.8</ele>
        <time>2018-06-17T09:20:58Z</time>
      </trkpt>
      <trkpt lat="43.1558300" lon="-5.8587690">
        <ele>534.0</ele>
        <time>2018-06-17T09:20:59Z</time>
      </trkpt>
      <trkpt lat="43.1558610" lon="-5.8585920">
        <ele>532.8</ele>
        <time>2018-06-17T09:21:00Z</time>
      </trkpt>
      <trkpt lat="43.1558610" lon="-5.8584080">
        <ele>531.0</ele>
        <time>2018-06-17T09:21:01Z</time>
      </trkpt>
      <trkpt lat="43.1558340" lon="-5.8582240">
        <ele>529.6</ele>
        <time>2018-06-17T09:21:02Z</time>
      </trkpt>
      <trkpt lat="43.1557840" lon="-5.8580510">
        <ele>528.0</ele>
        <time>2018-06-17T09:21:03Z</time>
      </trkpt>
      <trkpt lat="43.1557140" lon="-5.8578840">
        <ele>526.0</ele>
        <time>2018-06-17T09:21:04Z</time>
      </trkpt>
      <trkpt lat="43.1556320" lon="-5.8577310">
        <ele>524.2</ele>
        <time>2018-06-17T09:21:05Z</time>
      </trkpt>
      <trkpt lat="43.1555280" lon="-5.8575910">
        <ele>521.8</ele>
        <time>2018-06-17T09:21:06Z</time>
      </trkpt>
      <trkpt lat="43.1554180" lon="-5.8574600">
        <ele>519.6</ele>
        <time>2018-06-17T09:21:07Z</time>
      </trkpt>
      <trkpt lat="43.1552980" lon="-5.8573400">
        <ele>517.8</ele>
        <time>2018-06-17T09:21:08Z</time>
      </trkpt>
      <trkpt lat="43.1551710" lon="-5.8572310">
        <ele>516.0</ele>
        <time>2018-06-17T09:21:09Z</time>
      </trkpt>
      <trkpt lat="43.1550400" lon="-5.8571280">
        <ele>514.2</ele>
        <time>2018-06-17T09:21:10Z</time>
      </trkpt>
      <trkpt lat="43.1549060" lon="-5.8570260">
        <ele>512.2</ele>
        <time>2018-06-17T09:21:11Z</time>
      </trkpt>
      <trkpt lat="43.1547730" lon="-5.8569260">
        <ele>510.4</ele>
        <time>2018-06-17T09:21:12Z</time>
      </trkpt>
      <trkpt lat="43.1546410" lon="-5.8568260">
        <ele>508.6</ele>
        <time>2018-06-17T09:21:13Z</time>
      </trkpt>
      <trkpt lat="43.1545120" lon="-5.8567280">
        <ele>506.6</ele>
        <time>2018-06-17T09:21:14Z</time>
      </trkpt>
      <trkpt lat="43.1543940" lon="-5.8566380">
        <ele>504.6</ele>
        <time>2018-06-17T09:21:15Z</time>
      </trkpt>
      <trkpt lat="43.1542860" lon="-5.8565560">
        <ele>503.4</ele>
        <time>2018-06-17T09:21:16Z</time>
      </trkpt>
      <trkpt lat="43.1541850" lon="-5.8564680">
        <ele>501.8</ele>
        <time>2018-06-17T09:21:17Z</time>
      </trkpt>
      <trkpt lat="43.1541000" lon="-5.8563600">
        <ele>500.2</ele>
        <time>2018-06-17T09:21:18Z</time>
      </trkpt>
      <trkpt lat="43.1540340" lon="-5.8562260">
        <ele>499.0</ele>
        <time>2018-06-17T09:21:19Z</time>
      </trkpt>
      <trkpt lat="43.1539970" lon="-5.8560690">
        <ele>497.8</ele>
        <time>2018-06-17T09:21:20Z</time>
      </trkpt>
      <trkpt lat="43.1539890" lon="-5.8558900">
        <ele>496.4</ele>
        <time>2018-06-17T09:21:21Z</time>
      </trkpt>
      <trkpt lat="43.1539970" lon="-5.8557070">
        <ele>495.2</ele>
        <time>2018-06-17T09:21:22Z</time>
      </trkpt>
      <trkpt lat="43.1540050" lon="-5.8555270">
        <ele>493.2</ele>
        <time>2018-06-17T09:21:23Z</time>
      </trkpt>
      <trkpt lat="43.1539990" lon="-5.8553540">
        <ele>491.4</ele>
        <time>2018-06-17T09:21:24Z</time>
      </trkpt>
      <trkpt lat="43.1539750" lon="-5.8551820">
        <ele>489.6</ele>
        <time>2018-06-17T09:21:25Z</time>
      </trkpt>
      <trkpt lat="43.1539050" lon="-5.8550500">
        <ele>488.0</ele>
        <time>2018-06-17T09:21:26Z</time>
      </trkpt>
      <trkpt lat="43.1538080" lon="-5.8549250">
        <ele>486.6</ele>
        <time>2018-06-17T09:21:27Z</time>
      </trkpt>
      <trkpt lat="43.1536890" lon="-5.8548240">
        <ele>485.0</ele>
        <time>2018-06-17T09:21:28Z</time>
      </trkpt>
      <trkpt lat="43.1535710" lon="-5.8547290">
        <ele>483.4</ele>
        <time>2018-06-17T09:21:29Z</time>
      </trkpt>
      <trkpt lat="43.1534570" lon="-5.8546300">
        <ele>482.2</ele>
        <time>2018-06-17T09:21:30Z</time>
      </trkpt>
      <trkpt lat="43.1533580" lon="-5.8545130">
        <ele>480.2</ele>
        <time>2018-06-17T09:21:31Z</time>
      </trkpt>
      <trkpt lat="43.1532870" lon="-5.8543580">
        <ele>478.0</ele>
        <time>2018-06-17T09:21:32Z</time>
      </trkpt>
      <trkpt lat="43.1532420" lon="-5.8541830">
        <ele>476.4</ele>
        <time>2018-06-17T09:21:33Z</time>
      </trkpt>
      <trkpt lat="43.1532190" lon="-5.8539950">
        <ele>474.8</ele>
        <time>2018-06-17T09:21:34Z</time>
      </trkpt>
      <trkpt lat="43.1532140" lon="-5.8538000">
        <ele>473.2</ele>
        <time>2018-06-17T09:21:35Z</time>
      </trkpt>
      <trkpt lat="43.1532110" lon="-5.8536140">
        <ele>471.6</ele>
        <time>2018-06-17T09:21:36Z</time>
      </trkpt>
      <trkpt lat="43.1531970" lon="-5.8534470">
        <ele>469.8</ele>
        <time>2018-06-17T09:21:37Z</time>
      </trkpt>
      <trkpt lat="43.1531600" lon="-5.8533000">
        <ele>468.6</ele>
        <time>2018-06-17T09:21:38Z</time>
      </trkpt>
      <trkpt lat="43.1530980" lon="-5.8531660">
        <ele>467.4</ele>
        <time>2018-06-17T09:21:39Z</time>
      </trkpt>
      <trkpt lat="43.1530070" lon="-5.8530490">
        <ele>466.2</ele>
        <time>2018-06-17T09:21:40Z</time>
      </trkpt>
      <trkpt lat="43.1528980" lon="-5.8529480">
        <ele>464.2</ele>
        <time>2018-06-17T09:21:41Z</time>
      </trkpt>
      <trkpt lat="43.1527770" lon="-5.8528630">
        <ele>462.6</ele>
        <time>2018-06-17T09:21:42Z</time>
      </trkpt>
      <trkpt lat="43.1526530" lon="-5.8527930">
        <ele>461.0</ele>
        <time>2018-06-17T09:21:43Z</time>
      </trkpt>
      <trkpt lat="43.1525280" lon="-5.8527310">
        <ele>459.8</ele>
        <time>2018-06-17T09:21:44Z</time>
      </trkpt>
      <trkpt lat="43.1524090" lon="-5.8526640">
        <ele>458.4</ele>
        <time>2018-06-17T09:21:45Z</time>
      </trkpt>
      <trkpt lat="43.1522970" lon="-5.8526030">
        <ele>457.2</ele>
        <time>2018-06-17T09:21:46Z</time>
      </trkpt>
      <trkpt lat="43.1521930" lon="-5.8525440">
        <ele>456.2</ele>
        <time>2018-06-17T09:21:47Z</time>
      </trkpt>
      <trkpt lat="43.1520980" lon="-5.8524770">
        <ele>455.2</ele>
        <time>2018-06-17T09:21:48Z</time>
      </trkpt>
      <trkpt lat="43.1520150" lon="-5.8523900">
        <ele>453.8</ele>
        <time>2018-06-17T09:21:49Z</time>
      </trkpt>
      <trkpt lat="43.1519560" lon="-5.8522730">
        <ele>452.4</ele>
        <time>2018-06-17T09:21:50Z</time>
      </trkpt>
      <trkpt lat="43.1519190" lon="-5.8521380">
        <ele>451.0</ele>
        <time>2018-06-17T09:21:51Z</time>
      </trkpt>
      <trkpt lat="43.1519170" lon="-5.8519870">
        <ele>449.8</ele>
        <time>2018-06-17T09:21:52Z</time>
      </trkpt>
      <trkpt lat="43.1519400" lon="-5.8518290">
        <ele>448.6</ele>
        <time>2018-06-17T09:21:53Z</time>
      </trkpt>
      <trkpt lat="43.1519720" lon="-5.8516750">
        <ele>447.6</ele>
        <time>2018-06-17T09:21:54Z</time>
      </trkpt>
      <trkpt lat="43.1520200" lon="-5.8513810">
        <ele>446.4</ele>
        <time>2018-06-17T09:21:56Z</time>
      </trkpt>
      <trkpt lat="43.1520560" lon="-5.8512500">
        <ele>446.0</ele>
        <time>2018-06-17T09:21:57Z</time>
      </trkpt>
      <trkpt lat="43.1521560" lon="-5.8509940">
        <ele>445.2</ele>
        <time>2018-06-17T09:21:59Z</time>
      </trkpt>
      <trkpt lat="43.1522280" lon="-5.8507110">
        <ele>444.4</ele>
        <time>2018-06-17T09:22:01Z</time>
      </trkpt>
      <trkpt lat="43.1522570" lon="-5.8505640">
        <ele>444.0</ele>
        <time>2018-06-17T09:22:02Z</time>
      </trkpt>
      <trkpt lat="43.1522960" lon="-5.8502560">
        <ele>442.8</ele>
        <time>2018-06-17T09:22:04Z</time>
      </trkpt>
      <trkpt lat="43.1523010" lon="-5.8499350">
        <ele>441.2</ele>
        <time>2018-06-17T09:22:06Z</time>
      </trkpt>
      <trkpt lat="43.1522520" lon="-5.8496130">
        <ele>439.2</ele>
        <time>2018-06-17T09:22:08Z</time>
      </trkpt>
      <trkpt lat="43.1522120" lon="-5.8494530">
        <ele>438.0</ele>
        <time>2018-06-17T09:22:09Z</time>
      </trkpt>
      <trkpt lat="43.1521640" lon="-5.8492920">
        <ele>436.4</ele>
        <time>2018-06-17T09:22:10Z</time>
      </trkpt>
      <trkpt lat="43.1521110" lon="-5.8491310">
        <ele>435.2</ele>
        <time>2018-06-17T09:22:11Z</time>
      </trkpt>
      <trkpt lat="43.1520590" lon="-5.8489690">
        <ele>434.2</ele>
        <time>2018-06-17T09:22:12Z</time>
      </trkpt>
      <trkpt lat="43.1520060" lon="-5.8488070">
        <ele>432.8</ele>
        <time>2018-06-17T09:22:13Z</time>
      </trkpt>
      <trkpt lat="43.1519510" lon="-5.8486470">
        <ele>431.8</ele>
        <time>2018-06-17T09:22:14Z</time>
      </trkpt>
      <trkpt lat="43.1518410" lon="-5.8483410">
        <ele>430.0</ele>
        <time>2018-06-17T09:22:16Z</time>
      </trkpt>
      <trkpt lat="43.1517630" lon="-5.8480370">
        <ele>428.6</ele>
        <time>2018-06-17T09:22:18Z</time>
      </trkpt>
      <trkpt lat="43.1517450" lon="-5.8477090">
        <ele>426.6</ele>
        <time>2018-06-17T09:22:20Z</time>
      </trkpt>
      <trkpt lat="43.1517540" lon="-5.8475400">
        <ele>425.4</ele>
        <time>2018-06-17T09:22:21Z</time>
      </trkpt>
      <trkpt lat="43.1517700" lon="-5.8473680">
        <ele>424.2</ele>
        <time>2018-06-17T09:22:22Z</time>
      </trkpt>
      <trkpt lat="43.1517910" lon="-5.8472000">
        <ele>423.0</ele>
        <time>2018-06-17T09:22:23Z</time>
      </trkpt>
      <trkpt lat="43.1518220" lon="-5.8470370">
        <ele>421.8</ele>
        <time>2018-06-17T09:22:24Z</time>
      </trkpt>
      <trkpt lat="43.1518740" lon="-5.8468810">
        <ele>420.8</ele>
        <time>2018-06-17T09:22:25Z</time>
      </trkpt>
      <trkpt lat="43.1519520" lon="-5.8467400">
        <ele>418.6</ele>
        <time>2018-06-17T09:22:26Z</time>
      </trkpt>
      <trkpt lat="43.1520420" lon="-5.8466090">
        <ele>417.4</ele>
        <time>2018-06-17T09:22:27Z</time>
      </trkpt>
      <trkpt lat="43.1521260" lon="-5.8464770">
        <ele>416.2</ele>
        <time>2018-06-17T09:22:28Z</time>
      </trkpt>
      <trkpt lat="43.1521950" lon="-5.8463400">
        <ele>414.8</ele>
        <time>2018-06-17T09:22:29Z</time>
      </trkpt>
      <trkpt lat="43.1522510" lon="-5.8462090">
        <ele>413.2</ele>
        <time>2018-06-17T09:22:30Z</time>
      </trkpt>
      <trkpt lat="43.1523080" lon="-5.8460890">
        <ele>412.0</ele>
        <time>2018-06-17T09:22:31Z</time>
      </trkpt>
      <trkpt lat="43.1524740" lon="-5.8459110">
        <ele>410.8</ele>
        <time>2018-06-17T09:22:33Z</time>
      </trkpt>
      <trkpt lat="43.1525750" lon="-5.8458430">
        <ele>409.8</ele>
        <time>2018-06-17T09:22:34Z</time>
      </trkpt>
      <trkpt lat="43.1526750" lon="-5.8457660">
        <ele>408.0</ele>
        <time>2018-06-17T09:22:35Z</time>
      </trkpt>
      <trkpt lat="43.1527700" lon="-5.8456690">
        <ele>407.0</ele>
        <time>2018-06-17T09:22:36Z</time>
      </trkpt>
      <trkpt lat="43.1529470" lon="-5.8454400">
        <ele>405.2</ele>
        <time>2018-06-17T09:22:38Z</time>
      </trkpt>
      <trkpt lat="43.1531050" lon="-5.8451750">
        <ele>403.8</ele>
        <time>2018-06-17T09:22:40Z</time>
      </trkpt>
      <trkpt lat="43.1531830" lon="-5.8450350">
        <ele>402.4</ele>
        <time>2018-06-17T09:22:41Z</time>
      </trkpt>
      <trkpt lat="43.1532710" lon="-5.8449030">
        <ele>401.2</ele>
        <time>2018-06-17T09:22:42Z</time>
      </trkpt>
      <trkpt lat="43.1534610" lon="-5.8446560">
        <ele>399.4</ele>
        <time>2018-06-17T09:22:44Z</time>
      </trkpt>
      <trkpt lat="43.1535480" lon="-5.8445290">
        <ele>398.2</ele>
        <time>2018-06-17T09:22:45Z</time>
      </trkpt>
      <trkpt lat="43.1536220" lon="-5.8444000">
        <ele>397.2</ele>
        <time>2018-06-17T09:22:46Z</time>
      </trkpt>
      <trkpt lat="43.1536800" lon="-5.8442710">
        <ele>396.2</ele>
        <time>2018-06-17T09:22:47Z</time>
      </trkpt>
      <trkpt lat="43.1537160" lon="-5.8439940">
        <ele>394.4</ele>
        <time>2018-06-17T09:22:49Z</time>
      </trkpt>
      <trkpt lat="43.1537180" lon="-5.8438550">
        <ele>394.2</ele>
        <time>2018-06-17T09:22:50Z</time>
      </trkpt>
      <trkpt lat="43.1537320" lon="-5.8437170">
        <ele>393.0</ele>
        <time>2018-06-17T09:22:51Z</time>
      </trkpt>
      <trkpt lat="43.1538030" lon="-5.8434390">
        <ele>391.0</ele>
        <time>2018-06-17T09:22:53Z</time>
      </trkpt>
      <trkpt lat="43.1539200" lon="-5.8431580">
        <ele>388.8</ele>
        <time>2018-06-17T09:22:55Z</time>
      </trkpt>
      <trkpt lat="43.1539800" lon="-5.8430110">
        <ele>387.6</ele>
        <time>2018-06-17T09:22:56Z</time>
      </trkpt>
      <trkpt lat="43.1540490" lon="-5.8428590">
        <ele>386.2</ele>
        <time>2018-06-17T09:22:57Z</time>
      </trkpt>
      <trkpt lat="43.1541090" lon="-5.8426970">
        <ele>384.8</ele>
        <time>2018-06-17T09:22:58Z</time>
      </trkpt>
      <trkpt lat="43.1541510" lon="-5.8425220">
        <ele>383.6</ele>
        <time>2018-06-17T09:22:59Z</time>
      </trkpt>
      <trkpt lat="43.1541730" lon="-5.8423350">
        <ele>381.8</ele>
        <time>2018-06-17T09:23:00Z</time>
      </trkpt>
      <trkpt lat="43.1541840" lon="-5.8421450">
        <ele>380.4</ele>
        <time>2018-06-17T09:23:01Z</time>
      </trkpt>
      <trkpt lat="43.1541960" lon="-5.8419570">
        <ele>378.6</ele>
        <time>2018-06-17T09:23:02Z</time>
      </trkpt>
      <trkpt lat="43.1542050" lon="-5.8417710">
        <ele>377.2</ele>
        <time>2018-06-17T09:23:03Z</time>
      </trkpt>
      <trkpt lat="43.1542100" lon="-5.8415850">
        <ele>376.0</ele>
        <time>2018-06-17T09:23:04Z</time>
      </trkpt>
      <trkpt lat="43.1542100" lon="-5.8413950">
        <ele>374.4</ele>
        <time>2018-06-17T09:23:05Z</time>
      </trkpt>
      <trkpt lat="43.1542030" lon="-5.8412010">
        <ele>373.2</ele>
        <time>2018-06-17T09:23:06Z</time>
      </trkpt>
      <trkpt lat="43.1541920" lon="-5.8410040">
        <ele>371.6</ele>
        <time>2018-06-17T09:23:07Z</time>
      </trkpt>
      <trkpt lat="43.1541770" lon="-5.8408070">
        <ele>370.2</ele>
        <time>2018-06-17T09:23:08Z</time>
      </trkpt>
      <trkpt lat="43.1541600" lon="-5.8406120">
        <ele>368.6</ele>
        <time>2018-06-17T09:23:09Z</time>
      </trkpt>
      <trkpt lat="43.1541420" lon="-5.8404190">
        <ele>366.8</ele>
        <time>2018-06-17T09:23:10Z</time>
      </trkpt>
      <trkpt lat="43.1541240" lon="-5.8402220">
        <ele>364.4</ele>
        <time>2018-06-17T09:23:11Z</time>
      </trkpt>
      <trkpt lat="43.1541060" lon="-5.8400240">
        <ele>363.2</ele>
        <time>2018-06-17T09:23:12Z</time>
      </trkpt>
      <trkpt lat="43.1540870" lon="-5.8398330">
        <ele>361.8</ele>
        <time>2018-06-17T09:23:13Z</time>
      </trkpt>
      <trkpt lat="43.1540680" lon="-5.8396510">
        <ele>360.4</ele>
        <time>2018-06-17T09:23:14Z</time>
      </trkpt>
      <trkpt lat="43.1540480" lon="-5.8394760">
        <ele>359.2</ele>
        <time>2018-06-17T09:23:15Z</time>
      </trkpt>
      <trkpt lat="43.1540290" lon="-5.8393020">
        <ele>358.2</ele>
        <time>2018-06-17T09:23:16Z</time>
      </trkpt>
      <trkpt lat="43.1540110" lon="-5.8391310">
        <ele>357.0</ele>
        <time>2018-06-17T09:23:17Z</time>
      </trkpt>
      <trkpt lat="43.1539980" lon="-5.8389620">
        <ele>355.6</ele>
        <time>2018-06-17T09:23:18Z</time>
      </trkpt>
      <trkpt lat="43.1539910" lon="-5.8387910">
        <ele>354.6</ele>
        <time>2018-06-17T09:23:19Z</time>
      </trkpt>
      <trkpt lat="43.1539930" lon="-5.8386140">
        <ele>353.2</ele>
        <time>2018-06-17T09:23:20Z</time>
      </trkpt>
      <trkpt lat="43.1540040" lon="-5.8384350">
        <ele>352.2</ele>
        <time>2018-06-17T09:23:21Z</time>
      </trkpt>
      <trkpt lat="43.1540270" lon="-5.8382510">
        <ele>351.0</ele>
        <time>2018-06-17T09:23:22Z</time>
      </trkpt>
      <trkpt lat="43.1540850" lon="-5.8378780">
        <ele>348.8</ele>
        <time>2018-06-17T09:23:24Z</time>
      </trkpt>
      <trkpt lat="43.1541440" lon="-5.8375000">
        <ele>347.0</ele>
        <time>2018-06-17T09:23:26Z</time>
      </trkpt>
      <trkpt lat="43.1541890" lon="-5.8371470">
        <ele>344.8</ele>
        <time>2018-06-17T09:23:28Z</time>
      </trkpt>
      <trkpt lat="43.1542030" lon="-5.8369830">
        <ele>342.8</ele>
        <time>2018-06-17T09:23:29Z</time>
      </trkpt>
      <trkpt lat="43.1542150" lon="-5.8366620">
        <ele>341.0</ele>
        <time>2018-06-17T09:23:31Z</time>
      </trkpt>
      <trkpt lat="43.1542300" lon="-5.8364980">
        <ele>340.0</ele>
        <time>2018-06-17T09:23:32Z</time>
      </trkpt>
      <trkpt lat="43.1542540" lon="-5.8363330">
        <ele>338.8</ele>
        <time>2018-06-17T09:23:33Z</time>
      </trkpt>
      <trkpt lat="43.1542830" lon="-5.8361760">
        <ele>337.6</ele>
        <time>2018-06-17T09:23:34Z</time>
      </trkpt>
      <trkpt lat="43.1543140" lon="-5.8360320">
        <ele>336.6</ele>
        <time>2018-06-17T09:23:35Z</time>
      </trkpt>
      <trkpt lat="43.1543460" lon="-5.8358880">
        <ele>335.4</ele>
        <time>2018-06-17T09:23:36Z</time>
      </trkpt>
      <trkpt lat="43.1544250" lon="-5.8356210">
        <ele>333.2</ele>
        <time>2018-06-17T09:23:38Z</time>
      </trkpt>
      <trkpt lat="43.1545120" lon="-5.8353510">
        <ele>331.2</ele>
        <time>2018-06-17T09:23:40Z</time>
      </trkpt>
      <trkpt lat="43.1546100" lon="-5.8350840">
        <ele>329.6</ele>
        <time>2018-06-17T09:23:42Z</time>
      </trkpt>
      <trkpt lat="43.1547390" lon="-5.8346810">
        <ele>328.4</ele>
        <time>2018-06-17T09:23:45Z</time>
      </trkpt>
      <trkpt lat="43.1548760" lon="-5.8342060">
        <ele>327.4</ele>
        <time>2018-06-17T09:23:49Z</time>
      </trkpt>
      <trkpt lat="43.1549370" lon="-5.8339910">
        <ele>327.2</ele>
        <time>2018-06-17T09:23:51Z</time>
      </trkpt>
      <trkpt lat="43.1550870" lon="-5.8334520">
        <ele>326.4</ele>
        <time>2018-06-17T09:23:56Z</time>
      </trkpt>
      <trkpt lat="43.1552090" lon="-5.8330080">
        <ele>324.6</ele>
        <time>2018-06-17T09:24:00Z</time>
      </trkpt>
      <trkpt lat="43.1552760" lon="-5.8327900">
        <ele>323.2</ele>
        <time>2018-06-17T09:24:02Z</time>
      </trkpt>
      <trkpt lat="43.1553360" lon="-5.8325750">
        <ele>322.2</ele>
        <time>2018-06-17T09:24:04Z</time>
      </trkpt>
      <trkpt lat="43.1554310" lon="-5.8322740">
        <ele>321.0</ele>
        <time>2018-06-17T09:24:07Z</time>
      </trkpt>
      <trkpt lat="43.1555370" lon="-5.8319120">
        <ele>319.8</ele>
        <time>2018-06-17T09:24:11Z</time>
      </trkpt>
      <trkpt lat="43.1556420" lon="-5.8315700">
        <ele>318.8</ele>
        <time>2018-06-17T09:24:19Z</time>
      </trkpt>
      <trkpt lat="43.1556480" lon="-5.8315600">
        <ele>318.6</ele>
        <time>2018-06-17T09:24:21Z</time>
      </trkpt>
      <trkpt lat="43.1556680" lon="-5.8315410">
        <ele>318.4</ele>
        <time>2018-06-17T09:24:32Z</time>
      </trkpt>
      <trkpt lat="43.1557340" lon="-5.8314270">
        <ele>317.8</ele>
        <time>2018-06-17T09:24:36Z</time>
      </trkpt>
      <trkpt lat="43.1557940" lon="-5.8312870">
        <ele>317.4</ele>
        <time>2018-06-17T09:24:39Z</time>
      </trkpt>
      <trkpt lat="43.1558690" lon="-5.8311310">
        <ele>316.8</ele>
        <time>2018-06-17T09:24:42Z</time>
      </trkpt>
      <trkpt lat="43.1559830" lon="-5.8308860">
        <ele>316.0</ele>
        <time>2018-06-17T09:24:46Z</time>
      </trkpt>
      <trkpt lat="43.1560500" lon="-5.8307090">
        <ele>315.8</ele>
        <time>2018-06-17T09:24:49Z</time>
      </trkpt>
      <trkpt lat="43.1561050" lon="-5.8305570">
        <ele>315.4</ele>
        <time>2018-06-17T09:24:52Z</time>
      </trkpt>
      <trkpt lat="43.1561950" lon="-5.8304600">
        <ele>315.0</ele>
        <time>2018-06-17T09:24:54Z</time>
      </trkpt>
      <trkpt lat="43.1563570" lon="-5.8303670">
        <ele>314.8</ele>
        <time>2018-06-17T09:24:57Z</time>
      </trkpt>
      <trkpt lat="43.1564680" lon="-5.8303120">
        <ele>314.6</ele>
        <time>2018-06-17T09:24:59Z</time>
      </trkpt>
      <trkpt lat="43.1569930" lon="-5.8300250">
        <ele>313.8</ele>
        <time>2018-06-17T09:25:08Z</time>
      </trkpt>
      <trkpt lat="43.1573790" lon="-5.8298140">
        <ele>313.6</ele>
        <time>2018-06-17T09:25:15Z</time>
      </trkpt>
      <trkpt lat="43.1573910" lon="-5.8296980">
        <ele>313.2</ele>
        <time>2018-06-17T09:25:18Z</time>
      </trkpt>
      <trkpt lat="43.1573610" lon="-5.8296740">
        <ele>313.2</ele>
        <time>2018-06-17T09:25:19Z</time>
      </trkpt>
      <trkpt lat="43.1573050" lon="-5.8296670">
        <ele>313.2</ele>
        <time>2018-06-17T09:25:21Z</time>
      </trkpt>
      <trkpt lat="43.1572460" lon="-5.8296740">
        <ele>313.0</ele>
        <time>2018-06-17T09:25:23Z</time>
      </trkpt>
      <trkpt lat="43.1572140" lon="-5.8296750">
        <ele>313.0</ele>
        <time>2018-06-17T09:25:24Z</time>
      </trkpt>
      <trkpt lat="43.1571660" lon="-5.8296740">
        <ele>312.8</ele>
        <time>2018-06-17T09:25:25Z</time>
      </trkpt>
      <trkpt lat="43.1570540" lon="-5.8296300">
        <ele>312.0</ele>
        <time>2018-06-17T09:25:27Z</time>
      </trkpt>
      <trkpt lat="43.1568590" lon="-5.8295260">
        <ele>310.6</ele>
        <time>2018-06-17T09:25:30Z</time>
      </trkpt>
      <trkpt lat="43.1567450" lon="-5.8294080">
        <ele>309.8</ele>
        <time>2018-06-17T09:25:32Z</time>
      </trkpt>
      <trkpt lat="43.1567080" lon="-5.8293390">
        <ele>309.2</ele>
        <time>2018-06-17T09:25:33Z</time>
      </trkpt>
      <trkpt lat="43.1567230" lon="-5.8289100">
        <ele>308.0</ele>
        <time>2018-06-17T09:25:38Z</time>
      </trkpt>
      <trkpt lat="43.1567440" lon="-5.8287640">
        <ele>307.2</ele>
        <time>2018-06-17T09:25:40Z</time>
      </trkpt>
      <trkpt lat="43.1567550" lon="-5.8286980">
        <ele>306.8</ele>
        <time>2018-06-17T09:25:41Z</time>
      </trkpt>
      <trkpt lat="43.1567410" lon="-5.8284870">
        <ele>306.6</ele>
        <time>2018-06-17T09:25:45Z</time>
      </trkpt>
      <trkpt lat="43.1565160" lon="-5.8284140">
        <ele>306.8</ele>
        <time>2018-06-17T09:25:50Z</time>
      </trkpt>
      <trkpt lat="43.1564530" lon="-5.8283920">
        <ele>306.6</ele>
        <time>2018-06-17T09:25:51Z</time>
      </trkpt>
      <trkpt lat="43.1562620" lon="-5.8282600">
        <ele>306.4</ele>
        <time>2018-06-17T09:25:54Z</time>
      </trkpt>
      <trkpt lat="43.1559060" lon="-5.8280880">
        <ele>306.8</ele>
        <time>2018-06-17T09:26:00Z</time>
      </trkpt>
      <trkpt lat="43.1558080" lon="-5.8279970">
        <ele>306.8</ele>
        <time>2018-06-17T09:26:02Z</time>
      </trkpt>
      <trkpt lat="43.1555380" lon="-5.8277830">
        <ele>307.2</ele>
        <time>2018-06-17T09:26:08Z</time>
      </trkpt>
      <trkpt lat="43.1553400" lon="-5.8276590">
        <ele>307.2</ele>
        <time>2018-06-17T09:26:12Z</time>
      </trkpt>
      <trkpt lat="43.1548490" lon="-5.8273070">
        <ele>307.0</ele>
        <time>2018-06-17T09:26:21Z</time>
      </trkpt>
      <trkpt lat="43.1547390" lon="-5.8272720">
        <ele>307.4</ele>
        <time>2018-06-17T09:26:23Z</time>
      </trkpt>
      <trkpt lat="43.1544150" lon="-5.8271730">
        <ele>308.6</ele>
        <time>2018-06-17T09:26:29Z</time>
      </trkpt>
      <trkpt lat="43.1542850" lon="-5.8271400">
        <ele>308.8</ele>
        <time>2018-06-17T09:26:31Z</time>
      </trkpt>
      <trkpt lat="43.1542290" lon="-5.8271150">
        <ele>309.0</ele>
        <time>2018-06-17T09:26:32Z</time>
      </trkpt>
      <trkpt lat="43.1541160" lon="-5.8271200">
        <ele>309.2</ele>
        <time>2018-06-17T09:26:34Z</time>
      </trkpt>
      <trkpt lat="43.1539520" lon="-5.8271450">
        <ele>309.4</ele>
        <time>2018-06-17T09:26:37Z</time>
      </trkpt>
      <trkpt lat="43.1533530" lon="-5.8271320">
        <ele>309.2</ele>
        <time>2018-06-17T09:26:47Z</time>
      </trkpt>
      <trkpt lat="43.1529930" lon="-5.8269630">
        <ele>309.4</ele>
        <time>2018-06-17T09:26:52Z</time>
      </trkpt>
      <trkpt lat="43.1527140" lon="-5.8269710">
        <ele>309.6</ele>
        <time>2018-06-17T09:26:57Z</time>
      </trkpt>
      <trkpt lat="43.1521360" lon="-5.8270150">
        <ele>310.2</ele>
        <time>2018-06-17T09:27:07Z</time>
      </trkpt>
      <trkpt lat="43.1520340" lon="-5.8270250">
        <ele>310.6</ele>
        <time>2018-06-17T09:27:09Z</time>
      </trkpt>
      <trkpt lat="43.1516970" lon="-5.8269210">
        <ele>311.2</ele>
        <time>2018-06-17T09:27:15Z</time>
      </trkpt>
      <trkpt lat="43.1515100" lon="-5.8268460">
        <ele>311.8</ele>
        <time>2018-06-17T09:27:18Z</time>
      </trkpt>
      <trkpt lat="43.1513440" lon="-5.8267840">
        <ele>312.8</ele>
        <time>2018-06-17T09:27:21Z</time>
      </trkpt>
      <trkpt lat="43.1511910" lon="-5.8267540">
        <ele>313.2</ele>
        <time>2018-06-17T09:27:24Z</time>
      </trkpt>
      <trkpt lat="43.1509240" lon="-5.8267270">
        <ele>314.0</ele>
        <time>2018-06-17T09:27:29Z</time>
      </trkpt>
      <trkpt lat="43.1507780" lon="-5.8267310">
        <ele>314.2</ele>
        <time>2018-06-17T09:27:32Z</time>
      </trkpt>
      <trkpt lat="43.1505920" lon="-5.8267180">
        <ele>315.0</ele>
        <time>2018-06-17T09:27:36Z</time>
      </trkpt>
      <trkpt lat="43.1504910" lon="-5.8266910">
        <ele>315.2</ele>
        <time>2018-06-17T09:27:38Z</time>
      </trkpt>
      <trkpt lat="43.1502030" lon="-5.8266370">
        <ele>316.0</ele>
        <time>2018-06-17T09:27:44Z</time>
      </trkpt>
      <trkpt lat="43.1499900" lon="-5.8266800">
        <ele>316.2</ele>
        <time>2018-06-17T09:27:49Z</time>
      </trkpt>
      <trkpt lat="43.1499390" lon="-5.8266470">
        <ele>316.4</ele>
        <time>2018-06-17T09:27:51Z</time>
      </trkpt>
      <trkpt lat="43.1498270" lon="-5.8265490">
        <ele>316.4</ele>
        <time>2018-06-17T09:27:55Z</time>
      </trkpt>
      <trkpt lat="43.1498110" lon="-5.8265320">
        <ele>316.4</ele>
        <time>2018-06-17T09:27:56Z</time>
      </trkpt>
      <trkpt lat="43.1497710" lon="-5.8263740">
        <ele>316.8</ele>
        <time>2018-06-17T09:28:01Z</time>
      </trkpt>
      <trkpt lat="43.1498120" lon="-5.8263590">
        <ele>317.0</ele>
        <time>2018-06-17T09:28:03Z</time>
      </trkpt>
      <trkpt lat="43.1497480" lon="-5.8263740">
        <ele>317.0</ele>
        <time>2018-06-17T09:28:11Z</time>
      </trkpt>
      <trkpt lat="43.1497740" lon="-5.8262930">
        <ele>318.0</ele>
        <time>2018-06-17T09:34:28Z</time>
      </trkpt>
      <trkpt lat="43.1497720" lon="-5.8262640">
        <ele>317.8</ele>
        <time>2018-06-17T09:34:29Z</time>
      </trkpt>
      <trkpt lat="43.1497430" lon="-5.8261750">
        <ele>317.0</ele>
        <time>2018-06-17T09:34:32Z</time>
      </trkpt>
      <trkpt lat="43.1497370" lon="-5.8261520">
        <ele>317.2</ele>
        <time>2018-06-17T09:34:33Z</time>
      </trkpt>
      <trkpt lat="43.1497250" lon="-5.8260940">
        <ele>316.8</ele>
        <time>2018-06-17T09:34:36Z</time>
      </trkpt>
      <trkpt lat="43.1497340" lon="-5.8260740">
        <ele>316.4</ele>
        <time>2018-06-17T09:34:41Z</time>
      </trkpt>
      <trkpt lat="43.1497280" lon="-5.8265570">
        <ele>318.6</ele>
        <time>2018-06-17T09:37:04Z</time>
      </trkpt>
      <trkpt lat="43.1496150" lon="-5.8266120">
        <ele>318.6</ele>
        <time>2018-06-17T09:37:09Z</time>
      </trkpt>
      <trkpt lat="43.1494300" lon="-5.8266250">
        <ele>318.6</ele>
        <time>2018-06-17T09:37:15Z</time>
      </trkpt>
      <trkpt lat="43.1492350" lon="-5.8266090">
        <ele>318.6</ele>
        <time>2018-06-17T09:37:22Z</time>
      </trkpt>
      <trkpt lat="43.1487400" lon="-5.8264130">
        <ele>318.4</ele>
        <time>2018-06-17T09:37:36Z</time>
      </trkpt>
      <trkpt lat="43.1486160" lon="-5.8263070">
        <ele>318.4</ele>
        <time>2018-06-17T09:37:39Z</time>
      </trkpt>
      <trkpt lat="43.1485180" lon="-5.8262540">
        <ele>318.6</ele>
        <time>2018-06-17T09:37:41Z</time>
      </trkpt>
      <trkpt lat="43.1483590" lon="-5.8261400">
        <ele>318.6</ele>
        <time>2018-06-17T09:37:44Z</time>
      </trkpt>
      <trkpt lat="43.1481960" lon="-5.8259970">
        <ele>319.0</ele>
        <time>2018-06-17T09:37:47Z</time>
      </trkpt>
      <trkpt lat="43.1479160" lon="-5.8257510">
        <ele>319.0</ele>
        <time>2018-06-17T09:37:52Z</time>
      </trkpt>
      <trkpt lat="43.1477940" lon="-5.8256500">
        <ele>319.0</ele>
        <time>2018-06-17T09:37:54Z</time>
      </trkpt>
      <trkpt lat="43.1474750" lon="-5.8255950">
        <ele>319.8</ele>
        <time>2018-06-17T09:37:59Z</time>
      </trkpt>
      <trkpt lat="43.1474080" lon="-5.8255720">
        <ele>319.8</ele>
        <time>2018-06-17T09:38:00Z</time>
      </trkpt>
      <trkpt lat="43.1472030" lon="-5.8254960">
        <ele>320.0</ele>
        <time>2018-06-17T09:38:03Z</time>
      </trkpt>
      <trkpt lat="43.1466660" lon="-5.8255970">
        <ele>320.2</ele>
        <time>2018-06-17T09:38:11Z</time>
      </trkpt>
      <trkpt lat="43.1461800" lon="-5.8257330">
        <ele>320.6</ele>
        <time>2018-06-17T09:38:18Z</time>
      </trkpt>
      <trkpt lat="43.1458300" lon="-5.8257590">
        <ele>320.8</ele>
        <time>2018-06-17T09:38:23Z</time>
      </trkpt>
      <trkpt lat="43.1452810" lon="-5.8256640">
        <ele>321.0</ele>
        <time>2018-06-17T09:38:31Z</time>
      </trkpt>
      <trkpt lat="43.1448980" lon="-5.8255250">
        <ele>322.0</ele>
        <time>2018-06-17T09:38:37Z</time>
      </trkpt>
      <trkpt lat="43.1446610" lon="-5.8254370">
        <ele>322.6</ele>
        <time>2018-06-17T09:38:41Z</time>
      </trkpt>
      <trkpt lat="43.1444260" lon="-5.8254250">
        <ele>323.4</ele>
        <time>2018-06-17T09:38:45Z</time>
      </trkpt>
      <trkpt lat="43.1438830" lon="-5.8254680">
        <ele>324.2</ele>
        <time>2018-06-17T09:38:54Z</time>
      </trkpt>
      <trkpt lat="43.1436300" lon="-5.8254800">
        <ele>324.4</ele>
        <time>2018-06-17T09:38:58Z</time>
      </trkpt>
      <trkpt lat="43.1430680" lon="-5.8255110">
        <ele>325.2</ele>
        <time>2018-06-17T09:39:07Z</time>
      </trkpt>
      <trkpt lat="43.1428770" lon="-5.8255280">
        <ele>325.4</ele>
        <time>2018-06-17T09:39:10Z</time>
      </trkpt>
      <trkpt lat="43.1426870" lon="-5.8255470">
        <ele>325.8</ele>
        <time>2018-06-17T09:39:13Z</time>
      </trkpt>
      <trkpt lat="43.1423810" lon="-5.8255740">
        <ele>326.6</ele>
        <time>2018-06-17T09:39:18Z</time>
      </trkpt>
      <trkpt lat="43.1419690" lon="-5.8255960">
        <ele>327.6</ele>
        <time>2018-06-17T09:39:25Z</time>
      </trkpt>
      <trkpt lat="43.1415180" lon="-5.8256220">
        <ele>328.6</ele>
        <time>2018-06-17T09:39:33Z</time>
      </trkpt>
      <trkpt lat="43.1411270" lon="-5.8255900">
        <ele>329.6</ele>
        <time>2018-06-17T09:39:40Z</time>
      </trkpt>
      <trkpt lat="43.1410730" lon="-5.8255700">
        <ele>329.8</ele>
        <time>2018-06-17T09:39:41Z</time>
      </trkpt>
      <trkpt lat="43.1407660" lon="-5.8253840">
        <ele>330.8</ele>
        <time>2018-06-17T09:39:47Z</time>
      </trkpt>
      <trkpt lat="43.1406730" lon="-5.8252990">
        <ele>331.2</ele>
        <time>2018-06-17T09:39:49Z</time>
      </trkpt>
      <trkpt lat="43.1403900" lon="-5.8248550">
        <ele>329.8</ele>
        <time>2018-06-17T09:39:55Z</time>
      </trkpt>
      <trkpt lat="43.1401400" lon="-5.8245570">
        <ele>329.0</ele>
        <time>2018-06-17T09:39:59Z</time>
      </trkpt>
      <trkpt lat="43.1398220" lon="-5.8243980">
        <ele>328.6</ele>
        <time>2018-06-17T09:40:03Z</time>
      </trkpt>
      <trkpt lat="43.1392890" lon="-5.8241160">
        <ele>328.8</ele>
        <time>2018-06-17T09:40:10Z</time>
      </trkpt>
      <trkpt lat="43.1388280" lon="-5.8238780">
        <ele>329.6</ele>
        <time>2018-06-17T09:40:16Z</time>
      </trkpt>
      <trkpt lat="43.1383030" lon="-5.8236020">
        <ele>329.8</ele>
        <time>2018-06-17T09:40:23Z</time>
      </trkpt>
      <trkpt lat="43.1377790" lon="-5.8233270">
        <ele>330.4</ele>
        <time>2018-06-17T09:40:30Z</time>
      </trkpt>
      <trkpt lat="43.1376370" lon="-5.8232550">
        <ele>330.8</ele>
        <time>2018-06-17T09:40:32Z</time>
      </trkpt>
      <trkpt lat="43.1372990" lon="-5.8230820">
        <ele>332.0</ele>
        <time>2018-06-17T09:40:37Z</time>
      </trkpt>
      <trkpt lat="43.1368540" lon="-5.8229140">
        <ele>333.0</ele>
        <time>2018-06-17T09:40:44Z</time>
      </trkpt>
      <trkpt lat="43.1366260" lon="-5.8228460">
        <ele>334.0</ele>
        <time>2018-06-17T09:40:48Z</time>
      </trkpt>
      <trkpt lat="43.1364430" lon="-5.8227990">
        <ele>335.6</ele>
        <time>2018-06-17T09:40:52Z</time>
      </trkpt>
      <trkpt lat="43.1363030" lon="-5.8227680">
        <ele>336.8</ele>
        <time>2018-06-17T09:40:55Z</time>
      </trkpt>
      <trkpt lat="43.1361670" lon="-5.8227270">
        <ele>338.6</ele>
        <time>2018-06-17T09:40:58Z</time>
      </trkpt>
      <trkpt lat="43.1361220" lon="-5.8227180">
        <ele>339.2</ele>
        <time>2018-06-17T09:40:59Z</time>
      </trkpt>
      <trkpt lat="43.1360770" lon="-5.8227100">
        <ele>340.0</ele>
        <time>2018-06-17T09:41:00Z</time>
      </trkpt>
      <trkpt lat="43.1359890" lon="-5.8226910">
        <ele>341.0</ele>
        <time>2018-06-17T09:41:02Z</time>
      </trkpt>
      <trkpt lat="43.1359040" lon="-5.8226680">
        <ele>342.4</ele>
        <time>2018-06-17T09:41:04Z</time>
      </trkpt>
      <trkpt lat="43.1357760" lon="-5.8226260">
        <ele>343.8</ele>
        <time>2018-06-17T09:41:07Z</time>
      </trkpt>
      <trkpt lat="43.1356920" lon="-5.8226020">
        <ele>344.6</ele>
        <time>2018-06-17T09:41:09Z</time>
      </trkpt>
      <trkpt lat="43.1356470" lon="-5.8225980">
        <ele>345.0</ele>
        <time>2018-06-17T09:41:10Z</time>
      </trkpt>
      <trkpt lat="43.1350770" lon="-5.8227340">
        <ele>345.6</ele>
        <time>2018-06-17T09:41:21Z</time>
      </trkpt>
      <trkpt lat="43.1347800" lon="-5.8228020">
        <ele>343.4</ele>
        <time>2018-06-17T09:41:25Z</time>
      </trkpt>
      <trkpt lat="43.1346040" lon="-5.8227880">
        <ele>342.2</ele>
        <time>2018-06-17T09:41:27Z</time>
      </trkpt>
      <trkpt lat="43.1344280" lon="-5.8226920">
        <ele>340.6</ele>
        <time>2018-06-17T09:41:29Z</time>
      </trkpt>
      <trkpt lat="43.1342720" lon="-5.8225670">
        <ele>339.4</ele>
        <time>2018-06-17T09:41:31Z</time>
      </trkpt>
      <trkpt lat="43.1338040" lon="-5.8220700">
        <ele>338.8</ele>
        <time>2018-06-17T09:41:38Z</time>
      </trkpt>
      <trkpt lat="43.1336210" lon="-5.8218670">
        <ele>338.6</ele>
        <time>2018-06-17T09:41:41Z</time>
      </trkpt>
      <trkpt lat="43.1334410" lon="-5.8216630">
        <ele>338.4</ele>
        <time>2018-06-17T09:41:44Z</time>
      </trkpt>
      <trkpt lat="43.1333240" lon="-5.8215340">
        <ele>338.4</ele>
        <time>2018-06-17T09:41:46Z</time>
      </trkpt>
      <trkpt lat="43.1330400" lon="-5.8212350">
        <ele>338.6</ele>
        <time>2018-06-17T09:41:51Z</time>
      </trkpt>
      <trkpt lat="43.1329870" lon="-5.8211760">
        <ele>338.8</ele>
        <time>2018-06-17T09:41:52Z</time>
      </trkpt>
      <trkpt lat="43.1328870" lon="-5.8210530">
        <ele>338.8</ele>
        <time>2018-06-17T09:41:54Z</time>
      </trkpt>
      <trkpt lat="43.1324860" lon="-5.8206360">
        <ele>340.4</ele>
        <time>2018-06-17T09:42:02Z</time>
      </trkpt>
      <trkpt lat="43.1321660" lon="-5.8202790">
        <ele>340.8</ele>
        <time>2018-06-17T09:42:09Z</time>
      </trkpt>
      <trkpt lat="43.1320420" lon="-5.8201490">
        <ele>341.4</ele>
        <time>2018-06-17T09:42:12Z</time>
      </trkpt>
      <trkpt lat="43.1318000" lon="-5.8199180">
        <ele>342.6</ele>
        <time>2018-06-17T09:42:18Z</time>
      </trkpt>
      <trkpt lat="43.1314550" lon="-5.8196950">
        <ele>343.8</ele>
        <time>2018-06-17T09:42:26Z</time>
      </trkpt>
      <trkpt lat="43.1312800" lon="-5.8195860">
        <ele>344.2</ele>
        <time>2018-06-17T09:42:30Z</time>
      </trkpt>
      <trkpt lat="43.1310830" lon="-5.8194130">
        <ele>345.0</ele>
        <time>2018-06-17T09:42:35Z</time>
      </trkpt>
      <trkpt lat="43.1309090" lon="-5.8192000">
        <ele>346.0</ele>
        <time>2018-06-17T09:42:40Z</time>
      </trkpt>
      <trkpt lat="43.1305540" lon="-5.8187840">
        <ele>347.2</ele>
        <time>2018-06-17T09:42:49Z</time>
      </trkpt>
      <trkpt lat="43.1303070" lon="-5.8185020">
        <ele>347.8</ele>
        <time>2018-06-17T09:42:55Z</time>
      </trkpt>
      <trkpt lat="43.1300050" lon="-5.8181280">
        <ele>347.4</ele>
        <time>2018-06-17T09:43:02Z</time>
      </trkpt>
      <trkpt lat="43.1298980" lon="-5.8179920">
        <ele>346.4</ele>
        <time>2018-06-17T09:43:04Z</time>
      </trkpt>
      <trkpt lat="43.1298410" lon="-5.8179210">
        <ele>346.2</ele>
        <time>2018-06-17T09:43:05Z</time>
      </trkpt>
      <trkpt lat="43.1297160" lon="-5.8177670">
        <ele>345.0</ele>
        <time>2018-06-17T09:43:07Z</time>
      </trkpt>
      <trkpt lat="43.1295760" lon="-5.8176120">
        <ele>344.0</ele>
        <time>2018-06-17T09:43:09Z</time>
      </trkpt>
      <trkpt lat="43.1294220" lon="-5.8174610">
        <ele>343.0</ele>
        <time>2018-06-17T09:43:11Z</time>
      </trkpt>
      <trkpt lat="43.1292630" lon="-5.8173150">
        <ele>341.8</ele>
        <time>2018-06-17T09:43:13Z</time>
      </trkpt>
      <trkpt lat="43.1290160" lon="-5.8171360">
        <ele>341.2</ele>
        <time>2018-06-17T09:43:16Z</time>
      </trkpt>
      <trkpt lat="43.1284540" lon="-5.8169250">
        <ele>342.8</ele>
        <time>2018-06-17T09:43:23Z</time>
      </trkpt>
      <trkpt lat="43.1283820" lon="-5.8169010">
        <ele>343.2</ele>
        <time>2018-06-17T09:43:24Z</time>
      </trkpt>
      <trkpt lat="43.1278420" lon="-5.8168570">
        <ele>343.6</ele>
        <time>2018-06-17T09:43:31Z</time>
      </trkpt>
      <trkpt lat="43.1273000" lon="-5.8169030">
        <ele>343.2</ele>
        <time>2018-06-17T09:43:38Z</time>
      </trkpt>
      <trkpt lat="43.1267170" lon="-5.8168940">
        <ele>344.2</ele>
        <time>2018-06-17T09:43:46Z</time>
      </trkpt>
      <trkpt lat="43.1265790" lon="-5.8168710">
        <ele>344.4</ele>
        <time>2018-06-17T09:43:48Z</time>
      </trkpt>
      <trkpt lat="43.1259790" lon="-5.8167370">
        <ele>345.4</ele>
        <time>2018-06-17T09:43:57Z</time>
      </trkpt>
      <trkpt lat="43.1256430" lon="-5.8166610">
        <ele>345.6</ele>
        <time>2018-06-17T09:44:02Z</time>
      </trkpt>
      <trkpt lat="43.1250570" lon="-5.8165470">
        <ele>346.6</ele>
        <time>2018-06-17T09:44:11Z</time>
      </trkpt>
      <trkpt lat="43.1249320" lon="-5.8165320">
        <ele>346.8</ele>
        <time>2018-06-17T09:44:13Z</time>
      </trkpt>
      <trkpt lat="43.1245670" lon="-5.8165020">
        <ele>347.8</ele>
        <time>2018-06-17T09:44:19Z</time>
      </trkpt>
      <trkpt lat="43.1242910" lon="-5.8164890">
        <ele>349.0</ele>
        <time>2018-06-17T09:44:24Z</time>
      </trkpt>
      <trkpt lat="43.1241600" lon="-5.8165060">
        <ele>350.2</ele>
        <time>2018-06-17T09:44:27Z</time>
      </trkpt>
      <trkpt lat="43.1241210" lon="-5.8165170">
        <ele>350.6</ele>
        <time>2018-06-17T09:44:28Z</time>
      </trkpt>
      <trkpt lat="43.1240410" lon="-5.8165500">
        <ele>351.4</ele>
        <time>2018-06-17T09:44:30Z</time>
      </trkpt>
      <trkpt lat="43.1240030" lon="-5.8165730">
        <ele>351.8</ele>
        <time>2018-06-17T09:44:31Z</time>
      </trkpt>
      <trkpt lat="43.1239340" lon="-5.8166260">
        <ele>352.8</ele>
        <time>2018-06-17T09:44:33Z</time>
      </trkpt>
      <trkpt lat="43.1238430" lon="-5.8167230">
        <ele>353.8</ele>
        <time>2018-06-17T09:44:36Z</time>
      </trkpt>
      <trkpt lat="43.1238120" lon="-5.8167570">
        <ele>354.0</ele>
        <time>2018-06-17T09:44:37Z</time>
      </trkpt>
      <trkpt lat="43.1237100" lon="-5.8168460">
        <ele>354.8</ele>
        <time>2018-06-17T09:44:40Z</time>
      </trkpt>
      <trkpt lat="43.1236790" lon="-5.8168760">
        <ele>355.2</ele>
        <time>2018-06-17T09:44:41Z</time>
      </trkpt>
      <trkpt lat="43.1234730" lon="-5.8170540">
        <ele>356.2</ele>
        <time>2018-06-17T09:44:47Z</time>
      </trkpt>
      <trkpt lat="43.1232850" lon="-5.8171740">
        <ele>357.2</ele>
        <time>2018-06-17T09:44:52Z</time>
      </trkpt>
      <trkpt lat="43.1231070" lon="-5.8173100">
        <ele>358.0</ele>
        <time>2018-06-17T09:44:57Z</time>
      </trkpt>
      <trkpt lat="43.1230450" lon="-5.8173660">
        <ele>358.6</ele>
        <time>2018-06-17T09:44:59Z</time>
      </trkpt>
      <trkpt lat="43.1228930" lon="-5.8175030">
        <ele>359.8</ele>
        <time>2018-06-17T09:45:04Z</time>
      </trkpt>
      <trkpt lat="43.1227270" lon="-5.8175460">
        <ele>360.6</ele>
        <time>2018-06-17T09:45:08Z</time>
      </trkpt>
      <trkpt lat="43.1223300" lon="-5.8175730">
        <ele>361.6</ele>
        <time>2018-06-17T09:45:16Z</time>
      </trkpt>
      <trkpt lat="43.1217840" lon="-5.8175750">
        <ele>362.6</ele>
        <time>2018-06-17T09:45:26Z</time>
      </trkpt>
      <trkpt lat="43.1217290" lon="-5.8175700">
        <ele>362.8</ele>
        <time>2018-06-17T09:45:27Z</time>
      </trkpt>
      <trkpt lat="43.1213790" lon="-5.8175130">
        <ele>364.0</ele>
        <time>2018-06-17T09:45:34Z</time>
      </trkpt>
      <trkpt lat="43.1211250" lon="-5.8174580">
        <ele>365.2</ele>
        <time>2018-06-17T09:45:39Z</time>
      </trkpt>
      <trkpt lat="43.1207920" lon="-5.8173630">
        <ele>365.0</ele>
        <time>2018-06-17T09:45:45Z</time>
      </trkpt>
      <trkpt lat="43.1205690" lon="-5.8172730">
        <ele>365.0</ele>
        <time>2018-06-17T09:45:49Z</time>
      </trkpt>
      <trkpt lat="43.1201550" lon="-5.8171220">
        <ele>366.4</ele>
        <time>2018-06-17T09:45:57Z</time>
      </trkpt>
      <trkpt lat="43.1199400" lon="-5.8170460">
        <ele>367.6</ele>
        <time>2018-06-17T09:46:01Z</time>
      </trkpt>
      <trkpt lat="43.1195300" lon="-5.8169540">
        <ele>367.4</ele>
        <time>2018-06-17T09:46:08Z</time>
      </trkpt>
      <trkpt lat="43.1191440" lon="-5.8168690">
        <ele>366.8</ele>
        <time>2018-06-17T09:46:14Z</time>
      </trkpt>
      <trkpt lat="43.1189490" lon="-5.8168460">
        <ele>366.6</ele>
        <time>2018-06-17T09:46:17Z</time>
      </trkpt>
      <trkpt lat="43.1188070" lon="-5.8168600">
        <ele>366.6</ele>
        <time>2018-06-17T09:46:19Z</time>
      </trkpt>
      <trkpt lat="43.1185110" lon="-5.8169540">
        <ele>366.0</ele>
        <time>2018-06-17T09:46:23Z</time>
      </trkpt>
      <trkpt lat="43.1183540" lon="-5.8170130">
        <ele>365.2</ele>
        <time>2018-06-17T09:46:25Z</time>
      </trkpt>
      <trkpt lat="43.1181030" lon="-5.8171400">
        <ele>364.0</ele>
        <time>2018-06-17T09:46:28Z</time>
      </trkpt>
      <trkpt lat="43.1179200" lon="-5.8172690">
        <ele>362.6</ele>
        <time>2018-06-17T09:46:30Z</time>
      </trkpt>
      <trkpt lat="43.1177340" lon="-5.8174500">
        <ele>361.2</ele>
        <time>2018-06-17T09:46:32Z</time>
      </trkpt>
      <trkpt lat="43.1175440" lon="-5.8176420">
        <ele>360.4</ele>
        <time>2018-06-17T09:46:34Z</time>
      </trkpt>
      <trkpt lat="43.1174470" lon="-5.8177330">
        <ele>359.8</ele>
        <time>2018-06-17T09:46:35Z</time>
      </trkpt>
      <trkpt lat="43.1172560" lon="-5.8179180">
        <ele>359.0</ele>
        <time>2018-06-17T09:46:37Z</time>
      </trkpt>
      <trkpt lat="43.1171610" lon="-5.8180110">
        <ele>358.6</ele>
        <time>2018-06-17T09:46:38Z</time>
      </trkpt>
      <trkpt lat="43.1168720" lon="-5.8182700">
        <ele>358.2</ele>
        <time>2018-06-17T09:46:41Z</time>
      </trkpt>
      <trkpt lat="43.1164690" lon="-5.8185250">
        <ele>358.6</ele>
        <time>2018-06-17T09:46:45Z</time>
      </trkpt>
      <trkpt lat="43.1162760" lon="-5.8186170">
        <ele>359.8</ele>
        <time>2018-06-17T09:46:47Z</time>
      </trkpt>
      <trkpt lat="43.1160070" lon="-5.8186850">
        <ele>362.0</ele>
        <time>2018-06-17T09:46:50Z</time>
      </trkpt>
      <trkpt lat="43.1157460" lon="-5.8186960">
        <ele>363.2</ele>
        <time>2018-06-17T09:46:53Z</time>
      </trkpt>
      <trkpt lat="43.1152040" lon="-5.8186830">
        <ele>363.2</ele>
        <time>2018-06-17T09:46:59Z</time>
      </trkpt>
      <trkpt lat="43.1147500" lon="-5.8186770">
        <ele>363.4</ele>
        <time>2018-06-17T09:47:04Z</time>
      </trkpt>
      <trkpt lat="43.1141610" lon="-5.8189490">
        <ele>363.8</ele>
        <time>2018-06-17T09:47:11Z</time>
      </trkpt>
      <trkpt lat="43.1138620" lon="-5.8191430">
        <ele>364.4</ele>
        <time>2018-06-17T09:47:15Z</time>
      </trkpt>
      <trkpt lat="43.1136460" lon="-5.8192700">
        <ele>365.2</ele>
        <time>2018-06-17T09:47:18Z</time>
      </trkpt>
      <trkpt lat="43.1133720" lon="-5.8194000">
        <ele>366.0</ele>
        <time>2018-06-17T09:47:22Z</time>
      </trkpt>
      <trkpt lat="43.1133060" lon="-5.8194240">
        <ele>366.6</ele>
        <time>2018-06-17T09:47:23Z</time>
      </trkpt>
      <trkpt lat="43.1131160" lon="-5.8194900">
        <ele>367.6</ele>
        <time>2018-06-17T09:47:26Z</time>
      </trkpt>
      <trkpt lat="43.1128610" lon="-5.8195200">
        <ele>368.8</ele>
        <time>2018-06-17T09:47:30Z</time>
      </trkpt>
      <trkpt lat="43.1126790" lon="-5.8195460">
        <ele>370.0</ele>
        <time>2018-06-17T09:47:33Z</time>
      </trkpt>
      <trkpt lat="43.1125160" lon="-5.8195760">
        <ele>371.4</ele>
        <time>2018-06-17T09:47:36Z</time>
      </trkpt>
      <trkpt lat="43.1119350" lon="-5.8196280">
        <ele>370.2</ele>
        <time>2018-06-17T09:47:45Z</time>
      </trkpt>
      <trkpt lat="43.1116870" lon="-5.8195990">
        <ele>369.0</ele>
        <time>2018-06-17T09:47:48Z</time>
      </trkpt>
      <trkpt lat="43.1114250" lon="-5.8195280">
        <ele>367.8</ele>
        <time>2018-06-17T09:47:51Z</time>
      </trkpt>
      <trkpt lat="43.1110830" lon="-5.8194050">
        <ele>367.0</ele>
        <time>2018-06-17T09:47:55Z</time>
      </trkpt>
      <trkpt lat="43.1105470" lon="-5.8191900">
        <ele>367.2</ele>
        <time>2018-06-17T09:48:02Z</time>
      </trkpt>
      <trkpt lat="43.1103590" lon="-5.8191050">
        <ele>368.4</ele>
        <time>2018-06-17T09:48:05Z</time>
      </trkpt>
      <trkpt lat="43.1102340" lon="-5.8190390">
        <ele>368.8</ele>
        <time>2018-06-17T09:48:07Z</time>
      </trkpt>
      <trkpt lat="43.1099850" lon="-5.8188670">
        <ele>368.8</ele>
        <time>2018-06-17T09:48:12Z</time>
      </trkpt>
      <trkpt lat="43.1097280" lon="-5.8188020">
        <ele>368.8</ele>
        <time>2018-06-17T09:48:16Z</time>
      </trkpt>
      <trkpt lat="43.1096050" lon="-5.8187210">
        <ele>369.2</ele>
        <time>2018-06-17T09:48:18Z</time>
      </trkpt>
      <trkpt lat="43.1093380" lon="-5.8186930">
        <ele>370.4</ele>
        <time>2018-06-17T09:48:22Z</time>
      </trkpt>
      <trkpt lat="43.1089760" lon="-5.8187610">
        <ele>370.6</ele>
        <time>2018-06-17T09:48:27Z</time>
      </trkpt>
      <trkpt lat="43.1089030" lon="-5.8187920">
        <ele>370.6</ele>
        <time>2018-06-17T09:48:28Z</time>
      </trkpt>
      <trkpt lat="43.1086400" lon="-5.8189700">
        <ele>371.4</ele>
        <time>2018-06-17T09:48:32Z</time>
      </trkpt>
      <trkpt lat="43.1082030" lon="-5.8192930">
        <ele>372.4</ele>
        <time>2018-06-17T09:48:40Z</time>
      </trkpt>
      <trkpt lat="43.1079450" lon="-5.8195260">
        <ele>372.8</ele>
        <time>2018-06-17T09:48:45Z</time>
      </trkpt>
      <trkpt lat="43.1075500" lon="-5.8198690">
        <ele>373.6</ele>
        <time>2018-06-17T09:48:53Z</time>
      </trkpt>
      <trkpt lat="43.1072860" lon="-5.8200680">
        <ele>374.6</ele>
        <time>2018-06-17T09:48:59Z</time>
      </trkpt>
      <trkpt lat="43.1071090" lon="-5.8201820">
        <ele>376.0</ele>
        <time>2018-06-17T09:49:03Z</time>
      </trkpt>
      <trkpt lat="43.1068060" lon="-5.8202840">
        <ele>377.0</ele>
        <time>2018-06-17T09:49:09Z</time>
      </trkpt>
      <trkpt lat="43.1062670" lon="-5.8205530">
        <ele>377.4</ele>
        <time>2018-06-17T09:49:19Z</time>
      </trkpt>
      <trkpt lat="43.1061310" lon="-5.8204900">
        <ele>377.4</ele>
        <time>2018-06-17T09:49:22Z</time>
      </trkpt>
      <trkpt lat="43.1061040" lon="-5.8202830">
        <ele>377.6</ele>
        <time>2018-06-17T09:49:25Z</time>
      </trkpt>
      <trkpt lat="43.1060760" lon="-5.8201310">
        <ele>377.6</ele>
        <time>2018-06-17T09:49:27Z</time>
      </trkpt>
      <trkpt lat="43.1059820" lon="-5.8198610">
        <ele>377.8</ele>
        <time>2018-06-17T09:49:31Z</time>
      </trkpt>
      <trkpt lat="43.1059120" lon="-5.8196870">
        <ele>378.0</ele>
        <time>2018-06-17T09:49:34Z</time>
      </trkpt>
      <trkpt lat="43.1056230" lon="-5.8190610">
        <ele>379.0</ele>
        <time>2018-06-17T09:49:45Z</time>
      </trkpt>
      <trkpt lat="43.1055010" lon="-5.8188580">
        <ele>379.0</ele>
        <time>2018-06-17T09:49:50Z</time>
      </trkpt>
      <trkpt lat="43.1053510" lon="-5.8189110">
        <ele>379.8</ele>
        <time>2018-06-17T09:49:54Z</time>
      </trkpt>
      <trkpt lat="43.1052840" lon="-5.8189710">
        <ele>380.0</ele>
        <time>2018-06-17T09:49:56Z</time>
      </trkpt>
      <trkpt lat="43.1052530" lon="-5.8189910">
        <ele>380.2</ele>
        <time>2018-06-17T09:49:57Z</time>
      </trkpt>
      <trkpt lat="43.1047000" lon="-5.8192260">
        <ele>379.8</ele>
        <time>2018-06-17T09:50:09Z</time>
      </trkpt>
      <trkpt lat="43.1041520" lon="-5.8192120">
        <ele>379.8</ele>
        <time>2018-06-17T09:50:19Z</time>
      </trkpt>
      <trkpt lat="43.1037460" lon="-5.8191470">
        <ele>379.6</ele>
        <time>2018-06-17T09:50:26Z</time>
      </trkpt>
      <trkpt lat="43.1032310" lon="-5.8192590">
        <ele>379.8</ele>
        <time>2018-06-17T09:50:35Z</time>
      </trkpt>
      <trkpt lat="43.1027330" lon="-5.8196210">
        <ele>379.8</ele>
        <time>2018-06-17T09:50:44Z</time>
      </trkpt>
      <trkpt lat="43.1022140" lon="-5.8200030">
        <ele>379.8</ele>
        <time>2018-06-17T09:50:54Z</time>
      </trkpt>
      <trkpt lat="43.1018850" lon="-5.8202840">
        <ele>381.4</ele>
        <time>2018-06-17T09:51:01Z</time>
      </trkpt>
      <trkpt lat="43.1016360" lon="-5.8204970">
        <ele>382.4</ele>
        <time>2018-06-17T09:51:07Z</time>
      </trkpt>
      <trkpt lat="43.1014050" lon="-5.8206960">
        <ele>383.6</ele>
        <time>2018-06-17T09:51:13Z</time>
      </trkpt>
      <trkpt lat="43.1013270" lon="-5.8207570">
        <ele>384.0</ele>
        <time>2018-06-17T09:51:15Z</time>
      </trkpt>
      <trkpt lat="43.1012410" lon="-5.8208020">
        <ele>384.4</ele>
        <time>2018-06-17T09:51:17Z</time>
      </trkpt>
      <trkpt lat="43.1011940" lon="-5.8208150">
        <ele>384.6</ele>
        <time>2018-06-17T09:51:18Z</time>
      </trkpt>
      <trkpt lat="43.1009470" lon="-5.8208440">
        <ele>385.6</ele>
        <time>2018-06-17T09:51:23Z</time>
      </trkpt>
      <trkpt lat="43.1007020" lon="-5.8208630">
        <ele>386.6</ele>
        <time>2018-06-17T09:51:28Z</time>
      </trkpt>
      <trkpt lat="43.1006540" lon="-5.8208660">
        <ele>386.6</ele>
        <time>2018-06-17T09:51:29Z</time>
      </trkpt>
      <trkpt lat="43.1004730" lon="-5.8208720">
        <ele>387.6</ele>
        <time>2018-06-17T09:51:33Z</time>
      </trkpt>
      <trkpt lat="43.1004270" lon="-5.8208760">
        <ele>387.8</ele>
        <time>2018-06-17T09:51:34Z</time>
      </trkpt>
      <trkpt lat="43.1001550" lon="-5.8209150">
        <ele>388.8</ele>
        <time>2018-06-17T09:51:40Z</time>
      </trkpt>
      <trkpt lat="43.0997520" lon="-5.8210210">
        <ele>390.0</ele>
        <time>2018-06-17T09:51:49Z</time>
      </trkpt>
      <trkpt lat="43.0997120" lon="-5.8210510">
        <ele>390.0</ele>
        <time>2018-06-17T09:51:50Z</time>
      </trkpt>
      <trkpt lat="43.0995770" lon="-5.8212020">
        <ele>390.6</ele>
        <time>2018-06-17T09:51:54Z</time>
      </trkpt>
      <trkpt lat="43.0994880" lon="-5.8213350">
        <ele>391.0</ele>
        <time>2018-06-17T09:51:57Z</time>
      </trkpt>
      <trkpt lat="43.0994600" lon="-5.8213830">
        <ele>391.2</ele>
        <time>2018-06-17T09:51:58Z</time>
      </trkpt>
      <trkpt lat="43.0993800" lon="-5.8216030">
        <ele>392.0</ele>
        <time>2018-06-17T09:52:02Z</time>
      </trkpt>
      <trkpt lat="43.0993650" lon="-5.8216610">
        <ele>392.2</ele>
        <time>2018-06-17T09:52:03Z</time>
      </trkpt>
      <trkpt lat="43.0993050" lon="-5.8220020">
        <ele>393.4</ele>
        <time>2018-06-17T09:52:09Z</time>
      </trkpt>
      <trkpt lat="43.0992680" lon="-5.8222120">
        <ele>394.4</ele>
        <time>2018-06-17T09:52:13Z</time>
      </trkpt>
      <trkpt lat="43.0992050" lon="-5.8224580">
        <ele>395.6</ele>
        <time>2018-06-17T09:52:18Z</time>
      </trkpt>
      <trkpt lat="43.0990530" lon="-5.8227030">
        <ele>396.6</ele>
        <time>2018-06-17T09:52:24Z</time>
      </trkpt>
      <trkpt lat="43.0988710" lon="-5.8229060">
        <ele>397.8</ele>
        <time>2018-06-17T09:52:30Z</time>
      </trkpt>
      <trkpt lat="43.0986950" lon="-5.8230790">
        <ele>399.0</ele>
        <time>2018-06-17T09:52:36Z</time>
      </trkpt>
      <trkpt lat="43.0985120" lon="-5.8232380">
        <ele>400.2</ele>
        <time>2018-06-17T09:52:42Z</time>
      </trkpt>
      <trkpt lat="43.0983870" lon="-5.8233250">
        <ele>401.2</ele>
        <time>2018-06-17T09:52:46Z</time>
      </trkpt>
      <trkpt lat="43.0981600" lon="-5.8234720">
        <ele>402.4</ele>
        <time>2018-06-17T09:52:53Z</time>
      </trkpt>
      <trkpt lat="43.0979490" lon="-5.8236060">
        <ele>403.4</ele>
        <time>2018-06-17T09:52:59Z</time>
      </trkpt>
      <trkpt lat="43.0977980" lon="-5.8236850">
        <ele>404.2</ele>
        <time>2018-06-17T09:53:03Z</time>
      </trkpt>
      <trkpt lat="43.0976370" lon="-5.8237390">
        <ele>404.4</ele>
        <time>2018-06-17T09:53:07Z</time>
      </trkpt>
      <trkpt lat="43.0973960" lon="-5.8237970">
        <ele>405.4</ele>
        <time>2018-06-17T09:53:13Z</time>
      </trkpt>
      <trkpt lat="43.0972670" lon="-5.8238200">
        <ele>405.6</ele>
        <time>2018-06-17T09:53:16Z</time>
      </trkpt>
      <trkpt lat="43.0969990" lon="-5.8238900">
        <ele>405.8</ele>
        <time>2018-06-17T09:53:22Z</time>
      </trkpt>
      <trkpt lat="43.0968060" lon="-5.8239410">
        <ele>405.6</ele>
        <time>2018-06-17T09:53:26Z</time>
      </trkpt>
      <trkpt lat="43.0966570" lon="-5.8239320">
        <ele>405.6</ele>
        <time>2018-06-17T09:53:29Z</time>
      </trkpt>
      <trkpt lat="43.0966070" lon="-5.8239280">
        <ele>405.8</ele>
        <time>2018-06-17T09:53:30Z</time>
      </trkpt>
      <trkpt lat="43.0965570" lon="-5.8239160">
        <ele>405.8</ele>
        <time>2018-06-17T09:53:31Z</time>
      </trkpt>
      <trkpt lat="43.0964250" lon="-5.8238660">
        <ele>406.0</ele>
        <time>2018-06-17T09:53:34Z</time>
      </trkpt>
      <trkpt lat="43.0961150" lon="-5.8237830">
        <ele>406.4</ele>
        <time>2018-06-17T09:53:41Z</time>
      </trkpt>
      <trkpt lat="43.0959640" lon="-5.8237690">
        <ele>406.4</ele>
        <time>2018-06-17T09:53:44Z</time>
      </trkpt>
      <trkpt lat="43.0957780" lon="-5.8237820">
        <ele>406.2</ele>
        <time>2018-06-17T09:53:48Z</time>
      </trkpt>
      <trkpt lat="43.0955330" lon="-5.8237870">
        <ele>406.2</ele>
        <time>2018-06-17T09:53:53Z</time>
      </trkpt>
      <trkpt lat="43.0949890" lon="-5.8238690">
        <ele>406.4</ele>
        <time>2018-06-17T09:54:04Z</time>
      </trkpt>
      <trkpt lat="43.0947570" lon="-5.8239390">
        <ele>406.8</ele>
        <time>2018-06-17T09:54:09Z</time>
      </trkpt>
      <trkpt lat="43.0945300" lon="-5.8240050">
        <ele>407.2</ele>
        <time>2018-06-17T09:54:14Z</time>
      </trkpt>
      <trkpt lat="43.0944900" lon="-5.8240220">
        <ele>407.2</ele>
        <time>2018-06-17T09:54:15Z</time>
      </trkpt>
      <trkpt lat="43.0939980" lon="-5.8242630">
        <ele>408.0</ele>
        <time>2018-06-17T09:54:26Z</time>
      </trkpt>
      <trkpt lat="43.0939580" lon="-5.8242930">
        <ele>408.2</ele>
        <time>2018-06-17T09:54:27Z</time>
      </trkpt>
      <trkpt lat="43.0939180" lon="-5.8243200">
        <ele>408.2</ele>
        <time>2018-06-17T09:54:28Z</time>
      </trkpt>
      <trkpt lat="43.0937620" lon="-5.8243910">
        <ele>409.2</ele>
        <time>2018-06-17T09:54:32Z</time>
      </trkpt>
      <trkpt lat="43.0935610" lon="-5.8244540">
        <ele>410.4</ele>
        <time>2018-06-17T09:54:37Z</time>
      </trkpt>
      <trkpt lat="43.0935160" lon="-5.8244540">
        <ele>410.6</ele>
        <time>2018-06-17T09:54:38Z</time>
      </trkpt>
      <trkpt lat="43.0934710" lon="-5.8244460">
        <ele>410.6</ele>
        <time>2018-06-17T09:54:39Z</time>
      </trkpt>
      <trkpt lat="43.0932820" lon="-5.8243650">
        <ele>410.8</ele>
        <time>2018-06-17T09:54:43Z</time>
      </trkpt>
      <trkpt lat="43.0930750" lon="-5.8242980">
        <ele>410.6</ele>
        <time>2018-06-17T09:54:47Z</time>
      </trkpt>
      <trkpt lat="43.0925700" lon="-5.8243450">
        <ele>411.8</ele>
        <time>2018-06-17T09:54:57Z</time>
      </trkpt>
      <trkpt lat="43.0923180" lon="-5.8244190">
        <ele>412.4</ele>
        <time>2018-06-17T09:55:02Z</time>
      </trkpt>
      <trkpt lat="43.0921140" lon="-5.8245000">
        <ele>412.8</ele>
        <time>2018-06-17T09:55:06Z</time>
      </trkpt>
      <trkpt lat="43.0918470" lon="-5.8245810">
        <ele>413.2</ele>
        <time>2018-06-17T09:55:11Z</time>
      </trkpt>
      <trkpt lat="43.0914400" lon="-5.8248390">
        <ele>413.8</ele>
        <time>2018-06-17T09:55:19Z</time>
      </trkpt>
      <trkpt lat="43.0911150" lon="-5.8252570">
        <ele>414.6</ele>
        <time>2018-06-17T09:55:27Z</time>
      </trkpt>
      <trkpt lat="43.0910150" lon="-5.8253330">
        <ele>415.2</ele>
        <time>2018-06-17T09:55:29Z</time>
      </trkpt>
      <trkpt lat="43.0904760" lon="-5.8255530">
        <ele>415.8</ele>
        <time>2018-06-17T09:55:39Z</time>
      </trkpt>
      <trkpt lat="43.0901320" lon="-5.8256840">
        <ele>415.8</ele>
        <time>2018-06-17T09:55:45Z</time>
      </trkpt>
      <trkpt lat="43.0899540" lon="-5.8257500">
        <ele>416.0</ele>
        <time>2018-06-17T09:55:48Z</time>
      </trkpt>
      <trkpt lat="43.0895110" lon="-5.8258150">
        <ele>416.2</ele>
        <time>2018-06-17T09:55:55Z</time>
      </trkpt>
      <trkpt lat="43.0891560" lon="-5.8258140">
        <ele>416.6</ele>
        <time>2018-06-17T09:56:01Z</time>
      </trkpt>
      <trkpt lat="43.0887910" lon="-5.8257310">
        <ele>416.6</ele>
        <time>2018-06-17T09:56:07Z</time>
      </trkpt>
      <trkpt lat="43.0886620" lon="-5.8257040">
        <ele>416.4</ele>
        <time>2018-06-17T09:56:09Z</time>
      </trkpt>
      <trkpt lat="43.0882220" lon="-5.8259200">
        <ele>414.6</ele>
        <time>2018-06-17T09:56:16Z</time>
      </trkpt>
      <trkpt lat="43.0881190" lon="-5.8260690">
        <ele>413.4</ele>
        <time>2018-06-17T09:56:18Z</time>
      </trkpt>
      <trkpt lat="43.0879810" lon="-5.8263130">
        <ele>413.0</ele>
        <time>2018-06-17T09:56:21Z</time>
      </trkpt>
      <trkpt lat="43.0879330" lon="-5.8263900">
        <ele>413.0</ele>
        <time>2018-06-17T09:56:22Z</time>
      </trkpt>
      <trkpt lat="43.0878190" lon="-5.8265330">
        <ele>412.6</ele>
        <time>2018-06-17T09:56:24Z</time>
      </trkpt>
      <trkpt lat="43.0877010" lon="-5.8266680">
        <ele>412.4</ele>
        <time>2018-06-17T09:56:26Z</time>
      </trkpt>
      <trkpt lat="43.0872390" lon="-5.8270880">
        <ele>411.8</ele>
        <time>2018-06-17T09:56:34Z</time>
      </trkpt>
      <trkpt lat="43.0868930" lon="-5.8272960">
        <ele>413.4</ele>
        <time>2018-06-17T09:56:40Z</time>
      </trkpt>
      <trkpt lat="43.0866140" lon="-5.8274230">
        <ele>414.0</ele>
        <time>2018-06-17T09:56:45Z</time>
      </trkpt>
      <trkpt lat="43.0864550" lon="-5.8275060">
        <ele>414.4</ele>
        <time>2018-06-17T09:56:48Z</time>
      </trkpt>
      <trkpt lat="43.0861450" lon="-5.8276650">
        <ele>415.2</ele>
        <time>2018-06-17T09:56:54Z</time>
      </trkpt>
      <trkpt lat="43.0860910" lon="-5.8276890">
        <ele>415.6</ele>
        <time>2018-06-17T09:56:55Z</time>
      </trkpt>
      <trkpt lat="43.0859240" lon="-5.8277690">
        <ele>415.8</ele>
        <time>2018-06-17T09:56:58Z</time>
      </trkpt>
      <trkpt lat="43.0855260" lon="-5.8279540">
        <ele>416.4</ele>
        <time>2018-06-17T09:57:05Z</time>
      </trkpt>
      <trkpt lat="43.0853520" lon="-5.8280380">
        <ele>416.6</ele>
        <time>2018-06-17T09:57:08Z</time>
      </trkpt>
      <trkpt lat="43.0848350" lon="-5.8282830">
        <ele>417.2</ele>
        <time>2018-06-17T09:57:17Z</time>
      </trkpt>
      <trkpt lat="43.0846080" lon="-5.8283900">
        <ele>417.8</ele>
        <time>2018-06-17T09:57:21Z</time>
      </trkpt>
      <trkpt lat="43.0842680" lon="-5.8285660">
        <ele>418.8</ele>
        <time>2018-06-17T09:57:27Z</time>
      </trkpt>
      <trkpt lat="43.0839880" lon="-5.8287030">
        <ele>420.0</ele>
        <time>2018-06-17T09:57:32Z</time>
      </trkpt>
      <trkpt lat="43.0835520" lon="-5.8289180">
        <ele>421.0</ele>
        <time>2018-06-17T09:57:40Z</time>
      </trkpt>
      <trkpt lat="43.0831280" lon="-5.8291160">
        <ele>422.2</ele>
        <time>2018-06-17T09:57:48Z</time>
      </trkpt>
      <trkpt lat="43.0828250" lon="-5.8292650">
        <ele>423.2</ele>
        <time>2018-06-17T09:57:54Z</time>
      </trkpt>
      <trkpt lat="43.0826100" lon="-5.8293790">
        <ele>424.2</ele>
        <time>2018-06-17T09:57:59Z</time>
      </trkpt>
      <trkpt lat="43.0823480" lon="-5.8295090">
        <ele>425.0</ele>
        <time>2018-06-17T09:58:06Z</time>
      </trkpt>
      <trkpt lat="43.0822280" lon="-5.8295520">
        <ele>425.2</ele>
        <time>2018-06-17T09:58:09Z</time>
      </trkpt>
      <trkpt lat="43.0820580" lon="-5.8295910">
        <ele>426.4</ele>
        <time>2018-06-17T09:58:13Z</time>
      </trkpt>
      <trkpt lat="43.0818450" lon="-5.8296250">
        <ele>427.4</ele>
        <time>2018-06-17T09:58:18Z</time>
      </trkpt>
      <trkpt lat="43.0817220" lon="-5.8296560">
        <ele>427.6</ele>
        <time>2018-06-17T09:58:21Z</time>
      </trkpt>
      <trkpt lat="43.0814950" lon="-5.8297340">
        <ele>428.6</ele>
        <time>2018-06-17T09:58:27Z</time>
      </trkpt>
      <trkpt lat="43.0812330" lon="-5.8297820">
        <ele>430.0</ele>
        <time>2018-06-17T09:58:34Z</time>
      </trkpt>
      <trkpt lat="43.0809350" lon="-5.8298240">
        <ele>431.0</ele>
        <time>2018-06-17T09:58:41Z</time>
      </trkpt>
      <trkpt lat="43.0805830" lon="-5.8298580">
        <ele>432.0</ele>
        <time>2018-06-17T09:58:49Z</time>
      </trkpt>
      <trkpt lat="43.0803600" lon="-5.8299170">
        <ele>432.8</ele>
        <time>2018-06-17T09:58:54Z</time>
      </trkpt>
      <trkpt lat="43.0802750" lon="-5.8299620">
        <ele>433.0</ele>
        <time>2018-06-17T09:58:56Z</time>
      </trkpt>
      <trkpt lat="43.0799690" lon="-5.8301500">
        <ele>433.2</ele>
        <time>2018-06-17T09:59:03Z</time>
      </trkpt>
      <trkpt lat="43.0799340" lon="-5.8301900">
        <ele>433.0</ele>
        <time>2018-06-17T09:59:04Z</time>
      </trkpt>
      <trkpt lat="43.0797950" lon="-5.8302940">
        <ele>432.6</ele>
        <time>2018-06-17T09:59:07Z</time>
      </trkpt>
      <trkpt lat="43.0796880" lon="-5.8303330">
        <ele>432.4</ele>
        <time>2018-06-17T09:59:09Z</time>
      </trkpt>
      <trkpt lat="43.0795660" lon="-5.8303420">
        <ele>432.0</ele>
        <time>2018-06-17T09:59:11Z</time>
      </trkpt>
      <trkpt lat="43.0795020" lon="-5.8303370">
        <ele>431.8</ele>
        <time>2018-06-17T09:59:12Z</time>
      </trkpt>
      <trkpt lat="43.0793810" lon="-5.8303350">
        <ele>431.2</ele>
        <time>2018-06-17T09:59:14Z</time>
      </trkpt>
      <trkpt lat="43.0793160" lon="-5.8303270">
        <ele>430.8</ele>
        <time>2018-06-17T09:59:15Z</time>
      </trkpt>
      <trkpt lat="43.0789310" lon="-5.8302080">
        <ele>429.6</ele>
        <time>2018-06-17T09:59:20Z</time>
      </trkpt>
      <trkpt lat="43.0786960" lon="-5.8301680">
        <ele>428.6</ele>
        <time>2018-06-17T09:59:23Z</time>
      </trkpt>
      <trkpt lat="43.0786220" lon="-5.8301700">
        <ele>428.6</ele>
        <time>2018-06-17T09:59:24Z</time>
      </trkpt>
      <trkpt lat="43.0782890" lon="-5.8302010">
        <ele>428.6</ele>
        <time>2018-06-17T09:59:29Z</time>
      </trkpt>
      <trkpt lat="43.0782200" lon="-5.8302170">
        <ele>428.6</ele>
        <time>2018-06-17T09:59:30Z</time>
      </trkpt>
      <trkpt lat="43.0781550" lon="-5.8302310">
        <ele>428.8</ele>
        <time>2018-06-17T09:59:31Z</time>
      </trkpt>
      <trkpt lat="43.0780280" lon="-5.8302670">
        <ele>428.8</ele>
        <time>2018-06-17T09:59:33Z</time>
      </trkpt>
      <trkpt lat="43.0778000" lon="-5.8303870">
        <ele>429.4</ele>
        <time>2018-06-17T09:59:37Z</time>
      </trkpt>
      <trkpt lat="43.0777140" lon="-5.8304580">
        <ele>429.6</ele>
        <time>2018-06-17T09:59:39Z</time>
      </trkpt>
      <trkpt lat="43.0775890" lon="-5.8305560">
        <ele>430.2</ele>
        <time>2018-06-17T09:59:42Z</time>
      </trkpt>
      <trkpt lat="43.0775110" lon="-5.8306380">
        <ele>430.8</ele>
        <time>2018-06-17T09:59:44Z</time>
      </trkpt>
      <trkpt lat="43.0774150" lon="-5.8307820">
        <ele>431.6</ele>
        <time>2018-06-17T09:59:47Z</time>
      </trkpt>
      <trkpt lat="43.0773610" lon="-5.8308830">
        <ele>432.0</ele>
        <time>2018-06-17T09:59:49Z</time>
      </trkpt>
      <trkpt lat="43.0772830" lon="-5.8310530">
        <ele>432.4</ele>
        <time>2018-06-17T09:59:52Z</time>
      </trkpt>
      <trkpt lat="43.0771610" lon="-5.8312400">
        <ele>433.0</ele>
        <time>2018-06-17T09:59:56Z</time>
      </trkpt>
      <trkpt lat="43.0771190" lon="-5.8312780">
        <ele>433.0</ele>
        <time>2018-06-17T09:59:57Z</time>
      </trkpt>
      <trkpt lat="43.0767880" lon="-5.8313770">
        <ele>433.2</ele>
        <time>2018-06-17T10:00:03Z</time>
      </trkpt>
      <trkpt lat="43.0762330" lon="-5.8313660">
        <ele>433.8</ele>
        <time>2018-06-17T10:00:13Z</time>
      </trkpt>
      <trkpt lat="43.0761820" lon="-5.8313510">
        <ele>434.0</ele>
        <time>2018-06-17T10:00:14Z</time>
      </trkpt>
      <trkpt lat="43.0756110" lon="-5.8312010">
        <ele>435.0</ele>
        <time>2018-06-17T10:00:25Z</time>
      </trkpt>
      <trkpt lat="43.0753850" lon="-5.8311050">
        <ele>436.2</ele>
        <time>2018-06-17T10:00:30Z</time>
      </trkpt>
      <trkpt lat="43.0748640" lon="-5.8308500">
        <ele>437.0</ele>
        <time>2018-06-17T10:00:41Z</time>
      </trkpt>
      <trkpt lat="43.0748230" lon="-5.8308280">
        <ele>437.2</ele>
        <time>2018-06-17T10:00:42Z</time>
      </trkpt>
      <trkpt lat="43.0744460" lon="-5.8307370">
        <ele>438.2</ele>
        <time>2018-06-17T10:00:50Z</time>
      </trkpt>
      <trkpt lat="43.0740570" lon="-5.8307980">
        <ele>439.4</ele>
        <time>2018-06-17T10:00:57Z</time>
      </trkpt>
      <trkpt lat="43.0735160" lon="-5.8309320">
        <ele>440.2</ele>
        <time>2018-06-17T10:01:07Z</time>
      </trkpt>
      <trkpt lat="43.0734680" lon="-5.8309510">
        <ele>440.4</ele>
        <time>2018-06-17T10:01:08Z</time>
      </trkpt>
      <trkpt lat="43.0731620" lon="-5.8310620">
        <ele>441.4</ele>
        <time>2018-06-17T10:01:14Z</time>
      </trkpt>
      <trkpt lat="43.0727820" lon="-5.8311500">
        <ele>442.4</ele>
        <time>2018-06-17T10:01:21Z</time>
      </trkpt>
      <trkpt lat="43.0722580" lon="-5.8310560">
        <ele>443.4</ele>
        <time>2018-06-17T10:01:31Z</time>
      </trkpt>
      <trkpt lat="43.0720600" lon="-5.8309960">
        <ele>443.8</ele>
        <time>2018-06-17T10:01:35Z</time>
      </trkpt>
      <trkpt lat="43.0719240" lon="-5.8309140">
        <ele>444.2</ele>
        <time>2018-06-17T10:01:38Z</time>
      </trkpt>
      <trkpt lat="43.0718020" lon="-5.8308210">
        <ele>444.4</ele>
        <time>2018-06-17T10:01:41Z</time>
      </trkpt>
      <trkpt lat="43.0717160" lon="-5.8307710">
        <ele>444.8</ele>
        <time>2018-06-17T10:01:43Z</time>
      </trkpt>
      <trkpt lat="43.0716200" lon="-5.8307310">
        <ele>445.2</ele>
        <time>2018-06-17T10:01:45Z</time>
      </trkpt>
      <trkpt lat="43.0714750" lon="-5.8306940">
        <ele>445.6</ele>
        <time>2018-06-17T10:01:48Z</time>
      </trkpt>
      <trkpt lat="43.0712730" lon="-5.8306190">
        <ele>446.2</ele>
        <time>2018-06-17T10:01:52Z</time>
      </trkpt>
      <trkpt lat="43.0710720" lon="-5.8305760">
        <ele>447.2</ele>
        <time>2018-06-17T10:01:56Z</time>
      </trkpt>
      <trkpt lat="43.0708370" lon="-5.8305440">
        <ele>448.4</ele>
        <time>2018-06-17T10:02:01Z</time>
      </trkpt>
      <trkpt lat="43.0705550" lon="-5.8305040">
        <ele>449.2</ele>
        <time>2018-06-17T10:02:07Z</time>
      </trkpt>
      <trkpt lat="43.0704650" lon="-5.8304950">
        <ele>449.4</ele>
        <time>2018-06-17T10:02:09Z</time>
      </trkpt>
      <trkpt lat="43.0701860" lon="-5.8304130">
        <ele>450.0</ele>
        <time>2018-06-17T10:02:15Z</time>
      </trkpt>
      <trkpt lat="43.0701390" lon="-5.8303880">
        <ele>450.2</ele>
        <time>2018-06-17T10:02:16Z</time>
      </trkpt>
      <trkpt lat="43.0698030" lon="-5.8301100">
        <ele>451.2</ele>
        <time>2018-06-17T10:02:24Z</time>
      </trkpt>
      <trkpt lat="43.0695820" lon="-5.8299490">
        <ele>451.8</ele>
        <time>2018-06-17T10:02:29Z</time>
      </trkpt>
      <trkpt lat="43.0695060" lon="-5.8299090">
        <ele>452.2</ele>
        <time>2018-06-17T10:02:31Z</time>
      </trkpt>
      <trkpt lat="43.0694600" lon="-5.8298930">
        <ele>452.2</ele>
        <time>2018-06-17T10:02:32Z</time>
      </trkpt>
      <trkpt lat="43.0691880" lon="-5.8298250">
        <ele>452.8</ele>
        <time>2018-06-17T10:02:37Z</time>
      </trkpt>
      <trkpt lat="43.0690580" lon="-5.8298490">
        <ele>453.0</ele>
        <time>2018-06-17T10:02:39Z</time>
      </trkpt>
      <trkpt lat="43.0689950" lon="-5.8298690">
        <ele>453.0</ele>
        <time>2018-06-17T10:02:40Z</time>
      </trkpt>
      <trkpt lat="43.0684170" lon="-5.8300760">
        <ele>453.4</ele>
        <time>2018-06-17T10:02:50Z</time>
      </trkpt>
      <trkpt lat="43.0682420" lon="-5.8301270">
        <ele>453.6</ele>
        <time>2018-06-17T10:02:53Z</time>
      </trkpt>
      <trkpt lat="43.0681840" lon="-5.8301260">
        <ele>453.6</ele>
        <time>2018-06-17T10:02:54Z</time>
      </trkpt>
      <trkpt lat="43.0677350" lon="-5.8300490">
        <ele>454.4</ele>
        <time>2018-06-17T10:03:02Z</time>
      </trkpt>
      <trkpt lat="43.0676790" lon="-5.8300320">
        <ele>454.4</ele>
        <time>2018-06-17T10:03:03Z</time>
      </trkpt>
      <trkpt lat="43.0673860" lon="-5.8298320">
        <ele>454.6</ele>
        <time>2018-06-17T10:03:09Z</time>
      </trkpt>
      <trkpt lat="43.0672460" lon="-5.8296820">
        <ele>454.8</ele>
        <time>2018-06-17T10:03:13Z</time>
      </trkpt>
      <trkpt lat="43.0670190" lon="-5.8295910">
        <ele>455.0</ele>
        <time>2018-06-17T10:03:17Z</time>
      </trkpt>
      <trkpt lat="43.0669540" lon="-5.8295820">
        <ele>455.2</ele>
        <time>2018-06-17T10:03:18Z</time>
      </trkpt>
      <trkpt lat="43.0667640" lon="-5.8296570">
        <ele>456.2</ele>
        <time>2018-06-17T10:03:22Z</time>
      </trkpt>
      <trkpt lat="43.0666600" lon="-5.8297610">
        <ele>457.4</ele>
        <time>2018-06-17T10:03:25Z</time>
      </trkpt>
      <trkpt lat="43.0664650" lon="-5.8298560">
        <ele>458.8</ele>
        <time>2018-06-17T10:03:29Z</time>
      </trkpt>
      <trkpt lat="43.0663010" lon="-5.8298730">
        <ele>459.0</ele>
        <time>2018-06-17T10:03:32Z</time>
      </trkpt>
      <trkpt lat="43.0661970" lon="-5.8298380">
        <ele>459.6</ele>
        <time>2018-06-17T10:03:34Z</time>
      </trkpt>
      <trkpt lat="43.0660400" lon="-5.8296040">
        <ele>460.0</ele>
        <time>2018-06-17T10:03:38Z</time>
      </trkpt>
      <trkpt lat="43.0659580" lon="-5.8295100">
        <ele>459.8</ele>
        <time>2018-06-17T10:03:40Z</time>
      </trkpt>
      <trkpt lat="43.0656960" lon="-5.8293870">
        <ele>460.0</ele>
        <time>2018-06-17T10:03:45Z</time>
      </trkpt>
      <trkpt lat="43.0656040" lon="-5.8293830">
        <ele>460.2</ele>
        <time>2018-06-17T10:03:47Z</time>
      </trkpt>
      <trkpt lat="43.0653380" lon="-5.8292870">
        <ele>461.4</ele>
        <time>2018-06-17T10:03:53Z</time>
      </trkpt>
      <trkpt lat="43.0650980" lon="-5.8292130">
        <ele>462.6</ele>
        <time>2018-06-17T10:03:58Z</time>
      </trkpt>
      <trkpt lat="43.0649330" lon="-5.8291570">
        <ele>463.4</ele>
        <time>2018-06-17T10:04:01Z</time>
      </trkpt>
      <trkpt lat="43.0646790" lon="-5.8291330">
        <ele>464.4</ele>
        <time>2018-06-17T10:04:06Z</time>
      </trkpt>
      <trkpt lat="43.0644290" lon="-5.8291680">
        <ele>465.6</ele>
        <time>2018-06-17T10:04:11Z</time>
      </trkpt>
      <trkpt lat="43.0643810" lon="-5.8291810">
        <ele>465.8</ele>
        <time>2018-06-17T10:04:12Z</time>
      </trkpt>
      <trkpt lat="43.0641450" lon="-5.8293370">
        <ele>466.2</ele>
        <time>2018-06-17T10:04:17Z</time>
      </trkpt>
      <trkpt lat="43.0640570" lon="-5.8294070">
        <ele>466.4</ele>
        <time>2018-06-17T10:04:19Z</time>
      </trkpt>
      <trkpt lat="43.0635810" lon="-5.8296550">
        <ele>466.6</ele>
        <time>2018-06-17T10:04:29Z</time>
      </trkpt>
      <trkpt lat="43.0632950" lon="-5.8296570">
        <ele>466.6</ele>
        <time>2018-06-17T10:04:34Z</time>
      </trkpt>
      <trkpt lat="43.0631490" lon="-5.8294410">
        <ele>466.4</ele>
        <time>2018-06-17T10:04:37Z</time>
      </trkpt>
      <trkpt lat="43.0630950" lon="-5.8291390">
        <ele>466.4</ele>
        <time>2018-06-17T10:04:41Z</time>
      </trkpt>
      <trkpt lat="43.0629690" lon="-5.8287640">
        <ele>466.2</ele>
        <time>2018-06-17T10:04:46Z</time>
      </trkpt>
      <trkpt lat="43.0628320" lon="-5.8286270">
        <ele>466.6</ele>
        <time>2018-06-17T10:04:49Z</time>
      </trkpt>
      <trkpt lat="43.0627320" lon="-5.8285780">
        <ele>467.0</ele>
        <time>2018-06-17T10:04:51Z</time>
      </trkpt>
      <trkpt lat="43.0626890" lon="-5.8285620">
        <ele>467.0</ele>
        <time>2018-06-17T10:04:52Z</time>
      </trkpt>
      <trkpt lat="43.0626480" lon="-5.8285480">
        <ele>467.2</ele>
        <time>2018-06-17T10:04:53Z</time>
      </trkpt>
      <trkpt lat="43.0624530" lon="-5.8285050">
        <ele>468.0</ele>
        <time>2018-06-17T10:04:57Z</time>
      </trkpt>
      <trkpt lat="43.0623100" lon="-5.8284830">
        <ele>469.0</ele>
        <time>2018-06-17T10:05:00Z</time>
      </trkpt>
      <trkpt lat="43.0619230" lon="-5.8284800">
        <ele>469.8</ele>
        <time>2018-06-17T10:05:09Z</time>
      </trkpt>
      <trkpt lat="43.0617090" lon="-5.8284460">
        <ele>471.0</ele>
        <time>2018-06-17T10:05:14Z</time>
      </trkpt>
      <trkpt lat="43.0616170" lon="-5.8284490">
        <ele>471.4</ele>
        <time>2018-06-17T10:05:16Z</time>
      </trkpt>
      <trkpt lat="43.0614510" lon="-5.8285680">
        <ele>472.0</ele>
        <time>2018-06-17T10:05:20Z</time>
      </trkpt>
      <trkpt lat="43.0614160" lon="-5.8286100">
        <ele>472.2</ele>
        <time>2018-06-17T10:05:21Z</time>
      </trkpt>
      <trkpt lat="43.0613610" lon="-5.8287020">
        <ele>472.6</ele>
        <time>2018-06-17T10:05:23Z</time>
      </trkpt>
      <trkpt lat="43.0613100" lon="-5.8288550">
        <ele>473.0</ele>
        <time>2018-06-17T10:05:26Z</time>
      </trkpt>
      <trkpt lat="43.0612900" lon="-5.8289030">
        <ele>473.2</ele>
        <time>2018-06-17T10:05:27Z</time>
      </trkpt>
      <trkpt lat="43.0611300" lon="-5.8291020">
        <ele>473.8</ele>
        <time>2018-06-17T10:05:32Z</time>
      </trkpt>
      <trkpt lat="43.0610200" lon="-5.8291870">
        <ele>474.0</ele>
        <time>2018-06-17T10:05:35Z</time>
      </trkpt>
      <trkpt lat="43.0606880" lon="-5.8294450">
        <ele>474.6</ele>
        <time>2018-06-17T10:05:43Z</time>
      </trkpt>
      <trkpt lat="43.0605070" lon="-5.8295490">
        <ele>474.6</ele>
        <time>2018-06-17T10:05:47Z</time>
      </trkpt>
      <trkpt lat="43.0601920" lon="-5.8295650">
        <ele>474.6</ele>
        <time>2018-06-17T10:05:53Z</time>
      </trkpt>
      <trkpt lat="43.0598790" lon="-5.8296710">
        <ele>474.8</ele>
        <time>2018-06-17T10:05:59Z</time>
      </trkpt>
      <trkpt lat="43.0597220" lon="-5.8296890">
        <ele>474.8</ele>
        <time>2018-06-17T10:06:02Z</time>
      </trkpt>
      <trkpt lat="43.0591580" lon="-5.8297240">
        <ele>475.8</ele>
        <time>2018-06-17T10:06:13Z</time>
      </trkpt>
      <trkpt lat="43.0587770" lon="-5.8297760">
        <ele>476.8</ele>
        <time>2018-06-17T10:06:21Z</time>
      </trkpt>
      <trkpt lat="43.0585470" lon="-5.8297710">
        <ele>477.8</ele>
        <time>2018-06-17T10:06:26Z</time>
      </trkpt>
      <trkpt lat="43.0585030" lon="-5.8297590">
        <ele>478.0</ele>
        <time>2018-06-17T10:06:27Z</time>
      </trkpt>
      <trkpt lat="43.0582210" lon="-5.8296370">
        <ele>479.0</ele>
        <time>2018-06-17T10:06:35Z</time>
      </trkpt>
      <trkpt lat="43.0579050" lon="-5.8295030">
        <ele>479.8</ele>
        <time>2018-06-17T10:06:42Z</time>
      </trkpt>
      <trkpt lat="43.0577760" lon="-5.8294230">
        <ele>480.2</ele>
        <time>2018-06-17T10:06:45Z</time>
      </trkpt>
      <trkpt lat="43.0574800" lon="-5.8292160">
        <ele>481.2</ele>
        <time>2018-06-17T10:06:53Z</time>
      </trkpt>
      <trkpt lat="43.0571530" lon="-5.8291330">
        <ele>482.4</ele>
        <time>2018-06-17T10:07:00Z</time>
      </trkpt>
      <trkpt lat="43.0568370" lon="-5.8290710">
        <ele>483.4</ele>
        <time>2018-06-17T10:07:07Z</time>
      </trkpt>
      <trkpt lat="43.0565690" lon="-5.8290670">
        <ele>484.6</ele>
        <time>2018-06-17T10:07:13Z</time>
      </trkpt>
      <trkpt lat="43.0562620" lon="-5.8291030">
        <ele>485.6</ele>
        <time>2018-06-17T10:07:20Z</time>
      </trkpt>
      <trkpt lat="43.0561960" lon="-5.8290720">
        <ele>486.0</ele>
        <time>2018-06-17T10:07:22Z</time>
      </trkpt>
      <trkpt lat="43.0560650" lon="-5.8288690">
        <ele>486.4</ele>
        <time>2018-06-17T10:07:26Z</time>
      </trkpt>
      <trkpt lat="43.0559770" lon="-5.8288050">
        <ele>486.6</ele>
        <time>2018-06-17T10:07:28Z</time>
      </trkpt>
      <trkpt lat="43.0557450" lon="-5.8288170">
        <ele>486.8</ele>
        <time>2018-06-17T10:07:33Z</time>
      </trkpt>
      <trkpt lat="43.0554780" lon="-5.8288540">
        <ele>487.4</ele>
        <time>2018-06-17T10:07:39Z</time>
      </trkpt>
      <trkpt lat="43.0554360" lon="-5.8288720">
        <ele>487.8</ele>
        <time>2018-06-17T10:07:40Z</time>
      </trkpt>
      <trkpt lat="43.0552170" lon="-5.8289850">
        <ele>489.0</ele>
        <time>2018-06-17T10:07:46Z</time>
      </trkpt>
      <trkpt lat="43.0550260" lon="-5.8289670">
        <ele>489.8</ele>
        <time>2018-06-17T10:07:52Z</time>
      </trkpt>
      <trkpt lat="43.0547280" lon="-5.8288950">
        <ele>490.8</ele>
        <time>2018-06-17T10:07:58Z</time>
      </trkpt>
      <trkpt lat="43.0544540" lon="-5.8288020">
        <ele>492.0</ele>
        <time>2018-06-17T10:08:05Z</time>
      </trkpt>
      <trkpt lat="43.0542380" lon="-5.8286790">
        <ele>492.8</ele>
        <time>2018-06-17T10:08:11Z</time>
      </trkpt>
      <trkpt lat="43.0541100" lon="-5.8285800">
        <ele>493.0</ele>
        <time>2018-06-17T10:08:13Z</time>
      </trkpt>
      <trkpt lat="43.0539510" lon="-5.8284840">
        <ele>493.6</ele>
        <time>2018-06-17T10:08:17Z</time>
      </trkpt>
      <trkpt lat="43.0539090" lon="-5.8284680">
        <ele>493.8</ele>
        <time>2018-06-17T10:08:18Z</time>
      </trkpt>
      <trkpt lat="43.0535820" lon="-5.8282070">
        <ele>494.8</ele>
        <time>2018-06-17T10:08:26Z</time>
      </trkpt>
      <trkpt lat="43.0532710" lon="-5.8281590">
        <ele>495.8</ele>
        <time>2018-06-17T10:08:33Z</time>
      </trkpt>
      <trkpt lat="43.0531530" lon="-5.8282240">
        <ele>496.0</ele>
        <time>2018-06-17T10:08:36Z</time>
      </trkpt>
      <trkpt lat="43.0526640" lon="-5.8286380">
        <ele>496.4</ele>
        <time>2018-06-17T10:08:47Z</time>
      </trkpt>
      <trkpt lat="43.0524520" lon="-5.8288530">
        <ele>496.6</ele>
        <time>2018-06-17T10:08:52Z</time>
      </trkpt>
      <trkpt lat="43.0523510" lon="-5.8288730">
        <ele>496.6</ele>
        <time>2018-06-17T10:08:54Z</time>
      </trkpt>
      <trkpt lat="43.0521810" lon="-5.8288910">
        <ele>496.6</ele>
        <time>2018-06-17T10:08:57Z</time>
      </trkpt>
      <trkpt lat="43.0520370" lon="-5.8288080">
        <ele>496.6</ele>
        <time>2018-06-17T10:09:00Z</time>
      </trkpt>
      <trkpt lat="43.0519960" lon="-5.8287750">
        <ele>496.6</ele>
        <time>2018-06-17T10:09:01Z</time>
      </trkpt>
      <trkpt lat="43.0514950" lon="-5.8284110">
        <ele>497.0</ele>
        <time>2018-06-17T10:09:12Z</time>
      </trkpt>
      <trkpt lat="43.0512590" lon="-5.8282440">
        <ele>497.2</ele>
        <time>2018-06-17T10:09:17Z</time>
      </trkpt>
      <trkpt lat="43.0512160" lon="-5.8282050">
        <ele>497.4</ele>
        <time>2018-06-17T10:09:18Z</time>
      </trkpt>
      <trkpt lat="43.0509360" lon="-5.8279270">
        <ele>498.4</ele>
        <time>2018-06-17T10:09:26Z</time>
      </trkpt>
      <trkpt lat="43.0507010" lon="-5.8277850">
        <ele>499.4</ele>
        <time>2018-06-17T10:09:32Z</time>
      </trkpt>
      <trkpt lat="43.0503810" lon="-5.8276720">
        <ele>500.4</ele>
        <time>2018-06-17T10:09:39Z</time>
      </trkpt>
      <trkpt lat="43.0500860" lon="-5.8276440">
        <ele>501.4</ele>
        <time>2018-06-17T10:09:45Z</time>
      </trkpt>
      <trkpt lat="43.0498150" lon="-5.8277660">
        <ele>502.2</ele>
        <time>2018-06-17T10:09:51Z</time>
      </trkpt>
      <trkpt lat="43.0497440" lon="-5.8278400">
        <ele>502.4</ele>
        <time>2018-06-17T10:09:53Z</time>
      </trkpt>
      <trkpt lat="43.0495520" lon="-5.8281130">
        <ele>503.2</ele>
        <time>2018-06-17T10:09:59Z</time>
      </trkpt>
      <trkpt lat="43.0493750" lon="-5.8284720">
        <ele>504.2</ele>
        <time>2018-06-17T10:10:06Z</time>
      </trkpt>
      <trkpt lat="43.0492840" lon="-5.8287010">
        <ele>505.4</ele>
        <time>2018-06-17T10:10:11Z</time>
      </trkpt>
      <trkpt lat="43.0491880" lon="-5.8288540">
        <ele>506.2</ele>
        <time>2018-06-17T10:10:15Z</time>
      </trkpt>
      <trkpt lat="43.0491190" lon="-5.8289190">
        <ele>506.4</ele>
        <time>2018-06-17T10:10:17Z</time>
      </trkpt>
      <trkpt lat="43.0490430" lon="-5.8289600">
        <ele>506.6</ele>
        <time>2018-06-17T10:10:19Z</time>
      </trkpt>
      <trkpt lat="43.0488710" lon="-5.8290090">
        <ele>507.4</ele>
        <time>2018-06-17T10:10:23Z</time>
      </trkpt>
      <trkpt lat="43.0486910" lon="-5.8289870">
        <ele>508.6</ele>
        <time>2018-06-17T10:10:28Z</time>
      </trkpt>
      <trkpt lat="43.0485340" lon="-5.8289350">
        <ele>509.6</ele>
        <time>2018-06-17T10:10:33Z</time>
      </trkpt>
      <trkpt lat="43.0484410" lon="-5.8288930">
        <ele>510.2</ele>
        <time>2018-06-17T10:10:36Z</time>
      </trkpt>
      <trkpt lat="43.0483800" lon="-5.8288620">
        <ele>510.8</ele>
        <time>2018-06-17T10:10:38Z</time>
      </trkpt>
      <trkpt lat="43.0481900" lon="-5.8287550">
        <ele>512.0</ele>
        <time>2018-06-17T10:10:43Z</time>
      </trkpt>
      <trkpt lat="43.0480600" lon="-5.8287410">
        <ele>512.8</ele>
        <time>2018-06-17T10:10:47Z</time>
      </trkpt>
      <trkpt lat="43.0479860" lon="-5.8287130">
        <ele>513.2</ele>
        <time>2018-06-17T10:10:49Z</time>
      </trkpt>
      <trkpt lat="43.0477300" lon="-5.8285800">
        <ele>514.4</ele>
        <time>2018-06-17T10:10:55Z</time>
      </trkpt>
      <trkpt lat="43.0475640" lon="-5.8285690">
        <ele>515.6</ele>
        <time>2018-06-17T10:11:00Z</time>
      </trkpt>
      <trkpt lat="43.0473960" lon="-5.8286050">
        <ele>516.6</ele>
        <time>2018-06-17T10:11:05Z</time>
      </trkpt>
      <trkpt lat="43.0472920" lon="-5.8286500">
        <ele>518.2</ele>
        <time>2018-06-17T10:11:09Z</time>
      </trkpt>
      <trkpt lat="43.0472070" lon="-5.8286950">
        <ele>519.2</ele>
        <time>2018-06-17T10:11:13Z</time>
      </trkpt>
      <trkpt lat="43.0470370" lon="-5.8287330">
        <ele>520.4</ele>
        <time>2018-06-17T10:11:18Z</time>
      </trkpt>
      <trkpt lat="43.0468930" lon="-5.8287030">
        <ele>521.4</ele>
        <time>2018-06-17T10:11:22Z</time>
      </trkpt>
      <trkpt lat="43.0467560" lon="-5.8286010">
        <ele>522.6</ele>
        <time>2018-06-17T10:11:27Z</time>
      </trkpt>
      <trkpt lat="43.0465720" lon="-5.8283930">
        <ele>523.8</ele>
        <time>2018-06-17T10:11:35Z</time>
      </trkpt>
      <trkpt lat="43.0464710" lon="-5.8283630">
        <ele>525.0</ele>
        <time>2018-06-17T10:11:39Z</time>
      </trkpt>
      <trkpt lat="43.0463650" lon="-5.8284720">
        <ele>526.0</ele>
        <time>2018-06-17T10:11:44Z</time>
      </trkpt>
      <trkpt lat="43.0462720" lon="-5.8286270">
        <ele>527.4</ele>
        <time>2018-06-17T10:11:49Z</time>
      </trkpt>
      <trkpt lat="43.0461130" lon="-5.8287410">
        <ele>528.6</ele>
        <time>2018-06-17T10:11:55Z</time>
      </trkpt>
      <trkpt lat="43.0458910" lon="-5.8287240">
        <ele>530.0</ele>
        <time>2018-06-17T10:12:02Z</time>
      </trkpt>
      <trkpt lat="43.0457140" lon="-5.8287120">
        <ele>531.0</ele>
        <time>2018-06-17T10:12:08Z</time>
      </trkpt>
      <trkpt lat="43.0455470" lon="-5.8287110">
        <ele>532.2</ele>
        <time>2018-06-17T10:12:14Z</time>
      </trkpt>
      <trkpt lat="43.0453700" lon="-5.8287040">
        <ele>533.4</ele>
        <time>2018-06-17T10:12:20Z</time>
      </trkpt>
      <trkpt lat="43.0452330" lon="-5.8287130">
        <ele>534.4</ele>
        <time>2018-06-17T10:12:25Z</time>
      </trkpt>
      <trkpt lat="43.0450200" lon="-5.8287110">
        <ele>535.6</ele>
        <time>2018-06-17T10:12:32Z</time>
      </trkpt>
      <trkpt lat="43.0448190" lon="-5.8287390">
        <ele>536.8</ele>
        <time>2018-06-17T10:12:39Z</time>
      </trkpt>
      <trkpt lat="43.0446800" lon="-5.8288420">
        <ele>537.8</ele>
        <time>2018-06-17T10:12:45Z</time>
      </trkpt>
      <trkpt lat="43.0445530" lon="-5.8290210">
        <ele>538.8</ele>
        <time>2018-06-17T10:12:51Z</time>
      </trkpt>
      <trkpt lat="43.0444320" lon="-5.8291890">
        <ele>540.2</ele>
        <time>2018-06-17T10:12:57Z</time>
      </trkpt>
      <trkpt lat="43.0443320" lon="-5.8292690">
        <ele>541.2</ele>
        <time>2018-06-17T10:13:01Z</time>
      </trkpt>
      <trkpt lat="43.0441810" lon="-5.8293190">
        <ele>542.4</ele>
        <time>2018-06-17T10:13:06Z</time>
      </trkpt>
      <trkpt lat="43.0440160" lon="-5.8293460">
        <ele>543.6</ele>
        <time>2018-06-17T10:13:12Z</time>
      </trkpt>
      <trkpt lat="43.0438270" lon="-5.8293720">
        <ele>544.6</ele>
        <time>2018-06-17T10:13:18Z</time>
      </trkpt>
      <trkpt lat="43.0436820" lon="-5.8294670">
        <ele>545.8</ele>
        <time>2018-06-17T10:13:24Z</time>
      </trkpt>
      <trkpt lat="43.0435650" lon="-5.8296270">
        <ele>547.2</ele>
        <time>2018-06-17T10:13:30Z</time>
      </trkpt>
      <trkpt lat="43.0434780" lon="-5.8297750">
        <ele>548.2</ele>
        <time>2018-06-17T10:13:35Z</time>
      </trkpt>
      <trkpt lat="43.0433420" lon="-5.8298750">
        <ele>549.4</ele>
        <time>2018-06-17T10:13:40Z</time>
      </trkpt>
      <trkpt lat="43.0432350" lon="-5.8299130">
        <ele>550.4</ele>
        <time>2018-06-17T10:13:44Z</time>
      </trkpt>
      <trkpt lat="43.0430340" lon="-5.8299200">
        <ele>551.6</ele>
        <time>2018-06-17T10:13:51Z</time>
      </trkpt>
      <trkpt lat="43.0428670" lon="-5.8299150">
        <ele>552.6</ele>
        <time>2018-06-17T10:13:57Z</time>
      </trkpt>
      <trkpt lat="43.0426730" lon="-5.8298990">
        <ele>553.8</ele>
        <time>2018-06-17T10:14:04Z</time>
      </trkpt>
      <trkpt lat="43.0425050" lon="-5.8299160">
        <ele>555.0</ele>
        <time>2018-06-17T10:14:10Z</time>
      </trkpt>
      <trkpt lat="43.0423600" lon="-5.8299680">
        <ele>556.2</ele>
        <time>2018-06-17T10:14:16Z</time>
      </trkpt>
      <trkpt lat="43.0421700" lon="-5.8300720">
        <ele>557.2</ele>
        <time>2018-06-17T10:14:23Z</time>
      </trkpt>
      <trkpt lat="43.0420030" lon="-5.8302150">
        <ele>558.4</ele>
        <time>2018-06-17T10:14:29Z</time>
      </trkpt>
      <trkpt lat="43.0418740" lon="-5.8303530">
        <ele>559.6</ele>
        <time>2018-06-17T10:14:34Z</time>
      </trkpt>
      <trkpt lat="43.0417160" lon="-5.8304760">
        <ele>560.6</ele>
        <time>2018-06-17T10:14:40Z</time>
      </trkpt>
      <trkpt lat="43.0415180" lon="-5.8305200">
        <ele>561.8</ele>
        <time>2018-06-17T10:14:47Z</time>
      </trkpt>
      <trkpt lat="43.0413530" lon="-5.8305090">
        <ele>563.0</ele>
        <time>2018-06-17T10:14:53Z</time>
      </trkpt>
      <trkpt lat="43.0412010" lon="-5.8305090">
        <ele>564.0</ele>
        <time>2018-06-17T10:14:58Z</time>
      </trkpt>
      <trkpt lat="43.0408290" lon="-5.8304940">
        <ele>565.2</ele>
        <time>2018-06-17T10:15:10Z</time>
      </trkpt>
      <trkpt lat="43.0405840" lon="-5.8308030">
        <ele>566.0</ele>
        <time>2018-06-17T10:15:19Z</time>
      </trkpt>
      <trkpt lat="43.0405090" lon="-5.8308510">
        <ele>565.8</ele>
        <time>2018-06-17T10:15:21Z</time>
      </trkpt>
      <trkpt lat="43.0403960" lon="-5.8308990">
        <ele>566.2</ele>
        <time>2018-06-17T10:15:24Z</time>
      </trkpt>
      <trkpt lat="43.0401180" lon="-5.8310150">
        <ele>567.0</ele>
        <time>2018-06-17T10:15:32Z</time>
      </trkpt>
      <trkpt lat="43.0400320" lon="-5.8310330">
        <ele>567.2</ele>
        <time>2018-06-17T10:15:34Z</time>
      </trkpt>
      <trkpt lat="43.0395140" lon="-5.8311950">
        <ele>568.0</ele>
        <time>2018-06-17T10:15:47Z</time>
      </trkpt>
      <trkpt lat="43.0394750" lon="-5.8312100">
        <ele>568.2</ele>
        <time>2018-06-17T10:15:48Z</time>
      </trkpt>
      <trkpt lat="43.0391250" lon="-5.8312360">
        <ele>569.2</ele>
        <time>2018-06-17T10:15:57Z</time>
      </trkpt>
      <trkpt lat="43.0388010" lon="-5.8311880">
        <ele>569.8</ele>
        <time>2018-06-17T10:16:05Z</time>
      </trkpt>
      <trkpt lat="43.0385830" lon="-5.8312420">
        <ele>570.2</ele>
        <time>2018-06-17T10:16:10Z</time>
      </trkpt>
      <trkpt lat="43.0385400" lon="-5.8312410">
        <ele>570.2</ele>
        <time>2018-06-17T10:16:11Z</time>
      </trkpt>
      <trkpt lat="43.0384170" lon="-5.8311930">
        <ele>570.0</ele>
        <time>2018-06-17T10:16:14Z</time>
      </trkpt>
      <trkpt lat="43.0383730" lon="-5.8311810">
        <ele>570.0</ele>
        <time>2018-06-17T10:16:15Z</time>
      </trkpt>
      <trkpt lat="43.0380170" lon="-5.8312150">
        <ele>569.0</ele>
        <time>2018-06-17T10:16:22Z</time>
      </trkpt>
      <trkpt lat="43.0379020" lon="-5.8312600">
        <ele>568.4</ele>
        <time>2018-06-17T10:16:24Z</time>
      </trkpt>
      <trkpt lat="43.0377820" lon="-5.8313470">
        <ele>567.6</ele>
        <time>2018-06-17T10:16:26Z</time>
      </trkpt>
      <trkpt lat="43.0375590" lon="-5.8315020">
        <ele>566.2</ele>
        <time>2018-06-17T10:16:29Z</time>
      </trkpt>
      <trkpt lat="43.0373940" lon="-5.8315540">
        <ele>565.2</ele>
        <time>2018-06-17T10:16:31Z</time>
      </trkpt>
      <trkpt lat="43.0372080" lon="-5.8315220">
        <ele>563.8</ele>
        <time>2018-06-17T10:16:33Z</time>
      </trkpt>
      <trkpt lat="43.0370260" lon="-5.8314360">
        <ele>562.4</ele>
        <time>2018-06-17T10:16:35Z</time>
      </trkpt>
      <trkpt lat="43.0368300" lon="-5.8313540">
        <ele>560.8</ele>
        <time>2018-06-17T10:16:37Z</time>
      </trkpt>
      <trkpt lat="43.0367230" lon="-5.8313220">
        <ele>560.2</ele>
        <time>2018-06-17T10:16:38Z</time>
      </trkpt>
      <trkpt lat="43.0366140" lon="-5.8313100">
        <ele>559.6</ele>
        <time>2018-06-17T10:16:39Z</time>
      </trkpt>
      <trkpt lat="43.0364170" lon="-5.8313880">
        <ele>558.4</ele>
        <time>2018-06-17T10:16:41Z</time>
      </trkpt>
      <trkpt lat="43.0362820" lon="-5.8316150">
        <ele>556.8</ele>
        <time>2018-06-17T10:16:43Z</time>
      </trkpt>
      <trkpt lat="43.0362180" lon="-5.8319010">
        <ele>555.8</ele>
        <time>2018-06-17T10:16:45Z</time>
      </trkpt>
      <trkpt lat="43.0361830" lon="-5.8320420">
        <ele>555.4</ele>
        <time>2018-06-17T10:16:46Z</time>
      </trkpt>
      <trkpt lat="43.0361330" lon="-5.8321710">
        <ele>555.0</ele>
        <time>2018-06-17T10:16:47Z</time>
      </trkpt>
      <trkpt lat="43.0359350" lon="-5.8324790">
        <ele>554.2</ele>
        <time>2018-06-17T10:16:50Z</time>
      </trkpt>
      <trkpt lat="43.0353660" lon="-5.8325170">
        <ele>555.0</ele>
        <time>2018-06-17T10:16:57Z</time>
      </trkpt>
      <trkpt lat="43.0349030" lon="-5.8322660">
        <ele>555.0</ele>
        <time>2018-06-17T10:17:03Z</time>
      </trkpt>
      <trkpt lat="43.0345780" lon="-5.8323150">
        <ele>554.6</ele>
        <time>2018-06-17T10:17:07Z</time>
      </trkpt>
      <trkpt lat="43.0340140" lon="-5.8325440">
        <ele>554.6</ele>
        <time>2018-06-17T10:17:15Z</time>
      </trkpt>
      <trkpt lat="43.0334880" lon="-5.8326020">
        <ele>556.0</ele>
        <time>2018-06-17T10:17:23Z</time>
      </trkpt>
      <trkpt lat="43.0331230" lon="-5.8327130">
        <ele>556.8</ele>
        <time>2018-06-17T10:17:30Z</time>
      </trkpt>
      <trkpt lat="43.0329990" lon="-5.8327410">
        <ele>557.0</ele>
        <time>2018-06-17T10:17:32Z</time>
      </trkpt>
      <trkpt lat="43.0326640" lon="-5.8329310">
        <ele>557.6</ele>
        <time>2018-06-17T10:17:38Z</time>
      </trkpt>
      <trkpt lat="43.0325640" lon="-5.8330090">
        <ele>558.0</ele>
        <time>2018-06-17T10:17:40Z</time>
      </trkpt>
      <trkpt lat="43.0322450" lon="-5.8332200">
        <ele>559.2</ele>
        <time>2018-06-17T10:17:46Z</time>
      </trkpt>
      <trkpt lat="43.0320660" lon="-5.8333620">
        <ele>560.0</ele>
        <time>2018-06-17T10:17:50Z</time>
      </trkpt>
      <trkpt lat="43.0317930" lon="-5.8335040">
        <ele>561.0</ele>
        <time>2018-06-17T10:17:57Z</time>
      </trkpt>
      <trkpt lat="43.0317280" lon="-5.8334910">
        <ele>561.2</ele>
        <time>2018-06-17T10:17:58Z</time>
      </trkpt>
      <trkpt lat="43.0314850" lon="-5.8334380">
        <ele>562.0</ele>
        <time>2018-06-17T10:18:02Z</time>
      </trkpt>
      <trkpt lat="43.0311810" lon="-5.8334070">
        <ele>563.0</ele>
        <time>2018-06-17T10:18:09Z</time>
      </trkpt>
      <trkpt lat="43.0310270" lon="-5.8334260">
        <ele>564.4</ele>
        <time>2018-06-17T10:18:13Z</time>
      </trkpt>
      <trkpt lat="43.0309120" lon="-5.8334410">
        <ele>565.4</ele>
        <time>2018-06-17T10:18:16Z</time>
      </trkpt>
      <trkpt lat="43.0306760" lon="-5.8334730">
        <ele>566.6</ele>
        <time>2018-06-17T10:18:22Z</time>
      </trkpt>
      <trkpt lat="43.0305280" lon="-5.8335280">
        <ele>567.8</ele>
        <time>2018-06-17T10:18:27Z</time>
      </trkpt>
      <trkpt lat="43.0303530" lon="-5.8337400">
        <ele>568.8</ele>
        <time>2018-06-17T10:18:34Z</time>
      </trkpt>
      <trkpt lat="43.0302670" lon="-5.8339400">
        <ele>569.8</ele>
        <time>2018-06-17T10:18:39Z</time>
      </trkpt>
      <trkpt lat="43.0301800" lon="-5.8341520">
        <ele>571.0</ele>
        <time>2018-06-17T10:18:44Z</time>
      </trkpt>
      <trkpt lat="43.0298240" lon="-5.8347270">
        <ele>571.2</ele>
        <time>2018-06-17T10:18:57Z</time>
      </trkpt>
      <trkpt lat="43.0297950" lon="-5.8347780">
        <ele>571.2</ele>
        <time>2018-06-17T10:18:58Z</time>
      </trkpt>
      <trkpt lat="43.0297510" lon="-5.8349410">
        <ele>571.4</ele>
        <time>2018-06-17T10:19:01Z</time>
      </trkpt>
      <trkpt lat="43.0297600" lon="-5.8350510">
        <ele>571.4</ele>
        <time>2018-06-17T10:19:03Z</time>
      </trkpt>
      <trkpt lat="43.0297630" lon="-5.8351100">
        <ele>571.2</ele>
        <time>2018-06-17T10:19:04Z</time>
      </trkpt>
      <trkpt lat="43.0297600" lon="-5.8353570">
        <ele>571.0</ele>
        <time>2018-06-17T10:19:08Z</time>
      </trkpt>
      <trkpt lat="43.0296620" lon="-5.8355720">
        <ele>571.0</ele>
        <time>2018-06-17T10:19:12Z</time>
      </trkpt>
      <trkpt lat="43.0295900" lon="-5.8356590">
        <ele>571.0</ele>
        <time>2018-06-17T10:19:14Z</time>
      </trkpt>
      <trkpt lat="43.0294430" lon="-5.8357910">
        <ele>571.8</ele>
        <time>2018-06-17T10:19:18Z</time>
      </trkpt>
      <trkpt lat="43.0294080" lon="-5.8358270">
        <ele>571.8</ele>
        <time>2018-06-17T10:19:19Z</time>
      </trkpt>
      <trkpt lat="43.0292760" lon="-5.8359730">
        <ele>572.2</ele>
        <time>2018-06-17T10:19:23Z</time>
      </trkpt>
      <trkpt lat="43.0292040" lon="-5.8360580">
        <ele>572.4</ele>
        <time>2018-06-17T10:19:25Z</time>
      </trkpt>
      <trkpt lat="43.0291020" lon="-5.8362070">
        <ele>573.2</ele>
        <time>2018-06-17T10:19:29Z</time>
      </trkpt>
      <trkpt lat="43.0289020" lon="-5.8363420">
        <ele>573.8</ele>
        <time>2018-06-17T10:19:34Z</time>
      </trkpt>
      <trkpt lat="43.0287640" lon="-5.8363980">
        <ele>574.2</ele>
        <time>2018-06-17T10:19:37Z</time>
      </trkpt>
      <trkpt lat="43.0284570" lon="-5.8364340">
        <ele>575.6</ele>
        <time>2018-06-17T10:19:44Z</time>
      </trkpt>
      <trkpt lat="43.0281610" lon="-5.8364220">
        <ele>576.6</ele>
        <time>2018-06-17T10:19:51Z</time>
      </trkpt>
      <trkpt lat="43.0281250" lon="-5.8364550">
        <ele>576.8</ele>
        <time>2018-06-17T10:19:52Z</time>
      </trkpt>
      <trkpt lat="43.0279300" lon="-5.8366990">
        <ele>578.0</ele>
        <time>2018-06-17T10:19:59Z</time>
      </trkpt>
      <trkpt lat="43.0276020" lon="-5.8369010">
        <ele>579.0</ele>
        <time>2018-06-17T10:20:07Z</time>
      </trkpt>
      <trkpt lat="43.0274770" lon="-5.8369270">
        <ele>580.0</ele>
        <time>2018-06-17T10:20:11Z</time>
      </trkpt>
      <trkpt lat="43.0272000" lon="-5.8369810">
        <ele>581.4</ele>
        <time>2018-06-17T10:20:18Z</time>
      </trkpt>
      <trkpt lat="43.0268100" lon="-5.8369760">
        <ele>582.4</ele>
        <time>2018-06-17T10:20:28Z</time>
      </trkpt>
      <trkpt lat="43.0264380" lon="-5.8370190">
        <ele>583.6</ele>
        <time>2018-06-17T10:20:37Z</time>
      </trkpt>
      <trkpt lat="43.0262660" lon="-5.8369290">
        <ele>584.0</ele>
        <time>2018-06-17T10:20:41Z</time>
      </trkpt>
      <trkpt lat="43.0261050" lon="-5.8369270">
        <ele>584.4</ele>
        <time>2018-06-17T10:20:44Z</time>
      </trkpt>
      <trkpt lat="43.0260360" lon="-5.8369900">
        <ele>584.8</ele>
        <time>2018-06-17T10:20:46Z</time>
      </trkpt>
      <trkpt lat="43.0258810" lon="-5.8372570">
        <ele>586.0</ele>
        <time>2018-06-17T10:20:53Z</time>
      </trkpt>
      <trkpt lat="43.0256890" lon="-5.8378540">
        <ele>587.2</ele>
        <time>2018-06-17T10:21:06Z</time>
      </trkpt>
      <trkpt lat="43.0255990" lon="-5.8380810">
        <ele>587.6</ele>
        <time>2018-06-17T10:21:10Z</time>
      </trkpt>
      <trkpt lat="43.0254910" lon="-5.8382030">
        <ele>588.2</ele>
        <time>2018-06-17T10:21:13Z</time>
      </trkpt>
      <trkpt lat="43.0253590" lon="-5.8382650">
        <ele>589.6</ele>
        <time>2018-06-17T10:21:17Z</time>
      </trkpt>
      <trkpt lat="43.0252360" lon="-5.8383330">
        <ele>590.6</ele>
        <time>2018-06-17T10:21:21Z</time>
      </trkpt>
      <trkpt lat="43.0251630" lon="-5.8384010">
        <ele>591.6</ele>
        <time>2018-06-17T10:21:24Z</time>
      </trkpt>
      <trkpt lat="43.0250860" lon="-5.8384580">
        <ele>592.6</ele>
        <time>2018-06-17T10:21:27Z</time>
      </trkpt>
      <trkpt lat="43.0250650" lon="-5.8384790">
        <ele>592.8</ele>
        <time>2018-06-17T10:21:28Z</time>
      </trkpt>
      <trkpt lat="43.0249860" lon="-5.8385810">
        <ele>594.2</ele>
        <time>2018-06-17T10:21:32Z</time>
      </trkpt>
      <trkpt lat="43.0249200" lon="-5.8386840">
        <ele>595.4</ele>
        <time>2018-06-17T10:21:36Z</time>
      </trkpt>
      <trkpt lat="43.0248440" lon="-5.8388180">
        <ele>596.8</ele>
        <time>2018-06-17T10:21:41Z</time>
      </trkpt>
      <trkpt lat="43.0247970" lon="-5.8389420">
        <ele>597.8</ele>
        <time>2018-06-17T10:21:45Z</time>
      </trkpt>
      <trkpt lat="43.0247580" lon="-5.8390720">
        <ele>598.8</ele>
        <time>2018-06-17T10:21:49Z</time>
      </trkpt>
      <trkpt lat="43.0247150" lon="-5.8392190">
        <ele>600.0</ele>
        <time>2018-06-17T10:21:53Z</time>
      </trkpt>
      <trkpt lat="43.0243810" lon="-5.8398350">
        <ele>600.6</ele>
        <time>2018-06-17T10:22:08Z</time>
      </trkpt>
      <trkpt lat="43.0242170" lon="-5.8400640">
        <ele>600.6</ele>
        <time>2018-06-17T10:22:14Z</time>
      </trkpt>
      <trkpt lat="43.0240920" lon="-5.8402130">
        <ele>600.6</ele>
        <time>2018-06-17T10:22:18Z</time>
      </trkpt>
      <trkpt lat="43.0239530" lon="-5.8403440">
        <ele>600.6</ele>
        <time>2018-06-17T10:22:22Z</time>
      </trkpt>
      <trkpt lat="43.0238220" lon="-5.8404800">
        <ele>601.0</ele>
        <time>2018-06-17T10:22:26Z</time>
      </trkpt>
      <trkpt lat="43.0237360" lon="-5.8406440">
        <ele>602.2</ele>
        <time>2018-06-17T10:22:31Z</time>
      </trkpt>
      <trkpt lat="43.0236870" lon="-5.8407410">
        <ele>603.4</ele>
        <time>2018-06-17T10:22:34Z</time>
      </trkpt>
      <trkpt lat="43.0236430" lon="-5.8408410">
        <ele>604.6</ele>
        <time>2018-06-17T10:22:37Z</time>
      </trkpt>
      <trkpt lat="43.0235810" lon="-5.8410230">
        <ele>605.8</ele>
        <time>2018-06-17T10:22:43Z</time>
      </trkpt>
      <trkpt lat="43.0235730" lon="-5.8411610">
        <ele>607.2</ele>
        <time>2018-06-17T10:22:48Z</time>
      </trkpt>
      <trkpt lat="43.0235520" lon="-5.8413030">
        <ele>608.2</ele>
        <time>2018-06-17T10:22:52Z</time>
      </trkpt>
      <trkpt lat="43.0235200" lon="-5.8414790">
        <ele>609.4</ele>
        <time>2018-06-17T10:22:57Z</time>
      </trkpt>
      <trkpt lat="43.0234680" lon="-5.8416580">
        <ele>610.2</ele>
        <time>2018-06-17T10:23:02Z</time>
      </trkpt>
      <trkpt lat="43.0234610" lon="-5.8417270">
        <ele>610.6</ele>
        <time>2018-06-17T10:23:04Z</time>
      </trkpt>
      <trkpt lat="43.0234610" lon="-5.8417570">
        <ele>610.8</ele>
        <time>2018-06-17T10:23:05Z</time>
      </trkpt>
      <trkpt lat="43.0234630" lon="-5.8419000">
        <ele>611.8</ele>
        <time>2018-06-17T10:23:09Z</time>
      </trkpt>
      <trkpt lat="43.0234620" lon="-5.8420340">
        <ele>613.0</ele>
        <time>2018-06-17T10:23:13Z</time>
      </trkpt>
      <trkpt lat="43.0234320" lon="-5.8421790">
        <ele>614.0</ele>
        <time>2018-06-17T10:23:18Z</time>
      </trkpt>
      <trkpt lat="43.0233210" lon="-5.8424270">
        <ele>615.4</ele>
        <time>2018-06-17T10:23:24Z</time>
      </trkpt>
      <trkpt lat="43.0232180" lon="-5.8426290">
        <ele>616.6</ele>
        <time>2018-06-17T10:23:29Z</time>
      </trkpt>
      <trkpt lat="43.0231130" lon="-5.8427980">
        <ele>617.8</ele>
        <time>2018-06-17T10:23:34Z</time>
      </trkpt>
      <trkpt lat="43.0230470" lon="-5.8429580">
        <ele>618.8</ele>
        <time>2018-06-17T10:23:40Z</time>
      </trkpt>
      <trkpt lat="43.0230260" lon="-5.8430920">
        <ele>620.0</ele>
        <time>2018-06-17T10:23:45Z</time>
      </trkpt>
      <trkpt lat="43.0229920" lon="-5.8432670">
        <ele>621.4</ele>
        <time>2018-06-17T10:23:50Z</time>
      </trkpt>
      <trkpt lat="43.0229440" lon="-5.8434380">
        <ele>622.6</ele>
        <time>2018-06-17T10:23:55Z</time>
      </trkpt>
      <trkpt lat="43.0229550" lon="-5.8436820">
        <ele>624.0</ele>
        <time>2018-06-17T10:24:02Z</time>
      </trkpt>
      <trkpt lat="43.0229610" lon="-5.8438820">
        <ele>625.2</ele>
        <time>2018-06-17T10:24:07Z</time>
      </trkpt>
      <trkpt lat="43.0229960" lon="-5.8440200">
        <ele>626.4</ele>
        <time>2018-06-17T10:24:11Z</time>
      </trkpt>
      <trkpt lat="43.0230360" lon="-5.8441850">
        <ele>627.4</ele>
        <time>2018-06-17T10:24:16Z</time>
      </trkpt>
      <trkpt lat="43.0230660" lon="-5.8443100">
        <ele>628.2</ele>
        <time>2018-06-17T10:24:20Z</time>
      </trkpt>
      <trkpt lat="43.0230770" lon="-5.8443700">
        <ele>628.8</ele>
        <time>2018-06-17T10:24:22Z</time>
      </trkpt>
      <trkpt lat="43.0230980" lon="-5.8445560">
        <ele>630.0</ele>
        <time>2018-06-17T10:24:27Z</time>
      </trkpt>
      <trkpt lat="43.0231230" lon="-5.8447710">
        <ele>631.0</ele>
        <time>2018-06-17T10:24:33Z</time>
      </trkpt>
      <trkpt lat="43.0231370" lon="-5.8449060">
        <ele>632.2</ele>
        <time>2018-06-17T10:24:37Z</time>
      </trkpt>
      <trkpt lat="43.0231470" lon="-5.8450760">
        <ele>633.4</ele>
        <time>2018-06-17T10:24:42Z</time>
      </trkpt>
      <trkpt lat="43.0231580" lon="-5.8452350">
        <ele>634.6</ele>
        <time>2018-06-17T10:24:47Z</time>
      </trkpt>
      <trkpt lat="43.0231600" lon="-5.8454020">
        <ele>635.6</ele>
        <time>2018-06-17T10:24:52Z</time>
      </trkpt>
      <trkpt lat="43.0231630" lon="-5.8455650">
        <ele>636.8</ele>
        <time>2018-06-17T10:24:57Z</time>
      </trkpt>
      <trkpt lat="43.0231850" lon="-5.8457660">
        <ele>637.8</ele>
        <time>2018-06-17T10:25:03Z</time>
      </trkpt>
      <trkpt lat="43.0232400" lon="-5.8459980">
        <ele>639.0</ele>
        <time>2018-06-17T10:25:10Z</time>
      </trkpt>
      <trkpt lat="43.0232810" lon="-5.8461600">
        <ele>640.0</ele>
        <time>2018-06-17T10:25:15Z</time>
      </trkpt>
      <trkpt lat="43.0233210" lon="-5.8463600">
        <ele>641.2</ele>
        <time>2018-06-17T10:25:21Z</time>
      </trkpt>
      <trkpt lat="43.0233130" lon="-5.8466040">
        <ele>642.4</ele>
        <time>2018-06-17T10:25:28Z</time>
      </trkpt>
      <trkpt lat="43.0232800" lon="-5.8467780">
        <ele>643.6</ele>
        <time>2018-06-17T10:25:33Z</time>
      </trkpt>
      <trkpt lat="43.0231860" lon="-5.8470420">
        <ele>644.6</ele>
        <time>2018-06-17T10:25:41Z</time>
      </trkpt>
      <trkpt lat="43.0230900" lon="-5.8472230">
        <ele>645.8</ele>
        <time>2018-06-17T10:25:47Z</time>
      </trkpt>
      <trkpt lat="43.0230220" lon="-5.8474160">
        <ele>647.0</ele>
        <time>2018-06-17T10:25:53Z</time>
      </trkpt>
      <trkpt lat="43.0230050" lon="-5.8476290">
        <ele>648.2</ele>
        <time>2018-06-17T10:25:59Z</time>
      </trkpt>
      <trkpt lat="43.0230060" lon="-5.8477670">
        <ele>649.2</ele>
        <time>2018-06-17T10:26:03Z</time>
      </trkpt>
      <trkpt lat="43.0230120" lon="-5.8479400">
        <ele>650.4</ele>
        <time>2018-06-17T10:26:08Z</time>
      </trkpt>
      <trkpt lat="43.0230080" lon="-5.8481160">
        <ele>651.4</ele>
        <time>2018-06-17T10:26:13Z</time>
      </trkpt>
      <trkpt lat="43.0229950" lon="-5.8482890">
        <ele>652.4</ele>
        <time>2018-06-17T10:26:18Z</time>
      </trkpt>
      <trkpt lat="43.0229220" lon="-5.8485610">
        <ele>653.2</ele>
        <time>2018-06-17T10:26:26Z</time>
      </trkpt>
      <trkpt lat="43.0228890" lon="-5.8486540">
        <ele>654.4</ele>
        <time>2018-06-17T10:26:29Z</time>
      </trkpt>
      <trkpt lat="43.0228220" lon="-5.8488510">
        <ele>655.4</ele>
        <time>2018-06-17T10:26:35Z</time>
      </trkpt>
      <trkpt lat="43.0227990" lon="-5.8491250">
        <ele>656.4</ele>
        <time>2018-06-17T10:26:42Z</time>
      </trkpt>
      <trkpt lat="43.0228790" lon="-5.8492700">
        <ele>657.6</ele>
        <time>2018-06-17T10:26:47Z</time>
      </trkpt>
      <trkpt lat="43.0230260" lon="-5.8492460">
        <ele>658.2</ele>
        <time>2018-06-17T10:26:53Z</time>
      </trkpt>
      <trkpt lat="43.0230430" lon="-5.8492150">
        <ele>658.6</ele>
        <time>2018-06-17T10:26:54Z</time>
      </trkpt>
      <trkpt lat="43.0230870" lon="-5.8489210">
        <ele>659.8</ele>
        <time>2018-06-17T10:27:02Z</time>
      </trkpt>
      <trkpt lat="43.0232170" lon="-5.8484720">
        <ele>660.8</ele>
        <time>2018-06-17T10:27:13Z</time>
      </trkpt>
      <trkpt lat="43.0233050" lon="-5.8483080">
        <ele>661.4</ele>
        <time>2018-06-17T10:27:18Z</time>
      </trkpt>
      <trkpt lat="43.0233540" lon="-5.8482090">
        <ele>662.0</ele>
        <time>2018-06-17T10:27:21Z</time>
      </trkpt>
      <trkpt lat="43.0233970" lon="-5.8480380">
        <ele>663.2</ele>
        <time>2018-06-17T10:27:26Z</time>
      </trkpt>
      <trkpt lat="43.0234570" lon="-5.8478290">
        <ele>664.2</ele>
        <time>2018-06-17T10:27:32Z</time>
      </trkpt>
      <trkpt lat="43.0235150" lon="-5.8476400">
        <ele>665.2</ele>
        <time>2018-06-17T10:27:38Z</time>
      </trkpt>
      <trkpt lat="43.0235650" lon="-5.8474440">
        <ele>666.2</ele>
        <time>2018-06-17T10:27:44Z</time>
      </trkpt>
      <trkpt lat="43.0235880" lon="-5.8473100">
        <ele>667.6</ele>
        <time>2018-06-17T10:27:48Z</time>
      </trkpt>
      <trkpt lat="43.0236100" lon="-5.8471310">
        <ele>668.6</ele>
        <time>2018-06-17T10:27:54Z</time>
      </trkpt>
      <trkpt lat="43.0236000" lon="-5.8469380">
        <ele>669.6</ele>
        <time>2018-06-17T10:27:59Z</time>
      </trkpt>
      <trkpt lat="43.0236230" lon="-5.8467780">
        <ele>670.6</ele>
        <time>2018-06-17T10:28:03Z</time>
      </trkpt>
      <trkpt lat="43.0236520" lon="-5.8465590">
        <ele>671.8</ele>
        <time>2018-06-17T10:28:09Z</time>
      </trkpt>
      <trkpt lat="43.0236810" lon="-5.8463570">
        <ele>672.8</ele>
        <time>2018-06-17T10:28:15Z</time>
      </trkpt>
      <trkpt lat="43.0237660" lon="-5.8461310">
        <ele>674.0</ele>
        <time>2018-06-17T10:28:23Z</time>
      </trkpt>
      <trkpt lat="43.0238480" lon="-5.8459980">
        <ele>675.0</ele>
        <time>2018-06-17T10:28:28Z</time>
      </trkpt>
      <trkpt lat="43.0240130" lon="-5.8458950">
        <ele>676.0</ele>
        <time>2018-06-17T10:28:34Z</time>
      </trkpt>
      <trkpt lat="43.0241550" lon="-5.8458960">
        <ele>677.2</ele>
        <time>2018-06-17T10:28:38Z</time>
      </trkpt>
      <trkpt lat="43.0242340" lon="-5.8459830">
        <ele>678.4</ele>
        <time>2018-06-17T10:28:43Z</time>
      </trkpt>
      <trkpt lat="43.0242580" lon="-5.8461590">
        <ele>679.4</ele>
        <time>2018-06-17T10:28:49Z</time>
      </trkpt>
      <trkpt lat="43.0240180" lon="-5.8463700">
        <ele>680.6</ele>
        <time>2018-06-17T10:28:58Z</time>
      </trkpt>
      <trkpt lat="43.0238490" lon="-5.8466600">
        <ele>681.8</ele>
        <time>2018-06-17T10:29:08Z</time>
      </trkpt>
      <trkpt lat="43.0238580" lon="-5.8469590">
        <ele>682.6</ele>
        <time>2018-06-17T10:29:16Z</time>
      </trkpt>
      <trkpt lat="43.0238660" lon="-5.8470390">
        <ele>683.0</ele>
        <time>2018-06-17T10:29:18Z</time>
      </trkpt>
      <trkpt lat="43.0239070" lon="-5.8472620">
        <ele>683.8</ele>
        <time>2018-06-17T10:29:24Z</time>
      </trkpt>
      <trkpt lat="43.0239170" lon="-5.8473370">
        <ele>684.0</ele>
        <time>2018-06-17T10:29:26Z</time>
      </trkpt>
      <trkpt lat="43.0239510" lon="-5.8476580">
        <ele>685.0</ele>
        <time>2018-06-17T10:29:34Z</time>
      </trkpt>
      <trkpt lat="43.0239850" lon="-5.8479980">
        <ele>686.0</ele>
        <time>2018-06-17T10:29:43Z</time>
      </trkpt>
      <trkpt lat="43.0240070" lon="-5.8480850">
        <ele>687.0</ele>
        <time>2018-06-17T10:29:46Z</time>
      </trkpt>
      <trkpt lat="43.0240500" lon="-5.8483020">
        <ele>688.2</ele>
        <time>2018-06-17T10:29:52Z</time>
      </trkpt>
      <trkpt lat="43.0240720" lon="-5.8485310">
        <ele>689.0</ele>
        <time>2018-06-17T10:29:58Z</time>
      </trkpt>
      <trkpt lat="43.0240620" lon="-5.8486770">
        <ele>690.2</ele>
        <time>2018-06-17T10:30:02Z</time>
      </trkpt>
      <trkpt lat="43.0240140" lon="-5.8488880">
        <ele>691.2</ele>
        <time>2018-06-17T10:30:08Z</time>
      </trkpt>
      <trkpt lat="43.0239500" lon="-5.8490560">
        <ele>692.2</ele>
        <time>2018-06-17T10:30:13Z</time>
      </trkpt>
      <trkpt lat="43.0238870" lon="-5.8493070">
        <ele>693.4</ele>
        <time>2018-06-17T10:30:20Z</time>
      </trkpt>
      <trkpt lat="43.0238980" lon="-5.8496010">
        <ele>694.6</ele>
        <time>2018-06-17T10:30:28Z</time>
      </trkpt>
      <trkpt lat="43.0239600" lon="-5.8498890">
        <ele>695.8</ele>
        <time>2018-06-17T10:30:36Z</time>
      </trkpt>
      <trkpt lat="43.0240020" lon="-5.8500420">
        <ele>697.0</ele>
        <time>2018-06-17T10:30:41Z</time>
      </trkpt>
      <trkpt lat="43.0240200" lon="-5.8501770">
        <ele>698.0</ele>
        <time>2018-06-17T10:30:45Z</time>
      </trkpt>
      <trkpt lat="43.0239740" lon="-5.8503380">
        <ele>699.0</ele>
        <time>2018-06-17T10:30:50Z</time>
      </trkpt>
      <trkpt lat="43.0239010" lon="-5.8504360">
        <ele>700.4</ele>
        <time>2018-06-17T10:30:54Z</time>
      </trkpt>
      <trkpt lat="43.0238230" lon="-5.8504990">
        <ele>701.4</ele>
        <time>2018-06-17T10:30:58Z</time>
      </trkpt>
      <trkpt lat="43.0237250" lon="-5.8505460">
        <ele>702.6</ele>
        <time>2018-06-17T10:31:02Z</time>
      </trkpt>
      <trkpt lat="43.0236230" lon="-5.8506380">
        <ele>703.6</ele>
        <time>2018-06-17T10:31:07Z</time>
      </trkpt>
      <trkpt lat="43.0235400" lon="-5.8508320">
        <ele>704.8</ele>
        <time>2018-06-17T10:31:14Z</time>
      </trkpt>
      <trkpt lat="43.0235010" lon="-5.8510040">
        <ele>705.8</ele>
        <time>2018-06-17T10:31:20Z</time>
      </trkpt>
      <trkpt lat="43.0234710" lon="-5.8511890">
        <ele>707.0</ele>
        <time>2018-06-17T10:31:26Z</time>
      </trkpt>
      <trkpt lat="43.0234660" lon="-5.8513600">
        <ele>708.2</ele>
        <time>2018-06-17T10:31:31Z</time>
      </trkpt>
      <trkpt lat="43.0235060" lon="-5.8515200">
        <ele>709.2</ele>
        <time>2018-06-17T10:31:36Z</time>
      </trkpt>
      <trkpt lat="43.0235800" lon="-5.8517050">
        <ele>710.2</ele>
        <time>2018-06-17T10:31:42Z</time>
      </trkpt>
      <trkpt lat="43.0236240" lon="-5.8518620">
        <ele>711.4</ele>
        <time>2018-06-17T10:31:47Z</time>
      </trkpt>
      <trkpt lat="43.0236340" lon="-5.8520090">
        <ele>712.4</ele>
        <time>2018-06-17T10:31:52Z</time>
      </trkpt>
      <trkpt lat="43.0236390" lon="-5.8522030">
        <ele>713.8</ele>
        <time>2018-06-17T10:31:58Z</time>
      </trkpt>
      <trkpt lat="43.0236560" lon="-5.8523290">
        <ele>714.8</ele>
        <time>2018-06-17T10:32:02Z</time>
      </trkpt>
      <trkpt lat="43.0236520" lon="-5.8524790">
        <ele>716.0</ele>
        <time>2018-06-17T10:32:08Z</time>
      </trkpt>
      <trkpt lat="43.0236450" lon="-5.8526070">
        <ele>717.0</ele>
        <time>2018-06-17T10:32:12Z</time>
      </trkpt>
      <trkpt lat="43.0237030" lon="-5.8527970">
        <ele>718.2</ele>
        <time>2018-06-17T10:32:18Z</time>
      </trkpt>
      <trkpt lat="43.0237780" lon="-5.8529080">
        <ele>719.4</ele>
        <time>2018-06-17T10:32:22Z</time>
      </trkpt>
      <trkpt lat="43.0238880" lon="-5.8530110">
        <ele>720.4</ele>
        <time>2018-06-17T10:32:27Z</time>
      </trkpt>
      <trkpt lat="43.0240340" lon="-5.8530890">
        <ele>721.6</ele>
        <time>2018-06-17T10:32:33Z</time>
      </trkpt>
      <trkpt lat="43.0241410" lon="-5.8531540">
        <ele>722.8</ele>
        <time>2018-06-17T10:32:38Z</time>
      </trkpt>
      <trkpt lat="43.0242380" lon="-5.8531960">
        <ele>723.8</ele>
        <time>2018-06-17T10:32:42Z</time>
      </trkpt>
      <trkpt lat="43.0243860" lon="-5.8532700">
        <ele>724.8</ele>
        <time>2018-06-17T10:32:48Z</time>
      </trkpt>
      <trkpt lat="43.0245000" lon="-5.8533180">
        <ele>726.0</ele>
        <time>2018-06-17T10:32:53Z</time>
      </trkpt>
      <trkpt lat="43.0246400" lon="-5.8533640">
        <ele>727.2</ele>
        <time>2018-06-17T10:32:59Z</time>
      </trkpt>
      <trkpt lat="43.0247490" lon="-5.8533880">
        <ele>728.4</ele>
        <time>2018-06-17T10:33:04Z</time>
      </trkpt>
      <trkpt lat="43.0248610" lon="-5.8534550">
        <ele>729.4</ele>
        <time>2018-06-17T10:33:09Z</time>
      </trkpt>
      <trkpt lat="43.0249380" lon="-5.8535690">
        <ele>730.4</ele>
        <time>2018-06-17T10:33:14Z</time>
      </trkpt>
      <trkpt lat="43.0249800" lon="-5.8536960">
        <ele>731.6</ele>
        <time>2018-06-17T10:33:18Z</time>
      </trkpt>
      <trkpt lat="43.0250010" lon="-5.8539230">
        <ele>732.6</ele>
        <time>2018-06-17T10:33:25Z</time>
      </trkpt>
      <trkpt lat="43.0250230" lon="-5.8541250">
        <ele>733.8</ele>
        <time>2018-06-17T10:33:31Z</time>
      </trkpt>
      <trkpt lat="43.0250370" lon="-5.8543000">
        <ele>734.8</ele>
        <time>2018-06-17T10:33:36Z</time>
      </trkpt>
      <trkpt lat="43.0250320" lon="-5.8544720">
        <ele>735.8</ele>
        <time>2018-06-17T10:33:41Z</time>
      </trkpt>
      <trkpt lat="43.0250190" lon="-5.8546470">
        <ele>737.0</ele>
        <time>2018-06-17T10:33:46Z</time>
      </trkpt>
      <trkpt lat="43.0250030" lon="-5.8548070">
        <ele>737.8</ele>
        <time>2018-06-17T10:33:51Z</time>
      </trkpt>
      <trkpt lat="43.0249880" lon="-5.8549760">
        <ele>739.0</ele>
        <time>2018-06-17T10:33:56Z</time>
      </trkpt>
      <trkpt lat="43.0249350" lon="-5.8550840">
        <ele>740.0</ele>
        <time>2018-06-17T10:34:01Z</time>
      </trkpt>
      <trkpt lat="43.0248420" lon="-5.8551770">
        <ele>741.0</ele>
        <time>2018-06-17T10:34:06Z</time>
      </trkpt>
      <trkpt lat="43.0247660" lon="-5.8552800">
        <ele>742.4</ele>
        <time>2018-06-17T10:34:11Z</time>
      </trkpt>
      <trkpt lat="43.0247060" lon="-5.8554040">
        <ele>743.2</ele>
        <time>2018-06-17T10:34:17Z</time>
      </trkpt>
      <trkpt lat="43.0247000" lon="-5.8554240">
        <ele>743.6</ele>
        <time>2018-06-17T10:34:18Z</time>
      </trkpt>
      <trkpt lat="43.0246300" lon="-5.8554730">
        <ele>744.4</ele>
        <time>2018-06-17T10:34:22Z</time>
      </trkpt>
      <trkpt lat="43.0246010" lon="-5.8554900">
        <ele>744.8</ele>
        <time>2018-06-17T10:34:24Z</time>
      </trkpt>
      <trkpt lat="43.0245270" lon="-5.8555600">
        <ele>745.4</ele>
        <time>2018-06-17T10:34:29Z</time>
      </trkpt>
      <trkpt lat="43.0244040" lon="-5.8556030">
        <ele>746.6</ele>
        <time>2018-06-17T10:34:34Z</time>
      </trkpt>
      <trkpt lat="43.0243080" lon="-5.8556550">
        <ele>747.6</ele>
        <time>2018-06-17T10:34:38Z</time>
      </trkpt>
      <trkpt lat="43.0242670" lon="-5.8557540">
        <ele>748.8</ele>
        <time>2018-06-17T10:34:42Z</time>
      </trkpt>
      <trkpt lat="43.0242380" lon="-5.8558480">
        <ele>749.8</ele>
        <time>2018-06-17T10:34:46Z</time>
      </trkpt>
      <trkpt lat="43.0242670" lon="-5.8559650">
        <ele>751.0</ele>
        <time>2018-06-17T10:34:50Z</time>
      </trkpt>
      <trkpt lat="43.0243290" lon="-5.8560480">
        <ele>752.2</ele>
        <time>2018-06-17T10:34:54Z</time>
      </trkpt>
      <trkpt lat="43.0244410" lon="-5.8561100">
        <ele>753.0</ele>
        <time>2018-06-17T10:35:00Z</time>
      </trkpt>
      <trkpt lat="43.0245550" lon="-5.8561890">
        <ele>754.2</ele>
        <time>2018-06-17T10:35:06Z</time>
      </trkpt>
      <trkpt lat="43.0246510" lon="-5.8563720">
        <ele>755.2</ele>
        <time>2018-06-17T10:35:13Z</time>
      </trkpt>
      <trkpt lat="43.0246720" lon="-5.8565140">
        <ele>756.4</ele>
        <time>2018-06-17T10:35:18Z</time>
      </trkpt>
      <trkpt lat="43.0246480" lon="-5.8566630">
        <ele>757.4</ele>
        <time>2018-06-17T10:35:24Z</time>
      </trkpt>
      <trkpt lat="43.0246050" lon="-5.8567670">
        <ele>758.4</ele>
        <time>2018-06-17T10:35:29Z</time>
      </trkpt>
      <trkpt lat="43.0245420" lon="-5.8568610">
        <ele>759.2</ele>
        <time>2018-06-17T10:35:34Z</time>
      </trkpt>
      <trkpt lat="43.0245000" lon="-5.8569740">
        <ele>760.4</ele>
        <time>2018-06-17T10:35:39Z</time>
      </trkpt>
      <trkpt lat="43.0244400" lon="-5.8571180">
        <ele>761.2</ele>
        <time>2018-06-17T10:35:46Z</time>
      </trkpt>
      <trkpt lat="43.0244290" lon="-5.8571370">
        <ele>761.4</ele>
        <time>2018-06-17T10:35:47Z</time>
      </trkpt>
      <trkpt lat="43.0243780" lon="-5.8572690">
        <ele>762.6</ele>
        <time>2018-06-17T10:35:53Z</time>
      </trkpt>
      <trkpt lat="43.0243170" lon="-5.8574350">
        <ele>763.8</ele>
        <time>2018-06-17T10:36:00Z</time>
      </trkpt>
      <trkpt lat="43.0242390" lon="-5.8575970">
        <ele>764.8</ele>
        <time>2018-06-17T10:36:07Z</time>
      </trkpt>
      <trkpt lat="43.0241370" lon="-5.8577520">
        <ele>766.0</ele>
        <time>2018-06-17T10:36:14Z</time>
      </trkpt>
      <trkpt lat="43.0240650" lon="-5.8578440">
        <ele>766.8</ele>
        <time>2018-06-17T10:36:19Z</time>
      </trkpt>
      <trkpt lat="43.0240290" lon="-5.8578770">
        <ele>767.2</ele>
        <time>2018-06-17T10:36:21Z</time>
      </trkpt>
      <trkpt lat="43.0239060" lon="-5.8579990">
        <ele>768.4</ele>
        <time>2018-06-17T10:36:28Z</time>
      </trkpt>
      <trkpt lat="43.0238220" lon="-5.8580950">
        <ele>769.6</ele>
        <time>2018-06-17T10:36:33Z</time>
      </trkpt>
      <trkpt lat="43.0237350" lon="-5.8581740">
        <ele>770.6</ele>
        <time>2018-06-17T10:36:38Z</time>
      </trkpt>
      <trkpt lat="43.0236200" lon="-5.8582200">
        <ele>771.6</ele>
        <time>2018-06-17T10:36:44Z</time>
      </trkpt>
      <trkpt lat="43.0234900" lon="-5.8582630">
        <ele>772.8</ele>
        <time>2018-06-17T10:36:51Z</time>
      </trkpt>
      <trkpt lat="43.0233810" lon="-5.8582990">
        <ele>773.8</ele>
        <time>2018-06-17T10:36:57Z</time>
      </trkpt>
      <trkpt lat="43.0232900" lon="-5.8583530">
        <ele>775.0</ele>
        <time>2018-06-17T10:37:03Z</time>
      </trkpt>
      <trkpt lat="43.0232230" lon="-5.8584090">
        <ele>775.6</ele>
        <time>2018-06-17T10:37:09Z</time>
      </trkpt>
      <trkpt lat="43.0231970" lon="-5.8584370">
        <ele>776.0</ele>
        <time>2018-06-17T10:37:12Z</time>
      </trkpt>
      <trkpt lat="43.0231920" lon="-5.8584460">
        <ele>776.0</ele>
        <time>2018-06-17T10:37:13Z</time>
      </trkpt>
      <trkpt lat="43.0231640" lon="-5.8585290">
        <ele>776.6</ele>
        <time>2018-06-17T10:37:19Z</time>
      </trkpt>
      <trkpt lat="43.0231340" lon="-5.8585210">
        <ele>777.0</ele>
        <time>2018-06-17T10:37:23Z</time>
      </trkpt>
      <trkpt lat="43.0231740" lon="-5.8585350">
        <ele>777.0</ele>
        <time>2018-06-17T10:37:27Z</time>
      </trkpt>
      <trkpt lat="43.0231070" lon="-5.8587360">
        <ele>778.0</ele>
        <time>2018-06-17T10:37:36Z</time>
      </trkpt>
      <trkpt lat="43.0231000" lon="-5.8587610">
        <ele>778.2</ele>
        <time>2018-06-17T10:37:37Z</time>
      </trkpt>
      <trkpt lat="43.0230640" lon="-5.8589030">
        <ele>779.0</ele>
        <time>2018-06-17T10:37:43Z</time>
      </trkpt>
      <trkpt lat="43.0230600" lon="-5.8589280">
        <ele>779.4</ele>
        <time>2018-06-17T10:37:44Z</time>
      </trkpt>
      <trkpt lat="43.0230240" lon="-5.8590710">
        <ele>780.2</ele>
        <time>2018-06-17T10:37:50Z</time>
      </trkpt>
      <trkpt lat="43.0229910" lon="-5.8591890">
        <ele>781.2</ele>
        <time>2018-06-17T10:37:55Z</time>
      </trkpt>
      <trkpt lat="43.0229610" lon="-5.8593890">
        <ele>782.4</ele>
        <time>2018-06-17T10:38:03Z</time>
      </trkpt>
      <trkpt lat="43.0229680" lon="-5.8594920">
        <ele>783.6</ele>
        <time>2018-06-17T10:38:07Z</time>
      </trkpt>
      <trkpt lat="43.0230080" lon="-5.8596740">
        <ele>784.6</ele>
        <time>2018-06-17T10:38:14Z</time>
      </trkpt>
      <trkpt lat="43.0230600" lon="-5.8598610">
        <ele>785.6</ele>
        <time>2018-06-17T10:38:21Z</time>
      </trkpt>
      <trkpt lat="43.0231070" lon="-5.8600140">
        <ele>786.6</ele>
        <time>2018-06-17T10:38:27Z</time>
      </trkpt>
      <trkpt lat="43.0231420" lon="-5.8601160">
        <ele>787.4</ele>
        <time>2018-06-17T10:38:31Z</time>
      </trkpt>
      <trkpt lat="43.0231540" lon="-5.8603590">
        <ele>788.6</ele>
        <time>2018-06-17T10:38:39Z</time>
      </trkpt>
      <trkpt lat="43.0230770" lon="-5.8606080">
        <ele>789.6</ele>
        <time>2018-06-17T10:38:48Z</time>
      </trkpt>
      <trkpt lat="43.0230170" lon="-5.8607600">
        <ele>790.6</ele>
        <time>2018-06-17T10:38:54Z</time>
      </trkpt>
      <trkpt lat="43.0229400" lon="-5.8609710">
        <ele>791.8</ele>
        <time>2018-06-17T10:39:01Z</time>
      </trkpt>
      <trkpt lat="43.0228670" lon="-5.8611230">
        <ele>792.8</ele>
        <time>2018-06-17T10:39:07Z</time>
      </trkpt>
      <trkpt lat="43.0228070" lon="-5.8612250">
        <ele>793.8</ele>
        <time>2018-06-17T10:39:12Z</time>
      </trkpt>
      <trkpt lat="43.0228270" lon="-5.8613220">
        <ele>794.8</ele>
        <time>2018-06-17T10:39:17Z</time>
      </trkpt>
      <trkpt lat="43.0229340" lon="-5.8613660">
        <ele>796.0</ele>
        <time>2018-06-17T10:39:23Z</time>
      </trkpt>
      <trkpt lat="43.0230040" lon="-5.8613170">
        <ele>797.0</ele>
        <time>2018-06-17T10:39:29Z</time>
      </trkpt>
      <trkpt lat="43.0230990" lon="-5.8612110">
        <ele>798.0</ele>
        <time>2018-06-17T10:39:36Z</time>
      </trkpt>
      <trkpt lat="43.0231760" lon="-5.8610690">
        <ele>799.2</ele>
        <time>2018-06-17T10:39:42Z</time>
      </trkpt>
      <trkpt lat="43.0232220" lon="-5.8608680">
        <ele>800.2</ele>
        <time>2018-06-17T10:39:49Z</time>
      </trkpt>
      <trkpt lat="43.0233010" lon="-5.8606830">
        <ele>801.4</ele>
        <time>2018-06-17T10:39:56Z</time>
      </trkpt>
      <trkpt lat="43.0233420" lon="-5.8604860">
        <ele>802.4</ele>
        <time>2018-06-17T10:40:02Z</time>
      </trkpt>
      <trkpt lat="43.0234120" lon="-5.8602270">
        <ele>803.6</ele>
        <time>2018-06-17T10:40:10Z</time>
      </trkpt>
      <trkpt lat="43.0234690" lon="-5.8600940">
        <ele>804.8</ele>
        <time>2018-06-17T10:40:15Z</time>
      </trkpt>
      <trkpt lat="43.0236690" lon="-5.8601050">
        <ele>806.0</ele>
        <time>2018-06-17T10:40:23Z</time>
      </trkpt>
      <trkpt lat="43.0237140" lon="-5.8602550">
        <ele>807.0</ele>
        <time>2018-06-17T10:40:28Z</time>
      </trkpt>
      <trkpt lat="43.0236910" lon="-5.8604800">
        <ele>808.2</ele>
        <time>2018-06-17T10:40:36Z</time>
      </trkpt>
      <trkpt lat="43.0236410" lon="-5.8607450">
        <ele>809.2</ele>
        <time>2018-06-17T10:40:44Z</time>
      </trkpt>
      <trkpt lat="43.0235840" lon="-5.8609450">
        <ele>810.2</ele>
        <time>2018-06-17T10:40:50Z</time>
      </trkpt>
      <trkpt lat="43.0235000" lon="-5.8612030">
        <ele>811.4</ele>
        <time>2018-06-17T10:40:58Z</time>
      </trkpt>
      <trkpt lat="43.0234200" lon="-5.8613800">
        <ele>812.4</ele>
        <time>2018-06-17T10:41:04Z</time>
      </trkpt>
      <trkpt lat="43.0232700" lon="-5.8616000">
        <ele>813.6</ele>
        <time>2018-06-17T10:41:12Z</time>
      </trkpt>
      <trkpt lat="43.0231430" lon="-5.8617590">
        <ele>814.6</ele>
        <time>2018-06-17T10:41:19Z</time>
      </trkpt>
      <trkpt lat="43.0230720" lon="-5.8618510">
        <ele>815.6</ele>
        <time>2018-06-17T10:41:23Z</time>
      </trkpt>
      <trkpt lat="43.0229480" lon="-5.8620140">
        <ele>816.6</ele>
        <time>2018-06-17T10:41:30Z</time>
      </trkpt>
      <trkpt lat="43.0228560" lon="-5.8621360">
        <ele>818.0</ele>
        <time>2018-06-17T10:41:35Z</time>
      </trkpt>
      <trkpt lat="43.0227640" lon="-5.8623080">
        <ele>819.0</ele>
        <time>2018-06-17T10:41:41Z</time>
      </trkpt>
      <trkpt lat="43.0226860" lon="-5.8625170">
        <ele>820.0</ele>
        <time>2018-06-17T10:41:48Z</time>
      </trkpt>
      <trkpt lat="43.0226110" lon="-5.8626860">
        <ele>821.0</ele>
        <time>2018-06-17T10:41:54Z</time>
      </trkpt>
      <trkpt lat="43.0225030" lon="-5.8628000">
        <ele>822.0</ele>
        <time>2018-06-17T10:42:00Z</time>
      </trkpt>
      <trkpt lat="43.0224020" lon="-5.8629230">
        <ele>823.2</ele>
        <time>2018-06-17T10:42:06Z</time>
      </trkpt>
      <trkpt lat="43.0223430" lon="-5.8630430">
        <ele>824.4</ele>
        <time>2018-06-17T10:42:11Z</time>
      </trkpt>
      <trkpt lat="43.0223890" lon="-5.8631770">
        <ele>825.4</ele>
        <time>2018-06-17T10:42:16Z</time>
      </trkpt>
      <trkpt lat="43.0224600" lon="-5.8633480">
        <ele>826.4</ele>
        <time>2018-06-17T10:42:22Z</time>
      </trkpt>
      <trkpt lat="43.0225470" lon="-5.8634890">
        <ele>827.6</ele>
        <time>2018-06-17T10:42:28Z</time>
      </trkpt>
      <trkpt lat="43.0226440" lon="-5.8636300">
        <ele>828.6</ele>
        <time>2018-06-17T10:42:34Z</time>
      </trkpt>
      <trkpt lat="43.0226730" lon="-5.8636900">
        <ele>828.8</ele>
        <time>2018-06-17T10:42:36Z</time>
      </trkpt>
      <trkpt lat="43.0227220" lon="-5.8637900">
        <ele>829.8</ele>
        <time>2018-06-17T10:42:39Z</time>
      </trkpt>
      <trkpt lat="43.0228430" lon="-5.8641010">
        <ele>830.8</ele>
        <time>2018-06-17T10:42:48Z</time>
      </trkpt>
      <trkpt lat="43.0229820" lon="-5.8645420">
        <ele>831.8</ele>
        <time>2018-06-17T10:43:00Z</time>
      </trkpt>
      <trkpt lat="43.0229940" lon="-5.8645840">
        <ele>831.6</ele>
        <time>2018-06-17T10:43:01Z</time>
      </trkpt>
      <trkpt lat="43.0230670" lon="-5.8651290">
        <ele>832.2</ele>
        <time>2018-06-17T10:43:13Z</time>
      </trkpt>
      <trkpt lat="43.0230390" lon="-5.8654670">
        <ele>832.6</ele>
        <time>2018-06-17T10:43:20Z</time>
      </trkpt>
      <trkpt lat="43.0230340" lon="-5.8655190">
        <ele>832.6</ele>
        <time>2018-06-17T10:43:21Z</time>
      </trkpt>
      <trkpt lat="43.0230010" lon="-5.8657750">
        <ele>833.0</ele>
        <time>2018-06-17T10:43:26Z</time>
      </trkpt>
      <trkpt lat="43.0229750" lon="-5.8659770">
        <ele>833.2</ele>
        <time>2018-06-17T10:43:30Z</time>
      </trkpt>
      <trkpt lat="43.0229490" lon="-5.8661710">
        <ele>833.6</ele>
        <time>2018-06-17T10:43:34Z</time>
      </trkpt>
      <trkpt lat="43.0229380" lon="-5.8665410">
        <ele>833.8</ele>
        <time>2018-06-17T10:43:42Z</time>
      </trkpt>
      <trkpt lat="43.0229660" lon="-5.8669400">
        <ele>834.6</ele>
        <time>2018-06-17T10:43:51Z</time>
      </trkpt>
      <trkpt lat="43.0230200" lon="-5.8674370">
        <ele>835.6</ele>
        <time>2018-06-17T10:44:02Z</time>
      </trkpt>
      <trkpt lat="43.0227540" lon="-5.8679760">
        <ele>836.2</ele>
        <time>2018-06-17T10:44:19Z</time>
      </trkpt>
      <trkpt lat="43.0227130" lon="-5.8679780">
        <ele>836.6</ele>
        <time>2018-06-17T10:44:20Z</time>
      </trkpt>
      <trkpt lat="43.0224700" lon="-5.8682390">
        <ele>837.6</ele>
        <time>2018-06-17T10:44:29Z</time>
      </trkpt>
      <trkpt lat="43.0222460" lon="-5.8688500">
        <ele>838.6</ele>
        <time>2018-06-17T10:44:43Z</time>
      </trkpt>
      <trkpt lat="43.0220610" lon="-5.8695460">
        <ele>839.2</ele>
        <time>2018-06-17T10:44:58Z</time>
      </trkpt>
      <trkpt lat="43.0220330" lon="-5.8696300">
        <ele>839.4</ele>
        <time>2018-06-17T10:45:00Z</time>
      </trkpt>
      <trkpt lat="43.0218270" lon="-5.8698720">
        <ele>839.8</ele>
        <time>2018-06-17T10:45:09Z</time>
      </trkpt>
      <trkpt lat="43.0216330" lon="-5.8701570">
        <ele>840.6</ele>
        <time>2018-06-17T10:45:17Z</time>
      </trkpt>
      <trkpt lat="43.0215490" lon="-5.8705200">
        <ele>841.2</ele>
        <time>2018-06-17T10:45:26Z</time>
      </trkpt>
      <trkpt lat="43.0215020" lon="-5.8707370">
        <ele>841.2</ele>
        <time>2018-06-17T10:45:30Z</time>
      </trkpt>
      <trkpt lat="43.0214850" lon="-5.8708330">
        <ele>841.4</ele>
        <time>2018-06-17T10:45:32Z</time>
      </trkpt>
      <trkpt lat="43.0214140" lon="-5.8711080">
        <ele>842.0</ele>
        <time>2018-06-17T10:45:38Z</time>
      </trkpt>
      <trkpt lat="43.0214700" lon="-5.8715260">
        <ele>842.6</ele>
        <time>2018-06-17T10:45:47Z</time>
      </trkpt>
      <trkpt lat="43.0216850" lon="-5.8720110">
        <ele>843.8</ele>
        <time>2018-06-17T10:45:59Z</time>
      </trkpt>
      <trkpt lat="43.0217630" lon="-5.8725590">
        <ele>844.8</ele>
        <time>2018-06-17T10:46:10Z</time>
      </trkpt>
      <trkpt lat="43.0218720" lon="-5.8727010">
        <ele>846.0</ele>
        <time>2018-06-17T10:46:16Z</time>
      </trkpt>
      <trkpt lat="43.0219680" lon="-5.8727670">
        <ele>846.6</ele>
        <time>2018-06-17T10:46:20Z</time>
      </trkpt>
      <trkpt lat="43.0220340" lon="-5.8728630">
        <ele>847.0</ele>
        <time>2018-06-17T10:46:23Z</time>
      </trkpt>
      <trkpt lat="43.0220570" lon="-5.8728870">
        <ele>847.2</ele>
        <time>2018-06-17T10:46:24Z</time>
      </trkpt>
      <trkpt lat="43.0222250" lon="-5.8729380">
        <ele>848.2</ele>
        <time>2018-06-17T10:46:30Z</time>
      </trkpt>
      <trkpt lat="43.0223630" lon="-5.8729730">
        <ele>849.4</ele>
        <time>2018-06-17T10:46:35Z</time>
      </trkpt>
      <trkpt lat="43.0225520" lon="-5.8730810">
        <ele>850.2</ele>
        <time>2018-06-17T10:46:41Z</time>
      </trkpt>
      <trkpt lat="43.0225970" lon="-5.8731430">
        <ele>850.6</ele>
        <time>2018-06-17T10:46:43Z</time>
      </trkpt>
      <trkpt lat="43.0226750" lon="-5.8732690">
        <ele>851.8</ele>
        <time>2018-06-17T10:46:47Z</time>
      </trkpt>
      <trkpt lat="43.0227740" lon="-5.8734690">
        <ele>852.6</ele>
        <time>2018-06-17T10:46:53Z</time>
      </trkpt>
      <trkpt lat="43.0228740" lon="-5.8737150">
        <ele>853.8</ele>
        <time>2018-06-17T10:47:00Z</time>
      </trkpt>
      <trkpt lat="43.0229220" lon="-5.8738880">
        <ele>854.8</ele>
        <time>2018-06-17T10:47:05Z</time>
      </trkpt>
      <trkpt lat="43.0229180" lon="-5.8741360">
        <ele>855.8</ele>
        <time>2018-06-17T10:47:11Z</time>
      </trkpt>
      <trkpt lat="43.0227980" lon="-5.8744330">
        <ele>856.8</ele>
        <time>2018-06-17T10:47:19Z</time>
      </trkpt>
      <trkpt lat="43.0226920" lon="-5.8746230">
        <ele>857.8</ele>
        <time>2018-06-17T10:47:26Z</time>
      </trkpt>
      <trkpt lat="43.0225850" lon="-5.8748200">
        <ele>859.0</ele>
        <time>2018-06-17T10:47:33Z</time>
      </trkpt>
      <trkpt lat="43.0224780" lon="-5.8749780">
        <ele>860.0</ele>
        <time>2018-06-17T10:47:39Z</time>
      </trkpt>
      <trkpt lat="43.0223460" lon="-5.8751010">
        <ele>860.8</ele>
        <time>2018-06-17T10:47:45Z</time>
      </trkpt>
      <trkpt lat="43.0222250" lon="-5.8753410">
        <ele>861.8</ele>
        <time>2018-06-17T10:47:53Z</time>
      </trkpt>
      <trkpt lat="43.0221270" lon="-5.8755780">
        <ele>863.0</ele>
        <time>2018-06-17T10:48:01Z</time>
      </trkpt>
      <trkpt lat="43.0221060" lon="-5.8757710">
        <ele>864.0</ele>
        <time>2018-06-17T10:48:06Z</time>
      </trkpt>
      <trkpt lat="43.0220950" lon="-5.8759790">
        <ele>865.0</ele>
        <time>2018-06-17T10:48:11Z</time>
      </trkpt>
      <trkpt lat="43.0220720" lon="-5.8762000">
        <ele>866.2</ele>
        <time>2018-06-17T10:48:17Z</time>
      </trkpt>
      <trkpt lat="43.0220600" lon="-5.8763110">
        <ele>866.6</ele>
        <time>2018-06-17T10:48:20Z</time>
      </trkpt>
      <trkpt lat="43.0220600" lon="-5.8764770">
        <ele>867.4</ele>
        <time>2018-06-17T10:48:24Z</time>
      </trkpt>
      <trkpt lat="43.0220270" lon="-5.8767490">
        <ele>868.4</ele>
        <time>2018-06-17T10:48:31Z</time>
      </trkpt>
      <trkpt lat="43.0219860" lon="-5.8770400">
        <ele>869.6</ele>
        <time>2018-06-17T10:48:38Z</time>
      </trkpt>
      <trkpt lat="43.0219100" lon="-5.8773120">
        <ele>870.6</ele>
        <time>2018-06-17T10:48:46Z</time>
      </trkpt>
      <trkpt lat="43.0218060" lon="-5.8775260">
        <ele>871.8</ele>
        <time>2018-06-17T10:48:55Z</time>
      </trkpt>
      <trkpt lat="43.0217740" lon="-5.8775500">
        <ele>872.2</ele>
        <time>2018-06-17T10:48:58Z</time>
      </trkpt>
      <trkpt lat="43.0217610" lon="-5.8775850">
        <ele>872.6</ele>
        <time>2018-06-17T10:49:02Z</time>
      </trkpt>
      <trkpt lat="43.0214320" lon="-5.8776230">
        <ele>872.4</ele>
        <time>2018-06-17T10:53:24Z</time>
      </trkpt>
      <trkpt lat="43.0214040" lon="-5.8776270">
        <ele>872.4</ele>
        <time>2018-06-17T10:53:25Z</time>
      </trkpt>
      <trkpt lat="43.0213270" lon="-5.8776220">
        <ele>873.0</ele>
        <time>2018-06-17T10:53:28Z</time>
      </trkpt>
      <trkpt lat="43.0212390" lon="-5.8775940">
        <ele>873.4</ele>
        <time>2018-06-17T10:53:31Z</time>
      </trkpt>
      <trkpt lat="43.0211280" lon="-5.8775480">
        <ele>874.4</ele>
        <time>2018-06-17T10:53:36Z</time>
      </trkpt>
      <trkpt lat="43.0210380" lon="-5.8775110">
        <ele>875.0</ele>
        <time>2018-06-17T10:53:40Z</time>
      </trkpt>
      <trkpt lat="43.0210090" lon="-5.8774560">
        <ele>875.8</ele>
        <time>2018-06-17T10:53:43Z</time>
      </trkpt>
      <trkpt lat="43.0208630" lon="-5.8773790">
        <ele>876.8</ele>
        <time>2018-06-17T10:53:50Z</time>
      </trkpt>
      <trkpt lat="43.0206950" lon="-5.8773880">
        <ele>877.8</ele>
        <time>2018-06-17T10:53:57Z</time>
      </trkpt>
      <trkpt lat="43.0205620" lon="-5.8774380">
        <ele>879.0</ele>
        <time>2018-06-17T10:54:03Z</time>
      </trkpt>
      <trkpt lat="43.0203670" lon="-5.8775390">
        <ele>880.2</ele>
        <time>2018-06-17T10:54:10Z</time>
      </trkpt>
      <trkpt lat="43.0202550" lon="-5.8776830">
        <ele>881.4</ele>
        <time>2018-06-17T10:54:16Z</time>
      </trkpt>
      <trkpt lat="43.0201980" lon="-5.8779960">
        <ele>882.4</ele>
        <time>2018-06-17T10:54:25Z</time>
      </trkpt>
      <trkpt lat="43.0202140" lon="-5.8781780">
        <ele>883.6</ele>
        <time>2018-06-17T10:54:31Z</time>
      </trkpt>
      <trkpt lat="43.0202870" lon="-5.8784050">
        <ele>884.8</ele>
        <time>2018-06-17T10:54:39Z</time>
      </trkpt>
      <trkpt lat="43.0203480" lon="-5.8785510">
        <ele>885.6</ele>
        <time>2018-06-17T10:54:44Z</time>
      </trkpt>
      <trkpt lat="43.0204620" lon="-5.8787620">
        <ele>886.8</ele>
        <time>2018-06-17T10:54:52Z</time>
      </trkpt>
      <trkpt lat="43.0205350" lon="-5.8789330">
        <ele>887.8</ele>
        <time>2018-06-17T10:54:58Z</time>
      </trkpt>
      <trkpt lat="43.0206240" lon="-5.8791920">
        <ele>888.8</ele>
        <time>2018-06-17T10:55:06Z</time>
      </trkpt>
      <trkpt lat="43.0206900" lon="-5.8793920">
        <ele>890.0</ele>
        <time>2018-06-17T10:55:12Z</time>
      </trkpt>
      <trkpt lat="43.0207190" lon="-5.8796010">
        <ele>891.2</ele>
        <time>2018-06-17T10:55:18Z</time>
      </trkpt>
      <trkpt lat="43.0207090" lon="-5.8798690">
        <ele>892.2</ele>
        <time>2018-06-17T10:55:25Z</time>
      </trkpt>
      <trkpt lat="43.0206890" lon="-5.8801350">
        <ele>893.0</ele>
        <time>2018-06-17T10:55:32Z</time>
      </trkpt>
      <trkpt lat="43.0206780" lon="-5.8802810">
        <ele>894.0</ele>
        <time>2018-06-17T10:55:36Z</time>
      </trkpt>
      <trkpt lat="43.0206210" lon="-5.8805550">
        <ele>895.0</ele>
        <time>2018-06-17T10:55:43Z</time>
      </trkpt>
      <trkpt lat="43.0205420" lon="-5.8807050">
        <ele>896.0</ele>
        <time>2018-06-17T10:55:48Z</time>
      </trkpt>
      <trkpt lat="43.0204440" lon="-5.8808830">
        <ele>897.0</ele>
        <time>2018-06-17T10:55:54Z</time>
      </trkpt>
      <trkpt lat="43.0203480" lon="-5.8811660">
        <ele>898.0</ele>
        <time>2018-06-17T10:56:02Z</time>
      </trkpt>
      <trkpt lat="43.0202620" lon="-5.8814080">
        <ele>899.2</ele>
        <time>2018-06-17T10:56:09Z</time>
      </trkpt>
      <trkpt lat="43.0201980" lon="-5.8815800">
        <ele>900.4</ele>
        <time>2018-06-17T10:56:14Z</time>
      </trkpt>
      <trkpt lat="43.0199890" lon="-5.8818110">
        <ele>901.6</ele>
        <time>2018-06-17T10:56:23Z</time>
      </trkpt>
      <trkpt lat="43.0198080" lon="-5.8819550">
        <ele>902.6</ele>
        <time>2018-06-17T10:56:30Z</time>
      </trkpt>
      <trkpt lat="43.0196960" lon="-5.8820870">
        <ele>903.6</ele>
        <time>2018-06-17T10:56:35Z</time>
      </trkpt>
      <trkpt lat="43.0195680" lon="-5.8822570">
        <ele>904.8</ele>
        <time>2018-06-17T10:56:41Z</time>
      </trkpt>
      <trkpt lat="43.0194410" lon="-5.8824730">
        <ele>905.6</ele>
        <time>2018-06-17T10:56:48Z</time>
      </trkpt>
      <trkpt lat="43.0194040" lon="-5.8826710">
        <ele>906.6</ele>
        <time>2018-06-17T10:56:53Z</time>
      </trkpt>
      <trkpt lat="43.0194210" lon="-5.8828830">
        <ele>907.8</ele>
        <time>2018-06-17T10:56:58Z</time>
      </trkpt>
      <trkpt lat="43.0194650" lon="-5.8831890">
        <ele>909.0</ele>
        <time>2018-06-17T10:57:06Z</time>
      </trkpt>
      <trkpt lat="43.0195000" lon="-5.8833800">
        <ele>910.0</ele>
        <time>2018-06-17T10:57:11Z</time>
      </trkpt>
      <trkpt lat="43.0194790" lon="-5.8836760">
        <ele>911.0</ele>
        <time>2018-06-17T10:57:18Z</time>
      </trkpt>
      <trkpt lat="43.0193860" lon="-5.8838240">
        <ele>912.0</ele>
        <time>2018-06-17T10:57:23Z</time>
      </trkpt>
      <trkpt lat="43.0192530" lon="-5.8839860">
        <ele>913.2</ele>
        <time>2018-06-17T10:57:29Z</time>
      </trkpt>
      <trkpt lat="43.0191060" lon="-5.8841690">
        <ele>914.2</ele>
        <time>2018-06-17T10:57:36Z</time>
      </trkpt>
      <trkpt lat="43.0189920" lon="-5.8843420">
        <ele>915.2</ele>
        <time>2018-06-17T10:57:42Z</time>
      </trkpt>
      <trkpt lat="43.0189640" lon="-5.8845530">
        <ele>916.2</ele>
        <time>2018-06-17T10:57:48Z</time>
      </trkpt>
      <trkpt lat="43.0189530" lon="-5.8847390">
        <ele>917.4</ele>
        <time>2018-06-17T10:57:53Z</time>
      </trkpt>
      <trkpt lat="43.0188580" lon="-5.8849880">
        <ele>918.4</ele>
        <time>2018-06-17T10:58:00Z</time>
      </trkpt>
      <trkpt lat="43.0187280" lon="-5.8852210">
        <ele>919.6</ele>
        <time>2018-06-17T10:58:07Z</time>
      </trkpt>
      <trkpt lat="43.0186050" lon="-5.8854600">
        <ele>920.6</ele>
        <time>2018-06-17T10:58:14Z</time>
      </trkpt>
      <trkpt lat="43.0185060" lon="-5.8856590">
        <ele>921.8</ele>
        <time>2018-06-17T10:58:20Z</time>
      </trkpt>
      <trkpt lat="43.0184380" lon="-5.8858310">
        <ele>923.0</ele>
        <time>2018-06-17T10:58:25Z</time>
      </trkpt>
      <trkpt lat="43.0183900" lon="-5.8859600">
        <ele>924.2</ele>
        <time>2018-06-17T10:58:29Z</time>
      </trkpt>
      <trkpt lat="43.0184130" lon="-5.8861140">
        <ele>925.2</ele>
        <time>2018-06-17T10:58:34Z</time>
      </trkpt>
      <trkpt lat="43.0183980" lon="-5.8865670">
        <ele>926.6</ele>
        <time>2018-06-17T10:58:45Z</time>
      </trkpt>
      <trkpt lat="43.0183360" lon="-5.8867540">
        <ele>927.8</ele>
        <time>2018-06-17T10:58:50Z</time>
      </trkpt>
      <trkpt lat="43.0182590" lon="-5.8869800">
        <ele>928.8</ele>
        <time>2018-06-17T10:58:56Z</time>
      </trkpt>
      <trkpt lat="43.0181930" lon="-5.8871820">
        <ele>930.0</ele>
        <time>2018-06-17T10:59:02Z</time>
      </trkpt>
      <trkpt lat="43.0181370" lon="-5.8873460">
        <ele>931.0</ele>
        <time>2018-06-17T10:59:07Z</time>
      </trkpt>
      <trkpt lat="43.0180900" lon="-5.8874870">
        <ele>932.0</ele>
        <time>2018-06-17T10:59:11Z</time>
      </trkpt>
      <trkpt lat="43.0181190" lon="-5.8877320">
        <ele>933.2</ele>
        <time>2018-06-17T10:59:18Z</time>
      </trkpt>
      <trkpt lat="43.0181970" lon="-5.8879490">
        <ele>934.0</ele>
        <time>2018-06-17T10:59:24Z</time>
      </trkpt>
      <trkpt lat="43.0182840" lon="-5.8882300">
        <ele>935.2</ele>
        <time>2018-06-17T10:59:32Z</time>
      </trkpt>
      <trkpt lat="43.0182930" lon="-5.8884490">
        <ele>936.2</ele>
        <time>2018-06-17T10:59:38Z</time>
      </trkpt>
      <trkpt lat="43.0182820" lon="-5.8885870">
        <ele>937.2</ele>
        <time>2018-06-17T10:59:42Z</time>
      </trkpt>
      <trkpt lat="43.0182800" lon="-5.8887780">
        <ele>938.4</ele>
        <time>2018-06-17T10:59:48Z</time>
      </trkpt>
      <trkpt lat="43.0183260" lon="-5.8889550">
        <ele>939.4</ele>
        <time>2018-06-17T10:59:53Z</time>
      </trkpt>
      <trkpt lat="43.0183990" lon="-5.8891350">
        <ele>940.2</ele>
        <time>2018-06-17T10:59:58Z</time>
      </trkpt>
      <trkpt lat="43.0184070" lon="-5.8894450">
        <ele>941.4</ele>
        <time>2018-06-17T11:00:06Z</time>
      </trkpt>
      <trkpt lat="43.0183480" lon="-5.8896020">
        <ele>942.4</ele>
        <time>2018-06-17T11:00:11Z</time>
      </trkpt>
      <trkpt lat="43.0182140" lon="-5.8897090">
        <ele>943.4</ele>
        <time>2018-06-17T11:00:17Z</time>
      </trkpt>
      <trkpt lat="43.0180940" lon="-5.8897830">
        <ele>944.4</ele>
        <time>2018-06-17T11:00:22Z</time>
      </trkpt>
      <trkpt lat="43.0179570" lon="-5.8898980">
        <ele>945.6</ele>
        <time>2018-06-17T11:00:28Z</time>
      </trkpt>
      <trkpt lat="43.0178930" lon="-5.8900060">
        <ele>946.6</ele>
        <time>2018-06-17T11:00:32Z</time>
      </trkpt>
      <trkpt lat="43.0178080" lon="-5.8901950">
        <ele>947.4</ele>
        <time>2018-06-17T11:00:38Z</time>
      </trkpt>
      <trkpt lat="43.0177580" lon="-5.8903660">
        <ele>948.6</ele>
        <time>2018-06-17T11:00:43Z</time>
      </trkpt>
      <trkpt lat="43.0177260" lon="-5.8905370">
        <ele>949.6</ele>
        <time>2018-06-17T11:00:48Z</time>
      </trkpt>
      <trkpt lat="43.0177200" lon="-5.8907420">
        <ele>950.8</ele>
        <time>2018-06-17T11:00:54Z</time>
      </trkpt>
      <trkpt lat="43.0177830" lon="-5.8908850">
        <ele>951.6</ele>
        <time>2018-06-17T11:00:59Z</time>
      </trkpt>
      <trkpt lat="43.0178720" lon="-5.8909900">
        <ele>952.8</ele>
        <time>2018-06-17T11:01:05Z</time>
      </trkpt>
      <trkpt lat="43.0179900" lon="-5.8911290">
        <ele>953.8</ele>
        <time>2018-06-17T11:01:11Z</time>
      </trkpt>
      <trkpt lat="43.0180740" lon="-5.8912880">
        <ele>954.6</ele>
        <time>2018-06-17T11:01:16Z</time>
      </trkpt>
      <trkpt lat="43.0181600" lon="-5.8915160">
        <ele>955.8</ele>
        <time>2018-06-17T11:01:23Z</time>
      </trkpt>
      <trkpt lat="43.0181980" lon="-5.8916980">
        <ele>957.0</ele>
        <time>2018-06-17T11:01:28Z</time>
      </trkpt>
      <trkpt lat="43.0182270" lon="-5.8919080">
        <ele>958.0</ele>
        <time>2018-06-17T11:01:34Z</time>
      </trkpt>
      <trkpt lat="43.0182440" lon="-5.8920880">
        <ele>959.2</ele>
        <time>2018-06-17T11:01:39Z</time>
      </trkpt>
      <trkpt lat="43.0182630" lon="-5.8922590">
        <ele>960.4</ele>
        <time>2018-06-17T11:01:44Z</time>
      </trkpt>
      <trkpt lat="43.0183120" lon="-5.8924260">
        <ele>961.2</ele>
        <time>2018-06-17T11:01:49Z</time>
      </trkpt>
      <trkpt lat="43.0183830" lon="-5.8925810">
        <ele>962.2</ele>
        <time>2018-06-17T11:01:54Z</time>
      </trkpt>
      <trkpt lat="43.0184730" lon="-5.8927940">
        <ele>963.4</ele>
        <time>2018-06-17T11:02:01Z</time>
      </trkpt>
      <trkpt lat="43.0185370" lon="-5.8929480">
        <ele>964.4</ele>
        <time>2018-06-17T11:02:06Z</time>
      </trkpt>
      <trkpt lat="43.0186250" lon="-5.8931650">
        <ele>965.6</ele>
        <time>2018-06-17T11:02:13Z</time>
      </trkpt>
      <trkpt lat="43.0186820" lon="-5.8933650">
        <ele>966.6</ele>
        <time>2018-06-17T11:02:19Z</time>
      </trkpt>
      <trkpt lat="43.0187030" lon="-5.8935090">
        <ele>967.6</ele>
        <time>2018-06-17T11:02:23Z</time>
      </trkpt>
      <trkpt lat="43.0186980" lon="-5.8938090">
        <ele>968.4</ele>
        <time>2018-06-17T11:02:31Z</time>
      </trkpt>
      <trkpt lat="43.0186680" lon="-5.8940670">
        <ele>969.6</ele>
        <time>2018-06-17T11:02:38Z</time>
      </trkpt>
      <trkpt lat="43.0186100" lon="-5.8943610">
        <ele>970.6</ele>
        <time>2018-06-17T11:02:46Z</time>
      </trkpt>
      <trkpt lat="43.0185410" lon="-5.8946420">
        <ele>971.6</ele>
        <time>2018-06-17T11:02:53Z</time>
      </trkpt>
      <trkpt lat="43.0184840" lon="-5.8948770">
        <ele>972.4</ele>
        <time>2018-06-17T11:02:59Z</time>
      </trkpt>
      <trkpt lat="43.0184310" lon="-5.8951120">
        <ele>973.6</ele>
        <time>2018-06-17T11:03:05Z</time>
      </trkpt>
      <trkpt lat="43.0183820" lon="-5.8953490">
        <ele>974.4</ele>
        <time>2018-06-17T11:03:11Z</time>
      </trkpt>
      <trkpt lat="43.0183780" lon="-5.8953920">
        <ele>974.4</ele>
        <time>2018-06-17T11:03:12Z</time>
      </trkpt>
      <trkpt lat="43.0184130" lon="-5.8956870">
        <ele>975.4</ele>
        <time>2018-06-17T11:03:19Z</time>
      </trkpt>
      <trkpt lat="43.0182360" lon="-5.8961810">
        <ele>976.0</ele>
        <time>2018-06-17T11:03:31Z</time>
      </trkpt>
      <trkpt lat="43.0182110" lon="-5.8962250">
        <ele>976.0</ele>
        <time>2018-06-17T11:03:32Z</time>
      </trkpt>
      <trkpt lat="43.0181660" lon="-5.8964230">
        <ele>976.4</ele>
        <time>2018-06-17T11:03:36Z</time>
      </trkpt>
      <trkpt lat="43.0182010" lon="-5.8965780">
        <ele>976.6</ele>
        <time>2018-06-17T11:03:39Z</time>
      </trkpt>
      <trkpt lat="43.0183000" lon="-5.8968670">
        <ele>977.4</ele>
        <time>2018-06-17T11:03:45Z</time>
      </trkpt>
      <trkpt lat="43.0184290" lon="-5.8970550">
        <ele>978.4</ele>
        <time>2018-06-17T11:03:50Z</time>
      </trkpt>
      <trkpt lat="43.0186330" lon="-5.8972380">
        <ele>979.4</ele>
        <time>2018-06-17T11:03:57Z</time>
      </trkpt>
      <trkpt lat="43.0187420" lon="-5.8973670">
        <ele>980.6</ele>
        <time>2018-06-17T11:04:01Z</time>
      </trkpt>
      <trkpt lat="43.0188930" lon="-5.8975680">
        <ele>981.6</ele>
        <time>2018-06-17T11:04:08Z</time>
      </trkpt>
      <trkpt lat="43.0189780" lon="-5.8977110">
        <ele>982.6</ele>
        <time>2018-06-17T11:04:13Z</time>
      </trkpt>
      <trkpt lat="43.0190390" lon="-5.8978800">
        <ele>983.8</ele>
        <time>2018-06-17T11:04:18Z</time>
      </trkpt>
      <trkpt lat="43.0190930" lon="-5.8980300">
        <ele>985.0</ele>
        <time>2018-06-17T11:04:23Z</time>
      </trkpt>
      <trkpt lat="43.0191340" lon="-5.8981470">
        <ele>986.0</ele>
        <time>2018-06-17T11:04:27Z</time>
      </trkpt>
      <trkpt lat="43.0191940" lon="-5.8982700">
        <ele>987.0</ele>
        <time>2018-06-17T11:04:32Z</time>
      </trkpt>
      <trkpt lat="43.0192770" lon="-5.8983940">
        <ele>988.4</ele>
        <time>2018-06-17T11:04:37Z</time>
      </trkpt>
      <trkpt lat="43.0193400" lon="-5.8985060">
        <ele>989.2</ele>
        <time>2018-06-17T11:04:41Z</time>
      </trkpt>
      <trkpt lat="43.0194140" lon="-5.8987500">
        <ele>990.2</ele>
        <time>2018-06-17T11:04:48Z</time>
      </trkpt>
      <trkpt lat="43.0194660" lon="-5.8988940">
        <ele>991.6</ele>
        <time>2018-06-17T11:04:53Z</time>
      </trkpt>
      <trkpt lat="43.0195640" lon="-5.8990940">
        <ele>992.6</ele>
        <time>2018-06-17T11:05:00Z</time>
      </trkpt>
      <trkpt lat="43.0196240" lon="-5.8992010">
        <ele>993.2</ele>
        <time>2018-06-17T11:05:04Z</time>
      </trkpt>
      <trkpt lat="43.0196420" lon="-5.8992240">
        <ele>993.4</ele>
        <time>2018-06-17T11:05:05Z</time>
      </trkpt>
      <trkpt lat="43.0197420" lon="-5.8993400">
        <ele>994.4</ele>
        <time>2018-06-17T11:05:11Z</time>
      </trkpt>
      <trkpt lat="43.0198230" lon="-5.8994340">
        <ele>995.4</ele>
        <time>2018-06-17T11:05:16Z</time>
      </trkpt>
      <trkpt lat="43.0199300" lon="-5.8995750">
        <ele>996.4</ele>
        <time>2018-06-17T11:05:22Z</time>
      </trkpt>
      <trkpt lat="43.0200170" lon="-5.8997180">
        <ele>997.4</ele>
        <time>2018-06-17T11:05:27Z</time>
      </trkpt>
      <trkpt lat="43.0201450" lon="-5.8998890">
        <ele>998.4</ele>
        <time>2018-06-17T11:05:34Z</time>
      </trkpt>
      <trkpt lat="43.0202200" lon="-5.8999770">
        <ele>999.6</ele>
        <time>2018-06-17T11:05:38Z</time>
      </trkpt>
      <trkpt lat="43.0203330" lon="-5.9000870">
        <ele>1000.6</ele>
        <time>2018-06-17T11:05:44Z</time>
      </trkpt>
      <trkpt lat="43.0204580" lon="-5.9001840">
        <ele>1001.8</ele>
        <time>2018-06-17T11:05:50Z</time>
      </trkpt>
      <trkpt lat="43.0205650" lon="-5.9002690">
        <ele>1002.8</ele>
        <time>2018-06-17T11:05:55Z</time>
      </trkpt>
      <trkpt lat="43.0206710" lon="-5.9003550">
        <ele>1003.6</ele>
        <time>2018-06-17T11:06:00Z</time>
      </trkpt>
      <trkpt lat="43.0207760" lon="-5.9004360">
        <ele>1004.8</ele>
        <time>2018-06-17T11:06:05Z</time>
      </trkpt>
      <trkpt lat="43.0208700" lon="-5.9005050">
        <ele>1005.6</ele>
        <time>2018-06-17T11:06:10Z</time>
      </trkpt>
      <trkpt lat="43.0209500" lon="-5.9005850">
        <ele>1006.8</ele>
        <time>2018-06-17T11:06:15Z</time>
      </trkpt>
      <trkpt lat="43.0210550" lon="-5.9006870">
        <ele>1007.8</ele>
        <time>2018-06-17T11:06:21Z</time>
      </trkpt>
      <trkpt lat="43.0211570" lon="-5.9008000">
        <ele>1009.0</ele>
        <time>2018-06-17T11:06:26Z</time>
      </trkpt>
      <trkpt lat="43.0212670" lon="-5.9009120">
        <ele>1009.8</ele>
        <time>2018-06-17T11:06:31Z</time>
      </trkpt>
      <trkpt lat="43.0213120" lon="-5.9009550">
        <ele>1010.2</ele>
        <time>2018-06-17T11:06:33Z</time>
      </trkpt>
      <trkpt lat="43.0214000" lon="-5.9010320">
        <ele>1011.0</ele>
        <time>2018-06-17T11:06:37Z</time>
      </trkpt>
      <trkpt lat="43.0215050" lon="-5.9011130">
        <ele>1012.0</ele>
        <time>2018-06-17T11:06:42Z</time>
      </trkpt>
      <trkpt lat="43.0216170" lon="-5.9011650">
        <ele>1012.8</ele>
        <time>2018-06-17T11:06:47Z</time>
      </trkpt>
      <trkpt lat="43.0217300" lon="-5.9012290">
        <ele>1014.0</ele>
        <time>2018-06-17T11:06:53Z</time>
      </trkpt>
      <trkpt lat="43.0217790" lon="-5.9012730">
        <ele>1014.8</ele>
        <time>2018-06-17T11:06:58Z</time>
      </trkpt>
      <trkpt lat="43.0219100" lon="-5.9013680">
        <ele>1016.0</ele>
        <time>2018-06-17T11:07:04Z</time>
      </trkpt>
      <trkpt lat="43.0220340" lon="-5.9014480">
        <ele>1017.2</ele>
        <time>2018-06-17T11:07:09Z</time>
      </trkpt>
      <trkpt lat="43.0221690" lon="-5.9015720">
        <ele>1018.2</ele>
        <time>2018-06-17T11:07:15Z</time>
      </trkpt>
      <trkpt lat="43.0222860" lon="-5.9017450">
        <ele>1019.2</ele>
        <time>2018-06-17T11:07:21Z</time>
      </trkpt>
      <trkpt lat="43.0223510" lon="-5.9019500">
        <ele>1020.0</ele>
        <time>2018-06-17T11:07:27Z</time>
      </trkpt>
      <trkpt lat="43.0223660" lon="-5.9022110">
        <ele>1021.2</ele>
        <time>2018-06-17T11:07:34Z</time>
      </trkpt>
      <trkpt lat="43.0223020" lon="-5.9024960">
        <ele>1022.0</ele>
        <time>2018-06-17T11:07:42Z</time>
      </trkpt>
      <trkpt lat="43.0222270" lon="-5.9027230">
        <ele>1023.0</ele>
        <time>2018-06-17T11:07:49Z</time>
      </trkpt>
      <trkpt lat="43.0222290" lon="-5.9028170">
        <ele>1024.2</ele>
        <time>2018-06-17T11:07:52Z</time>
      </trkpt>
      <trkpt lat="43.0223090" lon="-5.9029640">
        <ele>1025.2</ele>
        <time>2018-06-17T11:07:58Z</time>
      </trkpt>
      <trkpt lat="43.0223910" lon="-5.9029890">
        <ele>1026.4</ele>
        <time>2018-06-17T11:08:02Z</time>
      </trkpt>
      <trkpt lat="43.0225090" lon="-5.9028820">
        <ele>1027.2</ele>
        <time>2018-06-17T11:08:08Z</time>
      </trkpt>
      <trkpt lat="43.0226330" lon="-5.9026220">
        <ele>1028.0</ele>
        <time>2018-06-17T11:08:16Z</time>
      </trkpt>
      <trkpt lat="43.0226780" lon="-5.9023590">
        <ele>1029.0</ele>
        <time>2018-06-17T11:08:23Z</time>
      </trkpt>
      <trkpt lat="43.0226440" lon="-5.9021320">
        <ele>1030.2</ele>
        <time>2018-06-17T11:08:29Z</time>
      </trkpt>
      <trkpt lat="43.0226320" lon="-5.9019150">
        <ele>1031.4</ele>
        <time>2018-06-17T11:08:35Z</time>
      </trkpt>
      <trkpt lat="43.0227180" lon="-5.9016960">
        <ele>1032.4</ele>
        <time>2018-06-17T11:08:43Z</time>
      </trkpt>
      <trkpt lat="43.0227550" lon="-5.9016870">
        <ele>1032.8</ele>
        <time>2018-06-17T11:08:45Z</time>
      </trkpt>
      <trkpt lat="43.0228190" lon="-5.9017180">
        <ele>1033.4</ele>
        <time>2018-06-17T11:08:48Z</time>
      </trkpt>
      <trkpt lat="43.0229640" lon="-5.9018760">
        <ele>1034.4</ele>
        <time>2018-06-17T11:08:54Z</time>
      </trkpt>
      <trkpt lat="43.0230230" lon="-5.9020340">
        <ele>1035.4</ele>
        <time>2018-06-17T11:08:59Z</time>
      </trkpt>
      <trkpt lat="43.0230450" lon="-5.9022130">
        <ele>1036.4</ele>
        <time>2018-06-17T11:09:04Z</time>
      </trkpt>
      <trkpt lat="43.0230320" lon="-5.9023860">
        <ele>1037.6</ele>
        <time>2018-06-17T11:09:09Z</time>
      </trkpt>
      <trkpt lat="43.0229700" lon="-5.9026360">
        <ele>1038.6</ele>
        <time>2018-06-17T11:09:17Z</time>
      </trkpt>
      <trkpt lat="43.0229300" lon="-5.9027920">
        <ele>1040.0</ele>
        <time>2018-06-17T11:09:22Z</time>
      </trkpt>
      <trkpt lat="43.0228930" lon="-5.9030360">
        <ele>1040.8</ele>
        <time>2018-06-17T11:09:29Z</time>
      </trkpt>
      <trkpt lat="43.0229290" lon="-5.9031810">
        <ele>1042.0</ele>
        <time>2018-06-17T11:09:34Z</time>
      </trkpt>
      <trkpt lat="43.0229940" lon="-5.9033100">
        <ele>1043.2</ele>
        <time>2018-06-17T11:09:39Z</time>
      </trkpt>
      <trkpt lat="43.0230750" lon="-5.9034460">
        <ele>1044.2</ele>
        <time>2018-06-17T11:09:45Z</time>
      </trkpt>
      <trkpt lat="43.0231210" lon="-5.9035400">
        <ele>1045.2</ele>
        <time>2018-06-17T11:09:49Z</time>
      </trkpt>
      <trkpt lat="43.0231450" lon="-5.9036920">
        <ele>1046.2</ele>
        <time>2018-06-17T11:09:54Z</time>
      </trkpt>
      <trkpt lat="43.0230830" lon="-5.9038930">
        <ele>1047.2</ele>
        <time>2018-06-17T11:10:01Z</time>
      </trkpt>
      <trkpt lat="43.0230120" lon="-5.9040130">
        <ele>1048.2</ele>
        <time>2018-06-17T11:10:06Z</time>
      </trkpt>
      <trkpt lat="43.0229610" lon="-5.9041450">
        <ele>1049.2</ele>
        <time>2018-06-17T11:10:11Z</time>
      </trkpt>
      <trkpt lat="43.0229550" lon="-5.9042860">
        <ele>1050.2</ele>
        <time>2018-06-17T11:10:16Z</time>
      </trkpt>
      <trkpt lat="43.0229910" lon="-5.9043910">
        <ele>1051.2</ele>
        <time>2018-06-17T11:10:20Z</time>
      </trkpt>
      <trkpt lat="43.0230620" lon="-5.9045160">
        <ele>1052.2</ele>
        <time>2018-06-17T11:10:25Z</time>
      </trkpt>
      <trkpt lat="43.0231530" lon="-5.9046610">
        <ele>1053.4</ele>
        <time>2018-06-17T11:10:31Z</time>
      </trkpt>
      <trkpt lat="43.0232420" lon="-5.9048040">
        <ele>1054.2</ele>
        <time>2018-06-17T11:10:37Z</time>
      </trkpt>
      <trkpt lat="43.0233430" lon="-5.9049720">
        <ele>1055.4</ele>
        <time>2018-06-17T11:10:44Z</time>
      </trkpt>
      <trkpt lat="43.0234090" lon="-5.9050970">
        <ele>1056.6</ele>
        <time>2018-06-17T11:10:49Z</time>
      </trkpt>
      <trkpt lat="43.0234850" lon="-5.9052480">
        <ele>1057.6</ele>
        <time>2018-06-17T11:10:55Z</time>
      </trkpt>
      <trkpt lat="43.0235590" lon="-5.9054010">
        <ele>1058.8</ele>
        <time>2018-06-17T11:11:01Z</time>
      </trkpt>
      <trkpt lat="43.0236250" lon="-5.9055530">
        <ele>1060.0</ele>
        <time>2018-06-17T11:11:07Z</time>
      </trkpt>
      <trkpt lat="43.0236920" lon="-5.9057060">
        <ele>1061.0</ele>
        <time>2018-06-17T11:11:13Z</time>
      </trkpt>
      <trkpt lat="43.0237450" lon="-5.9057970">
        <ele>1062.2</ele>
        <time>2018-06-17T11:11:17Z</time>
      </trkpt>
      <trkpt lat="43.0238010" lon="-5.9059370">
        <ele>1063.2</ele>
        <time>2018-06-17T11:11:22Z</time>
      </trkpt>
      <trkpt lat="43.0238200" lon="-5.9060570">
        <ele>1064.0</ele>
        <time>2018-06-17T11:11:26Z</time>
      </trkpt>
      <trkpt lat="43.0238270" lon="-5.9062820">
        <ele>1065.2</ele>
        <time>2018-06-17T11:11:33Z</time>
      </trkpt>
      <trkpt lat="43.0238350" lon="-5.9064350">
        <ele>1066.2</ele>
        <time>2018-06-17T11:11:38Z</time>
      </trkpt>
      <trkpt lat="43.0238510" lon="-5.9065800">
        <ele>1067.0</ele>
        <time>2018-06-17T11:11:43Z</time>
      </trkpt>
      <trkpt lat="43.0238660" lon="-5.9067270">
        <ele>1068.2</ele>
        <time>2018-06-17T11:11:48Z</time>
      </trkpt>
      <trkpt lat="43.0238900" lon="-5.9068760">
        <ele>1069.2</ele>
        <time>2018-06-17T11:11:53Z</time>
      </trkpt>
      <trkpt lat="43.0239100" lon="-5.9070210">
        <ele>1070.2</ele>
        <time>2018-06-17T11:11:58Z</time>
      </trkpt>
      <trkpt lat="43.0239470" lon="-5.9072200">
        <ele>1071.2</ele>
        <time>2018-06-17T11:12:05Z</time>
      </trkpt>
      <trkpt lat="43.0239740" lon="-5.9073260">
        <ele>1072.2</ele>
        <time>2018-06-17T11:12:09Z</time>
      </trkpt>
      <trkpt lat="43.0240090" lon="-5.9074720">
        <ele>1073.2</ele>
        <time>2018-06-17T11:12:14Z</time>
      </trkpt>
      <trkpt lat="43.0240500" lon="-5.9076170">
        <ele>1074.2</ele>
        <time>2018-06-17T11:12:19Z</time>
      </trkpt>
      <trkpt lat="43.0241000" lon="-5.9077890">
        <ele>1075.2</ele>
        <time>2018-06-17T11:12:25Z</time>
      </trkpt>
      <trkpt lat="43.0241660" lon="-5.9079600">
        <ele>1076.2</ele>
        <time>2018-06-17T11:12:31Z</time>
      </trkpt>
      <trkpt lat="43.0242250" lon="-5.9080930">
        <ele>1077.2</ele>
        <time>2018-06-17T11:12:36Z</time>
      </trkpt>
      <trkpt lat="43.0243020" lon="-5.9082750">
        <ele>1078.4</ele>
        <time>2018-06-17T11:12:43Z</time>
      </trkpt>
      <trkpt lat="43.0243540" lon="-5.9084020">
        <ele>1079.4</ele>
        <time>2018-06-17T11:12:48Z</time>
      </trkpt>
      <trkpt lat="43.0244230" lon="-5.9085560">
        <ele>1080.4</ele>
        <time>2018-06-17T11:12:54Z</time>
      </trkpt>
      <trkpt lat="43.0245080" lon="-5.9086600">
        <ele>1081.6</ele>
        <time>2018-06-17T11:12:59Z</time>
      </trkpt>
      <trkpt lat="43.0245790" lon="-5.9087650">
        <ele>1082.6</ele>
        <time>2018-06-17T11:13:04Z</time>
      </trkpt>
      <trkpt lat="43.0246820" lon="-5.9088730">
        <ele>1083.8</ele>
        <time>2018-06-17T11:13:10Z</time>
      </trkpt>
      <trkpt lat="43.0247960" lon="-5.9089950">
        <ele>1084.8</ele>
        <time>2018-06-17T11:13:16Z</time>
      </trkpt>
      <trkpt lat="43.0248700" lon="-5.9091120">
        <ele>1086.2</ele>
        <time>2018-06-17T11:13:21Z</time>
      </trkpt>
      <trkpt lat="43.0249310" lon="-5.9092370">
        <ele>1087.2</ele>
        <time>2018-06-17T11:13:26Z</time>
      </trkpt>
      <trkpt lat="43.0249890" lon="-5.9093910">
        <ele>1088.0</ele>
        <time>2018-06-17T11:13:32Z</time>
      </trkpt>
      <trkpt lat="43.0250440" lon="-5.9095200">
        <ele>1089.0</ele>
        <time>2018-06-17T11:13:37Z</time>
      </trkpt>
      <trkpt lat="43.0250910" lon="-5.9096460">
        <ele>1090.2</ele>
        <time>2018-06-17T11:13:42Z</time>
      </trkpt>
      <trkpt lat="43.0251480" lon="-5.9098080">
        <ele>1091.2</ele>
        <time>2018-06-17T11:13:48Z</time>
      </trkpt>
      <trkpt lat="43.0251950" lon="-5.9100040">
        <ele>1092.2</ele>
        <time>2018-06-17T11:13:55Z</time>
      </trkpt>
      <trkpt lat="43.0251820" lon="-5.9101870">
        <ele>1093.4</ele>
        <time>2018-06-17T11:14:01Z</time>
      </trkpt>
      <trkpt lat="43.0251480" lon="-5.9103200">
        <ele>1094.6</ele>
        <time>2018-06-17T11:14:06Z</time>
      </trkpt>
      <trkpt lat="43.0251250" lon="-5.9104520">
        <ele>1095.4</ele>
        <time>2018-06-17T11:14:11Z</time>
      </trkpt>
      <trkpt lat="43.0251220" lon="-5.9105810">
        <ele>1096.6</ele>
        <time>2018-06-17T11:14:16Z</time>
      </trkpt>
      <trkpt lat="43.0251320" lon="-5.9107510">
        <ele>1097.6</ele>
        <time>2018-06-17T11:14:22Z</time>
      </trkpt>
      <trkpt lat="43.0251620" lon="-5.9108850">
        <ele>1098.6</ele>
        <time>2018-06-17T11:14:27Z</time>
      </trkpt>
      <trkpt lat="43.0251970" lon="-5.9110240">
        <ele>1099.8</ele>
        <time>2018-06-17T11:14:32Z</time>
      </trkpt>
      <trkpt lat="43.0252430" lon="-5.9112050">
        <ele>1100.6</ele>
        <time>2018-06-17T11:14:38Z</time>
      </trkpt>
      <trkpt lat="43.0253190" lon="-5.9113470">
        <ele>1101.8</ele>
        <time>2018-06-17T11:14:44Z</time>
      </trkpt>
      <trkpt lat="43.0253980" lon="-5.9114380">
        <ele>1103.0</ele>
        <time>2018-06-17T11:14:49Z</time>
      </trkpt>
      <trkpt lat="43.0254960" lon="-5.9115870">
        <ele>1104.0</ele>
        <time>2018-06-17T11:14:56Z</time>
      </trkpt>
      <trkpt lat="43.0255580" lon="-5.9117060">
        <ele>1104.8</ele>
        <time>2018-06-17T11:15:01Z</time>
      </trkpt>
      <trkpt lat="43.0255890" lon="-5.9118790">
        <ele>1106.0</ele>
        <time>2018-06-17T11:15:07Z</time>
      </trkpt>
      <trkpt lat="43.0255960" lon="-5.9120250">
        <ele>1106.8</ele>
        <time>2018-06-17T11:15:12Z</time>
      </trkpt>
      <trkpt lat="43.0255490" lon="-5.9122280">
        <ele>1107.8</ele>
        <time>2018-06-17T11:15:18Z</time>
      </trkpt>
      <trkpt lat="43.0254820" lon="-5.9123770">
        <ele>1109.0</ele>
        <time>2018-06-17T11:15:23Z</time>
      </trkpt>
      <trkpt lat="43.0253920" lon="-5.9124860">
        <ele>1110.2</ele>
        <time>2018-06-17T11:15:28Z</time>
      </trkpt>
      <trkpt lat="43.0252880" lon="-5.9125970">
        <ele>1111.2</ele>
        <time>2018-06-17T11:15:34Z</time>
      </trkpt>
      <trkpt lat="43.0251950" lon="-5.9127110">
        <ele>1112.4</ele>
        <time>2018-06-17T11:15:40Z</time>
      </trkpt>
      <trkpt lat="43.0251290" lon="-5.9129020">
        <ele>1113.4</ele>
        <time>2018-06-17T11:15:47Z</time>
      </trkpt>
      <trkpt lat="43.0251040" lon="-5.9130520">
        <ele>1114.4</ele>
        <time>2018-06-17T11:15:52Z</time>
      </trkpt>
      <trkpt lat="43.0250970" lon="-5.9132030">
        <ele>1115.6</ele>
        <time>2018-06-17T11:15:57Z</time>
      </trkpt>
      <trkpt lat="43.0250040" lon="-5.9133670">
        <ele>1116.8</ele>
        <time>2018-06-17T11:16:03Z</time>
      </trkpt>
      <trkpt lat="43.0249480" lon="-5.9134210">
        <ele>1117.4</ele>
        <time>2018-06-17T11:16:07Z</time>
      </trkpt>
      <trkpt lat="43.0248810" lon="-5.9134000">
        <ele>1118.2</ele>
        <time>2018-06-17T11:16:11Z</time>
      </trkpt>
      <trkpt lat="43.0248310" lon="-5.9132580">
        <ele>1119.0</ele>
        <time>2018-06-17T11:16:17Z</time>
      </trkpt>
      <trkpt lat="43.0248260" lon="-5.9130080">
        <ele>1120.0</ele>
        <time>2018-06-17T11:16:25Z</time>
      </trkpt>
      <trkpt lat="43.0248120" lon="-5.9127730">
        <ele>1120.6</ele>
        <time>2018-06-17T11:16:32Z</time>
      </trkpt>
      <trkpt lat="43.0248140" lon="-5.9127090">
        <ele>1121.0</ele>
        <time>2018-06-17T11:16:34Z</time>
      </trkpt>
      <trkpt lat="43.0248100" lon="-5.9125010">
        <ele>1122.0</ele>
        <time>2018-06-17T11:16:42Z</time>
      </trkpt>
      <trkpt lat="43.0247850" lon="-5.9123620">
        <ele>1123.0</ele>
        <time>2018-06-17T11:16:47Z</time>
      </trkpt>
      <trkpt lat="43.0247470" lon="-5.9121070">
        <ele>1124.2</ele>
        <time>2018-06-17T11:16:55Z</time>
      </trkpt>
      <trkpt lat="43.0247100" lon="-5.9119070">
        <ele>1125.2</ele>
        <time>2018-06-17T11:17:02Z</time>
      </trkpt>
      <trkpt lat="43.0246700" lon="-5.9117610">
        <ele>1126.4</ele>
        <time>2018-06-17T11:17:08Z</time>
      </trkpt>
      <trkpt lat="43.0246690" lon="-5.9115640">
        <ele>1127.4</ele>
        <time>2018-06-17T11:17:15Z</time>
      </trkpt>
      <trkpt lat="43.0245940" lon="-5.9114350">
        <ele>1128.6</ele>
        <time>2018-06-17T11:17:20Z</time>
      </trkpt>
      <trkpt lat="43.0245070" lon="-5.9112890">
        <ele>1129.8</ele>
        <time>2018-06-17T11:17:27Z</time>
      </trkpt>
      <trkpt lat="43.0244410" lon="-5.9111830">
        <ele>1130.8</ele>
        <time>2018-06-17T11:17:32Z</time>
      </trkpt>
      <trkpt lat="43.0243450" lon="-5.9110480">
        <ele>1131.8</ele>
        <time>2018-06-17T11:17:38Z</time>
      </trkpt>
      <trkpt lat="43.0242300" lon="-5.9108290">
        <ele>1132.8</ele>
        <time>2018-06-17T11:17:47Z</time>
      </trkpt>
      <trkpt lat="43.0241100" lon="-5.9106570">
        <ele>1134.0</ele>
        <time>2018-06-17T11:17:54Z</time>
      </trkpt>
      <trkpt lat="43.0239760" lon="-5.9105880">
        <ele>1135.2</ele>
        <time>2018-06-17T11:18:00Z</time>
      </trkpt>
      <trkpt lat="43.0238220" lon="-5.9105010">
        <ele>1136.2</ele>
        <time>2018-06-17T11:18:07Z</time>
      </trkpt>
      <trkpt lat="43.0236490" lon="-5.9103980">
        <ele>1137.2</ele>
        <time>2018-06-17T11:18:15Z</time>
      </trkpt>
      <trkpt lat="43.0235520" lon="-5.9103510">
        <ele>1138.4</ele>
        <time>2018-06-17T11:18:20Z</time>
      </trkpt>
      <trkpt lat="43.0233910" lon="-5.9102610">
        <ele>1139.4</ele>
        <time>2018-06-17T11:18:28Z</time>
      </trkpt>
      <trkpt lat="43.0232970" lon="-5.9101990">
        <ele>1140.6</ele>
        <time>2018-06-17T11:18:33Z</time>
      </trkpt>
      <trkpt lat="43.0231430" lon="-5.9100750">
        <ele>1141.6</ele>
        <time>2018-06-17T11:18:40Z</time>
      </trkpt>
      <trkpt lat="43.0230160" lon="-5.9099840">
        <ele>1142.6</ele>
        <time>2018-06-17T11:18:46Z</time>
      </trkpt>
      <trkpt lat="43.0229010" lon="-5.9099360">
        <ele>1143.8</ele>
        <time>2018-06-17T11:18:52Z</time>
      </trkpt>
      <trkpt lat="43.0227590" lon="-5.9098630">
        <ele>1144.8</ele>
        <time>2018-06-17T11:18:59Z</time>
      </trkpt>
      <trkpt lat="43.0225880" lon="-5.9098170">
        <ele>1145.8</ele>
        <time>2018-06-17T11:19:07Z</time>
      </trkpt>
      <trkpt lat="43.0225000" lon="-5.9097930">
        <ele>1147.0</ele>
        <time>2018-06-17T11:19:11Z</time>
      </trkpt>
      <trkpt lat="43.0223860" lon="-5.9097640">
        <ele>1148.0</ele>
        <time>2018-06-17T11:19:17Z</time>
      </trkpt>
      <trkpt lat="43.0222420" lon="-5.9096850">
        <ele>1149.2</ele>
        <time>2018-06-17T11:19:25Z</time>
      </trkpt>
      <trkpt lat="43.0221330" lon="-5.9095760">
        <ele>1150.2</ele>
        <time>2018-06-17T11:19:31Z</time>
      </trkpt>
      <trkpt lat="43.0220210" lon="-5.9094560">
        <ele>1151.4</ele>
        <time>2018-06-17T11:19:38Z</time>
      </trkpt>
      <trkpt lat="43.0218970" lon="-5.9094040">
        <ele>1152.4</ele>
        <time>2018-06-17T11:19:43Z</time>
      </trkpt>
      <trkpt lat="43.0217640" lon="-5.9093190">
        <ele>1153.4</ele>
        <time>2018-06-17T11:19:49Z</time>
      </trkpt>
      <trkpt lat="43.0216170" lon="-5.9092320">
        <ele>1154.4</ele>
        <time>2018-06-17T11:19:56Z</time>
      </trkpt>
      <trkpt lat="43.0215100" lon="-5.9091760">
        <ele>1155.8</ele>
        <time>2018-06-17T11:20:01Z</time>
      </trkpt>
      <trkpt lat="43.0213610" lon="-5.9090090">
        <ele>1157.0</ele>
        <time>2018-06-17T11:20:09Z</time>
      </trkpt>
      <trkpt lat="43.0212730" lon="-5.9088450">
        <ele>1158.2</ele>
        <time>2018-06-17T11:20:15Z</time>
      </trkpt>
      <trkpt lat="43.0212180" lon="-5.9085840">
        <ele>1159.4</ele>
        <time>2018-06-17T11:20:23Z</time>
      </trkpt>
      <trkpt lat="43.0211600" lon="-5.9084190">
        <ele>1160.4</ele>
        <time>2018-06-17T11:20:27Z</time>
      </trkpt>
      <trkpt lat="43.0211230" lon="-5.9081830">
        <ele>1161.4</ele>
        <time>2018-06-17T11:20:34Z</time>
      </trkpt>
      <trkpt lat="43.0210950" lon="-5.9080090">
        <ele>1162.4</ele>
        <time>2018-06-17T11:20:40Z</time>
      </trkpt>
      <trkpt lat="43.0210460" lon="-5.9078760">
        <ele>1163.6</ele>
        <time>2018-06-17T11:20:45Z</time>
      </trkpt>
      <trkpt lat="43.0209930" lon="-5.9076950">
        <ele>1164.8</ele>
        <time>2018-06-17T11:20:52Z</time>
      </trkpt>
      <trkpt lat="43.0209560" lon="-5.9075440">
        <ele>1165.8</ele>
        <time>2018-06-17T11:20:58Z</time>
      </trkpt>
      <trkpt lat="43.0208460" lon="-5.9073730">
        <ele>1166.8</ele>
        <time>2018-06-17T11:21:06Z</time>
      </trkpt>
      <trkpt lat="43.0207330" lon="-5.9071880">
        <ele>1168.2</ele>
        <time>2018-06-17T11:21:13Z</time>
      </trkpt>
      <trkpt lat="43.0206970" lon="-5.9070390">
        <ele>1169.4</ele>
        <time>2018-06-17T11:21:20Z</time>
      </trkpt>
      <trkpt lat="43.0205920" lon="-5.9069350">
        <ele>1170.4</ele>
        <time>2018-06-17T11:21:27Z</time>
      </trkpt>
      <trkpt lat="43.0204690" lon="-5.9068670">
        <ele>1171.6</ele>
        <time>2018-06-17T11:21:33Z</time>
      </trkpt>
      <trkpt lat="43.0203260" lon="-5.9068170">
        <ele>1172.8</ele>
        <time>2018-06-17T11:21:39Z</time>
      </trkpt>
      <trkpt lat="43.0201810" lon="-5.9067470">
        <ele>1174.0</ele>
        <time>2018-06-17T11:21:46Z</time>
      </trkpt>
      <trkpt lat="43.0199910" lon="-5.9066760">
        <ele>1175.2</ele>
        <time>2018-06-17T11:21:53Z</time>
      </trkpt>
      <trkpt lat="43.0198450" lon="-5.9066490">
        <ele>1176.2</ele>
        <time>2018-06-17T11:21:59Z</time>
      </trkpt>
      <trkpt lat="43.0196820" lon="-5.9066610">
        <ele>1177.4</ele>
        <time>2018-06-17T11:22:06Z</time>
      </trkpt>
      <trkpt lat="43.0195610" lon="-5.9066850">
        <ele>1178.4</ele>
        <time>2018-06-17T11:22:11Z</time>
      </trkpt>
      <trkpt lat="43.0193340" lon="-5.9065970">
        <ele>1179.6</ele>
        <time>2018-06-17T11:22:20Z</time>
      </trkpt>
      <trkpt lat="43.0192230" lon="-5.9065300">
        <ele>1180.8</ele>
        <time>2018-06-17T11:22:26Z</time>
      </trkpt>
      <trkpt lat="43.0191120" lon="-5.9064380">
        <ele>1181.8</ele>
        <time>2018-06-17T11:22:32Z</time>
      </trkpt>
      <trkpt lat="43.0189800" lon="-5.9063090">
        <ele>1183.2</ele>
        <time>2018-06-17T11:22:39Z</time>
      </trkpt>
      <trkpt lat="43.0188610" lon="-5.9061580">
        <ele>1184.2</ele>
        <time>2018-06-17T11:22:46Z</time>
      </trkpt>
      <trkpt lat="43.0187720" lon="-5.9060480">
        <ele>1185.2</ele>
        <time>2018-06-17T11:22:51Z</time>
      </trkpt>
      <trkpt lat="43.0185930" lon="-5.9058940">
        <ele>1186.4</ele>
        <time>2018-06-17T11:22:59Z</time>
      </trkpt>
      <trkpt lat="43.0183740" lon="-5.9058370">
        <ele>1187.4</ele>
        <time>2018-06-17T11:23:07Z</time>
      </trkpt>
      <trkpt lat="43.0182590" lon="-5.9059040">
        <ele>1188.4</ele>
        <time>2018-06-17T11:23:12Z</time>
      </trkpt>
      <trkpt lat="43.0181740" lon="-5.9060260">
        <ele>1189.4</ele>
        <time>2018-06-17T11:23:17Z</time>
      </trkpt>
      <trkpt lat="43.0181060" lon="-5.9061570">
        <ele>1190.4</ele>
        <time>2018-06-17T11:23:22Z</time>
      </trkpt>
      <trkpt lat="43.0180450" lon="-5.9062930">
        <ele>1191.6</ele>
        <time>2018-06-17T11:23:27Z</time>
      </trkpt>
      <trkpt lat="43.0179660" lon="-5.9064800">
        <ele>1192.6</ele>
        <time>2018-06-17T11:23:34Z</time>
      </trkpt>
      <trkpt lat="43.0179300" lon="-5.9065900">
        <ele>1193.6</ele>
        <time>2018-06-17T11:23:38Z</time>
      </trkpt>
      <trkpt lat="43.0178890" lon="-5.9067510">
        <ele>1194.6</ele>
        <time>2018-06-17T11:23:44Z</time>
      </trkpt>
      <trkpt lat="43.0178540" lon="-5.9068940">
        <ele>1195.6</ele>
        <time>2018-06-17T11:23:49Z</time>
      </trkpt>
      <trkpt lat="43.0178170" lon="-5.9070690">
        <ele>1196.4</ele>
        <time>2018-06-17T11:23:55Z</time>
      </trkpt>
      <trkpt lat="43.0177490" lon="-5.9072470">
        <ele>1197.6</ele>
        <time>2018-06-17T11:24:01Z</time>
      </trkpt>
      <trkpt lat="43.0176100" lon="-5.9074200">
        <ele>1198.8</ele>
        <time>2018-06-17T11:24:09Z</time>
      </trkpt>
      <trkpt lat="43.0175350" lon="-5.9075300">
        <ele>1199.8</ele>
        <time>2018-06-17T11:24:14Z</time>
      </trkpt>
      <trkpt lat="43.0174540" lon="-5.9076860">
        <ele>1200.8</ele>
        <time>2018-06-17T11:24:20Z</time>
      </trkpt>
      <trkpt lat="43.0173850" lon="-5.9078360">
        <ele>1201.8</ele>
        <time>2018-06-17T11:24:26Z</time>
      </trkpt>
      <trkpt lat="43.0173210" lon="-5.9079690">
        <ele>1202.8</ele>
        <time>2018-06-17T11:24:31Z</time>
      </trkpt>
      <trkpt lat="43.0172570" lon="-5.9081040">
        <ele>1203.8</ele>
        <time>2018-06-17T11:24:36Z</time>
      </trkpt>
      <trkpt lat="43.0171720" lon="-5.9082540">
        <ele>1204.8</ele>
        <time>2018-06-17T11:24:42Z</time>
      </trkpt>
      <trkpt lat="43.0170760" lon="-5.9083900">
        <ele>1206.0</ele>
        <time>2018-06-17T11:24:48Z</time>
      </trkpt>
      <trkpt lat="43.0170000" lon="-5.9084950">
        <ele>1206.8</ele>
        <time>2018-06-17T11:24:53Z</time>
      </trkpt>
      <trkpt lat="43.0168970" lon="-5.9086090">
        <ele>1207.8</ele>
        <time>2018-06-17T11:24:59Z</time>
      </trkpt>
      <trkpt lat="43.0167410" lon="-5.9086620">
        <ele>1208.8</ele>
        <time>2018-06-17T11:25:06Z</time>
      </trkpt>
      <trkpt lat="43.0165830" lon="-5.9086570">
        <ele>1209.8</ele>
        <time>2018-06-17T11:25:13Z</time>
      </trkpt>
      <trkpt lat="43.0164720" lon="-5.9086670">
        <ele>1210.8</ele>
        <time>2018-06-17T11:25:18Z</time>
      </trkpt>
      <trkpt lat="43.0163630" lon="-5.9086790">
        <ele>1211.6</ele>
        <time>2018-06-17T11:25:23Z</time>
      </trkpt>
      <trkpt lat="43.0163220" lon="-5.9086910">
        <ele>1211.8</ele>
        <time>2018-06-17T11:25:25Z</time>
      </trkpt>
      <trkpt lat="43.0162190" lon="-5.9087250">
        <ele>1213.0</ele>
        <time>2018-06-17T11:25:30Z</time>
      </trkpt>
      <trkpt lat="43.0160800" lon="-5.9087560">
        <ele>1214.0</ele>
        <time>2018-06-17T11:25:37Z</time>
      </trkpt>
      <trkpt lat="43.0160120" lon="-5.9088110">
        <ele>1214.8</ele>
        <time>2018-06-17T11:25:41Z</time>
      </trkpt>
      <trkpt lat="43.0158910" lon="-5.9089510">
        <ele>1216.0</ele>
        <time>2018-06-17T11:25:49Z</time>
      </trkpt>
      <trkpt lat="43.0158120" lon="-5.9090580">
        <ele>1217.2</ele>
        <time>2018-06-17T11:25:54Z</time>
      </trkpt>
      <trkpt lat="43.0157020" lon="-5.9092080">
        <ele>1218.4</ele>
        <time>2018-06-17T11:26:01Z</time>
      </trkpt>
      <trkpt lat="43.0156340" lon="-5.9093350">
        <ele>1219.4</ele>
        <time>2018-06-17T11:26:06Z</time>
      </trkpt>
      <trkpt lat="43.0155340" lon="-5.9095450">
        <ele>1220.4</ele>
        <time>2018-06-17T11:26:14Z</time>
      </trkpt>
      <trkpt lat="43.0154860" lon="-5.9096790">
        <ele>1221.4</ele>
        <time>2018-06-17T11:26:19Z</time>
      </trkpt>
      <trkpt lat="43.0154760" lon="-5.9097030">
        <ele>1221.6</ele>
        <time>2018-06-17T11:26:20Z</time>
      </trkpt>
      <trkpt lat="43.0154190" lon="-5.9098540">
        <ele>1222.6</ele>
        <time>2018-06-17T11:26:26Z</time>
      </trkpt>
      <trkpt lat="43.0153570" lon="-5.9100150">
        <ele>1223.6</ele>
        <time>2018-06-17T11:26:32Z</time>
      </trkpt>
      <trkpt lat="43.0152790" lon="-5.9101700">
        <ele>1224.6</ele>
        <time>2018-06-17T11:26:38Z</time>
      </trkpt>
      <trkpt lat="43.0152200" lon="-5.9102950">
        <ele>1225.8</ele>
        <time>2018-06-17T11:26:43Z</time>
      </trkpt>
      <trkpt lat="43.0151570" lon="-5.9105220">
        <ele>1227.0</ele>
        <time>2018-06-17T11:26:51Z</time>
      </trkpt>
      <trkpt lat="43.0151130" lon="-5.9107140">
        <ele>1228.0</ele>
        <time>2018-06-17T11:26:58Z</time>
      </trkpt>
      <trkpt lat="43.0150910" lon="-5.9108070">
        <ele>1229.0</ele>
        <time>2018-06-17T11:27:02Z</time>
      </trkpt>
      <trkpt lat="43.0149980" lon="-5.9110480">
        <ele>1230.0</ele>
        <time>2018-06-17T11:27:09Z</time>
      </trkpt>
      <trkpt lat="43.0149090" lon="-5.9112220">
        <ele>1231.0</ele>
        <time>2018-06-17T11:27:15Z</time>
      </trkpt>
      <trkpt lat="43.0147900" lon="-5.9113830">
        <ele>1232.2</ele>
        <time>2018-06-17T11:27:22Z</time>
      </trkpt>
      <trkpt lat="43.0147150" lon="-5.9115340">
        <ele>1233.2</ele>
        <time>2018-06-17T11:27:28Z</time>
      </trkpt>
      <trkpt lat="43.0146630" lon="-5.9116970">
        <ele>1234.0</ele>
        <time>2018-06-17T11:27:34Z</time>
      </trkpt>
      <trkpt lat="43.0146250" lon="-5.9118130">
        <ele>1235.2</ele>
        <time>2018-06-17T11:27:39Z</time>
      </trkpt>
      <trkpt lat="43.0146130" lon="-5.9119520">
        <ele>1236.2</ele>
        <time>2018-06-17T11:27:44Z</time>
      </trkpt>
      <trkpt lat="43.0145850" lon="-5.9121020">
        <ele>1237.2</ele>
        <time>2018-06-17T11:27:49Z</time>
      </trkpt>
      <trkpt lat="43.0145310" lon="-5.9123140">
        <ele>1238.4</ele>
        <time>2018-06-17T11:27:56Z</time>
      </trkpt>
      <trkpt lat="43.0144950" lon="-5.9125410">
        <ele>1239.6</ele>
        <time>2018-06-17T11:28:03Z</time>
      </trkpt>
      <trkpt lat="43.0144830" lon="-5.9126270">
        <ele>1240.2</ele>
        <time>2018-06-17T11:28:06Z</time>
      </trkpt>
      <trkpt lat="43.0144700" lon="-5.9126870">
        <ele>1240.6</ele>
        <time>2018-06-17T11:28:08Z</time>
      </trkpt>
      <trkpt lat="43.0143960" lon="-5.9128300">
        <ele>1241.6</ele>
        <time>2018-06-17T11:28:14Z</time>
      </trkpt>
      <trkpt lat="43.0143200" lon="-5.9130250">
        <ele>1242.6</ele>
        <time>2018-06-17T11:28:21Z</time>
      </trkpt>
      <trkpt lat="43.0142060" lon="-5.9131700">
        <ele>1243.6</ele>
        <time>2018-06-17T11:28:27Z</time>
      </trkpt>
      <trkpt lat="43.0139770" lon="-5.9131790">
        <ele>1244.8</ele>
        <time>2018-06-17T11:28:37Z</time>
      </trkpt>
      <trkpt lat="43.0138360" lon="-5.9131830">
        <ele>1246.0</ele>
        <time>2018-06-17T11:28:43Z</time>
      </trkpt>
      <trkpt lat="43.0137590" lon="-5.9132530">
        <ele>1247.2</ele>
        <time>2018-06-17T11:28:47Z</time>
      </trkpt>
      <trkpt lat="43.0137000" lon="-5.9133760">
        <ele>1248.2</ele>
        <time>2018-06-17T11:28:52Z</time>
      </trkpt>
      <trkpt lat="43.0137310" lon="-5.9135080">
        <ele>1249.4</ele>
        <time>2018-06-17T11:28:57Z</time>
      </trkpt>
      <trkpt lat="43.0140040" lon="-5.9135110">
        <ele>1250.6</ele>
        <time>2018-06-17T11:29:07Z</time>
      </trkpt>
      <trkpt lat="43.0141530" lon="-5.9133860">
        <ele>1251.6</ele>
        <time>2018-06-17T11:29:14Z</time>
      </trkpt>
      <trkpt lat="43.0142750" lon="-5.9132710">
        <ele>1252.6</ele>
        <time>2018-06-17T11:29:20Z</time>
      </trkpt>
      <trkpt lat="43.0144310" lon="-5.9129830">
        <ele>1253.6</ele>
        <time>2018-06-17T11:29:30Z</time>
      </trkpt>
      <trkpt lat="43.0145920" lon="-5.9126160">
        <ele>1254.2</ele>
        <time>2018-06-17T11:29:40Z</time>
      </trkpt>
      <trkpt lat="43.0147070" lon="-5.9123660">
        <ele>1254.6</ele>
        <time>2018-06-17T11:29:47Z</time>
      </trkpt>
      <trkpt lat="43.0148650" lon="-5.9120780">
        <ele>1255.8</ele>
        <time>2018-06-17T11:29:56Z</time>
      </trkpt>
      <trkpt lat="43.0149770" lon="-5.9117110">
        <ele>1256.6</ele>
        <time>2018-06-17T11:30:06Z</time>
      </trkpt>
      <trkpt lat="43.0152350" lon="-5.9113450">
        <ele>1257.6</ele>
        <time>2018-06-17T11:30:18Z</time>
      </trkpt>
      <trkpt lat="43.0153570" lon="-5.9110550">
        <ele>1258.6</ele>
        <time>2018-06-17T11:30:26Z</time>
      </trkpt>
      <trkpt lat="43.0155480" lon="-5.9106550">
        <ele>1259.6</ele>
        <time>2018-06-17T11:30:37Z</time>
      </trkpt>
      <trkpt lat="43.0157460" lon="-5.9103710">
        <ele>1260.6</ele>
        <time>2018-06-17T11:30:46Z</time>
      </trkpt>
      <trkpt lat="43.0159360" lon="-5.9100960">
        <ele>1261.4</ele>
        <time>2018-06-17T11:30:55Z</time>
      </trkpt>
      <trkpt lat="43.0161130" lon="-5.9098660">
        <ele>1262.6</ele>
        <time>2018-06-17T11:31:03Z</time>
      </trkpt>
      <trkpt lat="43.0164440" lon="-5.9097490">
        <ele>1263.8</ele>
        <time>2018-06-17T11:31:14Z</time>
      </trkpt>
      <trkpt lat="43.0167050" lon="-5.9098790">
        <ele>1264.6</ele>
        <time>2018-06-17T11:31:23Z</time>
      </trkpt>
      <trkpt lat="43.0172010" lon="-5.9096460">
        <ele>1265.4</ele>
        <time>2018-06-17T11:31:37Z</time>
      </trkpt>
      <trkpt lat="43.0175790" lon="-5.9094830">
        <ele>1266.4</ele>
        <time>2018-06-17T11:31:49Z</time>
      </trkpt>
      <trkpt lat="43.0178130" lon="-5.9093200">
        <ele>1267.4</ele>
        <time>2018-06-17T11:31:58Z</time>
      </trkpt>
      <trkpt lat="43.0179740" lon="-5.9091850">
        <ele>1268.0</ele>
        <time>2018-06-17T11:32:04Z</time>
      </trkpt>
      <trkpt lat="43.0180270" lon="-5.9091380">
        <ele>1268.2</ele>
        <time>2018-06-17T11:32:06Z</time>
      </trkpt>
      <trkpt lat="43.0181910" lon="-5.9090000">
        <ele>1269.4</ele>
        <time>2018-06-17T11:32:12Z</time>
      </trkpt>
      <trkpt lat="43.0183900" lon="-5.9088540">
        <ele>1270.4</ele>
        <time>2018-06-17T11:32:19Z</time>
      </trkpt>
      <trkpt lat="43.0186390" lon="-5.9088440">
        <ele>1271.4</ele>
        <time>2018-06-17T11:32:27Z</time>
      </trkpt>
      <trkpt lat="43.0187360" lon="-5.9090100">
        <ele>1272.4</ele>
        <time>2018-06-17T11:32:32Z</time>
      </trkpt>
      <trkpt lat="43.0186280" lon="-5.9093190">
        <ele>1273.4</ele>
        <time>2018-06-17T11:32:40Z</time>
      </trkpt>
      <trkpt lat="43.0185290" lon="-5.9093560">
        <ele>1273.6</ele>
        <time>2018-06-17T11:32:43Z</time>
      </trkpt>
      <trkpt lat="43.0183490" lon="-5.9093230">
        <ele>1274.4</ele>
        <time>2018-06-17T11:32:49Z</time>
      </trkpt>
      <trkpt lat="43.0181020" lon="-5.9093720">
        <ele>1275.2</ele>
        <time>2018-06-17T11:32:57Z</time>
      </trkpt>
      <trkpt lat="43.0180160" lon="-5.9094740">
        <ele>1276.4</ele>
        <time>2018-06-17T11:33:01Z</time>
      </trkpt>
      <trkpt lat="43.0179370" lon="-5.9095580">
        <ele>1277.6</ele>
        <time>2018-06-17T11:33:05Z</time>
      </trkpt>
      <trkpt lat="43.0177920" lon="-5.9097270">
        <ele>1278.6</ele>
        <time>2018-06-17T11:33:13Z</time>
      </trkpt>
      <trkpt lat="43.0176570" lon="-5.9098590">
        <ele>1279.6</ele>
        <time>2018-06-17T11:33:20Z</time>
      </trkpt>
      <trkpt lat="43.0175170" lon="-5.9099590">
        <ele>1280.6</ele>
        <time>2018-06-17T11:33:26Z</time>
      </trkpt>
      <trkpt lat="43.0173990" lon="-5.9100140">
        <ele>1281.4</ele>
        <time>2018-06-17T11:33:31Z</time>
      </trkpt>
      <trkpt lat="43.0173050" lon="-5.9100480">
        <ele>1282.4</ele>
        <time>2018-06-17T11:33:35Z</time>
      </trkpt>
      <trkpt lat="43.0171680" lon="-5.9101020">
        <ele>1283.6</ele>
        <time>2018-06-17T11:33:41Z</time>
      </trkpt>
      <trkpt lat="43.0170630" lon="-5.9101800">
        <ele>1284.8</ele>
        <time>2018-06-17T11:33:46Z</time>
      </trkpt>
      <trkpt lat="43.0169970" lon="-5.9102600">
        <ele>1285.8</ele>
        <time>2018-06-17T11:33:50Z</time>
      </trkpt>
      <trkpt lat="43.0168770" lon="-5.9103700">
        <ele>1286.6</ele>
        <time>2018-06-17T11:33:56Z</time>
      </trkpt>
      <trkpt lat="43.0166980" lon="-5.9103860">
        <ele>1287.8</ele>
        <time>2018-06-17T11:34:03Z</time>
      </trkpt>
      <trkpt lat="43.0165520" lon="-5.9103710">
        <ele>1288.6</ele>
        <time>2018-06-17T11:34:09Z</time>
      </trkpt>
      <trkpt lat="43.0164390" lon="-5.9104200">
        <ele>1289.8</ele>
        <time>2018-06-17T11:34:14Z</time>
      </trkpt>
      <trkpt lat="43.0163580" lon="-5.9104880">
        <ele>1291.0</ele>
        <time>2018-06-17T11:34:18Z</time>
      </trkpt>
      <trkpt lat="43.0162310" lon="-5.9106360">
        <ele>1291.8</ele>
        <time>2018-06-17T11:34:25Z</time>
      </trkpt>
      <trkpt lat="43.0161530" lon="-5.9107520">
        <ele>1292.8</ele>
        <time>2018-06-17T11:34:30Z</time>
      </trkpt>
      <trkpt lat="43.0160780" lon="-5.9108710">
        <ele>1294.0</ele>
        <time>2018-06-17T11:34:35Z</time>
      </trkpt>
      <trkpt lat="43.0159970" lon="-5.9110270">
        <ele>1294.8</ele>
        <time>2018-06-17T11:34:41Z</time>
      </trkpt>
      <trkpt lat="43.0159370" lon="-5.9111630">
        <ele>1296.0</ele>
        <time>2018-06-17T11:34:46Z</time>
      </trkpt>
      <trkpt lat="43.0158710" lon="-5.9113310">
        <ele>1297.2</ele>
        <time>2018-06-17T11:34:52Z</time>
      </trkpt>
      <trkpt lat="43.0158080" lon="-5.9115320">
        <ele>1298.0</ele>
        <time>2018-06-17T11:34:59Z</time>
      </trkpt>
      <trkpt lat="43.0157640" lon="-5.9116720">
        <ele>1299.2</ele>
        <time>2018-06-17T11:35:04Z</time>
      </trkpt>
      <trkpt lat="43.0156960" lon="-5.9118490">
        <ele>1300.2</ele>
        <time>2018-06-17T11:35:10Z</time>
      </trkpt>
      <trkpt lat="43.0156320" lon="-5.9120350">
        <ele>1301.4</ele>
        <time>2018-06-17T11:35:16Z</time>
      </trkpt>
      <trkpt lat="43.0155850" lon="-5.9121910">
        <ele>1302.2</ele>
        <time>2018-06-17T11:35:21Z</time>
      </trkpt>
      <trkpt lat="43.0155440" lon="-5.9123690">
        <ele>1303.4</ele>
        <time>2018-06-17T11:35:27Z</time>
      </trkpt>
      <trkpt lat="43.0155130" lon="-5.9125210">
        <ele>1304.4</ele>
        <time>2018-06-17T11:35:32Z</time>
      </trkpt>
      <trkpt lat="43.0154760" lon="-5.9126850">
        <ele>1305.4</ele>
        <time>2018-06-17T11:35:38Z</time>
      </trkpt>
      <trkpt lat="43.0154050" lon="-5.9128760">
        <ele>1306.6</ele>
        <time>2018-06-17T11:35:44Z</time>
      </trkpt>
      <trkpt lat="43.0153400" lon="-5.9129930">
        <ele>1307.4</ele>
        <time>2018-06-17T11:35:48Z</time>
      </trkpt>
      <trkpt lat="43.0152790" lon="-5.9130640">
        <ele>1307.8</ele>
        <time>2018-06-17T11:35:51Z</time>
      </trkpt>
      <trkpt lat="43.0151810" lon="-5.9131710">
        <ele>1308.8</ele>
        <time>2018-06-17T11:35:56Z</time>
      </trkpt>
      <trkpt lat="43.0151190" lon="-5.9133070">
        <ele>1310.0</ele>
        <time>2018-06-17T11:36:01Z</time>
      </trkpt>
      <trkpt lat="43.0150190" lon="-5.9135220">
        <ele>1310.8</ele>
        <time>2018-06-17T11:36:09Z</time>
      </trkpt>
      <trkpt lat="43.0149670" lon="-5.9136560">
        <ele>1312.0</ele>
        <time>2018-06-17T11:36:14Z</time>
      </trkpt>
      <trkpt lat="43.0149160" lon="-5.9138000">
        <ele>1313.0</ele>
        <time>2018-06-17T11:36:19Z</time>
      </trkpt>
      <trkpt lat="43.0148680" lon="-5.9139630">
        <ele>1314.0</ele>
        <time>2018-06-17T11:36:25Z</time>
      </trkpt>
      <trkpt lat="43.0148600" lon="-5.9141030">
        <ele>1315.2</ele>
        <time>2018-06-17T11:36:30Z</time>
      </trkpt>
      <trkpt lat="43.0148660" lon="-5.9143100">
        <ele>1316.4</ele>
        <time>2018-06-17T11:36:37Z</time>
      </trkpt>
      <trkpt lat="43.0148730" lon="-5.9144840">
        <ele>1317.2</ele>
        <time>2018-06-17T11:36:42Z</time>
      </trkpt>
      <trkpt lat="43.0148670" lon="-5.9146510">
        <ele>1318.2</ele>
        <time>2018-06-17T11:36:47Z</time>
      </trkpt>
      <trkpt lat="43.0148490" lon="-5.9148600">
        <ele>1319.4</ele>
        <time>2018-06-17T11:36:53Z</time>
      </trkpt>
      <trkpt lat="43.0147740" lon="-5.9150360">
        <ele>1320.6</ele>
        <time>2018-06-17T11:36:59Z</time>
      </trkpt>
      <trkpt lat="43.0145890" lon="-5.9151000">
        <ele>1321.6</ele>
        <time>2018-06-17T11:37:07Z</time>
      </trkpt>
      <trkpt lat="43.0144730" lon="-5.9151130">
        <ele>1322.6</ele>
        <time>2018-06-17T11:37:12Z</time>
      </trkpt>
      <trkpt lat="43.0143370" lon="-5.9151540">
        <ele>1323.4</ele>
        <time>2018-06-17T11:37:18Z</time>
      </trkpt>
      <trkpt lat="43.0142230" lon="-5.9152060">
        <ele>1324.6</ele>
        <time>2018-06-17T11:37:23Z</time>
      </trkpt>
      <trkpt lat="43.0141220" lon="-5.9152940">
        <ele>1325.6</ele>
        <time>2018-06-17T11:37:28Z</time>
      </trkpt>
      <trkpt lat="43.0140200" lon="-5.9154150">
        <ele>1326.8</ele>
        <time>2018-06-17T11:37:34Z</time>
      </trkpt>
      <trkpt lat="43.0139090" lon="-5.9155470">
        <ele>1327.8</ele>
        <time>2018-06-17T11:37:40Z</time>
      </trkpt>
      <trkpt lat="43.0137970" lon="-5.9156690">
        <ele>1329.0</ele>
        <time>2018-06-17T11:37:46Z</time>
      </trkpt>
      <trkpt lat="43.0136910" lon="-5.9158060">
        <ele>1330.0</ele>
        <time>2018-06-17T11:37:52Z</time>
      </trkpt>
      <trkpt lat="43.0135830" lon="-5.9159340">
        <ele>1331.0</ele>
        <time>2018-06-17T11:37:58Z</time>
      </trkpt>
      <trkpt lat="43.0134810" lon="-5.9160920">
        <ele>1332.2</ele>
        <time>2018-06-17T11:38:04Z</time>
      </trkpt>
      <trkpt lat="43.0133910" lon="-5.9162170">
        <ele>1333.0</ele>
        <time>2018-06-17T11:38:09Z</time>
      </trkpt>
      <trkpt lat="43.0133110" lon="-5.9162970">
        <ele>1334.0</ele>
        <time>2018-06-17T11:38:13Z</time>
      </trkpt>
      <trkpt lat="43.0131960" lon="-5.9164030">
        <ele>1335.2</ele>
        <time>2018-06-17T11:38:19Z</time>
      </trkpt>
      <trkpt lat="43.0130600" lon="-5.9164800">
        <ele>1336.4</ele>
        <time>2018-06-17T11:38:25Z</time>
      </trkpt>
      <trkpt lat="43.0129250" lon="-5.9165480">
        <ele>1337.4</ele>
        <time>2018-06-17T11:38:31Z</time>
      </trkpt>
      <trkpt lat="43.0128090" lon="-5.9165970">
        <ele>1338.4</ele>
        <time>2018-06-17T11:38:36Z</time>
      </trkpt>
      <trkpt lat="43.0127130" lon="-5.9166020">
        <ele>1339.2</ele>
        <time>2018-06-17T11:38:40Z</time>
      </trkpt>
      <trkpt lat="43.0125770" lon="-5.9165240">
        <ele>1340.4</ele>
        <time>2018-06-17T11:38:46Z</time>
      </trkpt>
      <trkpt lat="43.0124880" lon="-5.9162850">
        <ele>1341.6</ele>
        <time>2018-06-17T11:38:54Z</time>
      </trkpt>
      <trkpt lat="43.0124990" lon="-5.9161090">
        <ele>1342.6</ele>
        <time>2018-06-17T11:38:59Z</time>
      </trkpt>
      <trkpt lat="43.0125120" lon="-5.9159530">
        <ele>1343.4</ele>
        <time>2018-06-17T11:39:04Z</time>
      </trkpt>
      <trkpt lat="43.0124980" lon="-5.9157590">
        <ele>1344.6</ele>
        <time>2018-06-17T11:39:10Z</time>
      </trkpt>
      <trkpt lat="43.0124640" lon="-5.9156010">
        <ele>1345.4</ele>
        <time>2018-06-17T11:39:15Z</time>
      </trkpt>
      <trkpt lat="43.0124120" lon="-5.9154620">
        <ele>1346.6</ele>
        <time>2018-06-17T11:39:20Z</time>
      </trkpt>
      <trkpt lat="43.0123430" lon="-5.9153240">
        <ele>1347.6</ele>
        <time>2018-06-17T11:39:25Z</time>
      </trkpt>
      <trkpt lat="43.0122650" lon="-5.9151700">
        <ele>1348.6</ele>
        <time>2018-06-17T11:39:31Z</time>
      </trkpt>
      <trkpt lat="43.0121600" lon="-5.9149880">
        <ele>1349.4</ele>
        <time>2018-06-17T11:39:38Z</time>
      </trkpt>
      <trkpt lat="43.0120410" lon="-5.9148660">
        <ele>1350.6</ele>
        <time>2018-06-17T11:39:44Z</time>
      </trkpt>
      <trkpt lat="43.0119270" lon="-5.9148110">
        <ele>1351.8</ele>
        <time>2018-06-17T11:39:49Z</time>
      </trkpt>
      <trkpt lat="43.0118140" lon="-5.9147910">
        <ele>1352.6</ele>
        <time>2018-06-17T11:39:54Z</time>
      </trkpt>
      <trkpt lat="43.0117170" lon="-5.9147940">
        <ele>1353.6</ele>
        <time>2018-06-17T11:39:58Z</time>
      </trkpt>
      <trkpt lat="43.0115970" lon="-5.9147950">
        <ele>1354.6</ele>
        <time>2018-06-17T11:40:03Z</time>
      </trkpt>
      <trkpt lat="43.0114740" lon="-5.9148080">
        <ele>1355.8</ele>
        <time>2018-06-17T11:40:09Z</time>
      </trkpt>
      <trkpt lat="43.0113830" lon="-5.9147980">
        <ele>1356.8</ele>
        <time>2018-06-17T11:40:14Z</time>
      </trkpt>
      <trkpt lat="43.0112370" lon="-5.9147430">
        <ele>1357.8</ele>
        <time>2018-06-17T11:40:22Z</time>
      </trkpt>
      <trkpt lat="43.0111070" lon="-5.9146630">
        <ele>1359.0</ele>
        <time>2018-06-17T11:40:29Z</time>
      </trkpt>
      <trkpt lat="43.0109430" lon="-5.9145520">
        <ele>1359.8</ele>
        <time>2018-06-17T11:40:37Z</time>
      </trkpt>
      <trkpt lat="43.0108050" lon="-5.9144600">
        <ele>1360.2</ele>
        <time>2018-06-17T11:40:43Z</time>
      </trkpt>
      <trkpt lat="43.0106120" lon="-5.9142640">
        <ele>1360.6</ele>
        <time>2018-06-17T11:40:52Z</time>
      </trkpt>
      <trkpt lat="43.0105940" lon="-5.9142400">
        <ele>1360.8</ele>
        <time>2018-06-17T11:40:53Z</time>
      </trkpt>
      <trkpt lat="43.0105190" lon="-5.9141590">
        <ele>1360.8</ele>
        <time>2018-06-17T11:40:57Z</time>
      </trkpt>
      <trkpt lat="43.0104370" lon="-5.9140740">
        <ele>1361.0</ele>
        <time>2018-06-17T11:41:01Z</time>
      </trkpt>
      <trkpt lat="43.0102650" lon="-5.9141110">
        <ele>1361.2</ele>
        <time>2018-06-17T11:41:09Z</time>
      </trkpt>
      <trkpt lat="43.0102550" lon="-5.9143470">
        <ele>1361.4</ele>
        <time>2018-06-17T11:41:16Z</time>
      </trkpt>
      <trkpt lat="43.0102550" lon="-5.9143880">
        <ele>1361.4</ele>
        <time>2018-06-17T11:41:17Z</time>
      </trkpt>
      <trkpt lat="43.0103060" lon="-5.9148340">
        <ele>1362.2</ele>
        <time>2018-06-17T11:41:29Z</time>
      </trkpt>
      <trkpt lat="43.0103370" lon="-5.9149910">
        <ele>1362.0</ele>
        <time>2018-06-17T11:41:33Z</time>
      </trkpt>
      <trkpt lat="43.0103460" lon="-5.9150310">
        <ele>1362.2</ele>
        <time>2018-06-17T11:41:34Z</time>
      </trkpt>
      <trkpt lat="43.0103550" lon="-5.9150740">
        <ele>1362.2</ele>
        <time>2018-06-17T11:41:35Z</time>
      </trkpt>
      <trkpt lat="43.0104000" lon="-5.9153260">
        <ele>1362.8</ele>
        <time>2018-06-17T11:41:41Z</time>
      </trkpt>
      <trkpt lat="43.0104120" lon="-5.9155420">
        <ele>1363.2</ele>
        <time>2018-06-17T11:41:46Z</time>
      </trkpt>
      <trkpt lat="43.0099640" lon="-5.9157570">
        <ele>1363.8</ele>
        <time>2018-06-17T11:42:01Z</time>
      </trkpt>
      <trkpt lat="43.0098990" lon="-5.9157140">
        <ele>1364.0</ele>
        <time>2018-06-17T11:42:03Z</time>
      </trkpt>
      <trkpt lat="43.0094480" lon="-5.9153490">
        <ele>1364.8</ele>
        <time>2018-06-17T11:42:17Z</time>
      </trkpt>
      <trkpt lat="43.0091110" lon="-5.9147830">
        <ele>1365.4</ele>
        <time>2018-06-17T11:42:32Z</time>
      </trkpt>
      <trkpt lat="43.0090740" lon="-5.9146980">
        <ele>1365.6</ele>
        <time>2018-06-17T11:42:34Z</time>
      </trkpt>
      <trkpt lat="43.0086390" lon="-5.9144840">
        <ele>1366.2</ele>
        <time>2018-06-17T11:42:47Z</time>
      </trkpt>
      <trkpt lat="43.0081770" lon="-5.9144680">
        <ele>1367.4</ele>
        <time>2018-06-17T11:42:59Z</time>
      </trkpt>
      <trkpt lat="43.0077790" lon="-5.9141600">
        <ele>1368.0</ele>
        <time>2018-06-17T11:43:12Z</time>
      </trkpt>
      <trkpt lat="43.0075680" lon="-5.9139710">
        <ele>1369.0</ele>
        <time>2018-06-17T11:43:19Z</time>
      </trkpt>
      <trkpt lat="43.0074200" lon="-5.9139810">
        <ele>1370.2</ele>
        <time>2018-06-17T11:43:24Z</time>
      </trkpt>
      <trkpt lat="43.0073020" lon="-5.9140260">
        <ele>1370.8</ele>
        <time>2018-06-17T11:43:28Z</time>
      </trkpt>
      <trkpt lat="43.0072720" lon="-5.9140320">
        <ele>1371.0</ele>
        <time>2018-06-17T11:43:29Z</time>
      </trkpt>
      <trkpt lat="43.0071310" lon="-5.9139590">
        <ele>1372.0</ele>
        <time>2018-06-17T11:43:34Z</time>
      </trkpt>
      <trkpt lat="43.0070380" lon="-5.9136910">
        <ele>1373.0</ele>
        <time>2018-06-17T11:43:41Z</time>
      </trkpt>
      <trkpt lat="43.0070050" lon="-5.9134490">
        <ele>1373.8</ele>
        <time>2018-06-17T11:43:47Z</time>
      </trkpt>
      <trkpt lat="43.0069770" lon="-5.9132030">
        <ele>1375.0</ele>
        <time>2018-06-17T11:43:53Z</time>
      </trkpt>
      <trkpt lat="43.0069640" lon="-5.9129140">
        <ele>1375.8</ele>
        <time>2018-06-17T11:44:00Z</time>
      </trkpt>
      <trkpt lat="43.0070170" lon="-5.9126770">
        <ele>1377.0</ele>
        <time>2018-06-17T11:44:06Z</time>
      </trkpt>
      <trkpt lat="43.0071590" lon="-5.9124110">
        <ele>1377.8</ele>
        <time>2018-06-17T11:44:14Z</time>
      </trkpt>
      <trkpt lat="43.0072550" lon="-5.9122090">
        <ele>1378.8</ele>
        <time>2018-06-17T11:44:20Z</time>
      </trkpt>
      <trkpt lat="43.0073080" lon="-5.9120370">
        <ele>1379.8</ele>
        <time>2018-06-17T11:44:25Z</time>
      </trkpt>
      <trkpt lat="43.0073450" lon="-5.9119010">
        <ele>1381.0</ele>
        <time>2018-06-17T11:44:29Z</time>
      </trkpt>
      <trkpt lat="43.0073990" lon="-5.9117310">
        <ele>1382.0</ele>
        <time>2018-06-17T11:44:34Z</time>
      </trkpt>
      <trkpt lat="43.0074600" lon="-5.9115670">
        <ele>1383.2</ele>
        <time>2018-06-17T11:44:39Z</time>
      </trkpt>
      <trkpt lat="43.0075170" lon="-5.9113960">
        <ele>1384.2</ele>
        <time>2018-06-17T11:44:44Z</time>
      </trkpt>
      <trkpt lat="43.0075840" lon="-5.9111960">
        <ele>1385.2</ele>
        <time>2018-06-17T11:44:50Z</time>
      </trkpt>
      <trkpt lat="43.0076400" lon="-5.9110420">
        <ele>1386.2</ele>
        <time>2018-06-17T11:44:55Z</time>
      </trkpt>
      <trkpt lat="43.0077150" lon="-5.9108470">
        <ele>1387.2</ele>
        <time>2018-06-17T11:45:01Z</time>
      </trkpt>
      <trkpt lat="43.0077680" lon="-5.9106830">
        <ele>1388.2</ele>
        <time>2018-06-17T11:45:06Z</time>
      </trkpt>
      <trkpt lat="43.0078440" lon="-5.9104890">
        <ele>1389.4</ele>
        <time>2018-06-17T11:45:12Z</time>
      </trkpt>
      <trkpt lat="43.0079370" lon="-5.9102710">
        <ele>1390.4</ele>
        <time>2018-06-17T11:45:19Z</time>
      </trkpt>
      <trkpt lat="43.0080150" lon="-5.9101260">
        <ele>1391.6</ele>
        <time>2018-06-17T11:45:24Z</time>
      </trkpt>
      <trkpt lat="43.0080840" lon="-5.9100160">
        <ele>1392.8</ele>
        <time>2018-06-17T11:45:28Z</time>
      </trkpt>
      <trkpt lat="43.0081780" lon="-5.9098360">
        <ele>1393.6</ele>
        <time>2018-06-17T11:45:34Z</time>
      </trkpt>
      <trkpt lat="43.0082520" lon="-5.9097130">
        <ele>1394.8</ele>
        <time>2018-06-17T11:45:38Z</time>
      </trkpt>
      <trkpt lat="43.0083380" lon="-5.9095600">
        <ele>1395.6</ele>
        <time>2018-06-17T11:45:43Z</time>
      </trkpt>
      <trkpt lat="43.0084310" lon="-5.9093760">
        <ele>1397.0</ele>
        <time>2018-06-17T11:45:49Z</time>
      </trkpt>
      <trkpt lat="43.0085390" lon="-5.9091970">
        <ele>1397.8</ele>
        <time>2018-06-17T11:45:55Z</time>
      </trkpt>
      <trkpt lat="43.0087070" lon="-5.9090630">
        <ele>1398.8</ele>
        <time>2018-06-17T11:46:02Z</time>
      </trkpt>
      <trkpt lat="43.0088000" lon="-5.9089480">
        <ele>1399.8</ele>
        <time>2018-06-17T11:46:07Z</time>
      </trkpt>
      <trkpt lat="43.0088330" lon="-5.9087690">
        <ele>1401.2</ele>
        <time>2018-06-17T11:46:12Z</time>
      </trkpt>
      <trkpt lat="43.0087800" lon="-5.9086510">
        <ele>1402.2</ele>
        <time>2018-06-17T11:46:16Z</time>
      </trkpt>
      <trkpt lat="43.0086280" lon="-5.9086160">
        <ele>1403.0</ele>
        <time>2018-06-17T11:46:22Z</time>
      </trkpt>
      <trkpt lat="43.0085050" lon="-5.9086470">
        <ele>1404.2</ele>
        <time>2018-06-17T11:46:27Z</time>
      </trkpt>
      <trkpt lat="43.0084260" lon="-5.9086360">
        <ele>1405.2</ele>
        <time>2018-06-17T11:46:30Z</time>
      </trkpt>
      <trkpt lat="43.0082500" lon="-5.9085650">
        <ele>1406.4</ele>
        <time>2018-06-17T11:46:37Z</time>
      </trkpt>
      <trkpt lat="43.0081550" lon="-5.9085290">
        <ele>1407.2</ele>
        <time>2018-06-17T11:46:41Z</time>
      </trkpt>
      <trkpt lat="43.0080240" lon="-5.9085050">
        <ele>1408.6</ele>
        <time>2018-06-17T11:46:46Z</time>
      </trkpt>
      <trkpt lat="43.0078930" lon="-5.9084760">
        <ele>1409.6</ele>
        <time>2018-06-17T11:46:51Z</time>
      </trkpt>
      <trkpt lat="43.0077640" lon="-5.9084810">
        <ele>1410.6</ele>
        <time>2018-06-17T11:46:56Z</time>
      </trkpt>
      <trkpt lat="43.0076380" lon="-5.9084760">
        <ele>1411.8</ele>
        <time>2018-06-17T11:47:01Z</time>
      </trkpt>
      <trkpt lat="43.0075070" lon="-5.9084810">
        <ele>1412.8</ele>
        <time>2018-06-17T11:47:06Z</time>
      </trkpt>
      <trkpt lat="43.0074120" lon="-5.9084950">
        <ele>1414.0</ele>
        <time>2018-06-17T11:47:10Z</time>
      </trkpt>
      <trkpt lat="43.0072950" lon="-5.9085250">
        <ele>1415.0</ele>
        <time>2018-06-17T11:47:15Z</time>
      </trkpt>
      <trkpt lat="43.0071710" lon="-5.9085490">
        <ele>1416.0</ele>
        <time>2018-06-17T11:47:20Z</time>
      </trkpt>
      <trkpt lat="43.0070230" lon="-5.9085130">
        <ele>1417.2</ele>
        <time>2018-06-17T11:47:26Z</time>
      </trkpt>
      <trkpt lat="43.0069060" lon="-5.9084430">
        <ele>1418.2</ele>
        <time>2018-06-17T11:47:31Z</time>
      </trkpt>
      <trkpt lat="43.0067800" lon="-5.9084170">
        <ele>1419.4</ele>
        <time>2018-06-17T11:47:36Z</time>
      </trkpt>
      <trkpt lat="43.0066500" lon="-5.9084430">
        <ele>1420.2</ele>
        <time>2018-06-17T11:47:41Z</time>
      </trkpt>
      <trkpt lat="43.0064910" lon="-5.9084800">
        <ele>1421.4</ele>
        <time>2018-06-17T11:47:47Z</time>
      </trkpt>
      <trkpt lat="43.0063330" lon="-5.9085110">
        <ele>1422.6</ele>
        <time>2018-06-17T11:47:53Z</time>
      </trkpt>
      <trkpt lat="43.0061740" lon="-5.9085410">
        <ele>1423.6</ele>
        <time>2018-06-17T11:47:59Z</time>
      </trkpt>
      <trkpt lat="43.0060220" lon="-5.9085780">
        <ele>1424.8</ele>
        <time>2018-06-17T11:48:05Z</time>
      </trkpt>
      <trkpt lat="43.0058620" lon="-5.9086080">
        <ele>1425.8</ele>
        <time>2018-06-17T11:48:11Z</time>
      </trkpt>
      <trkpt lat="43.0057030" lon="-5.9086360">
        <ele>1427.0</ele>
        <time>2018-06-17T11:48:17Z</time>
      </trkpt>
      <trkpt lat="43.0055970" lon="-5.9086510">
        <ele>1428.0</ele>
        <time>2018-06-17T11:48:21Z</time>
      </trkpt>
      <trkpt lat="43.0054410" lon="-5.9086400">
        <ele>1429.0</ele>
        <time>2018-06-17T11:48:27Z</time>
      </trkpt>
      <trkpt lat="43.0053070" lon="-5.9086380">
        <ele>1429.8</ele>
        <time>2018-06-17T11:48:32Z</time>
      </trkpt>
      <trkpt lat="43.0051740" lon="-5.9086590">
        <ele>1431.0</ele>
        <time>2018-06-17T11:48:37Z</time>
      </trkpt>
      <trkpt lat="43.0050390" lon="-5.9086680">
        <ele>1431.8</ele>
        <time>2018-06-17T11:48:42Z</time>
      </trkpt>
      <trkpt lat="43.0049050" lon="-5.9086480">
        <ele>1433.0</ele>
        <time>2018-06-17T11:48:47Z</time>
      </trkpt>
      <trkpt lat="43.0047690" lon="-5.9086430">
        <ele>1434.0</ele>
        <time>2018-06-17T11:48:52Z</time>
      </trkpt>
      <trkpt lat="43.0046380" lon="-5.9086330">
        <ele>1435.0</ele>
        <time>2018-06-17T11:48:57Z</time>
      </trkpt>
      <trkpt lat="43.0044780" lon="-5.9086690">
        <ele>1436.0</ele>
        <time>2018-06-17T11:49:03Z</time>
      </trkpt>
      <trkpt lat="43.0043740" lon="-5.9086860">
        <ele>1437.0</ele>
        <time>2018-06-17T11:49:07Z</time>
      </trkpt>
      <trkpt lat="43.0042420" lon="-5.9087050">
        <ele>1438.2</ele>
        <time>2018-06-17T11:49:12Z</time>
      </trkpt>
      <trkpt lat="43.0041110" lon="-5.9087130">
        <ele>1439.0</ele>
        <time>2018-06-17T11:49:17Z</time>
      </trkpt>
      <trkpt lat="43.0039760" lon="-5.9086940">
        <ele>1440.4</ele>
        <time>2018-06-17T11:49:22Z</time>
      </trkpt>
      <trkpt lat="43.0038140" lon="-5.9086510">
        <ele>1441.4</ele>
        <time>2018-06-17T11:49:28Z</time>
      </trkpt>
      <trkpt lat="43.0036800" lon="-5.9086180">
        <ele>1442.6</ele>
        <time>2018-06-17T11:49:33Z</time>
      </trkpt>
      <trkpt lat="43.0035490" lon="-5.9085740">
        <ele>1443.4</ele>
        <time>2018-06-17T11:49:38Z</time>
      </trkpt>
      <trkpt lat="43.0034160" lon="-5.9085380">
        <ele>1444.6</ele>
        <time>2018-06-17T11:49:43Z</time>
      </trkpt>
      <trkpt lat="43.0033120" lon="-5.9085050">
        <ele>1445.6</ele>
        <time>2018-06-17T11:49:47Z</time>
      </trkpt>
      <trkpt lat="43.0031060" lon="-5.9084330">
        <ele>1446.8</ele>
        <time>2018-06-17T11:49:55Z</time>
      </trkpt>
      <trkpt lat="43.0029740" lon="-5.9084070">
        <ele>1447.8</ele>
        <time>2018-06-17T11:50:00Z</time>
      </trkpt>
      <trkpt lat="43.0028200" lon="-5.9083540">
        <ele>1449.0</ele>
        <time>2018-06-17T11:50:06Z</time>
      </trkpt>
      <trkpt lat="43.0026920" lon="-5.9082790">
        <ele>1450.2</ele>
        <time>2018-06-17T11:50:11Z</time>
      </trkpt>
      <trkpt lat="43.0025570" lon="-5.9081420">
        <ele>1451.2</ele>
        <time>2018-06-17T11:50:17Z</time>
      </trkpt>
      <trkpt lat="43.0024110" lon="-5.9081030">
        <ele>1452.4</ele>
        <time>2018-06-17T11:50:22Z</time>
      </trkpt>
      <trkpt lat="43.0022760" lon="-5.9081310">
        <ele>1453.4</ele>
        <time>2018-06-17T11:50:27Z</time>
      </trkpt>
      <trkpt lat="43.0021500" lon="-5.9081460">
        <ele>1454.6</ele>
        <time>2018-06-17T11:50:32Z</time>
      </trkpt>
      <trkpt lat="43.0019890" lon="-5.9081710">
        <ele>1455.6</ele>
        <time>2018-06-17T11:50:38Z</time>
      </trkpt>
      <trkpt lat="43.0018680" lon="-5.9081950">
        <ele>1456.6</ele>
        <time>2018-06-17T11:50:43Z</time>
      </trkpt>
      <trkpt lat="43.0017370" lon="-5.9082180">
        <ele>1457.8</ele>
        <time>2018-06-17T11:50:48Z</time>
      </trkpt>
      <trkpt lat="43.0015450" lon="-5.9082480">
        <ele>1458.8</ele>
        <time>2018-06-17T11:50:55Z</time>
      </trkpt>
      <trkpt lat="43.0014690" lon="-5.9082660">
        <ele>1459.6</ele>
        <time>2018-06-17T11:50:58Z</time>
      </trkpt>
      <trkpt lat="43.0013660" lon="-5.9082810">
        <ele>1460.8</ele>
        <time>2018-06-17T11:51:02Z</time>
      </trkpt>
      <trkpt lat="43.0012040" lon="-5.9081930">
        <ele>1461.8</ele>
        <time>2018-06-17T11:51:09Z</time>
      </trkpt>
      <trkpt lat="43.0010840" lon="-5.9079660">
        <ele>1463.0</ele>
        <time>2018-06-17T11:51:17Z</time>
      </trkpt>
      <trkpt lat="43.0009960" lon="-5.9078480">
        <ele>1464.0</ele>
        <time>2018-06-17T11:51:22Z</time>
      </trkpt>
      <trkpt lat="43.0008930" lon="-5.9078100">
        <ele>1465.0</ele>
        <time>2018-06-17T11:51:26Z</time>
      </trkpt>
      <trkpt lat="43.0007920" lon="-5.9077830">
        <ele>1466.0</ele>
        <time>2018-06-17T11:51:30Z</time>
      </trkpt>
      <trkpt lat="43.0006190" lon="-5.9076900">
        <ele>1467.0</ele>
        <time>2018-06-17T11:51:37Z</time>
      </trkpt>
      <trkpt lat="43.0004710" lon="-5.9076020">
        <ele>1468.2</ele>
        <time>2018-06-17T11:51:43Z</time>
      </trkpt>
      <trkpt lat="43.0003760" lon="-5.9075320">
        <ele>1469.2</ele>
        <time>2018-06-17T11:51:47Z</time>
      </trkpt>
      <trkpt lat="43.0001990" lon="-5.9074250">
        <ele>1470.6</ele>
        <time>2018-06-17T11:51:54Z</time>
      </trkpt>
      <trkpt lat="43.0000560" lon="-5.9073450">
        <ele>1471.8</ele>
        <time>2018-06-17T11:52:00Z</time>
      </trkpt>
      <trkpt lat="42.9999310" lon="-5.9072970">
        <ele>1473.0</ele>
        <time>2018-06-17T11:52:05Z</time>
      </trkpt>
      <trkpt lat="42.9997840" lon="-5.9072230">
        <ele>1474.2</ele>
        <time>2018-06-17T11:52:11Z</time>
      </trkpt>
      <trkpt lat="42.9996320" lon="-5.9071620">
        <ele>1475.4</ele>
        <time>2018-06-17T11:52:17Z</time>
      </trkpt>
      <trkpt lat="42.9995270" lon="-5.9071370">
        <ele>1476.4</ele>
        <time>2018-06-17T11:52:21Z</time>
      </trkpt>
      <trkpt lat="42.9993940" lon="-5.9071000">
        <ele>1477.2</ele>
        <time>2018-06-17T11:52:26Z</time>
      </trkpt>
      <trkpt lat="42.9992790" lon="-5.9070700">
        <ele>1478.2</ele>
        <time>2018-06-17T11:52:30Z</time>
      </trkpt>
      <trkpt lat="42.9991350" lon="-5.9070800">
        <ele>1479.4</ele>
        <time>2018-06-17T11:52:35Z</time>
      </trkpt>
      <trkpt lat="42.9990110" lon="-5.9071750">
        <ele>1480.6</ele>
        <time>2018-06-17T11:52:40Z</time>
      </trkpt>
      <trkpt lat="42.9989260" lon="-5.9074040">
        <ele>1481.8</ele>
        <time>2018-06-17T11:52:47Z</time>
      </trkpt>
      <trkpt lat="42.9988540" lon="-5.9075580">
        <ele>1482.8</ele>
        <time>2018-06-17T11:52:52Z</time>
      </trkpt>
      <trkpt lat="42.9987030" lon="-5.9076730">
        <ele>1483.8</ele>
        <time>2018-06-17T11:52:58Z</time>
      </trkpt>
      <trkpt lat="42.9985590" lon="-5.9077330">
        <ele>1484.8</ele>
        <time>2018-06-17T11:53:03Z</time>
      </trkpt>
      <trkpt lat="42.9984260" lon="-5.9077880">
        <ele>1485.8</ele>
        <time>2018-06-17T11:53:08Z</time>
      </trkpt>
      <trkpt lat="42.9982690" lon="-5.9078530">
        <ele>1487.0</ele>
        <time>2018-06-17T11:53:14Z</time>
      </trkpt>
      <trkpt lat="42.9981090" lon="-5.9079090">
        <ele>1487.8</ele>
        <time>2018-06-17T11:53:20Z</time>
      </trkpt>
      <trkpt lat="42.9979790" lon="-5.9079530">
        <ele>1489.0</ele>
        <time>2018-06-17T11:53:25Z</time>
      </trkpt>
      <trkpt lat="42.9978100" lon="-5.9079760">
        <ele>1490.0</ele>
        <time>2018-06-17T11:53:31Z</time>
      </trkpt>
      <trkpt lat="42.9976430" lon="-5.9079740">
        <ele>1491.2</ele>
        <time>2018-06-17T11:53:37Z</time>
      </trkpt>
      <trkpt lat="42.9975090" lon="-5.9079710">
        <ele>1492.2</ele>
        <time>2018-06-17T11:53:42Z</time>
      </trkpt>
      <trkpt lat="42.9974110" lon="-5.9079500">
        <ele>1493.4</ele>
        <time>2018-06-17T11:53:46Z</time>
      </trkpt>
      <trkpt lat="42.9973620" lon="-5.9079370">
        <ele>1494.0</ele>
        <time>2018-06-17T11:53:48Z</time>
      </trkpt>
      <trkpt lat="42.9972870" lon="-5.9079010">
        <ele>1494.4</ele>
        <time>2018-06-17T11:53:51Z</time>
      </trkpt>
      <trkpt lat="42.9971600" lon="-5.9078280">
        <ele>1495.4</ele>
        <time>2018-06-17T11:53:56Z</time>
      </trkpt>
      <trkpt lat="42.9970350" lon="-5.9077430">
        <ele>1496.4</ele>
        <time>2018-06-17T11:54:01Z</time>
      </trkpt>
      <trkpt lat="42.9969380" lon="-5.9076700">
        <ele>1497.8</ele>
        <time>2018-06-17T11:54:05Z</time>
      </trkpt>
      <trkpt lat="42.9967560" lon="-5.9075480">
        <ele>1499.0</ele>
        <time>2018-06-17T11:54:12Z</time>
      </trkpt>
      <trkpt lat="42.9966270" lon="-5.9074720">
        <ele>1500.2</ele>
        <time>2018-06-17T11:54:17Z</time>
      </trkpt>
      <trkpt lat="42.9964950" lon="-5.9074280">
        <ele>1501.0</ele>
        <time>2018-06-17T11:54:22Z</time>
      </trkpt>
      <trkpt lat="42.9963910" lon="-5.9074600">
        <ele>1502.4</ele>
        <time>2018-06-17T11:54:26Z</time>
      </trkpt>
      <trkpt lat="42.9962740" lon="-5.9075600">
        <ele>1503.6</ele>
        <time>2018-06-17T11:54:31Z</time>
      </trkpt>
      <trkpt lat="42.9959720" lon="-5.9076330">
        <ele>1504.4</ele>
        <time>2018-06-17T11:54:41Z</time>
      </trkpt>
      <trkpt lat="42.9958000" lon="-5.9076060">
        <ele>1505.4</ele>
        <time>2018-06-17T11:54:47Z</time>
      </trkpt>
      <trkpt lat="42.9956580" lon="-5.9075840">
        <ele>1506.8</ele>
        <time>2018-06-17T11:54:52Z</time>
      </trkpt>
      <trkpt lat="42.9955230" lon="-5.9075810">
        <ele>1507.8</ele>
        <time>2018-06-17T11:54:57Z</time>
      </trkpt>
      <trkpt lat="42.9953860" lon="-5.9075570">
        <ele>1508.8</ele>
        <time>2018-06-17T11:55:02Z</time>
      </trkpt>
      <trkpt lat="42.9952470" lon="-5.9075370">
        <ele>1509.8</ele>
        <time>2018-06-17T11:55:07Z</time>
      </trkpt>
      <trkpt lat="42.9951330" lon="-5.9075390">
        <ele>1510.8</ele>
        <time>2018-06-17T11:55:11Z</time>
      </trkpt>
      <trkpt lat="42.9949750" lon="-5.9075630">
        <ele>1511.8</ele>
        <time>2018-06-17T11:55:17Z</time>
      </trkpt>
      <trkpt lat="42.9948130" lon="-5.9075370">
        <ele>1512.8</ele>
        <time>2018-06-17T11:55:23Z</time>
      </trkpt>
      <trkpt lat="42.9946780" lon="-5.9074440">
        <ele>1513.8</ele>
        <time>2018-06-17T11:55:28Z</time>
      </trkpt>
      <trkpt lat="42.9945260" lon="-5.9073460">
        <ele>1515.0</ele>
        <time>2018-06-17T11:55:34Z</time>
      </trkpt>
      <trkpt lat="42.9943620" lon="-5.9072980">
        <ele>1516.2</ele>
        <time>2018-06-17T11:55:40Z</time>
      </trkpt>
      <trkpt lat="42.9942300" lon="-5.9072720">
        <ele>1517.4</ele>
        <time>2018-06-17T11:55:45Z</time>
      </trkpt>
      <trkpt lat="42.9941150" lon="-5.9071870">
        <ele>1518.4</ele>
        <time>2018-06-17T11:55:50Z</time>
      </trkpt>
      <trkpt lat="42.9940550" lon="-5.9069710">
        <ele>1519.4</ele>
        <time>2018-06-17T11:55:56Z</time>
      </trkpt>
      <trkpt lat="42.9940690" lon="-5.9067720">
        <ele>1520.4</ele>
        <time>2018-06-17T11:56:01Z</time>
      </trkpt>
      <trkpt lat="42.9940200" lon="-5.9065610">
        <ele>1521.4</ele>
        <time>2018-06-17T11:56:06Z</time>
      </trkpt>
      <trkpt lat="42.9939250" lon="-5.9064860">
        <ele>1522.4</ele>
        <time>2018-06-17T11:56:10Z</time>
      </trkpt>
      <trkpt lat="42.9938510" lon="-5.9065100">
        <ele>1523.4</ele>
        <time>2018-06-17T11:56:13Z</time>
      </trkpt>
      <trkpt lat="42.9937630" lon="-5.9066980">
        <ele>1524.6</ele>
        <time>2018-06-17T11:56:19Z</time>
      </trkpt>
      <trkpt lat="42.9937950" lon="-5.9069650">
        <ele>1525.6</ele>
        <time>2018-06-17T11:56:26Z</time>
      </trkpt>
      <trkpt lat="42.9938390" lon="-5.9071710">
        <ele>1526.6</ele>
        <time>2018-06-17T11:56:32Z</time>
      </trkpt>
      <trkpt lat="42.9938640" lon="-5.9073670">
        <ele>1527.8</ele>
        <time>2018-06-17T11:56:37Z</time>
      </trkpt>
      <trkpt lat="42.9939050" lon="-5.9076350">
        <ele>1529.0</ele>
        <time>2018-06-17T11:56:44Z</time>
      </trkpt>
      <trkpt lat="42.9939510" lon="-5.9077910">
        <ele>1530.0</ele>
        <time>2018-06-17T11:56:48Z</time>
      </trkpt>
      <trkpt lat="42.9940760" lon="-5.9079550">
        <ele>1531.2</ele>
        <time>2018-06-17T11:56:54Z</time>
      </trkpt>
      <trkpt lat="42.9942030" lon="-5.9080300">
        <ele>1532.2</ele>
        <time>2018-06-17T11:56:59Z</time>
      </trkpt>
      <trkpt lat="42.9943150" lon="-5.9080590">
        <ele>1533.2</ele>
        <time>2018-06-17T11:57:03Z</time>
      </trkpt>
      <trkpt lat="42.9944220" lon="-5.9080920">
        <ele>1534.4</ele>
        <time>2018-06-17T11:57:07Z</time>
      </trkpt>
      <trkpt lat="42.9945820" lon="-5.9081490">
        <ele>1535.4</ele>
        <time>2018-06-17T11:57:13Z</time>
      </trkpt>
      <trkpt lat="42.9947360" lon="-5.9082160">
        <ele>1536.6</ele>
        <time>2018-06-17T11:57:19Z</time>
      </trkpt>
      <trkpt lat="42.9948460" lon="-5.9083110">
        <ele>1537.6</ele>
        <time>2018-06-17T11:57:24Z</time>
      </trkpt>
      <trkpt lat="42.9949790" lon="-5.9084870">
        <ele>1538.8</ele>
        <time>2018-06-17T11:57:31Z</time>
      </trkpt>
      <trkpt lat="42.9950820" lon="-5.9086010">
        <ele>1540.0</ele>
        <time>2018-06-17T11:57:36Z</time>
      </trkpt>
      <trkpt lat="42.9951900" lon="-5.9086390">
        <ele>1541.0</ele>
        <time>2018-06-17T11:57:40Z</time>
      </trkpt>
      <trkpt lat="42.9954070" lon="-5.9085650">
        <ele>1542.0</ele>
        <time>2018-06-17T11:57:48Z</time>
      </trkpt>
      <trkpt lat="42.9955310" lon="-5.9085020">
        <ele>1543.2</ele>
        <time>2018-06-17T11:57:52Z</time>
      </trkpt>
      <trkpt lat="42.9956310" lon="-5.9084520">
        <ele>1544.2</ele>
        <time>2018-06-17T11:57:56Z</time>
      </trkpt>
      <trkpt lat="42.9957740" lon="-5.9084080">
        <ele>1545.4</ele>
        <time>2018-06-17T11:58:02Z</time>
      </trkpt>
      <trkpt lat="42.9958860" lon="-5.9084120">
        <ele>1546.6</ele>
        <time>2018-06-17T11:58:06Z</time>
      </trkpt>
      <trkpt lat="42.9960010" lon="-5.9084150">
        <ele>1547.6</ele>
        <time>2018-06-17T11:58:10Z</time>
      </trkpt>
      <trkpt lat="42.9961130" lon="-5.9084120">
        <ele>1548.0</ele>
        <time>2018-06-17T11:58:14Z</time>
      </trkpt>
      <trkpt lat="42.9962160" lon="-5.9083690">
        <ele>1548.6</ele>
        <time>2018-06-17T11:58:18Z</time>
      </trkpt>
      <trkpt lat="42.9963550" lon="-5.9083130">
        <ele>1549.8</ele>
        <time>2018-06-17T11:58:23Z</time>
      </trkpt>
      <trkpt lat="42.9964950" lon="-5.9083430">
        <ele>1550.8</ele>
        <time>2018-06-17T11:58:29Z</time>
      </trkpt>
      <trkpt lat="42.9965760" lon="-5.9084090">
        <ele>1551.8</ele>
        <time>2018-06-17T11:58:33Z</time>
      </trkpt>
      <trkpt lat="42.9967190" lon="-5.9085180">
        <ele>1553.0</ele>
        <time>2018-06-17T11:58:39Z</time>
      </trkpt>
      <trkpt lat="42.9968540" lon="-5.9086570">
        <ele>1554.0</ele>
        <time>2018-06-17T11:58:46Z</time>
      </trkpt>
      <trkpt lat="42.9969540" lon="-5.9087940">
        <ele>1555.2</ele>
        <time>2018-06-17T11:58:51Z</time>
      </trkpt>
      <trkpt lat="42.9970550" lon="-5.9089540">
        <ele>1556.4</ele>
        <time>2018-06-17T11:58:57Z</time>
      </trkpt>
      <trkpt lat="42.9971170" lon="-5.9090770">
        <ele>1557.2</ele>
        <time>2018-06-17T11:59:02Z</time>
      </trkpt>
      <trkpt lat="42.9971470" lon="-5.9091300">
        <ele>1557.4</ele>
        <time>2018-06-17T11:59:04Z</time>
      </trkpt>
      <trkpt lat="42.9972180" lon="-5.9092580">
        <ele>1558.6</ele>
        <time>2018-06-17T11:59:09Z</time>
      </trkpt>
      <trkpt lat="42.9973280" lon="-5.9094260">
        <ele>1559.6</ele>
        <time>2018-06-17T11:59:16Z</time>
      </trkpt>
      <trkpt lat="42.9973940" lon="-5.9095540">
        <ele>1560.8</ele>
        <time>2018-06-17T11:59:21Z</time>
      </trkpt>
      <trkpt lat="42.9974880" lon="-5.9097220">
        <ele>1561.8</ele>
        <time>2018-06-17T11:59:27Z</time>
      </trkpt>
      <trkpt lat="42.9976270" lon="-5.9099790">
        <ele>1562.8</ele>
        <time>2018-06-17T11:59:36Z</time>
      </trkpt>
      <trkpt lat="42.9976930" lon="-5.9101210">
        <ele>1564.0</ele>
        <time>2018-06-17T11:59:41Z</time>
      </trkpt>
      <trkpt lat="42.9977660" lon="-5.9102580">
        <ele>1565.2</ele>
        <time>2018-06-17T11:59:46Z</time>
      </trkpt>
      <trkpt lat="42.9978570" lon="-5.9104180">
        <ele>1566.2</ele>
        <time>2018-06-17T11:59:52Z</time>
      </trkpt>
      <trkpt lat="42.9979580" lon="-5.9105160">
        <ele>1567.2</ele>
        <time>2018-06-17T11:59:57Z</time>
      </trkpt>
      <trkpt lat="42.9980180" lon="-5.9105810">
        <ele>1567.6</ele>
        <time>2018-06-17T12:00:00Z</time>
      </trkpt>
      <trkpt lat="42.9980850" lon="-5.9106380">
        <ele>1568.2</ele>
        <time>2018-06-17T12:00:03Z</time>
      </trkpt>
      <trkpt lat="42.9982380" lon="-5.9107540">
        <ele>1569.4</ele>
        <time>2018-06-17T12:00:10Z</time>
      </trkpt>
      <trkpt lat="42.9983270" lon="-5.9108060">
        <ele>1570.4</ele>
        <time>2018-06-17T12:00:14Z</time>
      </trkpt>
      <trkpt lat="42.9984610" lon="-5.9108470">
        <ele>1571.6</ele>
        <time>2018-06-17T12:00:19Z</time>
      </trkpt>
      <trkpt lat="42.9986300" lon="-5.9108260">
        <ele>1572.6</ele>
        <time>2018-06-17T12:00:25Z</time>
      </trkpt>
      <trkpt lat="42.9987900" lon="-5.9107530">
        <ele>1573.8</ele>
        <time>2018-06-17T12:00:31Z</time>
      </trkpt>
      <trkpt lat="42.9988950" lon="-5.9107200">
        <ele>1574.8</ele>
        <time>2018-06-17T12:00:35Z</time>
      </trkpt>
      <trkpt lat="42.9990060" lon="-5.9107390">
        <ele>1576.0</ele>
        <time>2018-06-17T12:00:39Z</time>
      </trkpt>
      <trkpt lat="42.9989930" lon="-5.9111690">
        <ele>1577.0</ele>
        <time>2018-06-17T12:00:51Z</time>
      </trkpt>
      <trkpt lat="42.9984390" lon="-5.9111110">
        <ele>1577.4</ele>
        <time>2018-06-17T12:01:05Z</time>
      </trkpt>
      <trkpt lat="42.9982730" lon="-5.9110330">
        <ele>1577.4</ele>
        <time>2018-06-17T12:01:09Z</time>
      </trkpt>
      <trkpt lat="42.9981210" lon="-5.9109500">
        <ele>1577.2</ele>
        <time>2018-06-17T12:01:13Z</time>
      </trkpt>
      <trkpt lat="42.9979630" lon="-5.9108910">
        <ele>1578.0</ele>
        <time>2018-06-17T12:01:17Z</time>
      </trkpt>
      <trkpt lat="42.9977490" lon="-5.9108170">
        <ele>1578.6</ele>
        <time>2018-06-17T12:01:23Z</time>
      </trkpt>
      <trkpt lat="42.9977200" lon="-5.9107990">
        <ele>1579.0</ele>
        <time>2018-06-17T12:01:24Z</time>
      </trkpt>
      <trkpt lat="42.9976380" lon="-5.9107290">
        <ele>1580.0</ele>
        <time>2018-06-17T12:01:27Z</time>
      </trkpt>
      <trkpt lat="42.9975190" lon="-5.9105880">
        <ele>1581.4</ele>
        <time>2018-06-17T12:01:32Z</time>
      </trkpt>
      <trkpt lat="42.9974660" lon="-5.9104800">
        <ele>1582.0</ele>
        <time>2018-06-17T12:01:35Z</time>
      </trkpt>
      <trkpt lat="42.9974280" lon="-5.9104100">
        <ele>1582.4</ele>
        <time>2018-06-17T12:01:37Z</time>
      </trkpt>
      <trkpt lat="42.9973650" lon="-5.9102590">
        <ele>1583.4</ele>
        <time>2018-06-17T12:01:41Z</time>
      </trkpt>
      <trkpt lat="42.9972800" lon="-5.9100730">
        <ele>1584.4</ele>
        <time>2018-06-17T12:01:46Z</time>
      </trkpt>
      <trkpt lat="42.9972380" lon="-5.9099600">
        <ele>1585.4</ele>
        <time>2018-06-17T12:01:49Z</time>
      </trkpt>
      <trkpt lat="42.9971610" lon="-5.9097930">
        <ele>1586.6</ele>
        <time>2018-06-17T12:01:54Z</time>
      </trkpt>
      <trkpt lat="42.9970840" lon="-5.9097020">
        <ele>1587.8</ele>
        <time>2018-06-17T12:01:58Z</time>
      </trkpt>
      <trkpt lat="42.9969790" lon="-5.9096080">
        <ele>1589.0</ele>
        <time>2018-06-17T12:02:03Z</time>
      </trkpt>
      <trkpt lat="42.9969320" lon="-5.9094930">
        <ele>1589.8</ele>
        <time>2018-06-17T12:02:07Z</time>
      </trkpt>
      <trkpt lat="42.9968550" lon="-5.9093640">
        <ele>1591.0</ele>
        <time>2018-06-17T12:02:12Z</time>
      </trkpt>
      <trkpt lat="42.9967630" lon="-5.9092840">
        <ele>1592.0</ele>
        <time>2018-06-17T12:02:16Z</time>
      </trkpt>
      <trkpt lat="42.9966540" lon="-5.9092290">
        <ele>1593.2</ele>
        <time>2018-06-17T12:02:20Z</time>
      </trkpt>
      <trkpt lat="42.9964060" lon="-5.9091240">
        <ele>1594.4</ele>
        <time>2018-06-17T12:02:29Z</time>
      </trkpt>
      <trkpt lat="42.9962120" lon="-5.9092270">
        <ele>1595.4</ele>
        <time>2018-06-17T12:02:36Z</time>
      </trkpt>
      <trkpt lat="42.9960570" lon="-5.9092970">
        <ele>1596.4</ele>
        <time>2018-06-17T12:02:42Z</time>
      </trkpt>
      <trkpt lat="42.9958670" lon="-5.9093740">
        <ele>1597.6</ele>
        <time>2018-06-17T12:02:49Z</time>
      </trkpt>
      <trkpt lat="42.9957600" lon="-5.9094870">
        <ele>1598.6</ele>
        <time>2018-06-17T12:02:54Z</time>
      </trkpt>
      <trkpt lat="42.9956680" lon="-5.9096180">
        <ele>1599.8</ele>
        <time>2018-06-17T12:02:59Z</time>
      </trkpt>
      <trkpt lat="42.9953980" lon="-5.9097160">
        <ele>1600.8</ele>
        <time>2018-06-17T12:03:09Z</time>
      </trkpt>
      <trkpt lat="42.9952800" lon="-5.9097680">
        <ele>1602.0</ele>
        <time>2018-06-17T12:03:13Z</time>
      </trkpt>
      <trkpt lat="42.9950730" lon="-5.9098990">
        <ele>1603.2</ele>
        <time>2018-06-17T12:03:21Z</time>
      </trkpt>
      <trkpt lat="42.9949630" lon="-5.9099330">
        <ele>1604.2</ele>
        <time>2018-06-17T12:03:25Z</time>
      </trkpt>
      <trkpt lat="42.9947700" lon="-5.9100330">
        <ele>1605.2</ele>
        <time>2018-06-17T12:03:32Z</time>
      </trkpt>
      <trkpt lat="42.9945700" lon="-5.9101370">
        <ele>1606.4</ele>
        <time>2018-06-17T12:03:39Z</time>
      </trkpt>
      <trkpt lat="42.9944320" lon="-5.9102190">
        <ele>1607.6</ele>
        <time>2018-06-17T12:03:44Z</time>
      </trkpt>
      <trkpt lat="42.9942480" lon="-5.9103360">
        <ele>1608.6</ele>
        <time>2018-06-17T12:03:51Z</time>
      </trkpt>
      <trkpt lat="42.9941150" lon="-5.9104170">
        <ele>1609.6</ele>
        <time>2018-06-17T12:03:56Z</time>
      </trkpt>
      <trkpt lat="42.9939480" lon="-5.9105010">
        <ele>1610.8</ele>
        <time>2018-06-17T12:04:02Z</time>
      </trkpt>
      <trkpt lat="42.9937010" lon="-5.9105280">
        <ele>1611.8</ele>
        <time>2018-06-17T12:04:10Z</time>
      </trkpt>
      <trkpt lat="42.9935870" lon="-5.9105100">
        <ele>1613.0</ele>
        <time>2018-06-17T12:04:14Z</time>
      </trkpt>
      <trkpt lat="42.9934040" lon="-5.9103820">
        <ele>1614.2</ele>
        <time>2018-06-17T12:04:21Z</time>
      </trkpt>
      <trkpt lat="42.9932740" lon="-5.9102830">
        <ele>1615.2</ele>
        <time>2018-06-17T12:04:26Z</time>
      </trkpt>
      <trkpt lat="42.9931560" lon="-5.9101650">
        <ele>1616.4</ele>
        <time>2018-06-17T12:04:31Z</time>
      </trkpt>
      <trkpt lat="42.9930130" lon="-5.9099740">
        <ele>1617.6</ele>
        <time>2018-06-17T12:04:38Z</time>
      </trkpt>
      <trkpt lat="42.9929220" lon="-5.9097590">
        <ele>1618.6</ele>
        <time>2018-06-17T12:04:44Z</time>
      </trkpt>
      <trkpt lat="42.9928510" lon="-5.9095770">
        <ele>1620.0</ele>
        <time>2018-06-17T12:04:49Z</time>
      </trkpt>
      <trkpt lat="42.9927980" lon="-5.9094340">
        <ele>1621.0</ele>
        <time>2018-06-17T12:04:53Z</time>
      </trkpt>
      <trkpt lat="42.9927140" lon="-5.9092280">
        <ele>1622.0</ele>
        <time>2018-06-17T12:04:59Z</time>
      </trkpt>
      <trkpt lat="42.9926070" lon="-5.9090390">
        <ele>1623.2</ele>
        <time>2018-06-17T12:05:05Z</time>
      </trkpt>
      <trkpt lat="42.9925050" lon="-5.9088930">
        <ele>1624.2</ele>
        <time>2018-06-17T12:05:10Z</time>
      </trkpt>
      <trkpt lat="42.9924020" lon="-5.9087520">
        <ele>1625.4</ele>
        <time>2018-06-17T12:05:15Z</time>
      </trkpt>
      <trkpt lat="42.9923160" lon="-5.9086450">
        <ele>1626.6</ele>
        <time>2018-06-17T12:05:19Z</time>
      </trkpt>
      <trkpt lat="42.9922300" lon="-5.9085410">
        <ele>1627.8</ele>
        <time>2018-06-17T12:05:23Z</time>
      </trkpt>
      <trkpt lat="42.9921180" lon="-5.9084170">
        <ele>1629.0</ele>
        <time>2018-06-17T12:05:28Z</time>
      </trkpt>
      <trkpt lat="42.9919850" lon="-5.9082660">
        <ele>1630.2</ele>
        <time>2018-06-17T12:05:34Z</time>
      </trkpt>
      <trkpt lat="42.9918950" lon="-5.9081660">
        <ele>1631.2</ele>
        <time>2018-06-17T12:05:38Z</time>
      </trkpt>
      <trkpt lat="42.9918010" lon="-5.9080720">
        <ele>1631.8</ele>
        <time>2018-06-17T12:05:42Z</time>
      </trkpt>
      <trkpt lat="42.9917550" lon="-5.9080220">
        <ele>1632.2</ele>
        <time>2018-06-17T12:05:44Z</time>
      </trkpt>
      <trkpt lat="42.9916110" lon="-5.9078910">
        <ele>1633.4</ele>
        <time>2018-06-17T12:05:50Z</time>
      </trkpt>
      <trkpt lat="42.9914480" lon="-5.9077320">
        <ele>1634.6</ele>
        <time>2018-06-17T12:05:57Z</time>
      </trkpt>
      <trkpt lat="42.9913320" lon="-5.9075470">
        <ele>1636.0</ele>
        <time>2018-06-17T12:06:03Z</time>
      </trkpt>
      <trkpt lat="42.9912530" lon="-5.9073630">
        <ele>1637.2</ele>
        <time>2018-06-17T12:06:08Z</time>
      </trkpt>
      <trkpt lat="42.9911960" lon="-5.9072210">
        <ele>1638.2</ele>
        <time>2018-06-17T12:06:12Z</time>
      </trkpt>
      <trkpt lat="42.9910800" lon="-5.9069820">
        <ele>1639.4</ele>
        <time>2018-06-17T12:06:19Z</time>
      </trkpt>
      <trkpt lat="42.9909930" lon="-5.9068130">
        <ele>1640.6</ele>
        <time>2018-06-17T12:06:24Z</time>
      </trkpt>
      <trkpt lat="42.9909520" lon="-5.9066990">
        <ele>1641.6</ele>
        <time>2018-06-17T12:06:27Z</time>
      </trkpt>
      <trkpt lat="42.9909130" lon="-5.9065030">
        <ele>1642.8</ele>
        <time>2018-06-17T12:06:32Z</time>
      </trkpt>
      <trkpt lat="42.9908610" lon="-5.9061690">
        <ele>1644.0</ele>
        <time>2018-06-17T12:06:40Z</time>
      </trkpt>
      <trkpt lat="42.9908050" lon="-5.9059720">
        <ele>1645.2</ele>
        <time>2018-06-17T12:06:45Z</time>
      </trkpt>
      <trkpt lat="42.9907440" lon="-5.9058330">
        <ele>1646.4</ele>
        <time>2018-06-17T12:06:49Z</time>
      </trkpt>
      <trkpt lat="42.9906800" lon="-5.9056900">
        <ele>1647.6</ele>
        <time>2018-06-17T12:06:53Z</time>
      </trkpt>
      <trkpt lat="42.9905950" lon="-5.9055380">
        <ele>1648.6</ele>
        <time>2018-06-17T12:06:59Z</time>
      </trkpt>
      <trkpt lat="42.9904570" lon="-5.9054430">
        <ele>1649.6</ele>
        <time>2018-06-17T12:07:08Z</time>
      </trkpt>
      <trkpt lat="42.9904560" lon="-5.9054410">
        <ele>1649.6</ele>
        <time>2018-06-17T12:07:09Z</time>
      </trkpt>
      <trkpt lat="42.9905950" lon="-5.9054980">
        <ele>1648.6</ele>
        <time>2018-06-17T12:20:01Z</time>
      </trkpt>
      <trkpt lat="42.9906060" lon="-5.9055140">
        <ele>1648.6</ele>
        <time>2018-06-17T12:20:02Z</time>
      </trkpt>
      <trkpt lat="42.9906360" lon="-5.9055520">
        <ele>1648.6</ele>
        <time>2018-06-17T12:20:05Z</time>
      </trkpt>
      <trkpt lat="42.9906450" lon="-5.9055560">
        <ele>1648.6</ele>
        <time>2018-06-17T12:20:07Z</time>
      </trkpt>
      <trkpt lat="42.9906670" lon="-5.9055880">
        <ele>1648.2</ele>
        <time>2018-06-17T12:20:10Z</time>
      </trkpt>
      <trkpt lat="42.9906760" lon="-5.9056060">
        <ele>1648.2</ele>
        <time>2018-06-17T12:20:11Z</time>
      </trkpt>
      <trkpt lat="42.9906950" lon="-5.9056740">
        <ele>1647.6</ele>
        <time>2018-06-17T12:20:14Z</time>
      </trkpt>
      <trkpt lat="42.9907420" lon="-5.9057410">
        <ele>1647.4</ele>
        <time>2018-06-17T12:20:17Z</time>
      </trkpt>
      <trkpt lat="42.9908330" lon="-5.9059620">
        <ele>1646.6</ele>
        <time>2018-06-17T12:20:23Z</time>
      </trkpt>
      <trkpt lat="42.9908740" lon="-5.9061380">
        <ele>1645.4</ele>
        <time>2018-06-17T12:20:26Z</time>
      </trkpt>
      <trkpt lat="42.9909030" lon="-5.9063570">
        <ele>1644.4</ele>
        <time>2018-06-17T12:20:29Z</time>
      </trkpt>
      <trkpt lat="42.9909260" lon="-5.9065240">
        <ele>1643.2</ele>
        <time>2018-06-17T12:20:31Z</time>
      </trkpt>
      <trkpt lat="42.9909700" lon="-5.9067070">
        <ele>1642.2</ele>
        <time>2018-06-17T12:20:33Z</time>
      </trkpt>
      <trkpt lat="42.9910070" lon="-5.9067980">
        <ele>1641.8</ele>
        <time>2018-06-17T12:20:34Z</time>
      </trkpt>
      <trkpt lat="42.9911040" lon="-5.9069690">
        <ele>1640.6</ele>
        <time>2018-06-17T12:20:36Z</time>
      </trkpt>
      <trkpt lat="42.9911540" lon="-5.9070580">
        <ele>1639.4</ele>
        <time>2018-06-17T12:20:37Z</time>
      </trkpt>
      <trkpt lat="42.9912430" lon="-5.9072650">
        <ele>1638.0</ele>
        <time>2018-06-17T12:20:39Z</time>
      </trkpt>
      <trkpt lat="42.9913320" lon="-5.9074820">
        <ele>1636.8</ele>
        <time>2018-06-17T12:20:41Z</time>
      </trkpt>
      <trkpt lat="42.9913840" lon="-5.9075790">
        <ele>1636.0</ele>
        <time>2018-06-17T12:20:42Z</time>
      </trkpt>
      <trkpt lat="42.9914420" lon="-5.9076650">
        <ele>1635.8</ele>
        <time>2018-06-17T12:20:43Z</time>
      </trkpt>
      <trkpt lat="42.9916710" lon="-5.9078700">
        <ele>1634.4</ele>
        <time>2018-06-17T12:20:46Z</time>
      </trkpt>
      <trkpt lat="42.9918260" lon="-5.9080230">
        <ele>1632.8</ele>
        <time>2018-06-17T12:20:48Z</time>
      </trkpt>
      <trkpt lat="42.9919810" lon="-5.9081910">
        <ele>1631.2</ele>
        <time>2018-06-17T12:20:50Z</time>
      </trkpt>
      <trkpt lat="42.9921360" lon="-5.9083730">
        <ele>1630.2</ele>
        <time>2018-06-17T12:20:52Z</time>
      </trkpt>
      <trkpt lat="42.9922910" lon="-5.9085530">
        <ele>1628.2</ele>
        <time>2018-06-17T12:20:54Z</time>
      </trkpt>
      <trkpt lat="42.9924460" lon="-5.9087260">
        <ele>1626.4</ele>
        <time>2018-06-17T12:20:56Z</time>
      </trkpt>
      <trkpt lat="42.9925960" lon="-5.9089140">
        <ele>1625.0</ele>
        <time>2018-06-17T12:20:58Z</time>
      </trkpt>
      <trkpt lat="42.9926570" lon="-5.9090230">
        <ele>1623.8</ele>
        <time>2018-06-17T12:20:59Z</time>
      </trkpt>
      <trkpt lat="42.9927690" lon="-5.9092410">
        <ele>1622.4</ele>
        <time>2018-06-17T12:21:01Z</time>
      </trkpt>
      <trkpt lat="42.9929020" lon="-5.9095890">
        <ele>1620.8</ele>
        <time>2018-06-17T12:21:04Z</time>
      </trkpt>
      <trkpt lat="42.9930030" lon="-5.9098190">
        <ele>1619.4</ele>
        <time>2018-06-17T12:21:06Z</time>
      </trkpt>
      <trkpt lat="42.9931290" lon="-5.9100400">
        <ele>1618.4</ele>
        <time>2018-06-17T12:21:08Z</time>
      </trkpt>
      <trkpt lat="42.9932980" lon="-5.9102110">
        <ele>1616.6</ele>
        <time>2018-06-17T12:21:10Z</time>
      </trkpt>
      <trkpt lat="42.9934760" lon="-5.9103500">
        <ele>1615.6</ele>
        <time>2018-06-17T12:21:12Z</time>
      </trkpt>
      <trkpt lat="42.9936590" lon="-5.9104380">
        <ele>1614.0</ele>
        <time>2018-06-17T12:21:14Z</time>
      </trkpt>
      <trkpt lat="42.9937550" lon="-5.9104510">
        <ele>1613.4</ele>
        <time>2018-06-17T12:21:15Z</time>
      </trkpt>
      <trkpt lat="42.9938520" lon="-5.9104490">
        <ele>1612.6</ele>
        <time>2018-06-17T12:21:16Z</time>
      </trkpt>
      <trkpt lat="42.9940500" lon="-5.9104060">
        <ele>1611.6</ele>
        <time>2018-06-17T12:21:18Z</time>
      </trkpt>
      <trkpt lat="42.9942380" lon="-5.9103110">
        <ele>1610.4</ele>
        <time>2018-06-17T12:21:20Z</time>
      </trkpt>
      <trkpt lat="42.9943240" lon="-5.9102500">
        <ele>1610.0</ele>
        <time>2018-06-17T12:21:21Z</time>
      </trkpt>
      <trkpt lat="42.9944100" lon="-5.9101890">
        <ele>1609.4</ele>
        <time>2018-06-17T12:21:22Z</time>
      </trkpt>
      <trkpt lat="42.9945880" lon="-5.9100700">
        <ele>1608.0</ele>
        <time>2018-06-17T12:21:24Z</time>
      </trkpt>
      <trkpt lat="42.9947600" lon="-5.9099480">
        <ele>1606.6</ele>
        <time>2018-06-17T12:21:26Z</time>
      </trkpt>
      <trkpt lat="42.9949250" lon="-5.9098510">
        <ele>1605.6</ele>
        <time>2018-06-17T12:21:28Z</time>
      </trkpt>
      <trkpt lat="42.9950070" lon="-5.9098240">
        <ele>1605.0</ele>
        <time>2018-06-17T12:21:29Z</time>
      </trkpt>
      <trkpt lat="42.9951750" lon="-5.9097880">
        <ele>1604.2</ele>
        <time>2018-06-17T12:21:31Z</time>
      </trkpt>
      <trkpt lat="42.9953460" lon="-5.9097010">
        <ele>1603.0</ele>
        <time>2018-06-17T12:21:33Z</time>
      </trkpt>
      <trkpt lat="42.9955950" lon="-5.9096070">
        <ele>1601.4</ele>
        <time>2018-06-17T12:21:36Z</time>
      </trkpt>
      <trkpt lat="42.9957560" lon="-5.9095160">
        <ele>1600.0</ele>
        <time>2018-06-17T12:21:38Z</time>
      </trkpt>
      <trkpt lat="42.9959550" lon="-5.9092980">
        <ele>1598.8</ele>
        <time>2018-06-17T12:21:41Z</time>
      </trkpt>
      <trkpt lat="42.9961200" lon="-5.9092140">
        <ele>1597.2</ele>
        <time>2018-06-17T12:21:43Z</time>
      </trkpt>
      <trkpt lat="42.9962070" lon="-5.9091750">
        <ele>1596.6</ele>
        <time>2018-06-17T12:21:44Z</time>
      </trkpt>
      <trkpt lat="42.9962880" lon="-5.9091210">
        <ele>1595.8</ele>
        <time>2018-06-17T12:21:45Z</time>
      </trkpt>
      <trkpt lat="42.9963650" lon="-5.9090630">
        <ele>1594.8</ele>
        <time>2018-06-17T12:21:46Z</time>
      </trkpt>
      <trkpt lat="42.9964320" lon="-5.9090240">
        <ele>1594.2</ele>
        <time>2018-06-17T12:21:47Z</time>
      </trkpt>
      <trkpt lat="42.9965010" lon="-5.9090240">
        <ele>1593.8</ele>
        <time>2018-06-17T12:21:48Z</time>
      </trkpt>
      <trkpt lat="42.9965640" lon="-5.9090440">
        <ele>1593.6</ele>
        <time>2018-06-17T12:21:49Z</time>
      </trkpt>
      <trkpt lat="42.9966890" lon="-5.9091310">
        <ele>1593.4</ele>
        <time>2018-06-17T12:21:51Z</time>
      </trkpt>
      <trkpt lat="42.9968080" lon="-5.9092220">
        <ele>1592.6</ele>
        <time>2018-06-17T12:21:53Z</time>
      </trkpt>
      <trkpt lat="42.9968620" lon="-5.9092740">
        <ele>1592.2</ele>
        <time>2018-06-17T12:21:54Z</time>
      </trkpt>
      <trkpt lat="42.9969790" lon="-5.9094810">
        <ele>1591.0</ele>
        <time>2018-06-17T12:21:57Z</time>
      </trkpt>
      <trkpt lat="42.9970700" lon="-5.9096400">
        <ele>1590.2</ele>
        <time>2018-06-17T12:21:59Z</time>
      </trkpt>
      <trkpt lat="42.9971300" lon="-5.9097120">
        <ele>1589.8</ele>
        <time>2018-06-17T12:22:00Z</time>
      </trkpt>
      <trkpt lat="42.9972210" lon="-5.9098760">
        <ele>1588.4</ele>
        <time>2018-06-17T12:22:02Z</time>
      </trkpt>
      <trkpt lat="42.9973000" lon="-5.9100680">
        <ele>1587.2</ele>
        <time>2018-06-17T12:22:04Z</time>
      </trkpt>
      <trkpt lat="42.9973440" lon="-5.9101740">
        <ele>1586.0</ele>
        <time>2018-06-17T12:22:05Z</time>
      </trkpt>
      <trkpt lat="42.9973940" lon="-5.9102820">
        <ele>1585.0</ele>
        <time>2018-06-17T12:22:06Z</time>
      </trkpt>
      <trkpt lat="42.9975060" lon="-5.9104950">
        <ele>1583.4</ele>
        <time>2018-06-17T12:22:08Z</time>
      </trkpt>
      <trkpt lat="42.9975700" lon="-5.9105950">
        <ele>1582.8</ele>
        <time>2018-06-17T12:22:09Z</time>
      </trkpt>
      <trkpt lat="42.9976410" lon="-5.9106810">
        <ele>1581.8</ele>
        <time>2018-06-17T12:22:10Z</time>
      </trkpt>
      <trkpt lat="42.9978080" lon="-5.9108020">
        <ele>1580.2</ele>
        <time>2018-06-17T12:22:12Z</time>
      </trkpt>
      <trkpt lat="42.9979840" lon="-5.9108640">
        <ele>1579.0</ele>
        <time>2018-06-17T12:22:14Z</time>
      </trkpt>
      <trkpt lat="42.9980660" lon="-5.9108870">
        <ele>1578.2</ele>
        <time>2018-06-17T12:22:15Z</time>
      </trkpt>
      <trkpt lat="42.9981420" lon="-5.9109130">
        <ele>1577.8</ele>
        <time>2018-06-17T12:22:16Z</time>
      </trkpt>
      <trkpt lat="42.9983580" lon="-5.9110250">
        <ele>1577.4</ele>
        <time>2018-06-17T12:22:20Z</time>
      </trkpt>
      <trkpt lat="42.9989150" lon="-5.9111910">
        <ele>1577.0</ele>
        <time>2018-06-17T12:22:30Z</time>
      </trkpt>
      <trkpt lat="42.9990630" lon="-5.9110970">
        <ele>1577.0</ele>
        <time>2018-06-17T12:22:33Z</time>
      </trkpt>
      <trkpt lat="42.9990890" lon="-5.9110220">
        <ele>1576.8</ele>
        <time>2018-06-17T12:22:34Z</time>
      </trkpt>
      <trkpt lat="42.9989550" lon="-5.9107330">
        <ele>1575.6</ele>
        <time>2018-06-17T12:22:38Z</time>
      </trkpt>
      <trkpt lat="42.9987860" lon="-5.9107540">
        <ele>1574.6</ele>
        <time>2018-06-17T12:22:40Z</time>
      </trkpt>
      <trkpt lat="42.9987020" lon="-5.9107870">
        <ele>1573.8</ele>
        <time>2018-06-17T12:22:41Z</time>
      </trkpt>
      <trkpt lat="42.9986210" lon="-5.9108170">
        <ele>1573.4</ele>
        <time>2018-06-17T12:22:42Z</time>
      </trkpt>
      <trkpt lat="42.9985360" lon="-5.9108380">
        <ele>1573.0</ele>
        <time>2018-06-17T12:22:43Z</time>
      </trkpt>
      <trkpt lat="42.9984470" lon="-5.9108480">
        <ele>1572.2</ele>
        <time>2018-06-17T12:22:44Z</time>
      </trkpt>
      <trkpt lat="42.9982760" lon="-5.9108100">
        <ele>1570.8</ele>
        <time>2018-06-17T12:22:46Z</time>
      </trkpt>
      <trkpt lat="42.9981120" lon="-5.9106990">
        <ele>1569.4</ele>
        <time>2018-06-17T12:22:48Z</time>
      </trkpt>
      <trkpt lat="42.9980310" lon="-5.9106300">
        <ele>1568.6</ele>
        <time>2018-06-17T12:22:49Z</time>
      </trkpt>
      <trkpt lat="42.9979530" lon="-5.9105500">
        <ele>1567.8</ele>
        <time>2018-06-17T12:22:50Z</time>
      </trkpt>
      <trkpt lat="42.9978770" lon="-5.9104580">
        <ele>1567.0</ele>
        <time>2018-06-17T12:22:51Z</time>
      </trkpt>
      <trkpt lat="42.9978070" lon="-5.9103510">
        <ele>1565.6</ele>
        <time>2018-06-17T12:22:52Z</time>
      </trkpt>
      <trkpt lat="42.9977410" lon="-5.9102360">
        <ele>1564.6</ele>
        <time>2018-06-17T12:22:53Z</time>
      </trkpt>
      <trkpt lat="42.9976180" lon="-5.9099910">
        <ele>1563.0</ele>
        <time>2018-06-17T12:22:55Z</time>
      </trkpt>
      <trkpt lat="42.9974860" lon="-5.9097400">
        <ele>1561.4</ele>
        <time>2018-06-17T12:22:57Z</time>
      </trkpt>
      <trkpt lat="42.9973480" lon="-5.9094910">
        <ele>1559.8</ele>
        <time>2018-06-17T12:22:59Z</time>
      </trkpt>
      <trkpt lat="42.9972040" lon="-5.9092520">
        <ele>1558.0</ele>
        <time>2018-06-17T12:23:01Z</time>
      </trkpt>
      <trkpt lat="42.9970740" lon="-5.9090360">
        <ele>1556.2</ele>
        <time>2018-06-17T12:23:03Z</time>
      </trkpt>
      <trkpt lat="42.9969510" lon="-5.9088420">
        <ele>1554.6</ele>
        <time>2018-06-17T12:23:05Z</time>
      </trkpt>
      <trkpt lat="42.9966800" lon="-5.9085380">
        <ele>1553.6</ele>
        <time>2018-06-17T12:23:09Z</time>
      </trkpt>
      <trkpt lat="42.9965450" lon="-5.9084180">
        <ele>1552.0</ele>
        <time>2018-06-17T12:23:11Z</time>
      </trkpt>
      <trkpt lat="42.9964220" lon="-5.9083380">
        <ele>1550.8</ele>
        <time>2018-06-17T12:23:13Z</time>
      </trkpt>
      <trkpt lat="42.9962020" lon="-5.9083800">
        <ele>1549.2</ele>
        <time>2018-06-17T12:23:16Z</time>
      </trkpt>
      <trkpt lat="42.9960350" lon="-5.9084390">
        <ele>1547.4</ele>
        <time>2018-06-17T12:23:18Z</time>
      </trkpt>
      <trkpt lat="42.9958470" lon="-5.9084230">
        <ele>1546.0</ele>
        <time>2018-06-17T12:23:20Z</time>
      </trkpt>
      <trkpt lat="42.9957490" lon="-5.9084220">
        <ele>1545.0</ele>
        <time>2018-06-17T12:23:21Z</time>
      </trkpt>
      <trkpt lat="42.9956520" lon="-5.9084430">
        <ele>1543.8</ele>
        <time>2018-06-17T12:23:22Z</time>
      </trkpt>
      <trkpt lat="42.9954600" lon="-5.9085470">
        <ele>1542.2</ele>
        <time>2018-06-17T12:23:24Z</time>
      </trkpt>
      <trkpt lat="42.9953660" lon="-5.9086050">
        <ele>1541.6</ele>
        <time>2018-06-17T12:23:25Z</time>
      </trkpt>
      <trkpt lat="42.9952720" lon="-5.9086440">
        <ele>1541.0</ele>
        <time>2018-06-17T12:23:26Z</time>
      </trkpt>
      <trkpt lat="42.9950810" lon="-5.9086230">
        <ele>1539.4</ele>
        <time>2018-06-17T12:23:28Z</time>
      </trkpt>
      <trkpt lat="42.9949100" lon="-5.9084530">
        <ele>1537.6</ele>
        <time>2018-06-17T12:23:30Z</time>
      </trkpt>
      <trkpt lat="42.9948300" lon="-5.9083510">
        <ele>1536.8</ele>
        <time>2018-06-17T12:23:31Z</time>
      </trkpt>
      <trkpt lat="42.9947500" lon="-5.9082660">
        <ele>1536.4</ele>
        <time>2018-06-17T12:23:32Z</time>
      </trkpt>
      <trkpt lat="42.9945670" lon="-5.9081660">
        <ele>1535.2</ele>
        <time>2018-06-17T12:23:34Z</time>
      </trkpt>
      <trkpt lat="42.9943960" lon="-5.9081310">
        <ele>1534.0</ele>
        <time>2018-06-17T12:23:36Z</time>
      </trkpt>
      <trkpt lat="42.9943150" lon="-5.9081190">
        <ele>1533.0</ele>
        <time>2018-06-17T12:23:37Z</time>
      </trkpt>
      <trkpt lat="42.9941490" lon="-5.9080760">
        <ele>1531.8</ele>
        <time>2018-06-17T12:23:39Z</time>
      </trkpt>
      <trkpt lat="42.9940680" lon="-5.9080360">
        <ele>1531.2</ele>
        <time>2018-06-17T12:23:40Z</time>
      </trkpt>
      <trkpt lat="42.9939970" lon="-5.9079740">
        <ele>1530.6</ele>
        <time>2018-06-17T12:23:41Z</time>
      </trkpt>
      <trkpt lat="42.9938950" lon="-5.9077810">
        <ele>1529.2</ele>
        <time>2018-06-17T12:23:43Z</time>
      </trkpt>
      <trkpt lat="42.9938570" lon="-5.9075180">
        <ele>1527.6</ele>
        <time>2018-06-17T12:23:45Z</time>
      </trkpt>
      <trkpt lat="42.9938450" lon="-5.9073790">
        <ele>1527.0</ele>
        <time>2018-06-17T12:23:46Z</time>
      </trkpt>
      <trkpt lat="42.9938320" lon="-5.9072380">
        <ele>1526.2</ele>
        <time>2018-06-17T12:23:47Z</time>
      </trkpt>
      <trkpt lat="42.9937970" lon="-5.9069780">
        <ele>1524.8</ele>
        <time>2018-06-17T12:23:49Z</time>
      </trkpt>
      <trkpt lat="42.9937840" lon="-5.9068700">
        <ele>1524.4</ele>
        <time>2018-06-17T12:23:50Z</time>
      </trkpt>
      <trkpt lat="42.9937790" lon="-5.9066810">
        <ele>1523.6</ele>
        <time>2018-06-17T12:23:52Z</time>
      </trkpt>
      <trkpt lat="42.9940290" lon="-5.9064890">
        <ele>1522.2</ele>
        <time>2018-06-17T12:23:57Z</time>
      </trkpt>
      <trkpt lat="42.9941060" lon="-5.9066410">
        <ele>1521.0</ele>
        <time>2018-06-17T12:23:59Z</time>
      </trkpt>
      <trkpt lat="42.9941100" lon="-5.9068580">
        <ele>1519.2</ele>
        <time>2018-06-17T12:24:01Z</time>
      </trkpt>
      <trkpt lat="42.9941230" lon="-5.9070940">
        <ele>1518.2</ele>
        <time>2018-06-17T12:24:03Z</time>
      </trkpt>
      <trkpt lat="42.9942520" lon="-5.9072510">
        <ele>1517.0</ele>
        <time>2018-06-17T12:24:05Z</time>
      </trkpt>
      <trkpt lat="42.9944400" lon="-5.9072810">
        <ele>1515.2</ele>
        <time>2018-06-17T12:24:07Z</time>
      </trkpt>
      <trkpt lat="42.9945350" lon="-5.9073060">
        <ele>1514.2</ele>
        <time>2018-06-17T12:24:08Z</time>
      </trkpt>
      <trkpt lat="42.9946260" lon="-5.9073590">
        <ele>1513.4</ele>
        <time>2018-06-17T12:24:09Z</time>
      </trkpt>
      <trkpt lat="42.9948080" lon="-5.9074930">
        <ele>1511.8</ele>
        <time>2018-06-17T12:24:11Z</time>
      </trkpt>
      <trkpt lat="42.9949070" lon="-5.9075400">
        <ele>1511.4</ele>
        <time>2018-06-17T12:24:12Z</time>
      </trkpt>
      <trkpt lat="42.9950110" lon="-5.9075560">
        <ele>1510.0</ele>
        <time>2018-06-17T12:24:13Z</time>
      </trkpt>
      <trkpt lat="42.9952220" lon="-5.9075490">
        <ele>1508.4</ele>
        <time>2018-06-17T12:24:15Z</time>
      </trkpt>
      <trkpt lat="42.9954400" lon="-5.9075650">
        <ele>1507.4</ele>
        <time>2018-06-17T12:24:17Z</time>
      </trkpt>
      <trkpt lat="42.9955500" lon="-5.9075830">
        <ele>1506.6</ele>
        <time>2018-06-17T12:24:18Z</time>
      </trkpt>
      <trkpt lat="42.9956620" lon="-5.9076020">
        <ele>1505.4</ele>
        <time>2018-06-17T12:24:19Z</time>
      </trkpt>
      <trkpt lat="42.9957710" lon="-5.9076180">
        <ele>1504.2</ele>
        <time>2018-06-17T12:24:20Z</time>
      </trkpt>
      <trkpt lat="42.9959840" lon="-5.9076300">
        <ele>1502.8</ele>
        <time>2018-06-17T12:24:22Z</time>
      </trkpt>
      <trkpt lat="42.9962550" lon="-5.9075950">
        <ele>1501.8</ele>
        <time>2018-06-17T12:24:25Z</time>
      </trkpt>
      <trkpt lat="42.9963290" lon="-5.9075540">
        <ele>1501.6</ele>
        <time>2018-06-17T12:24:26Z</time>
      </trkpt>
      <trkpt lat="42.9964520" lon="-5.9074500">
        <ele>1501.2</ele>
        <time>2018-06-17T12:24:28Z</time>
      </trkpt>
      <trkpt lat="42.9965700" lon="-5.9074270">
        <ele>1500.2</ele>
        <time>2018-06-17T12:24:30Z</time>
      </trkpt>
      <trkpt lat="42.9967060" lon="-5.9075070">
        <ele>1499.0</ele>
        <time>2018-06-17T12:24:32Z</time>
      </trkpt>
      <trkpt lat="42.9967770" lon="-5.9075580">
        <ele>1498.4</ele>
        <time>2018-06-17T12:24:33Z</time>
      </trkpt>
      <trkpt lat="42.9968530" lon="-5.9076120">
        <ele>1497.2</ele>
        <time>2018-06-17T12:24:34Z</time>
      </trkpt>
      <trkpt lat="42.9970090" lon="-5.9077300">
        <ele>1495.8</ele>
        <time>2018-06-17T12:24:36Z</time>
      </trkpt>
      <trkpt lat="42.9972480" lon="-5.9078810">
        <ele>1494.2</ele>
        <time>2018-06-17T12:24:39Z</time>
      </trkpt>
      <trkpt lat="42.9974180" lon="-5.9079460">
        <ele>1493.0</ele>
        <time>2018-06-17T12:24:41Z</time>
      </trkpt>
      <trkpt lat="42.9976100" lon="-5.9079710">
        <ele>1491.2</ele>
        <time>2018-06-17T12:24:43Z</time>
      </trkpt>
      <trkpt lat="42.9978090" lon="-5.9079730">
        <ele>1489.8</ele>
        <time>2018-06-17T12:24:45Z</time>
      </trkpt>
      <trkpt lat="42.9980160" lon="-5.9079550">
        <ele>1487.8</ele>
        <time>2018-06-17T12:24:47Z</time>
      </trkpt>
      <trkpt lat="42.9982250" lon="-5.9078750">
        <ele>1486.4</ele>
        <time>2018-06-17T12:24:49Z</time>
      </trkpt>
      <trkpt lat="42.9984370" lon="-5.9077850">
        <ele>1484.6</ele>
        <time>2018-06-17T12:24:51Z</time>
      </trkpt>
      <trkpt lat="42.9986360" lon="-5.9076980">
        <ele>1483.0</ele>
        <time>2018-06-17T12:24:53Z</time>
      </trkpt>
      <trkpt lat="42.9988110" lon="-5.9076130">
        <ele>1482.0</ele>
        <time>2018-06-17T12:24:55Z</time>
      </trkpt>
      <trkpt lat="42.9989860" lon="-5.9073440">
        <ele>1480.6</ele>
        <time>2018-06-17T12:24:58Z</time>
      </trkpt>
      <trkpt lat="42.9990690" lon="-5.9071450">
        <ele>1479.4</ele>
        <time>2018-06-17T12:25:00Z</time>
      </trkpt>
      <trkpt lat="42.9992200" lon="-5.9070380">
        <ele>1478.4</ele>
        <time>2018-06-17T12:25:02Z</time>
      </trkpt>
      <trkpt lat="42.9993900" lon="-5.9070450">
        <ele>1477.0</ele>
        <time>2018-06-17T12:25:04Z</time>
      </trkpt>
      <trkpt lat="42.9994820" lon="-5.9070650">
        <ele>1476.0</ele>
        <time>2018-06-17T12:25:05Z</time>
      </trkpt>
      <trkpt lat="42.9995790" lon="-5.9070870">
        <ele>1475.0</ele>
        <time>2018-06-17T12:25:06Z</time>
      </trkpt>
      <trkpt lat="42.9997750" lon="-5.9071480">
        <ele>1473.4</ele>
        <time>2018-06-17T12:25:08Z</time>
      </trkpt>
      <trkpt lat="42.9999740" lon="-5.9072470">
        <ele>1472.0</ele>
        <time>2018-06-17T12:25:10Z</time>
      </trkpt>
      <trkpt lat="43.0000750" lon="-5.9073050">
        <ele>1470.4</ele>
        <time>2018-06-17T12:25:11Z</time>
      </trkpt>
      <trkpt lat="43.0001790" lon="-5.9073650">
        <ele>1469.2</ele>
        <time>2018-06-17T12:25:12Z</time>
      </trkpt>
      <trkpt lat="43.0003880" lon="-5.9074950">
        <ele>1467.6</ele>
        <time>2018-06-17T12:25:14Z</time>
      </trkpt>
      <trkpt lat="43.0006020" lon="-5.9076420">
        <ele>1466.4</ele>
        <time>2018-06-17T12:25:16Z</time>
      </trkpt>
      <trkpt lat="43.0008010" lon="-5.9077570">
        <ele>1464.4</ele>
        <time>2018-06-17T12:25:18Z</time>
      </trkpt>
      <trkpt lat="43.0009680" lon="-5.9078150">
        <ele>1463.4</ele>
        <time>2018-06-17T12:25:20Z</time>
      </trkpt>
      <trkpt lat="43.0011410" lon="-5.9080000">
        <ele>1462.2</ele>
        <time>2018-06-17T12:25:23Z</time>
      </trkpt>
      <trkpt lat="43.0011820" lon="-5.9080870">
        <ele>1461.8</ele>
        <time>2018-06-17T12:25:24Z</time>
      </trkpt>
      <trkpt lat="43.0012290" lon="-5.9081730">
        <ele>1461.4</ele>
        <time>2018-06-17T12:25:25Z</time>
      </trkpt>
      <trkpt lat="43.0012980" lon="-5.9082390">
        <ele>1460.8</ele>
        <time>2018-06-17T12:25:26Z</time>
      </trkpt>
      <trkpt lat="43.0014800" lon="-5.9082660">
        <ele>1459.4</ele>
        <time>2018-06-17T12:25:28Z</time>
      </trkpt>
      <trkpt lat="43.0016830" lon="-5.9082180">
        <ele>1457.4</ele>
        <time>2018-06-17T12:25:30Z</time>
      </trkpt>
      <trkpt lat="43.0018760" lon="-5.9081770">
        <ele>1455.6</ele>
        <time>2018-06-17T12:25:32Z</time>
      </trkpt>
      <trkpt lat="43.0020630" lon="-5.9081450">
        <ele>1454.4</ele>
        <time>2018-06-17T12:25:34Z</time>
      </trkpt>
      <trkpt lat="43.0022410" lon="-5.9081180">
        <ele>1452.6</ele>
        <time>2018-06-17T12:25:36Z</time>
      </trkpt>
      <trkpt lat="43.0023980" lon="-5.9080960">
        <ele>1451.4</ele>
        <time>2018-06-17T12:25:38Z</time>
      </trkpt>
      <trkpt lat="43.0025350" lon="-5.9080980">
        <ele>1450.4</ele>
        <time>2018-06-17T12:25:40Z</time>
      </trkpt>
      <trkpt lat="43.0027400" lon="-5.9082660">
        <ele>1448.8</ele>
        <time>2018-06-17T12:25:43Z</time>
      </trkpt>
      <trkpt lat="43.0028190" lon="-5.9083280">
        <ele>1448.2</ele>
        <time>2018-06-17T12:25:44Z</time>
      </trkpt>
      <trkpt lat="43.0029080" lon="-5.9083730">
        <ele>1447.4</ele>
        <time>2018-06-17T12:25:45Z</time>
      </trkpt>
      <trkpt lat="43.0030040" lon="-5.9084000">
        <ele>1446.4</ele>
        <time>2018-06-17T12:25:46Z</time>
      </trkpt>
      <trkpt lat="43.0032060" lon="-5.9084450">
        <ele>1444.8</ele>
        <time>2018-06-17T12:25:48Z</time>
      </trkpt>
      <trkpt lat="43.0034170" lon="-5.9085120">
        <ele>1443.8</ele>
        <time>2018-06-17T12:25:50Z</time>
      </trkpt>
      <trkpt lat="43.0035290" lon="-5.9085500">
        <ele>1443.0</ele>
        <time>2018-06-17T12:25:51Z</time>
      </trkpt>
      <trkpt lat="43.0036350" lon="-5.9085850">
        <ele>1441.8</ele>
        <time>2018-06-17T12:25:52Z</time>
      </trkpt>
      <trkpt lat="43.0037390" lon="-5.9086180">
        <ele>1440.8</ele>
        <time>2018-06-17T12:25:53Z</time>
      </trkpt>
      <trkpt lat="43.0039400" lon="-5.9086770">
        <ele>1439.4</ele>
        <time>2018-06-17T12:25:55Z</time>
      </trkpt>
      <trkpt lat="43.0041530" lon="-5.9087090">
        <ele>1438.4</ele>
        <time>2018-06-17T12:25:57Z</time>
      </trkpt>
      <trkpt lat="43.0042660" lon="-5.9087080">
        <ele>1437.6</ele>
        <time>2018-06-17T12:25:58Z</time>
      </trkpt>
      <trkpt lat="43.0043820" lon="-5.9086950">
        <ele>1436.6</ele>
        <time>2018-06-17T12:25:59Z</time>
      </trkpt>
      <trkpt lat="43.0046230" lon="-5.9086610">
        <ele>1434.8</ele>
        <time>2018-06-17T12:26:01Z</time>
      </trkpt>
      <trkpt lat="43.0047430" lon="-5.9086480">
        <ele>1433.2</ele>
        <time>2018-06-17T12:26:02Z</time>
      </trkpt>
      <trkpt lat="43.0049960" lon="-5.9086530">
        <ele>1431.4</ele>
        <time>2018-06-17T12:26:04Z</time>
      </trkpt>
      <trkpt lat="43.0051230" lon="-5.9086520">
        <ele>1430.2</ele>
        <time>2018-06-17T12:26:05Z</time>
      </trkpt>
      <trkpt lat="43.0052490" lon="-5.9086440">
        <ele>1428.8</ele>
        <time>2018-06-17T12:26:06Z</time>
      </trkpt>
      <trkpt lat="43.0054950" lon="-5.9086240">
        <ele>1427.0</ele>
        <time>2018-06-17T12:26:08Z</time>
      </trkpt>
      <trkpt lat="43.0057440" lon="-5.9086120">
        <ele>1425.6</ele>
        <time>2018-06-17T12:26:10Z</time>
      </trkpt>
      <trkpt lat="43.0059910" lon="-5.9085750">
        <ele>1423.4</ele>
        <time>2018-06-17T12:26:12Z</time>
      </trkpt>
      <trkpt lat="43.0062230" lon="-5.9085280">
        <ele>1421.8</ele>
        <time>2018-06-17T12:26:14Z</time>
      </trkpt>
      <trkpt lat="43.0064300" lon="-5.9084890">
        <ele>1420.2</ele>
        <time>2018-06-17T12:26:16Z</time>
      </trkpt>
      <trkpt lat="43.0067070" lon="-5.9084280">
        <ele>1418.6</ele>
        <time>2018-06-17T12:26:19Z</time>
      </trkpt>
      <trkpt lat="43.0068740" lon="-5.9084020">
        <ele>1417.8</ele>
        <time>2018-06-17T12:26:21Z</time>
      </trkpt>
      <trkpt lat="43.0069550" lon="-5.9084170">
        <ele>1417.0</ele>
        <time>2018-06-17T12:26:22Z</time>
      </trkpt>
      <trkpt lat="43.0071170" lon="-5.9085000">
        <ele>1415.8</ele>
        <time>2018-06-17T12:26:24Z</time>
      </trkpt>
      <trkpt lat="43.0072060" lon="-5.9085290">
        <ele>1415.4</ele>
        <time>2018-06-17T12:26:25Z</time>
      </trkpt>
      <trkpt lat="43.0073070" lon="-5.9085280">
        <ele>1414.8</ele>
        <time>2018-06-17T12:26:26Z</time>
      </trkpt>
      <trkpt lat="43.0075170" lon="-5.9084930">
        <ele>1413.4</ele>
        <time>2018-06-17T12:26:28Z</time>
      </trkpt>
      <trkpt lat="43.0076260" lon="-5.9084870">
        <ele>1411.8</ele>
        <time>2018-06-17T12:26:29Z</time>
      </trkpt>
      <trkpt lat="43.0077350" lon="-5.9084840">
        <ele>1410.6</ele>
        <time>2018-06-17T12:26:30Z</time>
      </trkpt>
      <trkpt lat="43.0079400" lon="-5.9084840">
        <ele>1408.8</ele>
        <time>2018-06-17T12:26:32Z</time>
      </trkpt>
      <trkpt lat="43.0081240" lon="-5.9085060">
        <ele>1407.0</ele>
        <time>2018-06-17T12:26:34Z</time>
      </trkpt>
      <trkpt lat="43.0083000" lon="-5.9085700">
        <ele>1405.6</ele>
        <time>2018-06-17T12:26:36Z</time>
      </trkpt>
      <trkpt lat="43.0084690" lon="-5.9086440">
        <ele>1404.2</ele>
        <time>2018-06-17T12:26:38Z</time>
      </trkpt>
      <trkpt lat="43.0086370" lon="-5.9086430">
        <ele>1402.8</ele>
        <time>2018-06-17T12:26:40Z</time>
      </trkpt>
      <trkpt lat="43.0087670" lon="-5.9086220">
        <ele>1401.6</ele>
        <time>2018-06-17T12:26:42Z</time>
      </trkpt>
      <trkpt lat="43.0088890" lon="-5.9088850">
        <ele>1400.2</ele>
        <time>2018-06-17T12:26:46Z</time>
      </trkpt>
      <trkpt lat="43.0088120" lon="-5.9090760">
        <ele>1399.2</ele>
        <time>2018-06-17T12:26:48Z</time>
      </trkpt>
      <trkpt lat="43.0086600" lon="-5.9092080">
        <ele>1397.8</ele>
        <time>2018-06-17T12:26:50Z</time>
      </trkpt>
      <trkpt lat="43.0085850" lon="-5.9092810">
        <ele>1397.0</ele>
        <time>2018-06-17T12:26:51Z</time>
      </trkpt>
      <trkpt lat="43.0085160" lon="-5.9093680">
        <ele>1396.2</ele>
        <time>2018-06-17T12:26:52Z</time>
      </trkpt>
      <trkpt lat="43.0084550" lon="-5.9094680">
        <ele>1395.0</ele>
        <time>2018-06-17T12:26:53Z</time>
      </trkpt>
      <trkpt lat="43.0083340" lon="-5.9096910">
        <ele>1393.6</ele>
        <time>2018-06-17T12:26:55Z</time>
      </trkpt>
      <trkpt lat="43.0082720" lon="-5.9098020">
        <ele>1392.6</ele>
        <time>2018-06-17T12:26:56Z</time>
      </trkpt>
      <trkpt lat="43.0082070" lon="-5.9099160">
        <ele>1392.2</ele>
        <time>2018-06-17T12:26:57Z</time>
      </trkpt>
      <trkpt lat="43.0080730" lon="-5.9101530">
        <ele>1390.6</ele>
        <time>2018-06-17T12:26:59Z</time>
      </trkpt>
      <trkpt lat="43.0079340" lon="-5.9104020">
        <ele>1388.8</ele>
        <time>2018-06-17T12:27:01Z</time>
      </trkpt>
      <trkpt lat="43.0078090" lon="-5.9106730">
        <ele>1387.0</ele>
        <time>2018-06-17T12:27:03Z</time>
      </trkpt>
      <trkpt lat="43.0076970" lon="-5.9109710">
        <ele>1385.4</ele>
        <time>2018-06-17T12:27:05Z</time>
      </trkpt>
      <trkpt lat="43.0076430" lon="-5.9111260">
        <ele>1384.2</ele>
        <time>2018-06-17T12:27:06Z</time>
      </trkpt>
      <trkpt lat="43.0075400" lon="-5.9114380">
        <ele>1382.2</ele>
        <time>2018-06-17T12:27:08Z</time>
      </trkpt>
      <trkpt lat="43.0074350" lon="-5.9117480">
        <ele>1380.2</ele>
        <time>2018-06-17T12:27:10Z</time>
      </trkpt>
      <trkpt lat="43.0073370" lon="-5.9120630">
        <ele>1378.6</ele>
        <time>2018-06-17T12:27:12Z</time>
      </trkpt>
      <trkpt lat="43.0072290" lon="-5.9123680">
        <ele>1376.4</ele>
        <time>2018-06-17T12:27:14Z</time>
      </trkpt>
      <trkpt lat="43.0071060" lon="-5.9126380">
        <ele>1374.8</ele>
        <time>2018-06-17T12:27:16Z</time>
      </trkpt>
      <trkpt lat="43.0070070" lon="-5.9128940">
        <ele>1373.6</ele>
        <time>2018-06-17T12:27:18Z</time>
      </trkpt>
      <trkpt lat="43.0069810" lon="-5.9131770">
        <ele>1372.4</ele>
        <time>2018-06-17T12:27:20Z</time>
      </trkpt>
      <trkpt lat="43.0070170" lon="-5.9134620">
        <ele>1371.4</ele>
        <time>2018-06-17T12:27:22Z</time>
      </trkpt>
      <trkpt lat="43.0070390" lon="-5.9135920">
        <ele>1371.0</ele>
        <time>2018-06-17T12:27:23Z</time>
      </trkpt>
      <trkpt lat="43.0070990" lon="-5.9139150">
        <ele>1370.0</ele>
        <time>2018-06-17T12:27:26Z</time>
      </trkpt>
      <trkpt lat="43.0071410" lon="-5.9139930">
        <ele>1369.8</ele>
        <time>2018-06-17T12:27:27Z</time>
      </trkpt>
      <trkpt lat="43.0073820" lon="-5.9140380">
        <ele>1368.4</ele>
        <time>2018-06-17T12:27:30Z</time>
      </trkpt>
      <trkpt lat="43.0074710" lon="-5.9140040">
        <ele>1368.2</ele>
        <time>2018-06-17T12:27:31Z</time>
      </trkpt>
      <trkpt lat="43.0075600" lon="-5.9139900">
        <ele>1367.6</ele>
        <time>2018-06-17T12:27:32Z</time>
      </trkpt>
      <trkpt lat="43.0076450" lon="-5.9140150">
        <ele>1367.0</ele>
        <time>2018-06-17T12:27:33Z</time>
      </trkpt>
      <trkpt lat="43.0077940" lon="-5.9141560">
        <ele>1365.6</ele>
        <time>2018-06-17T12:27:35Z</time>
      </trkpt>
      <trkpt lat="43.0079210" lon="-5.9143460">
        <ele>1364.6</ele>
        <time>2018-06-17T12:27:37Z</time>
      </trkpt>
      <trkpt lat="43.0079890" lon="-5.9144260">
        <ele>1364.4</ele>
        <time>2018-06-17T12:27:38Z</time>
      </trkpt>
      <trkpt lat="43.0081480" lon="-5.9145010">
        <ele>1364.0</ele>
        <time>2018-06-17T12:27:40Z</time>
      </trkpt>
      <trkpt lat="43.0083210" lon="-5.9145060">
        <ele>1363.6</ele>
        <time>2018-06-17T12:27:42Z</time>
      </trkpt>
      <trkpt lat="43.0089180" lon="-5.9145670">
        <ele>1362.8</ele>
        <time>2018-06-17T12:27:49Z</time>
      </trkpt>
      <trkpt lat="43.0089930" lon="-5.9145980">
        <ele>1363.0</ele>
        <time>2018-06-17T12:27:50Z</time>
      </trkpt>
      <trkpt lat="43.0091540" lon="-5.9148180">
        <ele>1362.8</ele>
        <time>2018-06-17T12:27:53Z</time>
      </trkpt>
      <trkpt lat="43.0091960" lon="-5.9149130">
        <ele>1362.6</ele>
        <time>2018-06-17T12:27:54Z</time>
      </trkpt>
      <trkpt lat="43.0093440" lon="-5.9151920">
        <ele>1362.0</ele>
        <time>2018-06-17T12:27:57Z</time>
      </trkpt>
      <trkpt lat="43.0094640" lon="-5.9153580">
        <ele>1361.8</ele>
        <time>2018-06-17T12:27:59Z</time>
      </trkpt>
      <trkpt lat="43.0096810" lon="-5.9155610">
        <ele>1361.8</ele>
        <time>2018-06-17T12:28:02Z</time>
      </trkpt>
      <trkpt lat="43.0098340" lon="-5.9156880">
        <ele>1361.4</ele>
        <time>2018-06-17T12:28:04Z</time>
      </trkpt>
      <trkpt lat="43.0100730" lon="-5.9158390">
        <ele>1360.8</ele>
        <time>2018-06-17T12:28:07Z</time>
      </trkpt>
      <trkpt lat="43.0102440" lon="-5.9158570">
        <ele>1360.2</ele>
        <time>2018-06-17T12:28:09Z</time>
      </trkpt>
      <trkpt lat="43.0104530" lon="-5.9155370">
        <ele>1359.6</ele>
        <time>2018-06-17T12:28:13Z</time>
      </trkpt>
      <trkpt lat="43.0104180" lon="-5.9152220">
        <ele>1359.4</ele>
        <time>2018-06-17T12:28:16Z</time>
      </trkpt>
      <trkpt lat="43.0103970" lon="-5.9151170">
        <ele>1359.2</ele>
        <time>2018-06-17T12:28:17Z</time>
      </trkpt>
      <trkpt lat="43.0103310" lon="-5.9147970">
        <ele>1358.8</ele>
        <time>2018-06-17T12:28:20Z</time>
      </trkpt>
      <trkpt lat="43.0102610" lon="-5.9143630">
        <ele>1358.2</ele>
        <time>2018-06-17T12:28:24Z</time>
      </trkpt>
      <trkpt lat="43.0102870" lon="-5.9141610">
        <ele>1358.2</ele>
        <time>2018-06-17T12:28:26Z</time>
      </trkpt>
      <trkpt lat="43.0106360" lon="-5.9142180">
        <ele>1357.8</ele>
        <time>2018-06-17T12:28:32Z</time>
      </trkpt>
      <trkpt lat="43.0108150" lon="-5.9144020">
        <ele>1357.2</ele>
        <time>2018-06-17T12:28:35Z</time>
      </trkpt>
      <trkpt lat="43.0108790" lon="-5.9144570">
        <ele>1356.8</ele>
        <time>2018-06-17T12:28:36Z</time>
      </trkpt>
      <trkpt lat="43.0110890" lon="-5.9145960">
        <ele>1356.0</ele>
        <time>2018-06-17T12:28:39Z</time>
      </trkpt>
      <trkpt lat="43.0114080" lon="-5.9147750">
        <ele>1355.2</ele>
        <time>2018-06-17T12:28:43Z</time>
      </trkpt>
      <trkpt lat="43.0115060" lon="-5.9147870">
        <ele>1354.6</ele>
        <time>2018-06-17T12:28:44Z</time>
      </trkpt>
      <trkpt lat="43.0117140" lon="-5.9147620">
        <ele>1353.4</ele>
        <time>2018-06-17T12:28:46Z</time>
      </trkpt>
      <trkpt lat="43.0118150" lon="-5.9147480">
        <ele>1352.2</ele>
        <time>2018-06-17T12:28:47Z</time>
      </trkpt>
      <trkpt lat="43.0119110" lon="-5.9147460">
        <ele>1351.0</ele>
        <time>2018-06-17T12:28:48Z</time>
      </trkpt>
      <trkpt lat="43.0120980" lon="-5.9148080">
        <ele>1349.6</ele>
        <time>2018-06-17T12:28:50Z</time>
      </trkpt>
      <trkpt lat="43.0122640" lon="-5.9149690">
        <ele>1347.8</ele>
        <time>2018-06-17T12:28:52Z</time>
      </trkpt>
      <trkpt lat="43.0123390" lon="-5.9150710">
        <ele>1346.6</ele>
        <time>2018-06-17T12:28:53Z</time>
      </trkpt>
      <trkpt lat="43.0124510" lon="-5.9153200">
        <ele>1345.2</ele>
        <time>2018-06-17T12:28:55Z</time>
      </trkpt>
      <trkpt lat="43.0125460" lon="-5.9155810">
        <ele>1343.8</ele>
        <time>2018-06-17T12:28:57Z</time>
      </trkpt>
      <trkpt lat="43.0125670" lon="-5.9158820">
        <ele>1342.6</ele>
        <time>2018-06-17T12:28:59Z</time>
      </trkpt>
      <trkpt lat="43.0125580" lon="-5.9160360">
        <ele>1341.4</ele>
        <time>2018-06-17T12:29:00Z</time>
      </trkpt>
      <trkpt lat="43.0125430" lon="-5.9161820">
        <ele>1340.6</ele>
        <time>2018-06-17T12:29:01Z</time>
      </trkpt>
      <trkpt lat="43.0125400" lon="-5.9163110">
        <ele>1340.0</ele>
        <time>2018-06-17T12:29:02Z</time>
      </trkpt>
      <trkpt lat="43.0126250" lon="-5.9165030">
        <ele>1338.8</ele>
        <time>2018-06-17T12:29:04Z</time>
      </trkpt>
      <trkpt lat="43.0128040" lon="-5.9165820">
        <ele>1337.0</ele>
        <time>2018-06-17T12:29:06Z</time>
      </trkpt>
      <trkpt lat="43.0129050" lon="-5.9165520">
        <ele>1335.6</ele>
        <time>2018-06-17T12:29:07Z</time>
      </trkpt>
      <trkpt lat="43.0131100" lon="-5.9164380">
        <ele>1334.2</ele>
        <time>2018-06-17T12:29:09Z</time>
      </trkpt>
      <trkpt lat="43.0132090" lon="-5.9163720">
        <ele>1333.8</ele>
        <time>2018-06-17T12:29:10Z</time>
      </trkpt>
      <trkpt lat="43.0133050" lon="-5.9162940">
        <ele>1333.0</ele>
        <time>2018-06-17T12:29:11Z</time>
      </trkpt>
      <trkpt lat="43.0134850" lon="-5.9161110">
        <ele>1331.6</ele>
        <time>2018-06-17T12:29:13Z</time>
      </trkpt>
      <trkpt lat="43.0136530" lon="-5.9158890">
        <ele>1330.0</ele>
        <time>2018-06-17T12:29:15Z</time>
      </trkpt>
      <trkpt lat="43.0138290" lon="-5.9156650">
        <ele>1327.8</ele>
        <time>2018-06-17T12:29:17Z</time>
      </trkpt>
      <trkpt lat="43.0139230" lon="-5.9155600">
        <ele>1326.4</ele>
        <time>2018-06-17T12:29:18Z</time>
      </trkpt>
      <trkpt lat="43.0140140" lon="-5.9154550">
        <ele>1325.0</ele>
        <time>2018-06-17T12:29:19Z</time>
      </trkpt>
      <trkpt lat="43.0141760" lon="-5.9152560">
        <ele>1323.4</ele>
        <time>2018-06-17T12:29:21Z</time>
      </trkpt>
      <trkpt lat="43.0143570" lon="-5.9151110">
        <ele>1322.0</ele>
        <time>2018-06-17T12:29:23Z</time>
      </trkpt>
      <trkpt lat="43.0145590" lon="-5.9150550">
        <ele>1320.6</ele>
        <time>2018-06-17T12:29:25Z</time>
      </trkpt>
      <trkpt lat="43.0146530" lon="-5.9150460">
        <ele>1320.2</ele>
        <time>2018-06-17T12:29:26Z</time>
      </trkpt>
      <trkpt lat="43.0147370" lon="-5.9150260">
        <ele>1319.6</ele>
        <time>2018-06-17T12:29:27Z</time>
      </trkpt>
      <trkpt lat="43.0148600" lon="-5.9148840">
        <ele>1318.2</ele>
        <time>2018-06-17T12:29:29Z</time>
      </trkpt>
      <trkpt lat="43.0148850" lon="-5.9146220">
        <ele>1316.8</ele>
        <time>2018-06-17T12:29:31Z</time>
      </trkpt>
      <trkpt lat="43.0148600" lon="-5.9143410">
        <ele>1315.2</ele>
        <time>2018-06-17T12:29:33Z</time>
      </trkpt>
      <trkpt lat="43.0148520" lon="-5.9142050">
        <ele>1314.0</ele>
        <time>2018-06-17T12:29:34Z</time>
      </trkpt>
      <trkpt lat="43.0148550" lon="-5.9140680">
        <ele>1313.2</ele>
        <time>2018-06-17T12:29:35Z</time>
      </trkpt>
      <trkpt lat="43.0148800" lon="-5.9139310">
        <ele>1312.4</ele>
        <time>2018-06-17T12:29:36Z</time>
      </trkpt>
      <trkpt lat="43.0149200" lon="-5.9137970">
        <ele>1311.2</ele>
        <time>2018-06-17T12:29:37Z</time>
      </trkpt>
      <trkpt lat="43.0149700" lon="-5.9136650">
        <ele>1309.8</ele>
        <time>2018-06-17T12:29:38Z</time>
      </trkpt>
      <trkpt lat="43.0150250" lon="-5.9135320">
        <ele>1308.6</ele>
        <time>2018-06-17T12:29:39Z</time>
      </trkpt>
      <trkpt lat="43.0151550" lon="-5.9132720">
        <ele>1307.2</ele>
        <time>2018-06-17T12:29:41Z</time>
      </trkpt>
      <trkpt lat="43.0153160" lon="-5.9130430">
        <ele>1306.0</ele>
        <time>2018-06-17T12:29:43Z</time>
      </trkpt>
      <trkpt lat="43.0154670" lon="-5.9128000">
        <ele>1304.2</ele>
        <time>2018-06-17T12:29:45Z</time>
      </trkpt>
      <trkpt lat="43.0155480" lon="-5.9124830">
        <ele>1302.8</ele>
        <time>2018-06-17T12:29:47Z</time>
      </trkpt>
      <trkpt lat="43.0155790" lon="-5.9123160">
        <ele>1302.0</ele>
        <time>2018-06-17T12:29:48Z</time>
      </trkpt>
      <trkpt lat="43.0156170" lon="-5.9121510">
        <ele>1300.6</ele>
        <time>2018-06-17T12:29:49Z</time>
      </trkpt>
      <trkpt lat="43.0157190" lon="-5.9118310">
        <ele>1298.8</ele>
        <time>2018-06-17T12:29:51Z</time>
      </trkpt>
      <trkpt lat="43.0158300" lon="-5.9115410">
        <ele>1297.0</ele>
        <time>2018-06-17T12:29:53Z</time>
      </trkpt>
      <trkpt lat="43.0159150" lon="-5.9112710">
        <ele>1295.2</ele>
        <time>2018-06-17T12:29:55Z</time>
      </trkpt>
      <trkpt lat="43.0160180" lon="-5.9110080">
        <ele>1294.0</ele>
        <time>2018-06-17T12:29:57Z</time>
      </trkpt>
      <trkpt lat="43.0161530" lon="-5.9107590">
        <ele>1292.2</ele>
        <time>2018-06-17T12:29:59Z</time>
      </trkpt>
      <trkpt lat="43.0163010" lon="-5.9105500">
        <ele>1290.6</ele>
        <time>2018-06-17T12:30:01Z</time>
      </trkpt>
      <trkpt lat="43.0164460" lon="-5.9103890">
        <ele>1289.2</ele>
        <time>2018-06-17T12:30:03Z</time>
      </trkpt>
      <trkpt lat="43.0166130" lon="-5.9103080">
        <ele>1287.8</ele>
        <time>2018-06-17T12:30:05Z</time>
      </trkpt>
      <trkpt lat="43.0168030" lon="-5.9103070">
        <ele>1286.4</ele>
        <time>2018-06-17T12:30:07Z</time>
      </trkpt>
      <trkpt lat="43.0169010" lon="-5.9102830">
        <ele>1285.2</ele>
        <time>2018-06-17T12:30:08Z</time>
      </trkpt>
      <trkpt lat="43.0170910" lon="-5.9101380">
        <ele>1283.6</ele>
        <time>2018-06-17T12:30:10Z</time>
      </trkpt>
      <trkpt lat="43.0172900" lon="-5.9099990">
        <ele>1281.8</ele>
        <time>2018-06-17T12:30:12Z</time>
      </trkpt>
      <trkpt lat="43.0173990" lon="-5.9099500">
        <ele>1280.2</ele>
        <time>2018-06-17T12:30:13Z</time>
      </trkpt>
      <trkpt lat="43.0176210" lon="-5.9098360">
        <ele>1278.4</ele>
        <time>2018-06-17T12:30:15Z</time>
      </trkpt>
      <trkpt lat="43.0177290" lon="-5.9097590">
        <ele>1278.0</ele>
        <time>2018-06-17T12:30:16Z</time>
      </trkpt>
      <trkpt lat="43.0178210" lon="-5.9096640">
        <ele>1277.2</ele>
        <time>2018-06-17T12:30:17Z</time>
      </trkpt>
      <trkpt lat="43.0179140" lon="-5.9095660">
        <ele>1276.2</ele>
        <time>2018-06-17T12:30:18Z</time>
      </trkpt>
      <trkpt lat="43.0180820" lon="-5.9093800">
        <ele>1274.4</ele>
        <time>2018-06-17T12:30:20Z</time>
      </trkpt>
      <trkpt lat="43.0182210" lon="-5.9092370">
        <ele>1273.0</ele>
        <time>2018-06-17T12:30:22Z</time>
      </trkpt>
      <trkpt lat="43.0184500" lon="-5.9092200">
        <ele>1272.0</ele>
        <time>2018-06-17T12:30:25Z</time>
      </trkpt>
      <trkpt lat="43.0186080" lon="-5.9092000">
        <ele>1271.4</ele>
        <time>2018-06-17T12:30:27Z</time>
      </trkpt>
      <trkpt lat="43.0186980" lon="-5.9090890">
        <ele>1270.8</ele>
        <time>2018-06-17T12:30:29Z</time>
      </trkpt>
      <trkpt lat="43.0186710" lon="-5.9088880">
        <ele>1269.6</ele>
        <time>2018-06-17T12:30:32Z</time>
      </trkpt>
      <trkpt lat="43.0184460" lon="-5.9088560">
        <ele>1268.0</ele>
        <time>2018-06-17T12:30:35Z</time>
      </trkpt>
      <trkpt lat="43.0182890" lon="-5.9089600">
        <ele>1267.4</ele>
        <time>2018-06-17T12:30:37Z</time>
      </trkpt>
      <trkpt lat="43.0182210" lon="-5.9090340">
        <ele>1266.8</ele>
        <time>2018-06-17T12:30:38Z</time>
      </trkpt>
      <trkpt lat="43.0181520" lon="-5.9091050">
        <ele>1266.4</ele>
        <time>2018-06-17T12:30:39Z</time>
      </trkpt>
      <trkpt lat="43.0180040" lon="-5.9092480">
        <ele>1265.6</ele>
        <time>2018-06-17T12:30:41Z</time>
      </trkpt>
      <trkpt lat="43.0177660" lon="-5.9094430">
        <ele>1264.4</ele>
        <time>2018-06-17T12:30:44Z</time>
      </trkpt>
      <trkpt lat="43.0175170" lon="-5.9096230">
        <ele>1263.4</ele>
        <time>2018-06-17T12:30:47Z</time>
      </trkpt>
      <trkpt lat="43.0172570" lon="-5.9097420">
        <ele>1262.4</ele>
        <time>2018-06-17T12:30:50Z</time>
      </trkpt>
      <trkpt lat="43.0171670" lon="-5.9097620">
        <ele>1262.2</ele>
        <time>2018-06-17T12:30:51Z</time>
      </trkpt>
      <trkpt lat="43.0170780" lon="-5.9097860">
        <ele>1262.0</ele>
        <time>2018-06-17T12:30:52Z</time>
      </trkpt>
      <trkpt lat="43.0166860" lon="-5.9099950">
        <ele>1261.2</ele>
        <time>2018-06-17T12:30:57Z</time>
      </trkpt>
      <trkpt lat="43.0162030" lon="-5.9099130">
        <ele>1260.0</ele>
        <time>2018-06-17T12:31:03Z</time>
      </trkpt>
      <trkpt lat="43.0159410" lon="-5.9102130">
        <ele>1259.4</ele>
        <time>2018-06-17T12:31:07Z</time>
      </trkpt>
      <trkpt lat="43.0158790" lon="-5.9102920">
        <ele>1258.8</ele>
        <time>2018-06-17T12:31:08Z</time>
      </trkpt>
      <trkpt lat="43.0156900" lon="-5.9105460">
        <ele>1258.0</ele>
        <time>2018-06-17T12:31:11Z</time>
      </trkpt>
      <trkpt lat="43.0155620" lon="-5.9107140">
        <ele>1257.4</ele>
        <time>2018-06-17T12:31:13Z</time>
      </trkpt>
      <trkpt lat="43.0155040" lon="-5.9108100">
        <ele>1257.0</ele>
        <time>2018-06-17T12:31:14Z</time>
      </trkpt>
      <trkpt lat="43.0153310" lon="-5.9112610">
        <ele>1256.4</ele>
        <time>2018-06-17T12:31:18Z</time>
      </trkpt>
      <trkpt lat="43.0152290" lon="-5.9114760">
        <ele>1255.8</ele>
        <time>2018-06-17T12:31:20Z</time>
      </trkpt>
      <trkpt lat="43.0150290" lon="-5.9117320">
        <ele>1255.0</ele>
        <time>2018-06-17T12:31:23Z</time>
      </trkpt>
      <trkpt lat="43.0149680" lon="-5.9118250">
        <ele>1254.2</ele>
        <time>2018-06-17T12:31:24Z</time>
      </trkpt>
      <trkpt lat="43.0149230" lon="-5.9119380">
        <ele>1253.8</ele>
        <time>2018-06-17T12:31:25Z</time>
      </trkpt>
      <trkpt lat="43.0148600" lon="-5.9121800">
        <ele>1252.6</ele>
        <time>2018-06-17T12:31:27Z</time>
      </trkpt>
      <trkpt lat="43.0148220" lon="-5.9123000">
        <ele>1252.4</ele>
        <time>2018-06-17T12:31:28Z</time>
      </trkpt>
      <trkpt lat="43.0145870" lon="-5.9127090">
        <ele>1251.4</ele>
        <time>2018-06-17T12:31:32Z</time>
      </trkpt>
      <trkpt lat="43.0145190" lon="-5.9129410">
        <ele>1251.0</ele>
        <time>2018-06-17T12:31:34Z</time>
      </trkpt>
      <trkpt lat="43.0143960" lon="-5.9132510">
        <ele>1250.2</ele>
        <time>2018-06-17T12:31:37Z</time>
      </trkpt>
      <trkpt lat="43.0140780" lon="-5.9135880">
        <ele>1249.4</ele>
        <time>2018-06-17T12:31:42Z</time>
      </trkpt>
      <trkpt lat="43.0138600" lon="-5.9136980">
        <ele>1248.4</ele>
        <time>2018-06-17T12:31:45Z</time>
      </trkpt>
      <trkpt lat="43.0242370" lon="-5.9107970">
        <ele>1157.6</ele>
        <time>2018-06-17T12:34:35Z</time>
      </trkpt>
      <trkpt lat="43.0242810" lon="-5.9108860">
        <ele>1157.2</ele>
        <time>2018-06-17T12:34:36Z</time>
      </trkpt>
      <trkpt lat="43.0244070" lon="-5.9111440">
        <ele>1156.8</ele>
        <time>2018-06-17T12:34:39Z</time>
      </trkpt>
      <trkpt lat="43.0245010" lon="-5.9112900">
        <ele>1155.8</ele>
        <time>2018-06-17T12:34:41Z</time>
      </trkpt>
      <trkpt lat="43.0246150" lon="-5.9114610">
        <ele>1155.6</ele>
        <time>2018-06-17T12:34:44Z</time>
      </trkpt>
      <trkpt lat="43.0246700" lon="-5.9117470">
        <ele>1154.6</ele>
        <time>2018-06-17T12:34:48Z</time>
      </trkpt>
      <trkpt lat="43.0246800" lon="-5.9118350">
        <ele>1153.6</ele>
        <time>2018-06-17T12:34:49Z</time>
      </trkpt>
      <trkpt lat="43.0246950" lon="-5.9119220">
        <ele>1153.0</ele>
        <time>2018-06-17T12:34:50Z</time>
      </trkpt>
      <trkpt lat="43.0247590" lon="-5.9121880">
        <ele>1151.8</ele>
        <time>2018-06-17T12:34:53Z</time>
      </trkpt>
      <trkpt lat="43.0248000" lon="-5.9123760">
        <ele>1150.4</ele>
        <time>2018-06-17T12:34:55Z</time>
      </trkpt>
      <trkpt lat="43.0248270" lon="-5.9125610">
        <ele>1149.2</ele>
        <time>2018-06-17T12:34:57Z</time>
      </trkpt>
      <trkpt lat="43.0248130" lon="-5.9128570">
        <ele>1148.0</ele>
        <time>2018-06-17T12:35:00Z</time>
      </trkpt>
      <trkpt lat="43.0248080" lon="-5.9131840">
        <ele>1147.0</ele>
        <time>2018-06-17T12:35:04Z</time>
      </trkpt>
      <trkpt lat="43.0248250" lon="-5.9132560">
        <ele>1146.6</ele>
        <time>2018-06-17T12:35:05Z</time>
      </trkpt>
      <trkpt lat="43.0249300" lon="-5.9133910">
        <ele>1145.4</ele>
        <time>2018-06-17T12:35:08Z</time>
      </trkpt>
      <trkpt lat="43.0250700" lon="-5.9133070">
        <ele>1144.2</ele>
        <time>2018-06-17T12:35:10Z</time>
      </trkpt>
      <trkpt lat="43.0251440" lon="-5.9130380">
        <ele>1142.8</ele>
        <time>2018-06-17T12:35:13Z</time>
      </trkpt>
      <trkpt lat="43.0251550" lon="-5.9129290">
        <ele>1142.2</ele>
        <time>2018-06-17T12:35:14Z</time>
      </trkpt>
      <trkpt lat="43.0251710" lon="-5.9128170">
        <ele>1141.8</ele>
        <time>2018-06-17T12:35:15Z</time>
      </trkpt>
      <trkpt lat="43.0251930" lon="-5.9127120">
        <ele>1141.2</ele>
        <time>2018-06-17T12:35:16Z</time>
      </trkpt>
      <trkpt lat="43.0252400" lon="-5.9126200">
        <ele>1140.6</ele>
        <time>2018-06-17T12:35:17Z</time>
      </trkpt>
      <trkpt lat="43.0253730" lon="-5.9124640">
        <ele>1138.8</ele>
        <time>2018-06-17T12:35:19Z</time>
      </trkpt>
      <trkpt lat="43.0254510" lon="-5.9123890">
        <ele>1138.0</ele>
        <time>2018-06-17T12:35:20Z</time>
      </trkpt>
      <trkpt lat="43.0255240" lon="-5.9123030">
        <ele>1137.2</ele>
        <time>2018-06-17T12:35:21Z</time>
      </trkpt>
      <trkpt lat="43.0256090" lon="-5.9120810">
        <ele>1136.0</ele>
        <time>2018-06-17T12:35:23Z</time>
      </trkpt>
      <trkpt lat="43.0256080" lon="-5.9118120">
        <ele>1134.2</ele>
        <time>2018-06-17T12:35:25Z</time>
      </trkpt>
      <trkpt lat="43.0255750" lon="-5.9116790">
        <ele>1133.2</ele>
        <time>2018-06-17T12:35:26Z</time>
      </trkpt>
      <trkpt lat="43.0255190" lon="-5.9115630">
        <ele>1131.6</ele>
        <time>2018-06-17T12:35:27Z</time>
      </trkpt>
      <trkpt lat="43.0253710" lon="-5.9113960">
        <ele>1130.2</ele>
        <time>2018-06-17T12:35:29Z</time>
      </trkpt>
      <trkpt lat="43.0253070" lon="-5.9113160">
        <ele>1129.6</ele>
        <time>2018-06-17T12:35:30Z</time>
      </trkpt>
      <trkpt lat="43.0252390" lon="-5.9111250">
        <ele>1128.4</ele>
        <time>2018-06-17T12:35:32Z</time>
      </trkpt>
      <trkpt lat="43.0252200" lon="-5.9109710">
        <ele>1127.2</ele>
        <time>2018-06-17T12:35:34Z</time>
      </trkpt>
      <trkpt lat="43.0251640" lon="-5.9106840">
        <ele>1125.6</ele>
        <time>2018-06-17T12:35:38Z</time>
      </trkpt>
      <trkpt lat="43.0251550" lon="-5.9106060">
        <ele>1125.0</ele>
        <time>2018-06-17T12:35:39Z</time>
      </trkpt>
      <trkpt lat="43.0251530" lon="-5.9105180">
        <ele>1124.4</ele>
        <time>2018-06-17T12:35:40Z</time>
      </trkpt>
      <trkpt lat="43.0251990" lon="-5.9102370">
        <ele>1123.0</ele>
        <time>2018-06-17T12:35:43Z</time>
      </trkpt>
      <trkpt lat="43.0252150" lon="-5.9101400">
        <ele>1122.4</ele>
        <time>2018-06-17T12:35:44Z</time>
      </trkpt>
      <trkpt lat="43.0252180" lon="-5.9100420">
        <ele>1121.6</ele>
        <time>2018-06-17T12:35:45Z</time>
      </trkpt>
      <trkpt lat="43.0251840" lon="-5.9098500">
        <ele>1120.4</ele>
        <time>2018-06-17T12:35:47Z</time>
      </trkpt>
      <trkpt lat="43.0251240" lon="-5.9096820">
        <ele>1119.2</ele>
        <time>2018-06-17T12:35:49Z</time>
      </trkpt>
      <trkpt lat="43.0250620" lon="-5.9095250">
        <ele>1117.6</ele>
        <time>2018-06-17T12:35:51Z</time>
      </trkpt>
      <trkpt lat="43.0249930" lon="-5.9093520">
        <ele>1116.6</ele>
        <time>2018-06-17T12:35:53Z</time>
      </trkpt>
      <trkpt lat="43.0249580" lon="-5.9092640">
        <ele>1115.4</ele>
        <time>2018-06-17T12:35:54Z</time>
      </trkpt>
      <trkpt lat="43.0248740" lon="-5.9090820">
        <ele>1113.6</ele>
        <time>2018-06-17T12:35:56Z</time>
      </trkpt>
      <trkpt lat="43.0247520" lon="-5.9089090">
        <ele>1112.4</ele>
        <time>2018-06-17T12:35:58Z</time>
      </trkpt>
      <trkpt lat="43.0245990" lon="-5.9087530">
        <ele>1111.4</ele>
        <time>2018-06-17T12:36:00Z</time>
      </trkpt>
      <trkpt lat="43.0245240" lon="-5.9086650">
        <ele>1110.8</ele>
        <time>2018-06-17T12:36:01Z</time>
      </trkpt>
      <trkpt lat="43.0243960" lon="-5.9084490">
        <ele>1108.0</ele>
        <time>2018-06-17T12:36:03Z</time>
      </trkpt>
      <trkpt lat="43.0242740" lon="-5.9081950">
        <ele>1106.2</ele>
        <time>2018-06-17T12:36:05Z</time>
      </trkpt>
      <trkpt lat="43.0242140" lon="-5.9080590">
        <ele>1105.2</ele>
        <time>2018-06-17T12:36:06Z</time>
      </trkpt>
      <trkpt lat="43.0241120" lon="-5.9077820">
        <ele>1103.4</ele>
        <time>2018-06-17T12:36:08Z</time>
      </trkpt>
      <trkpt lat="43.0240310" lon="-5.9075040">
        <ele>1101.6</ele>
        <time>2018-06-17T12:36:10Z</time>
      </trkpt>
      <trkpt lat="43.0239610" lon="-5.9072230">
        <ele>1099.8</ele>
        <time>2018-06-17T12:36:12Z</time>
      </trkpt>
      <trkpt lat="43.0239130" lon="-5.9069250">
        <ele>1098.0</ele>
        <time>2018-06-17T12:36:14Z</time>
      </trkpt>
      <trkpt lat="43.0238730" lon="-5.9066090">
        <ele>1096.0</ele>
        <time>2018-06-17T12:36:16Z</time>
      </trkpt>
      <trkpt lat="43.0238500" lon="-5.9063160">
        <ele>1094.2</ele>
        <time>2018-06-17T12:36:18Z</time>
      </trkpt>
      <trkpt lat="43.0238420" lon="-5.9060550">
        <ele>1093.2</ele>
        <time>2018-06-17T12:36:20Z</time>
      </trkpt>
      <trkpt lat="43.0238300" lon="-5.9059350">
        <ele>1093.0</ele>
        <time>2018-06-17T12:36:21Z</time>
      </trkpt>
      <trkpt lat="43.0237600" lon="-5.9057330">
        <ele>1091.6</ele>
        <time>2018-06-17T12:36:23Z</time>
      </trkpt>
      <trkpt lat="43.0236650" lon="-5.9055320">
        <ele>1089.8</ele>
        <time>2018-06-17T12:36:25Z</time>
      </trkpt>
      <trkpt lat="43.0236110" lon="-5.9054220">
        <ele>1088.6</ele>
        <time>2018-06-17T12:36:26Z</time>
      </trkpt>
      <trkpt lat="43.0235530" lon="-5.9053110">
        <ele>1087.2</ele>
        <time>2018-06-17T12:36:27Z</time>
      </trkpt>
      <trkpt lat="43.0234950" lon="-5.9051980">
        <ele>1085.8</ele>
        <time>2018-06-17T12:36:28Z</time>
      </trkpt>
      <trkpt lat="43.0234320" lon="-5.9050810">
        <ele>1084.4</ele>
        <time>2018-06-17T12:36:29Z</time>
      </trkpt>
      <trkpt lat="43.0232960" lon="-5.9048420">
        <ele>1083.0</ele>
        <time>2018-06-17T12:36:31Z</time>
      </trkpt>
      <trkpt lat="43.0231590" lon="-5.9046180">
        <ele>1081.6</ele>
        <time>2018-06-17T12:36:33Z</time>
      </trkpt>
      <trkpt lat="43.0230340" lon="-5.9044440">
        <ele>1080.4</ele>
        <time>2018-06-17T12:36:35Z</time>
      </trkpt>
      <trkpt lat="43.0229870" lon="-5.9043640">
        <ele>1080.0</ele>
        <time>2018-06-17T12:36:36Z</time>
      </trkpt>
      <trkpt lat="43.0229490" lon="-5.9041880">
        <ele>1079.0</ele>
        <time>2018-06-17T12:36:38Z</time>
      </trkpt>
      <trkpt lat="43.0230200" lon="-5.9039510">
        <ele>1077.6</ele>
        <time>2018-06-17T12:36:41Z</time>
      </trkpt>
      <trkpt lat="43.0231030" lon="-5.9038110">
        <ele>1076.2</ele>
        <time>2018-06-17T12:36:43Z</time>
      </trkpt>
      <trkpt lat="43.0231400" lon="-5.9035630">
        <ele>1074.8</ele>
        <time>2018-06-17T12:36:46Z</time>
      </trkpt>
      <trkpt lat="43.0230700" lon="-5.9033970">
        <ele>1073.2</ele>
        <time>2018-06-17T12:36:48Z</time>
      </trkpt>
      <trkpt lat="43.0230210" lon="-5.9033190">
        <ele>1072.6</ele>
        <time>2018-06-17T12:36:49Z</time>
      </trkpt>
      <trkpt lat="43.0229790" lon="-5.9032490">
        <ele>1071.8</ele>
        <time>2018-06-17T12:36:50Z</time>
      </trkpt>
      <trkpt lat="43.0229510" lon="-5.9031860">
        <ele>1071.2</ele>
        <time>2018-06-17T12:36:51Z</time>
      </trkpt>
      <trkpt lat="43.0229210" lon="-5.9030660">
        <ele>1070.6</ele>
        <time>2018-06-17T12:36:53Z</time>
      </trkpt>
      <trkpt lat="43.0229310" lon="-5.9028500">
        <ele>1069.2</ele>
        <time>2018-06-17T12:36:56Z</time>
      </trkpt>
      <trkpt lat="43.0229780" lon="-5.9026880">
        <ele>1068.6</ele>
        <time>2018-06-17T12:36:58Z</time>
      </trkpt>
      <trkpt lat="43.0230270" lon="-5.9025350">
        <ele>1067.8</ele>
        <time>2018-06-17T12:37:00Z</time>
      </trkpt>
      <trkpt lat="43.0230720" lon="-5.9023770">
        <ele>1066.8</ele>
        <time>2018-06-17T12:37:02Z</time>
      </trkpt>
      <trkpt lat="43.0230890" lon="-5.9022940">
        <ele>1066.4</ele>
        <time>2018-06-17T12:37:03Z</time>
      </trkpt>
      <trkpt lat="43.0230990" lon="-5.9021210">
        <ele>1065.2</ele>
        <time>2018-06-17T12:37:05Z</time>
      </trkpt>
      <trkpt lat="43.0230790" lon="-5.9019460">
        <ele>1064.8</ele>
        <time>2018-06-17T12:37:07Z</time>
      </trkpt>
      <trkpt lat="43.0230100" lon="-5.9017820">
        <ele>1064.0</ele>
        <time>2018-06-17T12:37:09Z</time>
      </trkpt>
      <trkpt lat="43.0229010" lon="-5.9016990">
        <ele>1063.0</ele>
        <time>2018-06-17T12:37:11Z</time>
      </trkpt>
      <trkpt lat="43.0227930" lon="-5.9017100">
        <ele>1062.0</ele>
        <time>2018-06-17T12:37:13Z</time>
      </trkpt>
      <trkpt lat="43.0227510" lon="-5.9017480">
        <ele>1061.2</ele>
        <time>2018-06-17T12:37:14Z</time>
      </trkpt>
      <trkpt lat="43.0226860" lon="-5.9019470">
        <ele>1060.2</ele>
        <time>2018-06-17T12:37:17Z</time>
      </trkpt>
      <trkpt lat="43.0227020" lon="-5.9022270">
        <ele>1059.2</ele>
        <time>2018-06-17T12:37:20Z</time>
      </trkpt>
      <trkpt lat="43.0227100" lon="-5.9025120">
        <ele>1057.8</ele>
        <time>2018-06-17T12:37:23Z</time>
      </trkpt>
      <trkpt lat="43.0226380" lon="-5.9027570">
        <ele>1056.8</ele>
        <time>2018-06-17T12:37:26Z</time>
      </trkpt>
      <trkpt lat="43.0226100" lon="-5.9028270">
        <ele>1056.6</ele>
        <time>2018-06-17T12:37:27Z</time>
      </trkpt>
      <trkpt lat="43.0225480" lon="-5.9029430">
        <ele>1055.8</ele>
        <time>2018-06-17T12:37:29Z</time>
      </trkpt>
      <trkpt lat="43.0225120" lon="-5.9029810">
        <ele>1055.6</ele>
        <time>2018-06-17T12:37:30Z</time>
      </trkpt>
      <trkpt lat="43.0222640" lon="-5.9029190">
        <ele>1054.6</ele>
        <time>2018-06-17T12:37:35Z</time>
      </trkpt>
      <trkpt lat="43.0222930" lon="-5.9025960">
        <ele>1053.0</ele>
        <time>2018-06-17T12:37:38Z</time>
      </trkpt>
      <trkpt lat="43.0223720" lon="-5.9023760">
        <ele>1051.6</ele>
        <time>2018-06-17T12:37:40Z</time>
      </trkpt>
      <trkpt lat="43.0224050" lon="-5.9022640">
        <ele>1050.4</ele>
        <time>2018-06-17T12:37:41Z</time>
      </trkpt>
      <trkpt lat="43.0224240" lon="-5.9020200">
        <ele>1049.0</ele>
        <time>2018-06-17T12:37:43Z</time>
      </trkpt>
      <trkpt lat="43.0223410" lon="-5.9016580">
        <ele>1047.4</ele>
        <time>2018-06-17T12:37:46Z</time>
      </trkpt>
      <trkpt lat="43.0221810" lon="-5.9015050">
        <ele>1045.6</ele>
        <time>2018-06-17T12:37:48Z</time>
      </trkpt>
      <trkpt lat="43.0220210" lon="-5.9013790">
        <ele>1044.0</ele>
        <time>2018-06-17T12:37:50Z</time>
      </trkpt>
      <trkpt lat="43.0219400" lon="-5.9013310">
        <ele>1043.6</ele>
        <time>2018-06-17T12:37:51Z</time>
      </trkpt>
      <trkpt lat="43.0218610" lon="-5.9012860">
        <ele>1043.0</ele>
        <time>2018-06-17T12:37:52Z</time>
      </trkpt>
      <trkpt lat="43.0217010" lon="-5.9011950">
        <ele>1041.8</ele>
        <time>2018-06-17T12:37:54Z</time>
      </trkpt>
      <trkpt lat="43.0215270" lon="-5.9010860">
        <ele>1040.4</ele>
        <time>2018-06-17T12:37:56Z</time>
      </trkpt>
      <trkpt lat="43.0213620" lon="-5.9009430">
        <ele>1038.6</ele>
        <time>2018-06-17T12:37:58Z</time>
      </trkpt>
      <trkpt lat="43.0211920" lon="-5.9007760">
        <ele>1037.4</ele>
        <time>2018-06-17T12:38:00Z</time>
      </trkpt>
      <trkpt lat="43.0210010" lon="-5.9006160">
        <ele>1036.6</ele>
        <time>2018-06-17T12:38:02Z</time>
      </trkpt>
      <trkpt lat="43.0208980" lon="-5.9005420">
        <ele>1035.0</ele>
        <time>2018-06-17T12:38:03Z</time>
      </trkpt>
      <trkpt lat="43.0207990" lon="-5.9004670">
        <ele>1033.4</ele>
        <time>2018-06-17T12:38:04Z</time>
      </trkpt>
      <trkpt lat="43.0207000" lon="-5.9003860">
        <ele>1032.2</ele>
        <time>2018-06-17T12:38:05Z</time>
      </trkpt>
      <trkpt lat="43.0205010" lon="-5.9002150">
        <ele>1030.4</ele>
        <time>2018-06-17T12:38:07Z</time>
      </trkpt>
      <trkpt lat="43.0203020" lon="-5.9000400">
        <ele>1028.2</ele>
        <time>2018-06-17T12:38:09Z</time>
      </trkpt>
      <trkpt lat="43.0202060" lon="-5.8999430">
        <ele>1027.2</ele>
        <time>2018-06-17T12:38:10Z</time>
      </trkpt>
      <trkpt lat="43.0200490" lon="-5.8997470">
        <ele>1025.8</ele>
        <time>2018-06-17T12:38:12Z</time>
      </trkpt>
      <trkpt lat="43.0199370" lon="-5.8995580">
        <ele>1024.6</ele>
        <time>2018-06-17T12:38:14Z</time>
      </trkpt>
      <trkpt lat="43.0198710" lon="-5.8994710">
        <ele>1024.2</ele>
        <time>2018-06-17T12:38:15Z</time>
      </trkpt>
      <trkpt lat="43.0198010" lon="-5.8993940">
        <ele>1023.6</ele>
        <time>2018-06-17T12:38:16Z</time>
      </trkpt>
      <trkpt lat="43.0196500" lon="-5.8992510">
        <ele>1022.0</ele>
        <time>2018-06-17T12:38:18Z</time>
      </trkpt>
      <trkpt lat="43.0195190" lon="-5.8990840">
        <ele>1020.4</ele>
        <time>2018-06-17T12:38:20Z</time>
      </trkpt>
      <trkpt lat="43.0194100" lon="-5.8988790">
        <ele>1019.0</ele>
        <time>2018-06-17T12:38:22Z</time>
      </trkpt>
      <trkpt lat="43.0193380" lon="-5.8986360">
        <ele>1017.6</ele>
        <time>2018-06-17T12:38:24Z</time>
      </trkpt>
      <trkpt lat="43.0192400" lon="-5.8984060">
        <ele>1016.0</ele>
        <time>2018-06-17T12:38:26Z</time>
      </trkpt>
      <trkpt lat="43.0191870" lon="-5.8982900">
        <ele>1015.6</ele>
        <time>2018-06-17T12:38:27Z</time>
      </trkpt>
      <trkpt lat="43.0190790" lon="-5.8980470">
        <ele>1014.4</ele>
        <time>2018-06-17T12:38:29Z</time>
      </trkpt>
      <trkpt lat="43.0190410" lon="-5.8979170">
        <ele>1013.4</ele>
        <time>2018-06-17T12:38:30Z</time>
      </trkpt>
      <trkpt lat="43.0189340" lon="-5.8976460">
        <ele>1011.8</ele>
        <time>2018-06-17T12:38:32Z</time>
      </trkpt>
      <trkpt lat="43.0187570" lon="-5.8974030">
        <ele>1010.2</ele>
        <time>2018-06-17T12:38:34Z</time>
      </trkpt>
      <trkpt lat="43.0186670" lon="-5.8973130">
        <ele>1008.6</ele>
        <time>2018-06-17T12:38:35Z</time>
      </trkpt>
      <trkpt lat="43.0185640" lon="-5.8972190">
        <ele>1007.8</ele>
        <time>2018-06-17T12:38:36Z</time>
      </trkpt>
      <trkpt lat="43.0184740" lon="-5.8971310">
        <ele>1007.0</ele>
        <time>2018-06-17T12:38:37Z</time>
      </trkpt>
      <trkpt lat="43.0183120" lon="-5.8969630">
        <ele>1005.6</ele>
        <time>2018-06-17T12:38:39Z</time>
      </trkpt>
      <trkpt lat="43.0182030" lon="-5.8967750">
        <ele>1004.6</ele>
        <time>2018-06-17T12:38:41Z</time>
      </trkpt>
      <trkpt lat="43.0181750" lon="-5.8966600">
        <ele>1004.2</ele>
        <time>2018-06-17T12:38:42Z</time>
      </trkpt>
      <trkpt lat="43.0184160" lon="-5.8959840">
        <ele>1004.2</ele>
        <time>2018-06-17T12:38:50Z</time>
      </trkpt>
      <trkpt lat="43.0184330" lon="-5.8956500">
        <ele>1003.8</ele>
        <time>2018-06-17T12:38:54Z</time>
      </trkpt>
      <trkpt lat="43.0184140" lon="-5.8955620">
        <ele>1003.6</ele>
        <time>2018-06-17T12:38:55Z</time>
      </trkpt>
      <trkpt lat="43.0184050" lon="-5.8954700">
        <ele>1003.6</ele>
        <time>2018-06-17T12:38:56Z</time>
      </trkpt>
      <trkpt lat="43.0184080" lon="-5.8953670">
        <ele>1003.2</ele>
        <time>2018-06-17T12:38:57Z</time>
      </trkpt>
      <trkpt lat="43.0184690" lon="-5.8950600">
        <ele>1002.0</ele>
        <time>2018-06-17T12:39:00Z</time>
      </trkpt>
      <trkpt lat="43.0185540" lon="-5.8947420">
        <ele>1001.0</ele>
        <time>2018-06-17T12:39:03Z</time>
      </trkpt>
      <trkpt lat="43.0186100" lon="-5.8945170">
        <ele>999.8</ele>
        <time>2018-06-17T12:39:05Z</time>
      </trkpt>
      <trkpt lat="43.0186840" lon="-5.8941590">
        <ele>999.0</ele>
        <time>2018-06-17T12:39:08Z</time>
      </trkpt>
      <trkpt lat="43.0187080" lon="-5.8940360">
        <ele>999.0</ele>
        <time>2018-06-17T12:39:09Z</time>
      </trkpt>
      <trkpt lat="43.0187470" lon="-5.8937810">
        <ele>998.2</ele>
        <time>2018-06-17T12:39:11Z</time>
      </trkpt>
      <trkpt lat="43.0187530" lon="-5.8936430">
        <ele>997.6</ele>
        <time>2018-06-17T12:39:12Z</time>
      </trkpt>
      <trkpt lat="43.0187290" lon="-5.8933650">
        <ele>996.0</ele>
        <time>2018-06-17T12:39:14Z</time>
      </trkpt>
      <trkpt lat="43.0186950" lon="-5.8932300">
        <ele>994.6</ele>
        <time>2018-06-17T12:39:15Z</time>
      </trkpt>
      <trkpt lat="43.0186500" lon="-5.8930990">
        <ele>993.4</ele>
        <time>2018-06-17T12:39:16Z</time>
      </trkpt>
      <trkpt lat="43.0185390" lon="-5.8928480">
        <ele>992.4</ele>
        <time>2018-06-17T12:39:18Z</time>
      </trkpt>
      <trkpt lat="43.0184100" lon="-5.8926110">
        <ele>991.4</ele>
        <time>2018-06-17T12:39:20Z</time>
      </trkpt>
      <trkpt lat="43.0183040" lon="-5.8923890">
        <ele>990.2</ele>
        <time>2018-06-17T12:39:22Z</time>
      </trkpt>
      <trkpt lat="43.0182480" lon="-5.8921400">
        <ele>988.8</ele>
        <time>2018-06-17T12:39:24Z</time>
      </trkpt>
      <trkpt lat="43.0182130" lon="-5.8918630">
        <ele>987.2</ele>
        <time>2018-06-17T12:39:26Z</time>
      </trkpt>
      <trkpt lat="43.0181950" lon="-5.8917230">
        <ele>986.6</ele>
        <time>2018-06-17T12:39:27Z</time>
      </trkpt>
      <trkpt lat="43.0181710" lon="-5.8915830">
        <ele>986.0</ele>
        <time>2018-06-17T12:39:28Z</time>
      </trkpt>
      <trkpt lat="43.0181410" lon="-5.8914430">
        <ele>984.8</ele>
        <time>2018-06-17T12:39:29Z</time>
      </trkpt>
      <trkpt lat="43.0180960" lon="-5.8913130">
        <ele>984.2</ele>
        <time>2018-06-17T12:39:30Z</time>
      </trkpt>
      <trkpt lat="43.0180450" lon="-5.8911980">
        <ele>983.6</ele>
        <time>2018-06-17T12:39:31Z</time>
      </trkpt>
      <trkpt lat="43.0179210" lon="-5.8910200">
        <ele>982.4</ele>
        <time>2018-06-17T12:39:33Z</time>
      </trkpt>
      <trkpt lat="43.0177900" lon="-5.8909210">
        <ele>981.0</ele>
        <time>2018-06-17T12:39:35Z</time>
      </trkpt>
      <trkpt lat="43.0177430" lon="-5.8908620">
        <ele>980.6</ele>
        <time>2018-06-17T12:39:36Z</time>
      </trkpt>
      <trkpt lat="43.0176970" lon="-5.8907880">
        <ele>980.0</ele>
        <time>2018-06-17T12:39:37Z</time>
      </trkpt>
      <trkpt lat="43.0177260" lon="-5.8904620">
        <ele>978.6</ele>
        <time>2018-06-17T12:39:40Z</time>
      </trkpt>
      <trkpt lat="43.0177850" lon="-5.8902230">
        <ele>977.0</ele>
        <time>2018-06-17T12:39:42Z</time>
      </trkpt>
      <trkpt lat="43.0178260" lon="-5.8901090">
        <ele>976.2</ele>
        <time>2018-06-17T12:39:43Z</time>
      </trkpt>
      <trkpt lat="43.0178780" lon="-5.8899980">
        <ele>975.8</ele>
        <time>2018-06-17T12:39:44Z</time>
      </trkpt>
      <trkpt lat="43.0181020" lon="-5.8897440">
        <ele>974.0</ele>
        <time>2018-06-17T12:39:47Z</time>
      </trkpt>
      <trkpt lat="43.0181810" lon="-5.8896840">
        <ele>973.6</ele>
        <time>2018-06-17T12:39:48Z</time>
      </trkpt>
      <trkpt lat="43.0182590" lon="-5.8896310">
        <ele>973.0</ele>
        <time>2018-06-17T12:39:49Z</time>
      </trkpt>
      <trkpt lat="43.0183300" lon="-5.8895780">
        <ele>972.2</ele>
        <time>2018-06-17T12:39:50Z</time>
      </trkpt>
      <trkpt lat="43.0183860" lon="-5.8895080">
        <ele>971.8</ele>
        <time>2018-06-17T12:39:51Z</time>
      </trkpt>
      <trkpt lat="43.0184280" lon="-5.8893010">
        <ele>970.8</ele>
        <time>2018-06-17T12:39:53Z</time>
      </trkpt>
      <trkpt lat="43.0183660" lon="-5.8890730">
        <ele>969.4</ele>
        <time>2018-06-17T12:39:55Z</time>
      </trkpt>
      <trkpt lat="43.0183190" lon="-5.8889680">
        <ele>968.6</ele>
        <time>2018-06-17T12:39:56Z</time>
      </trkpt>
      <trkpt lat="43.0182860" lon="-5.8888590">
        <ele>968.2</ele>
        <time>2018-06-17T12:39:57Z</time>
      </trkpt>
      <trkpt lat="43.0182800" lon="-5.8886140">
        <ele>967.0</ele>
        <time>2018-06-17T12:39:59Z</time>
      </trkpt>
      <trkpt lat="43.0182960" lon="-5.8883510">
        <ele>965.4</ele>
        <time>2018-06-17T12:40:01Z</time>
      </trkpt>
      <trkpt lat="43.0182480" lon="-5.8880870">
        <ele>963.8</ele>
        <time>2018-06-17T12:40:03Z</time>
      </trkpt>
      <trkpt lat="43.0181390" lon="-5.8878330">
        <ele>962.4</ele>
        <time>2018-06-17T12:40:05Z</time>
      </trkpt>
      <trkpt lat="43.0180510" lon="-5.8876040">
        <ele>961.2</ele>
        <time>2018-06-17T12:40:07Z</time>
      </trkpt>
      <trkpt lat="43.0180920" lon="-5.8872830">
        <ele>960.2</ele>
        <time>2018-06-17T12:40:10Z</time>
      </trkpt>
      <trkpt lat="43.0181750" lon="-5.8870670">
        <ele>958.8</ele>
        <time>2018-06-17T12:40:12Z</time>
      </trkpt>
      <trkpt lat="43.0182120" lon="-5.8869570">
        <ele>957.8</ele>
        <time>2018-06-17T12:40:13Z</time>
      </trkpt>
      <trkpt lat="43.0182510" lon="-5.8868420">
        <ele>957.2</ele>
        <time>2018-06-17T12:40:14Z</time>
      </trkpt>
      <trkpt lat="43.0183310" lon="-5.8866030">
        <ele>956.2</ele>
        <time>2018-06-17T12:40:16Z</time>
      </trkpt>
      <trkpt lat="43.0183910" lon="-5.8863550">
        <ele>955.4</ele>
        <time>2018-06-17T12:40:18Z</time>
      </trkpt>
      <trkpt lat="43.0183840" lon="-5.8862250">
        <ele>955.0</ele>
        <time>2018-06-17T12:40:19Z</time>
      </trkpt>
      <trkpt lat="43.0182980" lon="-5.8858710">
        <ele>953.4</ele>
        <time>2018-06-17T12:40:22Z</time>
      </trkpt>
      <trkpt lat="43.0183090" lon="-5.8856530">
        <ele>952.2</ele>
        <time>2018-06-17T12:40:24Z</time>
      </trkpt>
      <trkpt lat="43.0184010" lon="-5.8854490">
        <ele>951.8</ele>
        <time>2018-06-17T12:40:26Z</time>
      </trkpt>
      <trkpt lat="43.0184540" lon="-5.8853460">
        <ele>951.2</ele>
        <time>2018-06-17T12:40:27Z</time>
      </trkpt>
      <trkpt lat="43.0185640" lon="-5.8851390">
        <ele>949.6</ele>
        <time>2018-06-17T12:40:29Z</time>
      </trkpt>
      <trkpt lat="43.0186680" lon="-5.8849250">
        <ele>948.2</ele>
        <time>2018-06-17T12:40:31Z</time>
      </trkpt>
      <trkpt lat="43.0187230" lon="-5.8848220">
        <ele>946.8</ele>
        <time>2018-06-17T12:40:32Z</time>
      </trkpt>
      <trkpt lat="43.0187690" lon="-5.8847140">
        <ele>946.4</ele>
        <time>2018-06-17T12:40:33Z</time>
      </trkpt>
      <trkpt lat="43.0188090" lon="-5.8844610">
        <ele>945.4</ele>
        <time>2018-06-17T12:40:35Z</time>
      </trkpt>
      <trkpt lat="43.0188420" lon="-5.8842130">
        <ele>944.4</ele>
        <time>2018-06-17T12:40:37Z</time>
      </trkpt>
      <trkpt lat="43.0188900" lon="-5.8841130">
        <ele>944.0</ele>
        <time>2018-06-17T12:40:38Z</time>
      </trkpt>
      <trkpt lat="43.0190990" lon="-5.8838710">
        <ele>942.8</ele>
        <time>2018-06-17T12:40:41Z</time>
      </trkpt>
      <trkpt lat="43.0192460" lon="-5.8837080">
        <ele>941.6</ele>
        <time>2018-06-17T12:40:43Z</time>
      </trkpt>
      <trkpt lat="43.0193550" lon="-5.8835520">
        <ele>940.8</ele>
        <time>2018-06-17T12:40:45Z</time>
      </trkpt>
      <trkpt lat="43.0193760" lon="-5.8834610">
        <ele>940.4</ele>
        <time>2018-06-17T12:40:46Z</time>
      </trkpt>
      <trkpt lat="43.0193360" lon="-5.8831400">
        <ele>939.2</ele>
        <time>2018-06-17T12:40:49Z</time>
      </trkpt>
      <trkpt lat="43.0193110" lon="-5.8830290">
        <ele>938.6</ele>
        <time>2018-06-17T12:40:50Z</time>
      </trkpt>
      <trkpt lat="43.0192890" lon="-5.8829170">
        <ele>938.0</ele>
        <time>2018-06-17T12:40:51Z</time>
      </trkpt>
      <trkpt lat="43.0192630" lon="-5.8826740">
        <ele>937.0</ele>
        <time>2018-06-17T12:40:53Z</time>
      </trkpt>
      <trkpt lat="43.0192890" lon="-5.8824260">
        <ele>935.8</ele>
        <time>2018-06-17T12:40:55Z</time>
      </trkpt>
      <trkpt lat="43.0194580" lon="-5.8821230">
        <ele>934.4</ele>
        <time>2018-06-17T12:40:58Z</time>
      </trkpt>
      <trkpt lat="43.0196070" lon="-5.8819530">
        <ele>933.4</ele>
        <time>2018-06-17T12:41:00Z</time>
      </trkpt>
      <trkpt lat="43.0196860" lon="-5.8818740">
        <ele>932.6</ele>
        <time>2018-06-17T12:41:01Z</time>
      </trkpt>
      <trkpt lat="43.0197680" lon="-5.8818010">
        <ele>932.0</ele>
        <time>2018-06-17T12:41:02Z</time>
      </trkpt>
      <trkpt lat="43.0199380" lon="-5.8816760">
        <ele>930.6</ele>
        <time>2018-06-17T12:41:04Z</time>
      </trkpt>
      <trkpt lat="43.0200190" lon="-5.8816010">
        <ele>930.2</ele>
        <time>2018-06-17T12:41:05Z</time>
      </trkpt>
      <trkpt lat="43.0201510" lon="-5.8813980">
        <ele>929.2</ele>
        <time>2018-06-17T12:41:07Z</time>
      </trkpt>
      <trkpt lat="43.0202380" lon="-5.8811490">
        <ele>928.0</ele>
        <time>2018-06-17T12:41:09Z</time>
      </trkpt>
      <trkpt lat="43.0203330" lon="-5.8809030">
        <ele>926.8</ele>
        <time>2018-06-17T12:41:11Z</time>
      </trkpt>
      <trkpt lat="43.0204450" lon="-5.8806650">
        <ele>926.2</ele>
        <time>2018-06-17T12:41:13Z</time>
      </trkpt>
      <trkpt lat="43.0205650" lon="-5.8804250">
        <ele>925.4</ele>
        <time>2018-06-17T12:41:15Z</time>
      </trkpt>
      <trkpt lat="43.0206090" lon="-5.8802970">
        <ele>925.0</ele>
        <time>2018-06-17T12:41:16Z</time>
      </trkpt>
      <trkpt lat="43.0206340" lon="-5.8801600">
        <ele>924.2</ele>
        <time>2018-06-17T12:41:17Z</time>
      </trkpt>
      <trkpt lat="43.0206610" lon="-5.8798900">
        <ele>922.8</ele>
        <time>2018-06-17T12:41:19Z</time>
      </trkpt>
      <trkpt lat="43.0206780" lon="-5.8796250">
        <ele>921.2</ele>
        <time>2018-06-17T12:41:21Z</time>
      </trkpt>
      <trkpt lat="43.0206360" lon="-5.8793700">
        <ele>919.8</ele>
        <time>2018-06-17T12:41:23Z</time>
      </trkpt>
      <trkpt lat="43.0205600" lon="-5.8791200">
        <ele>918.6</ele>
        <time>2018-06-17T12:41:25Z</time>
      </trkpt>
      <trkpt lat="43.0205190" lon="-5.8790020">
        <ele>917.4</ele>
        <time>2018-06-17T12:41:26Z</time>
      </trkpt>
      <trkpt lat="43.0204270" lon="-5.8787920">
        <ele>916.2</ele>
        <time>2018-06-17T12:41:28Z</time>
      </trkpt>
      <trkpt lat="43.0203200" lon="-5.8786090">
        <ele>915.2</ele>
        <time>2018-06-17T12:41:30Z</time>
      </trkpt>
      <trkpt lat="43.0202650" lon="-5.8785190">
        <ele>915.0</ele>
        <time>2018-06-17T12:41:31Z</time>
      </trkpt>
      <trkpt lat="43.0201710" lon="-5.8783220">
        <ele>914.2</ele>
        <time>2018-06-17T12:41:33Z</time>
      </trkpt>
      <trkpt lat="43.0201340" lon="-5.8782090">
        <ele>913.6</ele>
        <time>2018-06-17T12:41:34Z</time>
      </trkpt>
      <trkpt lat="43.0200810" lon="-5.8778430">
        <ele>912.6</ele>
        <time>2018-06-17T12:41:37Z</time>
      </trkpt>
      <trkpt lat="43.0201180" lon="-5.8776100">
        <ele>911.4</ele>
        <time>2018-06-17T12:41:39Z</time>
      </trkpt>
      <trkpt lat="43.0202870" lon="-5.8773490">
        <ele>910.0</ele>
        <time>2018-06-17T12:41:42Z</time>
      </trkpt>
      <trkpt lat="43.0204470" lon="-5.8772490">
        <ele>908.6</ele>
        <time>2018-06-17T12:41:44Z</time>
      </trkpt>
      <trkpt lat="43.0207140" lon="-5.8771940">
        <ele>907.4</ele>
        <time>2018-06-17T12:41:47Z</time>
      </trkpt>
      <trkpt lat="43.0209810" lon="-5.8772790">
        <ele>906.0</ele>
        <time>2018-06-17T12:41:50Z</time>
      </trkpt>
      <trkpt lat="43.0210700" lon="-5.8773180">
        <ele>905.4</ele>
        <time>2018-06-17T12:41:51Z</time>
      </trkpt>
      <trkpt lat="43.0211630" lon="-5.8773620">
        <ele>904.4</ele>
        <time>2018-06-17T12:41:52Z</time>
      </trkpt>
      <trkpt lat="43.0213420" lon="-5.8774450">
        <ele>903.2</ele>
        <time>2018-06-17T12:41:54Z</time>
      </trkpt>
      <trkpt lat="43.0215180" lon="-5.8774230">
        <ele>902.4</ele>
        <time>2018-06-17T12:41:56Z</time>
      </trkpt>
      <trkpt lat="43.0216640" lon="-5.8772730">
        <ele>901.6</ele>
        <time>2018-06-17T12:41:58Z</time>
      </trkpt>
      <trkpt lat="43.0217060" lon="-5.8771550">
        <ele>901.2</ele>
        <time>2018-06-17T12:41:59Z</time>
      </trkpt>
      <trkpt lat="43.0217680" lon="-5.8769050">
        <ele>899.8</ele>
        <time>2018-06-17T12:42:01Z</time>
      </trkpt>
      <trkpt lat="43.0217860" lon="-5.8767790">
        <ele>899.2</ele>
        <time>2018-06-17T12:42:02Z</time>
      </trkpt>
      <trkpt lat="43.0218020" lon="-5.8766510">
        <ele>898.6</ele>
        <time>2018-06-17T12:42:03Z</time>
      </trkpt>
      <trkpt lat="43.0218410" lon="-5.8763960">
        <ele>897.0</ele>
        <time>2018-06-17T12:42:05Z</time>
      </trkpt>
      <trkpt lat="43.0218830" lon="-5.8761390">
        <ele>895.4</ele>
        <time>2018-06-17T12:42:07Z</time>
      </trkpt>
      <trkpt lat="43.0219630" lon="-5.8757440">
        <ele>894.0</ele>
        <time>2018-06-17T12:42:10Z</time>
      </trkpt>
      <trkpt lat="43.0220560" lon="-5.8754850">
        <ele>892.8</ele>
        <time>2018-06-17T12:42:12Z</time>
      </trkpt>
      <trkpt lat="43.0221860" lon="-5.8752410">
        <ele>891.2</ele>
        <time>2018-06-17T12:42:14Z</time>
      </trkpt>
      <trkpt lat="43.0222560" lon="-5.8751180">
        <ele>890.8</ele>
        <time>2018-06-17T12:42:15Z</time>
      </trkpt>
      <trkpt lat="43.0223250" lon="-5.8749980">
        <ele>889.8</ele>
        <time>2018-06-17T12:42:16Z</time>
      </trkpt>
      <trkpt lat="43.0224570" lon="-5.8747510">
        <ele>888.8</ele>
        <time>2018-06-17T12:42:18Z</time>
      </trkpt>
      <trkpt lat="43.0226020" lon="-5.8745250">
        <ele>887.0</ele>
        <time>2018-06-17T12:42:20Z</time>
      </trkpt>
      <trkpt lat="43.0227820" lon="-5.8742240">
        <ele>886.0</ele>
        <time>2018-06-17T12:42:23Z</time>
      </trkpt>
      <trkpt lat="43.0228280" lon="-5.8741420">
        <ele>886.0</ele>
        <time>2018-06-17T12:42:24Z</time>
      </trkpt>
      <trkpt lat="43.0228470" lon="-5.8738370">
        <ele>885.0</ele>
        <time>2018-06-17T12:42:27Z</time>
      </trkpt>
      <trkpt lat="43.0228080" lon="-5.8737210">
        <ele>884.2</ele>
        <time>2018-06-17T12:42:28Z</time>
      </trkpt>
      <trkpt lat="43.0227110" lon="-5.8734950">
        <ele>883.2</ele>
        <time>2018-06-17T12:42:30Z</time>
      </trkpt>
      <trkpt lat="43.0226140" lon="-5.8732880">
        <ele>881.6</ele>
        <time>2018-06-17T12:42:32Z</time>
      </trkpt>
      <trkpt lat="43.0225190" lon="-5.8731290">
        <ele>880.4</ele>
        <time>2018-06-17T12:42:34Z</time>
      </trkpt>
      <trkpt lat="43.0223050" lon="-5.8730100">
        <ele>878.8</ele>
        <time>2018-06-17T12:42:37Z</time>
      </trkpt>
      <trkpt lat="43.0221350" lon="-5.8729830">
        <ele>877.8</ele>
        <time>2018-06-17T12:42:39Z</time>
      </trkpt>
      <trkpt lat="43.0220500" lon="-5.8729700">
        <ele>877.4</ele>
        <time>2018-06-17T12:42:40Z</time>
      </trkpt>
      <trkpt lat="43.0219620" lon="-5.8729520">
        <ele>877.2</ele>
        <time>2018-06-17T12:42:41Z</time>
      </trkpt>
      <trkpt lat="43.0217980" lon="-5.8728810">
        <ele>876.2</ele>
        <time>2018-06-17T12:42:43Z</time>
      </trkpt>
      <trkpt lat="43.0216760" lon="-5.8727310">
        <ele>875.0</ele>
        <time>2018-06-17T12:42:45Z</time>
      </trkpt>
      <trkpt lat="43.0216100" lon="-5.8723760">
        <ele>873.6</ele>
        <time>2018-06-17T12:42:48Z</time>
      </trkpt>
      <trkpt lat="43.0215780" lon="-5.8720240">
        <ele>872.8</ele>
        <time>2018-06-17T12:42:51Z</time>
      </trkpt>
      <trkpt lat="43.0215470" lon="-5.8719260">
        <ele>872.6</ele>
        <time>2018-06-17T12:42:52Z</time>
      </trkpt>
      <trkpt lat="43.0214190" lon="-5.8716360">
        <ele>872.0</ele>
        <time>2018-06-17T12:42:55Z</time>
      </trkpt>
      <trkpt lat="43.0213450" lon="-5.8714300">
        <ele>871.8</ele>
        <time>2018-06-17T12:42:57Z</time>
      </trkpt>
      <trkpt lat="43.0213540" lon="-5.8710910">
        <ele>871.6</ele>
        <time>2018-06-17T12:43:00Z</time>
      </trkpt>
      <trkpt lat="43.0213780" lon="-5.8709800">
        <ele>871.4</ele>
        <time>2018-06-17T12:43:01Z</time>
      </trkpt>
      <trkpt lat="43.0214750" lon="-5.8705580">
        <ele>870.6</ele>
        <time>2018-06-17T12:43:05Z</time>
      </trkpt>
      <trkpt lat="43.0215880" lon="-5.8700570">
        <ele>870.0</ele>
        <time>2018-06-17T12:43:10Z</time>
      </trkpt>
      <trkpt lat="43.0217280" lon="-5.8698380">
        <ele>869.6</ele>
        <time>2018-06-17T12:43:13Z</time>
      </trkpt>
      <trkpt lat="43.0217810" lon="-5.8697910">
        <ele>869.4</ele>
        <time>2018-06-17T12:43:14Z</time>
      </trkpt>
      <trkpt lat="43.0219480" lon="-5.8696140">
        <ele>869.6</ele>
        <time>2018-06-17T12:43:17Z</time>
      </trkpt>
      <trkpt lat="43.0220470" lon="-5.8693360">
        <ele>868.8</ele>
        <time>2018-06-17T12:43:20Z</time>
      </trkpt>
      <trkpt lat="43.0223050" lon="-5.8686040">
        <ele>868.2</ele>
        <time>2018-06-17T12:43:28Z</time>
      </trkpt>
      <trkpt lat="43.0224160" lon="-5.8683210">
        <ele>867.6</ele>
        <time>2018-06-17T12:43:31Z</time>
      </trkpt>
      <trkpt lat="43.0224920" lon="-5.8681300">
        <ele>867.2</ele>
        <time>2018-06-17T12:43:33Z</time>
      </trkpt>
      <trkpt lat="43.0225370" lon="-5.8680420">
        <ele>867.0</ele>
        <time>2018-06-17T12:43:34Z</time>
      </trkpt>
      <trkpt lat="43.0227570" lon="-5.8678660">
        <ele>866.4</ele>
        <time>2018-06-17T12:43:38Z</time>
      </trkpt>
      <trkpt lat="43.0228150" lon="-5.8678210">
        <ele>866.2</ele>
        <time>2018-06-17T12:43:39Z</time>
      </trkpt>
      <trkpt lat="43.0229880" lon="-5.8675180">
        <ele>865.8</ele>
        <time>2018-06-17T12:43:43Z</time>
      </trkpt>
      <trkpt lat="43.0229900" lon="-5.8674220">
        <ele>865.6</ele>
        <time>2018-06-17T12:43:44Z</time>
      </trkpt>
      <trkpt lat="43.0229730" lon="-5.8672390">
        <ele>865.0</ele>
        <time>2018-06-17T12:43:46Z</time>
      </trkpt>
      <trkpt lat="43.0229660" lon="-5.8671470">
        <ele>864.4</ele>
        <time>2018-06-17T12:43:47Z</time>
      </trkpt>
      <trkpt lat="43.0229390" lon="-5.8667490">
        <ele>864.0</ele>
        <time>2018-06-17T12:43:51Z</time>
      </trkpt>
      <trkpt lat="43.0229570" lon="-5.8661810">
        <ele>863.6</ele>
        <time>2018-06-17T12:43:56Z</time>
      </trkpt>
      <trkpt lat="43.0229950" lon="-5.8659500">
        <ele>863.2</ele>
        <time>2018-06-17T12:43:58Z</time>
      </trkpt>
      <trkpt lat="43.0230440" lon="-5.8655860">
        <ele>862.4</ele>
        <time>2018-06-17T12:44:01Z</time>
      </trkpt>
      <trkpt lat="43.0230410" lon="-5.8650070">
        <ele>862.0</ele>
        <time>2018-06-17T12:44:06Z</time>
      </trkpt>
      <trkpt lat="43.0229810" lon="-5.8646840">
        <ele>861.6</ele>
        <time>2018-06-17T12:44:09Z</time>
      </trkpt>
      <trkpt lat="43.0228070" lon="-5.8641820">
        <ele>860.6</ele>
        <time>2018-06-17T12:44:14Z</time>
      </trkpt>
      <trkpt lat="43.0226270" lon="-5.8637850">
        <ele>859.6</ele>
        <time>2018-06-17T12:44:18Z</time>
      </trkpt>
      <trkpt lat="43.0224490" lon="-5.8635070">
        <ele>857.8</ele>
        <time>2018-06-17T12:44:21Z</time>
      </trkpt>
      <trkpt lat="43.0223950" lon="-5.8633990">
        <ele>857.0</ele>
        <time>2018-06-17T12:44:22Z</time>
      </trkpt>
      <trkpt lat="43.0223430" lon="-5.8632940">
        <ele>856.4</ele>
        <time>2018-06-17T12:44:23Z</time>
      </trkpt>
      <trkpt lat="43.0222770" lon="-5.8631000">
        <ele>854.8</ele>
        <time>2018-06-17T12:44:25Z</time>
      </trkpt>
      <trkpt lat="43.0224010" lon="-5.8627620">
        <ele>853.6</ele>
        <time>2018-06-17T12:44:29Z</time>
      </trkpt>
      <trkpt lat="43.0225440" lon="-5.8626350">
        <ele>852.4</ele>
        <time>2018-06-17T12:44:31Z</time>
      </trkpt>
      <trkpt lat="43.0226610" lon="-5.8624390">
        <ele>850.8</ele>
        <time>2018-06-17T12:44:33Z</time>
      </trkpt>
      <trkpt lat="43.0227580" lon="-5.8622070">
        <ele>849.4</ele>
        <time>2018-06-17T12:44:35Z</time>
      </trkpt>
      <trkpt lat="43.0228890" lon="-5.8619930">
        <ele>848.0</ele>
        <time>2018-06-17T12:44:37Z</time>
      </trkpt>
      <trkpt lat="43.0229650" lon="-5.8618920">
        <ele>847.4</ele>
        <time>2018-06-17T12:44:38Z</time>
      </trkpt>
      <trkpt lat="43.0230420" lon="-5.8617900">
        <ele>846.6</ele>
        <time>2018-06-17T12:44:39Z</time>
      </trkpt>
      <trkpt lat="43.0232070" lon="-5.8615860">
        <ele>845.4</ele>
        <time>2018-06-17T12:44:41Z</time>
      </trkpt>
      <trkpt lat="43.0233650" lon="-5.8613700">
        <ele>843.0</ele>
        <time>2018-06-17T12:44:43Z</time>
      </trkpt>
      <trkpt lat="43.0234330" lon="-5.8612500">
        <ele>842.6</ele>
        <time>2018-06-17T12:44:44Z</time>
      </trkpt>
      <trkpt lat="43.0234920" lon="-5.8611190">
        <ele>842.0</ele>
        <time>2018-06-17T12:44:45Z</time>
      </trkpt>
      <trkpt lat="43.0235760" lon="-5.8608320">
        <ele>840.6</ele>
        <time>2018-06-17T12:44:47Z</time>
      </trkpt>
      <trkpt lat="43.0236350" lon="-5.8605470">
        <ele>839.0</ele>
        <time>2018-06-17T12:44:49Z</time>
      </trkpt>
      <trkpt lat="43.0236490" lon="-5.8604150">
        <ele>838.2</ele>
        <time>2018-06-17T12:44:50Z</time>
      </trkpt>
      <trkpt lat="43.0236500" lon="-5.8602980">
        <ele>837.6</ele>
        <time>2018-06-17T12:44:51Z</time>
      </trkpt>
      <trkpt lat="43.0236270" lon="-5.8601160">
        <ele>836.4</ele>
        <time>2018-06-17T12:44:53Z</time>
      </trkpt>
      <trkpt lat="43.0234810" lon="-5.8600590">
        <ele>835.4</ele>
        <time>2018-06-17T12:44:56Z</time>
      </trkpt>
      <trkpt lat="43.0234190" lon="-5.8602590">
        <ele>834.2</ele>
        <time>2018-06-17T12:44:59Z</time>
      </trkpt>
      <trkpt lat="43.0234170" lon="-5.8603550">
        <ele>833.8</ele>
        <time>2018-06-17T12:45:00Z</time>
      </trkpt>
      <trkpt lat="43.0234060" lon="-5.8604530">
        <ele>833.2</ele>
        <time>2018-06-17T12:45:01Z</time>
      </trkpt>
      <trkpt lat="43.0233350" lon="-5.8606470">
        <ele>832.2</ele>
        <time>2018-06-17T12:45:03Z</time>
      </trkpt>
      <trkpt lat="43.0232850" lon="-5.8607460">
        <ele>831.4</ele>
        <time>2018-06-17T12:45:04Z</time>
      </trkpt>
      <trkpt lat="43.0231810" lon="-5.8609520">
        <ele>829.8</ele>
        <time>2018-06-17T12:45:06Z</time>
      </trkpt>
      <trkpt lat="43.0230550" lon="-5.8611540">
        <ele>828.2</ele>
        <time>2018-06-17T12:45:08Z</time>
      </trkpt>
      <trkpt lat="43.0229160" lon="-5.8613090">
        <ele>827.2</ele>
        <time>2018-06-17T12:45:10Z</time>
      </trkpt>
      <trkpt lat="43.0228620" lon="-5.8613530">
        <ele>826.8</ele>
        <time>2018-06-17T12:45:11Z</time>
      </trkpt>
      <trkpt lat="43.0227200" lon="-5.8613660">
        <ele>826.0</ele>
        <time>2018-06-17T12:45:14Z</time>
      </trkpt>
      <trkpt lat="43.0227100" lon="-5.8612040">
        <ele>825.2</ele>
        <time>2018-06-17T12:45:16Z</time>
      </trkpt>
      <trkpt lat="43.0227580" lon="-5.8611080">
        <ele>824.8</ele>
        <time>2018-06-17T12:45:17Z</time>
      </trkpt>
      <trkpt lat="43.0228740" lon="-5.8609180">
        <ele>823.0</ele>
        <time>2018-06-17T12:45:19Z</time>
      </trkpt>
      <trkpt lat="43.0229390" lon="-5.8608410">
        <ele>822.2</ele>
        <time>2018-06-17T12:45:20Z</time>
      </trkpt>
      <trkpt lat="43.0229980" lon="-5.8607590">
        <ele>821.4</ele>
        <time>2018-06-17T12:45:21Z</time>
      </trkpt>
      <trkpt lat="43.0231000" lon="-5.8605750">
        <ele>820.0</ele>
        <time>2018-06-17T12:45:23Z</time>
      </trkpt>
      <trkpt lat="43.0231270" lon="-5.8604570">
        <ele>819.6</ele>
        <time>2018-06-17T12:45:24Z</time>
      </trkpt>
      <trkpt lat="43.0231480" lon="-5.8603360">
        <ele>818.8</ele>
        <time>2018-06-17T12:45:25Z</time>
      </trkpt>
      <trkpt lat="43.0231330" lon="-5.8600850">
        <ele>817.8</ele>
        <time>2018-06-17T12:45:27Z</time>
      </trkpt>
      <trkpt lat="43.0230990" lon="-5.8599610">
        <ele>816.8</ele>
        <time>2018-06-17T12:45:28Z</time>
      </trkpt>
      <trkpt lat="43.0230080" lon="-5.8597170">
        <ele>815.2</ele>
        <time>2018-06-17T12:45:30Z</time>
      </trkpt>
      <trkpt lat="43.0229430" lon="-5.8594870">
        <ele>813.6</ele>
        <time>2018-06-17T12:45:32Z</time>
      </trkpt>
      <trkpt lat="43.0229760" lon="-5.8591250">
        <ele>812.2</ele>
        <time>2018-06-17T12:45:35Z</time>
      </trkpt>
      <trkpt lat="43.0230130" lon="-5.8590050">
        <ele>811.6</ele>
        <time>2018-06-17T12:45:36Z</time>
      </trkpt>
      <trkpt lat="43.0230500" lon="-5.8588810">
        <ele>810.4</ele>
        <time>2018-06-17T12:45:37Z</time>
      </trkpt>
      <trkpt lat="43.0230820" lon="-5.8587550">
        <ele>809.0</ele>
        <time>2018-06-17T12:45:38Z</time>
      </trkpt>
      <trkpt lat="43.0231120" lon="-5.8586230">
        <ele>807.8</ele>
        <time>2018-06-17T12:45:39Z</time>
      </trkpt>
      <trkpt lat="43.0231470" lon="-5.8585020">
        <ele>806.6</ele>
        <time>2018-06-17T12:45:40Z</time>
      </trkpt>
      <trkpt lat="43.0233270" lon="-5.8582470">
        <ele>805.4</ele>
        <time>2018-06-17T12:45:43Z</time>
      </trkpt>
      <trkpt lat="43.0235200" lon="-5.8581750">
        <ele>804.0</ele>
        <time>2018-06-17T12:45:45Z</time>
      </trkpt>
      <trkpt lat="43.0236210" lon="-5.8581390">
        <ele>802.6</ele>
        <time>2018-06-17T12:45:46Z</time>
      </trkpt>
      <trkpt lat="43.0237200" lon="-5.8580810">
        <ele>801.8</ele>
        <time>2018-06-17T12:45:47Z</time>
      </trkpt>
      <trkpt lat="43.0238180" lon="-5.8580000">
        <ele>801.2</ele>
        <time>2018-06-17T12:45:48Z</time>
      </trkpt>
      <trkpt lat="43.0240000" lon="-5.8577950">
        <ele>799.2</ele>
        <time>2018-06-17T12:45:50Z</time>
      </trkpt>
      <trkpt lat="43.0240870" lon="-5.8576940">
        <ele>797.6</ele>
        <time>2018-06-17T12:45:51Z</time>
      </trkpt>
      <trkpt lat="43.0241660" lon="-5.8575970">
        <ele>796.4</ele>
        <time>2018-06-17T12:45:52Z</time>
      </trkpt>
      <trkpt lat="43.0242360" lon="-5.8574930">
        <ele>795.8</ele>
        <time>2018-06-17T12:45:53Z</time>
      </trkpt>
      <trkpt lat="43.0242960" lon="-5.8573720">
        <ele>794.4</ele>
        <time>2018-06-17T12:45:54Z</time>
      </trkpt>
      <trkpt lat="43.0243470" lon="-5.8572430">
        <ele>793.0</ele>
        <time>2018-06-17T12:45:55Z</time>
      </trkpt>
      <trkpt lat="43.0244480" lon="-5.8569880">
        <ele>791.0</ele>
        <time>2018-06-17T12:45:57Z</time>
      </trkpt>
      <trkpt lat="43.0245690" lon="-5.8567630">
        <ele>789.8</ele>
        <time>2018-06-17T12:45:59Z</time>
      </trkpt>
      <trkpt lat="43.0246200" lon="-5.8566600">
        <ele>789.4</ele>
        <time>2018-06-17T12:46:00Z</time>
      </trkpt>
      <trkpt lat="43.0246530" lon="-5.8565560">
        <ele>788.8</ele>
        <time>2018-06-17T12:46:01Z</time>
      </trkpt>
      <trkpt lat="43.0246460" lon="-5.8563620">
        <ele>787.2</ele>
        <time>2018-06-17T12:46:03Z</time>
      </trkpt>
      <trkpt lat="43.0245270" lon="-5.8561980">
        <ele>785.4</ele>
        <time>2018-06-17T12:46:05Z</time>
      </trkpt>
      <trkpt lat="43.0243610" lon="-5.8561140">
        <ele>784.2</ele>
        <time>2018-06-17T12:46:07Z</time>
      </trkpt>
      <trkpt lat="43.0242080" lon="-5.8560310">
        <ele>783.0</ele>
        <time>2018-06-17T12:46:09Z</time>
      </trkpt>
      <trkpt lat="43.0241150" lon="-5.8558680">
        <ele>781.8</ele>
        <time>2018-06-17T12:46:11Z</time>
      </trkpt>
      <trkpt lat="43.0241840" lon="-5.8556570">
        <ele>780.4</ele>
        <time>2018-06-17T12:46:13Z</time>
      </trkpt>
      <trkpt lat="43.0242850" lon="-5.8555210">
        <ele>778.4</ele>
        <time>2018-06-17T12:46:15Z</time>
      </trkpt>
      <trkpt lat="43.0244250" lon="-5.8554320">
        <ele>776.4</ele>
        <time>2018-06-17T12:46:17Z</time>
      </trkpt>
      <trkpt lat="43.0246190" lon="-5.8553170">
        <ele>774.8</ele>
        <time>2018-06-17T12:46:19Z</time>
      </trkpt>
      <trkpt lat="43.0247880" lon="-5.8551180">
        <ele>773.4</ele>
        <time>2018-06-17T12:46:21Z</time>
      </trkpt>
      <trkpt lat="43.0249260" lon="-5.8549340">
        <ele>772.2</ele>
        <time>2018-06-17T12:46:23Z</time>
      </trkpt>
      <trkpt lat="43.0249920" lon="-5.8547030">
        <ele>770.4</ele>
        <time>2018-06-17T12:46:25Z</time>
      </trkpt>
      <trkpt lat="43.0250130" lon="-5.8544140">
        <ele>768.4</ele>
        <time>2018-06-17T12:46:27Z</time>
      </trkpt>
      <trkpt lat="43.0250010" lon="-5.8541000">
        <ele>766.4</ele>
        <time>2018-06-17T12:46:29Z</time>
      </trkpt>
      <trkpt lat="43.0249760" lon="-5.8538030">
        <ele>764.4</ele>
        <time>2018-06-17T12:46:31Z</time>
      </trkpt>
      <trkpt lat="43.0249300" lon="-5.8535350">
        <ele>762.8</ele>
        <time>2018-06-17T12:46:33Z</time>
      </trkpt>
      <trkpt lat="43.0248510" lon="-5.8534530">
        <ele>762.2</ele>
        <time>2018-06-17T12:46:34Z</time>
      </trkpt>
      <trkpt lat="43.0247780" lon="-5.8533720">
        <ele>761.6</ele>
        <time>2018-06-17T12:46:35Z</time>
      </trkpt>
      <trkpt lat="43.0246860" lon="-5.8533320">
        <ele>760.4</ele>
        <time>2018-06-17T12:46:36Z</time>
      </trkpt>
      <trkpt lat="43.0244790" lon="-5.8532980">
        <ele>758.6</ele>
        <time>2018-06-17T12:46:38Z</time>
      </trkpt>
      <trkpt lat="43.0243750" lon="-5.8532770">
        <ele>757.6</ele>
        <time>2018-06-17T12:46:39Z</time>
      </trkpt>
      <trkpt lat="43.0242740" lon="-5.8532510">
        <ele>756.4</ele>
        <time>2018-06-17T12:46:40Z</time>
      </trkpt>
      <trkpt lat="43.0241770" lon="-5.8532240">
        <ele>755.6</ele>
        <time>2018-06-17T12:46:41Z</time>
      </trkpt>
      <trkpt lat="43.0240790" lon="-5.8531950">
        <ele>754.4</ele>
        <time>2018-06-17T12:46:42Z</time>
      </trkpt>
      <trkpt lat="43.0238920" lon="-5.8531340">
        <ele>752.8</ele>
        <time>2018-06-17T12:46:44Z</time>
      </trkpt>
      <trkpt lat="43.0237180" lon="-5.8530450">
        <ele>751.4</ele>
        <time>2018-06-17T12:46:46Z</time>
      </trkpt>
      <trkpt lat="43.0235890" lon="-5.8529080">
        <ele>749.8</ele>
        <time>2018-06-17T12:46:48Z</time>
      </trkpt>
      <trkpt lat="43.0235530" lon="-5.8528090">
        <ele>748.6</ele>
        <time>2018-06-17T12:46:49Z</time>
      </trkpt>
      <trkpt lat="43.0235200" lon="-5.8525650">
        <ele>747.4</ele>
        <time>2018-06-17T12:46:51Z</time>
      </trkpt>
      <trkpt lat="43.0235170" lon="-5.8524390">
        <ele>746.8</ele>
        <time>2018-06-17T12:46:52Z</time>
      </trkpt>
      <trkpt lat="43.0235250" lon="-5.8522890">
        <ele>745.8</ele>
        <time>2018-06-17T12:46:53Z</time>
      </trkpt>
      <trkpt lat="43.0235300" lon="-5.8521470">
        <ele>744.8</ele>
        <time>2018-06-17T12:46:54Z</time>
      </trkpt>
      <trkpt lat="43.0235200" lon="-5.8518780">
        <ele>743.2</ele>
        <time>2018-06-17T12:46:56Z</time>
      </trkpt>
      <trkpt lat="43.0234810" lon="-5.8517510">
        <ele>742.0</ele>
        <time>2018-06-17T12:46:57Z</time>
      </trkpt>
      <trkpt lat="43.0234370" lon="-5.8516340">
        <ele>740.6</ele>
        <time>2018-06-17T12:46:58Z</time>
      </trkpt>
      <trkpt lat="43.0234040" lon="-5.8515140">
        <ele>739.6</ele>
        <time>2018-06-17T12:46:59Z</time>
      </trkpt>
      <trkpt lat="43.0233880" lon="-5.8512500">
        <ele>738.4</ele>
        <time>2018-06-17T12:47:01Z</time>
      </trkpt>
      <trkpt lat="43.0234370" lon="-5.8509800">
        <ele>737.4</ele>
        <time>2018-06-17T12:47:03Z</time>
      </trkpt>
      <trkpt lat="43.0235290" lon="-5.8507240">
        <ele>736.0</ele>
        <time>2018-06-17T12:47:05Z</time>
      </trkpt>
      <trkpt lat="43.0236570" lon="-5.8505420">
        <ele>734.6</ele>
        <time>2018-06-17T12:47:07Z</time>
      </trkpt>
      <trkpt lat="43.0238050" lon="-5.8504530">
        <ele>733.2</ele>
        <time>2018-06-17T12:47:09Z</time>
      </trkpt>
      <trkpt lat="43.0238730" lon="-5.8504000">
        <ele>732.6</ele>
        <time>2018-06-17T12:47:10Z</time>
      </trkpt>
      <trkpt lat="43.0239270" lon="-5.8503280">
        <ele>731.6</ele>
        <time>2018-06-17T12:47:11Z</time>
      </trkpt>
      <trkpt lat="43.0239640" lon="-5.8501210">
        <ele>729.8</ele>
        <time>2018-06-17T12:47:13Z</time>
      </trkpt>
      <trkpt lat="43.0239470" lon="-5.8500160">
        <ele>728.8</ele>
        <time>2018-06-17T12:47:14Z</time>
      </trkpt>
      <trkpt lat="43.0239190" lon="-5.8498980">
        <ele>727.6</ele>
        <time>2018-06-17T12:47:15Z</time>
      </trkpt>
      <trkpt lat="43.0238900" lon="-5.8497810">
        <ele>726.8</ele>
        <time>2018-06-17T12:47:16Z</time>
      </trkpt>
      <trkpt lat="43.0238680" lon="-5.8496630">
        <ele>726.4</ele>
        <time>2018-06-17T12:47:17Z</time>
      </trkpt>
      <trkpt lat="43.0238460" lon="-5.8494160">
        <ele>725.2</ele>
        <time>2018-06-17T12:47:19Z</time>
      </trkpt>
      <trkpt lat="43.0239380" lon="-5.8490350">
        <ele>723.8</ele>
        <time>2018-06-17T12:47:22Z</time>
      </trkpt>
      <trkpt lat="43.0240190" lon="-5.8487780">
        <ele>722.2</ele>
        <time>2018-06-17T12:47:24Z</time>
      </trkpt>
      <trkpt lat="43.0240420" lon="-5.8485220">
        <ele>720.8</ele>
        <time>2018-06-17T12:47:26Z</time>
      </trkpt>
      <trkpt lat="43.0240030" lon="-5.8482480">
        <ele>719.4</ele>
        <time>2018-06-17T12:47:28Z</time>
      </trkpt>
      <trkpt lat="43.0239740" lon="-5.8481110">
        <ele>718.8</ele>
        <time>2018-06-17T12:47:29Z</time>
      </trkpt>
      <trkpt lat="43.0239450" lon="-5.8479760">
        <ele>718.2</ele>
        <time>2018-06-17T12:47:30Z</time>
      </trkpt>
      <trkpt lat="43.0239010" lon="-5.8476950">
        <ele>716.6</ele>
        <time>2018-06-17T12:47:32Z</time>
      </trkpt>
      <trkpt lat="43.0238800" lon="-5.8474260">
        <ele>715.0</ele>
        <time>2018-06-17T12:47:34Z</time>
      </trkpt>
      <trkpt lat="43.0238360" lon="-5.8471660">
        <ele>713.6</ele>
        <time>2018-06-17T12:47:36Z</time>
      </trkpt>
      <trkpt lat="43.0237940" lon="-5.8468140">
        <ele>712.4</ele>
        <time>2018-06-17T12:47:39Z</time>
      </trkpt>
      <trkpt lat="43.0240500" lon="-5.8462530">
        <ele>711.2</ele>
        <time>2018-06-17T12:47:45Z</time>
      </trkpt>
      <trkpt lat="43.0241030" lon="-5.8461940">
        <ele>711.0</ele>
        <time>2018-06-17T12:47:46Z</time>
      </trkpt>
      <trkpt lat="43.0241410" lon="-5.8461270">
        <ele>711.0</ele>
        <time>2018-06-17T12:47:47Z</time>
      </trkpt>
      <trkpt lat="43.0241570" lon="-5.8459620">
        <ele>710.4</ele>
        <time>2018-06-17T12:47:50Z</time>
      </trkpt>
      <trkpt lat="43.0240290" lon="-5.8459140">
        <ele>709.2</ele>
        <time>2018-06-17T12:47:52Z</time>
      </trkpt>
      <trkpt lat="43.0238870" lon="-5.8459870">
        <ele>708.0</ele>
        <time>2018-06-17T12:47:54Z</time>
      </trkpt>
      <trkpt lat="43.0238280" lon="-5.8460700">
        <ele>707.0</ele>
        <time>2018-06-17T12:47:55Z</time>
      </trkpt>
      <trkpt lat="43.0237770" lon="-5.8461570">
        <ele>705.6</ele>
        <time>2018-06-17T12:47:56Z</time>
      </trkpt>
      <trkpt lat="43.0237140" lon="-5.8463740">
        <ele>704.2</ele>
        <time>2018-06-17T12:47:58Z</time>
      </trkpt>
      <trkpt lat="43.0236840" lon="-5.8466120">
        <ele>702.8</ele>
        <time>2018-06-17T12:48:00Z</time>
      </trkpt>
      <trkpt lat="43.0236720" lon="-5.8467380">
        <ele>702.2</ele>
        <time>2018-06-17T12:48:01Z</time>
      </trkpt>
      <trkpt lat="43.0236640" lon="-5.8468740">
        <ele>701.6</ele>
        <time>2018-06-17T12:48:02Z</time>
      </trkpt>
      <trkpt lat="43.0236520" lon="-5.8472070">
        <ele>700.0</ele>
        <time>2018-06-17T12:48:05Z</time>
      </trkpt>
      <trkpt lat="43.0235900" lon="-5.8474350">
        <ele>698.6</ele>
        <time>2018-06-17T12:48:07Z</time>
      </trkpt>
      <trkpt lat="43.0235070" lon="-5.8476780">
        <ele>696.4</ele>
        <time>2018-06-17T12:48:09Z</time>
      </trkpt>
      <trkpt lat="43.0234270" lon="-5.8479370">
        <ele>695.2</ele>
        <time>2018-06-17T12:48:11Z</time>
      </trkpt>
      <trkpt lat="43.0233330" lon="-5.8481970">
        <ele>694.2</ele>
        <time>2018-06-17T12:48:13Z</time>
      </trkpt>
      <trkpt lat="43.0232220" lon="-5.8484380">
        <ele>692.8</ele>
        <time>2018-06-17T12:48:15Z</time>
      </trkpt>
      <trkpt lat="43.0231230" lon="-5.8486620">
        <ele>691.6</ele>
        <time>2018-06-17T12:48:17Z</time>
      </trkpt>
      <trkpt lat="43.0230910" lon="-5.8487830">
        <ele>691.0</ele>
        <time>2018-06-17T12:48:18Z</time>
      </trkpt>
      <trkpt lat="43.0230680" lon="-5.8491630">
        <ele>690.8</ele>
        <time>2018-06-17T12:48:22Z</time>
      </trkpt>
      <trkpt lat="43.0230380" lon="-5.8492220">
        <ele>690.6</ele>
        <time>2018-06-17T12:48:23Z</time>
      </trkpt>
      <trkpt lat="43.0227890" lon="-5.8491920">
        <ele>689.6</ele>
        <time>2018-06-17T12:48:28Z</time>
      </trkpt>
      <trkpt lat="43.0227550" lon="-5.8490290">
        <ele>688.6</ele>
        <time>2018-06-17T12:48:30Z</time>
      </trkpt>
      <trkpt lat="43.0228020" lon="-5.8488430">
        <ele>687.4</ele>
        <time>2018-06-17T12:48:32Z</time>
      </trkpt>
      <trkpt lat="43.0228350" lon="-5.8487480">
        <ele>686.8</ele>
        <time>2018-06-17T12:48:33Z</time>
      </trkpt>
      <trkpt lat="43.0228710" lon="-5.8486520">
        <ele>686.4</ele>
        <time>2018-06-17T12:48:34Z</time>
      </trkpt>
      <trkpt lat="43.0229380" lon="-5.8484370">
        <ele>684.8</ele>
        <time>2018-06-17T12:48:36Z</time>
      </trkpt>
      <trkpt lat="43.0229620" lon="-5.8483170">
        <ele>684.4</ele>
        <time>2018-06-17T12:48:37Z</time>
      </trkpt>
      <trkpt lat="43.0229830" lon="-5.8480590">
        <ele>683.6</ele>
        <time>2018-06-17T12:48:39Z</time>
      </trkpt>
      <trkpt lat="43.0229770" lon="-5.8477850">
        <ele>682.0</ele>
        <time>2018-06-17T12:48:41Z</time>
      </trkpt>
      <trkpt lat="43.0229730" lon="-5.8476440">
        <ele>680.8</ele>
        <time>2018-06-17T12:48:42Z</time>
      </trkpt>
      <trkpt lat="43.0229840" lon="-5.8475080">
        <ele>680.0</ele>
        <time>2018-06-17T12:48:43Z</time>
      </trkpt>
      <trkpt lat="43.0230120" lon="-5.8473720">
        <ele>679.2</ele>
        <time>2018-06-17T12:48:44Z</time>
      </trkpt>
      <trkpt lat="43.0231150" lon="-5.8471260">
        <ele>678.0</ele>
        <time>2018-06-17T12:48:46Z</time>
      </trkpt>
      <trkpt lat="43.0231740" lon="-5.8470060">
        <ele>677.4</ele>
        <time>2018-06-17T12:48:47Z</time>
      </trkpt>
      <trkpt lat="43.0232240" lon="-5.8468750">
        <ele>676.4</ele>
        <time>2018-06-17T12:48:48Z</time>
      </trkpt>
      <trkpt lat="43.0232610" lon="-5.8467360">
        <ele>675.2</ele>
        <time>2018-06-17T12:48:49Z</time>
      </trkpt>
      <trkpt lat="43.0232990" lon="-5.8464550">
        <ele>673.8</ele>
        <time>2018-06-17T12:48:51Z</time>
      </trkpt>
      <trkpt lat="43.0232900" lon="-5.8463150">
        <ele>672.6</ele>
        <time>2018-06-17T12:48:52Z</time>
      </trkpt>
      <trkpt lat="43.0232690" lon="-5.8461750">
        <ele>671.4</ele>
        <time>2018-06-17T12:48:53Z</time>
      </trkpt>
      <trkpt lat="43.0231940" lon="-5.8459020">
        <ele>670.2</ele>
        <time>2018-06-17T12:48:55Z</time>
      </trkpt>
      <trkpt lat="43.0231370" lon="-5.8456240">
        <ele>669.4</ele>
        <time>2018-06-17T12:48:57Z</time>
      </trkpt>
      <trkpt lat="43.0231250" lon="-5.8454850">
        <ele>668.6</ele>
        <time>2018-06-17T12:48:58Z</time>
      </trkpt>
      <trkpt lat="43.0231070" lon="-5.8452060">
        <ele>667.0</ele>
        <time>2018-06-17T12:49:00Z</time>
      </trkpt>
      <trkpt lat="43.0230800" lon="-5.8449120">
        <ele>665.6</ele>
        <time>2018-06-17T12:49:02Z</time>
      </trkpt>
      <trkpt lat="43.0230610" lon="-5.8447550">
        <ele>664.2</ele>
        <time>2018-06-17T12:49:03Z</time>
      </trkpt>
      <trkpt lat="43.0230400" lon="-5.8445980">
        <ele>662.8</ele>
        <time>2018-06-17T12:49:04Z</time>
      </trkpt>
      <trkpt lat="43.0230170" lon="-5.8444470">
        <ele>661.6</ele>
        <time>2018-06-17T12:49:05Z</time>
      </trkpt>
      <trkpt lat="43.0229900" lon="-5.8443010">
        <ele>660.6</ele>
        <time>2018-06-17T12:49:06Z</time>
      </trkpt>
      <trkpt lat="43.0229600" lon="-5.8441600">
        <ele>659.6</ele>
        <time>2018-06-17T12:49:07Z</time>
      </trkpt>
      <trkpt lat="43.0229050" lon="-5.8438960">
        <ele>658.0</ele>
        <time>2018-06-17T12:49:09Z</time>
      </trkpt>
      <trkpt lat="43.0228580" lon="-5.8436550">
        <ele>656.4</ele>
        <time>2018-06-17T12:49:11Z</time>
      </trkpt>
      <trkpt lat="43.0228510" lon="-5.8435430">
        <ele>655.8</ele>
        <time>2018-06-17T12:49:12Z</time>
      </trkpt>
      <trkpt lat="43.0228620" lon="-5.8434330">
        <ele>655.2</ele>
        <time>2018-06-17T12:49:13Z</time>
      </trkpt>
      <trkpt lat="43.0229080" lon="-5.8432160">
        <ele>654.0</ele>
        <time>2018-06-17T12:49:15Z</time>
      </trkpt>
      <trkpt lat="43.0229250" lon="-5.8431060">
        <ele>652.8</ele>
        <time>2018-06-17T12:49:16Z</time>
      </trkpt>
      <trkpt lat="43.0229740" lon="-5.8429000">
        <ele>651.4</ele>
        <time>2018-06-17T12:49:18Z</time>
      </trkpt>
      <trkpt lat="43.0230680" lon="-5.8427050">
        <ele>650.4</ele>
        <time>2018-06-17T12:49:20Z</time>
      </trkpt>
      <trkpt lat="43.0231270" lon="-5.8426070">
        <ele>649.0</ele>
        <time>2018-06-17T12:49:21Z</time>
      </trkpt>
      <trkpt lat="43.0231880" lon="-5.8425090">
        <ele>648.0</ele>
        <time>2018-06-17T12:49:22Z</time>
      </trkpt>
      <trkpt lat="43.0232430" lon="-5.8424040">
        <ele>647.4</ele>
        <time>2018-06-17T12:49:23Z</time>
      </trkpt>
      <trkpt lat="43.0232840" lon="-5.8422890">
        <ele>646.8</ele>
        <time>2018-06-17T12:49:24Z</time>
      </trkpt>
      <trkpt lat="43.0233060" lon="-5.8421570">
        <ele>646.2</ele>
        <time>2018-06-17T12:49:25Z</time>
      </trkpt>
      <trkpt lat="43.0233210" lon="-5.8420290">
        <ele>644.8</ele>
        <time>2018-06-17T12:49:26Z</time>
      </trkpt>
      <trkpt lat="43.0233450" lon="-5.8417610">
        <ele>642.8</ele>
        <time>2018-06-17T12:49:28Z</time>
      </trkpt>
      <trkpt lat="43.0233920" lon="-5.8414850">
        <ele>641.4</ele>
        <time>2018-06-17T12:49:30Z</time>
      </trkpt>
      <trkpt lat="43.0234430" lon="-5.8412060">
        <ele>640.0</ele>
        <time>2018-06-17T12:49:32Z</time>
      </trkpt>
      <trkpt lat="43.0235100" lon="-5.8409190">
        <ele>637.8</ele>
        <time>2018-06-17T12:49:34Z</time>
      </trkpt>
      <trkpt lat="43.0235580" lon="-5.8407790">
        <ele>637.0</ele>
        <time>2018-06-17T12:49:35Z</time>
      </trkpt>
      <trkpt lat="43.0236130" lon="-5.8406450">
        <ele>635.8</ele>
        <time>2018-06-17T12:49:36Z</time>
      </trkpt>
      <trkpt lat="43.0236740" lon="-5.8405150">
        <ele>634.6</ele>
        <time>2018-06-17T12:49:37Z</time>
      </trkpt>
      <trkpt lat="43.0237490" lon="-5.8404000">
        <ele>633.6</ele>
        <time>2018-06-17T12:49:38Z</time>
      </trkpt>
      <trkpt lat="43.0239200" lon="-5.8402150">
        <ele>632.4</ele>
        <time>2018-06-17T12:49:40Z</time>
      </trkpt>
      <trkpt lat="43.0239960" lon="-5.8401400">
        <ele>631.8</ele>
        <time>2018-06-17T12:49:41Z</time>
      </trkpt>
      <trkpt lat="43.0241220" lon="-5.8400130">
        <ele>631.2</ele>
        <time>2018-06-17T12:49:43Z</time>
      </trkpt>
      <trkpt lat="43.0244510" lon="-5.8395560">
        <ele>631.2</ele>
        <time>2018-06-17T12:49:51Z</time>
      </trkpt>
      <trkpt lat="43.0246220" lon="-5.8391870">
        <ele>631.4</ele>
        <time>2018-06-17T12:49:57Z</time>
      </trkpt>
      <trkpt lat="43.0246450" lon="-5.8391220">
        <ele>631.4</ele>
        <time>2018-06-17T12:49:58Z</time>
      </trkpt>
      <trkpt lat="43.0247640" lon="-5.8388020">
        <ele>630.0</ele>
        <time>2018-06-17T12:50:02Z</time>
      </trkpt>
      <trkpt lat="43.0248620" lon="-5.8386140">
        <ele>628.6</ele>
        <time>2018-06-17T12:50:04Z</time>
      </trkpt>
      <trkpt lat="43.0249880" lon="-5.8384370">
        <ele>627.0</ele>
        <time>2018-06-17T12:50:06Z</time>
      </trkpt>
      <trkpt lat="43.0251550" lon="-5.8383150">
        <ele>625.8</ele>
        <time>2018-06-17T12:50:08Z</time>
      </trkpt>
      <trkpt lat="43.0252470" lon="-5.8382730">
        <ele>624.6</ele>
        <time>2018-06-17T12:50:09Z</time>
      </trkpt>
      <trkpt lat="43.0253410" lon="-5.8382360">
        <ele>623.6</ele>
        <time>2018-06-17T12:50:10Z</time>
      </trkpt>
      <trkpt lat="43.0254260" lon="-5.8381900">
        <ele>622.8</ele>
        <time>2018-06-17T12:50:11Z</time>
      </trkpt>
      <trkpt lat="43.0255410" lon="-5.8380180">
        <ele>621.0</ele>
        <time>2018-06-17T12:50:13Z</time>
      </trkpt>
      <trkpt lat="43.0255970" lon="-5.8377900">
        <ele>619.6</ele>
        <time>2018-06-17T12:50:15Z</time>
      </trkpt>
      <trkpt lat="43.0256250" lon="-5.8376750">
        <ele>619.4</ele>
        <time>2018-06-17T12:50:16Z</time>
      </trkpt>
      <trkpt lat="43.0256860" lon="-5.8374540">
        <ele>618.6</ele>
        <time>2018-06-17T12:50:18Z</time>
      </trkpt>
      <trkpt lat="43.0258080" lon="-5.8370460">
        <ele>618.0</ele>
        <time>2018-06-17T12:50:22Z</time>
      </trkpt>
      <trkpt lat="43.0259250" lon="-5.8368960">
        <ele>617.6</ele>
        <time>2018-06-17T12:50:24Z</time>
      </trkpt>
      <trkpt lat="43.0262830" lon="-5.8367990">
        <ele>617.2</ele>
        <time>2018-06-17T12:50:28Z</time>
      </trkpt>
      <trkpt lat="43.0264690" lon="-5.8367970">
        <ele>616.4</ele>
        <time>2018-06-17T12:50:30Z</time>
      </trkpt>
      <trkpt lat="43.0267310" lon="-5.8367940">
        <ele>614.8</ele>
        <time>2018-06-17T12:50:33Z</time>
      </trkpt>
      <trkpt lat="43.0270940" lon="-5.8368280">
        <ele>614.4</ele>
        <time>2018-06-17T12:50:37Z</time>
      </trkpt>
      <trkpt lat="43.0273580" lon="-5.8368780">
        <ele>614.0</ele>
        <time>2018-06-17T12:50:40Z</time>
      </trkpt>
      <trkpt lat="43.0276210" lon="-5.8368320">
        <ele>612.2</ele>
        <time>2018-06-17T12:50:43Z</time>
      </trkpt>
      <trkpt lat="43.0277810" lon="-5.8367550">
        <ele>611.0</ele>
        <time>2018-06-17T12:50:45Z</time>
      </trkpt>
      <trkpt lat="43.0279200" lon="-5.8365730">
        <ele>610.2</ele>
        <time>2018-06-17T12:50:47Z</time>
      </trkpt>
      <trkpt lat="43.0279780" lon="-5.8364740">
        <ele>609.8</ele>
        <time>2018-06-17T12:50:48Z</time>
      </trkpt>
      <trkpt lat="43.0280520" lon="-5.8363900">
        <ele>609.6</ele>
        <time>2018-06-17T12:50:49Z</time>
      </trkpt>
      <trkpt lat="43.0282200" lon="-5.8363070">
        <ele>609.0</ele>
        <time>2018-06-17T12:50:51Z</time>
      </trkpt>
      <trkpt lat="43.0284800" lon="-5.8363330">
        <ele>607.6</ele>
        <time>2018-06-17T12:50:54Z</time>
      </trkpt>
      <trkpt lat="43.0286550" lon="-5.8363240">
        <ele>607.4</ele>
        <time>2018-06-17T12:50:56Z</time>
      </trkpt>
      <trkpt lat="43.0289230" lon="-5.8362020">
        <ele>606.4</ele>
        <time>2018-06-17T12:50:59Z</time>
      </trkpt>
      <trkpt lat="43.0290910" lon="-5.8360940">
        <ele>605.8</ele>
        <time>2018-06-17T12:51:01Z</time>
      </trkpt>
      <trkpt lat="43.0292410" lon="-5.8359420">
        <ele>605.4</ele>
        <time>2018-06-17T12:51:03Z</time>
      </trkpt>
      <trkpt lat="43.0295430" lon="-5.8356590">
        <ele>604.4</ele>
        <time>2018-06-17T12:51:07Z</time>
      </trkpt>
      <trkpt lat="43.0296050" lon="-5.8355770">
        <ele>604.2</ele>
        <time>2018-06-17T12:51:08Z</time>
      </trkpt>
      <trkpt lat="43.0296330" lon="-5.8348670">
        <ele>603.8</ele>
        <time>2018-06-17T12:51:15Z</time>
      </trkpt>
      <trkpt lat="43.0297480" lon="-5.8345270">
        <ele>603.6</ele>
        <time>2018-06-17T12:51:20Z</time>
      </trkpt>
      <trkpt lat="43.0298210" lon="-5.8344140">
        <ele>603.6</ele>
        <time>2018-06-17T12:51:22Z</time>
      </trkpt>
      <trkpt lat="43.0299160" lon="-5.8342480">
        <ele>603.8</ele>
        <time>2018-06-17T12:51:25Z</time>
      </trkpt>
      <trkpt lat="43.0300010" lon="-5.8340420">
        <ele>604.2</ele>
        <time>2018-06-17T12:51:28Z</time>
      </trkpt>
      <trkpt lat="43.0301280" lon="-5.8336700">
        <ele>603.2</ele>
        <time>2018-06-17T12:51:33Z</time>
      </trkpt>
      <trkpt lat="43.0301630" lon="-5.8336160">
        <ele>602.8</ele>
        <time>2018-06-17T12:51:34Z</time>
      </trkpt>
      <trkpt lat="43.0303560" lon="-5.8334890">
        <ele>602.2</ele>
        <time>2018-06-17T12:51:37Z</time>
      </trkpt>
      <trkpt lat="43.0304870" lon="-5.8334580">
        <ele>602.0</ele>
        <time>2018-06-17T12:51:40Z</time>
      </trkpt>
      <trkpt lat="43.0305110" lon="-5.8334510">
        <ele>601.8</ele>
        <time>2018-06-17T12:51:41Z</time>
      </trkpt>
      <trkpt lat="43.0305380" lon="-5.8334560">
        <ele>601.6</ele>
        <time>2018-06-17T12:51:44Z</time>
      </trkpt>
      <trkpt lat="43.0305440" lon="-5.8334450">
        <ele>601.4</ele>
        <time>2018-06-17T12:51:46Z</time>
      </trkpt>
      <trkpt lat="43.0306070" lon="-5.8333330">
        <ele>600.0</ele>
        <time>2018-06-17T12:56:50Z</time>
      </trkpt>
      <trkpt lat="43.0306300" lon="-5.8333190">
        <ele>599.8</ele>
        <time>2018-06-17T12:56:51Z</time>
      </trkpt>
      <trkpt lat="43.0307570" lon="-5.8332950">
        <ele>599.0</ele>
        <time>2018-06-17T12:56:54Z</time>
      </trkpt>
      <trkpt lat="43.0309430" lon="-5.8332610">
        <ele>598.0</ele>
        <time>2018-06-17T12:56:57Z</time>
      </trkpt>
      <trkpt lat="43.0313170" lon="-5.8332550">
        <ele>596.8</ele>
        <time>2018-06-17T12:57:02Z</time>
      </trkpt>
      <trkpt lat="43.0314810" lon="-5.8332570">
        <ele>595.2</ele>
        <time>2018-06-17T12:57:04Z</time>
      </trkpt>
      <trkpt lat="43.0316580" lon="-5.8332540">
        <ele>593.8</ele>
        <time>2018-06-17T12:57:06Z</time>
      </trkpt>
      <trkpt lat="43.0318780" lon="-5.8332290">
        <ele>592.6</ele>
        <time>2018-06-17T12:57:09Z</time>
      </trkpt>
      <trkpt lat="43.0320400" lon="-5.8331380">
        <ele>591.6</ele>
        <time>2018-06-17T12:57:12Z</time>
      </trkpt>
      <trkpt lat="43.0320830" lon="-5.8331050">
        <ele>591.4</ele>
        <time>2018-06-17T12:57:13Z</time>
      </trkpt>
      <trkpt lat="43.0323030" lon="-5.8329270">
        <ele>590.6</ele>
        <time>2018-06-17T12:57:18Z</time>
      </trkpt>
      <trkpt lat="43.0324590" lon="-5.8328210">
        <ele>590.2</ele>
        <time>2018-06-17T12:57:21Z</time>
      </trkpt>
      <trkpt lat="43.0327190" lon="-5.8327550">
        <ele>589.6</ele>
        <time>2018-06-17T12:57:24Z</time>
      </trkpt>
      <trkpt lat="43.0330640" lon="-5.8327380">
        <ele>588.4</ele>
        <time>2018-06-17T12:57:29Z</time>
      </trkpt>
      <trkpt lat="43.0336490" lon="-5.8327160">
        <ele>588.2</ele>
        <time>2018-06-17T12:57:38Z</time>
      </trkpt>
      <trkpt lat="43.0337840" lon="-5.8326320">
        <ele>588.4</ele>
        <time>2018-06-17T12:57:39Z</time>
      </trkpt>
      <trkpt lat="43.0343050" lon="-5.8323140">
        <ele>588.6</ele>
        <time>2018-06-17T12:57:44Z</time>
      </trkpt>
      <trkpt lat="43.0344090" lon="-5.8323020">
        <ele>589.0</ele>
        <time>2018-06-17T12:57:46Z</time>
      </trkpt>
      <trkpt lat="43.0349410" lon="-5.8324430">
        <ele>588.4</ele>
        <time>2018-06-17T12:57:52Z</time>
      </trkpt>
      <trkpt lat="43.0354180" lon="-5.8324240">
        <ele>587.8</ele>
        <time>2018-06-17T12:57:56Z</time>
      </trkpt>
      <trkpt lat="43.0355960" lon="-5.8324230">
        <ele>587.4</ele>
        <time>2018-06-17T12:57:58Z</time>
      </trkpt>
      <trkpt lat="43.0358990" lon="-5.8321200">
        <ele>587.2</ele>
        <time>2018-06-17T12:58:04Z</time>
      </trkpt>
      <trkpt lat="43.0359850" lon="-5.8318740">
        <ele>588.0</ele>
        <time>2018-06-17T12:58:07Z</time>
      </trkpt>
      <trkpt lat="43.0360660" lon="-5.8314940">
        <ele>589.0</ele>
        <time>2018-06-17T12:58:12Z</time>
      </trkpt>
      <trkpt lat="43.0361300" lon="-5.8313260">
        <ele>589.8</ele>
        <time>2018-06-17T12:58:15Z</time>
      </trkpt>
      <trkpt lat="43.0363400" lon="-5.8311150">
        <ele>590.4</ele>
        <time>2018-06-17T12:58:17Z</time>
      </trkpt>
      <trkpt lat="43.0365650" lon="-5.8309740">
        <ele>591.8</ele>
        <time>2018-06-17T12:58:21Z</time>
      </trkpt>
      <trkpt lat="43.0366180" lon="-5.8309580">
        <ele>592.2</ele>
        <time>2018-06-17T12:58:22Z</time>
      </trkpt>
      <trkpt lat="43.0367020" lon="-5.8309390">
        <ele>592.8</ele>
        <time>2018-06-17T12:58:24Z</time>
      </trkpt>
      <trkpt lat="43.0368980" lon="-5.8309460">
        <ele>594.0</ele>
        <time>2018-06-17T12:58:29Z</time>
      </trkpt>
      <trkpt lat="43.0371050" lon="-5.8310520">
        <ele>595.2</ele>
        <time>2018-06-17T12:58:34Z</time>
      </trkpt>
      <trkpt lat="43.0371450" lon="-5.8310730">
        <ele>595.2</ele>
        <time>2018-06-17T12:58:35Z</time>
      </trkpt>
      <trkpt lat="43.0373400" lon="-5.8311440">
        <ele>596.6</ele>
        <time>2018-06-17T12:58:40Z</time>
      </trkpt>
      <trkpt lat="43.0374910" lon="-5.8311350">
        <ele>597.6</ele>
        <time>2018-06-17T12:58:44Z</time>
      </trkpt>
      <trkpt lat="43.0376700" lon="-5.8310480">
        <ele>598.6</ele>
        <time>2018-06-17T12:58:49Z</time>
      </trkpt>
      <trkpt lat="43.0377850" lon="-5.8309510">
        <ele>600.0</ele>
        <time>2018-06-17T12:58:53Z</time>
      </trkpt>
      <trkpt lat="43.0379720" lon="-5.8308400">
        <ele>601.2</ele>
        <time>2018-06-17T12:58:59Z</time>
      </trkpt>
      <trkpt lat="43.0381660" lon="-5.8307790">
        <ele>602.2</ele>
        <time>2018-06-17T12:59:05Z</time>
      </trkpt>
      <trkpt lat="43.0386780" lon="-5.8308480">
        <ele>603.2</ele>
        <time>2018-06-17T12:59:17Z</time>
      </trkpt>
      <trkpt lat="43.0388660" lon="-5.8308470">
        <ele>603.4</ele>
        <time>2018-06-17T12:59:21Z</time>
      </trkpt>
      <trkpt lat="43.0393240" lon="-5.8308900">
        <ele>602.0</ele>
        <time>2018-06-17T12:59:29Z</time>
      </trkpt>
      <trkpt lat="43.0397730" lon="-5.8307800">
        <ele>601.0</ele>
        <time>2018-06-17T12:59:36Z</time>
      </trkpt>
      <trkpt lat="43.0398430" lon="-5.8307630">
        <ele>601.0</ele>
        <time>2018-06-17T12:59:37Z</time>
      </trkpt>
      <trkpt lat="43.0401020" lon="-5.8306980">
        <ele>600.0</ele>
        <time>2018-06-17T12:59:41Z</time>
      </trkpt>
      <trkpt lat="43.0405650" lon="-5.8305830">
        <ele>599.4</ele>
        <time>2018-06-17T12:59:48Z</time>
      </trkpt>
      <trkpt lat="43.0407390" lon="-5.8303800">
        <ele>599.0</ele>
        <time>2018-06-17T12:59:51Z</time>
      </trkpt>
      <trkpt lat="43.0408000" lon="-5.8303100">
        <ele>598.8</ele>
        <time>2018-06-17T12:59:52Z</time>
      </trkpt>
      <trkpt lat="43.0409430" lon="-5.8302280">
        <ele>598.6</ele>
        <time>2018-06-17T12:59:54Z</time>
      </trkpt>
      <trkpt lat="43.0412630" lon="-5.8303110">
        <ele>597.8</ele>
        <time>2018-06-17T12:59:58Z</time>
      </trkpt>
      <trkpt lat="43.0415220" lon="-5.8303530">
        <ele>596.6</ele>
        <time>2018-06-17T13:00:01Z</time>
      </trkpt>
      <trkpt lat="43.0416830" lon="-5.8303630">
        <ele>595.2</ele>
        <time>2018-06-17T13:00:03Z</time>
      </trkpt>
      <trkpt lat="43.0418260" lon="-5.8302840">
        <ele>594.2</ele>
        <time>2018-06-17T13:00:05Z</time>
      </trkpt>
      <trkpt lat="43.0419480" lon="-5.8301720">
        <ele>592.6</ele>
        <time>2018-06-17T13:00:07Z</time>
      </trkpt>
      <trkpt lat="43.0421070" lon="-5.8300630">
        <ele>591.0</ele>
        <time>2018-06-17T13:00:09Z</time>
      </trkpt>
      <trkpt lat="43.0423030" lon="-5.8299860">
        <ele>590.2</ele>
        <time>2018-06-17T13:00:11Z</time>
      </trkpt>
      <trkpt lat="43.0424250" lon="-5.8299480">
        <ele>589.6</ele>
        <time>2018-06-17T13:00:12Z</time>
      </trkpt>
      <trkpt lat="43.0426850" lon="-5.8299140">
        <ele>588.2</ele>
        <time>2018-06-17T13:00:14Z</time>
      </trkpt>
      <trkpt lat="43.0429410" lon="-5.8299200">
        <ele>586.8</ele>
        <time>2018-06-17T13:00:16Z</time>
      </trkpt>
      <trkpt lat="43.0431800" lon="-5.8298930">
        <ele>584.8</ele>
        <time>2018-06-17T13:00:18Z</time>
      </trkpt>
      <trkpt lat="43.0433440" lon="-5.8297620">
        <ele>583.0</ele>
        <time>2018-06-17T13:00:20Z</time>
      </trkpt>
      <trkpt lat="43.0435140" lon="-5.8295630">
        <ele>581.6</ele>
        <time>2018-06-17T13:00:22Z</time>
      </trkpt>
      <trkpt lat="43.0436090" lon="-5.8294710">
        <ele>580.4</ele>
        <time>2018-06-17T13:00:23Z</time>
      </trkpt>
      <trkpt lat="43.0438550" lon="-5.8293570">
        <ele>579.0</ele>
        <time>2018-06-17T13:00:25Z</time>
      </trkpt>
      <trkpt lat="43.0441080" lon="-5.8293030">
        <ele>577.2</ele>
        <time>2018-06-17T13:00:27Z</time>
      </trkpt>
      <trkpt lat="43.0442460" lon="-5.8292500">
        <ele>576.4</ele>
        <time>2018-06-17T13:00:28Z</time>
      </trkpt>
      <trkpt lat="43.0443590" lon="-5.8291850">
        <ele>575.4</ele>
        <time>2018-06-17T13:00:29Z</time>
      </trkpt>
      <trkpt lat="43.0444250" lon="-5.8291000">
        <ele>574.2</ele>
        <time>2018-06-17T13:00:30Z</time>
      </trkpt>
      <trkpt lat="43.0445060" lon="-5.8289940">
        <ele>573.2</ele>
        <time>2018-06-17T13:00:31Z</time>
      </trkpt>
      <trkpt lat="43.0445840" lon="-5.8288910">
        <ele>572.4</ele>
        <time>2018-06-17T13:00:32Z</time>
      </trkpt>
      <trkpt lat="43.0446670" lon="-5.8287970">
        <ele>572.0</ele>
        <time>2018-06-17T13:00:33Z</time>
      </trkpt>
      <trkpt lat="43.0450160" lon="-5.8286970">
        <ele>570.8</ele>
        <time>2018-06-17T13:00:36Z</time>
      </trkpt>
      <trkpt lat="43.0451420" lon="-5.8287000">
        <ele>570.2</ele>
        <time>2018-06-17T13:00:37Z</time>
      </trkpt>
      <trkpt lat="43.0452630" lon="-5.8287050">
        <ele>569.4</ele>
        <time>2018-06-17T13:00:38Z</time>
      </trkpt>
      <trkpt lat="43.0455010" lon="-5.8287110">
        <ele>568.2</ele>
        <time>2018-06-17T13:00:40Z</time>
      </trkpt>
      <trkpt lat="43.0456240" lon="-5.8287110">
        <ele>567.0</ele>
        <time>2018-06-17T13:00:41Z</time>
      </trkpt>
      <trkpt lat="43.0458520" lon="-5.8286930">
        <ele>565.8</ele>
        <time>2018-06-17T13:00:43Z</time>
      </trkpt>
      <trkpt lat="43.0460630" lon="-5.8286290">
        <ele>563.8</ele>
        <time>2018-06-17T13:00:45Z</time>
      </trkpt>
      <trkpt lat="43.0462520" lon="-5.8284850">
        <ele>562.4</ele>
        <time>2018-06-17T13:00:47Z</time>
      </trkpt>
      <trkpt lat="43.0464060" lon="-5.8283390">
        <ele>561.2</ele>
        <time>2018-06-17T13:00:49Z</time>
      </trkpt>
      <trkpt lat="43.0465880" lon="-5.8283390">
        <ele>560.0</ele>
        <time>2018-06-17T13:00:51Z</time>
      </trkpt>
      <trkpt lat="43.0467600" lon="-5.8284920">
        <ele>558.6</ele>
        <time>2018-06-17T13:00:53Z</time>
      </trkpt>
      <trkpt lat="43.0468460" lon="-5.8285870">
        <ele>557.2</ele>
        <time>2018-06-17T13:00:54Z</time>
      </trkpt>
      <trkpt lat="43.0470030" lon="-5.8287130">
        <ele>555.8</ele>
        <time>2018-06-17T13:00:56Z</time>
      </trkpt>
      <trkpt lat="43.0471990" lon="-5.8287030">
        <ele>554.0</ele>
        <time>2018-06-17T13:00:58Z</time>
      </trkpt>
      <trkpt lat="43.0472910" lon="-5.8286720">
        <ele>552.4</ele>
        <time>2018-06-17T13:00:59Z</time>
      </trkpt>
      <trkpt lat="43.0475360" lon="-5.8285780">
        <ele>550.8</ele>
        <time>2018-06-17T13:01:01Z</time>
      </trkpt>
      <trkpt lat="43.0476880" lon="-5.8285430">
        <ele>550.0</ele>
        <time>2018-06-17T13:01:02Z</time>
      </trkpt>
      <trkpt lat="43.0478360" lon="-5.8285420">
        <ele>549.4</ele>
        <time>2018-06-17T13:01:03Z</time>
      </trkpt>
      <trkpt lat="43.0480920" lon="-5.8286210">
        <ele>548.0</ele>
        <time>2018-06-17T13:01:05Z</time>
      </trkpt>
      <trkpt lat="43.0482240" lon="-5.8286710">
        <ele>547.4</ele>
        <time>2018-06-17T13:01:06Z</time>
      </trkpt>
      <trkpt lat="43.0483500" lon="-5.8287200">
        <ele>546.2</ele>
        <time>2018-06-17T13:01:07Z</time>
      </trkpt>
      <trkpt lat="43.0486020" lon="-5.8288050">
        <ele>544.6</ele>
        <time>2018-06-17T13:01:09Z</time>
      </trkpt>
      <trkpt lat="43.0488480" lon="-5.8288560">
        <ele>542.8</ele>
        <time>2018-06-17T13:01:11Z</time>
      </trkpt>
      <trkpt lat="43.0490660" lon="-5.8287670">
        <ele>541.6</ele>
        <time>2018-06-17T13:01:13Z</time>
      </trkpt>
      <trkpt lat="43.0492140" lon="-5.8285910">
        <ele>540.6</ele>
        <time>2018-06-17T13:01:15Z</time>
      </trkpt>
      <trkpt lat="43.0493660" lon="-5.8281990">
        <ele>539.2</ele>
        <time>2018-06-17T13:01:18Z</time>
      </trkpt>
      <trkpt lat="43.0495360" lon="-5.8278490">
        <ele>538.0</ele>
        <time>2018-06-17T13:01:21Z</time>
      </trkpt>
      <trkpt lat="43.0497410" lon="-5.8275540">
        <ele>537.4</ele>
        <time>2018-06-17T13:01:25Z</time>
      </trkpt>
      <trkpt lat="43.0499730" lon="-5.8275200">
        <ele>536.8</ele>
        <time>2018-06-17T13:01:28Z</time>
      </trkpt>
      <trkpt lat="43.0501640" lon="-5.8275530">
        <ele>536.0</ele>
        <time>2018-06-17T13:01:30Z</time>
      </trkpt>
      <trkpt lat="43.0502760" lon="-5.8275690">
        <ele>535.4</ele>
        <time>2018-06-17T13:01:31Z</time>
      </trkpt>
      <trkpt lat="43.0508060" lon="-5.8276740">
        <ele>534.4</ele>
        <time>2018-06-17T13:01:35Z</time>
      </trkpt>
      <trkpt lat="43.0513120" lon="-5.8278990">
        <ele>533.0</ele>
        <time>2018-06-17T13:01:39Z</time>
      </trkpt>
      <trkpt lat="43.0515320" lon="-5.8280290">
        <ele>531.8</ele>
        <time>2018-06-17T13:01:41Z</time>
      </trkpt>
      <trkpt lat="43.0520940" lon="-5.8284480">
        <ele>531.4</ele>
        <time>2018-06-17T13:01:47Z</time>
      </trkpt>
      <trkpt lat="43.0522740" lon="-5.8285410">
        <ele>531.2</ele>
        <time>2018-06-17T13:01:49Z</time>
      </trkpt>
      <trkpt lat="43.0525100" lon="-5.8284930">
        <ele>531.2</ele>
        <time>2018-06-17T13:01:52Z</time>
      </trkpt>
      <trkpt lat="43.0525790" lon="-5.8284370">
        <ele>531.0</ele>
        <time>2018-06-17T13:01:53Z</time>
      </trkpt>
      <trkpt lat="43.0527070" lon="-5.8282890">
        <ele>530.6</ele>
        <time>2018-06-17T13:01:55Z</time>
      </trkpt>
      <trkpt lat="43.0528890" lon="-5.8281120">
        <ele>530.6</ele>
        <time>2018-06-17T13:01:58Z</time>
      </trkpt>
      <trkpt lat="43.0530160" lon="-5.8279940">
        <ele>530.8</ele>
        <time>2018-06-17T13:02:01Z</time>
      </trkpt>
      <trkpt lat="43.0530750" lon="-5.8279630">
        <ele>531.0</ele>
        <time>2018-06-17T13:02:03Z</time>
      </trkpt>
      <trkpt lat="43.0531780" lon="-5.8279720">
        <ele>530.8</ele>
        <time>2018-06-17T13:02:05Z</time>
      </trkpt>
      <trkpt lat="43.0534510" lon="-5.8279910">
        <ele>530.4</ele>
        <time>2018-06-17T13:02:08Z</time>
      </trkpt>
      <trkpt lat="43.0537240" lon="-5.8280880">
        <ele>529.4</ele>
        <time>2018-06-17T13:02:11Z</time>
      </trkpt>
      <trkpt lat="43.0542980" lon="-5.8281240">
        <ele>528.2</ele>
        <time>2018-06-17T13:02:15Z</time>
      </trkpt>
      <trkpt lat="43.0546070" lon="-5.8282300">
        <ele>527.0</ele>
        <time>2018-06-17T13:02:18Z</time>
      </trkpt>
      <trkpt lat="43.0548950" lon="-5.8283450">
        <ele>525.6</ele>
        <time>2018-06-17T13:02:21Z</time>
      </trkpt>
      <trkpt lat="43.0551960" lon="-5.8284320">
        <ele>524.8</ele>
        <time>2018-06-17T13:02:24Z</time>
      </trkpt>
      <trkpt lat="43.0552890" lon="-5.8284570">
        <ele>524.4</ele>
        <time>2018-06-17T13:02:25Z</time>
      </trkpt>
      <trkpt lat="43.0553740" lon="-5.8284650">
        <ele>524.0</ele>
        <time>2018-06-17T13:02:26Z</time>
      </trkpt>
      <trkpt lat="43.0555330" lon="-5.8284580">
        <ele>523.0</ele>
        <time>2018-06-17T13:02:28Z</time>
      </trkpt>
      <trkpt lat="43.0557400" lon="-5.8284520">
        <ele>522.2</ele>
        <time>2018-06-17T13:02:31Z</time>
      </trkpt>
      <trkpt lat="43.0560110" lon="-5.8285010">
        <ele>521.4</ele>
        <time>2018-06-17T13:02:34Z</time>
      </trkpt>
      <trkpt lat="43.0560960" lon="-5.8285610">
        <ele>521.0</ele>
        <time>2018-06-17T13:02:35Z</time>
      </trkpt>
      <trkpt lat="43.0562960" lon="-5.8286780">
        <ele>520.0</ele>
        <time>2018-06-17T13:02:37Z</time>
      </trkpt>
      <trkpt lat="43.0564000" lon="-5.8287120">
        <ele>519.4</ele>
        <time>2018-06-17T13:02:38Z</time>
      </trkpt>
      <trkpt lat="43.0565010" lon="-5.8287270">
        <ele>519.0</ele>
        <time>2018-06-17T13:02:39Z</time>
      </trkpt>
      <trkpt lat="43.0566800" lon="-5.8287380">
        <ele>518.4</ele>
        <time>2018-06-17T13:02:41Z</time>
      </trkpt>
      <trkpt lat="43.0568790" lon="-5.8287400">
        <ele>518.2</ele>
        <time>2018-06-17T13:02:43Z</time>
      </trkpt>
      <trkpt lat="43.0573380" lon="-5.8287300">
        <ele>517.2</ele>
        <time>2018-06-17T13:02:47Z</time>
      </trkpt>
      <trkpt lat="43.0576790" lon="-5.8287810">
        <ele>516.4</ele>
        <time>2018-06-17T13:02:50Z</time>
      </trkpt>
      <trkpt lat="43.0577830" lon="-5.8288430">
        <ele>516.0</ele>
        <time>2018-06-17T13:02:51Z</time>
      </trkpt>
      <trkpt lat="43.0580800" lon="-5.8290080">
        <ele>514.8</ele>
        <time>2018-06-17T13:02:54Z</time>
      </trkpt>
      <trkpt lat="43.0585080" lon="-5.8291350">
        <ele>513.8</ele>
        <time>2018-06-17T13:02:58Z</time>
      </trkpt>
      <trkpt lat="43.0588150" lon="-5.8292260">
        <ele>512.8</ele>
        <time>2018-06-17T13:03:01Z</time>
      </trkpt>
      <trkpt lat="43.0590220" lon="-5.8292230">
        <ele>511.6</ele>
        <time>2018-06-17T13:03:03Z</time>
      </trkpt>
      <trkpt lat="43.0592320" lon="-5.8292040">
        <ele>510.2</ele>
        <time>2018-06-17T13:03:05Z</time>
      </trkpt>
      <trkpt lat="43.0595470" lon="-5.8291760">
        <ele>509.2</ele>
        <time>2018-06-17T13:03:08Z</time>
      </trkpt>
      <trkpt lat="43.0601710" lon="-5.8291010">
        <ele>508.2</ele>
        <time>2018-06-17T13:03:14Z</time>
      </trkpt>
      <trkpt lat="43.0606310" lon="-5.8290120">
        <ele>508.0</ele>
        <time>2018-06-17T13:03:19Z</time>
      </trkpt>
      <trkpt lat="43.0608050" lon="-5.8289760">
        <ele>508.2</ele>
        <time>2018-06-17T13:03:21Z</time>
      </trkpt>
      <trkpt lat="43.0610750" lon="-5.8287750">
        <ele>508.2</ele>
        <time>2018-06-17T13:03:25Z</time>
      </trkpt>
      <trkpt lat="43.0612790" lon="-5.8286390">
        <ele>507.6</ele>
        <time>2018-06-17T13:03:28Z</time>
      </trkpt>
      <trkpt lat="43.0613290" lon="-5.8285840">
        <ele>507.8</ele>
        <time>2018-06-17T13:03:29Z</time>
      </trkpt>
      <trkpt lat="43.0614370" lon="-5.8283180">
        <ele>506.6</ele>
        <time>2018-06-17T13:03:32Z</time>
      </trkpt>
      <trkpt lat="43.0617730" lon="-5.8280570">
        <ele>505.8</ele>
        <time>2018-06-17T13:03:37Z</time>
      </trkpt>
      <trkpt lat="43.0619530" lon="-5.8280660">
        <ele>505.0</ele>
        <time>2018-06-17T13:03:39Z</time>
      </trkpt>
      <trkpt lat="43.0620530" lon="-5.8280730">
        <ele>504.8</ele>
        <time>2018-06-17T13:03:40Z</time>
      </trkpt>
      <trkpt lat="43.0623540" lon="-5.8281060">
        <ele>503.8</ele>
        <time>2018-06-17T13:03:43Z</time>
      </trkpt>
      <trkpt lat="43.0627500" lon="-5.8281890">
        <ele>502.6</ele>
        <time>2018-06-17T13:03:47Z</time>
      </trkpt>
      <trkpt lat="43.0631400" lon="-5.8284380">
        <ele>501.4</ele>
        <time>2018-06-17T13:03:51Z</time>
      </trkpt>
      <trkpt lat="43.0632480" lon="-5.8286490">
        <ele>500.6</ele>
        <time>2018-06-17T13:03:53Z</time>
      </trkpt>
      <trkpt lat="43.0633080" lon="-5.8289890">
        <ele>500.0</ele>
        <time>2018-06-17T13:03:56Z</time>
      </trkpt>
      <trkpt lat="43.0633310" lon="-5.8290940">
        <ele>500.0</ele>
        <time>2018-06-17T13:03:57Z</time>
      </trkpt>
      <trkpt lat="43.0637180" lon="-5.8293480">
        <ele>500.8</ele>
        <time>2018-06-17T13:04:05Z</time>
      </trkpt>
      <trkpt lat="43.0637730" lon="-5.8292910">
        <ele>501.0</ele>
        <time>2018-06-17T13:04:06Z</time>
      </trkpt>
      <trkpt lat="43.0639550" lon="-5.8291060">
        <ele>501.4</ele>
        <time>2018-06-17T13:04:09Z</time>
      </trkpt>
      <trkpt lat="43.0641600" lon="-5.8289250">
        <ele>501.6</ele>
        <time>2018-06-17T13:04:12Z</time>
      </trkpt>
      <trkpt lat="43.0643860" lon="-5.8287740">
        <ele>501.6</ele>
        <time>2018-06-17T13:04:15Z</time>
      </trkpt>
      <trkpt lat="43.0644600" lon="-5.8287440">
        <ele>501.4</ele>
        <time>2018-06-17T13:04:16Z</time>
      </trkpt>
      <trkpt lat="43.0647760" lon="-5.8287000">
        <ele>500.0</ele>
        <time>2018-06-17T13:04:20Z</time>
      </trkpt>
      <trkpt lat="43.0648660" lon="-5.8286920">
        <ele>499.4</ele>
        <time>2018-06-17T13:04:21Z</time>
      </trkpt>
      <trkpt lat="43.0649560" lon="-5.8286920">
        <ele>499.2</ele>
        <time>2018-06-17T13:04:22Z</time>
      </trkpt>
      <trkpt lat="43.0651480" lon="-5.8287300">
        <ele>497.8</ele>
        <time>2018-06-17T13:04:24Z</time>
      </trkpt>
      <trkpt lat="43.0653470" lon="-5.8287930">
        <ele>496.2</ele>
        <time>2018-06-17T13:04:26Z</time>
      </trkpt>
      <trkpt lat="43.0655500" lon="-5.8288980">
        <ele>495.0</ele>
        <time>2018-06-17T13:04:28Z</time>
      </trkpt>
      <trkpt lat="43.0659440" lon="-5.8290590">
        <ele>494.0</ele>
        <time>2018-06-17T13:04:32Z</time>
      </trkpt>
      <trkpt lat="43.0660390" lon="-5.8291180">
        <ele>494.0</ele>
        <time>2018-06-17T13:04:33Z</time>
      </trkpt>
      <trkpt lat="43.0660990" lon="-5.8293110">
        <ele>466.2</ele>
        <time>2018-06-17T13:04:36Z</time>
      </trkpt>
      <trkpt lat="43.0664700" lon="-5.8293720">
        <ele>492.4</ele>
        <time>2018-06-17T13:04:40Z</time>
      </trkpt>
      <trkpt lat="43.0667380" lon="-5.8291940">
        <ele>491.4</ele>
        <time>2018-06-17T13:04:43Z</time>
      </trkpt>
      <trkpt lat="43.0668480" lon="-5.8291270">
        <ele>491.2</ele>
        <time>2018-06-17T13:04:44Z</time>
      </trkpt>
      <trkpt lat="43.0672050" lon="-5.8291710">
        <ele>489.8</ele>
        <time>2018-06-17T13:04:47Z</time>
      </trkpt>
      <trkpt lat="43.0674550" lon="-5.8294200">
        <ele>488.8</ele>
        <time>2018-06-17T13:04:50Z</time>
      </trkpt>
      <trkpt lat="43.0675480" lon="-5.8294980">
        <ele>489.0</ele>
        <time>2018-06-17T13:04:51Z</time>
      </trkpt>
      <trkpt lat="43.0676440" lon="-5.8295630">
        <ele>488.8</ele>
        <time>2018-06-17T13:04:52Z</time>
      </trkpt>
      <trkpt lat="43.0680430" lon="-5.8296480">
        <ele>488.6</ele>
        <time>2018-06-17T13:04:56Z</time>
      </trkpt>
      <trkpt lat="43.0684270" lon="-5.8296430">
        <ele>488.2</ele>
        <time>2018-06-17T13:05:00Z</time>
      </trkpt>
      <trkpt lat="43.0687030" lon="-5.8295420">
        <ele>487.8</ele>
        <time>2018-06-17T13:05:03Z</time>
      </trkpt>
      <trkpt lat="43.0692190" lon="-5.8293570">
        <ele>487.0</ele>
        <time>2018-06-17T13:05:09Z</time>
      </trkpt>
      <trkpt lat="43.0693130" lon="-5.8293420">
        <ele>486.8</ele>
        <time>2018-06-17T13:05:10Z</time>
      </trkpt>
      <trkpt lat="43.0696150" lon="-5.8294650">
        <ele>486.0</ele>
        <time>2018-06-17T13:05:14Z</time>
      </trkpt>
      <trkpt lat="43.0697020" lon="-5.8295160">
        <ele>485.8</ele>
        <time>2018-06-17T13:05:15Z</time>
      </trkpt>
      <trkpt lat="43.0701360" lon="-5.8298420">
        <ele>484.8</ele>
        <time>2018-06-17T13:05:20Z</time>
      </trkpt>
      <trkpt lat="43.0702240" lon="-5.8298950">
        <ele>484.6</ele>
        <time>2018-06-17T13:05:21Z</time>
      </trkpt>
      <trkpt lat="43.0706900" lon="-5.8300040">
        <ele>483.8</ele>
        <time>2018-06-17T13:05:26Z</time>
      </trkpt>
      <trkpt lat="43.0709540" lon="-5.8300270">
        <ele>483.0</ele>
        <time>2018-06-17T13:05:29Z</time>
      </trkpt>
      <trkpt lat="43.0712430" lon="-5.8300950">
        <ele>481.8</ele>
        <time>2018-06-17T13:05:32Z</time>
      </trkpt>
      <trkpt lat="43.0715550" lon="-5.8301680">
        <ele>480.8</ele>
        <time>2018-06-17T13:05:35Z</time>
      </trkpt>
      <trkpt lat="43.0716610" lon="-5.8301980">
        <ele>480.4</ele>
        <time>2018-06-17T13:05:36Z</time>
      </trkpt>
      <trkpt lat="43.0719590" lon="-5.8303220">
        <ele>479.4</ele>
        <time>2018-06-17T13:05:39Z</time>
      </trkpt>
      <trkpt lat="43.0722470" lon="-5.8305160">
        <ele>478.2</ele>
        <time>2018-06-17T13:05:42Z</time>
      </trkpt>
      <trkpt lat="43.0724470" lon="-5.8305960">
        <ele>477.8</ele>
        <time>2018-06-17T13:05:44Z</time>
      </trkpt>
      <trkpt lat="43.0726430" lon="-5.8306540">
        <ele>477.0</ele>
        <time>2018-06-17T13:05:46Z</time>
      </trkpt>
      <trkpt lat="43.0729340" lon="-5.8306910">
        <ele>476.0</ele>
        <time>2018-06-17T13:05:49Z</time>
      </trkpt>
      <trkpt lat="43.0732980" lon="-5.8306080">
        <ele>475.6</ele>
        <time>2018-06-17T13:05:53Z</time>
      </trkpt>
      <trkpt lat="43.0734790" lon="-5.8305490">
        <ele>475.2</ele>
        <time>2018-06-17T13:05:55Z</time>
      </trkpt>
      <trkpt lat="43.0740750" lon="-5.8303930">
        <ele>474.6</ele>
        <time>2018-06-17T13:06:01Z</time>
      </trkpt>
      <trkpt lat="43.0745820" lon="-5.8302790">
        <ele>475.0</ele>
        <time>2018-06-17T13:06:06Z</time>
      </trkpt>
      <trkpt lat="43.0747840" lon="-5.8302820">
        <ele>474.4</ele>
        <time>2018-06-17T13:06:08Z</time>
      </trkpt>
      <trkpt lat="43.0749800" lon="-5.8303680">
        <ele>473.8</ele>
        <time>2018-06-17T13:06:10Z</time>
      </trkpt>
      <trkpt lat="43.0751650" lon="-5.8304970">
        <ele>473.4</ele>
        <time>2018-06-17T13:06:12Z</time>
      </trkpt>
      <trkpt lat="43.0754360" lon="-5.8306570">
        <ele>472.2</ele>
        <time>2018-06-17T13:06:15Z</time>
      </trkpt>
      <trkpt lat="43.0759710" lon="-5.8309100">
        <ele>471.4</ele>
        <time>2018-06-17T13:06:21Z</time>
      </trkpt>
      <trkpt lat="43.0761560" lon="-5.8309620">
        <ele>470.8</ele>
        <time>2018-06-17T13:06:23Z</time>
      </trkpt>
      <trkpt lat="43.0762510" lon="-5.8309950">
        <ele>470.6</ele>
        <time>2018-06-17T13:06:24Z</time>
      </trkpt>
      <trkpt lat="43.0763480" lon="-5.8310270">
        <ele>470.4</ele>
        <time>2018-06-17T13:06:25Z</time>
      </trkpt>
      <trkpt lat="43.0766350" lon="-5.8310750">
        <ele>469.8</ele>
        <time>2018-06-17T13:06:28Z</time>
      </trkpt>
      <trkpt lat="43.0767340" lon="-5.8310740">
        <ele>469.4</ele>
        <time>2018-06-17T13:06:29Z</time>
      </trkpt>
      <trkpt lat="43.0770120" lon="-5.8310700">
        <ele>468.6</ele>
        <time>2018-06-17T13:06:32Z</time>
      </trkpt>
      <trkpt lat="43.0771670" lon="-5.8310770">
        <ele>468.4</ele>
        <time>2018-06-17T13:06:34Z</time>
      </trkpt>
      <trkpt lat="43.0773270" lon="-5.8307700">
        <ele>467.8</ele>
        <time>2018-06-17T13:06:39Z</time>
      </trkpt>
      <trkpt lat="43.0773630" lon="-5.8306700">
        <ele>467.2</ele>
        <time>2018-06-17T13:06:40Z</time>
      </trkpt>
      <trkpt lat="43.0774200" lon="-5.8305840">
        <ele>467.0</ele>
        <time>2018-06-17T13:06:41Z</time>
      </trkpt>
      <trkpt lat="43.0776190" lon="-5.8303720">
        <ele>466.8</ele>
        <time>2018-06-17T13:06:44Z</time>
      </trkpt>
      <trkpt lat="43.0777970" lon="-5.8302480">
        <ele>466.4</ele>
        <time>2018-06-17T13:06:46Z</time>
      </trkpt>
      <trkpt lat="43.0780890" lon="-5.8301090">
        <ele>465.2</ele>
        <time>2018-06-17T13:06:49Z</time>
      </trkpt>
      <trkpt lat="43.0781830" lon="-5.8300780">
        <ele>465.0</ele>
        <time>2018-06-17T13:06:50Z</time>
      </trkpt>
      <trkpt lat="43.0786870" lon="-5.8299490">
        <ele>465.0</ele>
        <time>2018-06-17T13:06:55Z</time>
      </trkpt>
      <trkpt lat="43.0792030" lon="-5.8300050">
        <ele>464.8</ele>
        <time>2018-06-17T13:07:01Z</time>
      </trkpt>
      <trkpt lat="43.0795570" lon="-5.8301030">
        <ele>466.6</ele>
        <time>2018-06-17T13:07:07Z</time>
      </trkpt>
      <trkpt lat="43.0797200" lon="-5.8301260">
        <ele>468.0</ele>
        <time>2018-06-17T13:07:10Z</time>
      </trkpt>
      <trkpt lat="43.0797810" lon="-5.8301150">
        <ele>468.2</ele>
        <time>2018-06-17T13:07:11Z</time>
      </trkpt>
      <trkpt lat="43.0798950" lon="-5.8300590">
        <ele>468.6</ele>
        <time>2018-06-17T13:07:13Z</time>
      </trkpt>
      <trkpt lat="43.0799520" lon="-5.8300270">
        <ele>469.0</ele>
        <time>2018-06-17T13:07:14Z</time>
      </trkpt>
      <trkpt lat="43.0800690" lon="-5.8299650">
        <ele>469.2</ele>
        <time>2018-06-17T13:07:16Z</time>
      </trkpt>
      <trkpt lat="43.0802060" lon="-5.8298770">
        <ele>469.2</ele>
        <time>2018-06-17T13:07:18Z</time>
      </trkpt>
      <trkpt lat="43.0803340" lon="-5.8298040">
        <ele>469.2</ele>
        <time>2018-06-17T13:07:20Z</time>
      </trkpt>
      <trkpt lat="43.0804580" lon="-5.8297650">
        <ele>469.2</ele>
        <time>2018-06-17T13:07:22Z</time>
      </trkpt>
      <trkpt lat="43.0807230" lon="-5.8296890">
        <ele>467.8</ele>
        <time>2018-06-17T13:07:26Z</time>
      </trkpt>
      <trkpt lat="43.0809450" lon="-5.8296230">
        <ele>466.8</ele>
        <time>2018-06-17T13:07:29Z</time>
      </trkpt>
      <trkpt lat="43.0814140" lon="-5.8295280">
        <ele>465.6</ele>
        <time>2018-06-17T13:07:34Z</time>
      </trkpt>
      <trkpt lat="43.0819100" lon="-5.8294560">
        <ele>464.6</ele>
        <time>2018-06-17T13:07:39Z</time>
      </trkpt>
      <trkpt lat="43.0820920" lon="-5.8294440">
        <ele>463.8</ele>
        <time>2018-06-17T13:07:41Z</time>
      </trkpt>
      <trkpt lat="43.0821800" lon="-5.8294450">
        <ele>463.2</ele>
        <time>2018-06-17T13:07:42Z</time>
      </trkpt>
      <trkpt lat="43.0822740" lon="-5.8294230">
        <ele>462.2</ele>
        <time>2018-06-17T13:07:43Z</time>
      </trkpt>
      <trkpt lat="43.0824160" lon="-5.8294350">
        <ele>460.8</ele>
        <time>2018-06-17T13:07:45Z</time>
      </trkpt>
      <trkpt lat="43.0827460" lon="-5.8292670">
        <ele>459.8</ele>
        <time>2018-06-17T13:07:49Z</time>
      </trkpt>
      <trkpt lat="43.0830910" lon="-5.8290990">
        <ele>458.6</ele>
        <time>2018-06-17T13:07:53Z</time>
      </trkpt>
      <trkpt lat="43.0833440" lon="-5.8289650">
        <ele>457.4</ele>
        <time>2018-06-17T13:07:56Z</time>
      </trkpt>
      <trkpt lat="43.0836760" lon="-5.8287980">
        <ele>456.8</ele>
        <time>2018-06-17T13:08:00Z</time>
      </trkpt>
      <trkpt lat="43.0839250" lon="-5.8286680">
        <ele>456.4</ele>
        <time>2018-06-17T13:08:03Z</time>
      </trkpt>
      <trkpt lat="43.0841010" lon="-5.8285790">
        <ele>455.2</ele>
        <time>2018-06-17T13:08:05Z</time>
      </trkpt>
      <trkpt lat="43.0844730" lon="-5.8284050">
        <ele>454.2</ele>
        <time>2018-06-17T13:08:09Z</time>
      </trkpt>
      <trkpt lat="43.0849190" lon="-5.8281740">
        <ele>453.2</ele>
        <time>2018-06-17T13:08:14Z</time>
      </trkpt>
      <trkpt lat="43.0853830" lon="-5.8279810">
        <ele>452.2</ele>
        <time>2018-06-17T13:08:19Z</time>
      </trkpt>
      <trkpt lat="43.0856380" lon="-5.8278610">
        <ele>452.2</ele>
        <time>2018-06-17T13:08:22Z</time>
      </trkpt>
      <trkpt lat="43.0862120" lon="-5.8275820">
        <ele>450.8</ele>
        <time>2018-06-17T13:08:29Z</time>
      </trkpt>
      <trkpt lat="43.0866020" lon="-5.8273810">
        <ele>449.6</ele>
        <time>2018-06-17T13:08:34Z</time>
      </trkpt>
      <trkpt lat="43.0869310" lon="-5.8272150">
        <ele>448.8</ele>
        <time>2018-06-17T13:08:38Z</time>
      </trkpt>
      <trkpt lat="43.0870080" lon="-5.8271740">
        <ele>448.6</ele>
        <time>2018-06-17T13:08:39Z</time>
      </trkpt>
      <trkpt lat="43.0875470" lon="-5.8267980">
        <ele>447.4</ele>
        <time>2018-06-17T13:08:46Z</time>
      </trkpt>
      <trkpt lat="43.0876160" lon="-5.8267330">
        <ele>447.4</ele>
        <time>2018-06-17T13:08:47Z</time>
      </trkpt>
      <trkpt lat="43.0880340" lon="-5.8261510">
        <ele>448.4</ele>
        <time>2018-06-17T13:08:55Z</time>
      </trkpt>
      <trkpt lat="43.0881460" lon="-5.8259260">
        <ele>449.6</ele>
        <time>2018-06-17T13:08:58Z</time>
      </trkpt>
      <trkpt lat="43.0882440" lon="-5.8258020">
        <ele>450.0</ele>
        <time>2018-06-17T13:09:00Z</time>
      </trkpt>
      <trkpt lat="43.0884150" lon="-5.8256970">
        <ele>451.0</ele>
        <time>2018-06-17T13:09:03Z</time>
      </trkpt>
      <trkpt lat="43.0884710" lon="-5.8256730">
        <ele>451.4</ele>
        <time>2018-06-17T13:09:04Z</time>
      </trkpt>
      <trkpt lat="43.0885780" lon="-5.8256390">
        <ele>452.0</ele>
        <time>2018-06-17T13:09:06Z</time>
      </trkpt>
      <trkpt lat="43.0886920" lon="-5.8256270">
        <ele>452.6</ele>
        <time>2018-06-17T13:09:08Z</time>
      </trkpt>
      <trkpt lat="43.0890010" lon="-5.8256810">
        <ele>452.6</ele>
        <time>2018-06-17T13:09:13Z</time>
      </trkpt>
      <trkpt lat="43.0892620" lon="-5.8257290">
        <ele>452.6</ele>
        <time>2018-06-17T13:09:17Z</time>
      </trkpt>
      <trkpt lat="43.0898480" lon="-5.8257430">
        <ele>452.2</ele>
        <time>2018-06-17T13:09:26Z</time>
      </trkpt>
      <trkpt lat="43.0903910" lon="-5.8255670">
        <ele>452.0</ele>
        <time>2018-06-17T13:09:35Z</time>
      </trkpt>
      <trkpt lat="43.0909040" lon="-5.8253210">
        <ele>451.0</ele>
        <time>2018-06-17T13:09:43Z</time>
      </trkpt>
      <trkpt lat="43.0909710" lon="-5.8252690">
        <ele>451.0</ele>
        <time>2018-06-17T13:09:44Z</time>
      </trkpt>
      <trkpt lat="43.0913360" lon="-5.8248540">
        <ele>450.0</ele>
        <time>2018-06-17T13:09:50Z</time>
      </trkpt>
      <trkpt lat="43.0915780" lon="-5.8246360">
        <ele>449.6</ele>
        <time>2018-06-17T13:09:54Z</time>
      </trkpt>
      <trkpt lat="43.0916500" lon="-5.8245940">
        <ele>449.4</ele>
        <time>2018-06-17T13:09:55Z</time>
      </trkpt>
      <trkpt lat="43.0921110" lon="-5.8244400">
        <ele>449.0</ele>
        <time>2018-06-17T13:10:01Z</time>
      </trkpt>
      <trkpt lat="43.0925100" lon="-5.8243170">
        <ele>448.8</ele>
        <time>2018-06-17T13:10:06Z</time>
      </trkpt>
      <trkpt lat="43.0928430" lon="-5.8242610">
        <ele>447.8</ele>
        <time>2018-06-17T13:10:10Z</time>
      </trkpt>
      <trkpt lat="43.0929340" lon="-5.8242560">
        <ele>447.4</ele>
        <time>2018-06-17T13:10:11Z</time>
      </trkpt>
      <trkpt lat="43.0931170" lon="-5.8242720">
        <ele>447.0</ele>
        <time>2018-06-17T13:10:13Z</time>
      </trkpt>
      <trkpt lat="43.0934680" lon="-5.8244110">
        <ele>446.8</ele>
        <time>2018-06-17T13:10:17Z</time>
      </trkpt>
      <trkpt lat="43.0938410" lon="-5.8242970">
        <ele>446.2</ele>
        <time>2018-06-17T13:10:21Z</time>
      </trkpt>
      <trkpt lat="43.0939400" lon="-5.8242470">
        <ele>445.8</ele>
        <time>2018-06-17T13:10:22Z</time>
      </trkpt>
      <trkpt lat="43.0941010" lon="-5.8241610">
        <ele>445.2</ele>
        <time>2018-06-17T13:10:24Z</time>
      </trkpt>
      <trkpt lat="43.0946920" lon="-5.8239300">
        <ele>444.2</ele>
        <time>2018-06-17T13:10:30Z</time>
      </trkpt>
      <trkpt lat="43.0947870" lon="-5.8239060">
        <ele>444.2</ele>
        <time>2018-06-17T13:10:31Z</time>
      </trkpt>
      <trkpt lat="43.0951640" lon="-5.8238010">
        <ele>443.0</ele>
        <time>2018-06-17T13:10:35Z</time>
      </trkpt>
      <trkpt lat="43.0954310" lon="-5.8237410">
        <ele>442.8</ele>
        <time>2018-06-17T13:10:38Z</time>
      </trkpt>
      <trkpt lat="43.0960210" lon="-5.8236800">
        <ele>442.8</ele>
        <time>2018-06-17T13:10:45Z</time>
      </trkpt>
      <trkpt lat="43.0965600" lon="-5.8237570">
        <ele>442.4</ele>
        <time>2018-06-17T13:10:52Z</time>
      </trkpt>
      <trkpt lat="43.0966380" lon="-5.8237860">
        <ele>442.2</ele>
        <time>2018-06-17T13:10:53Z</time>
      </trkpt>
      <trkpt lat="43.0968000" lon="-5.8238220">
        <ele>441.8</ele>
        <time>2018-06-17T13:10:55Z</time>
      </trkpt>
      <trkpt lat="43.0973530" lon="-5.8237860">
        <ele>442.2</ele>
        <time>2018-06-17T13:11:04Z</time>
      </trkpt>
      <trkpt lat="43.0976900" lon="-5.8237260">
        <ele>441.4</ele>
        <time>2018-06-17T13:11:09Z</time>
      </trkpt>
      <trkpt lat="43.0980310" lon="-5.8235270">
        <ele>440.2</ele>
        <time>2018-06-17T13:11:13Z</time>
      </trkpt>
      <trkpt lat="43.0982160" lon="-5.8234070">
        <ele>438.8</ele>
        <time>2018-06-17T13:11:15Z</time>
      </trkpt>
      <trkpt lat="43.0984810" lon="-5.8232190">
        <ele>437.6</ele>
        <time>2018-06-17T13:11:18Z</time>
      </trkpt>
      <trkpt lat="43.0987390" lon="-5.8230060">
        <ele>436.4</ele>
        <time>2018-06-17T13:11:21Z</time>
      </trkpt>
      <trkpt lat="43.0988990" lon="-5.8228310">
        <ele>435.2</ele>
        <time>2018-06-17T13:11:23Z</time>
      </trkpt>
      <trkpt lat="43.0990490" lon="-5.8226510">
        <ele>434.4</ele>
        <time>2018-06-17T13:11:25Z</time>
      </trkpt>
      <trkpt lat="43.0991170" lon="-5.8225500">
        <ele>433.6</ele>
        <time>2018-06-17T13:11:26Z</time>
      </trkpt>
      <trkpt lat="43.0991680" lon="-5.8224360">
        <ele>432.8</ele>
        <time>2018-06-17T13:11:27Z</time>
      </trkpt>
      <trkpt lat="43.0992080" lon="-5.8223120">
        <ele>432.0</ele>
        <time>2018-06-17T13:11:28Z</time>
      </trkpt>
      <trkpt lat="43.0992650" lon="-5.8220500">
        <ele>431.0</ele>
        <time>2018-06-17T13:11:30Z</time>
      </trkpt>
      <trkpt lat="43.0993050" lon="-5.8217780">
        <ele>430.2</ele>
        <time>2018-06-17T13:11:32Z</time>
      </trkpt>
      <trkpt lat="43.0993870" lon="-5.8215100">
        <ele>429.6</ele>
        <time>2018-06-17T13:11:34Z</time>
      </trkpt>
      <trkpt lat="43.0995110" lon="-5.8212710">
        <ele>428.2</ele>
        <time>2018-06-17T13:11:36Z</time>
      </trkpt>
      <trkpt lat="43.0997720" lon="-5.8210110">
        <ele>427.0</ele>
        <time>2018-06-17T13:11:39Z</time>
      </trkpt>
      <trkpt lat="43.1000910" lon="-5.8208840">
        <ele>425.8</ele>
        <time>2018-06-17T13:11:42Z</time>
      </trkpt>
      <trkpt lat="43.1002010" lon="-5.8208600">
        <ele>425.4</ele>
        <time>2018-06-17T13:11:43Z</time>
      </trkpt>
      <trkpt lat="43.1005140" lon="-5.8208050">
        <ele>424.6</ele>
        <time>2018-06-17T13:11:46Z</time>
      </trkpt>
      <trkpt lat="43.1009090" lon="-5.8207850">
        <ele>423.4</ele>
        <time>2018-06-17T13:11:50Z</time>
      </trkpt>
      <trkpt lat="43.1011160" lon="-5.8207700">
        <ele>422.8</ele>
        <time>2018-06-17T13:11:52Z</time>
      </trkpt>
      <trkpt lat="43.1013150" lon="-5.8207520">
        <ele>421.8</ele>
        <time>2018-06-17T13:11:54Z</time>
      </trkpt>
      <trkpt lat="43.1014060" lon="-5.8207180">
        <ele>421.4</ele>
        <time>2018-06-17T13:11:55Z</time>
      </trkpt>
      <trkpt lat="43.1017440" lon="-5.8204070">
        <ele>420.0</ele>
        <time>2018-06-17T13:11:59Z</time>
      </trkpt>
      <trkpt lat="43.1019160" lon="-5.8202640">
        <ele>418.8</ele>
        <time>2018-06-17T13:12:01Z</time>
      </trkpt>
      <trkpt lat="43.1020880" lon="-5.8201350">
        <ele>417.0</ele>
        <time>2018-06-17T13:12:03Z</time>
      </trkpt>
      <trkpt lat="43.1023380" lon="-5.8199210">
        <ele>415.8</ele>
        <time>2018-06-17T13:12:06Z</time>
      </trkpt>
      <trkpt lat="43.1025010" lon="-5.8197810">
        <ele>415.6</ele>
        <time>2018-06-17T13:12:08Z</time>
      </trkpt>
      <trkpt lat="43.1026660" lon="-5.8196520">
        <ele>415.4</ele>
        <time>2018-06-17T13:12:10Z</time>
      </trkpt>
      <trkpt lat="43.1032020" lon="-5.8192520">
        <ele>415.2</ele>
        <time>2018-06-17T13:12:17Z</time>
      </trkpt>
      <trkpt lat="43.1032820" lon="-5.8192260">
        <ele>415.4</ele>
        <time>2018-06-17T13:12:18Z</time>
      </trkpt>
      <trkpt lat="43.1035210" lon="-5.8191930">
        <ele>416.4</ele>
        <time>2018-06-17T13:12:21Z</time>
      </trkpt>
      <trkpt lat="43.1037500" lon="-5.8191790">
        <ele>416.6</ele>
        <time>2018-06-17T13:12:24Z</time>
      </trkpt>
      <trkpt lat="43.1040190" lon="-5.8191820">
        <ele>416.4</ele>
        <time>2018-06-17T13:12:27Z</time>
      </trkpt>
      <trkpt lat="43.1043600" lon="-5.8192480">
        <ele>416.8</ele>
        <time>2018-06-17T13:12:31Z</time>
      </trkpt>
      <trkpt lat="43.1046170" lon="-5.8192600">
        <ele>416.6</ele>
        <time>2018-06-17T13:12:34Z</time>
      </trkpt>
      <trkpt lat="43.1051100" lon="-5.8190660">
        <ele>416.2</ele>
        <time>2018-06-17T13:12:41Z</time>
      </trkpt>
      <trkpt lat="43.1055320" lon="-5.8187850">
        <ele>416.0</ele>
        <time>2018-06-17T13:12:50Z</time>
      </trkpt>
      <trkpt lat="43.1056350" lon="-5.8189770">
        <ele>416.8</ele>
        <time>2018-06-17T13:12:55Z</time>
      </trkpt>
      <trkpt lat="43.1056470" lon="-5.8190330">
        <ele>416.8</ele>
        <time>2018-06-17T13:12:56Z</time>
      </trkpt>
      <trkpt lat="43.1059500" lon="-5.8197390">
        <ele>415.4</ele>
        <time>2018-06-17T13:13:05Z</time>
      </trkpt>
      <trkpt lat="43.1060220" lon="-5.8199020">
        <ele>415.2</ele>
        <time>2018-06-17T13:13:07Z</time>
      </trkpt>
      <trkpt lat="43.1060840" lon="-5.8200840">
        <ele>415.0</ele>
        <time>2018-06-17T13:13:09Z</time>
      </trkpt>
      <trkpt lat="43.1061090" lon="-5.8201810">
        <ele>414.8</ele>
        <time>2018-06-17T13:13:10Z</time>
      </trkpt>
      <trkpt lat="43.1061690" lon="-5.8204490">
        <ele>414.2</ele>
        <time>2018-06-17T13:13:13Z</time>
      </trkpt>
      <trkpt lat="43.1064160" lon="-5.8204910">
        <ele>414.4</ele>
        <time>2018-06-17T13:13:18Z</time>
      </trkpt>
      <trkpt lat="43.1067910" lon="-5.8202840">
        <ele>414.8</ele>
        <time>2018-06-17T13:13:25Z</time>
      </trkpt>
      <trkpt lat="43.1069300" lon="-5.8202420">
        <ele>414.4</ele>
        <time>2018-06-17T13:13:27Z</time>
      </trkpt>
      <trkpt lat="43.1071460" lon="-5.8201410">
        <ele>413.0</ele>
        <time>2018-06-17T13:13:30Z</time>
      </trkpt>
      <trkpt lat="43.1072890" lon="-5.8200390">
        <ele>412.2</ele>
        <time>2018-06-17T13:13:32Z</time>
      </trkpt>
      <trkpt lat="43.1074450" lon="-5.8199000">
        <ele>411.2</ele>
        <time>2018-06-17T13:13:34Z</time>
      </trkpt>
      <trkpt lat="43.1076750" lon="-5.8196830">
        <ele>410.0</ele>
        <time>2018-06-17T13:13:37Z</time>
      </trkpt>
      <trkpt lat="43.1080590" lon="-5.8193470">
        <ele>409.0</ele>
        <time>2018-06-17T13:13:42Z</time>
      </trkpt>
      <trkpt lat="43.1085440" lon="-5.8189150">
        <ele>408.0</ele>
        <time>2018-06-17T13:13:49Z</time>
      </trkpt>
      <trkpt lat="43.1089240" lon="-5.8187030">
        <ele>407.6</ele>
        <time>2018-06-17T13:13:54Z</time>
      </trkpt>
      <trkpt lat="43.1090860" lon="-5.8186620">
        <ele>407.4</ele>
        <time>2018-06-17T13:13:56Z</time>
      </trkpt>
      <trkpt lat="43.1092530" lon="-5.8186630">
        <ele>407.0</ele>
        <time>2018-06-17T13:13:58Z</time>
      </trkpt>
      <trkpt lat="43.1097500" lon="-5.8187840">
        <ele>405.8</ele>
        <time>2018-06-17T13:14:04Z</time>
      </trkpt>
      <trkpt lat="43.1102320" lon="-5.8190380">
        <ele>404.8</ele>
        <time>2018-06-17T13:14:10Z</time>
      </trkpt>
      <trkpt lat="43.1102550" lon="-5.8190330">
        <ele>404.6</ele>
        <time>2018-06-17T13:14:11Z</time>
      </trkpt>
      <trkpt lat="43.1105590" lon="-5.8192130">
        <ele>404.2</ele>
        <time>2018-06-17T13:14:15Z</time>
      </trkpt>
      <trkpt lat="43.1107040" lon="-5.8193030">
        <ele>403.8</ele>
        <time>2018-06-17T13:14:17Z</time>
      </trkpt>
      <trkpt lat="43.1112480" lon="-5.8194950">
        <ele>403.6</ele>
        <time>2018-06-17T13:14:24Z</time>
      </trkpt>
      <trkpt lat="43.1115330" lon="-5.8195680">
        <ele>404.2</ele>
        <time>2018-06-17T13:14:28Z</time>
      </trkpt>
      <trkpt lat="43.1117210" lon="-5.8196150">
        <ele>404.8</ele>
        <time>2018-06-17T13:14:31Z</time>
      </trkpt>
      <trkpt lat="43.1117790" lon="-5.8196240">
        <ele>405.2</ele>
        <time>2018-06-17T13:14:32Z</time>
      </trkpt>
      <trkpt lat="43.1119510" lon="-5.8196460">
        <ele>406.4</ele>
        <time>2018-06-17T13:14:35Z</time>
      </trkpt>
      <trkpt lat="43.1120700" lon="-5.8196450">
        <ele>407.0</ele>
        <time>2018-06-17T13:14:37Z</time>
      </trkpt>
      <trkpt lat="43.1122480" lon="-5.8196140">
        <ele>407.6</ele>
        <time>2018-06-17T13:14:40Z</time>
      </trkpt>
      <trkpt lat="43.1123620" lon="-5.8195910">
        <ele>408.0</ele>
        <time>2018-06-17T13:14:42Z</time>
      </trkpt>
      <trkpt lat="43.1124720" lon="-5.8195700">
        <ele>408.6</ele>
        <time>2018-06-17T13:14:44Z</time>
      </trkpt>
      <trkpt lat="43.1125720" lon="-5.8195470">
        <ele>409.0</ele>
        <time>2018-06-17T13:14:46Z</time>
      </trkpt>
      <trkpt lat="43.1130410" lon="-5.8194720">
        <ele>407.4</ele>
        <time>2018-06-17T13:14:53Z</time>
      </trkpt>
      <trkpt lat="43.1132930" lon="-5.8194140">
        <ele>405.8</ele>
        <time>2018-06-17T13:14:56Z</time>
      </trkpt>
      <trkpt lat="43.1134510" lon="-5.8193450">
        <ele>404.6</ele>
        <time>2018-06-17T13:14:58Z</time>
      </trkpt>
      <trkpt lat="43.1137470" lon="-5.8191600">
        <ele>403.2</ele>
        <time>2018-06-17T13:15:02Z</time>
      </trkpt>
      <trkpt lat="43.1139720" lon="-5.8190140">
        <ele>402.0</ele>
        <time>2018-06-17T13:15:05Z</time>
      </trkpt>
      <trkpt lat="43.1142810" lon="-5.8188420">
        <ele>401.2</ele>
        <time>2018-06-17T13:15:09Z</time>
      </trkpt>
      <trkpt lat="43.1143640" lon="-5.8187930">
        <ele>401.0</ele>
        <time>2018-06-17T13:15:10Z</time>
      </trkpt>
      <trkpt lat="43.1146770" lon="-5.8186570">
        <ele>401.0</ele>
        <time>2018-06-17T13:15:14Z</time>
      </trkpt>
      <trkpt lat="43.1149170" lon="-5.8186470">
        <ele>401.2</ele>
        <time>2018-06-17T13:15:17Z</time>
      </trkpt>
      <trkpt lat="43.1151480" lon="-5.8186600">
        <ele>401.4</ele>
        <time>2018-06-17T13:15:20Z</time>
      </trkpt>
      <trkpt lat="43.1154450" lon="-5.8186810">
        <ele>401.4</ele>
        <time>2018-06-17T13:15:24Z</time>
      </trkpt>
      <trkpt lat="43.1160430" lon="-5.8186730">
        <ele>401.0</ele>
        <time>2018-06-17T13:15:33Z</time>
      </trkpt>
      <trkpt lat="43.1163150" lon="-5.8186090">
        <ele>400.2</ele>
        <time>2018-06-17T13:15:37Z</time>
      </trkpt>
      <trkpt lat="43.1165510" lon="-5.8184710">
        <ele>399.2</ele>
        <time>2018-06-17T13:15:40Z</time>
      </trkpt>
      <trkpt lat="43.1167200" lon="-5.8183610">
        <ele>398.0</ele>
        <time>2018-06-17T13:15:42Z</time>
      </trkpt>
      <trkpt lat="43.1169490" lon="-5.8181790">
        <ele>396.8</ele>
        <time>2018-06-17T13:15:45Z</time>
      </trkpt>
      <trkpt lat="43.1174200" lon="-5.8177240">
        <ele>396.8</ele>
        <time>2018-06-17T13:15:52Z</time>
      </trkpt>
      <trkpt lat="43.1175380" lon="-5.8176070">
        <ele>397.0</ele>
        <time>2018-06-17T13:15:54Z</time>
      </trkpt>
      <trkpt lat="43.1178040" lon="-5.8173090">
        <ele>397.4</ele>
        <time>2018-06-17T13:15:59Z</time>
      </trkpt>
      <trkpt lat="43.1178810" lon="-5.8172180">
        <ele>397.8</ele>
        <time>2018-06-17T13:16:01Z</time>
      </trkpt>
      <trkpt lat="43.1178880" lon="-5.8171860">
        <ele>398.0</ele>
        <time>2018-06-17T13:16:02Z</time>
      </trkpt>
      <trkpt lat="43.1179260" lon="-5.8171630">
        <ele>398.2</ele>
        <time>2018-06-17T13:16:03Z</time>
      </trkpt>
      <trkpt lat="43.1179900" lon="-5.8171140">
        <ele>399.4</ele>
        <time>2018-06-17T13:16:05Z</time>
      </trkpt>
      <trkpt lat="43.1180670" lon="-5.8170650">
        <ele>400.4</ele>
        <time>2018-06-17T13:16:07Z</time>
      </trkpt>
      <trkpt lat="43.1181130" lon="-5.8170410">
        <ele>400.6</ele>
        <time>2018-06-17T13:16:08Z</time>
      </trkpt>
      <trkpt lat="43.1182420" lon="-5.8169770">
        <ele>401.6</ele>
        <time>2018-06-17T13:16:11Z</time>
      </trkpt>
      <trkpt lat="43.1182820" lon="-5.8169570">
        <ele>401.8</ele>
        <time>2018-06-17T13:16:12Z</time>
      </trkpt>
      <trkpt lat="43.1183610" lon="-5.8169290">
        <ele>402.6</ele>
        <time>2018-06-17T13:16:14Z</time>
      </trkpt>
      <trkpt lat="43.1184460" lon="-5.8169010">
        <ele>402.8</ele>
        <time>2018-06-17T13:16:16Z</time>
      </trkpt>
      <trkpt lat="43.1186750" lon="-5.8168440">
        <ele>403.2</ele>
        <time>2018-06-17T13:16:21Z</time>
      </trkpt>
      <trkpt lat="43.1189650" lon="-5.8167860">
        <ele>403.4</ele>
        <time>2018-06-17T13:16:27Z</time>
      </trkpt>
      <trkpt lat="43.1195330" lon="-5.8168990">
        <ele>403.6</ele>
        <time>2018-06-17T13:16:38Z</time>
      </trkpt>
      <trkpt lat="43.1197800" lon="-5.8169560">
        <ele>404.0</ele>
        <time>2018-06-17T13:16:43Z</time>
      </trkpt>
      <trkpt lat="43.1203110" lon="-5.8171240">
        <ele>403.4</ele>
        <time>2018-06-17T13:16:52Z</time>
      </trkpt>
      <trkpt lat="43.1204400" lon="-5.8171660">
        <ele>402.8</ele>
        <time>2018-06-17T13:16:54Z</time>
      </trkpt>
      <trkpt lat="43.1206520" lon="-5.8172300">
        <ele>402.0</ele>
        <time>2018-06-17T13:16:57Z</time>
      </trkpt>
      <trkpt lat="43.1207230" lon="-5.8172520">
        <ele>401.6</ele>
        <time>2018-06-17T13:16:58Z</time>
      </trkpt>
      <trkpt lat="43.1211300" lon="-5.8173780">
        <ele>401.0</ele>
        <time>2018-06-17T13:17:04Z</time>
      </trkpt>
      <trkpt lat="43.1213790" lon="-5.8174440">
        <ele>400.6</ele>
        <time>2018-06-17T13:17:08Z</time>
      </trkpt>
      <trkpt lat="43.1215040" lon="-5.8174880">
        <ele>400.2</ele>
        <time>2018-06-17T13:17:10Z</time>
      </trkpt>
      <trkpt lat="43.1216380" lon="-5.8175320">
        <ele>399.6</ele>
        <time>2018-06-17T13:17:12Z</time>
      </trkpt>
      <trkpt lat="43.1217780" lon="-5.8175620">
        <ele>399.0</ele>
        <time>2018-06-17T13:17:14Z</time>
      </trkpt>
      <trkpt lat="43.1220190" lon="-5.8175520">
        <ele>398.6</ele>
        <time>2018-06-17T13:17:17Z</time>
      </trkpt>
      <trkpt lat="43.1223270" lon="-5.8175290">
        <ele>398.0</ele>
        <time>2018-06-17T13:17:21Z</time>
      </trkpt>
      <trkpt lat="43.1225460" lon="-5.8175240">
        <ele>397.8</ele>
        <time>2018-06-17T13:17:24Z</time>
      </trkpt>
      <trkpt lat="43.1228420" lon="-5.8175070">
        <ele>397.2</ele>
        <time>2018-06-17T13:17:28Z</time>
      </trkpt>
      <trkpt lat="43.1229870" lon="-5.8174190">
        <ele>396.8</ele>
        <time>2018-06-17T13:17:30Z</time>
      </trkpt>
      <trkpt lat="43.1230570" lon="-5.8173520">
        <ele>396.2</ele>
        <time>2018-06-17T13:17:31Z</time>
      </trkpt>
      <trkpt lat="43.1231260" lon="-5.8172800">
        <ele>395.8</ele>
        <time>2018-06-17T13:17:32Z</time>
      </trkpt>
      <trkpt lat="43.1232010" lon="-5.8172120">
        <ele>395.2</ele>
        <time>2018-06-17T13:17:33Z</time>
      </trkpt>
      <trkpt lat="43.1233610" lon="-5.8170970">
        <ele>393.6</ele>
        <time>2018-06-17T13:17:35Z</time>
      </trkpt>
      <trkpt lat="43.1235200" lon="-5.8169800">
        <ele>392.8</ele>
        <time>2018-06-17T13:17:37Z</time>
      </trkpt>
      <trkpt lat="43.1235950" lon="-5.8169140">
        <ele>392.4</ele>
        <time>2018-06-17T13:17:38Z</time>
      </trkpt>
      <trkpt lat="43.1238130" lon="-5.8166820">
        <ele>391.4</ele>
        <time>2018-06-17T13:17:41Z</time>
      </trkpt>
      <trkpt lat="43.1239670" lon="-5.8165400">
        <ele>389.8</ele>
        <time>2018-06-17T13:17:43Z</time>
      </trkpt>
      <trkpt lat="43.1241560" lon="-5.8164520">
        <ele>388.8</ele>
        <time>2018-06-17T13:17:45Z</time>
      </trkpt>
      <trkpt lat="43.1242640" lon="-5.8164330">
        <ele>387.6</ele>
        <time>2018-06-17T13:17:46Z</time>
      </trkpt>
      <trkpt lat="43.1244910" lon="-5.8164240">
        <ele>385.8</ele>
        <time>2018-06-17T13:17:48Z</time>
      </trkpt>
      <trkpt lat="43.1246020" lon="-5.8164330">
        <ele>385.0</ele>
        <time>2018-06-17T13:17:49Z</time>
      </trkpt>
      <trkpt lat="43.1247120" lon="-5.8164450">
        <ele>384.4</ele>
        <time>2018-06-17T13:17:50Z</time>
      </trkpt>
      <trkpt lat="43.1250250" lon="-5.8165000">
        <ele>383.2</ele>
        <time>2018-06-17T13:17:53Z</time>
      </trkpt>
      <trkpt lat="43.1254190" lon="-5.8165740">
        <ele>382.0</ele>
        <time>2018-06-17T13:17:57Z</time>
      </trkpt>
      <trkpt lat="43.1256920" lon="-5.8166400">
        <ele>381.6</ele>
        <time>2018-06-17T13:18:00Z</time>
      </trkpt>
      <trkpt lat="43.1262030" lon="-5.8167290">
        <ele>381.4</ele>
        <time>2018-06-17T13:18:06Z</time>
      </trkpt>
      <trkpt lat="43.1264490" lon="-5.8167730">
        <ele>381.2</ele>
        <time>2018-06-17T13:18:09Z</time>
      </trkpt>
      <trkpt lat="43.1268290" lon="-5.8168590">
        <ele>380.8</ele>
        <time>2018-06-17T13:18:14Z</time>
      </trkpt>
      <trkpt lat="43.1270680" lon="-5.8168740">
        <ele>380.8</ele>
        <time>2018-06-17T13:18:17Z</time>
      </trkpt>
      <trkpt lat="43.1276230" lon="-5.8168230">
        <ele>380.8</ele>
        <time>2018-06-17T13:18:24Z</time>
      </trkpt>
      <trkpt lat="43.1279270" lon="-5.8167880">
        <ele>380.4</ele>
        <time>2018-06-17T13:18:28Z</time>
      </trkpt>
      <trkpt lat="43.1283990" lon="-5.8168450">
        <ele>380.4</ele>
        <time>2018-06-17T13:18:35Z</time>
      </trkpt>
      <trkpt lat="43.1287320" lon="-5.8169620">
        <ele>380.0</ele>
        <time>2018-06-17T13:18:40Z</time>
      </trkpt>
      <trkpt lat="43.1291460" lon="-5.8171490">
        <ele>379.0</ele>
        <time>2018-06-17T13:18:46Z</time>
      </trkpt>
      <trkpt lat="43.1292100" lon="-5.8171930">
        <ele>378.8</ele>
        <time>2018-06-17T13:18:47Z</time>
      </trkpt>
      <trkpt lat="43.1296390" lon="-5.8175690">
        <ele>379.8</ele>
        <time>2018-06-17T13:18:55Z</time>
      </trkpt>
      <trkpt lat="43.1297210" lon="-5.8176560">
        <ele>380.8</ele>
        <time>2018-06-17T13:18:57Z</time>
      </trkpt>
      <trkpt lat="43.1297580" lon="-5.8176960">
        <ele>381.2</ele>
        <time>2018-06-17T13:18:58Z</time>
      </trkpt>
      <trkpt lat="43.1299260" lon="-5.8178860">
        <ele>382.4</ele>
        <time>2018-06-17T13:19:03Z</time>
      </trkpt>
      <trkpt lat="43.1300550" lon="-5.8180350">
        <ele>383.6</ele>
        <time>2018-06-17T13:19:07Z</time>
      </trkpt>
      <trkpt lat="43.1301470" lon="-5.8181530">
        <ele>384.2</ele>
        <time>2018-06-17T13:19:10Z</time>
      </trkpt>
      <trkpt lat="43.1302360" lon="-5.8182710">
        <ele>384.6</ele>
        <time>2018-06-17T13:19:13Z</time>
      </trkpt>
      <trkpt lat="43.1303660" lon="-5.8184190">
        <ele>384.4</ele>
        <time>2018-06-17T13:19:17Z</time>
      </trkpt>
      <trkpt lat="43.1307920" lon="-5.8189080">
        <ele>383.8</ele>
        <time>2018-06-17T13:19:28Z</time>
      </trkpt>
      <trkpt lat="43.1308360" lon="-5.8189640">
        <ele>383.6</ele>
        <time>2018-06-17T13:19:29Z</time>
      </trkpt>
      <trkpt lat="43.1310190" lon="-5.8191880">
        <ele>382.6</ele>
        <time>2018-06-17T13:19:33Z</time>
      </trkpt>
      <trkpt lat="43.1312130" lon="-5.8194380">
        <ele>382.0</ele>
        <time>2018-06-17T13:19:37Z</time>
      </trkpt>
      <trkpt lat="43.1313400" lon="-5.8195370">
        <ele>381.6</ele>
        <time>2018-06-17T13:19:39Z</time>
      </trkpt>
      <trkpt lat="43.1315440" lon="-5.8196550">
        <ele>380.8</ele>
        <time>2018-06-17T13:19:42Z</time>
      </trkpt>
      <trkpt lat="43.1316770" lon="-5.8197280">
        <ele>380.4</ele>
        <time>2018-06-17T13:19:44Z</time>
      </trkpt>
      <trkpt lat="43.1319260" lon="-5.8199210">
        <ele>379.2</ele>
        <time>2018-06-17T13:19:48Z</time>
      </trkpt>
      <trkpt lat="43.1321620" lon="-5.8201860">
        <ele>378.0</ele>
        <time>2018-06-17T13:19:52Z</time>
      </trkpt>
      <trkpt lat="43.1324640" lon="-5.8205180">
        <ele>377.2</ele>
        <time>2018-06-17T13:19:57Z</time>
      </trkpt>
      <trkpt lat="43.1326480" lon="-5.8207140">
        <ele>376.8</ele>
        <time>2018-06-17T13:20:00Z</time>
      </trkpt>
      <trkpt lat="43.1331290" lon="-5.8212320">
        <ele>376.0</ele>
        <time>2018-06-17T13:20:08Z</time>
      </trkpt>
      <trkpt lat="43.1332500" lon="-5.8213690">
        <ele>375.6</ele>
        <time>2018-06-17T13:20:10Z</time>
      </trkpt>
      <trkpt lat="43.1336980" lon="-5.8218540">
        <ele>375.4</ele>
        <time>2018-06-17T13:20:18Z</time>
      </trkpt>
      <trkpt lat="43.1339640" lon="-5.8221270">
        <ele>375.6</ele>
        <time>2018-06-17T13:20:23Z</time>
      </trkpt>
      <trkpt lat="43.1342210" lon="-5.8224120">
        <ele>376.0</ele>
        <time>2018-06-17T13:20:28Z</time>
      </trkpt>
      <trkpt lat="43.1345370" lon="-5.8227320">
        <ele>377.0</ele>
        <time>2018-06-17T13:20:34Z</time>
      </trkpt>
      <trkpt lat="43.1347150" lon="-5.8228030">
        <ele>378.2</ele>
        <time>2018-06-17T13:20:38Z</time>
      </trkpt>
      <trkpt lat="43.1347470" lon="-5.8228100">
        <ele>378.4</ele>
        <time>2018-06-17T13:20:39Z</time>
      </trkpt>
      <trkpt lat="43.1348100" lon="-5.8228130">
        <ele>379.4</ele>
        <time>2018-06-17T13:20:41Z</time>
      </trkpt>
      <trkpt lat="43.1349050" lon="-5.8227980">
        <ele>380.6</ele>
        <time>2018-06-17T13:20:44Z</time>
      </trkpt>
      <trkpt lat="43.1350130" lon="-5.8227600">
        <ele>381.0</ele>
        <time>2018-06-17T13:20:47Z</time>
      </trkpt>
      <trkpt lat="43.1350780" lon="-5.8227390">
        <ele>381.4</ele>
        <time>2018-06-17T13:20:49Z</time>
      </trkpt>
      <trkpt lat="43.1351770" lon="-5.8227030">
        <ele>381.8</ele>
        <time>2018-06-17T13:20:52Z</time>
      </trkpt>
      <trkpt lat="43.1353040" lon="-5.8226610">
        <ele>382.2</ele>
        <time>2018-06-17T13:20:56Z</time>
      </trkpt>
      <trkpt lat="43.1354460" lon="-5.8226250">
        <ele>382.2</ele>
        <time>2018-06-17T13:21:00Z</time>
      </trkpt>
      <trkpt lat="43.1359100" lon="-5.8226250">
        <ele>380.8</ele>
        <time>2018-06-17T13:21:10Z</time>
      </trkpt>
      <trkpt lat="43.1360530" lon="-5.8226590">
        <ele>379.6</ele>
        <time>2018-06-17T13:21:12Z</time>
      </trkpt>
      <trkpt lat="43.1361310" lon="-5.8226800">
        <ele>378.6</ele>
        <time>2018-06-17T13:21:13Z</time>
      </trkpt>
      <trkpt lat="43.1362220" lon="-5.8227050">
        <ele>377.4</ele>
        <time>2018-06-17T13:21:14Z</time>
      </trkpt>
      <trkpt lat="43.1363190" lon="-5.8227310">
        <ele>376.0</ele>
        <time>2018-06-17T13:21:15Z</time>
      </trkpt>
      <trkpt lat="43.1364230" lon="-5.8227580">
        <ele>374.8</ele>
        <time>2018-06-17T13:21:16Z</time>
      </trkpt>
      <trkpt lat="43.1365330" lon="-5.8227840">
        <ele>373.4</ele>
        <time>2018-06-17T13:21:17Z</time>
      </trkpt>
      <trkpt lat="43.1366430" lon="-5.8228140">
        <ele>372.2</ele>
        <time>2018-06-17T13:21:18Z</time>
      </trkpt>
      <trkpt lat="43.1367550" lon="-5.8228440">
        <ele>370.6</ele>
        <time>2018-06-17T13:21:19Z</time>
      </trkpt>
      <trkpt lat="43.1369830" lon="-5.8228990">
        <ele>368.8</ele>
        <time>2018-06-17T13:21:21Z</time>
      </trkpt>
      <trkpt lat="43.1372870" lon="-5.8230130">
        <ele>367.6</ele>
        <time>2018-06-17T13:21:24Z</time>
      </trkpt>
      <trkpt lat="43.1376530" lon="-5.8231940">
        <ele>366.8</ele>
        <time>2018-06-17T13:21:28Z</time>
      </trkpt>
      <trkpt lat="43.1378270" lon="-5.8232840">
        <ele>366.6</ele>
        <time>2018-06-17T13:21:30Z</time>
      </trkpt>
      <trkpt lat="43.1379140" lon="-5.8233330">
        <ele>366.4</ele>
        <time>2018-06-17T13:21:31Z</time>
      </trkpt>
      <trkpt lat="43.1380870" lon="-5.8234240">
        <ele>366.0</ele>
        <time>2018-06-17T13:21:33Z</time>
      </trkpt>
      <trkpt lat="43.1383340" lon="-5.8235520">
        <ele>366.0</ele>
        <time>2018-06-17T13:21:36Z</time>
      </trkpt>
      <trkpt lat="43.1387950" lon="-5.8237840">
        <ele>365.6</ele>
        <time>2018-06-17T13:21:42Z</time>
      </trkpt>
      <trkpt lat="43.1393390" lon="-5.8240550">
        <ele>365.0</ele>
        <time>2018-06-17T13:21:50Z</time>
      </trkpt>
      <trkpt lat="43.1395920" lon="-5.8241950">
        <ele>365.2</ele>
        <time>2018-06-17T13:21:54Z</time>
      </trkpt>
      <trkpt lat="43.1399770" lon="-5.8244040">
        <ele>364.4</ele>
        <time>2018-06-17T13:22:00Z</time>
      </trkpt>
      <trkpt lat="43.1402160" lon="-5.8245510">
        <ele>364.4</ele>
        <time>2018-06-17T13:22:04Z</time>
      </trkpt>
      <trkpt lat="43.1404020" lon="-5.8247610">
        <ele>365.0</ele>
        <time>2018-06-17T13:22:08Z</time>
      </trkpt>
      <trkpt lat="43.1405370" lon="-5.8249160">
        <ele>365.8</ele>
        <time>2018-06-17T13:22:11Z</time>
      </trkpt>
      <trkpt lat="43.1405820" lon="-5.8249680">
        <ele>366.0</ele>
        <time>2018-06-17T13:22:12Z</time>
      </trkpt>
      <trkpt lat="43.1406390" lon="-5.8250630">
        <ele>366.8</ele>
        <time>2018-06-17T13:22:14Z</time>
      </trkpt>
      <trkpt lat="43.1407690" lon="-5.8252380">
        <ele>367.6</ele>
        <time>2018-06-17T13:22:18Z</time>
      </trkpt>
      <trkpt lat="43.1409040" lon="-5.8253450">
        <ele>367.2</ele>
        <time>2018-06-17T13:22:21Z</time>
      </trkpt>
      <trkpt lat="43.1409570" lon="-5.8253760">
        <ele>367.2</ele>
        <time>2018-06-17T13:22:22Z</time>
      </trkpt>
      <trkpt lat="43.1412600" lon="-5.8255090">
        <ele>366.0</ele>
        <time>2018-06-17T13:22:27Z</time>
      </trkpt>
      <trkpt lat="43.1413240" lon="-5.8255230">
        <ele>365.8</ele>
        <time>2018-06-17T13:22:28Z</time>
      </trkpt>
      <trkpt lat="43.1418190" lon="-5.8255250">
        <ele>365.0</ele>
        <time>2018-06-17T13:22:35Z</time>
      </trkpt>
      <trkpt lat="43.1419650" lon="-5.8255070">
        <ele>364.8</ele>
        <time>2018-06-17T13:22:37Z</time>
      </trkpt>
      <trkpt lat="43.1422780" lon="-5.8254820">
        <ele>363.6</ele>
        <time>2018-06-17T13:22:41Z</time>
      </trkpt>
      <trkpt lat="43.1425070" lon="-5.8254790">
        <ele>363.0</ele>
        <time>2018-06-17T13:22:44Z</time>
      </trkpt>
      <trkpt lat="43.1426580" lon="-5.8254750">
        <ele>362.4</ele>
        <time>2018-06-17T13:22:46Z</time>
      </trkpt>
      <trkpt lat="43.1431720" lon="-5.8254510">
        <ele>361.4</ele>
        <time>2018-06-17T13:22:53Z</time>
      </trkpt>
      <trkpt lat="43.1434830" lon="-5.8254210">
        <ele>361.0</ele>
        <time>2018-06-17T13:22:57Z</time>
      </trkpt>
      <trkpt lat="43.1438030" lon="-5.8253900">
        <ele>360.4</ele>
        <time>2018-06-17T13:23:01Z</time>
      </trkpt>
      <trkpt lat="43.1443660" lon="-5.8253460">
        <ele>360.4</ele>
        <time>2018-06-17T13:23:08Z</time>
      </trkpt>
      <trkpt lat="43.1448500" lon="-5.8253990">
        <ele>359.2</ele>
        <time>2018-06-17T13:23:15Z</time>
      </trkpt>
      <trkpt lat="43.1450750" lon="-5.8254920">
        <ele>358.0</ele>
        <time>2018-06-17T13:23:18Z</time>
      </trkpt>
      <trkpt lat="43.1453740" lon="-5.8256020">
        <ele>357.0</ele>
        <time>2018-06-17T13:23:22Z</time>
      </trkpt>
      <trkpt lat="43.1456000" lon="-5.8256560">
        <ele>356.6</ele>
        <time>2018-06-17T13:23:25Z</time>
      </trkpt>
      <trkpt lat="43.1457490" lon="-5.8256840">
        <ele>356.6</ele>
        <time>2018-06-17T13:23:27Z</time>
      </trkpt>
      <trkpt lat="43.1459710" lon="-5.8256880">
        <ele>356.2</ele>
        <time>2018-06-17T13:23:30Z</time>
      </trkpt>
      <trkpt lat="43.1461190" lon="-5.8256750">
        <ele>356.2</ele>
        <time>2018-06-17T13:23:32Z</time>
      </trkpt>
      <trkpt lat="43.1463990" lon="-5.8255950">
        <ele>356.2</ele>
        <time>2018-06-17T13:23:36Z</time>
      </trkpt>
      <trkpt lat="43.1467450" lon="-5.8253330">
        <ele>356.4</ele>
        <time>2018-06-17T13:23:42Z</time>
      </trkpt>
      <trkpt lat="43.1468870" lon="-5.8253310">
        <ele>356.4</ele>
        <time>2018-06-17T13:23:44Z</time>
      </trkpt>
      <trkpt lat="43.1472670" lon="-5.8252040">
        <ele>356.2</ele>
        <time>2018-06-17T13:23:50Z</time>
      </trkpt>
      <trkpt lat="43.1474390" lon="-5.8250980">
        <ele>356.6</ele>
        <time>2018-06-17T13:23:53Z</time>
      </trkpt>
      <trkpt lat="43.1476580" lon="-5.8253100">
        <ele>356.4</ele>
        <time>2018-06-17T13:23:58Z</time>
      </trkpt>
      <trkpt lat="43.1479250" lon="-5.8256100">
        <ele>355.8</ele>
        <time>2018-06-17T13:24:03Z</time>
      </trkpt>
      <trkpt lat="43.1484020" lon="-5.8259930">
        <ele>355.0</ele>
        <time>2018-06-17T13:24:11Z</time>
      </trkpt>
      <trkpt lat="43.1485820" lon="-5.8261070">
        <ele>354.6</ele>
        <time>2018-06-17T13:24:14Z</time>
      </trkpt>
      <trkpt lat="43.1491340" lon="-5.8264130">
        <ele>354.6</ele>
        <time>2018-06-17T13:24:23Z</time>
      </trkpt>
      <trkpt lat="43.1496850" lon="-5.8265120">
        <ele>354.4</ele>
        <time>2018-06-17T13:24:32Z</time>
      </trkpt>
      <trkpt lat="43.1497720" lon="-5.8265210">
        <ele>354.4</ele>
        <time>2018-06-17T13:24:34Z</time>
      </trkpt>
      <trkpt lat="43.1502070" lon="-5.8261530">
        <ele>354.2</ele>
        <time>2018-06-17T13:24:42Z</time>
      </trkpt>
      <trkpt lat="43.1503270" lon="-5.8260770">
        <ele>353.8</ele>
        <time>2018-06-17T13:24:44Z</time>
      </trkpt>
      <trkpt lat="43.1506040" lon="-5.8259630">
        <ele>352.4</ele>
        <time>2018-06-17T13:24:49Z</time>
      </trkpt>
      <trkpt lat="43.1507410" lon="-5.8258800">
        <ele>351.4</ele>
        <time>2018-06-17T13:24:51Z</time>
      </trkpt>
      <trkpt lat="43.1508910" lon="-5.8257870">
        <ele>350.2</ele>
        <time>2018-06-17T13:24:53Z</time>
      </trkpt>
      <trkpt lat="43.1512030" lon="-5.8256090">
        <ele>349.2</ele>
        <time>2018-06-17T13:24:57Z</time>
      </trkpt>
      <trkpt lat="43.1514610" lon="-5.8255340">
        <ele>348.2</ele>
        <time>2018-06-17T13:25:00Z</time>
      </trkpt>
      <trkpt lat="43.1517990" lon="-5.8255050">
        <ele>347.2</ele>
        <time>2018-06-17T13:25:04Z</time>
      </trkpt>
      <trkpt lat="43.1518770" lon="-5.8255140">
        <ele>347.2</ele>
        <time>2018-06-17T13:25:05Z</time>
      </trkpt>
      <trkpt lat="43.1521880" lon="-5.8255650">
        <ele>346.4</ele>
        <time>2018-06-17T13:25:09Z</time>
      </trkpt>
      <trkpt lat="43.1523350" lon="-5.8256190">
        <ele>345.8</ele>
        <time>2018-06-17T13:25:11Z</time>
      </trkpt>
      <trkpt lat="43.1524790" lon="-5.8256750">
        <ele>345.0</ele>
        <time>2018-06-17T13:25:13Z</time>
      </trkpt>
      <trkpt lat="43.1525530" lon="-5.8256990">
        <ele>344.8</ele>
        <time>2018-06-17T13:25:14Z</time>
      </trkpt>
      <trkpt lat="43.1530650" lon="-5.8259020">
        <ele>343.6</ele>
        <time>2018-06-17T13:25:21Z</time>
      </trkpt>
      <trkpt lat="43.1534130" lon="-5.8260510">
        <ele>342.4</ele>
        <time>2018-06-17T13:25:26Z</time>
      </trkpt>
      <trkpt lat="43.1536190" lon="-5.8261220">
        <ele>342.0</ele>
        <time>2018-06-17T13:25:29Z</time>
      </trkpt>
      <trkpt lat="43.1541420" lon="-5.8263410">
        <ele>341.8</ele>
        <time>2018-06-17T13:25:38Z</time>
      </trkpt>
      <trkpt lat="43.1544660" lon="-5.8264950">
        <ele>341.8</ele>
        <time>2018-06-17T13:25:44Z</time>
      </trkpt>
      <trkpt lat="43.1546140" lon="-5.8265400">
        <ele>341.8</ele>
        <time>2018-06-17T13:25:46Z</time>
      </trkpt>
      <trkpt lat="43.1547700" lon="-5.8265900">
        <ele>341.6</ele>
        <time>2018-06-17T13:25:48Z</time>
      </trkpt>
      <trkpt lat="43.1549240" lon="-5.8266390">
        <ele>341.2</ele>
        <time>2018-06-17T13:25:50Z</time>
      </trkpt>
      <trkpt lat="43.1551320" lon="-5.8267110">
        <ele>341.0</ele>
        <time>2018-06-17T13:25:53Z</time>
      </trkpt>
      <trkpt lat="43.1553180" lon="-5.8267840">
        <ele>340.8</ele>
        <time>2018-06-17T13:25:56Z</time>
      </trkpt>
      <trkpt lat="43.1558930" lon="-5.8270140">
        <ele>340.6</ele>
        <time>2018-06-17T13:26:05Z</time>
      </trkpt>
      <trkpt lat="43.1560270" lon="-5.8270530">
        <ele>340.2</ele>
        <time>2018-06-17T13:26:07Z</time>
      </trkpt>
      <trkpt lat="43.1566200" lon="-5.8270880">
        <ele>339.2</ele>
        <time>2018-06-17T13:26:15Z</time>
      </trkpt>
      <trkpt lat="43.1572040" lon="-5.8271370">
        <ele>338.8</ele>
        <time>2018-06-17T13:26:23Z</time>
      </trkpt>
      <trkpt lat="43.1577640" lon="-5.8271630">
        <ele>338.2</ele>
        <time>2018-06-17T13:26:31Z</time>
      </trkpt>
      <trkpt lat="43.1579630" lon="-5.8271730">
        <ele>338.2</ele>
        <time>2018-06-17T13:26:34Z</time>
      </trkpt>
      <trkpt lat="43.1583680" lon="-5.8272120">
        <ele>338.0</ele>
        <time>2018-06-17T13:26:40Z</time>
      </trkpt>
      <trkpt lat="43.1584940" lon="-5.8272210">
        <ele>337.6</ele>
        <time>2018-06-17T13:26:42Z</time>
      </trkpt>
      <trkpt lat="43.1590950" lon="-5.8272490">
        <ele>337.6</ele>
        <time>2018-06-17T13:26:51Z</time>
      </trkpt>
      <trkpt lat="43.1594360" lon="-5.8272660">
        <ele>337.6</ele>
        <time>2018-06-17T13:26:55Z</time>
      </trkpt>
      <trkpt lat="43.1596520" lon="-5.8272620">
        <ele>337.2</ele>
        <time>2018-06-17T13:26:59Z</time>
      </trkpt>
      <trkpt lat="43.1598430" lon="-5.8272920">
        <ele>337.0</ele>
        <time>2018-06-17T13:27:02Z</time>
      </trkpt>
      <trkpt lat="43.1603050" lon="-5.8272920">
        <ele>337.6</ele>
        <time>2018-06-17T13:27:10Z</time>
      </trkpt>
      <trkpt lat="43.1608560" lon="-5.8273140">
        <ele>337.6</ele>
        <time>2018-06-17T13:27:19Z</time>
      </trkpt>
      <trkpt lat="43.1611710" lon="-5.8274100">
        <ele>337.0</ele>
        <time>2018-06-17T13:27:25Z</time>
      </trkpt>
      <trkpt lat="43.1613800" lon="-5.8274670">
        <ele>335.8</ele>
        <time>2018-06-17T13:27:28Z</time>
      </trkpt>
      <trkpt lat="43.1615280" lon="-5.8275090">
        <ele>335.6</ele>
        <time>2018-06-17T13:27:30Z</time>
      </trkpt>
      <trkpt lat="43.1618450" lon="-5.8275990">
        <ele>334.8</ele>
        <time>2018-06-17T13:27:34Z</time>
      </trkpt>
      <trkpt lat="43.1619150" lon="-5.8276290">
        <ele>334.8</ele>
        <time>2018-06-17T13:27:35Z</time>
      </trkpt>
      <trkpt lat="43.1621460" lon="-5.8276850">
        <ele>334.2</ele>
        <time>2018-06-17T13:27:38Z</time>
      </trkpt>
      <trkpt lat="43.1624130" lon="-5.8278030">
        <ele>333.8</ele>
        <time>2018-06-17T13:27:42Z</time>
      </trkpt>
      <trkpt lat="43.1627300" lon="-5.8278620">
        <ele>332.8</ele>
        <time>2018-06-17T13:27:46Z</time>
      </trkpt>
      <trkpt lat="43.1633250" lon="-5.8279910">
        <ele>333.0</ele>
        <time>2018-06-17T13:27:54Z</time>
      </trkpt>
      <trkpt lat="43.1638870" lon="-5.8281920">
        <ele>332.8</ele>
        <time>2018-06-17T13:28:04Z</time>
      </trkpt>
      <trkpt lat="43.1639580" lon="-5.8281740">
        <ele>332.8</ele>
        <time>2018-06-17T13:28:05Z</time>
      </trkpt>
      <trkpt lat="43.1641030" lon="-5.8281310">
        <ele>333.2</ele>
        <time>2018-06-17T13:28:08Z</time>
      </trkpt>
      <trkpt lat="43.1646210" lon="-5.8284310">
        <ele>333.2</ele>
        <time>2018-06-17T13:28:17Z</time>
      </trkpt>
      <trkpt lat="43.1646880" lon="-5.8284440">
        <ele>333.2</ele>
        <time>2018-06-17T13:28:18Z</time>
      </trkpt>
      <trkpt lat="43.1647530" lon="-5.8284600">
        <ele>333.0</ele>
        <time>2018-06-17T13:28:19Z</time>
      </trkpt>
      <trkpt lat="43.1653230" lon="-5.8286350">
        <ele>332.6</ele>
        <time>2018-06-17T13:28:28Z</time>
      </trkpt>
      <trkpt lat="43.1658860" lon="-5.8287370">
        <ele>332.4</ele>
        <time>2018-06-17T13:28:37Z</time>
      </trkpt>
      <trkpt lat="43.1663380" lon="-5.8288490">
        <ele>332.4</ele>
        <time>2018-06-17T13:28:44Z</time>
      </trkpt>
      <trkpt lat="43.1667900" lon="-5.8289780">
        <ele>332.8</ele>
        <time>2018-06-17T13:28:52Z</time>
      </trkpt>
      <trkpt lat="43.1670580" lon="-5.8290060">
        <ele>333.2</ele>
        <time>2018-06-17T13:28:57Z</time>
      </trkpt>
      <trkpt lat="43.1672080" lon="-5.8291100">
        <ele>333.6</ele>
        <time>2018-06-17T13:29:03Z</time>
      </trkpt>
      <trkpt lat="43.1677270" lon="-5.8287500">
        <ele>332.2</ele>
        <time>2018-06-17T13:29:13Z</time>
      </trkpt>
      <trkpt lat="43.1677790" lon="-5.8287110">
        <ele>332.0</ele>
        <time>2018-06-17T13:29:14Z</time>
      </trkpt>
      <trkpt lat="43.1678330" lon="-5.8286850">
        <ele>332.0</ele>
        <time>2018-06-17T13:29:15Z</time>
      </trkpt>
      <trkpt lat="43.1682980" lon="-5.8286180">
        <ele>331.8</ele>
        <time>2018-06-17T13:29:21Z</time>
      </trkpt>
      <trkpt lat="43.1685910" lon="-5.8286820">
        <ele>331.4</ele>
        <time>2018-06-17T13:29:25Z</time>
      </trkpt>
      <trkpt lat="43.1689290" lon="-5.8289050">
        <ele>331.4</ele>
        <time>2018-06-17T13:29:31Z</time>
      </trkpt>
      <trkpt lat="43.1690300" lon="-5.8289570">
        <ele>331.2</ele>
        <time>2018-06-17T13:29:33Z</time>
      </trkpt>
      <trkpt lat="43.1691450" lon="-5.8289780">
        <ele>330.8</ele>
        <time>2018-06-17T13:29:35Z</time>
      </trkpt>
      <trkpt lat="43.1692200" lon="-5.8289970">
        <ele>330.6</ele>
        <time>2018-06-17T13:29:36Z</time>
      </trkpt>
      <trkpt lat="43.1694590" lon="-5.8291490">
        <ele>332.6</ele>
        <time>2018-06-17T13:29:41Z</time>
      </trkpt>
      <trkpt lat="43.1695480" lon="-5.8291730">
        <ele>333.8</ele>
        <time>2018-06-17T13:29:44Z</time>
      </trkpt>
      <trkpt lat="43.1695730" lon="-5.8291740">
        <ele>334.2</ele>
        <time>2018-06-17T13:29:45Z</time>
      </trkpt>
      <trkpt lat="43.1696240" lon="-5.8291740">
        <ele>334.8</ele>
        <time>2018-06-17T13:29:47Z</time>
      </trkpt>
      <trkpt lat="43.1696480" lon="-5.8291740">
        <ele>335.0</ele>
        <time>2018-06-17T13:29:48Z</time>
      </trkpt>
      <trkpt lat="43.1697460" lon="-5.8291690">
        <ele>335.6</ele>
        <time>2018-06-17T13:29:52Z</time>
      </trkpt>
      <trkpt lat="43.1697980" lon="-5.8291800">
        <ele>336.0</ele>
        <time>2018-06-17T13:29:54Z</time>
      </trkpt>
      <trkpt lat="43.1698320" lon="-5.8292000">
        <ele>336.6</ele>
        <time>2018-06-17T13:29:56Z</time>
      </trkpt>
      <trkpt lat="43.1698360" lon="-5.8292290">
        <ele>337.4</ele>
        <time>2018-06-17T13:29:58Z</time>
      </trkpt>
      <trkpt lat="43.1698620" lon="-5.8292480">
        <ele>337.6</ele>
        <time>2018-06-17T13:30:00Z</time>
      </trkpt>
      <trkpt lat="43.1698970" lon="-5.8292660">
        <ele>338.0</ele>
        <time>2018-06-17T13:30:02Z</time>
      </trkpt>
      <trkpt lat="43.1699680" lon="-5.8292820">
        <ele>338.4</ele>
        <time>2018-06-17T13:30:05Z</time>
      </trkpt>
      <trkpt lat="43.1700480" lon="-5.8293270">
        <ele>339.6</ele>
        <time>2018-06-17T13:30:09Z</time>
      </trkpt>
      <trkpt lat="43.1701250" lon="-5.8294150">
        <ele>340.8</ele>
        <time>2018-06-17T13:30:15Z</time>
      </trkpt>
      <trkpt lat="43.1702040" lon="-5.8295920">
        <ele>341.8</ele>
        <time>2018-06-17T13:30:23Z</time>
      </trkpt>
      <trkpt lat="43.1702080" lon="-5.8296220">
        <ele>341.8</ele>
        <time>2018-06-17T13:30:24Z</time>
      </trkpt>
      <trkpt lat="43.1702250" lon="-5.8296670">
        <ele>342.2</ele>
        <time>2018-06-17T13:30:26Z</time>
      </trkpt>
      <trkpt lat="43.1702560" lon="-5.8297910">
        <ele>342.8</ele>
        <time>2018-06-17T13:30:31Z</time>
      </trkpt>
      <trkpt lat="43.1702930" lon="-5.8299840">
        <ele>344.0</ele>
        <time>2018-06-17T13:30:39Z</time>
      </trkpt>
      <trkpt lat="43.1702650" lon="-5.8301850">
        <ele>345.2</ele>
        <time>2018-06-17T13:30:46Z</time>
      </trkpt>
      <trkpt lat="43.1702260" lon="-5.8303510">
        <ele>346.6</ele>
        <time>2018-06-17T13:30:52Z</time>
      </trkpt>
      <trkpt lat="43.1701970" lon="-5.8304740">
        <ele>348.0</ele>
        <time>2018-06-17T13:30:57Z</time>
      </trkpt>
      <trkpt lat="43.1701550" lon="-5.8306340">
        <ele>349.0</ele>
        <time>2018-06-17T13:31:04Z</time>
      </trkpt>
      <trkpt lat="43.1701320" lon="-5.8307470">
        <ele>350.0</ele>
        <time>2018-06-17T13:31:09Z</time>
      </trkpt>
      <trkpt lat="43.1701080" lon="-5.8308800">
        <ele>351.2</ele>
        <time>2018-06-17T13:31:15Z</time>
      </trkpt>
      <trkpt lat="43.1700740" lon="-5.8310280">
        <ele>352.4</ele>
        <time>2018-06-17T13:31:22Z</time>
      </trkpt>
      <trkpt lat="43.1700430" lon="-5.8311610">
        <ele>353.6</ele>
        <time>2018-06-17T13:31:28Z</time>
      </trkpt>
      <trkpt lat="43.1700160" lon="-5.8312920">
        <ele>354.6</ele>
        <time>2018-06-17T13:31:34Z</time>
      </trkpt>
      <trkpt lat="43.1699900" lon="-5.8313950">
        <ele>355.8</ele>
        <time>2018-06-17T13:31:39Z</time>
      </trkpt>
      <trkpt lat="43.1699670" lon="-5.8315510">
        <ele>357.2</ele>
        <time>2018-06-17T13:31:46Z</time>
      </trkpt>
      <trkpt lat="43.1699440" lon="-5.8316670">
        <ele>358.4</ele>
        <time>2018-06-17T13:31:51Z</time>
      </trkpt>
      <trkpt lat="43.1699450" lon="-5.8316890">
        <ele>358.6</ele>
        <time>2018-06-17T13:31:52Z</time>
      </trkpt>
      <trkpt lat="43.1699440" lon="-5.8317750">
        <ele>359.4</ele>
        <time>2018-06-17T13:31:56Z</time>
      </trkpt>
      <trkpt lat="43.1699650" lon="-5.8319180">
        <ele>360.6</ele>
        <time>2018-06-17T13:32:03Z</time>
      </trkpt>
      <trkpt lat="43.1699890" lon="-5.8320260">
        <ele>361.8</ele>
        <time>2018-06-17T13:32:08Z</time>
      </trkpt>
      <trkpt lat="43.1700110" lon="-5.8321690">
        <ele>362.8</ele>
        <time>2018-06-17T13:32:14Z</time>
      </trkpt>
      <trkpt lat="43.1700350" lon="-5.8323420">
        <ele>364.0</ele>
        <time>2018-06-17T13:32:21Z</time>
      </trkpt>
      <trkpt lat="43.1700530" lon="-5.8324350">
        <ele>365.2</ele>
        <time>2018-06-17T13:32:25Z</time>
      </trkpt>
      <trkpt lat="43.1700730" lon="-5.8325220">
        <ele>366.4</ele>
        <time>2018-06-17T13:32:29Z</time>
      </trkpt>
      <trkpt lat="43.1700930" lon="-5.8326580">
        <ele>367.4</ele>
        <time>2018-06-17T13:32:35Z</time>
      </trkpt>
      <trkpt lat="43.1701100" lon="-5.8327970">
        <ele>368.6</ele>
        <time>2018-06-17T13:32:41Z</time>
      </trkpt>
      <trkpt lat="43.1701320" lon="-5.8329300">
        <ele>369.8</ele>
        <time>2018-06-17T13:32:47Z</time>
      </trkpt>
      <trkpt lat="43.1701590" lon="-5.8330600">
        <ele>371.0</ele>
        <time>2018-06-17T13:32:53Z</time>
      </trkpt>
      <trkpt lat="43.1701600" lon="-5.8331940">
        <ele>372.2</ele>
        <time>2018-06-17T13:32:59Z</time>
      </trkpt>
      <trkpt lat="43.1701860" lon="-5.8333490">
        <ele>373.6</ele>
        <time>2018-06-17T13:33:06Z</time>
      </trkpt>
      <trkpt lat="43.1702040" lon="-5.8333840">
        <ele>374.0</ele>
        <time>2018-06-17T13:33:08Z</time>
      </trkpt>
      <trkpt lat="43.1702870" lon="-5.8334630">
        <ele>374.6</ele>
        <time>2018-06-17T13:33:14Z</time>
      </trkpt>
      <trkpt lat="43.1703850" lon="-5.8335160">
        <ele>375.8</ele>
        <time>2018-06-17T13:33:20Z</time>
      </trkpt>
      <trkpt lat="43.1704660" lon="-5.8335560">
        <ele>377.2</ele>
        <time>2018-06-17T13:33:25Z</time>
      </trkpt>
      <trkpt lat="43.1705490" lon="-5.8336380">
        <ele>378.2</ele>
        <time>2018-06-17T13:33:31Z</time>
      </trkpt>
      <trkpt lat="43.1706190" lon="-5.8337510">
        <ele>379.4</ele>
        <time>2018-06-17T13:33:37Z</time>
      </trkpt>
      <trkpt lat="43.1706670" lon="-5.8338500">
        <ele>380.6</ele>
        <time>2018-06-17T13:33:42Z</time>
      </trkpt>
      <trkpt lat="43.1707820" lon="-5.8340510">
        <ele>381.8</ele>
        <time>2018-06-17T13:33:51Z</time>
      </trkpt>
      <trkpt lat="43.1709510" lon="-5.8344070">
        <ele>381.6</ele>
        <time>2018-06-17T13:34:02Z</time>
      </trkpt>
      <trkpt lat="43.1710190" lon="-5.8344930">
        <ele>381.6</ele>
        <time>2018-06-17T13:34:05Z</time>
      </trkpt>
      <trkpt lat="43.1711270" lon="-5.8345410">
        <ele>382.0</ele>
        <time>2018-06-17T13:34:09Z</time>
      </trkpt>
      <trkpt lat="43.1711480" lon="-5.8345680">
        <ele>382.4</ele>
        <time>2018-06-17T13:34:12Z</time>
      </trkpt>
      <trkpt lat="43.1711520" lon="-5.8345680">
        <ele>382.6</ele>
        <time>2018-06-17T13:34:13Z</time>
      </trkpt>
      <trkpt lat="43.1711910" lon="-5.8346300">
        <ele>383.2</ele>
        <time>2018-06-17T13:34:42Z</time>
      </trkpt>
      <trkpt lat="43.1712090" lon="-5.8346480">
        <ele>383.4</ele>
        <time>2018-06-17T13:34:43Z</time>
      </trkpt>
      <trkpt lat="43.1712990" lon="-5.8347330">
        <ele>384.4</ele>
        <time>2018-06-17T13:34:48Z</time>
      </trkpt>
      <trkpt lat="43.1713930" lon="-5.8348070">
        <ele>385.4</ele>
        <time>2018-06-17T13:34:53Z</time>
      </trkpt>
      <trkpt lat="43.1714710" lon="-5.8348650">
        <ele>386.2</ele>
        <time>2018-06-17T13:34:57Z</time>
      </trkpt>
      <trkpt lat="43.1715260" lon="-5.8349060">
        <ele>386.8</ele>
        <time>2018-06-17T13:35:00Z</time>
      </trkpt>
      <trkpt lat="43.1715970" lon="-5.8349480">
        <ele>387.2</ele>
        <time>2018-06-17T13:35:04Z</time>
      </trkpt>
      <trkpt lat="43.1716270" lon="-5.8349570">
        <ele>387.8</ele>
        <time>2018-06-17T13:35:06Z</time>
      </trkpt>
      <trkpt lat="43.1717250" lon="-5.8350060">
        <ele>388.4</ele>
        <time>2018-06-17T13:35:11Z</time>
      </trkpt>
      <trkpt lat="43.1717760" lon="-5.8350260">
        <ele>389.2</ele>
        <time>2018-06-17T13:35:14Z</time>
      </trkpt>
      <trkpt lat="43.1718490" lon="-5.8350560">
        <ele>390.2</ele>
        <time>2018-06-17T13:35:18Z</time>
      </trkpt>
      <trkpt lat="43.1720020" lon="-5.8351210">
        <ele>391.4</ele>
        <time>2018-06-17T13:35:25Z</time>
      </trkpt>
      <trkpt lat="43.1721110" lon="-5.8351810">
        <ele>392.6</ele>
        <time>2018-06-17T13:35:30Z</time>
      </trkpt>
      <trkpt lat="43.1722320" lon="-5.8352410">
        <ele>393.6</ele>
        <time>2018-06-17T13:35:36Z</time>
      </trkpt>
      <trkpt lat="43.1723390" lon="-5.8353500">
        <ele>395.0</ele>
        <time>2018-06-17T13:35:43Z</time>
      </trkpt>
      <trkpt lat="43.1723800" lon="-5.8354430">
        <ele>396.0</ele>
        <time>2018-06-17T13:35:47Z</time>
      </trkpt>
      <trkpt lat="43.1724350" lon="-5.8355790">
        <ele>397.0</ele>
        <time>2018-06-17T13:35:53Z</time>
      </trkpt>
      <trkpt lat="43.1724820" lon="-5.8357160">
        <ele>398.2</ele>
        <time>2018-06-17T13:35:58Z</time>
      </trkpt>
      <trkpt lat="43.1725090" lon="-5.8358840">
        <ele>399.2</ele>
        <time>2018-06-17T13:36:04Z</time>
      </trkpt>
      <trkpt lat="43.1725450" lon="-5.8360470">
        <ele>400.4</ele>
        <time>2018-06-17T13:36:10Z</time>
      </trkpt>
      <trkpt lat="43.1726030" lon="-5.8361760">
        <ele>401.6</ele>
        <time>2018-06-17T13:36:16Z</time>
      </trkpt>
      <trkpt lat="43.1726660" lon="-5.8362520">
        <ele>402.8</ele>
        <time>2018-06-17T13:36:21Z</time>
      </trkpt>
      <trkpt lat="43.1727150" lon="-5.8363550">
        <ele>404.2</ele>
        <time>2018-06-17T13:36:26Z</time>
      </trkpt>
      <trkpt lat="43.1727910" lon="-5.8364930">
        <ele>405.0</ele>
        <time>2018-06-17T13:36:32Z</time>
      </trkpt>
      <trkpt lat="43.1727920" lon="-5.8365190">
        <ele>405.2</ele>
        <time>2018-06-17T13:36:33Z</time>
      </trkpt>
      <trkpt lat="43.1728090" lon="-5.8366540">
        <ele>406.2</ele>
        <time>2018-06-17T13:36:38Z</time>
      </trkpt>
      <trkpt lat="43.1728680" lon="-5.8368040">
        <ele>407.4</ele>
        <time>2018-06-17T13:36:44Z</time>
      </trkpt>
      <trkpt lat="43.1729200" lon="-5.8369630">
        <ele>408.4</ele>
        <time>2018-06-17T13:36:50Z</time>
      </trkpt>
      <trkpt lat="43.1729560" lon="-5.8371010">
        <ele>409.6</ele>
        <time>2018-06-17T13:36:56Z</time>
      </trkpt>
      <trkpt lat="43.1730040" lon="-5.8372360">
        <ele>411.0</ele>
        <time>2018-06-17T13:37:02Z</time>
      </trkpt>
      <trkpt lat="43.1730730" lon="-5.8373950">
        <ele>412.0</ele>
        <time>2018-06-17T13:37:09Z</time>
      </trkpt>
      <trkpt lat="43.1731770" lon="-5.8375170">
        <ele>413.2</ele>
        <time>2018-06-17T13:37:15Z</time>
      </trkpt>
      <trkpt lat="43.1732800" lon="-5.8376710">
        <ele>414.6</ele>
        <time>2018-06-17T13:37:22Z</time>
      </trkpt>
      <trkpt lat="43.1733470" lon="-5.8377780">
        <ele>415.8</ele>
        <time>2018-06-17T13:37:27Z</time>
      </trkpt>
      <trkpt lat="43.1734220" lon="-5.8379070">
        <ele>416.8</ele>
        <time>2018-06-17T13:37:33Z</time>
      </trkpt>
      <trkpt lat="43.1734750" lon="-5.8379840">
        <ele>417.8</ele>
        <time>2018-06-17T13:37:37Z</time>
      </trkpt>
      <trkpt lat="43.1735680" lon="-5.8381130">
        <ele>419.2</ele>
        <time>2018-06-17T13:37:44Z</time>
      </trkpt>
      <trkpt lat="43.1735800" lon="-5.8381340">
        <ele>419.4</ele>
        <time>2018-06-17T13:37:45Z</time>
      </trkpt>
      <trkpt lat="43.1736260" lon="-5.8382120">
        <ele>420.2</ele>
        <time>2018-06-17T13:37:49Z</time>
      </trkpt>
      <trkpt lat="43.1736800" lon="-5.8383160">
        <ele>421.4</ele>
        <time>2018-06-17T13:37:54Z</time>
      </trkpt>
      <trkpt lat="43.1737460" lon="-5.8384460">
        <ele>422.6</ele>
        <time>2018-06-17T13:38:01Z</time>
      </trkpt>
      <trkpt lat="43.1737790" lon="-5.8385480">
        <ele>423.6</ele>
        <time>2018-06-17T13:38:07Z</time>
      </trkpt>
      <trkpt lat="43.1738690" lon="-5.8386630">
        <ele>425.0</ele>
        <time>2018-06-17T13:38:13Z</time>
      </trkpt>
      <trkpt lat="43.1739170" lon="-5.8387490">
        <ele>425.4</ele>
        <time>2018-06-17T13:38:17Z</time>
      </trkpt>
      <trkpt lat="43.1739530" lon="-5.8387990">
        <ele>426.0</ele>
        <time>2018-06-17T13:38:21Z</time>
      </trkpt>
      <trkpt lat="43.1740300" lon="-5.8388690">
        <ele>427.0</ele>
        <time>2018-06-17T13:38:26Z</time>
      </trkpt>
      <trkpt lat="43.1741190" lon="-5.8390450">
        <ele>428.4</ele>
        <time>2018-06-17T13:38:34Z</time>
      </trkpt>
      <trkpt lat="43.1742190" lon="-5.8391920">
        <ele>429.6</ele>
        <time>2018-06-17T13:38:41Z</time>
      </trkpt>
      <trkpt lat="43.1743070" lon="-5.8393050">
        <ele>430.8</ele>
        <time>2018-06-17T13:38:47Z</time>
      </trkpt>
      <trkpt lat="43.1744680" lon="-5.8394490">
        <ele>431.8</ele>
        <time>2018-06-17T13:38:55Z</time>
      </trkpt>
      <trkpt lat="43.1748020" lon="-5.8397110">
        <ele>433.0</ele>
        <time>2018-06-17T13:39:10Z</time>
      </trkpt>
      <trkpt lat="43.1749330" lon="-5.8398600">
        <ele>433.8</ele>
        <time>2018-06-17T13:39:17Z</time>
      </trkpt>
      <trkpt lat="43.1750010" lon="-5.8399600">
        <ele>434.2</ele>
        <time>2018-06-17T13:39:21Z</time>
      </trkpt>
      <trkpt lat="43.1750740" lon="-5.8400670">
        <ele>434.4</ele>
        <time>2018-06-17T13:39:25Z</time>
      </trkpt>
      <trkpt lat="43.1752260" lon="-5.8402030">
        <ele>434.8</ele>
        <time>2018-06-17T13:39:32Z</time>
      </trkpt>
      <trkpt lat="43.1753490" lon="-5.8402690">
        <ele>435.6</ele>
        <time>2018-06-17T13:39:37Z</time>
      </trkpt>
      <trkpt lat="43.1754370" lon="-5.8403500">
        <ele>436.6</ele>
        <time>2018-06-17T13:39:44Z</time>
      </trkpt>
      <trkpt lat="43.1754650" lon="-5.8403830">
        <ele>436.8</ele>
        <time>2018-06-17T13:39:47Z</time>
      </trkpt>
      <trkpt lat="43.1755360" lon="-5.8403900">
        <ele>437.6</ele>
        <time>2018-06-17T13:39:51Z</time>
      </trkpt>
      <trkpt lat="43.1756380" lon="-5.8404190">
        <ele>438.2</ele>
        <time>2018-06-17T13:39:55Z</time>
      </trkpt>
      <trkpt lat="43.1757730" lon="-5.8404680">
        <ele>439.6</ele>
        <time>2018-06-17T13:40:01Z</time>
      </trkpt>
      <trkpt lat="43.1758760" lon="-5.8405290">
        <ele>440.8</ele>
        <time>2018-06-17T13:40:07Z</time>
      </trkpt>
      <trkpt lat="43.1760220" lon="-5.8406190">
        <ele>442.0</ele>
        <time>2018-06-17T13:40:14Z</time>
      </trkpt>
      <trkpt lat="43.1761120" lon="-5.8407450">
        <ele>443.0</ele>
        <time>2018-06-17T13:40:20Z</time>
      </trkpt>
      <trkpt lat="43.1761640" lon="-5.8409670">
        <ele>444.0</ele>
        <time>2018-06-17T13:40:28Z</time>
      </trkpt>
      <trkpt lat="43.1762010" lon="-5.8411310">
        <ele>445.4</ele>
        <time>2018-06-17T13:40:34Z</time>
      </trkpt>
      <trkpt lat="43.1762740" lon="-5.8412450">
        <ele>446.4</ele>
        <time>2018-06-17T13:40:40Z</time>
      </trkpt>
      <trkpt lat="43.1763680" lon="-5.8413470">
        <ele>447.8</ele>
        <time>2018-06-17T13:40:47Z</time>
      </trkpt>
      <trkpt lat="43.1764940" lon="-5.8414490">
        <ele>448.8</ele>
        <time>2018-06-17T13:40:54Z</time>
      </trkpt>
      <trkpt lat="43.1765780" lon="-5.8415190">
        <ele>449.8</ele>
        <time>2018-06-17T13:40:59Z</time>
      </trkpt>
      <trkpt lat="43.1766640" lon="-5.8416340">
        <ele>450.8</ele>
        <time>2018-06-17T13:41:06Z</time>
      </trkpt>
      <trkpt lat="43.1767670" lon="-5.8416950">
        <ele>452.2</ele>
        <time>2018-06-17T13:41:13Z</time>
      </trkpt>
      <trkpt lat="43.1768410" lon="-5.8416510">
        <ele>453.4</ele>
        <time>2018-06-17T13:41:19Z</time>
      </trkpt>
      <trkpt lat="43.1768570" lon="-5.8416110">
        <ele>453.8</ele>
        <time>2018-06-17T13:41:22Z</time>
      </trkpt>
      <trkpt lat="43.1768940" lon="-5.8415510">
        <ele>454.4</ele>
        <time>2018-06-17T13:41:25Z</time>
      </trkpt>
      <trkpt lat="43.1770140" lon="-5.8414370">
        <ele>455.6</ele>
        <time>2018-06-17T13:41:31Z</time>
      </trkpt>
      <trkpt lat="43.1771250" lon="-5.8413670">
        <ele>456.8</ele>
        <time>2018-06-17T13:41:37Z</time>
      </trkpt>
      <trkpt lat="43.1772380" lon="-5.8412990">
        <ele>458.0</ele>
        <time>2018-06-17T13:41:43Z</time>
      </trkpt>
      <trkpt lat="43.1773590" lon="-5.8412260">
        <ele>459.0</ele>
        <time>2018-06-17T13:41:49Z</time>
      </trkpt>
      <trkpt lat="43.1774780" lon="-5.8411570">
        <ele>460.4</ele>
        <time>2018-06-17T13:41:56Z</time>
      </trkpt>
      <trkpt lat="43.1775990" lon="-5.8411190">
        <ele>461.4</ele>
        <time>2018-06-17T13:42:02Z</time>
      </trkpt>
      <trkpt lat="43.1776840" lon="-5.8410620">
        <ele>462.8</ele>
        <time>2018-06-17T13:42:08Z</time>
      </trkpt>
      <trkpt lat="43.1777090" lon="-5.8410440">
        <ele>463.4</ele>
        <time>2018-06-17T13:42:11Z</time>
      </trkpt>
      <trkpt lat="43.1779390" lon="-5.8409850">
        <ele>465.8</ele>
        <time>2018-06-17T13:42:25Z</time>
      </trkpt>
      <trkpt lat="43.1783100" lon="-5.8413270">
        <ele>467.0</ele>
        <time>2018-06-17T13:42:42Z</time>
      </trkpt>
      <trkpt lat="43.1782040" lon="-5.8416580">
        <ele>468.2</ele>
        <time>2018-06-17T13:42:51Z</time>
      </trkpt>
      <trkpt lat="43.1780790" lon="-5.8418700">
        <ele>469.2</ele>
        <time>2018-06-17T13:42:59Z</time>
      </trkpt>
      <trkpt lat="43.1779870" lon="-5.8420910">
        <ele>470.2</ele>
        <time>2018-06-17T13:43:07Z</time>
      </trkpt>
      <trkpt lat="43.1780290" lon="-5.8422990">
        <ele>471.4</ele>
        <time>2018-06-17T13:43:14Z</time>
      </trkpt>
      <trkpt lat="43.1782060" lon="-5.8425110">
        <ele>472.6</ele>
        <time>2018-06-17T13:43:24Z</time>
      </trkpt>
      <trkpt lat="43.1783640" lon="-5.8426580">
        <ele>473.6</ele>
        <time>2018-06-17T13:43:34Z</time>
      </trkpt>
      <trkpt lat="43.1785240" lon="-5.8427220">
        <ele>474.8</ele>
        <time>2018-06-17T13:43:41Z</time>
      </trkpt>
      <trkpt lat="43.1787370" lon="-5.8427890">
        <ele>475.8</ele>
        <time>2018-06-17T13:43:50Z</time>
      </trkpt>
      <trkpt lat="43.1788950" lon="-5.8428540">
        <ele>476.6</ele>
        <time>2018-06-17T13:43:56Z</time>
      </trkpt>
      <trkpt lat="43.1790940" lon="-5.8430210">
        <ele>477.6</ele>
        <time>2018-06-17T13:44:05Z</time>
      </trkpt>
      <trkpt lat="43.1792490" lon="-5.8433060">
        <ele>478.8</ele>
        <time>2018-06-17T13:44:16Z</time>
      </trkpt>
      <trkpt lat="43.1794320" lon="-5.8434850">
        <ele>479.8</ele>
        <time>2018-06-17T13:44:25Z</time>
      </trkpt>
      <trkpt lat="43.1796670" lon="-5.8436390">
        <ele>481.0</ele>
        <time>2018-06-17T13:44:36Z</time>
      </trkpt>
      <trkpt lat="43.1797960" lon="-5.8437230">
        <ele>482.0</ele>
        <time>2018-06-17T13:44:42Z</time>
      </trkpt>
      <trkpt lat="43.1799390" lon="-5.8437970">
        <ele>483.2</ele>
        <time>2018-06-17T13:44:49Z</time>
      </trkpt>
      <trkpt lat="43.1800950" lon="-5.8438740">
        <ele>484.0</ele>
        <time>2018-06-17T13:44:56Z</time>
      </trkpt>
      <trkpt lat="43.1801150" lon="-5.8438820">
        <ele>484.4</ele>
        <time>2018-06-17T13:44:57Z</time>
      </trkpt>
      <trkpt lat="43.1801990" lon="-5.8439300">
        <ele>485.2</ele>
        <time>2018-06-17T13:45:01Z</time>
      </trkpt>
      <trkpt lat="43.1802380" lon="-5.8439600">
        <ele>485.6</ele>
        <time>2018-06-17T13:45:03Z</time>
      </trkpt>
      <trkpt lat="43.1803120" lon="-5.8440140">
        <ele>486.6</ele>
        <time>2018-06-17T13:45:07Z</time>
      </trkpt>
      <trkpt lat="43.1803250" lon="-5.8440300">
        <ele>486.8</ele>
        <time>2018-06-17T13:45:08Z</time>
      </trkpt>
      <trkpt lat="43.1804210" lon="-5.8440840">
        <ele>487.2</ele>
        <time>2018-06-17T13:45:13Z</time>
      </trkpt>
      <trkpt lat="43.1805240" lon="-5.8441390">
        <ele>488.0</ele>
        <time>2018-06-17T13:45:18Z</time>
      </trkpt>
      <trkpt lat="43.1806130" lon="-5.8441730">
        <ele>489.2</ele>
        <time>2018-06-17T13:45:23Z</time>
      </trkpt>
      <trkpt lat="43.1807060" lon="-5.8442150">
        <ele>490.2</ele>
        <time>2018-06-17T13:45:28Z</time>
      </trkpt>
      <trkpt lat="43.1808170" lon="-5.8442750">
        <ele>491.4</ele>
        <time>2018-06-17T13:45:34Z</time>
      </trkpt>
      <trkpt lat="43.1809080" lon="-5.8443390">
        <ele>492.4</ele>
        <time>2018-06-17T13:45:39Z</time>
      </trkpt>
      <trkpt lat="43.1809790" lon="-5.8443830">
        <ele>493.6</ele>
        <time>2018-06-17T13:45:43Z</time>
      </trkpt>
      <trkpt lat="43.1810750" lon="-5.8444450">
        <ele>494.6</ele>
        <time>2018-06-17T13:45:49Z</time>
      </trkpt>
      <trkpt lat="43.1811850" lon="-5.8445430">
        <ele>495.8</ele>
        <time>2018-06-17T13:45:56Z</time>
      </trkpt>
      <trkpt lat="43.1812350" lon="-5.8446020">
        <ele>496.8</ele>
        <time>2018-06-17T13:46:00Z</time>
      </trkpt>
      <trkpt lat="43.1813020" lon="-5.8446700">
        <ele>498.0</ele>
        <time>2018-06-17T13:46:05Z</time>
      </trkpt>
      <trkpt lat="43.1813720" lon="-5.8447320">
        <ele>499.0</ele>
        <time>2018-06-17T13:46:10Z</time>
      </trkpt>
      <trkpt lat="43.1814580" lon="-5.8448020">
        <ele>500.2</ele>
        <time>2018-06-17T13:46:16Z</time>
      </trkpt>
      <trkpt lat="43.1815320" lon="-5.8448840">
        <ele>501.2</ele>
        <time>2018-06-17T13:46:22Z</time>
      </trkpt>
      <trkpt lat="43.1815730" lon="-5.8449790">
        <ele>502.8</ele>
        <time>2018-06-17T13:46:27Z</time>
      </trkpt>
      <trkpt lat="43.1816390" lon="-5.8450820">
        <ele>503.8</ele>
        <time>2018-06-17T13:46:33Z</time>
      </trkpt>
      <trkpt lat="43.1816750" lon="-5.8452220">
        <ele>505.0</ele>
        <time>2018-06-17T13:46:39Z</time>
      </trkpt>
      <trkpt lat="43.1817110" lon="-5.8453510">
        <ele>506.4</ele>
        <time>2018-06-17T13:46:45Z</time>
      </trkpt>
      <trkpt lat="43.1817450" lon="-5.8454660">
        <ele>507.6</ele>
        <time>2018-06-17T13:46:51Z</time>
      </trkpt>
      <trkpt lat="43.1817920" lon="-5.8455800">
        <ele>508.6</ele>
        <time>2018-06-17T13:46:57Z</time>
      </trkpt>
      <trkpt lat="43.1818010" lon="-5.8457350">
        <ele>509.6</ele>
        <time>2018-06-17T13:47:03Z</time>
      </trkpt>
      <trkpt lat="43.1818050" lon="-5.8458630">
        <ele>511.0</ele>
        <time>2018-06-17T13:47:08Z</time>
      </trkpt>
      <trkpt lat="43.1817950" lon="-5.8460040">
        <ele>512.2</ele>
        <time>2018-06-17T13:47:14Z</time>
      </trkpt>
      <trkpt lat="43.1817810" lon="-5.8461450">
        <ele>513.2</ele>
        <time>2018-06-17T13:47:20Z</time>
      </trkpt>
      <trkpt lat="43.1817870" lon="-5.8461780">
        <ele>513.4</ele>
        <time>2018-06-17T13:47:22Z</time>
      </trkpt>
      <trkpt lat="43.1818250" lon="-5.8462400">
        <ele>514.6</ele>
        <time>2018-06-17T13:47:27Z</time>
      </trkpt>
      <trkpt lat="43.1818830" lon="-5.8462880">
        <ele>516.0</ele>
        <time>2018-06-17T13:47:33Z</time>
      </trkpt>
      <trkpt lat="43.1819900" lon="-5.8463100">
        <ele>517.2</ele>
        <time>2018-06-17T13:47:40Z</time>
      </trkpt>
      <trkpt lat="43.1820470" lon="-5.8462950">
        <ele>518.2</ele>
        <time>2018-06-17T13:47:44Z</time>
      </trkpt>
      <trkpt lat="43.1820990" lon="-5.8463020">
        <ele>519.4</ele>
        <time>2018-06-17T13:47:48Z</time>
      </trkpt>
      <trkpt lat="43.1821590" lon="-5.8463000">
        <ele>520.4</ele>
        <time>2018-06-17T13:47:53Z</time>
      </trkpt>
      <trkpt lat="43.1822610" lon="-5.8463010">
        <ele>521.6</ele>
        <time>2018-06-17T13:48:00Z</time>
      </trkpt>
      <trkpt lat="43.1823340" lon="-5.8462880">
        <ele>522.8</ele>
        <time>2018-06-17T13:48:05Z</time>
      </trkpt>
      <trkpt lat="43.1824040" lon="-5.8462430">
        <ele>524.0</ele>
        <time>2018-06-17T13:48:12Z</time>
      </trkpt>
      <trkpt lat="43.1824350" lon="-5.8461980">
        <ele>525.0</ele>
        <time>2018-06-17T13:48:17Z</time>
      </trkpt>
      <trkpt lat="43.1824420" lon="-5.8461870">
        <ele>525.0</ele>
        <time>2018-06-17T13:48:18Z</time>
      </trkpt>
      <trkpt lat="43.1824970" lon="-5.8460930">
        <ele>526.2</ele>
        <time>2018-06-17T13:48:24Z</time>
      </trkpt>
      <trkpt lat="43.1825530" lon="-5.8459580">
        <ele>527.4</ele>
        <time>2018-06-17T13:48:31Z</time>
      </trkpt>
      <trkpt lat="43.1825990" lon="-5.8458570">
        <ele>528.6</ele>
        <time>2018-06-17T13:48:36Z</time>
      </trkpt>
      <trkpt lat="43.1826600" lon="-5.8457230">
        <ele>529.6</ele>
        <time>2018-06-17T13:48:43Z</time>
      </trkpt>
      <trkpt lat="43.1827250" lon="-5.8456010">
        <ele>531.2</ele>
        <time>2018-06-17T13:48:50Z</time>
      </trkpt>
      <trkpt lat="43.1827780" lon="-5.8455200">
        <ele>532.2</ele>
        <time>2018-06-17T13:48:55Z</time>
      </trkpt>
      <trkpt lat="43.1828350" lon="-5.8454620">
        <ele>533.4</ele>
        <time>2018-06-17T13:49:00Z</time>
      </trkpt>
      <trkpt lat="43.1828950" lon="-5.8453840">
        <ele>534.6</ele>
        <time>2018-06-17T13:49:05Z</time>
      </trkpt>
      <trkpt lat="43.1830150" lon="-5.8452550">
        <ele>535.6</ele>
        <time>2018-06-17T13:49:14Z</time>
      </trkpt>
      <trkpt lat="43.1830910" lon="-5.8451930">
        <ele>536.6</ele>
        <time>2018-06-17T13:49:19Z</time>
      </trkpt>
      <trkpt lat="43.1831610" lon="-5.8451360">
        <ele>537.8</ele>
        <time>2018-06-17T13:49:24Z</time>
      </trkpt>
      <trkpt lat="43.1832290" lon="-5.8451170">
        <ele>538.8</ele>
        <time>2018-06-17T13:49:30Z</time>
      </trkpt>
      <trkpt lat="43.1832490" lon="-5.8451210">
        <ele>539.0</ele>
        <time>2018-06-17T13:49:31Z</time>
      </trkpt>
      <trkpt lat="43.1833610" lon="-5.8451920">
        <ele>540.0</ele>
        <time>2018-06-17T13:49:37Z</time>
      </trkpt>
      <trkpt lat="43.1834330" lon="-5.8452440">
        <ele>541.0</ele>
        <time>2018-06-17T13:49:42Z</time>
      </trkpt>
      <trkpt lat="43.1835300" lon="-5.8452540">
        <ele>542.0</ele>
        <time>2018-06-17T13:49:49Z</time>
      </trkpt>
      <trkpt lat="43.1835410" lon="-5.8452460">
        <ele>542.2</ele>
        <time>2018-06-17T13:49:50Z</time>
      </trkpt>
      <trkpt lat="43.1836080" lon="-5.8452150">
        <ele>543.2</ele>
        <time>2018-06-17T13:49:54Z</time>
      </trkpt>
      <trkpt lat="43.1836780" lon="-5.8451620">
        <ele>544.2</ele>
        <time>2018-06-17T13:49:59Z</time>
      </trkpt>
      <trkpt lat="43.1838280" lon="-5.8451090">
        <ele>545.4</ele>
        <time>2018-06-17T13:50:06Z</time>
      </trkpt>
      <trkpt lat="43.1839000" lon="-5.8450560">
        <ele>546.4</ele>
        <time>2018-06-17T13:50:11Z</time>
      </trkpt>
      <trkpt lat="43.1840210" lon="-5.8449780">
        <ele>547.8</ele>
        <time>2018-06-17T13:50:18Z</time>
      </trkpt>
      <trkpt lat="43.1840850" lon="-5.8449180">
        <ele>548.8</ele>
        <time>2018-06-17T13:50:22Z</time>
      </trkpt>
      <trkpt lat="43.1841690" lon="-5.8448320">
        <ele>550.0</ele>
        <time>2018-06-17T13:50:28Z</time>
      </trkpt>
      <trkpt lat="43.1842420" lon="-5.8447490">
        <ele>551.0</ele>
        <time>2018-06-17T13:50:34Z</time>
      </trkpt>
      <trkpt lat="43.1843230" lon="-5.8446790">
        <ele>552.2</ele>
        <time>2018-06-17T13:50:40Z</time>
      </trkpt>
      <trkpt lat="43.1844140" lon="-5.8445920">
        <ele>553.4</ele>
        <time>2018-06-17T13:50:47Z</time>
      </trkpt>
      <trkpt lat="43.1844680" lon="-5.8445430">
        <ele>554.4</ele>
        <time>2018-06-17T13:50:52Z</time>
      </trkpt>
      <trkpt lat="43.1845430" lon="-5.8444550">
        <ele>555.6</ele>
        <time>2018-06-17T13:50:59Z</time>
      </trkpt>
      <trkpt lat="43.1845920" lon="-5.8443610">
        <ele>556.4</ele>
        <time>2018-06-17T13:51:07Z</time>
      </trkpt>
      <trkpt lat="43.1845940" lon="-5.8443500">
        <ele>556.6</ele>
        <time>2018-06-17T13:51:08Z</time>
      </trkpt>
      <trkpt lat="43.1845990" lon="-5.8443330">
        <ele>556.8</ele>
        <time>2018-06-17T13:51:09Z</time>
      </trkpt>
      <trkpt lat="43.1846320" lon="-5.8442550">
        <ele>557.6</ele>
        <time>2018-06-17T13:51:13Z</time>
      </trkpt>
      <trkpt lat="43.1846740" lon="-5.8441480">
        <ele>558.6</ele>
        <time>2018-06-17T13:51:18Z</time>
      </trkpt>
      <trkpt lat="43.1846920" lon="-5.8441030">
        <ele>558.8</ele>
        <time>2018-06-17T13:51:20Z</time>
      </trkpt>
      <trkpt lat="43.1847320" lon="-5.8440230">
        <ele>559.8</ele>
        <time>2018-06-17T13:51:25Z</time>
      </trkpt>
      <trkpt lat="43.1847800" lon="-5.8439260">
        <ele>560.8</ele>
        <time>2018-06-17T13:51:30Z</time>
      </trkpt>
      <trkpt lat="43.1848460" lon="-5.8438140">
        <ele>561.8</ele>
        <time>2018-06-17T13:51:36Z</time>
      </trkpt>
      <trkpt lat="43.1849340" lon="-5.8437310">
        <ele>562.8</ele>
        <time>2018-06-17T13:51:41Z</time>
      </trkpt>
      <trkpt lat="43.1849480" lon="-5.8437190">
        <ele>563.0</ele>
        <time>2018-06-17T13:51:42Z</time>
      </trkpt>
      <trkpt lat="43.1850420" lon="-5.8436260">
        <ele>564.0</ele>
        <time>2018-06-17T13:51:49Z</time>
      </trkpt>
      <trkpt lat="43.1851400" lon="-5.8435530">
        <ele>565.0</ele>
        <time>2018-06-17T13:51:55Z</time>
      </trkpt>
      <trkpt lat="43.1852290" lon="-5.8435150">
        <ele>565.8</ele>
        <time>2018-06-17T13:52:00Z</time>
      </trkpt>
      <trkpt lat="43.1852600" lon="-5.8434880">
        <ele>566.8</ele>
        <time>2018-06-17T13:52:06Z</time>
      </trkpt>
      <trkpt lat="43.1853270" lon="-5.8433520">
        <ele>568.0</ele>
        <time>2018-06-17T13:52:15Z</time>
      </trkpt>
      <trkpt lat="43.1853540" lon="-5.8432400">
        <ele>568.8</ele>
        <time>2018-06-17T13:52:20Z</time>
      </trkpt>
      <trkpt lat="43.1853650" lon="-5.8432220">
        <ele>569.0</ele>
        <time>2018-06-17T13:52:21Z</time>
      </trkpt>
      <trkpt lat="43.1854390" lon="-5.8430410">
        <ele>569.8</ele>
        <time>2018-06-17T13:52:28Z</time>
      </trkpt>
      <trkpt lat="43.1854580" lon="-5.8429920">
        <ele>570.0</ele>
        <time>2018-06-17T13:52:30Z</time>
      </trkpt>
      <trkpt lat="43.1855500" lon="-5.8428530">
        <ele>570.8</ele>
        <time>2018-06-17T13:52:36Z</time>
      </trkpt>
      <trkpt lat="43.1856310" lon="-5.8427010">
        <ele>571.6</ele>
        <time>2018-06-17T13:52:43Z</time>
      </trkpt>
      <trkpt lat="43.1857790" lon="-5.8424890">
        <ele>572.6</ele>
        <time>2018-06-17T13:52:52Z</time>
      </trkpt>
      <trkpt lat="43.1859470" lon="-5.8423680">
        <ele>573.6</ele>
        <time>2018-06-17T13:53:01Z</time>
      </trkpt>
      <trkpt lat="43.1859730" lon="-5.8423350">
        <ele>574.0</ele>
        <time>2018-06-17T13:53:04Z</time>
      </trkpt>
      <trkpt lat="43.1859880" lon="-5.8423190">
        <ele>574.6</ele>
        <time>2018-06-17T13:53:07Z</time>
      </trkpt>
      <trkpt lat="43.1860010" lon="-5.8423180">
        <ele>574.8</ele>
        <time>2018-06-17T13:53:08Z</time>
      </trkpt>
      <trkpt lat="43.1862210" lon="-5.8423020">
        <ele>576.2</ele>
        <time>2018-06-17T13:53:19Z</time>
      </trkpt>
      <trkpt lat="43.1863400" lon="-5.8423080">
        <ele>576.8</ele>
        <time>2018-06-17T13:53:23Z</time>
      </trkpt>
      <trkpt lat="43.1863920" lon="-5.8423060">
        <ele>577.0</ele>
        <time>2018-06-17T13:53:25Z</time>
      </trkpt>
      <trkpt lat="43.1865100" lon="-5.8422320">
        <ele>578.2</ele>
        <time>2018-06-17T13:53:33Z</time>
      </trkpt>
      <trkpt lat="43.1865970" lon="-5.8422310">
        <ele>578.8</ele>
        <time>2018-06-17T13:53:39Z</time>
      </trkpt>
      <trkpt lat="43.1866960" lon="-5.8422380">
        <ele>579.2</ele>
        <time>2018-06-17T13:53:42Z</time>
      </trkpt>
      <trkpt lat="43.1868270" lon="-5.8422440">
        <ele>580.2</ele>
        <time>2018-06-17T13:53:50Z</time>
      </trkpt>
      <trkpt lat="43.1869340" lon="-5.8421810">
        <ele>581.2</ele>
        <time>2018-06-17T13:53:56Z</time>
      </trkpt>
      <trkpt lat="43.1870940" lon="-5.8420980">
        <ele>582.4</ele>
        <time>2018-06-17T13:54:03Z</time>
      </trkpt>
      <trkpt lat="43.1871810" lon="-5.8420260">
        <ele>583.2</ele>
        <time>2018-06-17T13:54:09Z</time>
      </trkpt>
      <trkpt lat="43.1871890" lon="-5.8420180">
        <ele>583.4</ele>
        <time>2018-06-17T13:54:10Z</time>
      </trkpt>
      <trkpt lat="43.1873120" lon="-5.8420210">
        <ele>584.2</ele>
        <time>2018-06-17T13:54:16Z</time>
      </trkpt>
      <trkpt lat="43.1873880" lon="-5.8420610">
        <ele>584.6</ele>
        <time>2018-06-17T13:54:18Z</time>
      </trkpt>
      <trkpt lat="43.1875490" lon="-5.8420890">
        <ele>585.2</ele>
        <time>2018-06-17T13:54:23Z</time>
      </trkpt>
      <trkpt lat="43.1876410" lon="-5.8421430">
        <ele>586.0</ele>
        <time>2018-06-17T13:54:27Z</time>
      </trkpt>
      <trkpt lat="43.1877180" lon="-5.8422080">
        <ele>586.4</ele>
        <time>2018-06-17T13:54:30Z</time>
      </trkpt>
      <trkpt lat="43.1877350" lon="-5.8422340">
        <ele>586.4</ele>
        <time>2018-06-17T13:54:31Z</time>
      </trkpt>
      <trkpt lat="43.1877990" lon="-5.8423850">
        <ele>587.2</ele>
        <time>2018-06-17T13:54:36Z</time>
      </trkpt>
      <trkpt lat="43.1879090" lon="-5.8425760">
        <ele>588.2</ele>
        <time>2018-06-17T13:54:43Z</time>
      </trkpt>
      <trkpt lat="43.1879100" lon="-5.8427920">
        <ele>589.2</ele>
        <time>2018-06-17T13:54:49Z</time>
      </trkpt>
      <trkpt lat="43.1878630" lon="-5.8430980">
        <ele>590.4</ele>
        <time>2018-06-17T13:54:58Z</time>
      </trkpt>
      <trkpt lat="43.1877870" lon="-5.8433690">
        <ele>591.4</ele>
        <time>2018-06-17T13:55:07Z</time>
      </trkpt>
      <trkpt lat="43.1877580" lon="-5.8435040">
        <ele>592.2</ele>
        <time>2018-06-17T13:55:12Z</time>
      </trkpt>
      <trkpt lat="43.1878160" lon="-5.8437050">
        <ele>593.4</ele>
        <time>2018-06-17T13:55:20Z</time>
      </trkpt>
      <trkpt lat="43.1879220" lon="-5.8437860">
        <ele>594.6</ele>
        <time>2018-06-17T13:55:26Z</time>
      </trkpt>
      <trkpt lat="43.1880320" lon="-5.8438880">
        <ele>595.6</ele>
        <time>2018-06-17T13:55:32Z</time>
      </trkpt>
      <trkpt lat="43.1882090" lon="-5.8441490">
        <ele>596.6</ele>
        <time>2018-06-17T13:55:44Z</time>
      </trkpt>
      <trkpt lat="43.1882840" lon="-5.8442530">
        <ele>597.2</ele>
        <time>2018-06-17T13:55:49Z</time>
      </trkpt>
      <trkpt lat="43.1883650" lon="-5.8443060">
        <ele>597.8</ele>
        <time>2018-06-17T13:55:53Z</time>
      </trkpt>
      <trkpt lat="43.1884710" lon="-5.8443280">
        <ele>599.0</ele>
        <time>2018-06-17T13:56:02Z</time>
      </trkpt>
      <trkpt lat="43.1885050" lon="-5.8443140">
        <ele>599.0</ele>
        <time>2018-06-17T13:56:04Z</time>
      </trkpt>
      <trkpt lat="43.1885940" lon="-5.8442720">
        <ele>600.4</ele>
        <time>2018-06-17T13:56:10Z</time>
      </trkpt>
      <trkpt lat="43.1886910" lon="-5.8442500">
        <ele>601.0</ele>
        <time>2018-06-17T13:56:17Z</time>
      </trkpt>
      <trkpt lat="43.1887180" lon="-5.8442650">
        <ele>601.4</ele>
        <time>2018-06-17T13:56:19Z</time>
      </trkpt>
      <trkpt lat="43.1890130" lon="-5.8442110">
        <ele>602.4</ele>
        <time>2018-06-17T13:56:29Z</time>
      </trkpt>
      <trkpt lat="43.1892760" lon="-5.8442250">
        <ele>603.4</ele>
        <time>2018-06-17T13:56:38Z</time>
      </trkpt>
      <trkpt lat="43.1892970" lon="-5.8442420">
        <ele>603.4</ele>
        <time>2018-06-17T13:56:39Z</time>
      </trkpt>
      <trkpt lat="43.1893650" lon="-5.8443040">
        <ele>603.8</ele>
        <time>2018-06-17T13:56:42Z</time>
      </trkpt>
      <trkpt lat="43.1894760" lon="-5.8443520">
        <ele>604.6</ele>
        <time>2018-06-17T13:56:47Z</time>
      </trkpt>
      <trkpt lat="43.1895730" lon="-5.8443470">
        <ele>605.4</ele>
        <time>2018-06-17T13:56:53Z</time>
      </trkpt>
      <trkpt lat="43.1896270" lon="-5.8443310">
        <ele>605.8</ele>
        <time>2018-06-17T13:56:55Z</time>
      </trkpt>
      <trkpt lat="43.1897270" lon="-5.8443140">
        <ele>606.8</ele>
        <time>2018-06-17T13:57:03Z</time>
      </trkpt>
      <trkpt lat="43.1898180" lon="-5.8442310">
        <ele>607.8</ele>
        <time>2018-06-17T13:57:10Z</time>
      </trkpt>
      <trkpt lat="43.1900450" lon="-5.8440830">
        <ele>609.2</ele>
        <time>2018-06-17T13:57:22Z</time>
      </trkpt>
      <trkpt lat="43.1902570" lon="-5.8439020">
        <ele>610.4</ele>
        <time>2018-06-17T13:57:31Z</time>
      </trkpt>
      <trkpt lat="43.1904670" lon="-5.8437320">
        <ele>611.6</ele>
        <time>2018-06-17T13:57:40Z</time>
      </trkpt>
      <trkpt lat="43.1907730" lon="-5.8437090">
        <ele>612.6</ele>
        <time>2018-06-17T13:57:52Z</time>
      </trkpt>
      <trkpt lat="43.1908090" lon="-5.8437030">
        <ele>613.0</ele>
        <time>2018-06-17T13:57:53Z</time>
      </trkpt>
      <trkpt lat="43.1909580" lon="-5.8436550">
        <ele>614.0</ele>
        <time>2018-06-17T13:57:59Z</time>
      </trkpt>
      <trkpt lat="43.1910650" lon="-5.8435830">
        <ele>615.0</ele>
        <time>2018-06-17T13:58:06Z</time>
      </trkpt>
      <trkpt lat="43.1911660" lon="-5.8434910">
        <ele>616.0</ele>
        <time>2018-06-17T13:58:14Z</time>
      </trkpt>
      <trkpt lat="43.1912510" lon="-5.8434360">
        <ele>617.4</ele>
        <time>2018-06-17T13:58:19Z</time>
      </trkpt>
      <trkpt lat="43.1914550" lon="-5.8434070">
        <ele>618.4</ele>
        <time>2018-06-17T13:58:27Z</time>
      </trkpt>
      <trkpt lat="43.1916980" lon="-5.8436340">
        <ele>619.4</ele>
        <time>2018-06-17T13:58:38Z</time>
      </trkpt>
      <trkpt lat="43.1917570" lon="-5.8437800">
        <ele>620.4</ele>
        <time>2018-06-17T13:58:44Z</time>
      </trkpt>
      <trkpt lat="43.1918290" lon="-5.8439390">
        <ele>621.6</ele>
        <time>2018-06-17T13:58:51Z</time>
      </trkpt>
      <trkpt lat="43.1919120" lon="-5.8441550">
        <ele>622.8</ele>
        <time>2018-06-17T13:59:00Z</time>
      </trkpt>
      <trkpt lat="43.1919740" lon="-5.8442860">
        <ele>624.0</ele>
        <time>2018-06-17T13:59:06Z</time>
      </trkpt>
      <trkpt lat="43.1920250" lon="-5.8443930">
        <ele>625.0</ele>
        <time>2018-06-17T13:59:11Z</time>
      </trkpt>
      <trkpt lat="43.1920930" lon="-5.8445340">
        <ele>626.2</ele>
        <time>2018-06-17T13:59:18Z</time>
      </trkpt>
      <trkpt lat="43.1921570" lon="-5.8446570">
        <ele>627.2</ele>
        <time>2018-06-17T13:59:24Z</time>
      </trkpt>
      <trkpt lat="43.1922220" lon="-5.8447840">
        <ele>628.2</ele>
        <time>2018-06-17T13:59:30Z</time>
      </trkpt>
      <trkpt lat="43.1922610" lon="-5.8448890">
        <ele>629.4</ele>
        <time>2018-06-17T13:59:35Z</time>
      </trkpt>
      <trkpt lat="43.1923120" lon="-5.8450060">
        <ele>630.6</ele>
        <time>2018-06-17T13:59:41Z</time>
      </trkpt>
      <trkpt lat="43.1923480" lon="-5.8450770">
        <ele>631.6</ele>
        <time>2018-06-17T13:59:45Z</time>
      </trkpt>
      <trkpt lat="43.1923970" lon="-5.8452090">
        <ele>632.8</ele>
        <time>2018-06-17T13:59:52Z</time>
      </trkpt>
      <trkpt lat="43.1924110" lon="-5.8453430">
        <ele>633.8</ele>
        <time>2018-06-17T13:59:57Z</time>
      </trkpt>
      <trkpt lat="43.1924160" lon="-5.8454480">
        <ele>634.8</ele>
        <time>2018-06-17T14:00:02Z</time>
      </trkpt>
      <trkpt lat="43.1924600" lon="-5.8455650">
        <ele>636.0</ele>
        <time>2018-06-17T14:00:09Z</time>
      </trkpt>
      <trkpt lat="43.1924830" lon="-5.8456400">
        <ele>637.0</ele>
        <time>2018-06-17T14:00:14Z</time>
      </trkpt>
      <trkpt lat="43.1924890" lon="-5.8456660">
        <ele>637.2</ele>
        <time>2018-06-17T14:00:15Z</time>
      </trkpt>
      <trkpt lat="43.1925120" lon="-5.8457450">
        <ele>638.2</ele>
        <time>2018-06-17T14:00:19Z</time>
      </trkpt>
      <trkpt lat="43.1925690" lon="-5.8458390">
        <ele>639.6</ele>
        <time>2018-06-17T14:00:25Z</time>
      </trkpt>
      <trkpt lat="43.1925860" lon="-5.8459690">
        <ele>640.8</ele>
        <time>2018-06-17T14:00:30Z</time>
      </trkpt>
      <trkpt lat="43.1925850" lon="-5.8460060">
        <ele>641.0</ele>
        <time>2018-06-17T14:00:31Z</time>
      </trkpt>
      <trkpt lat="43.1926490" lon="-5.8460870">
        <ele>641.8</ele>
        <time>2018-06-17T14:00:36Z</time>
      </trkpt>
      <trkpt lat="43.1927110" lon="-5.8461260">
        <ele>642.8</ele>
        <time>2018-06-17T14:00:42Z</time>
      </trkpt>
      <trkpt lat="43.1927910" lon="-5.8461270">
        <ele>644.2</ele>
        <time>2018-06-17T14:00:48Z</time>
      </trkpt>
      <trkpt lat="43.1928210" lon="-5.8461390">
        <ele>644.4</ele>
        <time>2018-06-17T14:00:49Z</time>
      </trkpt>
      <trkpt lat="43.1929000" lon="-5.8461290">
        <ele>645.2</ele>
        <time>2018-06-17T14:00:53Z</time>
      </trkpt>
      <trkpt lat="43.1929010" lon="-5.8461380">
        <ele>645.2</ele>
        <time>2018-06-17T14:00:54Z</time>
      </trkpt>
      <trkpt lat="43.1930130" lon="-5.8461430">
        <ele>647.4</ele>
        <time>2018-06-17T14:01:06Z</time>
      </trkpt>
      <trkpt lat="43.1931520" lon="-5.8463190">
        <ele>648.6</ele>
        <time>2018-06-17T14:01:13Z</time>
      </trkpt>
      <trkpt lat="43.1932500" lon="-5.8464250">
        <ele>650.0</ele>
        <time>2018-06-17T14:01:19Z</time>
      </trkpt>
      <trkpt lat="43.1932720" lon="-5.8464670">
        <ele>650.2</ele>
        <time>2018-06-17T14:01:21Z</time>
      </trkpt>
      <trkpt lat="43.1933320" lon="-5.8465360">
        <ele>651.0</ele>
        <time>2018-06-17T14:01:26Z</time>
      </trkpt>
      <trkpt lat="43.1933630" lon="-5.8465510">
        <ele>651.2</ele>
        <time>2018-06-17T14:01:28Z</time>
      </trkpt>
      <trkpt lat="43.1934000" lon="-5.8465620">
        <ele>652.2</ele>
        <time>2018-06-17T14:01:31Z</time>
      </trkpt>
      <trkpt lat="43.1934130" lon="-5.8465720">
        <ele>652.6</ele>
        <time>2018-06-17T14:01:32Z</time>
      </trkpt>
      <trkpt lat="43.1935120" lon="-5.8465760">
        <ele>654.2</ele>
        <time>2018-06-17T14:01:40Z</time>
      </trkpt>
      <trkpt lat="43.1935290" lon="-5.8464720">
        <ele>655.4</ele>
        <time>2018-06-17T14:01:45Z</time>
      </trkpt>
      <trkpt lat="43.1934860" lon="-5.8463110">
        <ele>656.4</ele>
        <time>2018-06-17T14:01:53Z</time>
      </trkpt>
      <trkpt lat="43.1934390" lon="-5.8461780">
        <ele>657.6</ele>
        <time>2018-06-17T14:01:59Z</time>
      </trkpt>
      <trkpt lat="43.1933820" lon="-5.8459880">
        <ele>658.8</ele>
        <time>2018-06-17T14:02:06Z</time>
      </trkpt>
      <trkpt lat="43.1932990" lon="-5.8458860">
        <ele>660.2</ele>
        <time>2018-06-17T14:02:12Z</time>
      </trkpt>
      <trkpt lat="43.1931870" lon="-5.8457940">
        <ele>661.4</ele>
        <time>2018-06-17T14:02:20Z</time>
      </trkpt>
      <trkpt lat="43.1931170" lon="-5.8457570">
        <ele>662.6</ele>
        <time>2018-06-17T14:02:25Z</time>
      </trkpt>
      <trkpt lat="43.1930600" lon="-5.8457540">
        <ele>663.6</ele>
        <time>2018-06-17T14:02:29Z</time>
      </trkpt>
      <trkpt lat="43.1929470" lon="-5.8456370">
        <ele>664.8</ele>
        <time>2018-06-17T14:02:36Z</time>
      </trkpt>
      <trkpt lat="43.1929160" lon="-5.8455390">
        <ele>665.8</ele>
        <time>2018-06-17T14:02:41Z</time>
      </trkpt>
      <trkpt lat="43.1929160" lon="-5.8454290">
        <ele>666.8</ele>
        <time>2018-06-17T14:02:46Z</time>
      </trkpt>
      <trkpt lat="43.1929310" lon="-5.8452990">
        <ele>668.0</ele>
        <time>2018-06-17T14:02:52Z</time>
      </trkpt>
      <trkpt lat="43.1929500" lon="-5.8451940">
        <ele>669.2</ele>
        <time>2018-06-17T14:02:57Z</time>
      </trkpt>
      <trkpt lat="43.1929730" lon="-5.8451000">
        <ele>670.4</ele>
        <time>2018-06-17T14:03:02Z</time>
      </trkpt>
      <trkpt lat="43.1930060" lon="-5.8449640">
        <ele>671.6</ele>
        <time>2018-06-17T14:03:08Z</time>
      </trkpt>
      <trkpt lat="43.1930590" lon="-5.8448710">
        <ele>672.6</ele>
        <time>2018-06-17T14:03:12Z</time>
      </trkpt>
      <trkpt lat="43.1931720" lon="-5.8448560">
        <ele>674.0</ele>
        <time>2018-06-17T14:03:19Z</time>
      </trkpt>
      <trkpt lat="43.1932250" lon="-5.8449130">
        <ele>675.0</ele>
        <time>2018-06-17T14:03:23Z</time>
      </trkpt>
      <trkpt lat="43.1932340" lon="-5.8450300">
        <ele>676.2</ele>
        <time>2018-06-17T14:03:29Z</time>
      </trkpt>
      <trkpt lat="43.1932200" lon="-5.8451530">
        <ele>677.2</ele>
        <time>2018-06-17T14:03:35Z</time>
      </trkpt>
      <trkpt lat="43.1932170" lon="-5.8452270">
        <ele>678.2</ele>
        <time>2018-06-17T14:03:40Z</time>
      </trkpt>
      <trkpt lat="43.1932180" lon="-5.8452620">
        <ele>678.6</ele>
        <time>2018-06-17T14:03:42Z</time>
      </trkpt>
      <trkpt lat="43.1932140" lon="-5.8453300">
        <ele>679.4</ele>
        <time>2018-06-17T14:03:45Z</time>
      </trkpt>
      <trkpt lat="43.1932170" lon="-5.8453490">
        <ele>679.8</ele>
        <time>2018-06-17T14:03:46Z</time>
      </trkpt>
      <trkpt lat="43.1932460" lon="-5.8453890">
        <ele>680.6</ele>
        <time>2018-06-17T14:03:49Z</time>
      </trkpt>
      <trkpt lat="43.1933440" lon="-5.8454500">
        <ele>682.0</ele>
        <time>2018-06-17T14:03:56Z</time>
      </trkpt>
      <trkpt lat="43.1934260" lon="-5.8454870">
        <ele>683.0</ele>
        <time>2018-06-17T14:04:01Z</time>
      </trkpt>
      <trkpt lat="43.1935360" lon="-5.8455170">
        <ele>684.4</ele>
        <time>2018-06-17T14:04:09Z</time>
      </trkpt>
      <trkpt lat="43.1935950" lon="-5.8455370">
        <ele>685.2</ele>
        <time>2018-06-17T14:04:13Z</time>
      </trkpt>
      <trkpt lat="43.1936650" lon="-5.8455750">
        <ele>686.4</ele>
        <time>2018-06-17T14:04:18Z</time>
      </trkpt>
      <trkpt lat="43.1937110" lon="-5.8455960">
        <ele>687.4</ele>
        <time>2018-06-17T14:04:22Z</time>
      </trkpt>
      <trkpt lat="43.1938180" lon="-5.8456470">
        <ele>688.6</ele>
        <time>2018-06-17T14:04:31Z</time>
      </trkpt>
      <trkpt lat="43.1939100" lon="-5.8456840">
        <ele>689.8</ele>
        <time>2018-06-17T14:04:38Z</time>
      </trkpt>
      <trkpt lat="43.1939980" lon="-5.8457320">
        <ele>690.8</ele>
        <time>2018-06-17T14:04:43Z</time>
      </trkpt>
      <trkpt lat="43.1940830" lon="-5.8458150">
        <ele>691.8</ele>
        <time>2018-06-17T14:04:49Z</time>
      </trkpt>
      <trkpt lat="43.1941560" lon="-5.8458620">
        <ele>692.8</ele>
        <time>2018-06-17T14:04:54Z</time>
      </trkpt>
      <trkpt lat="43.1942160" lon="-5.8458850">
        <ele>694.2</ele>
        <time>2018-06-17T14:04:58Z</time>
      </trkpt>
      <trkpt lat="43.1942500" lon="-5.8458830">
        <ele>694.8</ele>
        <time>2018-06-17T14:05:00Z</time>
      </trkpt>
      <trkpt lat="43.1942760" lon="-5.8458500">
        <ele>695.2</ele>
        <time>2018-06-17T14:05:02Z</time>
      </trkpt>
      <trkpt lat="43.1943090" lon="-5.8458050">
        <ele>696.4</ele>
        <time>2018-06-17T14:05:05Z</time>
      </trkpt>
      <trkpt lat="43.1943120" lon="-5.8457850">
        <ele>696.6</ele>
        <time>2018-06-17T14:05:06Z</time>
      </trkpt>
      <trkpt lat="43.1943060" lon="-5.8457330">
        <ele>697.4</ele>
        <time>2018-06-17T14:05:09Z</time>
      </trkpt>
      <trkpt lat="43.1942330" lon="-5.8456500">
        <ele>698.4</ele>
        <time>2018-06-17T14:05:15Z</time>
      </trkpt>
      <trkpt lat="43.1941840" lon="-5.8455890">
        <ele>699.0</ele>
        <time>2018-06-17T14:05:19Z</time>
      </trkpt>
      <trkpt lat="43.1941370" lon="-5.8455280">
        <ele>699.6</ele>
        <time>2018-06-17T14:05:23Z</time>
      </trkpt>
      <trkpt lat="43.1940940" lon="-5.8454650">
        <ele>700.2</ele>
        <time>2018-06-17T14:05:27Z</time>
      </trkpt>
      <trkpt lat="43.1940840" lon="-5.8454530">
        <ele>700.4</ele>
        <time>2018-06-17T14:05:28Z</time>
      </trkpt>
      <trkpt lat="43.1940490" lon="-5.8454200">
        <ele>701.0</ele>
        <time>2018-06-17T14:05:31Z</time>
      </trkpt>
      <trkpt lat="43.1940230" lon="-5.8453950">
        <ele>701.4</ele>
        <time>2018-06-17T14:05:33Z</time>
      </trkpt>
      <trkpt lat="43.1939610" lon="-5.8453260">
        <ele>702.6</ele>
        <time>2018-06-17T14:05:38Z</time>
      </trkpt>
      <trkpt lat="43.1939070" lon="-5.8452320">
        <ele>703.6</ele>
        <time>2018-06-17T14:05:44Z</time>
      </trkpt>
      <trkpt lat="43.1938610" lon="-5.8451590">
        <ele>704.6</ele>
        <time>2018-06-17T14:05:49Z</time>
      </trkpt>
      <trkpt lat="43.1938630" lon="-5.8450490">
        <ele>705.6</ele>
        <time>2018-06-17T14:05:54Z</time>
      </trkpt>
      <trkpt lat="43.1938850" lon="-5.8449620">
        <ele>706.8</ele>
        <time>2018-06-17T14:05:58Z</time>
      </trkpt>
      <trkpt lat="43.1939490" lon="-5.8448790">
        <ele>707.8</ele>
        <time>2018-06-17T14:06:04Z</time>
      </trkpt>
      <trkpt lat="43.1940070" lon="-5.8448520">
        <ele>709.2</ele>
        <time>2018-06-17T14:06:09Z</time>
      </trkpt>
      <trkpt lat="43.1940560" lon="-5.8448500">
        <ele>710.0</ele>
        <time>2018-06-17T14:06:12Z</time>
      </trkpt>
      <trkpt lat="43.1940750" lon="-5.8448610">
        <ele>710.2</ele>
        <time>2018-06-17T14:06:13Z</time>
      </trkpt>
      <trkpt lat="43.1941210" lon="-5.8449510">
        <ele>711.0</ele>
        <time>2018-06-17T14:06:17Z</time>
      </trkpt>
      <trkpt lat="43.1941270" lon="-5.8449720">
        <ele>711.2</ele>
        <time>2018-06-17T14:06:18Z</time>
      </trkpt>
      <trkpt lat="43.1941350" lon="-5.8449990">
        <ele>711.6</ele>
        <time>2018-06-17T14:06:20Z</time>
      </trkpt>
      <trkpt lat="43.1941540" lon="-5.8450530">
        <ele>712.2</ele>
        <time>2018-06-17T14:06:24Z</time>
      </trkpt>
      <trkpt lat="43.1941810" lon="-5.8450940">
        <ele>713.4</ele>
        <time>2018-06-17T14:06:28Z</time>
      </trkpt>
      <trkpt lat="43.1942480" lon="-5.8451690">
        <ele>714.2</ele>
        <time>2018-06-17T14:06:35Z</time>
      </trkpt>
      <trkpt lat="43.1942760" lon="-5.8451890">
        <ele>714.8</ele>
        <time>2018-06-17T14:06:37Z</time>
      </trkpt>
      <trkpt lat="43.1943540" lon="-5.8452030">
        <ele>715.4</ele>
        <time>2018-06-17T14:06:40Z</time>
      </trkpt>
      <trkpt lat="43.1944470" lon="-5.8452470">
        <ele>716.4</ele>
        <time>2018-06-17T14:06:46Z</time>
      </trkpt>
      <trkpt lat="43.1945720" lon="-5.8452830">
        <ele>717.4</ele>
        <time>2018-06-17T14:06:52Z</time>
      </trkpt>
      <trkpt lat="43.1946450" lon="-5.8453580">
        <ele>718.4</ele>
        <time>2018-06-17T14:06:57Z</time>
      </trkpt>
      <trkpt lat="43.1947020" lon="-5.8454110">
        <ele>719.6</ele>
        <time>2018-06-17T14:07:01Z</time>
      </trkpt>
      <trkpt lat="43.1947250" lon="-5.8454360">
        <ele>719.8</ele>
        <time>2018-06-17T14:07:03Z</time>
      </trkpt>
      <trkpt lat="43.1947730" lon="-5.8455680">
        <ele>720.8</ele>
        <time>2018-06-17T14:07:09Z</time>
      </trkpt>
      <trkpt lat="43.1948060" lon="-5.8456460">
        <ele>721.8</ele>
        <time>2018-06-17T14:07:13Z</time>
      </trkpt>
      <trkpt lat="43.1948580" lon="-5.8457290">
        <ele>722.8</ele>
        <time>2018-06-17T14:07:18Z</time>
      </trkpt>
      <trkpt lat="43.1949110" lon="-5.8458290">
        <ele>724.0</ele>
        <time>2018-06-17T14:07:24Z</time>
      </trkpt>
      <trkpt lat="43.1949410" lon="-5.8459360">
        <ele>725.0</ele>
        <time>2018-06-17T14:07:29Z</time>
      </trkpt>
      <trkpt lat="43.1949730" lon="-5.8460230">
        <ele>726.0</ele>
        <time>2018-06-17T14:07:34Z</time>
      </trkpt>
      <trkpt lat="43.1950370" lon="-5.8461100">
        <ele>727.0</ele>
        <time>2018-06-17T14:07:41Z</time>
      </trkpt>
      <trkpt lat="43.1950840" lon="-5.8461720">
        <ele>728.0</ele>
        <time>2018-06-17T14:07:45Z</time>
      </trkpt>
      <trkpt lat="43.1951300" lon="-5.8462370">
        <ele>729.2</ele>
        <time>2018-06-17T14:07:50Z</time>
      </trkpt>
      <trkpt lat="43.1952090" lon="-5.8463220">
        <ele>730.4</ele>
        <time>2018-06-17T14:07:57Z</time>
      </trkpt>
      <trkpt lat="43.1952690" lon="-5.8463400">
        <ele>731.2</ele>
        <time>2018-06-17T14:08:02Z</time>
      </trkpt>
      <trkpt lat="43.1953400" lon="-5.8463270">
        <ele>732.4</ele>
        <time>2018-06-17T14:08:06Z</time>
      </trkpt>
      <trkpt lat="43.1954360" lon="-5.8462430">
        <ele>733.4</ele>
        <time>2018-06-17T14:08:12Z</time>
      </trkpt>
      <trkpt lat="43.1955060" lon="-5.8461710">
        <ele>734.6</ele>
        <time>2018-06-17T14:08:17Z</time>
      </trkpt>
      <trkpt lat="43.1955990" lon="-5.8461160">
        <ele>735.8</ele>
        <time>2018-06-17T14:08:23Z</time>
      </trkpt>
      <trkpt lat="43.1956740" lon="-5.8461360">
        <ele>736.8</ele>
        <time>2018-06-17T14:08:28Z</time>
      </trkpt>
      <trkpt lat="43.1957750" lon="-5.8462100">
        <ele>737.8</ele>
        <time>2018-06-17T14:08:35Z</time>
      </trkpt>
      <trkpt lat="43.1958240" lon="-5.8462520">
        <ele>739.0</ele>
        <time>2018-06-17T14:08:39Z</time>
      </trkpt>
      <trkpt lat="43.1958810" lon="-5.8463240">
        <ele>740.2</ele>
        <time>2018-06-17T14:08:44Z</time>
      </trkpt>
      <trkpt lat="43.1959410" lon="-5.8463900">
        <ele>741.0</ele>
        <time>2018-06-17T14:08:49Z</time>
      </trkpt>
      <trkpt lat="43.1960050" lon="-5.8464920">
        <ele>742.2</ele>
        <time>2018-06-17T14:08:55Z</time>
      </trkpt>
      <trkpt lat="43.1960400" lon="-5.8465740">
        <ele>743.4</ele>
        <time>2018-06-17T14:09:00Z</time>
      </trkpt>
      <trkpt lat="43.1960840" lon="-5.8466890">
        <ele>744.6</ele>
        <time>2018-06-17T14:09:07Z</time>
      </trkpt>
      <trkpt lat="43.1961220" lon="-5.8467910">
        <ele>745.6</ele>
        <time>2018-06-17T14:09:12Z</time>
      </trkpt>
      <trkpt lat="43.1961570" lon="-5.8468900">
        <ele>746.8</ele>
        <time>2018-06-17T14:09:17Z</time>
      </trkpt>
      <trkpt lat="43.1961880" lon="-5.8470230">
        <ele>747.8</ele>
        <time>2018-06-17T14:09:24Z</time>
      </trkpt>
      <trkpt lat="43.1962040" lon="-5.8471210">
        <ele>748.8</ele>
        <time>2018-06-17T14:09:29Z</time>
      </trkpt>
      <trkpt lat="43.1962090" lon="-5.8472270">
        <ele>750.0</ele>
        <time>2018-06-17T14:09:34Z</time>
      </trkpt>
      <trkpt lat="43.1962160" lon="-5.8473320">
        <ele>750.8</ele>
        <time>2018-06-17T14:09:39Z</time>
      </trkpt>
      <trkpt lat="43.1962390" lon="-5.8474580">
        <ele>752.0</ele>
        <time>2018-06-17T14:09:45Z</time>
      </trkpt>
      <trkpt lat="43.1962670" lon="-5.8476210">
        <ele>753.0</ele>
        <time>2018-06-17T14:09:53Z</time>
      </trkpt>
      <trkpt lat="43.1962660" lon="-5.8477070">
        <ele>754.0</ele>
        <time>2018-06-17T14:09:57Z</time>
      </trkpt>
      <trkpt lat="43.1962880" lon="-5.8477760">
        <ele>755.2</ele>
        <time>2018-06-17T14:10:01Z</time>
      </trkpt>
      <trkpt lat="43.1963160" lon="-5.8478060">
        <ele>756.2</ele>
        <time>2018-06-17T14:10:04Z</time>
      </trkpt>
      <trkpt lat="43.1963320" lon="-5.8478120">
        <ele>756.4</ele>
        <time>2018-06-17T14:10:05Z</time>
      </trkpt>
      <trkpt lat="43.1963910" lon="-5.8478310">
        <ele>757.4</ele>
        <time>2018-06-17T14:10:09Z</time>
      </trkpt>
      <trkpt lat="43.1964610" lon="-5.8478550">
        <ele>758.4</ele>
        <time>2018-06-17T14:10:14Z</time>
      </trkpt>
      <trkpt lat="43.1965320" lon="-5.8478750">
        <ele>759.4</ele>
        <time>2018-06-17T14:10:19Z</time>
      </trkpt>
      <trkpt lat="43.1965430" lon="-5.8478820">
        <ele>759.8</ele>
        <time>2018-06-17T14:10:20Z</time>
      </trkpt>
      <trkpt lat="43.1966120" lon="-5.8479040">
        <ele>760.4</ele>
        <time>2018-06-17T14:10:26Z</time>
      </trkpt>
      <trkpt lat="43.1966650" lon="-5.8479340">
        <ele>761.6</ele>
        <time>2018-06-17T14:10:31Z</time>
      </trkpt>
      <trkpt lat="43.1967520" lon="-5.8479730">
        <ele>762.8</ele>
        <time>2018-06-17T14:10:38Z</time>
      </trkpt>
      <trkpt lat="43.1968630" lon="-5.8479780">
        <ele>763.6</ele>
        <time>2018-06-17T14:10:45Z</time>
      </trkpt>
      <trkpt lat="43.1969640" lon="-5.8480120">
        <ele>765.0</ele>
        <time>2018-06-17T14:10:50Z</time>
      </trkpt>
      <trkpt lat="43.1970610" lon="-5.8481180">
        <ele>766.2</ele>
        <time>2018-06-17T14:10:57Z</time>
      </trkpt>
      <trkpt lat="43.1971160" lon="-5.8481910">
        <ele>767.0</ele>
        <time>2018-06-17T14:11:01Z</time>
      </trkpt>
      <trkpt lat="43.1971300" lon="-5.8482090">
        <ele>767.2</ele>
        <time>2018-06-17T14:11:02Z</time>
      </trkpt>
      <trkpt lat="43.1971540" lon="-5.8483080">
        <ele>768.2</ele>
        <time>2018-06-17T14:11:07Z</time>
      </trkpt>
      <trkpt lat="43.1971840" lon="-5.8484260">
        <ele>769.2</ele>
        <time>2018-06-17T14:11:13Z</time>
      </trkpt>
      <trkpt lat="43.1971910" lon="-5.8485120">
        <ele>770.2</ele>
        <time>2018-06-17T14:11:17Z</time>
      </trkpt>
      <trkpt lat="43.1972010" lon="-5.8486400">
        <ele>771.4</ele>
        <time>2018-06-17T14:11:23Z</time>
      </trkpt>
      <trkpt lat="43.1971970" lon="-5.8487210">
        <ele>772.4</ele>
        <time>2018-06-17T14:11:27Z</time>
      </trkpt>
      <trkpt lat="43.1971970" lon="-5.8488510">
        <ele>773.4</ele>
        <time>2018-06-17T14:11:33Z</time>
      </trkpt>
      <trkpt lat="43.1972320" lon="-5.8489200">
        <ele>774.2</ele>
        <time>2018-06-17T14:11:37Z</time>
      </trkpt>
      <trkpt lat="43.1972930" lon="-5.8489630">
        <ele>775.4</ele>
        <time>2018-06-17T14:11:42Z</time>
      </trkpt>
      <trkpt lat="43.1973620" lon="-5.8489940">
        <ele>776.4</ele>
        <time>2018-06-17T14:11:47Z</time>
      </trkpt>
      <trkpt lat="43.1974230" lon="-5.8490280">
        <ele>777.4</ele>
        <time>2018-06-17T14:11:52Z</time>
      </trkpt>
      <trkpt lat="43.1975090" lon="-5.8490700">
        <ele>778.4</ele>
        <time>2018-06-17T14:11:59Z</time>
      </trkpt>
      <trkpt lat="43.1975780" lon="-5.8491260">
        <ele>779.4</ele>
        <time>2018-06-17T14:12:04Z</time>
      </trkpt>
      <trkpt lat="43.1976500" lon="-5.8491970">
        <ele>780.6</ele>
        <time>2018-06-17T14:12:09Z</time>
      </trkpt>
      <trkpt lat="43.1976940" lon="-5.8492670">
        <ele>781.8</ele>
        <time>2018-06-17T14:12:13Z</time>
      </trkpt>
      <trkpt lat="43.1977350" lon="-5.8493570">
        <ele>782.6</ele>
        <time>2018-06-17T14:12:18Z</time>
      </trkpt>
      <trkpt lat="43.1977390" lon="-5.8494230">
        <ele>783.6</ele>
        <time>2018-06-17T14:12:21Z</time>
      </trkpt>
      <trkpt lat="43.1977490" lon="-5.8495450">
        <ele>784.6</ele>
        <time>2018-06-17T14:12:27Z</time>
      </trkpt>
      <trkpt lat="43.1978000" lon="-5.8496540">
        <ele>786.0</ele>
        <time>2018-06-17T14:12:33Z</time>
      </trkpt>
      <trkpt lat="43.1978300" lon="-5.8497620">
        <ele>787.0</ele>
        <time>2018-06-17T14:12:38Z</time>
      </trkpt>
      <trkpt lat="43.1978780" lon="-5.8498840">
        <ele>788.2</ele>
        <time>2018-06-17T14:12:44Z</time>
      </trkpt>
      <trkpt lat="43.1978790" lon="-5.8500220">
        <ele>789.2</ele>
        <time>2018-06-17T14:12:50Z</time>
      </trkpt>
      <trkpt lat="43.1978940" lon="-5.8501430">
        <ele>790.2</ele>
        <time>2018-06-17T14:12:56Z</time>
      </trkpt>
      <trkpt lat="43.1979050" lon="-5.8502470">
        <ele>791.4</ele>
        <time>2018-06-17T14:13:01Z</time>
      </trkpt>
      <trkpt lat="43.1979190" lon="-5.8503800">
        <ele>792.4</ele>
        <time>2018-06-17T14:13:07Z</time>
      </trkpt>
      <trkpt lat="43.1979160" lon="-5.8504970">
        <ele>793.4</ele>
        <time>2018-06-17T14:13:12Z</time>
      </trkpt>
      <trkpt lat="43.1979090" lon="-5.8506110">
        <ele>794.4</ele>
        <time>2018-06-17T14:13:17Z</time>
      </trkpt>
      <trkpt lat="43.1978900" lon="-5.8507630">
        <ele>795.6</ele>
        <time>2018-06-17T14:13:24Z</time>
      </trkpt>
      <trkpt lat="43.1978720" lon="-5.8508630">
        <ele>796.6</ele>
        <time>2018-06-17T14:13:29Z</time>
      </trkpt>
      <trkpt lat="43.1978520" lon="-5.8509790">
        <ele>797.6</ele>
        <time>2018-06-17T14:13:34Z</time>
      </trkpt>
      <trkpt lat="43.1978800" lon="-5.8510640">
        <ele>798.6</ele>
        <time>2018-06-17T14:13:38Z</time>
      </trkpt>
      <trkpt lat="43.1979360" lon="-5.8510960">
        <ele>799.6</ele>
        <time>2018-06-17T14:13:42Z</time>
      </trkpt>
      <trkpt lat="43.1980030" lon="-5.8510910">
        <ele>800.8</ele>
        <time>2018-06-17T14:13:46Z</time>
      </trkpt>
      <trkpt lat="43.1980690" lon="-5.8510840">
        <ele>801.8</ele>
        <time>2018-06-17T14:13:50Z</time>
      </trkpt>
      <trkpt lat="43.1981630" lon="-5.8510620">
        <ele>803.0</ele>
        <time>2018-06-17T14:13:55Z</time>
      </trkpt>
      <trkpt lat="43.1982390" lon="-5.8510460">
        <ele>804.0</ele>
        <time>2018-06-17T14:14:00Z</time>
      </trkpt>
      <trkpt lat="43.1983590" lon="-5.8510450">
        <ele>805.0</ele>
        <time>2018-06-17T14:14:06Z</time>
      </trkpt>
      <trkpt lat="43.1984620" lon="-5.8510060">
        <ele>806.2</ele>
        <time>2018-06-17T14:14:12Z</time>
      </trkpt>
      <trkpt lat="43.1986520" lon="-5.8510780">
        <ele>806.6</ele>
        <time>2018-06-17T14:14:22Z</time>
      </trkpt>
      <trkpt lat="43.1987820" lon="-5.8512750">
        <ele>806.4</ele>
        <time>2018-06-17T14:14:31Z</time>
      </trkpt>
      <trkpt lat="43.1988020" lon="-5.8514060">
        <ele>805.8</ele>
        <time>2018-06-17T14:14:34Z</time>
      </trkpt>
      <trkpt lat="43.1988090" lon="-5.8514950">
        <ele>805.6</ele>
        <time>2018-06-17T14:14:36Z</time>
      </trkpt>
      <trkpt lat="43.1988090" lon="-5.8515880">
        <ele>805.4</ele>
        <time>2018-06-17T14:14:38Z</time>
      </trkpt>
      <trkpt lat="43.1988090" lon="-5.8516800">
        <ele>804.8</ele>
        <time>2018-06-17T14:14:40Z</time>
      </trkpt>
      <trkpt lat="43.1988130" lon="-5.8517620">
        <ele>804.0</ele>
        <time>2018-06-17T14:14:42Z</time>
      </trkpt>
      <trkpt lat="43.1988240" lon="-5.8518280">
        <ele>803.6</ele>
        <time>2018-06-17T14:14:44Z</time>
      </trkpt>
      <trkpt lat="43.1988890" lon="-5.8521050">
        <ele>802.2</ele>
        <time>2018-06-17T14:14:50Z</time>
      </trkpt>
      <trkpt lat="43.1988990" lon="-5.8522440">
        <ele>801.6</ele>
        <time>2018-06-17T14:14:52Z</time>
      </trkpt>
      <trkpt lat="43.1989010" lon="-5.8523200">
        <ele>801.0</ele>
        <time>2018-06-17T14:14:53Z</time>
      </trkpt>
      <trkpt lat="43.1988980" lon="-5.8524860">
        <ele>800.2</ele>
        <time>2018-06-17T14:14:55Z</time>
      </trkpt>
      <trkpt lat="43.1988890" lon="-5.8525770">
        <ele>799.8</ele>
        <time>2018-06-17T14:14:56Z</time>
      </trkpt>
      <trkpt lat="43.1988600" lon="-5.8527720">
        <ele>798.4</ele>
        <time>2018-06-17T14:14:58Z</time>
      </trkpt>
      <trkpt lat="43.1988600" lon="-5.8531110">
        <ele>797.2</ele>
        <time>2018-06-17T14:15:01Z</time>
      </trkpt>
      <trkpt lat="43.1988780" lon="-5.8532330">
        <ele>796.4</ele>
        <time>2018-06-17T14:15:02Z</time>
      </trkpt>
      <trkpt lat="43.1989030" lon="-5.8533540">
        <ele>795.6</ele>
        <time>2018-06-17T14:15:03Z</time>
      </trkpt>
      <trkpt lat="43.1989630" lon="-5.8536090">
        <ele>794.4</ele>
        <time>2018-06-17T14:15:05Z</time>
      </trkpt>
      <trkpt lat="43.1990070" lon="-5.8537310">
        <ele>793.6</ele>
        <time>2018-06-17T14:15:06Z</time>
      </trkpt>
      <trkpt lat="43.1990660" lon="-5.8538450">
        <ele>792.4</ele>
        <time>2018-06-17T14:15:07Z</time>
      </trkpt>
      <trkpt lat="43.1991960" lon="-5.8540660">
        <ele>791.0</ele>
        <time>2018-06-17T14:15:09Z</time>
      </trkpt>
      <trkpt lat="43.1993320" lon="-5.8542820">
        <ele>789.8</ele>
        <time>2018-06-17T14:15:11Z</time>
      </trkpt>
      <trkpt lat="43.1994500" lon="-5.8545000">
        <ele>788.8</ele>
        <time>2018-06-17T14:15:13Z</time>
      </trkpt>
      <trkpt lat="43.1994480" lon="-5.8549070">
        <ele>787.0</ele>
        <time>2018-06-17T14:15:16Z</time>
      </trkpt>
      <trkpt lat="43.1994070" lon="-5.8550430">
        <ele>785.8</ele>
        <time>2018-06-17T14:15:17Z</time>
      </trkpt>
      <trkpt lat="43.1993700" lon="-5.8551900">
        <ele>784.6</ele>
        <time>2018-06-17T14:15:18Z</time>
      </trkpt>
      <trkpt lat="43.1993440" lon="-5.8553450">
        <ele>784.0</ele>
        <time>2018-06-17T14:15:19Z</time>
      </trkpt>
      <trkpt lat="43.1993430" lon="-5.8558170">
        <ele>782.2</ele>
        <time>2018-06-17T14:15:22Z</time>
      </trkpt>
      <trkpt lat="43.1993630" lon="-5.8559650">
        <ele>781.4</ele>
        <time>2018-06-17T14:15:23Z</time>
      </trkpt>
      <trkpt lat="43.1993980" lon="-5.8560940">
        <ele>780.6</ele>
        <time>2018-06-17T14:15:24Z</time>
      </trkpt>
      <trkpt lat="43.1995330" lon="-5.8563210">
        <ele>779.0</ele>
        <time>2018-06-17T14:15:26Z</time>
      </trkpt>
      <trkpt lat="43.1996900" lon="-5.8565350">
        <ele>777.6</ele>
        <time>2018-06-17T14:15:28Z</time>
      </trkpt>
      <trkpt lat="43.1998740" lon="-5.8567260">
        <ele>776.4</ele>
        <time>2018-06-17T14:15:30Z</time>
      </trkpt>
      <trkpt lat="43.2000710" lon="-5.8568700">
        <ele>774.8</ele>
        <time>2018-06-17T14:15:32Z</time>
      </trkpt>
      <trkpt lat="43.2003050" lon="-5.8569690">
        <ele>773.2</ele>
        <time>2018-06-17T14:15:34Z</time>
      </trkpt>
      <trkpt lat="43.2004070" lon="-5.8570380">
        <ele>772.4</ele>
        <time>2018-06-17T14:15:35Z</time>
      </trkpt>
      <trkpt lat="43.2004950" lon="-5.8571230">
        <ele>771.4</ele>
        <time>2018-06-17T14:15:36Z</time>
      </trkpt>
      <trkpt lat="43.2006370" lon="-5.8573200">
        <ele>770.4</ele>
        <time>2018-06-17T14:15:38Z</time>
      </trkpt>
      <trkpt lat="43.2006740" lon="-5.8574460">
        <ele>770.0</ele>
        <time>2018-06-17T14:15:39Z</time>
      </trkpt>
      <trkpt lat="43.2007030" lon="-5.8577260">
        <ele>768.2</ele>
        <time>2018-06-17T14:15:41Z</time>
      </trkpt>
      <trkpt lat="43.2007060" lon="-5.8578770">
        <ele>767.2</ele>
        <time>2018-06-17T14:15:42Z</time>
      </trkpt>
      <trkpt lat="43.2007020" lon="-5.8580350">
        <ele>765.8</ele>
        <time>2018-06-17T14:15:43Z</time>
      </trkpt>
      <trkpt lat="43.2007100" lon="-5.8581840">
        <ele>765.0</ele>
        <time>2018-06-17T14:15:44Z</time>
      </trkpt>
      <trkpt lat="43.2007170" lon="-5.8583280">
        <ele>764.6</ele>
        <time>2018-06-17T14:15:45Z</time>
      </trkpt>
      <trkpt lat="43.2007260" lon="-5.8584690">
        <ele>764.2</ele>
        <time>2018-06-17T14:15:46Z</time>
      </trkpt>
      <trkpt lat="43.2007440" lon="-5.8586020">
        <ele>763.6</ele>
        <time>2018-06-17T14:15:47Z</time>
      </trkpt>
      <trkpt lat="43.2007860" lon="-5.8587120">
        <ele>762.8</ele>
        <time>2018-06-17T14:15:48Z</time>
      </trkpt>
      <trkpt lat="43.2008500" lon="-5.8587830">
        <ele>762.2</ele>
        <time>2018-06-17T14:15:49Z</time>
      </trkpt>
      <trkpt lat="43.2010110" lon="-5.8588590">
        <ele>760.8</ele>
        <time>2018-06-17T14:15:51Z</time>
      </trkpt>
      <trkpt lat="43.2012050" lon="-5.8587830">
        <ele>759.6</ele>
        <time>2018-06-17T14:15:53Z</time>
      </trkpt>
      <trkpt lat="43.2014090" lon="-5.8585440">
        <ele>758.4</ele>
        <time>2018-06-17T14:15:55Z</time>
      </trkpt>
      <trkpt lat="43.2015000" lon="-5.8584350">
        <ele>757.4</ele>
        <time>2018-06-17T14:15:56Z</time>
      </trkpt>
      <trkpt lat="43.2015920" lon="-5.8583560">
        <ele>756.8</ele>
        <time>2018-06-17T14:15:57Z</time>
      </trkpt>
      <trkpt lat="43.2017730" lon="-5.8582300">
        <ele>755.4</ele>
        <time>2018-06-17T14:15:59Z</time>
      </trkpt>
      <trkpt lat="43.2018770" lon="-5.8581590">
        <ele>754.4</ele>
        <time>2018-06-17T14:16:00Z</time>
      </trkpt>
      <trkpt lat="43.2019770" lon="-5.8580650">
        <ele>753.8</ele>
        <time>2018-06-17T14:16:01Z</time>
      </trkpt>
      <trkpt lat="43.2020720" lon="-5.8579660">
        <ele>752.6</ele>
        <time>2018-06-17T14:16:02Z</time>
      </trkpt>
      <trkpt lat="43.2022690" lon="-5.8578080">
        <ele>750.8</ele>
        <time>2018-06-17T14:16:04Z</time>
      </trkpt>
      <trkpt lat="43.2024860" lon="-5.8577370">
        <ele>749.4</ele>
        <time>2018-06-17T14:16:06Z</time>
      </trkpt>
      <trkpt lat="43.2027100" lon="-5.8576620">
        <ele>747.6</ele>
        <time>2018-06-17T14:16:08Z</time>
      </trkpt>
      <trkpt lat="43.2029190" lon="-5.8576320">
        <ele>746.2</ele>
        <time>2018-06-17T14:16:10Z</time>
      </trkpt>
      <trkpt lat="43.2031330" lon="-5.8577180">
        <ele>745.0</ele>
        <time>2018-06-17T14:16:12Z</time>
      </trkpt>
      <trkpt lat="43.2032760" lon="-5.8579350">
        <ele>744.0</ele>
        <time>2018-06-17T14:16:14Z</time>
      </trkpt>
      <trkpt lat="43.2032920" lon="-5.8582300">
        <ele>742.8</ele>
        <time>2018-06-17T14:16:16Z</time>
      </trkpt>
      <trkpt lat="43.2033140" lon="-5.8585180">
        <ele>741.0</ele>
        <time>2018-06-17T14:16:18Z</time>
      </trkpt>
      <trkpt lat="43.2033840" lon="-5.8587920">
        <ele>739.6</ele>
        <time>2018-06-17T14:16:20Z</time>
      </trkpt>
      <trkpt lat="43.2034940" lon="-5.8590460">
        <ele>738.4</ele>
        <time>2018-06-17T14:16:22Z</time>
      </trkpt>
      <trkpt lat="43.2036160" lon="-5.8592940">
        <ele>737.0</ele>
        <time>2018-06-17T14:16:24Z</time>
      </trkpt>
      <trkpt lat="43.2037540" lon="-5.8595230">
        <ele>735.6</ele>
        <time>2018-06-17T14:16:26Z</time>
      </trkpt>
      <trkpt lat="43.2038280" lon="-5.8596300">
        <ele>734.4</ele>
        <time>2018-06-17T14:16:27Z</time>
      </trkpt>
      <trkpt lat="43.2039020" lon="-5.8597280">
        <ele>733.4</ele>
        <time>2018-06-17T14:16:28Z</time>
      </trkpt>
      <trkpt lat="43.2040730" lon="-5.8599010">
        <ele>732.0</ele>
        <time>2018-06-17T14:16:30Z</time>
      </trkpt>
      <trkpt lat="43.2041700" lon="-5.8599650">
        <ele>731.2</ele>
        <time>2018-06-17T14:16:31Z</time>
      </trkpt>
      <trkpt lat="43.2043110" lon="-5.8599800">
        <ele>730.4</ele>
        <time>2018-06-17T14:16:32Z</time>
      </trkpt>
      <trkpt lat="43.2045510" lon="-5.8599870">
        <ele>728.8</ele>
        <time>2018-06-17T14:16:34Z</time>
      </trkpt>
      <trkpt lat="43.2046690" lon="-5.8600010">
        <ele>728.2</ele>
        <time>2018-06-17T14:16:35Z</time>
      </trkpt>
      <trkpt lat="43.2047850" lon="-5.8600390">
        <ele>727.2</ele>
        <time>2018-06-17T14:16:36Z</time>
      </trkpt>
      <trkpt lat="43.2048810" lon="-5.8601160">
        <ele>725.8</ele>
        <time>2018-06-17T14:16:37Z</time>
      </trkpt>
      <trkpt lat="43.2050450" lon="-5.8603360">
        <ele>724.6</ele>
        <time>2018-06-17T14:16:39Z</time>
      </trkpt>
      <trkpt lat="43.2052490" lon="-5.8607290">
        <ele>723.4</ele>
        <time>2018-06-17T14:16:43Z</time>
      </trkpt>
      <trkpt lat="43.2052890" lon="-5.8608040">
        <ele>722.8</ele>
        <time>2018-06-17T14:16:44Z</time>
      </trkpt>
      <trkpt lat="43.2053460" lon="-5.8608500">
        <ele>722.2</ele>
        <time>2018-06-17T14:16:45Z</time>
      </trkpt>
      <trkpt lat="43.2054010" lon="-5.8608620">
        <ele>721.2</ele>
        <time>2018-06-17T14:16:46Z</time>
      </trkpt>
      <trkpt lat="43.2054730" lon="-5.8608640">
        <ele>720.4</ele>
        <time>2018-06-17T14:16:47Z</time>
      </trkpt>
      <trkpt lat="43.2056710" lon="-5.8608610">
        <ele>719.0</ele>
        <time>2018-06-17T14:16:49Z</time>
      </trkpt>
      <trkpt lat="43.2058660" lon="-5.8609050">
        <ele>717.8</ele>
        <time>2018-06-17T14:16:51Z</time>
      </trkpt>
      <trkpt lat="43.2061610" lon="-5.8607700">
        <ele>716.8</ele>
        <time>2018-06-17T14:16:54Z</time>
      </trkpt>
      <trkpt lat="43.2062550" lon="-5.8607150">
        <ele>716.4</ele>
        <time>2018-06-17T14:16:55Z</time>
      </trkpt>
      <trkpt lat="43.2063550" lon="-5.8606750">
        <ele>716.2</ele>
        <time>2018-06-17T14:16:56Z</time>
      </trkpt>
      <trkpt lat="43.2067420" lon="-5.8607070">
        <ele>715.6</ele>
        <time>2018-06-17T14:17:00Z</time>
      </trkpt>
      <trkpt lat="43.2068370" lon="-5.8607550">
        <ele>715.2</ele>
        <time>2018-06-17T14:17:01Z</time>
      </trkpt>
      <trkpt lat="43.2071340" lon="-5.8613600">
        <ele>714.6</ele>
        <time>2018-06-17T14:17:07Z</time>
      </trkpt>
      <trkpt lat="43.2071490" lon="-5.8614840">
        <ele>714.4</ele>
        <time>2018-06-17T14:17:08Z</time>
      </trkpt>
      <trkpt lat="43.2071740" lon="-5.8616070">
        <ele>714.2</ele>
        <time>2018-06-17T14:17:09Z</time>
      </trkpt>
      <trkpt lat="43.2073740" lon="-5.8622680">
        <ele>713.0</ele>
        <time>2018-06-17T14:17:15Z</time>
      </trkpt>
      <trkpt lat="43.2075940" lon="-5.8629710">
        <ele>711.8</ele>
        <time>2018-06-17T14:17:22Z</time>
      </trkpt>
      <trkpt lat="43.2076150" lon="-5.8630710">
        <ele>712.0</ele>
        <time>2018-06-17T14:17:23Z</time>
      </trkpt>
      <trkpt lat="43.2076160" lon="-5.8631790">
        <ele>711.8</ele>
        <time>2018-06-17T14:17:24Z</time>
      </trkpt>
      <trkpt lat="43.2072430" lon="-5.8637310">
        <ele>711.4</ele>
        <time>2018-06-17T14:17:32Z</time>
      </trkpt>
      <trkpt lat="43.2070200" lon="-5.8636740">
        <ele>711.0</ele>
        <time>2018-06-17T14:17:35Z</time>
      </trkpt>
      <trkpt lat="43.2069490" lon="-5.8636450">
        <ele>710.8</ele>
        <time>2018-06-17T14:17:36Z</time>
      </trkpt>
      <trkpt lat="43.2066060" lon="-5.8634300">
        <ele>709.8</ele>
        <time>2018-06-17T14:17:41Z</time>
      </trkpt>
      <trkpt lat="43.2064010" lon="-5.8632770">
        <ele>709.0</ele>
        <time>2018-06-17T14:17:44Z</time>
      </trkpt>
      <trkpt lat="43.2062650" lon="-5.8631790">
        <ele>708.8</ele>
        <time>2018-06-17T14:17:46Z</time>
      </trkpt>
      <trkpt lat="43.2060500" lon="-5.8630790">
        <ele>708.6</ele>
        <time>2018-06-17T14:17:49Z</time>
      </trkpt>
      <trkpt lat="43.2058380" lon="-5.8630870">
        <ele>708.2</ele>
        <time>2018-06-17T14:17:52Z</time>
      </trkpt>
      <trkpt lat="43.2055600" lon="-5.8631560">
        <ele>707.6</ele>
        <time>2018-06-17T14:17:56Z</time>
      </trkpt>
      <trkpt lat="43.2053210" lon="-5.8631890">
        <ele>706.6</ele>
        <time>2018-06-17T14:17:59Z</time>
      </trkpt>
      <trkpt lat="43.2051780" lon="-5.8632710">
        <ele>706.4</ele>
        <time>2018-06-17T14:18:01Z</time>
      </trkpt>
      <trkpt lat="43.2051200" lon="-5.8633410">
        <ele>706.0</ele>
        <time>2018-06-17T14:18:02Z</time>
      </trkpt>
      <trkpt lat="43.2050670" lon="-5.8634290">
        <ele>705.6</ele>
        <time>2018-06-17T14:18:03Z</time>
      </trkpt>
      <trkpt lat="43.2050560" lon="-5.8635410">
        <ele>704.8</ele>
        <time>2018-06-17T14:18:04Z</time>
      </trkpt>
      <trkpt lat="43.2051150" lon="-5.8637790">
        <ele>703.6</ele>
        <time>2018-06-17T14:18:06Z</time>
      </trkpt>
      <trkpt lat="43.2051780" lon="-5.8640020">
        <ele>702.8</ele>
        <time>2018-06-17T14:18:08Z</time>
      </trkpt>
      <trkpt lat="43.2051880" lon="-5.8641110">
        <ele>702.4</ele>
        <time>2018-06-17T14:18:09Z</time>
      </trkpt>
      <trkpt lat="43.2051680" lon="-5.8643120">
        <ele>701.4</ele>
        <time>2018-06-17T14:18:11Z</time>
      </trkpt>
      <trkpt lat="43.2051520" lon="-5.8645360">
        <ele>700.4</ele>
        <time>2018-06-17T14:18:13Z</time>
      </trkpt>
      <trkpt lat="43.2051560" lon="-5.8646530">
        <ele>699.8</ele>
        <time>2018-06-17T14:18:14Z</time>
      </trkpt>
      <trkpt lat="43.2051360" lon="-5.8648570">
        <ele>699.2</ele>
        <time>2018-06-17T14:18:16Z</time>
      </trkpt>
      <trkpt lat="43.2050790" lon="-5.8649460">
        <ele>698.6</ele>
        <time>2018-06-17T14:18:17Z</time>
      </trkpt>
      <trkpt lat="43.2048520" lon="-5.8651690">
        <ele>697.0</ele>
        <time>2018-06-17T14:18:20Z</time>
      </trkpt>
      <trkpt lat="43.2047290" lon="-5.8653430">
        <ele>695.8</ele>
        <time>2018-06-17T14:18:22Z</time>
      </trkpt>
      <trkpt lat="43.2046150" lon="-5.8655440">
        <ele>694.2</ele>
        <time>2018-06-17T14:18:24Z</time>
      </trkpt>
      <trkpt lat="43.2045650" lon="-5.8657770">
        <ele>693.0</ele>
        <time>2018-06-17T14:18:26Z</time>
      </trkpt>
      <trkpt lat="43.2046230" lon="-5.8660030">
        <ele>691.6</ele>
        <time>2018-06-17T14:18:28Z</time>
      </trkpt>
      <trkpt lat="43.2047320" lon="-5.8661880">
        <ele>690.4</ele>
        <time>2018-06-17T14:18:30Z</time>
      </trkpt>
      <trkpt lat="43.2048660" lon="-5.8663310">
        <ele>689.4</ele>
        <time>2018-06-17T14:18:32Z</time>
      </trkpt>
      <trkpt lat="43.2050340" lon="-5.8664340">
        <ele>688.0</ele>
        <time>2018-06-17T14:18:34Z</time>
      </trkpt>
      <trkpt lat="43.2051230" lon="-5.8664980">
        <ele>687.2</ele>
        <time>2018-06-17T14:18:35Z</time>
      </trkpt>
      <trkpt lat="43.2052190" lon="-5.8665780">
        <ele>686.6</ele>
        <time>2018-06-17T14:18:36Z</time>
      </trkpt>
      <trkpt lat="43.2053880" lon="-5.8667680">
        <ele>685.0</ele>
        <time>2018-06-17T14:18:38Z</time>
      </trkpt>
      <trkpt lat="43.2055780" lon="-5.8669540">
        <ele>683.4</ele>
        <time>2018-06-17T14:18:40Z</time>
      </trkpt>
      <trkpt lat="43.2057600" lon="-5.8671050">
        <ele>682.2</ele>
        <time>2018-06-17T14:18:42Z</time>
      </trkpt>
      <trkpt lat="43.2059950" lon="-5.8673070">
        <ele>681.2</ele>
        <time>2018-06-17T14:18:45Z</time>
      </trkpt>
      <trkpt lat="43.2061390" lon="-5.8674410">
        <ele>680.0</ele>
        <time>2018-06-17T14:18:47Z</time>
      </trkpt>
      <trkpt lat="43.2063220" lon="-5.8676580">
        <ele>678.8</ele>
        <time>2018-06-17T14:18:50Z</time>
      </trkpt>
      <trkpt lat="43.2064720" lon="-5.8679240">
        <ele>677.4</ele>
        <time>2018-06-17T14:18:53Z</time>
      </trkpt>
      <trkpt lat="43.2064980" lon="-5.8680410">
        <ele>676.4</ele>
        <time>2018-06-17T14:18:54Z</time>
      </trkpt>
      <trkpt lat="43.2065470" lon="-5.8681420">
        <ele>675.8</ele>
        <time>2018-06-17T14:18:55Z</time>
      </trkpt>
      <trkpt lat="43.2066700" lon="-5.8683080">
        <ele>674.6</ele>
        <time>2018-06-17T14:18:57Z</time>
      </trkpt>
      <trkpt lat="43.2068140" lon="-5.8684430">
        <ele>673.4</ele>
        <time>2018-06-17T14:18:59Z</time>
      </trkpt>
      <trkpt lat="43.2069940" lon="-5.8685720">
        <ele>672.6</ele>
        <time>2018-06-17T14:19:01Z</time>
      </trkpt>
      <trkpt lat="43.2070960" lon="-5.8686340">
        <ele>672.0</ele>
        <time>2018-06-17T14:19:02Z</time>
      </trkpt>
      <trkpt lat="43.2072020" lon="-5.8686900">
        <ele>671.2</ele>
        <time>2018-06-17T14:19:03Z</time>
      </trkpt>
      <trkpt lat="43.2073110" lon="-5.8687290">
        <ele>670.6</ele>
        <time>2018-06-17T14:19:04Z</time>
      </trkpt>
      <trkpt lat="43.2075460" lon="-5.8687400">
        <ele>669.4</ele>
        <time>2018-06-17T14:19:06Z</time>
      </trkpt>
      <trkpt lat="43.2076580" lon="-5.8687280">
        <ele>668.4</ele>
        <time>2018-06-17T14:19:07Z</time>
      </trkpt>
      <trkpt lat="43.2077750" lon="-5.8687070">
        <ele>667.4</ele>
        <time>2018-06-17T14:19:08Z</time>
      </trkpt>
      <trkpt lat="43.2080040" lon="-5.8686520">
        <ele>665.6</ele>
        <time>2018-06-17T14:19:10Z</time>
      </trkpt>
      <trkpt lat="43.2082430" lon="-5.8685960">
        <ele>664.0</ele>
        <time>2018-06-17T14:19:12Z</time>
      </trkpt>
      <trkpt lat="43.2083550" lon="-5.8685870">
        <ele>663.4</ele>
        <time>2018-06-17T14:19:13Z</time>
      </trkpt>
      <trkpt lat="43.2084590" lon="-5.8686150">
        <ele>662.8</ele>
        <time>2018-06-17T14:19:14Z</time>
      </trkpt>
      <trkpt lat="43.2086500" lon="-5.8687320">
        <ele>661.4</ele>
        <time>2018-06-17T14:19:16Z</time>
      </trkpt>
      <trkpt lat="43.2087430" lon="-5.8688060">
        <ele>660.4</ele>
        <time>2018-06-17T14:19:17Z</time>
      </trkpt>
      <trkpt lat="43.2088980" lon="-5.8689770">
        <ele>659.2</ele>
        <time>2018-06-17T14:19:19Z</time>
      </trkpt>
      <trkpt lat="43.2090620" lon="-5.8691130">
        <ele>658.4</ele>
        <time>2018-06-17T14:19:21Z</time>
      </trkpt>
      <trkpt lat="43.2091500" lon="-5.8691660">
        <ele>658.0</ele>
        <time>2018-06-17T14:19:22Z</time>
      </trkpt>
      <trkpt lat="43.2092430" lon="-5.8692030">
        <ele>657.8</ele>
        <time>2018-06-17T14:19:23Z</time>
      </trkpt>
      <trkpt lat="43.2094320" lon="-5.8692410">
        <ele>657.2</ele>
        <time>2018-06-17T14:19:25Z</time>
      </trkpt>
      <trkpt lat="43.2095960" lon="-5.8692410">
        <ele>656.8</ele>
        <time>2018-06-17T14:19:27Z</time>
      </trkpt>
      <trkpt lat="43.2097780" lon="-5.8691700">
        <ele>656.2</ele>
        <time>2018-06-17T14:19:30Z</time>
      </trkpt>
      <trkpt lat="43.2098400" lon="-5.8691480">
        <ele>655.4</ele>
        <time>2018-06-17T14:19:31Z</time>
      </trkpt>
      <trkpt lat="43.2100250" lon="-5.8690880">
        <ele>654.4</ele>
        <time>2018-06-17T14:19:34Z</time>
      </trkpt>
      <trkpt lat="43.2102360" lon="-5.8690230">
        <ele>653.2</ele>
        <time>2018-06-17T14:19:37Z</time>
      </trkpt>
      <trkpt lat="43.2104180" lon="-5.8689810">
        <ele>652.0</ele>
        <time>2018-06-17T14:19:39Z</time>
      </trkpt>
      <trkpt lat="43.2106290" lon="-5.8689090">
        <ele>650.0</ele>
        <time>2018-06-17T14:19:41Z</time>
      </trkpt>
      <trkpt lat="43.2108010" lon="-5.8688250">
        <ele>648.6</ele>
        <time>2018-06-17T14:19:43Z</time>
      </trkpt>
      <trkpt lat="43.2109730" lon="-5.8688460">
        <ele>647.4</ele>
        <time>2018-06-17T14:19:45Z</time>
      </trkpt>
      <trkpt lat="43.2111770" lon="-5.8689560">
        <ele>646.0</ele>
        <time>2018-06-17T14:19:47Z</time>
      </trkpt>
      <trkpt lat="43.2113930" lon="-5.8690040">
        <ele>644.6</ele>
        <time>2018-06-17T14:19:49Z</time>
      </trkpt>
      <trkpt lat="43.2116080" lon="-5.8689440">
        <ele>642.8</ele>
        <time>2018-06-17T14:19:51Z</time>
      </trkpt>
      <trkpt lat="43.2117090" lon="-5.8688900">
        <ele>641.4</ele>
        <time>2018-06-17T14:19:52Z</time>
      </trkpt>
      <trkpt lat="43.2118000" lon="-5.8688400">
        <ele>640.6</ele>
        <time>2018-06-17T14:19:53Z</time>
      </trkpt>
      <trkpt lat="43.2118750" lon="-5.8688010">
        <ele>640.0</ele>
        <time>2018-06-17T14:19:54Z</time>
      </trkpt>
      <trkpt lat="43.2119460" lon="-5.8687790">
        <ele>639.4</ele>
        <time>2018-06-17T14:19:55Z</time>
      </trkpt>
      <trkpt lat="43.2120850" lon="-5.8688130">
        <ele>638.6</ele>
        <time>2018-06-17T14:19:57Z</time>
      </trkpt>
      <trkpt lat="43.2122900" lon="-5.8690100">
        <ele>636.8</ele>
        <time>2018-06-17T14:20:00Z</time>
      </trkpt>
      <trkpt lat="43.2123860" lon="-5.8692200">
        <ele>635.4</ele>
        <time>2018-06-17T14:20:02Z</time>
      </trkpt>
      <trkpt lat="43.2125140" lon="-5.8693980">
        <ele>633.4</ele>
        <time>2018-06-17T14:20:04Z</time>
      </trkpt>
      <trkpt lat="43.2126110" lon="-5.8696060">
        <ele>632.2</ele>
        <time>2018-06-17T14:20:06Z</time>
      </trkpt>
      <trkpt lat="43.2126800" lon="-5.8697800">
        <ele>631.4</ele>
        <time>2018-06-17T14:20:08Z</time>
      </trkpt>
      <trkpt lat="43.2127130" lon="-5.8698580">
        <ele>631.0</ele>
        <time>2018-06-17T14:20:09Z</time>
      </trkpt>
      <trkpt lat="43.2128460" lon="-5.8699280">
        <ele>629.8</ele>
        <time>2018-06-17T14:20:11Z</time>
      </trkpt>
      <trkpt lat="43.2129930" lon="-5.8699720">
        <ele>628.6</ele>
        <time>2018-06-17T14:20:13Z</time>
      </trkpt>
      <trkpt lat="43.2130650" lon="-5.8699750">
        <ele>628.0</ele>
        <time>2018-06-17T14:20:14Z</time>
      </trkpt>
      <trkpt lat="43.2131390" lon="-5.8699540">
        <ele>627.4</ele>
        <time>2018-06-17T14:20:15Z</time>
      </trkpt>
      <trkpt lat="43.2133110" lon="-5.8698710">
        <ele>625.8</ele>
        <time>2018-06-17T14:20:17Z</time>
      </trkpt>
      <trkpt lat="43.2134830" lon="-5.8698010">
        <ele>624.6</ele>
        <time>2018-06-17T14:20:19Z</time>
      </trkpt>
      <trkpt lat="43.2136330" lon="-5.8697940">
        <ele>623.2</ele>
        <time>2018-06-17T14:20:21Z</time>
      </trkpt>
      <trkpt lat="43.2138180" lon="-5.8697320">
        <ele>621.4</ele>
        <time>2018-06-17T14:20:23Z</time>
      </trkpt>
      <trkpt lat="43.2139150" lon="-5.8696770">
        <ele>620.4</ele>
        <time>2018-06-17T14:20:24Z</time>
      </trkpt>
      <trkpt lat="43.2140200" lon="-5.8696100">
        <ele>619.6</ele>
        <time>2018-06-17T14:20:25Z</time>
      </trkpt>
      <trkpt lat="43.2141930" lon="-5.8694140">
        <ele>618.0</ele>
        <time>2018-06-17T14:20:27Z</time>
      </trkpt>
      <trkpt lat="43.2143200" lon="-5.8691970">
        <ele>616.2</ele>
        <time>2018-06-17T14:20:29Z</time>
      </trkpt>
      <trkpt lat="43.2144400" lon="-5.8690210">
        <ele>614.8</ele>
        <time>2018-06-17T14:20:31Z</time>
      </trkpt>
      <trkpt lat="43.2145190" lon="-5.8689550">
        <ele>614.4</ele>
        <time>2018-06-17T14:20:32Z</time>
      </trkpt>
      <trkpt lat="43.2146190" lon="-5.8688930">
        <ele>613.6</ele>
        <time>2018-06-17T14:20:33Z</time>
      </trkpt>
      <trkpt lat="43.2148040" lon="-5.8687560">
        <ele>612.6</ele>
        <time>2018-06-17T14:20:35Z</time>
      </trkpt>
      <trkpt lat="43.2150010" lon="-5.8686490">
        <ele>610.6</ele>
        <time>2018-06-17T14:20:37Z</time>
      </trkpt>
      <trkpt lat="43.2151750" lon="-5.8685410">
        <ele>609.2</ele>
        <time>2018-06-17T14:20:39Z</time>
      </trkpt>
      <trkpt lat="43.2154510" lon="-5.8685490">
        <ele>607.6</ele>
        <time>2018-06-17T14:20:42Z</time>
      </trkpt>
      <trkpt lat="43.2155420" lon="-5.8685980">
        <ele>606.8</ele>
        <time>2018-06-17T14:20:43Z</time>
      </trkpt>
      <trkpt lat="43.2156380" lon="-5.8686620">
        <ele>606.0</ele>
        <time>2018-06-17T14:20:44Z</time>
      </trkpt>
      <trkpt lat="43.2158040" lon="-5.8688560">
        <ele>604.6</ele>
        <time>2018-06-17T14:20:46Z</time>
      </trkpt>
      <trkpt lat="43.2159170" lon="-5.8692430">
        <ele>603.0</ele>
        <time>2018-06-17T14:20:49Z</time>
      </trkpt>
      <trkpt lat="43.2159790" lon="-5.8693420">
        <ele>602.6</ele>
        <time>2018-06-17T14:20:50Z</time>
      </trkpt>
      <trkpt lat="43.2160340" lon="-5.8694410">
        <ele>601.6</ele>
        <time>2018-06-17T14:20:51Z</time>
      </trkpt>
      <trkpt lat="43.2161650" lon="-5.8695870">
        <ele>599.8</ele>
        <time>2018-06-17T14:20:53Z</time>
      </trkpt>
      <trkpt lat="43.2163410" lon="-5.8697150">
        <ele>598.2</ele>
        <time>2018-06-17T14:20:55Z</time>
      </trkpt>
      <trkpt lat="43.2165430" lon="-5.8698860">
        <ele>597.0</ele>
        <time>2018-06-17T14:20:57Z</time>
      </trkpt>
      <trkpt lat="43.2166460" lon="-5.8699670">
        <ele>596.6</ele>
        <time>2018-06-17T14:20:58Z</time>
      </trkpt>
      <trkpt lat="43.2167500" lon="-5.8700240">
        <ele>595.2</ele>
        <time>2018-06-17T14:20:59Z</time>
      </trkpt>
      <trkpt lat="43.2169720" lon="-5.8700120">
        <ele>593.8</ele>
        <time>2018-06-17T14:21:01Z</time>
      </trkpt>
      <trkpt lat="43.2171690" lon="-5.8698630">
        <ele>592.8</ele>
        <time>2018-06-17T14:21:03Z</time>
      </trkpt>
      <trkpt lat="43.2172570" lon="-5.8697790">
        <ele>592.2</ele>
        <time>2018-06-17T14:21:04Z</time>
      </trkpt>
      <trkpt lat="43.2173420" lon="-5.8697070">
        <ele>591.6</ele>
        <time>2018-06-17T14:21:05Z</time>
      </trkpt>
      <trkpt lat="43.2174330" lon="-5.8696620">
        <ele>591.2</ele>
        <time>2018-06-17T14:21:06Z</time>
      </trkpt>
      <trkpt lat="43.2175310" lon="-5.8696440">
        <ele>590.4</ele>
        <time>2018-06-17T14:21:07Z</time>
      </trkpt>
      <trkpt lat="43.2177320" lon="-5.8696630">
        <ele>589.2</ele>
        <time>2018-06-17T14:21:09Z</time>
      </trkpt>
      <trkpt lat="43.2178390" lon="-5.8696780">
        <ele>588.2</ele>
        <time>2018-06-17T14:21:10Z</time>
      </trkpt>
      <trkpt lat="43.2179400" lon="-5.8696930">
        <ele>587.2</ele>
        <time>2018-06-17T14:21:11Z</time>
      </trkpt>
      <trkpt lat="43.2181650" lon="-5.8697260">
        <ele>585.4</ele>
        <time>2018-06-17T14:21:13Z</time>
      </trkpt>
      <trkpt lat="43.2183860" lon="-5.8697650">
        <ele>583.8</ele>
        <time>2018-06-17T14:21:15Z</time>
      </trkpt>
      <trkpt lat="43.2185830" lon="-5.8697900">
        <ele>582.6</ele>
        <time>2018-06-17T14:21:17Z</time>
      </trkpt>
      <trkpt lat="43.2186760" lon="-5.8697860">
        <ele>581.8</ele>
        <time>2018-06-17T14:21:18Z</time>
      </trkpt>
      <trkpt lat="43.2187700" lon="-5.8697690">
        <ele>581.2</ele>
        <time>2018-06-17T14:21:19Z</time>
      </trkpt>
      <trkpt lat="43.2189230" lon="-5.8696800">
        <ele>580.2</ele>
        <time>2018-06-17T14:21:21Z</time>
      </trkpt>
      <trkpt lat="43.2190620" lon="-5.8694810">
        <ele>578.6</ele>
        <time>2018-06-17T14:21:24Z</time>
      </trkpt>
      <trkpt lat="43.2191450" lon="-5.8692410">
        <ele>577.4</ele>
        <time>2018-06-17T14:21:27Z</time>
      </trkpt>
      <trkpt lat="43.2193070" lon="-5.8690240">
        <ele>576.0</ele>
        <time>2018-06-17T14:21:30Z</time>
      </trkpt>
      <trkpt lat="43.2193700" lon="-5.8689450">
        <ele>574.8</ele>
        <time>2018-06-17T14:21:31Z</time>
      </trkpt>
      <trkpt lat="43.2194990" lon="-5.8688020">
        <ele>573.4</ele>
        <time>2018-06-17T14:21:33Z</time>
      </trkpt>
      <trkpt lat="43.2196590" lon="-5.8687670">
        <ele>572.0</ele>
        <time>2018-06-17T14:21:35Z</time>
      </trkpt>
      <trkpt lat="43.2198280" lon="-5.8688490">
        <ele>570.2</ele>
        <time>2018-06-17T14:21:37Z</time>
      </trkpt>
      <trkpt lat="43.2199750" lon="-5.8690220">
        <ele>569.0</ele>
        <time>2018-06-17T14:21:39Z</time>
      </trkpt>
      <trkpt lat="43.2201120" lon="-5.8692280">
        <ele>567.6</ele>
        <time>2018-06-17T14:21:41Z</time>
      </trkpt>
      <trkpt lat="43.2203200" lon="-5.8693330">
        <ele>565.8</ele>
        <time>2018-06-17T14:21:43Z</time>
      </trkpt>
      <trkpt lat="43.2205420" lon="-5.8693090">
        <ele>564.2</ele>
        <time>2018-06-17T14:21:45Z</time>
      </trkpt>
      <trkpt lat="43.2207330" lon="-5.8692320">
        <ele>562.8</ele>
        <time>2018-06-17T14:21:47Z</time>
      </trkpt>
      <trkpt lat="43.2208020" lon="-5.8691870">
        <ele>562.4</ele>
        <time>2018-06-17T14:21:48Z</time>
      </trkpt>
      <trkpt lat="43.2209030" lon="-5.8691260">
        <ele>561.4</ele>
        <time>2018-06-17T14:21:50Z</time>
      </trkpt>
      <trkpt lat="43.2209430" lon="-5.8691120">
        <ele>561.0</ele>
        <time>2018-06-17T14:21:51Z</time>
      </trkpt>
      <trkpt lat="43.2210350" lon="-5.8690840">
        <ele>560.2</ele>
        <time>2018-06-17T14:21:54Z</time>
      </trkpt>
      <trkpt lat="43.2210330" lon="-5.8691220">
        <ele>560.0</ele>
        <time>2018-06-17T14:21:55Z</time>
      </trkpt>
      <trkpt lat="43.2211070" lon="-5.8691840">
        <ele>559.0</ele>
        <time>2018-06-17T14:21:57Z</time>
      </trkpt>
      <trkpt lat="43.2212520" lon="-5.8691590">
        <ele>557.4</ele>
        <time>2018-06-17T14:21:59Z</time>
      </trkpt>
      <trkpt lat="43.2214030" lon="-5.8690810">
        <ele>556.8</ele>
        <time>2018-06-17T14:22:01Z</time>
      </trkpt>
      <trkpt lat="43.2214540" lon="-5.8690500">
        <ele>556.2</ele>
        <time>2018-06-17T14:22:02Z</time>
      </trkpt>
      <trkpt lat="43.2215190" lon="-5.8690320">
        <ele>555.8</ele>
        <time>2018-06-17T14:22:03Z</time>
      </trkpt>
      <trkpt lat="43.2215790" lon="-5.8690330">
        <ele>555.2</ele>
        <time>2018-06-17T14:22:04Z</time>
      </trkpt>
      <trkpt lat="43.2216330" lon="-5.8690780">
        <ele>554.6</ele>
        <time>2018-06-17T14:22:05Z</time>
      </trkpt>
      <trkpt lat="43.2217070" lon="-5.8691150">
        <ele>554.0</ele>
        <time>2018-06-17T14:22:06Z</time>
      </trkpt>
      <trkpt lat="43.2217820" lon="-5.8691410">
        <ele>553.0</ele>
        <time>2018-06-17T14:22:07Z</time>
      </trkpt>
      <trkpt lat="43.2218500" lon="-5.8691320">
        <ele>552.4</ele>
        <time>2018-06-17T14:22:08Z</time>
      </trkpt>
      <trkpt lat="43.2220280" lon="-5.8690620">
        <ele>551.0</ele>
        <time>2018-06-17T14:22:10Z</time>
      </trkpt>
      <trkpt lat="43.2221050" lon="-5.8689970">
        <ele>550.0</ele>
        <time>2018-06-17T14:22:11Z</time>
      </trkpt>
      <trkpt lat="43.2221860" lon="-5.8689500">
        <ele>549.2</ele>
        <time>2018-06-17T14:22:12Z</time>
      </trkpt>
      <trkpt lat="43.2222820" lon="-5.8689320">
        <ele>548.6</ele>
        <time>2018-06-17T14:22:13Z</time>
      </trkpt>
      <trkpt lat="43.2224410" lon="-5.8689970">
        <ele>547.2</ele>
        <time>2018-06-17T14:22:15Z</time>
      </trkpt>
      <trkpt lat="43.2225470" lon="-5.8690540">
        <ele>546.2</ele>
        <time>2018-06-17T14:22:16Z</time>
      </trkpt>
      <trkpt lat="43.2227270" lon="-5.8692140">
        <ele>545.0</ele>
        <time>2018-06-17T14:22:18Z</time>
      </trkpt>
      <trkpt lat="43.2228140" lon="-5.8692950">
        <ele>544.2</ele>
        <time>2018-06-17T14:22:19Z</time>
      </trkpt>
      <trkpt lat="43.2228600" lon="-5.8693750">
        <ele>543.6</ele>
        <time>2018-06-17T14:22:20Z</time>
      </trkpt>
      <trkpt lat="43.2229100" lon="-5.8695890">
        <ele>542.6</ele>
        <time>2018-06-17T14:22:22Z</time>
      </trkpt>
      <trkpt lat="43.2229730" lon="-5.8697010">
        <ele>541.4</ele>
        <time>2018-06-17T14:22:24Z</time>
      </trkpt>
      <trkpt lat="43.2231160" lon="-5.8697010">
        <ele>540.0</ele>
        <time>2018-06-17T14:22:26Z</time>
      </trkpt>
      <trkpt lat="43.2233450" lon="-5.8696600">
        <ele>538.6</ele>
        <time>2018-06-17T14:22:28Z</time>
      </trkpt>
      <trkpt lat="43.2234400" lon="-5.8696770">
        <ele>538.2</ele>
        <time>2018-06-17T14:22:29Z</time>
      </trkpt>
      <trkpt lat="43.2235250" lon="-5.8697130">
        <ele>537.4</ele>
        <time>2018-06-17T14:22:30Z</time>
      </trkpt>
      <trkpt lat="43.2236240" lon="-5.8697540">
        <ele>536.4</ele>
        <time>2018-06-17T14:22:31Z</time>
      </trkpt>
      <trkpt lat="43.2238350" lon="-5.8698110">
        <ele>534.4</ele>
        <time>2018-06-17T14:22:33Z</time>
      </trkpt>
      <trkpt lat="43.2240390" lon="-5.8697710">
        <ele>532.6</ele>
        <time>2018-06-17T14:22:35Z</time>
      </trkpt>
      <trkpt lat="43.2242200" lon="-5.8697420">
        <ele>531.2</ele>
        <time>2018-06-17T14:22:37Z</time>
      </trkpt>
      <trkpt lat="43.2245390" lon="-5.8698330">
        <ele>530.0</ele>
        <time>2018-06-17T14:22:40Z</time>
      </trkpt>
      <trkpt lat="43.2247220" lon="-5.8700190">
        <ele>528.2</ele>
        <time>2018-06-17T14:22:42Z</time>
      </trkpt>
      <trkpt lat="43.2248120" lon="-5.8701150">
        <ele>527.2</ele>
        <time>2018-06-17T14:22:43Z</time>
      </trkpt>
      <trkpt lat="43.2248950" lon="-5.8702080">
        <ele>526.6</ele>
        <time>2018-06-17T14:22:44Z</time>
      </trkpt>
      <trkpt lat="43.2250880" lon="-5.8703860">
        <ele>524.8</ele>
        <time>2018-06-17T14:22:46Z</time>
      </trkpt>
      <trkpt lat="43.2252450" lon="-5.8705720">
        <ele>523.4</ele>
        <time>2018-06-17T14:22:48Z</time>
      </trkpt>
      <trkpt lat="43.2253460" lon="-5.8707790">
        <ele>522.4</ele>
        <time>2018-06-17T14:22:50Z</time>
      </trkpt>
      <trkpt lat="43.2254180" lon="-5.8710110">
        <ele>520.8</ele>
        <time>2018-06-17T14:22:52Z</time>
      </trkpt>
      <trkpt lat="43.2255280" lon="-5.8712310">
        <ele>519.0</ele>
        <time>2018-06-17T14:22:54Z</time>
      </trkpt>
      <trkpt lat="43.2256410" lon="-5.8714760">
        <ele>517.4</ele>
        <time>2018-06-17T14:22:56Z</time>
      </trkpt>
      <trkpt lat="43.2257030" lon="-5.8717740">
        <ele>515.8</ele>
        <time>2018-06-17T14:22:58Z</time>
      </trkpt>
      <trkpt lat="43.2257340" lon="-5.8721120">
        <ele>514.2</ele>
        <time>2018-06-17T14:23:00Z</time>
      </trkpt>
      <trkpt lat="43.2258340" lon="-5.8723980">
        <ele>512.8</ele>
        <time>2018-06-17T14:23:02Z</time>
      </trkpt>
      <trkpt lat="43.2259480" lon="-5.8726600">
        <ele>511.8</ele>
        <time>2018-06-17T14:23:04Z</time>
      </trkpt>
      <trkpt lat="43.2261300" lon="-5.8730280">
        <ele>510.2</ele>
        <time>2018-06-17T14:23:07Z</time>
      </trkpt>
      <trkpt lat="43.2262350" lon="-5.8732290">
        <ele>509.0</ele>
        <time>2018-06-17T14:23:09Z</time>
      </trkpt>
      <trkpt lat="43.2263090" lon="-5.8732950">
        <ele>508.0</ele>
        <time>2018-06-17T14:23:10Z</time>
      </trkpt>
      <trkpt lat="43.2263920" lon="-5.8733350">
        <ele>507.4</ele>
        <time>2018-06-17T14:23:11Z</time>
      </trkpt>
      <trkpt lat="43.2264970" lon="-5.8733560">
        <ele>507.0</ele>
        <time>2018-06-17T14:23:12Z</time>
      </trkpt>
      <trkpt lat="43.2267460" lon="-5.8733760">
        <ele>505.6</ele>
        <time>2018-06-17T14:23:14Z</time>
      </trkpt>
      <trkpt lat="43.2268580" lon="-5.8734020">
        <ele>504.8</ele>
        <time>2018-06-17T14:23:15Z</time>
      </trkpt>
      <trkpt lat="43.2269670" lon="-5.8734340">
        <ele>504.0</ele>
        <time>2018-06-17T14:23:16Z</time>
      </trkpt>
      <trkpt lat="43.2271840" lon="-5.8735050">
        <ele>502.6</ele>
        <time>2018-06-17T14:23:18Z</time>
      </trkpt>
      <trkpt lat="43.2273840" lon="-5.8736150">
        <ele>501.4</ele>
        <time>2018-06-17T14:23:20Z</time>
      </trkpt>
      <trkpt lat="43.2274850" lon="-5.8736850">
        <ele>500.4</ele>
        <time>2018-06-17T14:23:21Z</time>
      </trkpt>
      <trkpt lat="43.2276680" lon="-5.8738400">
        <ele>498.8</ele>
        <time>2018-06-17T14:23:23Z</time>
      </trkpt>
      <trkpt lat="43.2278110" lon="-5.8740300">
        <ele>497.8</ele>
        <time>2018-06-17T14:23:25Z</time>
      </trkpt>
      <trkpt lat="43.2278760" lon="-5.8742840">
        <ele>496.8</ele>
        <time>2018-06-17T14:23:27Z</time>
      </trkpt>
      <trkpt lat="43.2279040" lon="-5.8744090">
        <ele>495.8</ele>
        <time>2018-06-17T14:23:28Z</time>
      </trkpt>
      <trkpt lat="43.2279460" lon="-5.8745140">
        <ele>495.4</ele>
        <time>2018-06-17T14:23:29Z</time>
      </trkpt>
      <trkpt lat="43.2279900" lon="-5.8746110">
        <ele>494.6</ele>
        <time>2018-06-17T14:23:30Z</time>
      </trkpt>
      <trkpt lat="43.2280320" lon="-5.8746870">
        <ele>493.8</ele>
        <time>2018-06-17T14:23:31Z</time>
      </trkpt>
      <trkpt lat="43.2281900" lon="-5.8748800">
        <ele>492.0</ele>
        <time>2018-06-17T14:23:34Z</time>
      </trkpt>
      <trkpt lat="43.2283650" lon="-5.8749850">
        <ele>490.4</ele>
        <time>2018-06-17T14:23:36Z</time>
      </trkpt>
      <trkpt lat="43.2285430" lon="-5.8751410">
        <ele>488.6</ele>
        <time>2018-06-17T14:23:38Z</time>
      </trkpt>
      <trkpt lat="43.2287280" lon="-5.8753400">
        <ele>487.4</ele>
        <time>2018-06-17T14:23:40Z</time>
      </trkpt>
      <trkpt lat="43.2288810" lon="-5.8755580">
        <ele>486.0</ele>
        <time>2018-06-17T14:23:42Z</time>
      </trkpt>
      <trkpt lat="43.2290550" lon="-5.8757540">
        <ele>484.4</ele>
        <time>2018-06-17T14:23:44Z</time>
      </trkpt>
      <trkpt lat="43.2292570" lon="-5.8759240">
        <ele>483.0</ele>
        <time>2018-06-17T14:23:46Z</time>
      </trkpt>
      <trkpt lat="43.2294270" lon="-5.8761970">
        <ele>481.8</ele>
        <time>2018-06-17T14:23:49Z</time>
      </trkpt>
      <trkpt lat="43.2294020" lon="-5.8764500">
        <ele>481.0</ele>
        <time>2018-06-17T14:23:52Z</time>
      </trkpt>
      <trkpt lat="43.2292660" lon="-5.8765610">
        <ele>480.6</ele>
        <time>2018-06-17T14:23:54Z</time>
      </trkpt>
      <trkpt lat="43.2291000" lon="-5.8765620">
        <ele>479.6</ele>
        <time>2018-06-17T14:23:56Z</time>
      </trkpt>
      <trkpt lat="43.2289320" lon="-5.8765060">
        <ele>478.0</ele>
        <time>2018-06-17T14:23:58Z</time>
      </trkpt>
      <trkpt lat="43.2287360" lon="-5.8764740">
        <ele>476.4</ele>
        <time>2018-06-17T14:24:00Z</time>
      </trkpt>
      <trkpt lat="43.2286320" lon="-5.8764790">
        <ele>476.0</ele>
        <time>2018-06-17T14:24:01Z</time>
      </trkpt>
      <trkpt lat="43.2285330" lon="-5.8764910">
        <ele>475.2</ele>
        <time>2018-06-17T14:24:02Z</time>
      </trkpt>
      <trkpt lat="43.2283510" lon="-5.8765220">
        <ele>473.4</ele>
        <time>2018-06-17T14:24:04Z</time>
      </trkpt>
      <trkpt lat="43.2281760" lon="-5.8765220">
        <ele>472.2</ele>
        <time>2018-06-17T14:24:06Z</time>
      </trkpt>
      <trkpt lat="43.2279380" lon="-5.8765220">
        <ele>471.0</ele>
        <time>2018-06-17T14:24:09Z</time>
      </trkpt>
      <trkpt lat="43.2278020" lon="-5.8766030">
        <ele>469.6</ele>
        <time>2018-06-17T14:24:11Z</time>
      </trkpt>
      <trkpt lat="43.2277360" lon="-5.8767650">
        <ele>468.4</ele>
        <time>2018-06-17T14:24:13Z</time>
      </trkpt>
      <trkpt lat="43.2277530" lon="-5.8770490">
        <ele>467.0</ele>
        <time>2018-06-17T14:24:16Z</time>
      </trkpt>
      <trkpt lat="43.2278760" lon="-5.8771960">
        <ele>465.6</ele>
        <time>2018-06-17T14:24:18Z</time>
      </trkpt>
      <trkpt lat="43.2279470" lon="-5.8772700">
        <ele>464.4</ele>
        <time>2018-06-17T14:24:19Z</time>
      </trkpt>
      <trkpt lat="43.2280840" lon="-5.8774370">
        <ele>463.0</ele>
        <time>2018-06-17T14:24:21Z</time>
      </trkpt>
      <trkpt lat="43.2281960" lon="-5.8776280">
        <ele>461.6</ele>
        <time>2018-06-17T14:24:23Z</time>
      </trkpt>
      <trkpt lat="43.2283220" lon="-5.8779270">
        <ele>460.6</ele>
        <time>2018-06-17T14:24:26Z</time>
      </trkpt>
      <trkpt lat="43.2283540" lon="-5.8780330">
        <ele>460.4</ele>
        <time>2018-06-17T14:24:27Z</time>
      </trkpt>
      <trkpt lat="43.2283320" lon="-5.8783500">
        <ele>459.0</ele>
        <time>2018-06-17T14:24:31Z</time>
      </trkpt>
      <trkpt lat="43.2282650" lon="-5.8784680">
        <ele>457.8</ele>
        <time>2018-06-17T14:24:33Z</time>
      </trkpt>
      <trkpt lat="43.2282070" lon="-5.8786180">
        <ele>456.4</ele>
        <time>2018-06-17T14:24:35Z</time>
      </trkpt>
      <trkpt lat="43.2281250" lon="-5.8788240">
        <ele>455.6</ele>
        <time>2018-06-17T14:24:37Z</time>
      </trkpt>
      <trkpt lat="43.2280910" lon="-5.8789090">
        <ele>455.4</ele>
        <time>2018-06-17T14:24:38Z</time>
      </trkpt>
      <trkpt lat="43.2280460" lon="-5.8790110">
        <ele>454.2</ele>
        <time>2018-06-17T14:24:40Z</time>
      </trkpt>
      <trkpt lat="43.2279910" lon="-5.8790480">
        <ele>453.6</ele>
        <time>2018-06-17T14:24:41Z</time>
      </trkpt>
      <trkpt lat="43.2279150" lon="-5.8790810">
        <ele>453.2</ele>
        <time>2018-06-17T14:24:42Z</time>
      </trkpt>
      <trkpt lat="43.2277400" lon="-5.8791140">
        <ele>452.0</ele>
        <time>2018-06-17T14:24:44Z</time>
      </trkpt>
      <trkpt lat="43.2275390" lon="-5.8790410">
        <ele>450.8</ele>
        <time>2018-06-17T14:24:46Z</time>
      </trkpt>
      <trkpt lat="43.2272370" lon="-5.8788610">
        <ele>448.6</ele>
        <time>2018-06-17T14:24:49Z</time>
      </trkpt>
      <trkpt lat="43.2270210" lon="-5.8787450">
        <ele>446.6</ele>
        <time>2018-06-17T14:24:51Z</time>
      </trkpt>
      <trkpt lat="43.2269060" lon="-5.8787000">
        <ele>445.6</ele>
        <time>2018-06-17T14:24:52Z</time>
      </trkpt>
      <trkpt lat="43.2267660" lon="-5.8787020">
        <ele>444.6</ele>
        <time>2018-06-17T14:24:53Z</time>
      </trkpt>
      <trkpt lat="43.2264600" lon="-5.8787430">
        <ele>442.8</ele>
        <time>2018-06-17T14:24:55Z</time>
      </trkpt>
      <trkpt lat="43.2261740" lon="-5.8787770">
        <ele>441.0</ele>
        <time>2018-06-17T14:24:57Z</time>
      </trkpt>
      <trkpt lat="43.2260510" lon="-5.8788020">
        <ele>439.6</ele>
        <time>2018-06-17T14:24:58Z</time>
      </trkpt>
      <trkpt lat="43.2259270" lon="-5.8788380">
        <ele>438.8</ele>
        <time>2018-06-17T14:24:59Z</time>
      </trkpt>
      <trkpt lat="43.2257990" lon="-5.8788840">
        <ele>437.8</ele>
        <time>2018-06-17T14:25:00Z</time>
      </trkpt>
      <trkpt lat="43.2255490" lon="-5.8790170">
        <ele>436.0</ele>
        <time>2018-06-17T14:25:02Z</time>
      </trkpt>
      <trkpt lat="43.2253460" lon="-5.8791270">
        <ele>434.4</ele>
        <time>2018-06-17T14:25:04Z</time>
      </trkpt>
      <trkpt lat="43.2251210" lon="-5.8791970">
        <ele>432.8</ele>
        <time>2018-06-17T14:25:06Z</time>
      </trkpt>
      <trkpt lat="43.2248890" lon="-5.8792030">
        <ele>431.6</ele>
        <time>2018-06-17T14:25:08Z</time>
      </trkpt>
      <trkpt lat="43.2247130" lon="-5.8791440">
        <ele>430.2</ele>
        <time>2018-06-17T14:25:10Z</time>
      </trkpt>
      <trkpt lat="43.2244940" lon="-5.8791360">
        <ele>429.0</ele>
        <time>2018-06-17T14:25:12Z</time>
      </trkpt>
      <trkpt lat="43.2243970" lon="-5.8791490">
        <ele>428.0</ele>
        <time>2018-06-17T14:25:13Z</time>
      </trkpt>
      <trkpt lat="43.2243150" lon="-5.8791800">
        <ele>426.8</ele>
        <time>2018-06-17T14:25:14Z</time>
      </trkpt>
      <trkpt lat="43.2241440" lon="-5.8792370">
        <ele>425.2</ele>
        <time>2018-06-17T14:25:16Z</time>
      </trkpt>
      <trkpt lat="43.2240420" lon="-5.8792480">
        <ele>424.6</ele>
        <time>2018-06-17T14:25:17Z</time>
      </trkpt>
      <trkpt lat="43.2239500" lon="-5.8792300">
        <ele>424.0</ele>
        <time>2018-06-17T14:25:18Z</time>
      </trkpt>
      <trkpt lat="43.2237230" lon="-5.8791460">
        <ele>422.6</ele>
        <time>2018-06-17T14:25:20Z</time>
      </trkpt>
      <trkpt lat="43.2236030" lon="-5.8791000">
        <ele>421.4</ele>
        <time>2018-06-17T14:25:21Z</time>
      </trkpt>
      <trkpt lat="43.2234880" lon="-5.8790570">
        <ele>420.4</ele>
        <time>2018-06-17T14:25:22Z</time>
      </trkpt>
      <trkpt lat="43.2232660" lon="-5.8790060">
        <ele>418.4</ele>
        <time>2018-06-17T14:25:24Z</time>
      </trkpt>
      <trkpt lat="43.2230700" lon="-5.8790360">
        <ele>417.0</ele>
        <time>2018-06-17T14:25:26Z</time>
      </trkpt>
      <trkpt lat="43.2229180" lon="-5.8791470">
        <ele>415.6</ele>
        <time>2018-06-17T14:25:28Z</time>
      </trkpt>
      <trkpt lat="43.2227920" lon="-5.8792960">
        <ele>414.0</ele>
        <time>2018-06-17T14:25:30Z</time>
      </trkpt>
      <trkpt lat="43.2227250" lon="-5.8793780">
        <ele>413.6</ele>
        <time>2018-06-17T14:25:31Z</time>
      </trkpt>
      <trkpt lat="43.2225590" lon="-5.8794860">
        <ele>413.0</ele>
        <time>2018-06-17T14:25:33Z</time>
      </trkpt>
      <trkpt lat="43.2223160" lon="-5.8795910">
        <ele>411.8</ele>
        <time>2018-06-17T14:25:36Z</time>
      </trkpt>
      <trkpt lat="43.2222780" lon="-5.8797930">
        <ele>411.2</ele>
        <time>2018-06-17T14:25:39Z</time>
      </trkpt>
      <trkpt lat="43.2222800" lon="-5.8798870">
        <ele>410.8</ele>
        <time>2018-06-17T14:25:40Z</time>
      </trkpt>
      <trkpt lat="43.2223760" lon="-5.8799930">
        <ele>409.8</ele>
        <time>2018-06-17T14:25:42Z</time>
      </trkpt>
      <trkpt lat="43.2225330" lon="-5.8798960">
        <ele>408.8</ele>
        <time>2018-06-17T14:25:44Z</time>
      </trkpt>
      <trkpt lat="43.2226010" lon="-5.8798330">
        <ele>408.4</ele>
        <time>2018-06-17T14:25:45Z</time>
      </trkpt>
      <trkpt lat="43.2226650" lon="-5.8797700">
        <ele>408.0</ele>
        <time>2018-06-17T14:25:46Z</time>
      </trkpt>
      <trkpt lat="43.2227840" lon="-5.8796610">
        <ele>407.2</ele>
        <time>2018-06-17T14:25:48Z</time>
      </trkpt>
      <trkpt lat="43.2229380" lon="-5.8795820">
        <ele>406.4</ele>
        <time>2018-06-17T14:25:50Z</time>
      </trkpt>
      <trkpt lat="43.2230210" lon="-5.8795600">
        <ele>406.0</ele>
        <time>2018-06-17T14:25:51Z</time>
      </trkpt>
      <trkpt lat="43.2231040" lon="-5.8795420">
        <ele>405.4</ele>
        <time>2018-06-17T14:25:52Z</time>
      </trkpt>
      <trkpt lat="43.2231910" lon="-5.8795240">
        <ele>405.0</ele>
        <time>2018-06-17T14:25:53Z</time>
      </trkpt>
      <trkpt lat="43.2233770" lon="-5.8794860">
        <ele>404.2</ele>
        <time>2018-06-17T14:25:55Z</time>
      </trkpt>
      <trkpt lat="43.2234880" lon="-5.8794920">
        <ele>403.8</ele>
        <time>2018-06-17T14:25:56Z</time>
      </trkpt>
      <trkpt lat="43.2237340" lon="-5.8796490">
        <ele>402.6</ele>
        <time>2018-06-17T14:25:59Z</time>
      </trkpt>
      <trkpt lat="43.2239350" lon="-5.8797290">
        <ele>401.4</ele>
        <time>2018-06-17T14:26:02Z</time>
      </trkpt>
      <trkpt lat="43.2241000" lon="-5.8796680">
        <ele>400.8</ele>
        <time>2018-06-17T14:26:04Z</time>
      </trkpt>
      <trkpt lat="43.2242550" lon="-5.8796050">
        <ele>400.2</ele>
        <time>2018-06-17T14:26:06Z</time>
      </trkpt>
      <trkpt lat="43.2245090" lon="-5.8795710">
        <ele>398.6</ele>
        <time>2018-06-17T14:26:09Z</time>
      </trkpt>
      <trkpt lat="43.2246740" lon="-5.8796020">
        <ele>397.8</ele>
        <time>2018-06-17T14:26:11Z</time>
      </trkpt>
      <trkpt lat="43.2247490" lon="-5.8796330">
        <ele>397.4</ele>
        <time>2018-06-17T14:26:12Z</time>
      </trkpt>
      <trkpt lat="43.2249630" lon="-5.8797230">
        <ele>396.0</ele>
        <time>2018-06-17T14:26:15Z</time>
      </trkpt>
      <trkpt lat="43.2250280" lon="-5.8797660">
        <ele>395.6</ele>
        <time>2018-06-17T14:26:16Z</time>
      </trkpt>
      <trkpt lat="43.2251970" lon="-5.8799960">
        <ele>394.6</ele>
        <time>2018-06-17T14:26:19Z</time>
      </trkpt>
      <trkpt lat="43.2252650" lon="-5.8800680">
        <ele>394.2</ele>
        <time>2018-06-17T14:26:20Z</time>
      </trkpt>
      <trkpt lat="43.2253460" lon="-5.8801270">
        <ele>393.4</ele>
        <time>2018-06-17T14:26:21Z</time>
      </trkpt>
      <trkpt lat="43.2255010" lon="-5.8801860">
        <ele>391.8</ele>
        <time>2018-06-17T14:26:23Z</time>
      </trkpt>
      <trkpt lat="43.2256480" lon="-5.8802550">
        <ele>390.6</ele>
        <time>2018-06-17T14:26:25Z</time>
      </trkpt>
      <trkpt lat="43.2257920" lon="-5.8803890">
        <ele>389.4</ele>
        <time>2018-06-17T14:26:27Z</time>
      </trkpt>
      <trkpt lat="43.2259410" lon="-5.8805190">
        <ele>388.2</ele>
        <time>2018-06-17T14:26:29Z</time>
      </trkpt>
      <trkpt lat="43.2260980" lon="-5.8806380">
        <ele>386.8</ele>
        <time>2018-06-17T14:26:31Z</time>
      </trkpt>
      <trkpt lat="43.2262780" lon="-5.8806810">
        <ele>385.6</ele>
        <time>2018-06-17T14:26:33Z</time>
      </trkpt>
      <trkpt lat="43.2264640" lon="-5.8806810">
        <ele>384.6</ele>
        <time>2018-06-17T14:26:35Z</time>
      </trkpt>
      <trkpt lat="43.2265530" lon="-5.8806810">
        <ele>383.4</ele>
        <time>2018-06-17T14:26:36Z</time>
      </trkpt>
      <trkpt lat="43.2267300" lon="-5.8807040">
        <ele>382.0</ele>
        <time>2018-06-17T14:26:38Z</time>
      </trkpt>
      <trkpt lat="43.2269960" lon="-5.8808150">
        <ele>380.6</ele>
        <time>2018-06-17T14:26:41Z</time>
      </trkpt>
      <trkpt lat="43.2270800" lon="-5.8808670">
        <ele>379.6</ele>
        <time>2018-06-17T14:26:42Z</time>
      </trkpt>
      <trkpt lat="43.2272520" lon="-5.8809180">
        <ele>378.6</ele>
        <time>2018-06-17T14:26:44Z</time>
      </trkpt>
      <trkpt lat="43.2273200" lon="-5.8809260">
        <ele>377.8</ele>
        <time>2018-06-17T14:26:45Z</time>
      </trkpt>
      <trkpt lat="43.2274140" lon="-5.8809010">
        <ele>377.4</ele>
        <time>2018-06-17T14:26:47Z</time>
      </trkpt>
      <trkpt lat="43.2275040" lon="-5.8808800">
        <ele>376.6</ele>
        <time>2018-06-17T14:26:49Z</time>
      </trkpt>
      <trkpt lat="43.2276140" lon="-5.8809190">
        <ele>375.8</ele>
        <time>2018-06-17T14:26:51Z</time>
      </trkpt>
      <trkpt lat="43.2278300" lon="-5.8809860">
        <ele>374.2</ele>
        <time>2018-06-17T14:26:54Z</time>
      </trkpt>
      <trkpt lat="43.2279070" lon="-5.8810220">
        <ele>373.8</ele>
        <time>2018-06-17T14:26:55Z</time>
      </trkpt>
      <trkpt lat="43.2280500" lon="-5.8811380">
        <ele>372.4</ele>
        <time>2018-06-17T14:26:57Z</time>
      </trkpt>
      <trkpt lat="43.2281910" lon="-5.8812800">
        <ele>370.8</ele>
        <time>2018-06-17T14:26:59Z</time>
      </trkpt>
      <trkpt lat="43.2283580" lon="-5.8814540">
        <ele>369.6</ele>
        <time>2018-06-17T14:27:01Z</time>
      </trkpt>
      <trkpt lat="43.2285230" lon="-5.8816730">
        <ele>367.8</ele>
        <time>2018-06-17T14:27:03Z</time>
      </trkpt>
      <trkpt lat="43.2286450" lon="-5.8819000">
        <ele>366.4</ele>
        <time>2018-06-17T14:27:05Z</time>
      </trkpt>
      <trkpt lat="43.2287270" lon="-5.8819920">
        <ele>365.8</ele>
        <time>2018-06-17T14:27:06Z</time>
      </trkpt>
      <trkpt lat="43.2288120" lon="-5.8820610">
        <ele>365.4</ele>
        <time>2018-06-17T14:27:07Z</time>
      </trkpt>
      <trkpt lat="43.2290310" lon="-5.8820880">
        <ele>364.0</ele>
        <time>2018-06-17T14:27:10Z</time>
      </trkpt>
      <trkpt lat="43.2291390" lon="-5.8819970">
        <ele>362.8</ele>
        <time>2018-06-17T14:27:12Z</time>
      </trkpt>
      <trkpt lat="43.2291960" lon="-5.8819360">
        <ele>362.2</ele>
        <time>2018-06-17T14:27:13Z</time>
      </trkpt>
      <trkpt lat="43.2292570" lon="-5.8818800">
        <ele>361.6</ele>
        <time>2018-06-17T14:27:14Z</time>
      </trkpt>
      <trkpt lat="43.2294790" lon="-5.8818060">
        <ele>360.4</ele>
        <time>2018-06-17T14:27:17Z</time>
      </trkpt>
      <trkpt lat="43.2295460" lon="-5.8818010">
        <ele>359.8</ele>
        <time>2018-06-17T14:27:18Z</time>
      </trkpt>
      <trkpt lat="43.2296170" lon="-5.8818140">
        <ele>359.2</ele>
        <time>2018-06-17T14:27:19Z</time>
      </trkpt>
      <trkpt lat="43.2297670" lon="-5.8818640">
        <ele>357.8</ele>
        <time>2018-06-17T14:27:21Z</time>
      </trkpt>
      <trkpt lat="43.2299660" lon="-5.8819460">
        <ele>356.4</ele>
        <time>2018-06-17T14:27:23Z</time>
      </trkpt>
      <trkpt lat="43.2301410" lon="-5.8820440">
        <ele>354.4</ele>
        <time>2018-06-17T14:27:25Z</time>
      </trkpt>
      <trkpt lat="43.2303000" lon="-5.8821440">
        <ele>353.4</ele>
        <time>2018-06-17T14:27:27Z</time>
      </trkpt>
      <trkpt lat="43.2304200" lon="-5.8822170">
        <ele>351.6</ele>
        <time>2018-06-17T14:27:29Z</time>
      </trkpt>
      <trkpt lat="43.2305450" lon="-5.8822220">
        <ele>350.2</ele>
        <time>2018-06-17T14:27:31Z</time>
      </trkpt>
      <trkpt lat="43.2306790" lon="-5.8821310">
        <ele>348.8</ele>
        <time>2018-06-17T14:27:34Z</time>
      </trkpt>
      <trkpt lat="43.2307250" lon="-5.8820880">
        <ele>348.6</ele>
        <time>2018-06-17T14:27:36Z</time>
      </trkpt>
      <trkpt lat="43.2307730" lon="-5.8820720">
        <ele>348.2</ele>
        <time>2018-06-17T14:27:39Z</time>
      </trkpt>
      <trkpt lat="43.2307810" lon="-5.8820900">
        <ele>348.0</ele>
        <time>2018-06-17T14:38:31Z</time>
      </trkpt>
      <trkpt lat="43.2307800" lon="-5.8820740">
        <ele>348.0</ele>
        <time>2018-06-17T14:38:32Z</time>
      </trkpt>
      <trkpt lat="43.2307720" lon="-5.8819900">
        <ele>348.0</ele>
        <time>2018-06-17T14:38:38Z</time>
      </trkpt>
      <trkpt lat="43.2307720" lon="-5.8819880">
        <ele>348.0</ele>
        <time>2018-06-17T14:38:39Z</time>
      </trkpt>
      <trkpt lat="43.2307730" lon="-5.8819810">
        <ele>348.0</ele>
        <time>2018-06-17T14:38:40Z</time>
      </trkpt>
      <trkpt lat="43.2308780" lon="-5.8821270">
        <ele>348.2</ele>
        <time>2018-06-17T14:39:52Z</time>
      </trkpt>
      <trkpt lat="43.2308690" lon="-5.8822870">
        <ele>347.8</ele>
        <time>2018-06-17T14:39:55Z</time>
      </trkpt>
      <trkpt lat="43.2308610" lon="-5.8823620">
        <ele>347.4</ele>
        <time>2018-06-17T14:39:56Z</time>
      </trkpt>
      <trkpt lat="43.2308480" lon="-5.8824400">
        <ele>346.8</ele>
        <time>2018-06-17T14:39:57Z</time>
      </trkpt>
      <trkpt lat="43.2308310" lon="-5.8825210">
        <ele>345.8</ele>
        <time>2018-06-17T14:39:58Z</time>
      </trkpt>
      <trkpt lat="43.2308030" lon="-5.8826040">
        <ele>345.0</ele>
        <time>2018-06-17T14:39:59Z</time>
      </trkpt>
      <trkpt lat="43.2307720" lon="-5.8827050">
        <ele>343.8</ele>
        <time>2018-06-17T14:40:00Z</time>
      </trkpt>
      <trkpt lat="43.2307560" lon="-5.8828110">
        <ele>342.4</ele>
        <time>2018-06-17T14:40:01Z</time>
      </trkpt>
      <trkpt lat="43.2308230" lon="-5.8832110">
        <ele>341.4</ele>
        <time>2018-06-17T14:40:05Z</time>
      </trkpt>
      <trkpt lat="43.2308330" lon="-5.8834200">
        <ele>342.2</ele>
        <time>2018-06-17T14:40:08Z</time>
      </trkpt>
      <trkpt lat="43.2308090" lon="-5.8835150">
        <ele>343.0</ele>
        <time>2018-06-17T14:40:10Z</time>
      </trkpt>
      <trkpt lat="43.2308270" lon="-5.8835770">
        <ele>343.4</ele>
        <time>2018-06-17T14:40:12Z</time>
      </trkpt>
      <trkpt lat="43.2309020" lon="-5.8838190">
        <ele>344.6</ele>
        <time>2018-06-17T14:40:25Z</time>
      </trkpt>
      <trkpt lat="43.2310080" lon="-5.8839520">
        <ele>345.8</ele>
        <time>2018-06-17T14:40:34Z</time>
      </trkpt>
      <trkpt lat="43.2310380" lon="-5.8839750">
        <ele>346.0</ele>
        <time>2018-06-17T14:40:36Z</time>
      </trkpt>
      <trkpt lat="43.2310650" lon="-5.8840020">
        <ele>346.4</ele>
        <time>2018-06-17T14:40:38Z</time>
      </trkpt>
      <trkpt lat="43.2311170" lon="-5.8840780">
        <ele>346.8</ele>
        <time>2018-06-17T14:40:43Z</time>
      </trkpt>
      <trkpt lat="43.2311810" lon="-5.8841640">
        <ele>347.6</ele>
        <time>2018-06-17T14:40:48Z</time>
      </trkpt>
      <trkpt lat="43.2312000" lon="-5.8841820">
        <ele>347.8</ele>
        <time>2018-06-17T14:40:49Z</time>
      </trkpt>
      <trkpt lat="43.2312560" lon="-5.8843360">
        <ele>349.0</ele>
        <time>2018-06-17T14:40:58Z</time>
      </trkpt>
      <trkpt lat="43.2312650" lon="-5.8843500">
        <ele>349.0</ele>
        <time>2018-06-17T14:40:59Z</time>
      </trkpt>
      <trkpt lat="43.2312920" lon="-5.8844710">
        <ele>349.6</ele>
        <time>2018-06-17T14:41:04Z</time>
      </trkpt>
      <trkpt lat="43.2312970" lon="-5.8845810">
        <ele>350.0</ele>
        <time>2018-06-17T14:41:08Z</time>
      </trkpt>
      <trkpt lat="43.2313240" lon="-5.8847330">
        <ele>351.0</ele>
        <time>2018-06-17T14:41:14Z</time>
      </trkpt>
      <trkpt lat="43.2314280" lon="-5.8849490">
        <ele>352.2</ele>
        <time>2018-06-17T14:41:25Z</time>
      </trkpt>
      <trkpt lat="43.2315820" lon="-5.8851100">
        <ele>353.4</ele>
        <time>2018-06-17T14:41:35Z</time>
      </trkpt>
      <trkpt lat="43.2319300" lon="-5.8853600">
        <ele>354.4</ele>
        <time>2018-06-17T14:41:51Z</time>
      </trkpt>
      <trkpt lat="43.2320060" lon="-5.8854060">
        <ele>354.2</ele>
        <time>2018-06-17T14:41:54Z</time>
      </trkpt>
      <trkpt lat="43.2321410" lon="-5.8854570">
        <ele>354.4</ele>
        <time>2018-06-17T14:41:58Z</time>
      </trkpt>
      <trkpt lat="43.2324680" lon="-5.8859210">
        <ele>355.6</ele>
        <time>2018-06-17T14:42:13Z</time>
      </trkpt>
      <trkpt lat="43.2326550" lon="-5.8862970">
        <ele>356.6</ele>
        <time>2018-06-17T14:42:24Z</time>
      </trkpt>
      <trkpt lat="43.2327380" lon="-5.8865090">
        <ele>357.6</ele>
        <time>2018-06-17T14:42:30Z</time>
      </trkpt>
      <trkpt lat="43.2327910" lon="-5.8867440">
        <ele>358.8</ele>
        <time>2018-06-17T14:42:36Z</time>
      </trkpt>
      <trkpt lat="43.2326460" lon="-5.8870250">
        <ele>359.8</ele>
        <time>2018-06-17T14:42:43Z</time>
      </trkpt>
      <trkpt lat="43.2326460" lon="-5.8871780">
        <ele>361.2</ele>
        <time>2018-06-17T14:42:49Z</time>
      </trkpt>
      <trkpt lat="43.2325810" lon="-5.8873950">
        <ele>362.4</ele>
        <time>2018-06-17T14:42:55Z</time>
      </trkpt>
      <trkpt lat="43.2326170" lon="-5.8875430">
        <ele>363.4</ele>
        <time>2018-06-17T14:43:00Z</time>
      </trkpt>
      <trkpt lat="43.2326620" lon="-5.8877040">
        <ele>364.4</ele>
        <time>2018-06-17T14:43:06Z</time>
      </trkpt>
      <trkpt lat="43.2326300" lon="-5.8879200">
        <ele>365.4</ele>
        <time>2018-06-17T14:43:12Z</time>
      </trkpt>
      <trkpt lat="43.2327050" lon="-5.8880750">
        <ele>366.6</ele>
        <time>2018-06-17T14:43:18Z</time>
      </trkpt>
      <trkpt lat="43.2328460" lon="-5.8881480">
        <ele>367.8</ele>
        <time>2018-06-17T14:43:23Z</time>
      </trkpt>
      <trkpt lat="43.2328990" lon="-5.8883130">
        <ele>369.0</ele>
        <time>2018-06-17T14:43:31Z</time>
      </trkpt>
      <trkpt lat="43.2329250" lon="-5.8884700">
        <ele>370.0</ele>
        <time>2018-06-17T14:43:38Z</time>
      </trkpt>
      <trkpt lat="43.2330340" lon="-5.8886050">
        <ele>371.2</ele>
        <time>2018-06-17T14:43:45Z</time>
      </trkpt>
      <trkpt lat="43.2331210" lon="-5.8886820">
        <ele>372.2</ele>
        <time>2018-06-17T14:43:50Z</time>
      </trkpt>
      <trkpt lat="43.2331970" lon="-5.8887950">
        <ele>373.2</ele>
        <time>2018-06-17T14:43:56Z</time>
      </trkpt>
      <trkpt lat="43.2332970" lon="-5.8889230">
        <ele>374.2</ele>
        <time>2018-06-17T14:44:02Z</time>
      </trkpt>
      <trkpt lat="43.2333760" lon="-5.8890350">
        <ele>375.6</ele>
        <time>2018-06-17T14:44:07Z</time>
      </trkpt>
      <trkpt lat="43.2334550" lon="-5.8892590">
        <ele>376.8</ele>
        <time>2018-06-17T14:44:15Z</time>
      </trkpt>
      <trkpt lat="43.2335650" lon="-5.8895450">
        <ele>377.8</ele>
        <time>2018-06-17T14:44:24Z</time>
      </trkpt>
      <trkpt lat="43.2335930" lon="-5.8897310">
        <ele>379.0</ele>
        <time>2018-06-17T14:44:30Z</time>
      </trkpt>
      <trkpt lat="43.2336140" lon="-5.8898090">
        <ele>379.4</ele>
        <time>2018-06-17T14:44:34Z</time>
      </trkpt>
      <trkpt lat="43.2336310" lon="-5.8898660">
        <ele>380.0</ele>
        <time>2018-06-17T14:44:37Z</time>
      </trkpt>
      <trkpt lat="43.2336970" lon="-5.8900290">
        <ele>381.2</ele>
        <time>2018-06-17T14:44:45Z</time>
      </trkpt>
      <trkpt lat="43.2337250" lon="-5.8902930">
        <ele>382.4</ele>
        <time>2018-06-17T14:44:54Z</time>
      </trkpt>
      <trkpt lat="43.2337790" lon="-5.8903920">
        <ele>383.4</ele>
        <time>2018-06-17T14:44:58Z</time>
      </trkpt>
      <trkpt lat="43.2337890" lon="-5.8906270">
        <ele>384.6</ele>
        <time>2018-06-17T14:45:05Z</time>
      </trkpt>
      <trkpt lat="43.2337850" lon="-5.8908410">
        <ele>385.8</ele>
        <time>2018-06-17T14:45:11Z</time>
      </trkpt>
      <trkpt lat="43.2337790" lon="-5.8911380">
        <ele>386.8</ele>
        <time>2018-06-17T14:45:20Z</time>
      </trkpt>
      <trkpt lat="43.2338380" lon="-5.8913350">
        <ele>387.6</ele>
        <time>2018-06-17T14:45:27Z</time>
      </trkpt>
      <trkpt lat="43.2339720" lon="-5.8914390">
        <ele>388.6</ele>
        <time>2018-06-17T14:45:34Z</time>
      </trkpt>
      <trkpt lat="43.2340680" lon="-5.8914960">
        <ele>389.8</ele>
        <time>2018-06-17T14:45:39Z</time>
      </trkpt>
      <trkpt lat="43.2342330" lon="-5.8916680">
        <ele>391.0</ele>
        <time>2018-06-17T14:45:48Z</time>
      </trkpt>
      <trkpt lat="43.2343050" lon="-5.8917710">
        <ele>391.8</ele>
        <time>2018-06-17T14:45:53Z</time>
      </trkpt>
      <trkpt lat="43.2344050" lon="-5.8918810">
        <ele>392.8</ele>
        <time>2018-06-17T14:45:59Z</time>
      </trkpt>
      <trkpt lat="43.2345360" lon="-5.8921190">
        <ele>394.0</ele>
        <time>2018-06-17T14:46:08Z</time>
      </trkpt>
      <trkpt lat="43.2346110" lon="-5.8923000">
        <ele>395.2</ele>
        <time>2018-06-17T14:46:15Z</time>
      </trkpt>
      <trkpt lat="43.2346730" lon="-5.8924500">
        <ele>396.2</ele>
        <time>2018-06-17T14:46:22Z</time>
      </trkpt>
      <trkpt lat="43.2347030" lon="-5.8925830">
        <ele>397.4</ele>
        <time>2018-06-17T14:46:27Z</time>
      </trkpt>
      <trkpt lat="43.2347920" lon="-5.8927900">
        <ele>398.4</ele>
        <time>2018-06-17T14:46:35Z</time>
      </trkpt>
      <trkpt lat="43.2348570" lon="-5.8929910">
        <ele>399.2</ele>
        <time>2018-06-17T14:46:42Z</time>
      </trkpt>
      <trkpt lat="43.2349530" lon="-5.8931130">
        <ele>400.4</ele>
        <time>2018-06-17T14:46:47Z</time>
      </trkpt>
      <trkpt lat="43.2350710" lon="-5.8933420">
        <ele>401.4</ele>
        <time>2018-06-17T14:46:54Z</time>
      </trkpt>
      <trkpt lat="43.2351370" lon="-5.8935740">
        <ele>402.6</ele>
        <time>2018-06-17T14:47:01Z</time>
      </trkpt>
      <trkpt lat="43.2352090" lon="-5.8937900">
        <ele>403.6</ele>
        <time>2018-06-17T14:47:08Z</time>
      </trkpt>
      <trkpt lat="43.2352690" lon="-5.8938850">
        <ele>404.8</ele>
        <time>2018-06-17T14:47:12Z</time>
      </trkpt>
      <trkpt lat="43.2354100" lon="-5.8939590">
        <ele>405.8</ele>
        <time>2018-06-17T14:47:19Z</time>
      </trkpt>
      <trkpt lat="43.2355470" lon="-5.8940130">
        <ele>406.8</ele>
        <time>2018-06-17T14:47:25Z</time>
      </trkpt>
      <trkpt lat="43.2356290" lon="-5.8940940">
        <ele>408.0</ele>
        <time>2018-06-17T14:47:29Z</time>
      </trkpt>
      <trkpt lat="43.2357460" lon="-5.8942970">
        <ele>409.0</ele>
        <time>2018-06-17T14:47:37Z</time>
      </trkpt>
      <trkpt lat="43.2357970" lon="-5.8944480">
        <ele>410.0</ele>
        <time>2018-06-17T14:47:42Z</time>
      </trkpt>
      <trkpt lat="43.2358590" lon="-5.8945830">
        <ele>411.0</ele>
        <time>2018-06-17T14:47:47Z</time>
      </trkpt>
      <trkpt lat="43.2359450" lon="-5.8946560">
        <ele>412.0</ele>
        <time>2018-06-17T14:47:52Z</time>
      </trkpt>
      <trkpt lat="43.2360430" lon="-5.8947020">
        <ele>413.2</ele>
        <time>2018-06-17T14:47:57Z</time>
      </trkpt>
      <trkpt lat="43.2361450" lon="-5.8947630">
        <ele>413.8</ele>
        <time>2018-06-17T14:48:02Z</time>
      </trkpt>
      <trkpt lat="43.2362030" lon="-5.8948260">
        <ele>414.4</ele>
        <time>2018-06-17T14:48:05Z</time>
      </trkpt>
      <trkpt lat="43.2363110" lon="-5.8949500">
        <ele>415.4</ele>
        <time>2018-06-17T14:48:11Z</time>
      </trkpt>
      <trkpt lat="43.2363280" lon="-5.8949690">
        <ele>415.6</ele>
        <time>2018-06-17T14:48:12Z</time>
      </trkpt>
      <trkpt lat="43.2364170" lon="-5.8950810">
        <ele>416.6</ele>
        <time>2018-06-17T14:48:18Z</time>
      </trkpt>
      <trkpt lat="43.2365310" lon="-5.8951890">
        <ele>417.6</ele>
        <time>2018-06-17T14:48:24Z</time>
      </trkpt>
      <trkpt lat="43.2365520" lon="-5.8953660">
        <ele>418.8</ele>
        <time>2018-06-17T14:48:30Z</time>
      </trkpt>
      <trkpt lat="43.2365580" lon="-5.8955090">
        <ele>419.8</ele>
        <time>2018-06-17T14:48:35Z</time>
      </trkpt>
      <trkpt lat="43.2365760" lon="-5.8956520">
        <ele>420.8</ele>
        <time>2018-06-17T14:48:40Z</time>
      </trkpt>
      <trkpt lat="43.2366210" lon="-5.8958560">
        <ele>421.8</ele>
        <time>2018-06-17T14:48:47Z</time>
      </trkpt>
      <trkpt lat="43.2366760" lon="-5.8960120">
        <ele>423.0</ele>
        <time>2018-06-17T14:48:53Z</time>
      </trkpt>
      <trkpt lat="43.2367130" lon="-5.8961480">
        <ele>424.0</ele>
        <time>2018-06-17T14:48:58Z</time>
      </trkpt>
      <trkpt lat="43.2367950" lon="-5.8962900">
        <ele>425.2</ele>
        <time>2018-06-17T14:49:05Z</time>
      </trkpt>
      <trkpt lat="43.2368540" lon="-5.8963970">
        <ele>426.4</ele>
        <time>2018-06-17T14:49:10Z</time>
      </trkpt>
      <trkpt lat="43.2369090" lon="-5.8965120">
        <ele>427.4</ele>
        <time>2018-06-17T14:49:15Z</time>
      </trkpt>
      <trkpt lat="43.2369210" lon="-5.8966730">
        <ele>428.6</ele>
        <time>2018-06-17T14:49:21Z</time>
      </trkpt>
      <trkpt lat="43.2369130" lon="-5.8968440">
        <ele>429.6</ele>
        <time>2018-06-17T14:49:27Z</time>
      </trkpt>
      <trkpt lat="43.2369670" lon="-5.8970160">
        <ele>430.8</ele>
        <time>2018-06-17T14:49:34Z</time>
      </trkpt>
      <trkpt lat="43.2370370" lon="-5.8971100">
        <ele>432.0</ele>
        <time>2018-06-17T14:49:39Z</time>
      </trkpt>
      <trkpt lat="43.2371010" lon="-5.8972180">
        <ele>433.2</ele>
        <time>2018-06-17T14:49:44Z</time>
      </trkpt>
      <trkpt lat="43.2371920" lon="-5.8973200">
        <ele>434.2</ele>
        <time>2018-06-17T14:49:51Z</time>
      </trkpt>
      <trkpt lat="43.2372700" lon="-5.8973980">
        <ele>435.6</ele>
        <time>2018-06-17T14:49:57Z</time>
      </trkpt>
      <trkpt lat="43.2374070" lon="-5.8974030">
        <ele>436.6</ele>
        <time>2018-06-17T14:50:04Z</time>
      </trkpt>
      <trkpt lat="43.2375020" lon="-5.8973580">
        <ele>437.8</ele>
        <time>2018-06-17T14:50:09Z</time>
      </trkpt>
      <trkpt lat="43.2376000" lon="-5.8972680">
        <ele>438.8</ele>
        <time>2018-06-17T14:50:15Z</time>
      </trkpt>
      <trkpt lat="43.2376840" lon="-5.8971860">
        <ele>440.0</ele>
        <time>2018-06-17T14:50:20Z</time>
      </trkpt>
      <trkpt lat="43.2377680" lon="-5.8971310">
        <ele>441.0</ele>
        <time>2018-06-17T14:50:25Z</time>
      </trkpt>
      <trkpt lat="43.2378600" lon="-5.8970590">
        <ele>441.6</ele>
        <time>2018-06-17T14:50:32Z</time>
      </trkpt>
      <trkpt lat="43.2378770" lon="-5.8970520">
        <ele>441.8</ele>
        <time>2018-06-17T14:50:33Z</time>
      </trkpt>
      <trkpt lat="43.2379410" lon="-5.8970460">
        <ele>443.0</ele>
        <time>2018-06-17T14:50:37Z</time>
      </trkpt>
      <trkpt lat="43.2380240" lon="-5.8970490">
        <ele>444.0</ele>
        <time>2018-06-17T14:50:43Z</time>
      </trkpt>
      <trkpt lat="43.2380310" lon="-5.8970520">
        <ele>444.0</ele>
        <time>2018-06-17T14:50:44Z</time>
      </trkpt>
      <trkpt lat="43.2381590" lon="-5.8970410">
        <ele>445.2</ele>
        <time>2018-06-17T14:50:50Z</time>
      </trkpt>
      <trkpt lat="43.2382950" lon="-5.8970530">
        <ele>446.2</ele>
        <time>2018-06-17T14:50:58Z</time>
      </trkpt>
      <trkpt lat="43.2384420" lon="-5.8970790">
        <ele>447.2</ele>
        <time>2018-06-17T14:51:04Z</time>
      </trkpt>
      <trkpt lat="43.2385720" lon="-5.8970920">
        <ele>448.4</ele>
        <time>2018-06-17T14:51:09Z</time>
      </trkpt>
      <trkpt lat="43.2386810" lon="-5.8971430">
        <ele>449.4</ele>
        <time>2018-06-17T14:51:15Z</time>
      </trkpt>
      <trkpt lat="43.2387950" lon="-5.8971830">
        <ele>450.4</ele>
        <time>2018-06-17T14:51:20Z</time>
      </trkpt>
      <trkpt lat="43.2389030" lon="-5.8972460">
        <ele>451.4</ele>
        <time>2018-06-17T14:51:26Z</time>
      </trkpt>
      <trkpt lat="43.2389720" lon="-5.8972930">
        <ele>452.6</ele>
        <time>2018-06-17T14:51:31Z</time>
      </trkpt>
      <trkpt lat="43.2391020" lon="-5.8973370">
        <ele>453.4</ele>
        <time>2018-06-17T14:51:37Z</time>
      </trkpt>
      <trkpt lat="43.2392220" lon="-5.8973920">
        <ele>454.6</ele>
        <time>2018-06-17T14:51:45Z</time>
      </trkpt>
      <trkpt lat="43.2392920" lon="-5.8974090">
        <ele>455.6</ele>
        <time>2018-06-17T14:51:51Z</time>
      </trkpt>
      <trkpt lat="43.2393790" lon="-5.8973810">
        <ele>456.6</ele>
        <time>2018-06-17T14:51:56Z</time>
      </trkpt>
      <trkpt lat="43.2394880" lon="-5.8973620">
        <ele>457.8</ele>
        <time>2018-06-17T14:52:03Z</time>
      </trkpt>
      <trkpt lat="43.2396260" lon="-5.8973420">
        <ele>458.8</ele>
        <time>2018-06-17T14:52:10Z</time>
      </trkpt>
      <trkpt lat="43.2397960" lon="-5.8972830">
        <ele>459.8</ele>
        <time>2018-06-17T14:52:17Z</time>
      </trkpt>
      <trkpt lat="43.2398740" lon="-5.8972810">
        <ele>460.8</ele>
        <time>2018-06-17T14:52:21Z</time>
      </trkpt>
      <trkpt lat="43.2400030" lon="-5.8972740">
        <ele>461.8</ele>
        <time>2018-06-17T14:52:27Z</time>
      </trkpt>
      <trkpt lat="43.2400740" lon="-5.8972790">
        <ele>463.0</ele>
        <time>2018-06-17T14:52:31Z</time>
      </trkpt>
      <trkpt lat="43.2402290" lon="-5.8972780">
        <ele>464.0</ele>
        <time>2018-06-17T14:52:38Z</time>
      </trkpt>
      <trkpt lat="43.2404640" lon="-5.8976370">
        <ele>465.2</ele>
        <time>2018-06-17T14:52:52Z</time>
      </trkpt>
      <trkpt lat="43.2403890" lon="-5.8977620">
        <ele>466.0</ele>
        <time>2018-06-17T14:52:57Z</time>
      </trkpt>
      <trkpt lat="43.2403720" lon="-5.8977970">
        <ele>466.6</ele>
        <time>2018-06-17T14:52:59Z</time>
      </trkpt>
      <trkpt lat="43.2402880" lon="-5.8978910">
        <ele>467.4</ele>
        <time>2018-06-17T14:53:05Z</time>
      </trkpt>
      <trkpt lat="43.2402210" lon="-5.8979420">
        <ele>468.6</ele>
        <time>2018-06-17T14:53:09Z</time>
      </trkpt>
      <trkpt lat="43.2401300" lon="-5.8980300">
        <ele>469.6</ele>
        <time>2018-06-17T14:53:15Z</time>
      </trkpt>
      <trkpt lat="43.2400760" lon="-5.8981060">
        <ele>470.6</ele>
        <time>2018-06-17T14:53:20Z</time>
      </trkpt>
      <trkpt lat="43.2399820" lon="-5.8982640">
        <ele>471.6</ele>
        <time>2018-06-17T14:53:27Z</time>
      </trkpt>
      <trkpt lat="43.2398750" lon="-5.8983960">
        <ele>472.6</ele>
        <time>2018-06-17T14:53:33Z</time>
      </trkpt>
      <trkpt lat="43.2397590" lon="-5.8985190">
        <ele>473.8</ele>
        <time>2018-06-17T14:53:40Z</time>
      </trkpt>
      <trkpt lat="43.2396840" lon="-5.8985970">
        <ele>474.8</ele>
        <time>2018-06-17T14:53:45Z</time>
      </trkpt>
      <trkpt lat="43.2396200" lon="-5.8986460">
        <ele>476.0</ele>
        <time>2018-06-17T14:53:50Z</time>
      </trkpt>
      <trkpt lat="43.2395610" lon="-5.8986990">
        <ele>476.8</ele>
        <time>2018-06-17T14:53:54Z</time>
      </trkpt>
      <trkpt lat="43.2395400" lon="-5.8987070">
        <ele>477.0</ele>
        <time>2018-06-17T14:53:55Z</time>
      </trkpt>
      <trkpt lat="43.2394630" lon="-5.8987350">
        <ele>477.6</ele>
        <time>2018-06-17T14:53:59Z</time>
      </trkpt>
      <trkpt lat="43.2394090" lon="-5.8987600">
        <ele>478.0</ele>
        <time>2018-06-17T14:54:02Z</time>
      </trkpt>
      <trkpt lat="43.2393320" lon="-5.8988050">
        <ele>479.2</ele>
        <time>2018-06-17T14:54:07Z</time>
      </trkpt>
      <trkpt lat="43.2392140" lon="-5.8988700">
        <ele>480.2</ele>
        <time>2018-06-17T14:54:15Z</time>
      </trkpt>
      <trkpt lat="43.2391130" lon="-5.8988980">
        <ele>481.6</ele>
        <time>2018-06-17T14:54:21Z</time>
      </trkpt>
      <trkpt lat="43.2390680" lon="-5.8990530">
        <ele>482.6</ele>
        <time>2018-06-17T14:54:27Z</time>
      </trkpt>
      <trkpt lat="43.2390690" lon="-5.8992050">
        <ele>483.6</ele>
        <time>2018-06-17T14:54:32Z</time>
      </trkpt>
      <trkpt lat="43.2391100" lon="-5.8993460">
        <ele>485.0</ele>
        <time>2018-06-17T14:54:38Z</time>
      </trkpt>
      <trkpt lat="43.2391400" lon="-5.8994710">
        <ele>486.0</ele>
        <time>2018-06-17T14:54:43Z</time>
      </trkpt>
      <trkpt lat="43.2391960" lon="-5.8996210">
        <ele>486.8</ele>
        <time>2018-06-17T14:54:50Z</time>
      </trkpt>
      <trkpt lat="43.2392100" lon="-5.8997840">
        <ele>487.6</ele>
        <time>2018-06-17T14:54:57Z</time>
      </trkpt>
      <trkpt lat="43.2391990" lon="-5.8998720">
        <ele>488.0</ele>
        <time>2018-06-17T14:55:01Z</time>
      </trkpt>
      <trkpt lat="43.2391910" lon="-5.8999740">
        <ele>489.2</ele>
        <time>2018-06-17T14:55:06Z</time>
      </trkpt>
      <trkpt lat="43.2392100" lon="-5.9000710">
        <ele>490.2</ele>
        <time>2018-06-17T14:55:11Z</time>
      </trkpt>
      <trkpt lat="43.2393340" lon="-5.9001570">
        <ele>491.0</ele>
        <time>2018-06-17T14:55:20Z</time>
      </trkpt>
      <trkpt lat="43.2393670" lon="-5.9001530">
        <ele>491.2</ele>
        <time>2018-06-17T14:55:22Z</time>
      </trkpt>
      <trkpt lat="43.2394530" lon="-5.9002060">
        <ele>492.2</ele>
        <time>2018-06-17T14:55:28Z</time>
      </trkpt>
      <trkpt lat="43.2394710" lon="-5.9002120">
        <ele>492.4</ele>
        <time>2018-06-17T14:55:29Z</time>
      </trkpt>
      <trkpt lat="43.2395540" lon="-5.9002810">
        <ele>493.4</ele>
        <time>2018-06-17T14:55:35Z</time>
      </trkpt>
      <trkpt lat="43.2396130" lon="-5.9003450">
        <ele>494.4</ele>
        <time>2018-06-17T14:55:40Z</time>
      </trkpt>
      <trkpt lat="43.2396900" lon="-5.9004300">
        <ele>495.6</ele>
        <time>2018-06-17T14:55:46Z</time>
      </trkpt>
      <trkpt lat="43.2397370" lon="-5.9005280">
        <ele>496.6</ele>
        <time>2018-06-17T14:55:51Z</time>
      </trkpt>
      <trkpt lat="43.2397840" lon="-5.9007130">
        <ele>497.6</ele>
        <time>2018-06-17T14:56:00Z</time>
      </trkpt>
      <trkpt lat="43.2398540" lon="-5.9008040">
        <ele>498.8</ele>
        <time>2018-06-17T14:56:07Z</time>
      </trkpt>
      <trkpt lat="43.2399610" lon="-5.9008630">
        <ele>499.8</ele>
        <time>2018-06-17T14:56:15Z</time>
      </trkpt>
      <trkpt lat="43.2400420" lon="-5.9009430">
        <ele>500.8</ele>
        <time>2018-06-17T14:56:21Z</time>
      </trkpt>
      <trkpt lat="43.2401740" lon="-5.9010230">
        <ele>502.0</ele>
        <time>2018-06-17T14:56:28Z</time>
      </trkpt>
      <trkpt lat="43.2402470" lon="-5.9011080">
        <ele>503.2</ele>
        <time>2018-06-17T14:56:34Z</time>
      </trkpt>
      <trkpt lat="43.2403200" lon="-5.9012100">
        <ele>504.4</ele>
        <time>2018-06-17T14:56:40Z</time>
      </trkpt>
      <trkpt lat="43.2402610" lon="-5.9014190">
        <ele>505.4</ele>
        <time>2018-06-17T14:56:49Z</time>
      </trkpt>
      <trkpt lat="43.2402250" lon="-5.9015230">
        <ele>506.4</ele>
        <time>2018-06-17T14:56:55Z</time>
      </trkpt>
      <trkpt lat="43.2402160" lon="-5.9015560">
        <ele>506.8</ele>
        <time>2018-06-17T14:56:57Z</time>
      </trkpt>
      <trkpt lat="43.2402180" lon="-5.9016170">
        <ele>507.4</ele>
        <time>2018-06-17T14:57:00Z</time>
      </trkpt>
      <trkpt lat="43.2402340" lon="-5.9016750">
        <ele>508.2</ele>
        <time>2018-06-17T14:57:03Z</time>
      </trkpt>
      <trkpt lat="43.2402660" lon="-5.9016990">
        <ele>508.4</ele>
        <time>2018-06-17T14:57:05Z</time>
      </trkpt>
      <trkpt lat="43.2402990" lon="-5.9017060">
        <ele>508.8</ele>
        <time>2018-06-17T14:57:07Z</time>
      </trkpt>
      <trkpt lat="43.2403930" lon="-5.9017070">
        <ele>509.6</ele>
        <time>2018-06-17T14:57:13Z</time>
      </trkpt>
      <trkpt lat="43.2404970" lon="-5.9017290">
        <ele>510.6</ele>
        <time>2018-06-17T14:57:20Z</time>
      </trkpt>
      <trkpt lat="43.2406150" lon="-5.9017570">
        <ele>511.8</ele>
        <time>2018-06-17T14:57:27Z</time>
      </trkpt>
      <trkpt lat="43.2406800" lon="-5.9018260">
        <ele>512.8</ele>
        <time>2018-06-17T14:57:33Z</time>
      </trkpt>
      <trkpt lat="43.2407800" lon="-5.9019320">
        <ele>514.0</ele>
        <time>2018-06-17T14:57:41Z</time>
      </trkpt>
      <trkpt lat="43.2408770" lon="-5.9020930">
        <ele>515.0</ele>
        <time>2018-06-17T14:57:49Z</time>
      </trkpt>
      <trkpt lat="43.2410030" lon="-5.9021880">
        <ele>516.0</ele>
        <time>2018-06-17T14:57:56Z</time>
      </trkpt>
      <trkpt lat="43.2411050" lon="-5.9022540">
        <ele>517.2</ele>
        <time>2018-06-17T14:58:02Z</time>
      </trkpt>
      <trkpt lat="43.2411720" lon="-5.9022550">
        <ele>518.4</ele>
        <time>2018-06-17T14:58:08Z</time>
      </trkpt>
      <trkpt lat="43.2412760" lon="-5.9023090">
        <ele>519.6</ele>
        <time>2018-06-17T14:58:17Z</time>
      </trkpt>
      <trkpt lat="43.2414300" lon="-5.9023800">
        <ele>520.6</ele>
        <time>2018-06-17T14:58:24Z</time>
      </trkpt>
      <trkpt lat="43.2415800" lon="-5.9024320">
        <ele>521.4</ele>
        <time>2018-06-17T14:58:32Z</time>
      </trkpt>
      <trkpt lat="43.2416740" lon="-5.9024760">
        <ele>522.4</ele>
        <time>2018-06-17T14:58:37Z</time>
      </trkpt>
      <trkpt lat="43.2418280" lon="-5.9025120">
        <ele>523.6</ele>
        <time>2018-06-17T14:58:46Z</time>
      </trkpt>
      <trkpt lat="43.2419540" lon="-5.9025400">
        <ele>524.6</ele>
        <time>2018-06-17T14:58:52Z</time>
      </trkpt>
      <trkpt lat="43.2420610" lon="-5.9025630">
        <ele>525.4</ele>
        <time>2018-06-17T14:58:58Z</time>
      </trkpt>
      <trkpt lat="43.2420950" lon="-5.9025830">
        <ele>525.8</ele>
        <time>2018-06-17T14:59:00Z</time>
      </trkpt>
      <trkpt lat="43.2422110" lon="-5.9025860">
        <ele>527.0</ele>
        <time>2018-06-17T14:59:07Z</time>
      </trkpt>
      <trkpt lat="43.2422920" lon="-5.9026410">
        <ele>528.0</ele>
        <time>2018-06-17T14:59:12Z</time>
      </trkpt>
      <trkpt lat="43.2423830" lon="-5.9026860">
        <ele>529.0</ele>
        <time>2018-06-17T14:59:17Z</time>
      </trkpt>
      <trkpt lat="43.2424760" lon="-5.9028230">
        <ele>530.2</ele>
        <time>2018-06-17T14:59:25Z</time>
      </trkpt>
      <trkpt lat="43.2425270" lon="-5.9029810">
        <ele>531.2</ele>
        <time>2018-06-17T14:59:33Z</time>
      </trkpt>
      <trkpt lat="43.2425560" lon="-5.9030810">
        <ele>532.4</ele>
        <time>2018-06-17T14:59:38Z</time>
      </trkpt>
      <trkpt lat="43.2426180" lon="-5.9031250">
        <ele>533.4</ele>
        <time>2018-06-17T14:59:43Z</time>
      </trkpt>
      <trkpt lat="43.2427180" lon="-5.9031340">
        <ele>534.4</ele>
        <time>2018-06-17T14:59:50Z</time>
      </trkpt>
      <trkpt lat="43.2427760" lon="-5.9031860">
        <ele>535.6</ele>
        <time>2018-06-17T14:59:56Z</time>
      </trkpt>
      <trkpt lat="43.2428780" lon="-5.9032450">
        <ele>536.6</ele>
        <time>2018-06-17T15:00:04Z</time>
      </trkpt>
      <trkpt lat="43.2430240" lon="-5.9033140">
        <ele>537.8</ele>
        <time>2018-06-17T15:00:13Z</time>
      </trkpt>
      <trkpt lat="43.2431350" lon="-5.9033950">
        <ele>539.0</ele>
        <time>2018-06-17T15:00:19Z</time>
      </trkpt>
      <trkpt lat="43.2432360" lon="-5.9034930">
        <ele>540.0</ele>
        <time>2018-06-17T15:00:26Z</time>
      </trkpt>
      <trkpt lat="43.2433200" lon="-5.9035470">
        <ele>541.0</ele>
        <time>2018-06-17T15:00:33Z</time>
      </trkpt>
      <trkpt lat="43.2434730" lon="-5.9035850">
        <ele>542.2</ele>
        <time>2018-06-17T15:00:41Z</time>
      </trkpt>
      <trkpt lat="43.2435860" lon="-5.9037010">
        <ele>543.2</ele>
        <time>2018-06-17T15:00:49Z</time>
      </trkpt>
      <trkpt lat="43.2436570" lon="-5.9038230">
        <ele>544.4</ele>
        <time>2018-06-17T15:00:54Z</time>
      </trkpt>
      <trkpt lat="43.2437850" lon="-5.9040360">
        <ele>545.6</ele>
        <time>2018-06-17T15:01:02Z</time>
      </trkpt>
      <trkpt lat="43.2438510" lon="-5.9042070">
        <ele>546.8</ele>
        <time>2018-06-17T15:01:10Z</time>
      </trkpt>
      <trkpt lat="43.2438660" lon="-5.9043560">
        <ele>548.0</ele>
        <time>2018-06-17T15:01:16Z</time>
      </trkpt>
      <trkpt lat="43.2438520" lon="-5.9044560">
        <ele>548.4</ele>
        <time>2018-06-17T15:01:20Z</time>
      </trkpt>
      <trkpt lat="43.2438030" lon="-5.9045170">
        <ele>549.0</ele>
        <time>2018-06-17T15:01:23Z</time>
      </trkpt>
      <trkpt lat="43.2437210" lon="-5.9046450">
        <ele>550.2</ele>
        <time>2018-06-17T15:01:30Z</time>
      </trkpt>
      <trkpt lat="43.2436230" lon="-5.9047500">
        <ele>551.2</ele>
        <time>2018-06-17T15:01:37Z</time>
      </trkpt>
      <trkpt lat="43.2436210" lon="-5.9047670">
        <ele>551.2</ele>
        <time>2018-06-17T15:01:38Z</time>
      </trkpt>
      <trkpt lat="43.2436350" lon="-5.9048400">
        <ele>551.8</ele>
        <time>2018-06-17T15:01:42Z</time>
      </trkpt>
      <trkpt lat="43.2436430" lon="-5.9048480">
        <ele>551.8</ele>
        <time>2018-06-17T15:01:43Z</time>
      </trkpt>
      <trkpt lat="43.2436560" lon="-5.9048460">
        <ele>552.0</ele>
        <time>2018-06-17T15:01:44Z</time>
      </trkpt>
      <trkpt lat="43.2437860" lon="-5.9046860">
        <ele>553.0</ele>
        <time>2018-06-17T15:01:54Z</time>
      </trkpt>
      <trkpt lat="43.2438480" lon="-5.9046160">
        <ele>554.2</ele>
        <time>2018-06-17T15:01:59Z</time>
      </trkpt>
      <trkpt lat="43.2439630" lon="-5.9045480">
        <ele>555.2</ele>
        <time>2018-06-17T15:02:07Z</time>
      </trkpt>
      <trkpt lat="43.2440180" lon="-5.9044290">
        <ele>556.2</ele>
        <time>2018-06-17T15:02:13Z</time>
      </trkpt>
      <trkpt lat="43.2440650" lon="-5.9042240">
        <ele>557.2</ele>
        <time>2018-06-17T15:02:21Z</time>
      </trkpt>
      <trkpt lat="43.2440700" lon="-5.9042010">
        <ele>557.2</ele>
        <time>2018-06-17T15:02:22Z</time>
      </trkpt>
      <trkpt lat="43.2441150" lon="-5.9040150">
        <ele>558.4</ele>
        <time>2018-06-17T15:02:30Z</time>
      </trkpt>
      <trkpt lat="43.2441710" lon="-5.9038630">
        <ele>559.0</ele>
        <time>2018-06-17T15:02:37Z</time>
      </trkpt>
      <trkpt lat="43.2441690" lon="-5.9038150">
        <ele>559.4</ele>
        <time>2018-06-17T15:02:39Z</time>
      </trkpt>
      <trkpt lat="43.2441400" lon="-5.9037030">
        <ele>560.0</ele>
        <time>2018-06-17T15:02:44Z</time>
      </trkpt>
      <trkpt lat="43.2440760" lon="-5.9036420">
        <ele>560.4</ele>
        <time>2018-06-17T15:02:48Z</time>
      </trkpt>
      <trkpt lat="43.2439430" lon="-5.9035180">
        <ele>561.6</ele>
        <time>2018-06-17T15:02:57Z</time>
      </trkpt>
      <trkpt lat="43.2438810" lon="-5.9034950">
        <ele>562.4</ele>
        <time>2018-06-17T15:03:01Z</time>
      </trkpt>
      <trkpt lat="43.2438650" lon="-5.9034870">
        <ele>562.8</ele>
        <time>2018-06-17T15:03:02Z</time>
      </trkpt>
      <trkpt lat="43.2437930" lon="-5.9034540">
        <ele>563.6</ele>
        <time>2018-06-17T15:03:07Z</time>
      </trkpt>
      <trkpt lat="43.2437640" lon="-5.9034350">
        <ele>564.0</ele>
        <time>2018-06-17T15:03:09Z</time>
      </trkpt>
      <trkpt lat="43.2437130" lon="-5.9034110">
        <ele>564.6</ele>
        <time>2018-06-17T15:03:12Z</time>
      </trkpt>
      <trkpt lat="43.2436490" lon="-5.9033740">
        <ele>565.8</ele>
        <time>2018-06-17T15:03:16Z</time>
      </trkpt>
      <trkpt lat="43.2435770" lon="-5.9033150">
        <ele>566.8</ele>
        <time>2018-06-17T15:03:21Z</time>
      </trkpt>
      <trkpt lat="43.2435040" lon="-5.9032370">
        <ele>567.8</ele>
        <time>2018-06-17T15:03:27Z</time>
      </trkpt>
      <trkpt lat="43.2434460" lon="-5.9031380">
        <ele>569.0</ele>
        <time>2018-06-17T15:03:32Z</time>
      </trkpt>
      <trkpt lat="43.2433640" lon="-5.9029940">
        <ele>569.8</ele>
        <time>2018-06-17T15:03:40Z</time>
      </trkpt>
      <trkpt lat="43.2433210" lon="-5.9029130">
        <ele>570.8</ele>
        <time>2018-06-17T15:03:45Z</time>
      </trkpt>
      <trkpt lat="43.2432870" lon="-5.9028260">
        <ele>571.8</ele>
        <time>2018-06-17T15:03:50Z</time>
      </trkpt>
      <trkpt lat="43.2431860" lon="-5.9026180">
        <ele>572.8</ele>
        <time>2018-06-17T15:03:58Z</time>
      </trkpt>
      <trkpt lat="43.2430820" lon="-5.9025100">
        <ele>574.0</ele>
        <time>2018-06-17T15:04:05Z</time>
      </trkpt>
      <trkpt lat="43.2429660" lon="-5.9023590">
        <ele>574.8</ele>
        <time>2018-06-17T15:04:13Z</time>
      </trkpt>
      <trkpt lat="43.2429290" lon="-5.9022190">
        <ele>576.0</ele>
        <time>2018-06-17T15:04:19Z</time>
      </trkpt>
      <trkpt lat="43.2429290" lon="-5.9021010">
        <ele>577.0</ele>
        <time>2018-06-17T15:04:24Z</time>
      </trkpt>
      <trkpt lat="43.2429410" lon="-5.9019560">
        <ele>578.0</ele>
        <time>2018-06-17T15:04:30Z</time>
      </trkpt>
      <trkpt lat="43.2429490" lon="-5.9018070">
        <ele>579.0</ele>
        <time>2018-06-17T15:04:36Z</time>
      </trkpt>
      <trkpt lat="43.2428870" lon="-5.9016540">
        <ele>580.0</ele>
        <time>2018-06-17T15:04:43Z</time>
      </trkpt>
      <trkpt lat="43.2428290" lon="-5.9015330">
        <ele>581.0</ele>
        <time>2018-06-17T15:04:49Z</time>
      </trkpt>
      <trkpt lat="43.2427950" lon="-5.9014370">
        <ele>582.0</ele>
        <time>2018-06-17T15:04:54Z</time>
      </trkpt>
      <trkpt lat="43.2427620" lon="-5.9012940">
        <ele>583.0</ele>
        <time>2018-06-17T15:05:00Z</time>
      </trkpt>
      <trkpt lat="43.2427570" lon="-5.9011190">
        <ele>584.0</ele>
        <time>2018-06-17T15:05:06Z</time>
      </trkpt>
      <trkpt lat="43.2427710" lon="-5.9009790">
        <ele>585.0</ele>
        <time>2018-06-17T15:05:11Z</time>
      </trkpt>
      <trkpt lat="43.2427800" lon="-5.9007790">
        <ele>586.0</ele>
        <time>2018-06-17T15:05:18Z</time>
      </trkpt>
      <trkpt lat="43.2427310" lon="-5.9006420">
        <ele>587.2</ele>
        <time>2018-06-17T15:05:24Z</time>
      </trkpt>
      <trkpt lat="43.2426700" lon="-5.9005570">
        <ele>588.4</ele>
        <time>2018-06-17T15:05:29Z</time>
      </trkpt>
      <trkpt lat="43.2425870" lon="-5.9004670">
        <ele>589.2</ele>
        <time>2018-06-17T15:05:35Z</time>
      </trkpt>
      <trkpt lat="43.2425210" lon="-5.9003840">
        <ele>590.6</ele>
        <time>2018-06-17T15:05:40Z</time>
      </trkpt>
      <trkpt lat="43.2424480" lon="-5.9002840">
        <ele>591.6</ele>
        <time>2018-06-17T15:05:46Z</time>
      </trkpt>
      <trkpt lat="43.2423860" lon="-5.9001700">
        <ele>592.6</ele>
        <time>2018-06-17T15:05:52Z</time>
      </trkpt>
      <trkpt lat="43.2423490" lon="-5.9000940">
        <ele>593.6</ele>
        <time>2018-06-17T15:05:56Z</time>
      </trkpt>
      <trkpt lat="43.2422940" lon="-5.8999740">
        <ele>594.6</ele>
        <time>2018-06-17T15:06:02Z</time>
      </trkpt>
      <trkpt lat="43.2422840" lon="-5.8999110">
        <ele>595.0</ele>
        <time>2018-06-17T15:06:05Z</time>
      </trkpt>
      <trkpt lat="43.2422960" lon="-5.8997950">
        <ele>595.8</ele>
        <time>2018-06-17T15:06:09Z</time>
      </trkpt>
      <trkpt lat="43.2423600" lon="-5.8996390">
        <ele>596.8</ele>
        <time>2018-06-17T15:06:15Z</time>
      </trkpt>
      <trkpt lat="43.2424360" lon="-5.8995580">
        <ele>598.2</ele>
        <time>2018-06-17T15:06:20Z</time>
      </trkpt>
      <trkpt lat="43.2425330" lon="-5.8994770">
        <ele>599.2</ele>
        <time>2018-06-17T15:06:26Z</time>
      </trkpt>
      <trkpt lat="43.2425810" lon="-5.8994590">
        <ele>600.0</ele>
        <time>2018-06-17T15:06:29Z</time>
      </trkpt>
      <trkpt lat="43.2426000" lon="-5.8994570">
        <ele>600.2</ele>
        <time>2018-06-17T15:06:30Z</time>
      </trkpt>
      <trkpt lat="43.2427420" lon="-5.8994310">
        <ele>601.2</ele>
        <time>2018-06-17T15:06:37Z</time>
      </trkpt>
      <trkpt lat="43.2429030" lon="-5.8994270">
        <ele>602.2</ele>
        <time>2018-06-17T15:06:45Z</time>
      </trkpt>
      <trkpt lat="43.2430220" lon="-5.8994420">
        <ele>603.4</ele>
        <time>2018-06-17T15:06:52Z</time>
      </trkpt>
      <trkpt lat="43.2431570" lon="-5.8994600">
        <ele>604.4</ele>
        <time>2018-06-17T15:06:59Z</time>
      </trkpt>
      <trkpt lat="43.2432540" lon="-5.8994680">
        <ele>605.4</ele>
        <time>2018-06-17T15:07:05Z</time>
      </trkpt>
      <trkpt lat="43.2433890" lon="-5.8994580">
        <ele>606.6</ele>
        <time>2018-06-17T15:07:12Z</time>
      </trkpt>
      <trkpt lat="43.2434740" lon="-5.8994200">
        <ele>607.6</ele>
        <time>2018-06-17T15:07:17Z</time>
      </trkpt>
      <trkpt lat="43.2435290" lon="-5.8993980">
        <ele>608.6</ele>
        <time>2018-06-17T15:07:20Z</time>
      </trkpt>
      <trkpt lat="43.2436230" lon="-5.8993660">
        <ele>609.8</ele>
        <time>2018-06-17T15:07:25Z</time>
      </trkpt>
      <trkpt lat="43.2437220" lon="-5.8993110">
        <ele>610.6</ele>
        <time>2018-06-17T15:07:31Z</time>
      </trkpt>
      <trkpt lat="43.2437870" lon="-5.8992630">
        <ele>611.8</ele>
        <time>2018-06-17T15:07:35Z</time>
      </trkpt>
      <trkpt lat="43.2438720" lon="-5.8991800">
        <ele>612.8</ele>
        <time>2018-06-17T15:07:41Z</time>
      </trkpt>
      <trkpt lat="43.2439670" lon="-5.8990750">
        <ele>614.0</ele>
        <time>2018-06-17T15:07:48Z</time>
      </trkpt>
      <trkpt lat="43.2440560" lon="-5.8989930">
        <ele>615.2</ele>
        <time>2018-06-17T15:07:54Z</time>
      </trkpt>
      <trkpt lat="43.2441490" lon="-5.8989910">
        <ele>616.2</ele>
        <time>2018-06-17T15:07:59Z</time>
      </trkpt>
      <trkpt lat="43.2441870" lon="-5.8991300">
        <ele>617.4</ele>
        <time>2018-06-17T15:08:05Z</time>
      </trkpt>
      <trkpt lat="43.2441200" lon="-5.8992780">
        <ele>618.4</ele>
        <time>2018-06-17T15:08:11Z</time>
      </trkpt>
      <trkpt lat="43.2440270" lon="-5.8994370">
        <ele>619.4</ele>
        <time>2018-06-17T15:08:18Z</time>
      </trkpt>
      <trkpt lat="43.2439890" lon="-5.8995600">
        <ele>620.4</ele>
        <time>2018-06-17T15:08:23Z</time>
      </trkpt>
      <trkpt lat="43.2439730" lon="-5.8996620">
        <ele>621.6</ele>
        <time>2018-06-17T15:08:27Z</time>
      </trkpt>
      <trkpt lat="43.2439740" lon="-5.8998350">
        <ele>622.4</ele>
        <time>2018-06-17T15:08:34Z</time>
      </trkpt>
      <trkpt lat="43.2439920" lon="-5.8999800">
        <ele>623.6</ele>
        <time>2018-06-17T15:08:40Z</time>
      </trkpt>
      <trkpt lat="43.2440200" lon="-5.9001700">
        <ele>624.8</ele>
        <time>2018-06-17T15:08:48Z</time>
      </trkpt>
      <trkpt lat="43.2440330" lon="-5.9002650">
        <ele>625.8</ele>
        <time>2018-06-17T15:08:52Z</time>
      </trkpt>
      <trkpt lat="43.2440560" lon="-5.9004310">
        <ele>627.0</ele>
        <time>2018-06-17T15:08:59Z</time>
      </trkpt>
      <trkpt lat="43.2440700" lon="-5.9005650">
        <ele>628.0</ele>
        <time>2018-06-17T15:09:05Z</time>
      </trkpt>
      <trkpt lat="43.2440970" lon="-5.9006790">
        <ele>629.0</ele>
        <time>2018-06-17T15:09:10Z</time>
      </trkpt>
      <trkpt lat="43.2441550" lon="-5.9008610">
        <ele>630.2</ele>
        <time>2018-06-17T15:09:17Z</time>
      </trkpt>
      <trkpt lat="43.2442280" lon="-5.9009800">
        <ele>631.4</ele>
        <time>2018-06-17T15:09:22Z</time>
      </trkpt>
      <trkpt lat="43.2443540" lon="-5.9010850">
        <ele>632.2</ele>
        <time>2018-06-17T15:09:30Z</time>
      </trkpt>
      <trkpt lat="43.2444310" lon="-5.9011210">
        <ele>633.4</ele>
        <time>2018-06-17T15:09:35Z</time>
      </trkpt>
      <trkpt lat="43.2445160" lon="-5.9011220">
        <ele>634.6</ele>
        <time>2018-06-17T15:09:40Z</time>
      </trkpt>
      <trkpt lat="43.2445730" lon="-5.9011570">
        <ele>635.6</ele>
        <time>2018-06-17T15:09:44Z</time>
      </trkpt>
      <trkpt lat="43.2446730" lon="-5.9011960">
        <ele>636.6</ele>
        <time>2018-06-17T15:09:49Z</time>
      </trkpt>
      <trkpt lat="43.2450120" lon="-5.9014460">
        <ele>636.2</ele>
        <time>2018-06-17T15:10:01Z</time>
      </trkpt>
      <trkpt lat="43.2450960" lon="-5.9014910">
        <ele>636.8</ele>
        <time>2018-06-17T15:10:04Z</time>
      </trkpt>
      <trkpt lat="43.2452440" lon="-5.9015750">
        <ele>637.8</ele>
        <time>2018-06-17T15:10:11Z</time>
      </trkpt>
      <trkpt lat="43.2454190" lon="-5.9016570">
        <ele>638.8</ele>
        <time>2018-06-17T15:10:19Z</time>
      </trkpt>
      <trkpt lat="43.2455290" lon="-5.9017210">
        <ele>639.8</ele>
        <time>2018-06-17T15:10:24Z</time>
      </trkpt>
      <trkpt lat="43.2456560" lon="-5.9018110">
        <ele>640.8</ele>
        <time>2018-06-17T15:10:30Z</time>
      </trkpt>
      <trkpt lat="43.2457300" lon="-5.9018930">
        <ele>642.0</ele>
        <time>2018-06-17T15:10:34Z</time>
      </trkpt>
      <trkpt lat="43.2458020" lon="-5.9020860">
        <ele>643.0</ele>
        <time>2018-06-17T15:10:40Z</time>
      </trkpt>
      <trkpt lat="43.2458020" lon="-5.9022160">
        <ele>644.4</ele>
        <time>2018-06-17T15:10:44Z</time>
      </trkpt>
      <trkpt lat="43.2458560" lon="-5.9023060">
        <ele>645.4</ele>
        <time>2018-06-17T15:10:48Z</time>
      </trkpt>
      <trkpt lat="43.2459630" lon="-5.9025050">
        <ele>646.4</ele>
        <time>2018-06-17T15:10:57Z</time>
      </trkpt>
      <trkpt lat="43.2460590" lon="-5.9026840">
        <ele>647.4</ele>
        <time>2018-06-17T15:11:04Z</time>
      </trkpt>
      <trkpt lat="43.2461750" lon="-5.9029040">
        <ele>648.4</ele>
        <time>2018-06-17T15:11:12Z</time>
      </trkpt>
      <trkpt lat="43.2463000" lon="-5.9030710">
        <ele>649.2</ele>
        <time>2018-06-17T15:11:20Z</time>
      </trkpt>
      <trkpt lat="43.2464370" lon="-5.9033000">
        <ele>650.6</ele>
        <time>2018-06-17T15:11:28Z</time>
      </trkpt>
      <trkpt lat="43.2465490" lon="-5.9034450">
        <ele>651.6</ele>
        <time>2018-06-17T15:11:35Z</time>
      </trkpt>
      <trkpt lat="43.2466220" lon="-5.9035050">
        <ele>652.8</ele>
        <time>2018-06-17T15:11:39Z</time>
      </trkpt>
      <trkpt lat="43.2466630" lon="-5.9035370">
        <ele>653.2</ele>
        <time>2018-06-17T15:11:41Z</time>
      </trkpt>
      <trkpt lat="43.2467250" lon="-5.9035630">
        <ele>653.8</ele>
        <time>2018-06-17T15:11:44Z</time>
      </trkpt>
      <trkpt lat="43.2468350" lon="-5.9035880">
        <ele>655.0</ele>
        <time>2018-06-17T15:11:49Z</time>
      </trkpt>
      <trkpt lat="43.2469470" lon="-5.9035890">
        <ele>656.0</ele>
        <time>2018-06-17T15:11:54Z</time>
      </trkpt>
      <trkpt lat="43.2470150" lon="-5.9035850">
        <ele>657.0</ele>
        <time>2018-06-17T15:11:57Z</time>
      </trkpt>
      <trkpt lat="43.2471970" lon="-5.9035390">
        <ele>657.8</ele>
        <time>2018-06-17T15:12:05Z</time>
      </trkpt>
      <trkpt lat="43.2473710" lon="-5.9035510">
        <ele>659.0</ele>
        <time>2018-06-17T15:12:13Z</time>
      </trkpt>
      <trkpt lat="43.2474810" lon="-5.9037430">
        <ele>660.0</ele>
        <time>2018-06-17T15:12:21Z</time>
      </trkpt>
      <trkpt lat="43.2474700" lon="-5.9039010">
        <ele>661.2</ele>
        <time>2018-06-17T15:12:26Z</time>
      </trkpt>
      <trkpt lat="43.2474670" lon="-5.9040630">
        <ele>662.2</ele>
        <time>2018-06-17T15:12:31Z</time>
      </trkpt>
      <trkpt lat="43.2474430" lon="-5.9042160">
        <ele>663.0</ele>
        <time>2018-06-17T15:12:36Z</time>
      </trkpt>
      <trkpt lat="43.2474310" lon="-5.9043000">
        <ele>663.8</ele>
        <time>2018-06-17T15:12:39Z</time>
      </trkpt>
      <trkpt lat="43.2474100" lon="-5.9043680">
        <ele>664.2</ele>
        <time>2018-06-17T15:12:42Z</time>
      </trkpt>
      <trkpt lat="43.2473310" lon="-5.9045620">
        <ele>665.4</ele>
        <time>2018-06-17T15:12:49Z</time>
      </trkpt>
      <trkpt lat="43.2472830" lon="-5.9046680">
        <ele>666.6</ele>
        <time>2018-06-17T15:12:53Z</time>
      </trkpt>
      <trkpt lat="43.2472570" lon="-5.9049090">
        <ele>667.8</ele>
        <time>2018-06-17T15:13:01Z</time>
      </trkpt>
      <trkpt lat="43.2473120" lon="-5.9050480">
        <ele>668.8</ele>
        <time>2018-06-17T15:13:06Z</time>
      </trkpt>
      <trkpt lat="43.2473750" lon="-5.9052150">
        <ele>670.0</ele>
        <time>2018-06-17T15:13:12Z</time>
      </trkpt>
      <trkpt lat="43.2474300" lon="-5.9053640">
        <ele>671.0</ele>
        <time>2018-06-17T15:13:17Z</time>
      </trkpt>
      <trkpt lat="43.2474980" lon="-5.9054970">
        <ele>672.0</ele>
        <time>2018-06-17T15:13:24Z</time>
      </trkpt>
      <trkpt lat="43.2475350" lon="-5.9056840">
        <ele>673.2</ele>
        <time>2018-06-17T15:13:31Z</time>
      </trkpt>
      <trkpt lat="43.2475730" lon="-5.9057910">
        <ele>674.2</ele>
        <time>2018-06-17T15:13:35Z</time>
      </trkpt>
      <trkpt lat="43.2476010" lon="-5.9058910">
        <ele>675.2</ele>
        <time>2018-06-17T15:13:39Z</time>
      </trkpt>
      <trkpt lat="43.2476550" lon="-5.9060300">
        <ele>676.2</ele>
        <time>2018-06-17T15:13:45Z</time>
      </trkpt>
      <trkpt lat="43.2477560" lon="-5.9061630">
        <ele>677.2</ele>
        <time>2018-06-17T15:13:51Z</time>
      </trkpt>
      <trkpt lat="43.2479050" lon="-5.9063690">
        <ele>678.2</ele>
        <time>2018-06-17T15:14:00Z</time>
      </trkpt>
      <trkpt lat="43.2479670" lon="-5.9065450">
        <ele>679.4</ele>
        <time>2018-06-17T15:14:07Z</time>
      </trkpt>
      <trkpt lat="43.2479790" lon="-5.9066070">
        <ele>680.6</ele>
        <time>2018-06-17T15:14:10Z</time>
      </trkpt>
      <trkpt lat="43.2479910" lon="-5.9067340">
        <ele>681.8</ele>
        <time>2018-06-17T15:14:15Z</time>
      </trkpt>
      <trkpt lat="43.2479920" lon="-5.9068940">
        <ele>682.6</ele>
        <time>2018-06-17T15:14:21Z</time>
      </trkpt>
      <trkpt lat="43.2479700" lon="-5.9070470">
        <ele>684.0</ele>
        <time>2018-06-17T15:14:27Z</time>
      </trkpt>
      <trkpt lat="43.2479510" lon="-5.9071190">
        <ele>685.0</ele>
        <time>2018-06-17T15:14:30Z</time>
      </trkpt>
      <trkpt lat="43.2479210" lon="-5.9071790">
        <ele>685.4</ele>
        <time>2018-06-17T15:14:33Z</time>
      </trkpt>
      <trkpt lat="43.2478900" lon="-5.9072060">
        <ele>685.6</ele>
        <time>2018-06-17T15:14:35Z</time>
      </trkpt>
      <trkpt lat="43.2478690" lon="-5.9072750">
        <ele>686.2</ele>
        <time>2018-06-17T15:14:38Z</time>
      </trkpt>
      <trkpt lat="43.2478150" lon="-5.9073390">
        <ele>687.4</ele>
        <time>2018-06-17T15:14:42Z</time>
      </trkpt>
      <trkpt lat="43.2477320" lon="-5.9074330">
        <ele>688.2</ele>
        <time>2018-06-17T15:14:48Z</time>
      </trkpt>
      <trkpt lat="43.2476450" lon="-5.9075180">
        <ele>689.4</ele>
        <time>2018-06-17T15:14:54Z</time>
      </trkpt>
      <trkpt lat="43.2475630" lon="-5.9075920">
        <ele>690.6</ele>
        <time>2018-06-17T15:14:59Z</time>
      </trkpt>
      <trkpt lat="43.2474630" lon="-5.9076650">
        <ele>691.8</ele>
        <time>2018-06-17T15:15:05Z</time>
      </trkpt>
      <trkpt lat="43.2473530" lon="-5.9077680">
        <ele>692.8</ele>
        <time>2018-06-17T15:15:12Z</time>
      </trkpt>
      <trkpt lat="43.2472770" lon="-5.9077910">
        <ele>693.4</ele>
        <time>2018-06-17T15:15:16Z</time>
      </trkpt>
      <trkpt lat="43.2472230" lon="-5.9078110">
        <ele>694.0</ele>
        <time>2018-06-17T15:15:19Z</time>
      </trkpt>
      <trkpt lat="43.2470690" lon="-5.9078550">
        <ele>694.8</ele>
        <time>2018-06-17T15:15:27Z</time>
      </trkpt>
      <trkpt lat="43.2469320" lon="-5.9078560">
        <ele>695.8</ele>
        <time>2018-06-17T15:15:34Z</time>
      </trkpt>
      <trkpt lat="43.2468110" lon="-5.9078460">
        <ele>696.8</ele>
        <time>2018-06-17T15:15:40Z</time>
      </trkpt>
      <trkpt lat="43.2466740" lon="-5.9078210">
        <ele>697.8</ele>
        <time>2018-06-17T15:15:47Z</time>
      </trkpt>
      <trkpt lat="43.2465230" lon="-5.9078180">
        <ele>699.0</ele>
        <time>2018-06-17T15:15:54Z</time>
      </trkpt>
      <trkpt lat="43.2463740" lon="-5.9078450">
        <ele>700.0</ele>
        <time>2018-06-17T15:16:00Z</time>
      </trkpt>
      <trkpt lat="43.2461960" lon="-5.9079070">
        <ele>701.2</ele>
        <time>2018-06-17T15:16:07Z</time>
      </trkpt>
      <trkpt lat="43.2459980" lon="-5.9080450">
        <ele>702.0</ele>
        <time>2018-06-17T15:16:15Z</time>
      </trkpt>
      <trkpt lat="43.2458480" lon="-5.9082050">
        <ele>703.2</ele>
        <time>2018-06-17T15:16:22Z</time>
      </trkpt>
      <trkpt lat="43.2456820" lon="-5.9084190">
        <ele>704.2</ele>
        <time>2018-06-17T15:16:30Z</time>
      </trkpt>
      <trkpt lat="43.2454720" lon="-5.9087460">
        <ele>705.0</ele>
        <time>2018-06-17T15:16:40Z</time>
      </trkpt>
      <trkpt lat="43.2451580" lon="-5.9092300">
        <ele>705.8</ele>
        <time>2018-06-17T15:16:52Z</time>
      </trkpt>
      <trkpt lat="43.2450870" lon="-5.9093030">
        <ele>706.2</ele>
        <time>2018-06-17T15:16:54Z</time>
      </trkpt>
      <trkpt lat="43.2448070" lon="-5.9095250">
        <ele>707.0</ele>
        <time>2018-06-17T15:17:01Z</time>
      </trkpt>
      <trkpt lat="43.2443560" lon="-5.9100020">
        <ele>708.0</ele>
        <time>2018-06-17T15:17:12Z</time>
      </trkpt>
      <trkpt lat="43.2443190" lon="-5.9100510">
        <ele>708.0</ele>
        <time>2018-06-17T15:17:13Z</time>
      </trkpt>
      <trkpt lat="43.2442040" lon="-5.9101970">
        <ele>708.2</ele>
        <time>2018-06-17T15:17:16Z</time>
      </trkpt>
      <trkpt lat="43.2438490" lon="-5.9107050">
        <ele>707.4</ele>
        <time>2018-06-17T15:17:25Z</time>
      </trkpt>
      <trkpt lat="43.2436010" lon="-5.9110670">
        <ele>706.8</ele>
        <time>2018-06-17T15:17:31Z</time>
      </trkpt>
      <trkpt lat="43.2435680" lon="-5.9111350">
        <ele>706.8</ele>
        <time>2018-06-17T15:17:32Z</time>
      </trkpt>
      <trkpt lat="43.2435680" lon="-5.9116930">
        <ele>706.8</ele>
        <time>2018-06-17T15:17:40Z</time>
      </trkpt>
      <trkpt lat="43.2435970" lon="-5.9117630">
        <ele>706.8</ele>
        <time>2018-06-17T15:17:41Z</time>
      </trkpt>
      <trkpt lat="43.2437400" lon="-5.9120500">
        <ele>707.4</ele>
        <time>2018-06-17T15:17:45Z</time>
      </trkpt>
      <trkpt lat="43.2438050" lon="-5.9122080">
        <ele>707.8</ele>
        <time>2018-06-17T15:17:47Z</time>
      </trkpt>
      <trkpt lat="43.2438330" lon="-5.9122880">
        <ele>707.8</ele>
        <time>2018-06-17T15:17:48Z</time>
      </trkpt>
      <trkpt lat="43.2438540" lon="-5.9123680">
        <ele>708.0</ele>
        <time>2018-06-17T15:17:49Z</time>
      </trkpt>
      <trkpt lat="43.2438780" lon="-5.9125240">
        <ele>709.0</ele>
        <time>2018-06-17T15:17:51Z</time>
      </trkpt>
      <trkpt lat="43.2439170" lon="-5.9127980">
        <ele>709.8</ele>
        <time>2018-06-17T15:17:55Z</time>
      </trkpt>
      <trkpt lat="43.2440400" lon="-5.9133200">
        <ele>711.4</ele>
        <time>2018-06-17T15:18:07Z</time>
      </trkpt>
      <trkpt lat="43.2440410" lon="-5.9133240">
        <ele>712.0</ele>
        <time>2018-06-17T15:18:08Z</time>
      </trkpt>
      <trkpt lat="43.2439700" lon="-5.9131260">
        <ele>709.8</ele>
        <time>2018-06-17T16:29:22Z</time>
      </trkpt>
      <trkpt lat="43.2439680" lon="-5.9130930">
        <ele>709.8</ele>
        <time>2018-06-17T16:29:23Z</time>
      </trkpt>
      <trkpt lat="43.2439130" lon="-5.9127540">
        <ele>709.8</ele>
        <time>2018-06-17T16:29:33Z</time>
      </trkpt>
      <trkpt lat="43.2438900" lon="-5.9126050">
        <ele>709.2</ele>
        <time>2018-06-17T16:29:37Z</time>
      </trkpt>
      <trkpt lat="43.2438770" lon="-5.9125240">
        <ele>708.8</ele>
        <time>2018-06-17T16:29:39Z</time>
      </trkpt>
      <trkpt lat="43.2438350" lon="-5.9123090">
        <ele>708.2</ele>
        <time>2018-06-17T16:29:44Z</time>
      </trkpt>
      <trkpt lat="43.2437730" lon="-5.9121360">
        <ele>707.8</ele>
        <time>2018-06-17T16:29:48Z</time>
      </trkpt>
      <trkpt lat="43.2436130" lon="-5.9118140">
        <ele>706.8</ele>
        <time>2018-06-17T16:29:59Z</time>
      </trkpt>
      <trkpt lat="43.2435940" lon="-5.9117790">
        <ele>706.4</ele>
        <time>2018-06-17T16:30:01Z</time>
      </trkpt>
      <trkpt lat="43.2435170" lon="-5.9115540">
        <ele>706.2</ele>
        <time>2018-06-17T16:30:15Z</time>
      </trkpt>
      <trkpt lat="43.2435070" lon="-5.9114870">
        <ele>706.0</ele>
        <time>2018-06-17T16:30:18Z</time>
      </trkpt>
      <trkpt lat="43.2434950" lon="-5.9114190">
        <ele>706.0</ele>
        <time>2018-06-17T16:30:20Z</time>
      </trkpt>
      <trkpt lat="43.2435030" lon="-5.9113280">
        <ele>705.8</ele>
        <time>2018-06-17T16:30:22Z</time>
      </trkpt>
      <trkpt lat="43.2435100" lon="-5.9112790">
        <ele>705.8</ele>
        <time>2018-06-17T16:30:23Z</time>
      </trkpt>
      <trkpt lat="43.2435330" lon="-5.9111800">
        <ele>705.8</ele>
        <time>2018-06-17T16:30:25Z</time>
      </trkpt>
      <trkpt lat="43.2437550" lon="-5.9107950">
        <ele>705.0</ele>
        <time>2018-06-17T16:30:34Z</time>
      </trkpt>
      <trkpt lat="43.2438410" lon="-5.9106840">
        <ele>705.4</ele>
        <time>2018-06-17T16:30:37Z</time>
      </trkpt>
      <trkpt lat="43.2439360" lon="-5.9105700">
        <ele>705.6</ele>
        <time>2018-06-17T16:30:40Z</time>
      </trkpt>
      <trkpt lat="43.2440280" lon="-5.9104440">
        <ele>705.6</ele>
        <time>2018-06-17T16:30:43Z</time>
      </trkpt>
      <trkpt lat="43.2442230" lon="-5.9101510">
        <ele>706.2</ele>
        <time>2018-06-17T16:30:50Z</time>
      </trkpt>
      <trkpt lat="43.2445790" lon="-5.9096590">
        <ele>705.0</ele>
        <time>2018-06-17T16:31:02Z</time>
      </trkpt>
      <trkpt lat="43.2448410" lon="-5.9094560">
        <ele>704.6</ele>
        <time>2018-06-17T16:31:08Z</time>
      </trkpt>
      <trkpt lat="43.2451200" lon="-5.9092350">
        <ele>704.0</ele>
        <time>2018-06-17T16:31:14Z</time>
      </trkpt>
      <trkpt lat="43.2451620" lon="-5.9091880">
        <ele>704.0</ele>
        <time>2018-06-17T16:31:15Z</time>
      </trkpt>
      <trkpt lat="43.2454190" lon="-5.9087980">
        <ele>703.6</ele>
        <time>2018-06-17T16:31:22Z</time>
      </trkpt>
      <trkpt lat="43.2454540" lon="-5.9087400">
        <ele>703.4</ele>
        <time>2018-06-17T16:31:23Z</time>
      </trkpt>
      <trkpt lat="43.2455590" lon="-5.9085690">
        <ele>702.8</ele>
        <time>2018-06-17T16:31:26Z</time>
      </trkpt>
      <trkpt lat="43.2456680" lon="-5.9083940">
        <ele>702.4</ele>
        <time>2018-06-17T16:31:29Z</time>
      </trkpt>
      <trkpt lat="43.2457070" lon="-5.9083370">
        <ele>702.0</ele>
        <time>2018-06-17T16:31:30Z</time>
      </trkpt>
      <trkpt lat="43.2458890" lon="-5.9081130">
        <ele>700.8</ele>
        <time>2018-06-17T16:31:34Z</time>
      </trkpt>
      <trkpt lat="43.2460470" lon="-5.9079550">
        <ele>699.8</ele>
        <time>2018-06-17T16:31:37Z</time>
      </trkpt>
      <trkpt lat="43.2461640" lon="-5.9078670">
        <ele>698.8</ele>
        <time>2018-06-17T16:31:39Z</time>
      </trkpt>
      <trkpt lat="43.2462280" lon="-5.9078370">
        <ele>698.4</ele>
        <time>2018-06-17T16:31:40Z</time>
      </trkpt>
      <trkpt lat="43.2464280" lon="-5.9077760">
        <ele>697.4</ele>
        <time>2018-06-17T16:31:43Z</time>
      </trkpt>
      <trkpt lat="43.2465710" lon="-5.9077660">
        <ele>696.4</ele>
        <time>2018-06-17T16:31:45Z</time>
      </trkpt>
      <trkpt lat="43.2468020" lon="-5.9077890">
        <ele>695.2</ele>
        <time>2018-06-17T16:31:48Z</time>
      </trkpt>
      <trkpt lat="43.2470620" lon="-5.9078100">
        <ele>693.6</ele>
        <time>2018-06-17T16:31:51Z</time>
      </trkpt>
      <trkpt lat="43.2472490" lon="-5.9077660">
        <ele>692.2</ele>
        <time>2018-06-17T16:31:53Z</time>
      </trkpt>
      <trkpt lat="43.2473440" lon="-5.9077240">
        <ele>691.2</ele>
        <time>2018-06-17T16:31:54Z</time>
      </trkpt>
      <trkpt lat="43.2474370" lon="-5.9076680">
        <ele>690.0</ele>
        <time>2018-06-17T16:31:55Z</time>
      </trkpt>
      <trkpt lat="43.2475250" lon="-5.9075970">
        <ele>688.8</ele>
        <time>2018-06-17T16:31:56Z</time>
      </trkpt>
      <trkpt lat="43.2476100" lon="-5.9075230">
        <ele>688.0</ele>
        <time>2018-06-17T16:31:57Z</time>
      </trkpt>
      <trkpt lat="43.2476930" lon="-5.9074510">
        <ele>687.4</ele>
        <time>2018-06-17T16:31:58Z</time>
      </trkpt>
      <trkpt lat="43.2478460" lon="-5.9072870">
        <ele>685.0</ele>
        <time>2018-06-17T16:32:00Z</time>
      </trkpt>
      <trkpt lat="43.2479550" lon="-5.9070880">
        <ele>683.4</ele>
        <time>2018-06-17T16:32:02Z</time>
      </trkpt>
      <trkpt lat="43.2480010" lon="-5.9068530">
        <ele>681.8</ele>
        <time>2018-06-17T16:32:04Z</time>
      </trkpt>
      <trkpt lat="43.2479770" lon="-5.9066060">
        <ele>680.0</ele>
        <time>2018-06-17T16:32:06Z</time>
      </trkpt>
      <trkpt lat="43.2479510" lon="-5.9064870">
        <ele>678.6</ele>
        <time>2018-06-17T16:32:07Z</time>
      </trkpt>
      <trkpt lat="43.2479180" lon="-5.9063730">
        <ele>677.6</ele>
        <time>2018-06-17T16:32:08Z</time>
      </trkpt>
      <trkpt lat="43.2478680" lon="-5.9062690">
        <ele>676.6</ele>
        <time>2018-06-17T16:32:09Z</time>
      </trkpt>
      <trkpt lat="43.2478080" lon="-5.9061800">
        <ele>676.0</ele>
        <time>2018-06-17T16:32:10Z</time>
      </trkpt>
      <trkpt lat="43.2476680" lon="-5.9060030">
        <ele>674.8</ele>
        <time>2018-06-17T16:32:12Z</time>
      </trkpt>
      <trkpt lat="43.2475800" lon="-5.9058120">
        <ele>673.8</ele>
        <time>2018-06-17T16:32:14Z</time>
      </trkpt>
      <trkpt lat="43.2475230" lon="-5.9056360">
        <ele>672.6</ele>
        <time>2018-06-17T16:32:16Z</time>
      </trkpt>
      <trkpt lat="43.2474950" lon="-5.9055650">
        <ele>671.6</ele>
        <time>2018-06-17T16:32:17Z</time>
      </trkpt>
      <trkpt lat="43.2474470" lon="-5.9054400">
        <ele>670.4</ele>
        <time>2018-06-17T16:32:19Z</time>
      </trkpt>
      <trkpt lat="43.2474130" lon="-5.9053330">
        <ele>669.0</ele>
        <time>2018-06-17T16:32:21Z</time>
      </trkpt>
      <trkpt lat="43.2473760" lon="-5.9052210">
        <ele>668.4</ele>
        <time>2018-06-17T16:32:23Z</time>
      </trkpt>
      <trkpt lat="43.2473440" lon="-5.9051650">
        <ele>668.0</ele>
        <time>2018-06-17T16:32:24Z</time>
      </trkpt>
      <trkpt lat="43.2472480" lon="-5.9049590">
        <ele>666.6</ele>
        <time>2018-06-17T16:32:27Z</time>
      </trkpt>
      <trkpt lat="43.2472280" lon="-5.9048780">
        <ele>666.2</ele>
        <time>2018-06-17T16:32:28Z</time>
      </trkpt>
      <trkpt lat="43.2472240" lon="-5.9047910">
        <ele>665.6</ele>
        <time>2018-06-17T16:32:29Z</time>
      </trkpt>
      <trkpt lat="43.2472770" lon="-5.9045490">
        <ele>664.0</ele>
        <time>2018-06-17T16:32:32Z</time>
      </trkpt>
      <trkpt lat="43.2473450" lon="-5.9044010">
        <ele>663.0</ele>
        <time>2018-06-17T16:32:34Z</time>
      </trkpt>
      <trkpt lat="43.2473760" lon="-5.9043240">
        <ele>662.6</ele>
        <time>2018-06-17T16:32:35Z</time>
      </trkpt>
      <trkpt lat="43.2474220" lon="-5.9041740">
        <ele>660.8</ele>
        <time>2018-06-17T16:32:37Z</time>
      </trkpt>
      <trkpt lat="43.2474240" lon="-5.9040870">
        <ele>660.0</ele>
        <time>2018-06-17T16:32:38Z</time>
      </trkpt>
      <trkpt lat="43.2474160" lon="-5.9039980">
        <ele>659.2</ele>
        <time>2018-06-17T16:32:39Z</time>
      </trkpt>
      <trkpt lat="43.2474020" lon="-5.9038280">
        <ele>657.6</ele>
        <time>2018-06-17T16:32:41Z</time>
      </trkpt>
      <trkpt lat="43.2473230" lon="-5.9036460">
        <ele>656.2</ele>
        <time>2018-06-17T16:32:44Z</time>
      </trkpt>
      <trkpt lat="43.2471350" lon="-5.9036290">
        <ele>654.8</ele>
        <time>2018-06-17T16:32:47Z</time>
      </trkpt>
      <trkpt lat="43.2470720" lon="-5.9036460">
        <ele>654.2</ele>
        <time>2018-06-17T16:32:48Z</time>
      </trkpt>
      <trkpt lat="43.2470070" lon="-5.9036610">
        <ele>653.8</ele>
        <time>2018-06-17T16:32:49Z</time>
      </trkpt>
      <trkpt lat="43.2468210" lon="-5.9036820">
        <ele>652.6</ele>
        <time>2018-06-17T16:32:52Z</time>
      </trkpt>
      <trkpt lat="43.2466840" lon="-5.9036620">
        <ele>652.2</ele>
        <time>2018-06-17T16:32:54Z</time>
      </trkpt>
      <trkpt lat="43.2466170" lon="-5.9036350">
        <ele>651.6</ele>
        <time>2018-06-17T16:32:55Z</time>
      </trkpt>
      <trkpt lat="43.2464870" lon="-5.9035400">
        <ele>650.6</ele>
        <time>2018-06-17T16:32:57Z</time>
      </trkpt>
      <trkpt lat="43.2464300" lon="-5.9034770">
        <ele>649.2</ele>
        <time>2018-06-17T16:32:58Z</time>
      </trkpt>
      <trkpt lat="43.2463760" lon="-5.9034000">
        <ele>648.2</ele>
        <time>2018-06-17T16:32:59Z</time>
      </trkpt>
      <trkpt lat="43.2462740" lon="-5.9032320">
        <ele>647.0</ele>
        <time>2018-06-17T16:33:01Z</time>
      </trkpt>
      <trkpt lat="43.2461660" lon="-5.9030790">
        <ele>646.0</ele>
        <time>2018-06-17T16:33:03Z</time>
      </trkpt>
      <trkpt lat="43.2460660" lon="-5.9029350">
        <ele>645.0</ele>
        <time>2018-06-17T16:33:05Z</time>
      </trkpt>
      <trkpt lat="43.2459440" lon="-5.9027190">
        <ele>643.6</ele>
        <time>2018-06-17T16:33:08Z</time>
      </trkpt>
      <trkpt lat="43.2458270" lon="-5.9024790">
        <ele>642.6</ele>
        <time>2018-06-17T16:33:11Z</time>
      </trkpt>
      <trkpt lat="43.2457380" lon="-5.9022780">
        <ele>641.4</ele>
        <time>2018-06-17T16:33:14Z</time>
      </trkpt>
      <trkpt lat="43.2457280" lon="-5.9022130">
        <ele>641.0</ele>
        <time>2018-06-17T16:33:15Z</time>
      </trkpt>
      <trkpt lat="43.2457150" lon="-5.9021520">
        <ele>640.0</ele>
        <time>2018-06-17T16:33:16Z</time>
      </trkpt>
      <trkpt lat="43.2456930" lon="-5.9021050">
        <ele>638.6</ele>
        <time>2018-06-17T16:33:17Z</time>
      </trkpt>
      <trkpt lat="43.2455920" lon="-5.9019830">
        <ele>637.4</ele>
        <time>2018-06-17T16:33:19Z</time>
      </trkpt>
      <trkpt lat="43.2454480" lon="-5.9018980">
        <ele>636.2</ele>
        <time>2018-06-17T16:33:21Z</time>
      </trkpt>
      <trkpt lat="43.2453740" lon="-5.9018730">
        <ele>635.8</ele>
        <time>2018-06-17T16:33:22Z</time>
      </trkpt>
      <trkpt lat="43.2453030" lon="-5.9018460">
        <ele>635.4</ele>
        <time>2018-06-17T16:33:23Z</time>
      </trkpt>
      <trkpt lat="43.2452340" lon="-5.9018050">
        <ele>635.0</ele>
        <time>2018-06-17T16:33:24Z</time>
      </trkpt>
      <trkpt lat="43.2450240" lon="-5.9016450">
        <ele>633.4</ele>
        <time>2018-06-17T16:33:27Z</time>
      </trkpt>
      <trkpt lat="43.2448110" lon="-5.9014700">
        <ele>632.4</ele>
        <time>2018-06-17T16:33:30Z</time>
      </trkpt>
      <trkpt lat="43.2447570" lon="-5.9014070">
        <ele>632.2</ele>
        <time>2018-06-17T16:33:31Z</time>
      </trkpt>
      <trkpt lat="43.2446300" lon="-5.9012790">
        <ele>632.2</ele>
        <time>2018-06-17T16:33:34Z</time>
      </trkpt>
      <trkpt lat="43.2445420" lon="-5.9012470">
        <ele>632.0</ele>
        <time>2018-06-17T16:33:36Z</time>
      </trkpt>
      <trkpt lat="43.2444210" lon="-5.9012030">
        <ele>631.2</ele>
        <time>2018-06-17T16:33:38Z</time>
      </trkpt>
      <trkpt lat="43.2442940" lon="-5.9011370">
        <ele>629.2</ele>
        <time>2018-06-17T16:33:40Z</time>
      </trkpt>
      <trkpt lat="43.2442320" lon="-5.9010860">
        <ele>628.4</ele>
        <time>2018-06-17T16:33:41Z</time>
      </trkpt>
      <trkpt lat="43.2441770" lon="-5.9010200">
        <ele>627.6</ele>
        <time>2018-06-17T16:33:42Z</time>
      </trkpt>
      <trkpt lat="43.2441280" lon="-5.9009360">
        <ele>626.6</ele>
        <time>2018-06-17T16:33:43Z</time>
      </trkpt>
      <trkpt lat="43.2440380" lon="-5.9006280">
        <ele>625.4</ele>
        <time>2018-06-17T16:33:46Z</time>
      </trkpt>
      <trkpt lat="43.2440220" lon="-5.9005190">
        <ele>624.6</ele>
        <time>2018-06-17T16:33:47Z</time>
      </trkpt>
      <trkpt lat="43.2439880" lon="-5.9002970">
        <ele>622.8</ele>
        <time>2018-06-17T16:33:49Z</time>
      </trkpt>
      <trkpt lat="43.2439550" lon="-5.9000660">
        <ele>621.2</ele>
        <time>2018-06-17T16:33:51Z</time>
      </trkpt>
      <trkpt lat="43.2439330" lon="-5.8998420">
        <ele>619.6</ele>
        <time>2018-06-17T16:33:53Z</time>
      </trkpt>
      <trkpt lat="43.2439370" lon="-5.8996260">
        <ele>618.2</ele>
        <time>2018-06-17T16:33:55Z</time>
      </trkpt>
      <trkpt lat="43.2439880" lon="-5.8994240">
        <ele>616.6</ele>
        <time>2018-06-17T16:33:57Z</time>
      </trkpt>
      <trkpt lat="43.2440620" lon="-5.8992590">
        <ele>615.2</ele>
        <time>2018-06-17T16:33:59Z</time>
      </trkpt>
      <trkpt lat="43.2440970" lon="-5.8991910">
        <ele>614.6</ele>
        <time>2018-06-17T16:34:00Z</time>
      </trkpt>
      <trkpt lat="43.2441160" lon="-5.8991300">
        <ele>614.0</ele>
        <time>2018-06-17T16:34:01Z</time>
      </trkpt>
      <trkpt lat="43.2440430" lon="-5.8990550">
        <ele>612.6</ele>
        <time>2018-06-17T16:34:04Z</time>
      </trkpt>
      <trkpt lat="43.2439550" lon="-5.8991390">
        <ele>611.2</ele>
        <time>2018-06-17T16:34:06Z</time>
      </trkpt>
      <trkpt lat="43.2438530" lon="-5.8992550">
        <ele>609.8</ele>
        <time>2018-06-17T16:34:08Z</time>
      </trkpt>
      <trkpt lat="43.2437270" lon="-5.8993630">
        <ele>608.0</ele>
        <time>2018-06-17T16:34:10Z</time>
      </trkpt>
      <trkpt lat="43.2435830" lon="-5.8994340">
        <ele>606.0</ele>
        <time>2018-06-17T16:34:12Z</time>
      </trkpt>
      <trkpt lat="43.2434230" lon="-5.8994920">
        <ele>604.4</ele>
        <time>2018-06-17T16:34:14Z</time>
      </trkpt>
      <trkpt lat="43.2433360" lon="-5.8995100">
        <ele>603.8</ele>
        <time>2018-06-17T16:34:15Z</time>
      </trkpt>
      <trkpt lat="43.2432460" lon="-5.8995110">
        <ele>603.0</ele>
        <time>2018-06-17T16:34:16Z</time>
      </trkpt>
      <trkpt lat="43.2431540" lon="-5.8995010">
        <ele>601.6</ele>
        <time>2018-06-17T16:34:17Z</time>
      </trkpt>
      <trkpt lat="43.2430600" lon="-5.8994920">
        <ele>600.4</ele>
        <time>2018-06-17T16:34:18Z</time>
      </trkpt>
      <trkpt lat="43.2429670" lon="-5.8994890">
        <ele>599.2</ele>
        <time>2018-06-17T16:34:19Z</time>
      </trkpt>
      <trkpt lat="43.2427900" lon="-5.8994950">
        <ele>597.8</ele>
        <time>2018-06-17T16:34:21Z</time>
      </trkpt>
      <trkpt lat="43.2426260" lon="-5.8995210">
        <ele>596.4</ele>
        <time>2018-06-17T16:34:23Z</time>
      </trkpt>
      <trkpt lat="43.2424010" lon="-5.8996480">
        <ele>594.8</ele>
        <time>2018-06-17T16:34:26Z</time>
      </trkpt>
      <trkpt lat="43.2423010" lon="-5.8997730">
        <ele>593.0</ele>
        <time>2018-06-17T16:34:28Z</time>
      </trkpt>
      <trkpt lat="43.2422720" lon="-5.8999280">
        <ele>591.8</ele>
        <time>2018-06-17T16:34:30Z</time>
      </trkpt>
      <trkpt lat="43.2423200" lon="-5.9000960">
        <ele>590.2</ele>
        <time>2018-06-17T16:34:32Z</time>
      </trkpt>
      <trkpt lat="43.2424010" lon="-5.9002550">
        <ele>588.8</ele>
        <time>2018-06-17T16:34:34Z</time>
      </trkpt>
      <trkpt lat="43.2424490" lon="-5.9003290">
        <ele>588.0</ele>
        <time>2018-06-17T16:34:35Z</time>
      </trkpt>
      <trkpt lat="43.2425040" lon="-5.9004050">
        <ele>587.2</ele>
        <time>2018-06-17T16:34:36Z</time>
      </trkpt>
      <trkpt lat="43.2425610" lon="-5.9004820">
        <ele>586.0</ele>
        <time>2018-06-17T16:34:37Z</time>
      </trkpt>
      <trkpt lat="43.2426720" lon="-5.9006530">
        <ele>584.6</ele>
        <time>2018-06-17T16:34:39Z</time>
      </trkpt>
      <trkpt lat="43.2427190" lon="-5.9007490">
        <ele>583.6</ele>
        <time>2018-06-17T16:34:40Z</time>
      </trkpt>
      <trkpt lat="43.2427450" lon="-5.9008560">
        <ele>582.4</ele>
        <time>2018-06-17T16:34:41Z</time>
      </trkpt>
      <trkpt lat="43.2427490" lon="-5.9010750">
        <ele>580.8</ele>
        <time>2018-06-17T16:34:43Z</time>
      </trkpt>
      <trkpt lat="43.2427410" lon="-5.9011780">
        <ele>580.0</ele>
        <time>2018-06-17T16:34:44Z</time>
      </trkpt>
      <trkpt lat="43.2427400" lon="-5.9012750">
        <ele>579.6</ele>
        <time>2018-06-17T16:34:45Z</time>
      </trkpt>
      <trkpt lat="43.2427770" lon="-5.9014680">
        <ele>578.2</ele>
        <time>2018-06-17T16:34:47Z</time>
      </trkpt>
      <trkpt lat="43.2428510" lon="-5.9016710">
        <ele>576.6</ele>
        <time>2018-06-17T16:34:49Z</time>
      </trkpt>
      <trkpt lat="43.2429090" lon="-5.9018880">
        <ele>575.0</ele>
        <time>2018-06-17T16:34:51Z</time>
      </trkpt>
      <trkpt lat="43.2429170" lon="-5.9019960">
        <ele>574.0</ele>
        <time>2018-06-17T16:34:52Z</time>
      </trkpt>
      <trkpt lat="43.2429190" lon="-5.9021960">
        <ele>572.4</ele>
        <time>2018-06-17T16:34:54Z</time>
      </trkpt>
      <trkpt lat="43.2429310" lon="-5.9022920">
        <ele>571.2</ele>
        <time>2018-06-17T16:34:55Z</time>
      </trkpt>
      <trkpt lat="43.2430100" lon="-5.9024660">
        <ele>570.0</ele>
        <time>2018-06-17T16:34:57Z</time>
      </trkpt>
      <trkpt lat="43.2431320" lon="-5.9026070">
        <ele>568.8</ele>
        <time>2018-06-17T16:34:59Z</time>
      </trkpt>
      <trkpt lat="43.2432390" lon="-5.9027710">
        <ele>567.2</ele>
        <time>2018-06-17T16:35:01Z</time>
      </trkpt>
      <trkpt lat="43.2432830" lon="-5.9028570">
        <ele>566.6</ele>
        <time>2018-06-17T16:35:02Z</time>
      </trkpt>
      <trkpt lat="43.2433290" lon="-5.9029450">
        <ele>565.8</ele>
        <time>2018-06-17T16:35:03Z</time>
      </trkpt>
      <trkpt lat="43.2434150" lon="-5.9031140">
        <ele>564.4</ele>
        <time>2018-06-17T16:35:05Z</time>
      </trkpt>
      <trkpt lat="43.2435030" lon="-5.9032520">
        <ele>563.2</ele>
        <time>2018-06-17T16:35:07Z</time>
      </trkpt>
      <trkpt lat="43.2435450" lon="-5.9032970">
        <ele>562.4</ele>
        <time>2018-06-17T16:35:08Z</time>
      </trkpt>
      <trkpt lat="43.2435940" lon="-5.9033340">
        <ele>561.8</ele>
        <time>2018-06-17T16:35:09Z</time>
      </trkpt>
      <trkpt lat="43.2436540" lon="-5.9033730">
        <ele>560.6</ele>
        <time>2018-06-17T16:35:10Z</time>
      </trkpt>
      <trkpt lat="43.2438220" lon="-5.9034590">
        <ele>558.4</ele>
        <time>2018-06-17T16:35:12Z</time>
      </trkpt>
      <trkpt lat="43.2438980" lon="-5.9035060">
        <ele>557.2</ele>
        <time>2018-06-17T16:35:13Z</time>
      </trkpt>
      <trkpt lat="43.2440410" lon="-5.9036330">
        <ele>555.8</ele>
        <time>2018-06-17T16:35:15Z</time>
      </trkpt>
      <trkpt lat="43.2441350" lon="-5.9039120">
        <ele>554.6</ele>
        <time>2018-06-17T16:35:18Z</time>
      </trkpt>
      <trkpt lat="43.2441010" lon="-5.9041310">
        <ele>553.2</ele>
        <time>2018-06-17T16:35:20Z</time>
      </trkpt>
      <trkpt lat="43.2440770" lon="-5.9042400">
        <ele>552.4</ele>
        <time>2018-06-17T16:35:21Z</time>
      </trkpt>
      <trkpt lat="43.2440500" lon="-5.9043470">
        <ele>552.0</ele>
        <time>2018-06-17T16:35:22Z</time>
      </trkpt>
      <trkpt lat="43.2439890" lon="-5.9045430">
        <ele>551.4</ele>
        <time>2018-06-17T16:35:24Z</time>
      </trkpt>
      <trkpt lat="43.2438780" lon="-5.9046960">
        <ele>550.6</ele>
        <time>2018-06-17T16:35:26Z</time>
      </trkpt>
      <trkpt lat="43.2437670" lon="-5.9048130">
        <ele>549.0</ele>
        <time>2018-06-17T16:35:28Z</time>
      </trkpt>
      <trkpt lat="43.2436810" lon="-5.9048910">
        <ele>547.8</ele>
        <time>2018-06-17T16:35:30Z</time>
      </trkpt>
      <trkpt lat="43.2436040" lon="-5.9048920">
        <ele>547.2</ele>
        <time>2018-06-17T16:35:33Z</time>
      </trkpt>
      <trkpt lat="43.2435760" lon="-5.9047970">
        <ele>546.6</ele>
        <time>2018-06-17T16:35:35Z</time>
      </trkpt>
      <trkpt lat="43.2436580" lon="-5.9046470">
        <ele>545.2</ele>
        <time>2018-06-17T16:35:38Z</time>
      </trkpt>
      <trkpt lat="43.2437270" lon="-5.9045470">
        <ele>544.2</ele>
        <time>2018-06-17T16:35:40Z</time>
      </trkpt>
      <trkpt lat="43.2437580" lon="-5.9043560">
        <ele>542.6</ele>
        <time>2018-06-17T16:35:43Z</time>
      </trkpt>
      <trkpt lat="43.2437020" lon="-5.9041550">
        <ele>541.0</ele>
        <time>2018-06-17T16:35:45Z</time>
      </trkpt>
      <trkpt lat="43.2436350" lon="-5.9039520">
        <ele>539.4</ele>
        <time>2018-06-17T16:35:47Z</time>
      </trkpt>
      <trkpt lat="43.2435440" lon="-5.9037990">
        <ele>538.2</ele>
        <time>2018-06-17T16:35:49Z</time>
      </trkpt>
      <trkpt lat="43.2433970" lon="-5.9036980">
        <ele>537.0</ele>
        <time>2018-06-17T16:35:51Z</time>
      </trkpt>
      <trkpt lat="43.2433210" lon="-5.9036480">
        <ele>536.2</ele>
        <time>2018-06-17T16:35:52Z</time>
      </trkpt>
      <trkpt lat="43.2432470" lon="-5.9035990">
        <ele>535.2</ele>
        <time>2018-06-17T16:35:53Z</time>
      </trkpt>
      <trkpt lat="43.2430960" lon="-5.9034680">
        <ele>533.6</ele>
        <time>2018-06-17T16:35:55Z</time>
      </trkpt>
      <trkpt lat="43.2429370" lon="-5.9033380">
        <ele>531.6</ele>
        <time>2018-06-17T16:35:57Z</time>
      </trkpt>
      <trkpt lat="43.2428580" lon="-5.9032710">
        <ele>530.4</ele>
        <time>2018-06-17T16:35:58Z</time>
      </trkpt>
      <trkpt lat="43.2426970" lon="-5.9031890">
        <ele>528.8</ele>
        <time>2018-06-17T16:36:00Z</time>
      </trkpt>
      <trkpt lat="43.2425530" lon="-5.9031530">
        <ele>527.4</ele>
        <time>2018-06-17T16:36:02Z</time>
      </trkpt>
      <trkpt lat="43.2424210" lon="-5.9029390">
        <ele>526.0</ele>
        <time>2018-06-17T16:36:05Z</time>
      </trkpt>
      <trkpt lat="43.2423810" lon="-5.9028460">
        <ele>524.8</ele>
        <time>2018-06-17T16:36:06Z</time>
      </trkpt>
      <trkpt lat="43.2423330" lon="-5.9027810">
        <ele>523.8</ele>
        <time>2018-06-17T16:36:07Z</time>
      </trkpt>
      <trkpt lat="43.2422650" lon="-5.9027270">
        <ele>522.8</ele>
        <time>2018-06-17T16:36:08Z</time>
      </trkpt>
      <trkpt lat="43.2420890" lon="-5.9026650">
        <ele>521.2</ele>
        <time>2018-06-17T16:36:10Z</time>
      </trkpt>
      <trkpt lat="43.2419980" lon="-5.9026470">
        <ele>519.8</ele>
        <time>2018-06-17T16:36:11Z</time>
      </trkpt>
      <trkpt lat="43.2418200" lon="-5.9026020">
        <ele>518.4</ele>
        <time>2018-06-17T16:36:13Z</time>
      </trkpt>
      <trkpt lat="43.2416380" lon="-5.9025430">
        <ele>517.2</ele>
        <time>2018-06-17T16:36:15Z</time>
      </trkpt>
      <trkpt lat="43.2414640" lon="-5.9024740">
        <ele>515.6</ele>
        <time>2018-06-17T16:36:17Z</time>
      </trkpt>
      <trkpt lat="43.2413800" lon="-5.9024450">
        <ele>514.6</ele>
        <time>2018-06-17T16:36:18Z</time>
      </trkpt>
      <trkpt lat="43.2412990" lon="-5.9024220">
        <ele>513.6</ele>
        <time>2018-06-17T16:36:19Z</time>
      </trkpt>
      <trkpt lat="43.2411250" lon="-5.9023390">
        <ele>512.2</ele>
        <time>2018-06-17T16:36:21Z</time>
      </trkpt>
      <trkpt lat="43.2410350" lon="-5.9022770">
        <ele>511.6</ele>
        <time>2018-06-17T16:36:22Z</time>
      </trkpt>
      <trkpt lat="43.2409480" lon="-5.9022040">
        <ele>511.0</ele>
        <time>2018-06-17T16:36:23Z</time>
      </trkpt>
      <trkpt lat="43.2408660" lon="-5.9021250">
        <ele>510.0</ele>
        <time>2018-06-17T16:36:24Z</time>
      </trkpt>
      <trkpt lat="43.2407820" lon="-5.9020410">
        <ele>508.8</ele>
        <time>2018-06-17T16:36:25Z</time>
      </trkpt>
      <trkpt lat="43.2406230" lon="-5.9018890">
        <ele>507.4</ele>
        <time>2018-06-17T16:36:27Z</time>
      </trkpt>
      <trkpt lat="43.2405440" lon="-5.9018270">
        <ele>506.2</ele>
        <time>2018-06-17T16:36:28Z</time>
      </trkpt>
      <trkpt lat="43.2404660" lon="-5.9017810">
        <ele>505.4</ele>
        <time>2018-06-17T16:36:29Z</time>
      </trkpt>
      <trkpt lat="43.2403920" lon="-5.9017600">
        <ele>504.8</ele>
        <time>2018-06-17T16:36:30Z</time>
      </trkpt>
      <trkpt lat="43.2402150" lon="-5.9017270">
        <ele>503.6</ele>
        <time>2018-06-17T16:36:33Z</time>
      </trkpt>
      <trkpt lat="43.2401770" lon="-5.9015180">
        <ele>502.0</ele>
        <time>2018-06-17T16:36:36Z</time>
      </trkpt>
      <trkpt lat="43.2402100" lon="-5.9013580">
        <ele>500.4</ele>
        <time>2018-06-17T16:36:38Z</time>
      </trkpt>
      <trkpt lat="43.2402180" lon="-5.9012740">
        <ele>499.8</ele>
        <time>2018-06-17T16:36:39Z</time>
      </trkpt>
      <trkpt lat="43.2401920" lon="-5.9011900">
        <ele>499.2</ele>
        <time>2018-06-17T16:36:40Z</time>
      </trkpt>
      <trkpt lat="43.2400720" lon="-5.9010520">
        <ele>497.4</ele>
        <time>2018-06-17T16:36:42Z</time>
      </trkpt>
      <trkpt lat="43.2399190" lon="-5.9009650">
        <ele>495.6</ele>
        <time>2018-06-17T16:36:44Z</time>
      </trkpt>
      <trkpt lat="43.2397770" lon="-5.9008830">
        <ele>494.4</ele>
        <time>2018-06-17T16:36:46Z</time>
      </trkpt>
      <trkpt lat="43.2396790" lon="-5.9006790">
        <ele>492.8</ele>
        <time>2018-06-17T16:36:49Z</time>
      </trkpt>
      <trkpt lat="43.2396650" lon="-5.9005880">
        <ele>492.2</ele>
        <time>2018-06-17T16:36:50Z</time>
      </trkpt>
      <trkpt lat="43.2396410" lon="-5.9005010">
        <ele>491.6</ele>
        <time>2018-06-17T16:36:51Z</time>
      </trkpt>
      <trkpt lat="43.2395210" lon="-5.9003640">
        <ele>489.6</ele>
        <time>2018-06-17T16:36:53Z</time>
      </trkpt>
      <trkpt lat="43.2393840" lon="-5.9002630">
        <ele>488.0</ele>
        <time>2018-06-17T16:36:55Z</time>
      </trkpt>
      <trkpt lat="43.2392460" lon="-5.9002010">
        <ele>486.6</ele>
        <time>2018-06-17T16:36:57Z</time>
      </trkpt>
      <trkpt lat="43.2391880" lon="-5.9001630">
        <ele>486.0</ele>
        <time>2018-06-17T16:36:58Z</time>
      </trkpt>
      <trkpt lat="43.2391350" lon="-5.9000190">
        <ele>485.0</ele>
        <time>2018-06-17T16:37:00Z</time>
      </trkpt>
      <trkpt lat="43.2391460" lon="-5.8998220">
        <ele>484.0</ele>
        <time>2018-06-17T16:37:02Z</time>
      </trkpt>
      <trkpt lat="43.2391450" lon="-5.8997170">
        <ele>483.4</ele>
        <time>2018-06-17T16:37:03Z</time>
      </trkpt>
      <trkpt lat="43.2391260" lon="-5.8996100">
        <ele>482.2</ele>
        <time>2018-06-17T16:37:04Z</time>
      </trkpt>
      <trkpt lat="43.2390570" lon="-5.8993980">
        <ele>480.2</ele>
        <time>2018-06-17T16:37:06Z</time>
      </trkpt>
      <trkpt lat="43.2390010" lon="-5.8991930">
        <ele>479.0</ele>
        <time>2018-06-17T16:37:08Z</time>
      </trkpt>
      <trkpt lat="43.2390090" lon="-5.8989970">
        <ele>477.8</ele>
        <time>2018-06-17T16:37:10Z</time>
      </trkpt>
      <trkpt lat="43.2390900" lon="-5.8988440">
        <ele>476.8</ele>
        <time>2018-06-17T16:37:12Z</time>
      </trkpt>
      <trkpt lat="43.2392220" lon="-5.8987470">
        <ele>475.0</ele>
        <time>2018-06-17T16:37:14Z</time>
      </trkpt>
      <trkpt lat="43.2394050" lon="-5.8986790">
        <ele>473.4</ele>
        <time>2018-06-17T16:37:16Z</time>
      </trkpt>
      <trkpt lat="43.2394990" lon="-5.8986430">
        <ele>472.0</ele>
        <time>2018-06-17T16:37:17Z</time>
      </trkpt>
      <trkpt lat="43.2395920" lon="-5.8985970">
        <ele>470.6</ele>
        <time>2018-06-17T16:37:18Z</time>
      </trkpt>
      <trkpt lat="43.2396800" lon="-5.8985220">
        <ele>469.8</ele>
        <time>2018-06-17T16:37:19Z</time>
      </trkpt>
      <trkpt lat="43.2397580" lon="-5.8984340">
        <ele>469.0</ele>
        <time>2018-06-17T16:37:20Z</time>
      </trkpt>
      <trkpt lat="43.2399020" lon="-5.8982400">
        <ele>467.0</ele>
        <time>2018-06-17T16:37:22Z</time>
      </trkpt>
      <trkpt lat="43.2399660" lon="-5.8981330">
        <ele>466.0</ele>
        <time>2018-06-17T16:37:23Z</time>
      </trkpt>
      <trkpt lat="43.2400410" lon="-5.8980330">
        <ele>465.0</ele>
        <time>2018-06-17T16:37:24Z</time>
      </trkpt>
      <trkpt lat="43.2401970" lon="-5.8978780">
        <ele>463.0</ele>
        <time>2018-06-17T16:37:26Z</time>
      </trkpt>
      <trkpt lat="43.2402710" lon="-5.8978150">
        <ele>462.0</ele>
        <time>2018-06-17T16:37:27Z</time>
      </trkpt>
      <trkpt lat="43.2403840" lon="-5.8976700">
        <ele>460.8</ele>
        <time>2018-06-17T16:37:29Z</time>
      </trkpt>
      <trkpt lat="43.2404440" lon="-5.8974810">
        <ele>459.4</ele>
        <time>2018-06-17T16:37:31Z</time>
      </trkpt>
      <trkpt lat="43.2403210" lon="-5.8973050">
        <ele>458.2</ele>
        <time>2018-06-17T16:37:34Z</time>
      </trkpt>
      <trkpt lat="43.2400790" lon="-5.8973040">
        <ele>457.0</ele>
        <time>2018-06-17T16:37:37Z</time>
      </trkpt>
      <trkpt lat="43.2398190" lon="-5.8973260">
        <ele>455.4</ele>
        <time>2018-06-17T16:37:40Z</time>
      </trkpt>
      <trkpt lat="43.2396460" lon="-5.8973610">
        <ele>453.8</ele>
        <time>2018-06-17T16:37:42Z</time>
      </trkpt>
      <trkpt lat="43.2394820" lon="-5.8974120">
        <ele>452.2</ele>
        <time>2018-06-17T16:37:44Z</time>
      </trkpt>
      <trkpt lat="43.2393340" lon="-5.8974410">
        <ele>450.6</ele>
        <time>2018-06-17T16:37:46Z</time>
      </trkpt>
      <trkpt lat="43.2391810" lon="-5.8974040">
        <ele>448.8</ele>
        <time>2018-06-17T16:37:48Z</time>
      </trkpt>
      <trkpt lat="43.2390200" lon="-5.8973300">
        <ele>447.2</ele>
        <time>2018-06-17T16:37:50Z</time>
      </trkpt>
      <trkpt lat="43.2388570" lon="-5.8972410">
        <ele>445.8</ele>
        <time>2018-06-17T16:37:52Z</time>
      </trkpt>
      <trkpt lat="43.2387720" lon="-5.8971970">
        <ele>444.6</ele>
        <time>2018-06-17T16:37:53Z</time>
      </trkpt>
      <trkpt lat="43.2385960" lon="-5.8971300">
        <ele>443.0</ele>
        <time>2018-06-17T16:37:55Z</time>
      </trkpt>
      <trkpt lat="43.2384130" lon="-5.8971030">
        <ele>441.6</ele>
        <time>2018-06-17T16:37:57Z</time>
      </trkpt>
      <trkpt lat="43.2382300" lon="-5.8970940">
        <ele>440.6</ele>
        <time>2018-06-17T16:37:59Z</time>
      </trkpt>
      <trkpt lat="43.2381390" lon="-5.8970910">
        <ele>439.6</ele>
        <time>2018-06-17T16:38:00Z</time>
      </trkpt>
      <trkpt lat="43.2380480" lon="-5.8970980">
        <ele>438.4</ele>
        <time>2018-06-17T16:38:01Z</time>
      </trkpt>
      <trkpt lat="43.2378660" lon="-5.8971410">
        <ele>436.8</ele>
        <time>2018-06-17T16:38:03Z</time>
      </trkpt>
      <trkpt lat="43.2377070" lon="-5.8972300">
        <ele>435.2</ele>
        <time>2018-06-17T16:38:05Z</time>
      </trkpt>
      <trkpt lat="43.2375740" lon="-5.8973660">
        <ele>433.8</ele>
        <time>2018-06-17T16:38:07Z</time>
      </trkpt>
      <trkpt lat="43.2375080" lon="-5.8974300">
        <ele>433.0</ele>
        <time>2018-06-17T16:38:08Z</time>
      </trkpt>
      <trkpt lat="43.2374350" lon="-5.8974710">
        <ele>431.8</ele>
        <time>2018-06-17T16:38:09Z</time>
      </trkpt>
      <trkpt lat="43.2372740" lon="-5.8974800">
        <ele>430.4</ele>
        <time>2018-06-17T16:38:11Z</time>
      </trkpt>
      <trkpt lat="43.2371170" lon="-5.8974010">
        <ele>429.4</ele>
        <time>2018-06-17T16:38:13Z</time>
      </trkpt>
      <trkpt lat="43.2370490" lon="-5.8973280">
        <ele>428.8</ele>
        <time>2018-06-17T16:38:14Z</time>
      </trkpt>
      <trkpt lat="43.2369370" lon="-5.8971480">
        <ele>427.4</ele>
        <time>2018-06-17T16:38:16Z</time>
      </trkpt>
      <trkpt lat="43.2368590" lon="-5.8969530">
        <ele>425.8</ele>
        <time>2018-06-17T16:38:18Z</time>
      </trkpt>
      <trkpt lat="43.2368390" lon="-5.8968480">
        <ele>425.2</ele>
        <time>2018-06-17T16:38:19Z</time>
      </trkpt>
      <trkpt lat="43.2368280" lon="-5.8967400">
        <ele>424.6</ele>
        <time>2018-06-17T16:38:20Z</time>
      </trkpt>
      <trkpt lat="43.2368040" lon="-5.8965210">
        <ele>423.0</ele>
        <time>2018-06-17T16:38:22Z</time>
      </trkpt>
      <trkpt lat="43.2367210" lon="-5.8963200">
        <ele>421.2</ele>
        <time>2018-06-17T16:38:24Z</time>
      </trkpt>
      <trkpt lat="43.2366100" lon="-5.8961260">
        <ele>419.2</ele>
        <time>2018-06-17T16:38:26Z</time>
      </trkpt>
      <trkpt lat="43.2365630" lon="-5.8960150">
        <ele>417.8</ele>
        <time>2018-06-17T16:38:27Z</time>
      </trkpt>
      <trkpt lat="43.2365210" lon="-5.8958950">
        <ele>416.6</ele>
        <time>2018-06-17T16:38:28Z</time>
      </trkpt>
      <trkpt lat="43.2364830" lon="-5.8957730">
        <ele>415.6</ele>
        <time>2018-06-17T16:38:29Z</time>
      </trkpt>
      <trkpt lat="43.2364540" lon="-5.8956490">
        <ele>415.0</ele>
        <time>2018-06-17T16:38:30Z</time>
      </trkpt>
      <trkpt lat="43.2364330" lon="-5.8955300">
        <ele>414.2</ele>
        <time>2018-06-17T16:38:31Z</time>
      </trkpt>
      <trkpt lat="43.2364080" lon="-5.8953000">
        <ele>412.8</ele>
        <time>2018-06-17T16:38:33Z</time>
      </trkpt>
      <trkpt lat="43.2363330" lon="-5.8950970">
        <ele>411.2</ele>
        <time>2018-06-17T16:38:35Z</time>
      </trkpt>
      <trkpt lat="43.2361960" lon="-5.8949310">
        <ele>409.8</ele>
        <time>2018-06-17T16:38:37Z</time>
      </trkpt>
      <trkpt lat="43.2360590" lon="-5.8947830">
        <ele>408.4</ele>
        <time>2018-06-17T16:38:39Z</time>
      </trkpt>
      <trkpt lat="43.2359810" lon="-5.8947350">
        <ele>407.4</ele>
        <time>2018-06-17T16:38:40Z</time>
      </trkpt>
      <trkpt lat="43.2358210" lon="-5.8946620">
        <ele>406.2</ele>
        <time>2018-06-17T16:38:42Z</time>
      </trkpt>
      <trkpt lat="43.2357070" lon="-5.8945080">
        <ele>404.8</ele>
        <time>2018-06-17T16:38:44Z</time>
      </trkpt>
      <trkpt lat="43.2356170" lon="-5.8943000">
        <ele>403.6</ele>
        <time>2018-06-17T16:38:46Z</time>
      </trkpt>
      <trkpt lat="43.2355680" lon="-5.8942000">
        <ele>402.4</ele>
        <time>2018-06-17T16:38:47Z</time>
      </trkpt>
      <trkpt lat="43.2355110" lon="-5.8941170">
        <ele>401.6</ele>
        <time>2018-06-17T16:38:48Z</time>
      </trkpt>
      <trkpt lat="43.2354380" lon="-5.8940620">
        <ele>401.2</ele>
        <time>2018-06-17T16:38:49Z</time>
      </trkpt>
      <trkpt lat="43.2352680" lon="-5.8940020">
        <ele>399.8</ele>
        <time>2018-06-17T16:38:51Z</time>
      </trkpt>
      <trkpt lat="43.2351880" lon="-5.8939640">
        <ele>399.0</ele>
        <time>2018-06-17T16:38:52Z</time>
      </trkpt>
      <trkpt lat="43.2351210" lon="-5.8939040">
        <ele>398.4</ele>
        <time>2018-06-17T16:38:53Z</time>
      </trkpt>
      <trkpt lat="43.2349920" lon="-5.8936170">
        <ele>396.8</ele>
        <time>2018-06-17T16:38:56Z</time>
      </trkpt>
      <trkpt lat="43.2349650" lon="-5.8935060">
        <ele>396.2</ele>
        <time>2018-06-17T16:38:57Z</time>
      </trkpt>
      <trkpt lat="43.2349340" lon="-5.8933950">
        <ele>395.6</ele>
        <time>2018-06-17T16:38:58Z</time>
      </trkpt>
      <trkpt lat="43.2348410" lon="-5.8931950">
        <ele>394.8</ele>
        <time>2018-06-17T16:39:00Z</time>
      </trkpt>
      <trkpt lat="43.2347320" lon="-5.8930140">
        <ele>393.0</ele>
        <time>2018-06-17T16:39:02Z</time>
      </trkpt>
      <trkpt lat="43.2346820" lon="-5.8929170">
        <ele>392.4</ele>
        <time>2018-06-17T16:39:03Z</time>
      </trkpt>
      <trkpt lat="43.2346360" lon="-5.8928190">
        <ele>391.8</ele>
        <time>2018-06-17T16:39:04Z</time>
      </trkpt>
      <trkpt lat="43.2345360" lon="-5.8926210">
        <ele>390.8</ele>
        <time>2018-06-17T16:39:06Z</time>
      </trkpt>
      <trkpt lat="43.2344270" lon="-5.8924190">
        <ele>389.6</ele>
        <time>2018-06-17T16:39:08Z</time>
      </trkpt>
      <trkpt lat="43.2342890" lon="-5.8921080">
        <ele>388.0</ele>
        <time>2018-06-17T16:39:11Z</time>
      </trkpt>
      <trkpt lat="43.2341920" lon="-5.8918970">
        <ele>386.6</ele>
        <time>2018-06-17T16:39:13Z</time>
      </trkpt>
      <trkpt lat="43.2340950" lon="-5.8916930">
        <ele>385.2</ele>
        <time>2018-06-17T16:39:15Z</time>
      </trkpt>
      <trkpt lat="43.2340390" lon="-5.8916100">
        <ele>384.4</ele>
        <time>2018-06-17T16:39:16Z</time>
      </trkpt>
      <trkpt lat="43.2339710" lon="-5.8915420">
        <ele>383.6</ele>
        <time>2018-06-17T16:39:17Z</time>
      </trkpt>
      <trkpt lat="43.2338130" lon="-5.8914460">
        <ele>382.6</ele>
        <time>2018-06-17T16:39:19Z</time>
      </trkpt>
      <trkpt lat="43.2337410" lon="-5.8913930">
        <ele>382.2</ele>
        <time>2018-06-17T16:39:20Z</time>
      </trkpt>
      <trkpt lat="43.2336490" lon="-5.8912340">
        <ele>381.2</ele>
        <time>2018-06-17T16:39:22Z</time>
      </trkpt>
      <trkpt lat="43.2336250" lon="-5.8909080">
        <ele>380.0</ele>
        <time>2018-06-17T16:39:25Z</time>
      </trkpt>
      <trkpt lat="43.2336060" lon="-5.8906770">
        <ele>378.8</ele>
        <time>2018-06-17T16:39:27Z</time>
      </trkpt>
      <trkpt lat="43.2335450" lon="-5.8904470">
        <ele>377.4</ele>
        <time>2018-06-17T16:39:29Z</time>
      </trkpt>
      <trkpt lat="43.2334970" lon="-5.8902090">
        <ele>376.2</ele>
        <time>2018-06-17T16:39:31Z</time>
      </trkpt>
      <trkpt lat="43.2334650" lon="-5.8899650">
        <ele>374.8</ele>
        <time>2018-06-17T16:39:33Z</time>
      </trkpt>
      <trkpt lat="43.2334520" lon="-5.8897210">
        <ele>373.2</ele>
        <time>2018-06-17T16:39:35Z</time>
      </trkpt>
      <trkpt lat="43.2334350" lon="-5.8894760">
        <ele>371.8</ele>
        <time>2018-06-17T16:39:37Z</time>
      </trkpt>
      <trkpt lat="43.2333890" lon="-5.8892370">
        <ele>370.4</ele>
        <time>2018-06-17T16:39:39Z</time>
      </trkpt>
      <trkpt lat="43.2332980" lon="-5.8890390">
        <ele>369.2</ele>
        <time>2018-06-17T16:39:41Z</time>
      </trkpt>
      <trkpt lat="43.2331580" lon="-5.8889020">
        <ele>367.6</ele>
        <time>2018-06-17T16:39:43Z</time>
      </trkpt>
      <trkpt lat="43.2330380" lon="-5.8887650">
        <ele>366.6</ele>
        <time>2018-06-17T16:39:45Z</time>
      </trkpt>
      <trkpt lat="43.2329660" lon="-5.8885720">
        <ele>365.8</ele>
        <time>2018-06-17T16:39:47Z</time>
      </trkpt>
      <trkpt lat="43.2329240" lon="-5.8884680">
        <ele>365.2</ele>
        <time>2018-06-17T16:39:48Z</time>
      </trkpt>
      <trkpt lat="43.2327980" lon="-5.8882950">
        <ele>364.0</ele>
        <time>2018-06-17T16:39:50Z</time>
      </trkpt>
      <trkpt lat="43.2327310" lon="-5.8882200">
        <ele>362.8</ele>
        <time>2018-06-17T16:39:51Z</time>
      </trkpt>
      <trkpt lat="43.2326110" lon="-5.8880450">
        <ele>361.2</ele>
        <time>2018-06-17T16:39:53Z</time>
      </trkpt>
      <trkpt lat="43.2325290" lon="-5.8878260">
        <ele>359.8</ele>
        <time>2018-06-17T16:39:55Z</time>
      </trkpt>
      <trkpt lat="43.2324970" lon="-5.8877080">
        <ele>358.8</ele>
        <time>2018-06-17T16:39:56Z</time>
      </trkpt>
      <trkpt lat="43.2324670" lon="-5.8874640">
        <ele>357.2</ele>
        <time>2018-06-17T16:39:58Z</time>
      </trkpt>
      <trkpt lat="43.2324880" lon="-5.8872180">
        <ele>355.6</ele>
        <time>2018-06-17T16:40:00Z</time>
      </trkpt>
      <trkpt lat="43.2325420" lon="-5.8869920">
        <ele>354.0</ele>
        <time>2018-06-17T16:40:02Z</time>
      </trkpt>
      <trkpt lat="43.2326090" lon="-5.8868000">
        <ele>353.0</ele>
        <time>2018-06-17T16:40:04Z</time>
      </trkpt>
      <trkpt lat="43.2326500" lon="-5.8867080">
        <ele>352.4</ele>
        <time>2018-06-17T16:40:05Z</time>
      </trkpt>
      <trkpt lat="43.2326620" lon="-5.8866050">
        <ele>352.0</ele>
        <time>2018-06-17T16:40:06Z</time>
      </trkpt>
      <trkpt lat="43.2325470" lon="-5.8863310">
        <ele>350.6</ele>
        <time>2018-06-17T16:40:09Z</time>
      </trkpt>
      <trkpt lat="43.2324140" lon="-5.8860370">
        <ele>349.4</ele>
        <time>2018-06-17T16:40:12Z</time>
      </trkpt>
      <trkpt lat="43.2323300" lon="-5.8858470">
        <ele>348.2</ele>
        <time>2018-06-17T16:40:14Z</time>
      </trkpt>
      <trkpt lat="43.2321870" lon="-5.8855960">
        <ele>347.6</ele>
        <time>2018-06-17T16:40:17Z</time>
      </trkpt>
      <trkpt lat="43.2319900" lon="-5.8854580">
        <ele>347.2</ele>
        <time>2018-06-17T16:40:20Z</time>
      </trkpt>
      <trkpt lat="43.2319200" lon="-5.8854310">
        <ele>347.0</ele>
        <time>2018-06-17T16:40:21Z</time>
      </trkpt>
      <trkpt lat="43.2315220" lon="-5.8851970">
        <ele>346.0</ele>
        <time>2018-06-17T16:40:27Z</time>
      </trkpt>
      <trkpt lat="43.2313350" lon="-5.8850200">
        <ele>344.4</ele>
        <time>2018-06-17T16:40:30Z</time>
      </trkpt>
      <trkpt lat="43.2312380" lon="-5.8847340">
        <ele>343.4</ele>
        <time>2018-06-17T16:40:33Z</time>
      </trkpt>
      <trkpt lat="43.2312300" lon="-5.8845230">
        <ele>342.6</ele>
        <time>2018-06-17T16:40:35Z</time>
      </trkpt>
      <trkpt lat="43.2312220" lon="-5.8844260">
        <ele>342.0</ele>
        <time>2018-06-17T16:40:36Z</time>
      </trkpt>
      <trkpt lat="43.2311630" lon="-5.8842370">
        <ele>341.4</ele>
        <time>2018-06-17T16:40:38Z</time>
      </trkpt>
      <trkpt lat="43.2311030" lon="-5.8841570">
        <ele>340.6</ele>
        <time>2018-06-17T16:40:39Z</time>
      </trkpt>
      <trkpt lat="43.2309780" lon="-5.8840170">
        <ele>339.4</ele>
        <time>2018-06-17T16:40:41Z</time>
      </trkpt>
      <trkpt lat="43.2309100" lon="-5.8839500">
        <ele>338.6</ele>
        <time>2018-06-17T16:40:42Z</time>
      </trkpt>
      <trkpt lat="43.2308470" lon="-5.8838740">
        <ele>338.0</ele>
        <time>2018-06-17T16:40:43Z</time>
      </trkpt>
      <trkpt lat="43.2307610" lon="-5.8836760">
        <ele>336.8</ele>
        <time>2018-06-17T16:40:45Z</time>
      </trkpt>
      <trkpt lat="43.2307280" lon="-5.8832640">
        <ele>336.0</ele>
        <time>2018-06-17T16:40:49Z</time>
      </trkpt>
      <trkpt lat="43.2306860" lon="-5.8830920">
        <ele>335.6</ele>
        <time>2018-06-17T16:40:51Z</time>
      </trkpt>
      <trkpt lat="43.2306570" lon="-5.8829930">
        <ele>335.4</ele>
        <time>2018-06-17T16:40:52Z</time>
      </trkpt>
      <trkpt lat="43.2306490" lon="-5.8827200">
        <ele>335.4</ele>
        <time>2018-06-17T16:40:55Z</time>
      </trkpt>
      <trkpt lat="43.2306610" lon="-5.8826460">
        <ele>335.6</ele>
        <time>2018-06-17T16:40:56Z</time>
      </trkpt>
      <trkpt lat="43.2306800" lon="-5.8825860">
        <ele>336.2</ele>
        <time>2018-06-17T16:40:57Z</time>
      </trkpt>
      <trkpt lat="43.2306930" lon="-5.8824930">
        <ele>337.6</ele>
        <time>2018-06-17T16:40:59Z</time>
      </trkpt>
      <trkpt lat="43.2306950" lon="-5.8824290">
        <ele>338.2</ele>
        <time>2018-06-17T16:41:01Z</time>
      </trkpt>
      <trkpt lat="43.2306880" lon="-5.8823960">
        <ele>338.6</ele>
        <time>2018-06-17T16:41:02Z</time>
      </trkpt>
      <trkpt lat="43.2306580" lon="-5.8823110">
        <ele>339.6</ele>
        <time>2018-06-17T16:41:04Z</time>
      </trkpt>
      <trkpt lat="43.2306880" lon="-5.8822820">
        <ele>339.8</ele>
        <time>2018-06-17T16:41:05Z</time>
      </trkpt>
      <trkpt lat="43.2307030" lon="-5.8822550">
        <ele>340.0</ele>
        <time>2018-06-17T16:41:06Z</time>
      </trkpt>
      <trkpt lat="43.2307050" lon="-5.8822160">
        <ele>341.0</ele>
        <time>2018-06-17T16:41:08Z</time>
      </trkpt>
      <trkpt lat="43.2307090" lon="-5.8821750">
        <ele>341.2</ele>
        <time>2018-06-17T16:41:09Z</time>
      </trkpt>
      <trkpt lat="43.2307110" lon="-5.8820810">
        <ele>341.2</ele>
        <time>2018-06-17T16:41:11Z</time>
      </trkpt>
      <trkpt lat="43.2307160" lon="-5.8819240">
        <ele>341.2</ele>
        <time>2018-06-17T16:41:14Z</time>
      </trkpt>
      <trkpt lat="43.2307430" lon="-5.8818100">
        <ele>340.2</ele>
        <time>2018-06-17T16:41:16Z</time>
      </trkpt>
      <trkpt lat="43.2307630" lon="-5.8817600">
        <ele>340.2</ele>
        <time>2018-06-17T16:41:17Z</time>
      </trkpt>
      <trkpt lat="43.2309000" lon="-5.8815640">
        <ele>339.0</ele>
        <time>2018-06-17T16:41:21Z</time>
      </trkpt>
      <trkpt lat="43.2311690" lon="-5.8812820">
        <ele>338.0</ele>
        <time>2018-06-17T16:41:26Z</time>
      </trkpt>
      <trkpt lat="43.2312620" lon="-5.8811620">
        <ele>337.8</ele>
        <time>2018-06-17T16:41:28Z</time>
      </trkpt>
      <trkpt lat="43.2314100" lon="-5.8810260">
        <ele>337.2</ele>
        <time>2018-06-17T16:41:31Z</time>
      </trkpt>
      <trkpt lat="43.2315480" lon="-5.8809020">
        <ele>336.2</ele>
        <time>2018-06-17T16:41:34Z</time>
      </trkpt>
      <trkpt lat="43.2315960" lon="-5.8808420">
        <ele>335.8</ele>
        <time>2018-06-17T16:41:35Z</time>
      </trkpt>
      <trkpt lat="43.2316810" lon="-5.8806950">
        <ele>335.0</ele>
        <time>2018-06-17T16:41:37Z</time>
      </trkpt>
      <trkpt lat="43.2317300" lon="-5.8806200">
        <ele>334.6</ele>
        <time>2018-06-17T16:41:38Z</time>
      </trkpt>
      <trkpt lat="43.2318360" lon="-5.8804890">
        <ele>334.2</ele>
        <time>2018-06-17T16:41:40Z</time>
      </trkpt>
      <trkpt lat="43.2318960" lon="-5.8804370">
        <ele>334.0</ele>
        <time>2018-06-17T16:41:41Z</time>
      </trkpt>
      <trkpt lat="43.2321090" lon="-5.8803600">
        <ele>333.0</ele>
        <time>2018-06-17T16:41:44Z</time>
      </trkpt>
      <trkpt lat="43.2322960" lon="-5.8802510">
        <ele>331.8</ele>
        <time>2018-06-17T16:41:47Z</time>
      </trkpt>
      <trkpt lat="43.2324050" lon="-5.8801590">
        <ele>331.2</ele>
        <time>2018-06-17T16:41:49Z</time>
      </trkpt>
      <trkpt lat="43.2325120" lon="-5.8800480">
        <ele>330.6</ele>
        <time>2018-06-17T16:41:51Z</time>
      </trkpt>
      <trkpt lat="43.2326540" lon="-5.8798680">
        <ele>329.8</ele>
        <time>2018-06-17T16:41:54Z</time>
      </trkpt>
      <trkpt lat="43.2327570" lon="-5.8797100">
        <ele>329.2</ele>
        <time>2018-06-17T16:41:56Z</time>
      </trkpt>
      <trkpt lat="43.2328890" lon="-5.8794540">
        <ele>328.0</ele>
        <time>2018-06-17T16:41:59Z</time>
      </trkpt>
      <trkpt lat="43.2331320" lon="-5.8791810">
        <ele>327.2</ele>
        <time>2018-06-17T16:42:03Z</time>
      </trkpt>
      <trkpt lat="43.2332230" lon="-5.8791310">
        <ele>326.8</ele>
        <time>2018-06-17T16:42:04Z</time>
      </trkpt>
      <trkpt lat="43.2334600" lon="-5.8789820">
        <ele>326.2</ele>
        <time>2018-06-17T16:42:07Z</time>
      </trkpt>
      <trkpt lat="43.2338990" lon="-5.8787080">
        <ele>326.0</ele>
        <time>2018-06-17T16:42:14Z</time>
      </trkpt>
      <trkpt lat="43.2342940" lon="-5.8784620">
        <ele>326.2</ele>
        <time>2018-06-17T16:42:24Z</time>
      </trkpt>
      <trkpt lat="43.2344490" lon="-5.8784090">
        <ele>326.6</ele>
        <time>2018-06-17T16:42:27Z</time>
      </trkpt>
      <trkpt lat="43.2344650" lon="-5.8783790">
        <ele>326.6</ele>
        <time>2018-06-17T16:42:28Z</time>
      </trkpt>
      <trkpt lat="43.2344030" lon="-5.8781760">
        <ele>325.6</ele>
        <time>2018-06-17T16:42:32Z</time>
      </trkpt>
      <trkpt lat="43.2343700" lon="-5.8781140">
        <ele>325.2</ele>
        <time>2018-06-17T16:42:33Z</time>
      </trkpt>
      <trkpt lat="43.2342930" lon="-5.8779720">
        <ele>324.2</ele>
        <time>2018-06-17T16:42:35Z</time>
      </trkpt>
      <trkpt lat="43.2341460" lon="-5.8777170">
        <ele>323.6</ele>
        <time>2018-06-17T16:42:39Z</time>
      </trkpt>
      <trkpt lat="43.2340170" lon="-5.8775380">
        <ele>323.8</ele>
        <time>2018-06-17T16:42:43Z</time>
      </trkpt>
      <trkpt lat="43.2340200" lon="-5.8773900">
        <ele>323.8</ele>
        <time>2018-06-17T16:42:46Z</time>
      </trkpt>
      <trkpt lat="43.2341060" lon="-5.8772890">
        <ele>323.8</ele>
        <time>2018-06-17T16:42:50Z</time>
      </trkpt>
      <trkpt lat="43.2341550" lon="-5.8772100">
        <ele>324.0</ele>
        <time>2018-06-17T16:42:53Z</time>
      </trkpt>
      <trkpt lat="43.2344490" lon="-5.8771390">
        <ele>323.8</ele>
        <time>2018-06-17T16:43:00Z</time>
      </trkpt>
      <trkpt lat="43.2345390" lon="-5.8769990">
        <ele>323.6</ele>
        <time>2018-06-17T16:43:03Z</time>
      </trkpt>
      <trkpt lat="43.2345590" lon="-5.8769560">
        <ele>323.6</ele>
        <time>2018-06-17T16:43:04Z</time>
      </trkpt>
      <trkpt lat="43.2346890" lon="-5.8768050">
        <ele>323.4</ele>
        <time>2018-06-17T16:43:08Z</time>
      </trkpt>
      <trkpt lat="43.2348040" lon="-5.8767110">
        <ele>323.2</ele>
        <time>2018-06-17T16:43:11Z</time>
      </trkpt>
      <trkpt lat="43.2350370" lon="-5.8766520">
        <ele>322.6</ele>
        <time>2018-06-17T16:43:16Z</time>
      </trkpt>
      <trkpt lat="43.2350750" lon="-5.8766270">
        <ele>322.4</ele>
        <time>2018-06-17T16:43:17Z</time>
      </trkpt>
      <trkpt lat="43.2351870" lon="-5.8765590">
        <ele>322.2</ele>
        <time>2018-06-17T16:43:20Z</time>
      </trkpt>
      <trkpt lat="43.2353360" lon="-5.8764280">
        <ele>322.0</ele>
        <time>2018-06-17T16:43:25Z</time>
      </trkpt>
      <trkpt lat="43.2353840" lon="-5.8764080">
        <ele>321.8</ele>
        <time>2018-06-17T16:43:26Z</time>
      </trkpt>
      <trkpt lat="43.2355810" lon="-5.8763450">
        <ele>321.4</ele>
        <time>2018-06-17T16:43:30Z</time>
      </trkpt>
      <trkpt lat="43.2356380" lon="-5.8763360">
        <ele>321.4</ele>
        <time>2018-06-17T16:43:31Z</time>
      </trkpt>
      <trkpt lat="43.2359710" lon="-5.8762460">
        <ele>321.0</ele>
        <time>2018-06-17T16:43:38Z</time>
      </trkpt>
      <trkpt lat="43.2360820" lon="-5.8762210">
        <ele>321.0</ele>
        <time>2018-06-17T16:43:40Z</time>
      </trkpt>
      <trkpt lat="43.2366410" lon="-5.8761670">
        <ele>321.0</ele>
        <time>2018-06-17T16:43:52Z</time>
      </trkpt>
      <trkpt lat="43.2368310" lon="-5.8761600">
        <ele>321.2</ele>
        <time>2018-06-17T16:43:59Z</time>
      </trkpt>
      <trkpt lat="43.2368800" lon="-5.8761690">
        <ele>321.6</ele>
        <time>2018-06-17T16:44:02Z</time>
      </trkpt>
    </trkseg>
  </trk>
</gpx>
